<?xml version='1.0' encoding='UTF-8'?><gpx version="1.1" creator="JPX - https://github.com/jenetics/jpx" xmlns="http://www.topografix.com/GPX/1/1"><trk><trkseg><trkpt lat="40.752944" lon="-3.7839492"><ele>921.0</ele><time>2026-04-10T07:25:46.998Z</time></trkpt><trkpt lat="40.7529705" lon="-3.7838391"><ele>921.0</ele><time>2026-04-10T07:26:01.013Z</time></trkpt><trkpt lat="40.752948" lon="-3.7839561"><ele>921.0</ele><time>2026-04-10T07:26:45.028Z</time></trkpt><trkpt lat="40.7528941" lon="-3.7840222"><ele>921.0</ele><time>2026-04-10T07:27:10.116Z</time></trkpt><trkpt lat="40.7528527" lon="-3.7840875"><ele>921.0</ele><time>2026-04-10T07:27:13.666Z</time></trkpt><trkpt lat="40.7527899" lon="-3.7841283"><ele>921.0</ele><time>2026-04-10T07:27:47.006Z</time></trkpt><trkpt lat="40.7527001" lon="-3.7839097"><ele>920.6666666666666</ele><time>2026-04-10T07:27:50.998Z</time></trkpt><trkpt lat="40.752663" lon="-3.7837507"><ele>920.3333333333333</ele><time>2026-04-10T07:27:51.998Z</time></trkpt><trkpt lat="40.7526417" lon="-3.7836649"><ele>920.0</ele><time>2026-04-10T07:27:52.998Z</time></trkpt><trkpt lat="40.7526204" lon="-3.78358"><ele>919.6666666666666</ele><time>2026-04-10T07:27:53.998Z</time></trkpt><trkpt lat="40.7526086" lon="-3.7834938"><ele>919.3333333333333</ele><time>2026-04-10T07:27:54.998Z</time></trkpt><trkpt lat="40.7525991" lon="-3.7834053"><ele>919.0</ele><time>2026-04-10T07:27:55.998Z</time></trkpt><trkpt lat="40.7525877" lon="-3.7833124"><ele>918.9999999999999</ele><time>2026-04-10T07:27:56.998Z</time></trkpt><trkpt lat="40.7525801" lon="-3.7831656"><ele>919.0</ele><time>2026-04-10T07:27:58.997Z</time></trkpt><trkpt lat="40.7526296" lon="-3.783024"><ele>919.0</ele><time>2026-04-10T07:28:00.998Z</time></trkpt><trkpt lat="40.7526891" lon="-3.782982"><ele>919.0</ele><time>2026-04-10T07:28:01.998Z</time></trkpt><trkpt lat="40.7527516" lon="-3.7829673"><ele>918.9999999999999</ele><time>2026-04-10T07:28:02.998Z</time></trkpt><trkpt lat="40.7528172" lon="-3.7829505"><ele>919.0</ele><time>2026-04-10T07:28:03.998Z</time></trkpt><trkpt lat="40.7529225" lon="-3.7829096"><ele>919.1666666666666</ele><time>2026-04-10T07:28:05.997Z</time></trkpt><trkpt lat="40.7529861" lon="-3.7829197"><ele>919.3333333333333</ele><time>2026-04-10T07:28:06.997Z</time></trkpt><trkpt lat="40.753047" lon="-3.7829665"><ele>919.5</ele><time>2026-04-10T07:28:07.997Z</time></trkpt><trkpt lat="40.7530835" lon="-3.783086"><ele>919.6666666666667</ele><time>2026-04-10T07:28:09.997Z</time></trkpt><trkpt lat="40.753081" lon="-3.7831793"><ele>919.8333333333334</ele><time>2026-04-10T07:28:10.997Z</time></trkpt><trkpt lat="40.7530842" lon="-3.7832783"><ele>920.0</ele><time>2026-04-10T07:28:11.997Z</time></trkpt><trkpt lat="40.7530941" lon="-3.7833746"><ele>920.0000000000001</ele><time>2026-04-10T07:28:12.997Z</time></trkpt><trkpt lat="40.7531179" lon="-3.7834794"><ele>920.0</ele><time>2026-04-10T07:28:13.997Z</time></trkpt><trkpt lat="40.7531446" lon="-3.7835717"><ele>920.0</ele><time>2026-04-10T07:28:14.997Z</time></trkpt><trkpt lat="40.7531715" lon="-3.7836703"><ele>920.0</ele><time>2026-04-10T07:28:15.997Z</time></trkpt><trkpt lat="40.7531969" lon="-3.7837689"><ele>920.0000000000001</ele><time>2026-04-10T07:28:16.997Z</time></trkpt><trkpt lat="40.7532225" lon="-3.783863"><ele>920.0</ele><time>2026-04-10T07:28:17.997Z</time></trkpt><trkpt lat="40.7532471" lon="-3.7839587"><ele>920.1666666666667</ele><time>2026-04-10T07:28:18.997Z</time></trkpt><trkpt lat="40.7532759" lon="-3.784049"><ele>920.3333333333334</ele><time>2026-04-10T07:28:19.997Z</time></trkpt><trkpt lat="40.7533023" lon="-3.7841423"><ele>920.5</ele><time>2026-04-10T07:28:20.997Z</time></trkpt><trkpt lat="40.7533293" lon="-3.7842254"><ele>920.6666666666667</ele><time>2026-04-10T07:28:21.997Z</time></trkpt><trkpt lat="40.7533772" lon="-3.7843636"><ele>920.8333333333334</ele><time>2026-04-10T07:28:23.997Z</time></trkpt><trkpt lat="40.7534186" lon="-3.7844857"><ele>921.0</ele><time>2026-04-10T07:28:25.997Z</time></trkpt><trkpt lat="40.7534431" lon="-3.7845864"><ele>921.0</ele><time>2026-04-10T07:28:28.997Z</time></trkpt><trkpt lat="40.7534901" lon="-3.7846878"><ele>921.0</ele><time>2026-04-10T07:28:50.997Z</time></trkpt><trkpt lat="40.7535387" lon="-3.7848122"><ele>921.0</ele><time>2026-04-10T07:28:52.997Z</time></trkpt><trkpt lat="40.753574" lon="-3.784883"><ele>921.0</ele><time>2026-04-10T07:28:53.997Z</time></trkpt><trkpt lat="40.7536129" lon="-3.7849572"><ele>921.0</ele><time>2026-04-10T07:28:54.997Z</time></trkpt><trkpt lat="40.7536582" lon="-3.7850337"><ele>921.0</ele><time>2026-04-10T07:28:55.996Z</time></trkpt><trkpt lat="40.7536983" lon="-3.785108"><ele>921.0</ele><time>2026-04-10T07:28:56.997Z</time></trkpt><trkpt lat="40.7537672" lon="-3.78522"><ele>921.0</ele><time>2026-04-10T07:28:58.997Z</time></trkpt><trkpt lat="40.7538229" lon="-3.7853407"><ele>921.0</ele><time>2026-04-10T07:29:00.997Z</time></trkpt><trkpt lat="40.7538489" lon="-3.7854608"><ele>921.0</ele><time>2026-04-10T07:29:02.997Z</time></trkpt><trkpt lat="40.7538263" lon="-3.7855386"><ele>921.0</ele><time>2026-04-10T07:29:04.997Z</time></trkpt><trkpt lat="40.7538405" lon="-3.7856317"><ele>921.0</ele><time>2026-04-10T07:29:06.997Z</time></trkpt><trkpt lat="40.7538941" lon="-3.785756"><ele>921.0</ele><time>2026-04-10T07:29:08.997Z</time></trkpt><trkpt lat="40.7539893" lon="-3.7858555"><ele>921.0</ele><time>2026-04-10T07:29:10.996Z</time></trkpt><trkpt lat="40.7540585" lon="-3.7859043"><ele>921.0</ele><time>2026-04-10T07:29:11.997Z</time></trkpt><trkpt lat="40.7541184" lon="-3.7859626"><ele>921.0</ele><time>2026-04-10T07:29:12.996Z</time></trkpt><trkpt lat="40.7541811" lon="-3.7860271"><ele>921.0</ele><time>2026-04-10T07:29:13.997Z</time></trkpt><trkpt lat="40.7542273" lon="-3.7861081"><ele>921.0</ele><time>2026-04-10T07:29:14.997Z</time></trkpt><trkpt lat="40.754256" lon="-3.7862113"><ele>921.1666666666666</ele><time>2026-04-10T07:29:15.997Z</time></trkpt><trkpt lat="40.7542902" lon="-3.7863182"><ele>921.3333333333333</ele><time>2026-04-10T07:29:16.998Z</time></trkpt><trkpt lat="40.7543195" lon="-3.7864275"><ele>921.5</ele><time>2026-04-10T07:29:17.998Z</time></trkpt><trkpt lat="40.7543356" lon="-3.786532"><ele>921.6666666666666</ele><time>2026-04-10T07:29:18.998Z</time></trkpt><trkpt lat="40.7543405" lon="-3.7866307"><ele>921.8333333333333</ele><time>2026-04-10T07:29:19.998Z</time></trkpt><trkpt lat="40.7543419" lon="-3.7867339"><ele>922.0</ele><time>2026-04-10T07:29:20.997Z</time></trkpt><trkpt lat="40.754372" lon="-3.7868836"><ele>921.9999999999999</ele><time>2026-04-10T07:29:22.998Z</time></trkpt><trkpt lat="40.7544673" lon="-3.786967"><ele>922.0</ele><time>2026-04-10T07:29:24.998Z</time></trkpt><trkpt lat="40.75454" lon="-3.7869829"><ele>922.0</ele><time>2026-04-10T07:29:25.998Z</time></trkpt><trkpt lat="40.7546082" lon="-3.7869967"><ele>922.0</ele><time>2026-04-10T07:29:26.998Z</time></trkpt><trkpt lat="40.7546786" lon="-3.7870151"><ele>921.9999999999999</ele><time>2026-04-10T07:29:27.998Z</time></trkpt><trkpt lat="40.7547447" lon="-3.7870334"><ele>922.0</ele><time>2026-04-10T07:29:28.998Z</time></trkpt><trkpt lat="40.7548188" lon="-3.7870477"><ele>921.9999999999999</ele><time>2026-04-10T07:29:29.998Z</time></trkpt><trkpt lat="40.7548934" lon="-3.7870583"><ele>922.0</ele><time>2026-04-10T07:29:30.998Z</time></trkpt><trkpt lat="40.7549697" lon="-3.787066"><ele>922.0</ele><time>2026-04-10T07:29:31.998Z</time></trkpt><trkpt lat="40.7550552" lon="-3.7870639"><ele>922.0</ele><time>2026-04-10T07:29:32.998Z</time></trkpt><trkpt lat="40.7551356" lon="-3.7870521"><ele>921.9999999999999</ele><time>2026-04-10T07:29:33.998Z</time></trkpt><trkpt lat="40.7552172" lon="-3.7870404"><ele>922.0</ele><time>2026-04-10T07:29:34.998Z</time></trkpt><trkpt lat="40.7552994" lon="-3.7870232"><ele>922.3333333333333</ele><time>2026-04-10T07:29:35.998Z</time></trkpt><trkpt lat="40.7553841" lon="-3.786997"><ele>922.6666666666666</ele><time>2026-04-10T07:29:36.998Z</time></trkpt><trkpt lat="40.755475" lon="-3.7869755"><ele>923.0</ele><time>2026-04-10T07:29:37.998Z</time></trkpt><trkpt lat="40.7555653" lon="-3.7869627"><ele>923.3333333333333</ele><time>2026-04-10T07:29:38.998Z</time></trkpt><trkpt lat="40.7556543" lon="-3.7869642"><ele>923.6666666666666</ele><time>2026-04-10T07:29:39.998Z</time></trkpt><trkpt lat="40.7557426" lon="-3.7869568"><ele>924.0</ele><time>2026-04-10T07:29:40.998Z</time></trkpt><trkpt lat="40.7558362" lon="-3.7869161"><ele>924.0</ele><time>2026-04-10T07:29:41.998Z</time></trkpt><trkpt lat="40.7559203" lon="-3.7868756"><ele>924.0000000000001</ele><time>2026-04-10T07:29:42.998Z</time></trkpt><trkpt lat="40.7560108" lon="-3.786831"><ele>924.0000000000001</ele><time>2026-04-10T07:29:43.998Z</time></trkpt><trkpt lat="40.7561084" lon="-3.7867907"><ele>924.0</ele><time>2026-04-10T07:29:44.997Z</time></trkpt><trkpt lat="40.7562107" lon="-3.7867604"><ele>924.0</ele><time>2026-04-10T07:29:45.998Z</time></trkpt><trkpt lat="40.7563234" lon="-3.7867568"><ele>924.6</ele><time>2026-04-10T07:29:46.998Z</time></trkpt><trkpt lat="40.7564409" lon="-3.786765"><ele>925.2</ele><time>2026-04-10T07:29:47.998Z</time></trkpt><trkpt lat="40.7565547" lon="-3.7867711"><ele>925.8000000000001</ele><time>2026-04-10T07:29:48.998Z</time></trkpt><trkpt lat="40.7566617" lon="-3.7867786"><ele>926.4000000000001</ele><time>2026-04-10T07:29:49.998Z</time></trkpt><trkpt lat="40.7567714" lon="-3.786783"><ele>927.0</ele><time>2026-04-10T07:29:50.998Z</time></trkpt><trkpt lat="40.7568774" lon="-3.78679"><ele>927.0</ele><time>2026-04-10T07:29:51.998Z</time></trkpt><trkpt lat="40.7569866" lon="-3.786797"><ele>927.0</ele><time>2026-04-10T07:29:52.998Z</time></trkpt><trkpt lat="40.7570952" lon="-3.7867971"><ele>927.0</ele><time>2026-04-10T07:29:53.998Z</time></trkpt><trkpt lat="40.757205" lon="-3.7867982"><ele>927.0</ele><time>2026-04-10T07:29:54.998Z</time></trkpt><trkpt lat="40.7573189" lon="-3.7867956"><ele>927.0</ele><time>2026-04-10T07:29:55.998Z</time></trkpt><trkpt lat="40.7574132" lon="-3.7867755"><ele>927.0</ele><time>2026-04-10T07:29:56.998Z</time></trkpt><trkpt lat="40.7575016" lon="-3.7867303"><ele>927.0</ele><time>2026-04-10T07:29:57.997Z</time></trkpt><trkpt lat="40.7575955" lon="-3.7866762"><ele>927.0</ele><time>2026-04-10T07:29:58.998Z</time></trkpt><trkpt lat="40.7576863" lon="-3.7866597"><ele>927.0</ele><time>2026-04-10T07:29:59.998Z</time></trkpt><trkpt lat="40.7577765" lon="-3.7866768"><ele>927.0</ele><time>2026-04-10T07:30:00.998Z</time></trkpt><trkpt lat="40.7578545" lon="-3.7867298"><ele>927.3333333333334</ele><time>2026-04-10T07:30:01.997Z</time></trkpt><trkpt lat="40.7579096" lon="-3.7868162"><ele>927.6666666666667</ele><time>2026-04-10T07:30:02.998Z</time></trkpt><trkpt lat="40.7579456" lon="-3.7869316"><ele>928.0</ele><time>2026-04-10T07:30:03.998Z</time></trkpt><trkpt lat="40.7579418" lon="-3.7870444"><ele>928.3333333333334</ele><time>2026-04-10T07:30:04.998Z</time></trkpt><trkpt lat="40.7578963" lon="-3.7871402"><ele>928.6666666666667</ele><time>2026-04-10T07:30:05.998Z</time></trkpt><trkpt lat="40.7578326" lon="-3.7872243"><ele>929.0</ele><time>2026-04-10T07:30:06.998Z</time></trkpt><trkpt lat="40.7577609" lon="-3.7872966"><ele>929.0000000000001</ele><time>2026-04-10T07:30:07.998Z</time></trkpt><trkpt lat="40.7577021" lon="-3.7873696"><ele>929.0</ele><time>2026-04-10T07:30:08.998Z</time></trkpt><trkpt lat="40.7576843" lon="-3.787464"><ele>929.0</ele><time>2026-04-10T07:30:09.998Z</time></trkpt><trkpt lat="40.757691" lon="-3.787552"><ele>929.0</ele><time>2026-04-10T07:30:10.998Z</time></trkpt><trkpt lat="40.7577288" lon="-3.7876424"><ele>929.0000000000001</ele><time>2026-04-10T07:30:11.998Z</time></trkpt><trkpt lat="40.7577802" lon="-3.7877271"><ele>929.0</ele><time>2026-04-10T07:30:12.998Z</time></trkpt><trkpt lat="40.7578333" lon="-3.7878185"><ele>929.0</ele><time>2026-04-10T07:30:13.997Z</time></trkpt><trkpt lat="40.7578771" lon="-3.7879166"><ele>929.0000000000001</ele><time>2026-04-10T07:30:14.998Z</time></trkpt><trkpt lat="40.7579084" lon="-3.7880262"><ele>929.0000000000001</ele><time>2026-04-10T07:30:15.998Z</time></trkpt><trkpt lat="40.7579358" lon="-3.7881385"><ele>929.0</ele><time>2026-04-10T07:30:16.998Z</time></trkpt><trkpt lat="40.7579616" lon="-3.78826"><ele>929.0</ele><time>2026-04-10T07:30:17.998Z</time></trkpt><trkpt lat="40.7579831" lon="-3.7883829"><ele>929.0000000000001</ele><time>2026-04-10T07:30:18.998Z</time></trkpt><trkpt lat="40.7579978" lon="-3.7884874"><ele>929.0</ele><time>2026-04-10T07:30:19.998Z</time></trkpt><trkpt lat="40.7580023" lon="-3.7885874"><ele>929.0</ele><time>2026-04-10T07:30:20.998Z</time></trkpt><trkpt lat="40.7580089" lon="-3.7886915"><ele>929.0</ele><time>2026-04-10T07:30:21.998Z</time></trkpt><trkpt lat="40.7580221" lon="-3.7888022"><ele>929.0000000000001</ele><time>2026-04-10T07:30:22.998Z</time></trkpt><trkpt lat="40.7580402" lon="-3.7888882"><ele>929.0</ele><time>2026-04-10T07:30:23.998Z</time></trkpt><trkpt lat="40.7580509" lon="-3.7889742"><ele>928.8333333333334</ele><time>2026-04-10T07:30:24.998Z</time></trkpt><trkpt lat="40.7580673" lon="-3.7890615"><ele>928.6666666666667</ele><time>2026-04-10T07:30:25.998Z</time></trkpt><trkpt lat="40.7580926" lon="-3.7891492"><ele>928.5</ele><time>2026-04-10T07:30:26.997Z</time></trkpt><trkpt lat="40.7581197" lon="-3.7892468"><ele>928.3333333333333</ele><time>2026-04-10T07:30:27.998Z</time></trkpt><trkpt lat="40.7581508" lon="-3.7893505"><ele>928.1666666666666</ele><time>2026-04-10T07:30:28.998Z</time></trkpt><trkpt lat="40.7581765" lon="-3.7894569"><ele>928.0</ele><time>2026-04-10T07:30:29.998Z</time></trkpt><trkpt lat="40.758215" lon="-3.7895673"><ele>927.8</ele><time>2026-04-10T07:30:30.997Z</time></trkpt><trkpt lat="40.7582601" lon="-3.7896847"><ele>927.5999999999999</ele><time>2026-04-10T07:30:31.998Z</time></trkpt><trkpt lat="40.7583091" lon="-3.7898043"><ele>927.4000000000001</ele><time>2026-04-10T07:30:32.998Z</time></trkpt><trkpt lat="40.7583527" lon="-3.7899247"><ele>927.2</ele><time>2026-04-10T07:30:33.997Z</time></trkpt><trkpt lat="40.7583906" lon="-3.7900582"><ele>927.0</ele><time>2026-04-10T07:30:34.997Z</time></trkpt><trkpt lat="40.7584177" lon="-3.790197"><ele>927.0</ele><time>2026-04-10T07:30:35.997Z</time></trkpt><trkpt lat="40.7584374" lon="-3.7903196"><ele>927.0</ele><time>2026-04-10T07:30:36.997Z</time></trkpt><trkpt lat="40.7584627" lon="-3.7904275"><ele>927.0</ele><time>2026-04-10T07:30:37.998Z</time></trkpt><trkpt lat="40.7584957" lon="-3.7905171"><ele>927.0</ele><time>2026-04-10T07:30:38.998Z</time></trkpt><trkpt lat="40.7585358" lon="-3.790596"><ele>927.0</ele><time>2026-04-10T07:30:39.998Z</time></trkpt><trkpt lat="40.7585961" lon="-3.7906575"><ele>927.0</ele><time>2026-04-10T07:30:40.998Z</time></trkpt><trkpt lat="40.7586664" lon="-3.7906989"><ele>927.1666666666666</ele><time>2026-04-10T07:30:41.998Z</time></trkpt><trkpt lat="40.7587417" lon="-3.7907242"><ele>927.3333333333333</ele><time>2026-04-10T07:30:42.998Z</time></trkpt><trkpt lat="40.7588049" lon="-3.7907312"><ele>927.5</ele><time>2026-04-10T07:30:43.998Z</time></trkpt><trkpt lat="40.7588799" lon="-3.7907384"><ele>927.6666666666666</ele><time>2026-04-10T07:30:45.998Z</time></trkpt><trkpt lat="40.7589632" lon="-3.7907533"><ele>927.8333333333333</ele><time>2026-04-10T07:30:48.998Z</time></trkpt><trkpt lat="40.7590411" lon="-3.7907624"><ele>928.0</ele><time>2026-04-10T07:30:51.998Z</time></trkpt><trkpt lat="40.7591163" lon="-3.7907709"><ele>928.0</ele><time>2026-04-10T07:30:53.998Z</time></trkpt><trkpt lat="40.7592282" lon="-3.7907789"><ele>928.0</ele><time>2026-04-10T07:30:55.998Z</time></trkpt><trkpt lat="40.7593459" lon="-3.7907657"><ele>928.0</ele><time>2026-04-10T07:30:57.998Z</time></trkpt><trkpt lat="40.7594133" lon="-3.7907474"><ele>928.0</ele><time>2026-04-10T07:30:58.998Z</time></trkpt><trkpt lat="40.7594892" lon="-3.7907202"><ele>928.0</ele><time>2026-04-10T07:30:59.998Z</time></trkpt><trkpt lat="40.7595718" lon="-3.7906978"><ele>928.3333333333333</ele><time>2026-04-10T07:31:00.997Z</time></trkpt><trkpt lat="40.7596608" lon="-3.7906759"><ele>928.6666666666666</ele><time>2026-04-10T07:31:01.997Z</time></trkpt><trkpt lat="40.7597486" lon="-3.7906491"><ele>929.0</ele><time>2026-04-10T07:31:02.998Z</time></trkpt><trkpt lat="40.7598394" lon="-3.7906219"><ele>929.3333333333333</ele><time>2026-04-10T07:31:03.998Z</time></trkpt><trkpt lat="40.7599265" lon="-3.7906009"><ele>929.6666666666666</ele><time>2026-04-10T07:31:04.998Z</time></trkpt><trkpt lat="40.7600085" lon="-3.7905834"><ele>930.0</ele><time>2026-04-10T07:31:05.998Z</time></trkpt><trkpt lat="40.7600843" lon="-3.790572"><ele>930.0</ele><time>2026-04-10T07:31:06.998Z</time></trkpt><trkpt lat="40.7601668" lon="-3.7905577"><ele>930.0</ele><time>2026-04-10T07:31:07.998Z</time></trkpt><trkpt lat="40.7602521" lon="-3.7905503"><ele>930.0</ele><time>2026-04-10T07:31:08.998Z</time></trkpt><trkpt lat="40.7603373" lon="-3.7905414"><ele>930.0</ele><time>2026-04-10T07:31:09.998Z</time></trkpt><trkpt lat="40.7604292" lon="-3.7905373"><ele>930.0</ele><time>2026-04-10T07:31:10.997Z</time></trkpt><trkpt lat="40.7605224" lon="-3.790527"><ele>930.0</ele><time>2026-04-10T07:31:11.998Z</time></trkpt><trkpt lat="40.7606093" lon="-3.7905139"><ele>930.3333333333334</ele><time>2026-04-10T07:31:12.998Z</time></trkpt><trkpt lat="40.7606959" lon="-3.7905014"><ele>930.6666666666667</ele><time>2026-04-10T07:31:13.998Z</time></trkpt><trkpt lat="40.7607752" lon="-3.7904746"><ele>931.0</ele><time>2026-04-10T07:31:14.998Z</time></trkpt><trkpt lat="40.7608465" lon="-3.7904348"><ele>931.3333333333334</ele><time>2026-04-10T07:31:15.998Z</time></trkpt><trkpt lat="40.7609023" lon="-3.7903893"><ele>931.6666666666667</ele><time>2026-04-10T07:31:16.998Z</time></trkpt><trkpt lat="40.7609612" lon="-3.7902982"><ele>932.0</ele><time>2026-04-10T07:31:18.998Z</time></trkpt><trkpt lat="40.7610212" lon="-3.7902622"><ele>932.6</ele><time>2026-04-10T07:31:20.998Z</time></trkpt><trkpt lat="40.761101" lon="-3.7902317"><ele>933.2</ele><time>2026-04-10T07:31:21.998Z</time></trkpt><trkpt lat="40.7611863" lon="-3.7901883"><ele>933.8</ele><time>2026-04-10T07:31:22.998Z</time></trkpt><trkpt lat="40.761271" lon="-3.7901406"><ele>934.4</ele><time>2026-04-10T07:31:23.998Z</time></trkpt><trkpt lat="40.7613582" lon="-3.7901009"><ele>935.0</ele><time>2026-04-10T07:31:24.998Z</time></trkpt><trkpt lat="40.7614462" lon="-3.7900675"><ele>935.0000000000001</ele><time>2026-04-10T07:31:25.998Z</time></trkpt><trkpt lat="40.7615334" lon="-3.790026"><ele>935.0</ele><time>2026-04-10T07:31:26.997Z</time></trkpt><trkpt lat="40.7616083" lon="-3.7899773"><ele>935.0</ele><time>2026-04-10T07:31:27.998Z</time></trkpt><trkpt lat="40.7616749" lon="-3.7899434"><ele>935.0</ele><time>2026-04-10T07:31:28.998Z</time></trkpt><trkpt lat="40.761753" lon="-3.7899062"><ele>935.0000000000001</ele><time>2026-04-10T07:31:29.998Z</time></trkpt><trkpt lat="40.7618233" lon="-3.7898563"><ele>935.0</ele><time>2026-04-10T07:31:30.997Z</time></trkpt><trkpt lat="40.7618846" lon="-3.7898119"><ele>935.0</ele><time>2026-04-10T07:31:31.998Z</time></trkpt><trkpt lat="40.7620002" lon="-3.7897485"><ele>935.0</ele><time>2026-04-10T07:31:33.998Z</time></trkpt><trkpt lat="40.7620615" lon="-3.7897244"><ele>935.0</ele><time>2026-04-10T07:31:34.997Z</time></trkpt><trkpt lat="40.7621712" lon="-3.7896489"><ele>935.0</ele><time>2026-04-10T07:31:36.998Z</time></trkpt><trkpt lat="40.7622736" lon="-3.7895519"><ele>935.0</ele><time>2026-04-10T07:31:38.998Z</time></trkpt><trkpt lat="40.7623678" lon="-3.789493"><ele>935.0000000000001</ele><time>2026-04-10T07:31:40.998Z</time></trkpt><trkpt lat="40.7624396" lon="-3.7894728"><ele>935.0</ele><time>2026-04-10T07:31:41.998Z</time></trkpt><trkpt lat="40.7625271" lon="-3.7894521"><ele>935.0</ele><time>2026-04-10T07:31:42.998Z</time></trkpt><trkpt lat="40.7626111" lon="-3.7894241"><ele>935.0</ele><time>2026-04-10T07:31:43.998Z</time></trkpt><trkpt lat="40.7626951" lon="-3.7893823"><ele>935.0000000000001</ele><time>2026-04-10T07:31:44.998Z</time></trkpt><trkpt lat="40.7627872" lon="-3.7893283"><ele>935.0</ele><time>2026-04-10T07:31:45.998Z</time></trkpt><trkpt lat="40.7628938" lon="-3.7892619"><ele>935.75</ele><time>2026-04-10T07:31:46.998Z</time></trkpt><trkpt lat="40.7630005" lon="-3.7891891"><ele>936.5</ele><time>2026-04-10T07:31:47.998Z</time></trkpt><trkpt lat="40.7631167" lon="-3.7891135"><ele>937.25</ele><time>2026-04-10T07:31:48.998Z</time></trkpt><trkpt lat="40.7632307" lon="-3.7890491"><ele>938.0</ele><time>2026-04-10T07:31:49.997Z</time></trkpt><trkpt lat="40.763336" lon="-3.7889926"><ele>938.0</ele><time>2026-04-10T07:31:50.998Z</time></trkpt><trkpt lat="40.7634364" lon="-3.788936"><ele>938.0</ele><time>2026-04-10T07:31:51.998Z</time></trkpt><trkpt lat="40.7635331" lon="-3.7888754"><ele>938.0</ele><time>2026-04-10T07:31:52.998Z</time></trkpt><trkpt lat="40.7636324" lon="-3.7888124"><ele>938.0</ele><time>2026-04-10T07:31:53.998Z</time></trkpt><trkpt lat="40.7637332" lon="-3.7887528"><ele>938.0</ele><time>2026-04-10T07:31:54.998Z</time></trkpt><trkpt lat="40.7638267" lon="-3.7886849"><ele>939.0</ele><time>2026-04-10T07:31:55.998Z</time></trkpt><trkpt lat="40.7639179" lon="-3.7886132"><ele>940.0</ele><time>2026-04-10T07:31:56.998Z</time></trkpt><trkpt lat="40.7640044" lon="-3.78855"><ele>941.0</ele><time>2026-04-10T07:31:57.998Z</time></trkpt><trkpt lat="40.7640776" lon="-3.7884991"><ele>942.0</ele><time>2026-04-10T07:31:58.998Z</time></trkpt><trkpt lat="40.7641545" lon="-3.7884532"><ele>943.0</ele><time>2026-04-10T07:31:59.998Z</time></trkpt><trkpt lat="40.764229" lon="-3.7883988"><ele>942.9999999999999</ele><time>2026-04-10T07:32:00.998Z</time></trkpt><trkpt lat="40.7643001" lon="-3.7883356"><ele>943.0</ele><time>2026-04-10T07:32:01.997Z</time></trkpt><trkpt lat="40.7643664" lon="-3.7882584"><ele>943.0</ele><time>2026-04-10T07:32:02.998Z</time></trkpt><trkpt lat="40.7644311" lon="-3.7881782"><ele>943.0</ele><time>2026-04-10T07:32:03.998Z</time></trkpt><trkpt lat="40.7644999" lon="-3.788101"><ele>942.9999999999999</ele><time>2026-04-10T07:32:04.998Z</time></trkpt><trkpt lat="40.7645836" lon="-3.7880394"><ele>943.0</ele><time>2026-04-10T07:32:05.998Z</time></trkpt><trkpt lat="40.7646775" lon="-3.7879907"><ele>943.5999999999999</ele><time>2026-04-10T07:32:06.998Z</time></trkpt><trkpt lat="40.7647753" lon="-3.7879413"><ele>944.1999999999999</ele><time>2026-04-10T07:32:07.998Z</time></trkpt><trkpt lat="40.7648701" lon="-3.7878915"><ele>944.8</ele><time>2026-04-10T07:32:08.998Z</time></trkpt><trkpt lat="40.7649695" lon="-3.787843"><ele>945.4</ele><time>2026-04-10T07:32:09.998Z</time></trkpt><trkpt lat="40.7650666" lon="-3.7877973"><ele>946.0</ele><time>2026-04-10T07:32:10.998Z</time></trkpt><trkpt lat="40.765166" lon="-3.7877509"><ele>946.1999999999999</ele><time>2026-04-10T07:32:11.998Z</time></trkpt><trkpt lat="40.7652672" lon="-3.7877122"><ele>946.3999999999999</ele><time>2026-04-10T07:32:12.997Z</time></trkpt><trkpt lat="40.765373" lon="-3.7876769"><ele>946.6</ele><time>2026-04-10T07:32:13.998Z</time></trkpt><trkpt lat="40.7654818" lon="-3.7876473"><ele>946.8</ele><time>2026-04-10T07:32:14.998Z</time></trkpt><trkpt lat="40.7655953" lon="-3.7876141"><ele>947.0</ele><time>2026-04-10T07:32:15.998Z</time></trkpt><trkpt lat="40.7657108" lon="-3.7875841"><ele>947.0</ele><time>2026-04-10T07:32:16.998Z</time></trkpt><trkpt lat="40.7658275" lon="-3.7875519"><ele>947.0</ele><time>2026-04-10T07:32:17.998Z</time></trkpt><trkpt lat="40.7659489" lon="-3.7875189"><ele>947.0</ele><time>2026-04-10T07:32:18.998Z</time></trkpt><trkpt lat="40.7660729" lon="-3.787483"><ele>947.0</ele><time>2026-04-10T07:32:19.998Z</time></trkpt><trkpt lat="40.7661893" lon="-3.7874533"><ele>948.0</ele><time>2026-04-10T07:32:20.998Z</time></trkpt><trkpt lat="40.7663003" lon="-3.7874318"><ele>949.0</ele><time>2026-04-10T07:32:21.998Z</time></trkpt><trkpt lat="40.766415" lon="-3.7874134"><ele>950.0</ele><time>2026-04-10T07:32:22.998Z</time></trkpt><trkpt lat="40.7665289" lon="-3.7874001"><ele>951.0</ele><time>2026-04-10T07:32:23.998Z</time></trkpt><trkpt lat="40.76664" lon="-3.7873852"><ele>951.0</ele><time>2026-04-10T07:32:24.998Z</time></trkpt><trkpt lat="40.7667451" lon="-3.7873817"><ele>950.9999999999999</ele><time>2026-04-10T07:32:25.998Z</time></trkpt><trkpt lat="40.7668496" lon="-3.787378"><ele>950.9999999999999</ele><time>2026-04-10T07:32:26.998Z</time></trkpt><trkpt lat="40.7669418" lon="-3.787375"><ele>951.0</ele><time>2026-04-10T07:32:27.997Z</time></trkpt><trkpt lat="40.7670305" lon="-3.7873672"><ele>951.0</ele><time>2026-04-10T07:32:28.998Z</time></trkpt><trkpt lat="40.7671088" lon="-3.7873505"><ele>951.3333333333334</ele><time>2026-04-10T07:32:29.998Z</time></trkpt><trkpt lat="40.7671821" lon="-3.7873195"><ele>951.6666666666667</ele><time>2026-04-10T07:32:30.998Z</time></trkpt><trkpt lat="40.7672572" lon="-3.7872966"><ele>952.0</ele><time>2026-04-10T07:32:31.998Z</time></trkpt><trkpt lat="40.7673416" lon="-3.7872697"><ele>952.3333333333334</ele><time>2026-04-10T07:32:32.998Z</time></trkpt><trkpt lat="40.767427" lon="-3.7872369"><ele>952.6666666666667</ele><time>2026-04-10T07:32:33.998Z</time></trkpt><trkpt lat="40.7675095" lon="-3.7871959"><ele>953.0</ele><time>2026-04-10T07:32:34.998Z</time></trkpt><trkpt lat="40.7675968" lon="-3.7871568"><ele>953.0</ele><time>2026-04-10T07:32:35.998Z</time></trkpt><trkpt lat="40.7676899" lon="-3.7871126"><ele>953.0</ele><time>2026-04-10T07:32:36.998Z</time></trkpt><trkpt lat="40.7677919" lon="-3.787058"><ele>953.0</ele><time>2026-04-10T07:32:37.998Z</time></trkpt><trkpt lat="40.7679037" lon="-3.7869971"><ele>953.0</ele><time>2026-04-10T07:32:38.998Z</time></trkpt><trkpt lat="40.7680303" lon="-3.7869365"><ele>953.25</ele><time>2026-04-10T07:32:39.998Z</time></trkpt><trkpt lat="40.7681659" lon="-3.7868698"><ele>953.5</ele><time>2026-04-10T07:32:40.998Z</time></trkpt><trkpt lat="40.7682992" lon="-3.7868106"><ele>953.75</ele><time>2026-04-10T07:32:41.998Z</time></trkpt><trkpt lat="40.7684307" lon="-3.7867624"><ele>954.0</ele><time>2026-04-10T07:32:42.998Z</time></trkpt><trkpt lat="40.7685617" lon="-3.7867333"><ele>955.6</ele><time>2026-04-10T07:32:43.998Z</time></trkpt><trkpt lat="40.7686884" lon="-3.7867213"><ele>957.2</ele><time>2026-04-10T07:32:44.998Z</time></trkpt><trkpt lat="40.7688059" lon="-3.786708"><ele>958.8000000000001</ele><time>2026-04-10T07:32:45.998Z</time></trkpt><trkpt lat="40.7689052" lon="-3.7866773"><ele>960.4000000000001</ele><time>2026-04-10T07:32:46.997Z</time></trkpt><trkpt lat="40.768996" lon="-3.7866338"><ele>962.0</ele><time>2026-04-10T07:32:47.998Z</time></trkpt><trkpt lat="40.7690841" lon="-3.786554"><ele>962.0000000000001</ele><time>2026-04-10T07:32:48.998Z</time></trkpt><trkpt lat="40.7691676" lon="-3.7864811"><ele>962.0</ele><time>2026-04-10T07:32:49.998Z</time></trkpt><trkpt lat="40.7692368" lon="-3.7864077"><ele>962.0</ele><time>2026-04-10T07:32:50.998Z</time></trkpt><trkpt lat="40.7692763" lon="-3.7863242"><ele>962.0</ele><time>2026-04-10T07:32:51.998Z</time></trkpt><trkpt lat="40.7693054" lon="-3.7862176"><ele>962.0000000000001</ele><time>2026-04-10T07:32:52.998Z</time></trkpt><trkpt lat="40.7693358" lon="-3.7860977"><ele>962.0</ele><time>2026-04-10T07:32:53.998Z</time></trkpt><trkpt lat="40.7693537" lon="-3.7859547"><ele>963.5</ele><time>2026-04-10T07:32:54.998Z</time></trkpt><trkpt lat="40.7693689" lon="-3.7858007"><ele>965.0</ele><time>2026-04-10T07:32:55.997Z</time></trkpt><trkpt lat="40.7693829" lon="-3.7856435"><ele>966.5</ele><time>2026-04-10T07:32:56.998Z</time></trkpt><trkpt lat="40.7693935" lon="-3.7854831"><ele>968.0</ele><time>2026-04-10T07:32:57.998Z</time></trkpt><trkpt lat="40.7694011" lon="-3.7853146"><ele>968.5</ele><time>2026-04-10T07:32:58.998Z</time></trkpt><trkpt lat="40.7694091" lon="-3.7851403"><ele>969.0</ele><time>2026-04-10T07:32:59.998Z</time></trkpt><trkpt lat="40.7694327" lon="-3.7849639"><ele>969.5</ele><time>2026-04-10T07:33:00.998Z</time></trkpt><trkpt lat="40.7694576" lon="-3.7847974"><ele>970.0</ele><time>2026-04-10T07:33:01.998Z</time></trkpt><trkpt lat="40.7694813" lon="-3.7846423"><ele>970.0</ele><time>2026-04-10T07:33:02.998Z</time></trkpt><trkpt lat="40.7694994" lon="-3.7844932"><ele>970.0</ele><time>2026-04-10T07:33:03.998Z</time></trkpt><trkpt lat="40.7695081" lon="-3.7843388"><ele>970.0</ele><time>2026-04-10T07:33:04.998Z</time></trkpt><trkpt lat="40.7695074" lon="-3.7841829"><ele>970.0</ele><time>2026-04-10T07:33:05.998Z</time></trkpt><trkpt lat="40.7695118" lon="-3.7840276"><ele>969.75</ele><time>2026-04-10T07:33:06.998Z</time></trkpt><trkpt lat="40.7695156" lon="-3.7838736"><ele>969.5</ele><time>2026-04-10T07:33:07.998Z</time></trkpt><trkpt lat="40.7695096" lon="-3.7837252"><ele>969.25</ele><time>2026-04-10T07:33:08.998Z</time></trkpt><trkpt lat="40.7694825" lon="-3.7835693"><ele>969.0</ele><time>2026-04-10T07:33:09.998Z</time></trkpt><trkpt lat="40.7694461" lon="-3.7834162"><ele>968.25</ele><time>2026-04-10T07:33:10.998Z</time></trkpt><trkpt lat="40.7693958" lon="-3.7832658"><ele>967.5</ele><time>2026-04-10T07:33:11.998Z</time></trkpt><trkpt lat="40.7693396" lon="-3.7831171"><ele>966.75</ele><time>2026-04-10T07:33:12.998Z</time></trkpt><trkpt lat="40.7692834" lon="-3.7829634"><ele>966.0</ele><time>2026-04-10T07:33:13.998Z</time></trkpt><trkpt lat="40.7692377" lon="-3.7828058"><ele>963.75</ele><time>2026-04-10T07:33:14.998Z</time></trkpt><trkpt lat="40.7692088" lon="-3.7826474"><ele>961.5</ele><time>2026-04-10T07:33:15.998Z</time></trkpt><trkpt lat="40.7691931" lon="-3.7824861"><ele>959.25</ele><time>2026-04-10T07:33:16.998Z</time></trkpt><trkpt lat="40.7691758" lon="-3.7823243"><ele>957.0</ele><time>2026-04-10T07:33:17.998Z</time></trkpt><trkpt lat="40.7691418" lon="-3.7821619"><ele>957.0</ele><time>2026-04-10T07:33:18.998Z</time></trkpt><trkpt lat="40.7690902" lon="-3.781999"><ele>957.0</ele><time>2026-04-10T07:33:19.998Z</time></trkpt><trkpt lat="40.7690317" lon="-3.7818293"><ele>957.0</ele><time>2026-04-10T07:33:20.998Z</time></trkpt><trkpt lat="40.7689802" lon="-3.7816638"><ele>957.0</ele><time>2026-04-10T07:33:21.998Z</time></trkpt><trkpt lat="40.7689367" lon="-3.7815053"><ele>956.4000000000001</ele><time>2026-04-10T07:33:22.998Z</time></trkpt><trkpt lat="40.7689043" lon="-3.7813572"><ele>955.8000000000001</ele><time>2026-04-10T07:33:23.997Z</time></trkpt><trkpt lat="40.7688855" lon="-3.7812283"><ele>955.2</ele><time>2026-04-10T07:33:24.998Z</time></trkpt><trkpt lat="40.7688681" lon="-3.7811091"><ele>954.6</ele><time>2026-04-10T07:33:25.997Z</time></trkpt><trkpt lat="40.7688508" lon="-3.7810137"><ele>954.0</ele><time>2026-04-10T07:33:26.998Z</time></trkpt><trkpt lat="40.7688527" lon="-3.7808712"><ele>953.8571428571428</ele><time>2026-04-10T07:33:28.998Z</time></trkpt><trkpt lat="40.7689123" lon="-3.7808318"><ele>953.7142857142856</ele><time>2026-04-10T07:33:30.997Z</time></trkpt><trkpt lat="40.769005" lon="-3.7807985"><ele>953.5714285714286</ele><time>2026-04-10T07:33:32.997Z</time></trkpt><trkpt lat="40.7690587" lon="-3.7807529"><ele>953.4285714285713</ele><time>2026-04-10T07:33:33.998Z</time></trkpt><trkpt lat="40.7691122" lon="-3.7807018"><ele>953.2857142857142</ele><time>2026-04-10T07:33:34.998Z</time></trkpt><trkpt lat="40.7691773" lon="-3.780657"><ele>953.1428571428571</ele><time>2026-04-10T07:33:35.998Z</time></trkpt><trkpt lat="40.7692443" lon="-3.7806115"><ele>953.0</ele><time>2026-04-10T07:33:36.998Z</time></trkpt><trkpt lat="40.7693115" lon="-3.780573"><ele>954.2857142857143</ele><time>2026-04-10T07:33:37.998Z</time></trkpt><trkpt lat="40.7693742" lon="-3.7805425"><ele>955.5714285714284</ele><time>2026-04-10T07:33:38.997Z</time></trkpt><trkpt lat="40.7694368" lon="-3.7805016"><ele>956.8571428571428</ele><time>2026-04-10T07:33:39.998Z</time></trkpt><trkpt lat="40.7695023" lon="-3.7804732"><ele>958.1428571428571</ele><time>2026-04-10T07:33:40.998Z</time></trkpt><trkpt lat="40.7695748" lon="-3.7804626"><ele>959.4285714285713</ele><time>2026-04-10T07:33:41.998Z</time></trkpt><trkpt lat="40.7696483" lon="-3.7804784"><ele>960.7142857142856</ele><time>2026-04-10T07:33:42.998Z</time></trkpt><trkpt lat="40.7697211" lon="-3.7805035"><ele>961.9999999999999</ele><time>2026-04-10T07:33:43.998Z</time></trkpt><trkpt lat="40.7698059" lon="-3.7805299"><ele>962.0</ele><time>2026-04-10T07:33:44.998Z</time></trkpt><trkpt lat="40.7698955" lon="-3.780561"><ele>962.0</ele><time>2026-04-10T07:33:45.998Z</time></trkpt><trkpt lat="40.7699716" lon="-3.7805764"><ele>962.0</ele><time>2026-04-10T07:33:46.997Z</time></trkpt><trkpt lat="40.7700745" lon="-3.7805561"><ele>962.0</ele><time>2026-04-10T07:33:48.998Z</time></trkpt><trkpt lat="40.7701791" lon="-3.7805066"><ele>962.0</ele><time>2026-04-10T07:33:50.998Z</time></trkpt><trkpt lat="40.7702655" lon="-3.7803908"><ele>962.5714285714284</ele><time>2026-04-10T07:33:52.997Z</time></trkpt><trkpt lat="40.7702987" lon="-3.7803075"><ele>963.1428571428571</ele><time>2026-04-10T07:33:53.998Z</time></trkpt><trkpt lat="40.7703418" lon="-3.7802345"><ele>963.7142857142857</ele><time>2026-04-10T07:33:54.998Z</time></trkpt><trkpt lat="40.7703907" lon="-3.780173"><ele>964.2857142857142</ele><time>2026-04-10T07:33:55.998Z</time></trkpt><trkpt lat="40.7704463" lon="-3.780125"><ele>964.8571428571429</ele><time>2026-04-10T07:33:56.998Z</time></trkpt><trkpt lat="40.7705187" lon="-3.7801001"><ele>965.4285714285714</ele><time>2026-04-10T07:33:57.998Z</time></trkpt><trkpt lat="40.7705939" lon="-3.7800816"><ele>966.0</ele><time>2026-04-10T07:33:58.997Z</time></trkpt><trkpt lat="40.7706681" lon="-3.7800648"><ele>966.0</ele><time>2026-04-10T07:33:59.998Z</time></trkpt><trkpt lat="40.7707455" lon="-3.7800439"><ele>966.0</ele><time>2026-04-10T07:34:00.997Z</time></trkpt><trkpt lat="40.7708268" lon="-3.7800372"><ele>966.0</ele><time>2026-04-10T07:34:01.998Z</time></trkpt><trkpt lat="40.7709062" lon="-3.7800284"><ele>966.0</ele><time>2026-04-10T07:34:02.998Z</time></trkpt><trkpt lat="40.7709844" lon="-3.7800247"><ele>966.0</ele><time>2026-04-10T07:34:03.998Z</time></trkpt><trkpt lat="40.7710582" lon="-3.7800198"><ele>966.0</ele><time>2026-04-10T07:34:04.998Z</time></trkpt><trkpt lat="40.7711307" lon="-3.7800056"><ele>967.5714285714286</ele><time>2026-04-10T07:34:05.998Z</time></trkpt><trkpt lat="40.7712054" lon="-3.7799967"><ele>969.1428571428571</ele><time>2026-04-10T07:34:06.998Z</time></trkpt><trkpt lat="40.7712806" lon="-3.7799939"><ele>970.7142857142858</ele><time>2026-04-10T07:34:07.998Z</time></trkpt><trkpt lat="40.7713488" lon="-3.7799944"><ele>972.2857142857143</ele><time>2026-04-10T07:34:08.998Z</time></trkpt><trkpt lat="40.7714233" lon="-3.7799924"><ele>973.8571428571429</ele><time>2026-04-10T07:34:09.998Z</time></trkpt><trkpt lat="40.7714912" lon="-3.7799828"><ele>975.4285714285716</ele><time>2026-04-10T07:34:10.997Z</time></trkpt><trkpt lat="40.7715646" lon="-3.7799746"><ele>977.0000000000001</ele><time>2026-04-10T07:34:11.998Z</time></trkpt><trkpt lat="40.7716526" lon="-3.7799974"><ele>977.0</ele><time>2026-04-10T07:34:13.998Z</time></trkpt><trkpt lat="40.7717406" lon="-3.7800528"><ele>977.0</ele><time>2026-04-10T07:34:17.998Z</time></trkpt><trkpt lat="40.7718372" lon="-3.7800331"><ele>977.0</ele><time>2026-04-10T07:34:19.998Z</time></trkpt><trkpt lat="40.7719271" lon="-3.7799908"><ele>977.0</ele><time>2026-04-10T07:34:21.998Z</time></trkpt><trkpt lat="40.7720137" lon="-3.7800365"><ele>977.0</ele><time>2026-04-10T07:34:23.998Z</time></trkpt><trkpt lat="40.7721098" lon="-3.7801212"><ele>979.3333333333334</ele><time>2026-04-10T07:34:25.997Z</time></trkpt><trkpt lat="40.7721893" lon="-3.7802051"><ele>981.6666666666667</ele><time>2026-04-10T07:34:27.998Z</time></trkpt><trkpt lat="40.7722517" lon="-3.7802313"><ele>984.0</ele><time>2026-04-10T07:34:29.998Z</time></trkpt><trkpt lat="40.7723229" lon="-3.7802676"><ele>986.3333333333333</ele><time>2026-04-10T07:34:31.998Z</time></trkpt><trkpt lat="40.7724384" lon="-3.7803203"><ele>988.6666666666666</ele><time>2026-04-10T07:34:33.998Z</time></trkpt><trkpt lat="40.772496" lon="-3.7803574"><ele>991.0</ele><time>2026-04-10T07:34:34.998Z</time></trkpt><trkpt lat="40.7726026" lon="-3.7804466"><ele>990.9999999999999</ele><time>2026-04-10T07:34:36.998Z</time></trkpt><trkpt lat="40.7726508" lon="-3.7805055"><ele>991.0</ele><time>2026-04-10T07:34:37.998Z</time></trkpt><trkpt lat="40.7726918" lon="-3.7805825"><ele>991.0</ele><time>2026-04-10T07:34:38.998Z</time></trkpt><trkpt lat="40.772732" lon="-3.7807065"><ele>991.0</ele><time>2026-04-10T07:34:40.998Z</time></trkpt><trkpt lat="40.7727207" lon="-3.7808563"><ele>990.9999999999999</ele><time>2026-04-10T07:34:42.997Z</time></trkpt><trkpt lat="40.7727115" lon="-3.7809487"><ele>991.0</ele><time>2026-04-10T07:34:43.998Z</time></trkpt><trkpt lat="40.7727134" lon="-3.7810375"><ele>993.8333333333333</ele><time>2026-04-10T07:34:44.998Z</time></trkpt><trkpt lat="40.7727224" lon="-3.7811292"><ele>996.6666666666666</ele><time>2026-04-10T07:34:45.998Z</time></trkpt><trkpt lat="40.7727259" lon="-3.781226"><ele>999.5</ele><time>2026-04-10T07:34:46.997Z</time></trkpt><trkpt lat="40.7727329" lon="-3.7813279"><ele>1002.3333333333333</ele><time>2026-04-10T07:34:47.998Z</time></trkpt><trkpt lat="40.7727374" lon="-3.781427"><ele>1005.1666666666666</ele><time>2026-04-10T07:34:48.997Z</time></trkpt><trkpt lat="40.7727558" lon="-3.7815787"><ele>1008.0</ele><time>2026-04-10T07:34:50.998Z</time></trkpt><trkpt lat="40.7728007" lon="-3.7817203"><ele>1007.1666666666666</ele><time>2026-04-10T07:34:52.998Z</time></trkpt><trkpt lat="40.7728592" lon="-3.7818736"><ele>1006.3333333333333</ele><time>2026-04-10T07:34:54.998Z</time></trkpt><trkpt lat="40.7728971" lon="-3.7819545"><ele>1005.5</ele><time>2026-04-10T07:34:55.998Z</time></trkpt><trkpt lat="40.772938" lon="-3.782025"><ele>1004.6666666666666</ele><time>2026-04-10T07:34:56.998Z</time></trkpt><trkpt lat="40.7729879" lon="-3.7820919"><ele>1003.8333333333333</ele><time>2026-04-10T07:34:57.998Z</time></trkpt><trkpt lat="40.7730344" lon="-3.7821709"><ele>1003.0</ele><time>2026-04-10T07:34:58.998Z</time></trkpt><trkpt lat="40.7730774" lon="-3.7822611"><ele>1003.0</ele><time>2026-04-10T07:34:59.998Z</time></trkpt><trkpt lat="40.7731139" lon="-3.7823494"><ele>1002.9999999999999</ele><time>2026-04-10T07:35:00.998Z</time></trkpt><trkpt lat="40.7731581" lon="-3.7824174"><ele>1003.0</ele><time>2026-04-10T07:35:01.998Z</time></trkpt><trkpt lat="40.77324" lon="-3.7824921"><ele>1003.0</ele><time>2026-04-10T07:35:03.998Z</time></trkpt><trkpt lat="40.7732553" lon="-3.7825776"><ele>1002.9999999999999</ele><time>2026-04-10T07:35:05.998Z</time></trkpt><trkpt lat="40.7732697" lon="-3.782675"><ele>1003.0</ele><time>2026-04-10T07:35:07.998Z</time></trkpt><trkpt lat="40.7732954" lon="-3.782751"><ele>1003.0</ele><time>2026-04-10T07:35:08.998Z</time></trkpt><trkpt lat="40.77336" lon="-3.7829065"><ele>1002.5714285714286</ele><time>2026-04-10T07:35:10.998Z</time></trkpt><trkpt lat="40.7734045" lon="-3.7830056"><ele>1002.1428571428571</ele><time>2026-04-10T07:35:11.998Z</time></trkpt><trkpt lat="40.7734366" lon="-3.7831041"><ele>1001.7142857142857</ele><time>2026-04-10T07:35:12.998Z</time></trkpt><trkpt lat="40.7734676" lon="-3.7831889"><ele>1001.2857142857142</ele><time>2026-04-10T07:35:13.998Z</time></trkpt><trkpt lat="40.7735024" lon="-3.7832672"><ele>1000.8571428571429</ele><time>2026-04-10T07:35:14.998Z</time></trkpt><trkpt lat="40.7735238" lon="-3.7833502"><ele>1000.4285714285713</ele><time>2026-04-10T07:35:15.998Z</time></trkpt><trkpt lat="40.7735502" lon="-3.7834317"><ele>1000.0</ele><time>2026-04-10T07:35:16.998Z</time></trkpt><trkpt lat="40.7735873" lon="-3.7835043"><ele>999.9999999999999</ele><time>2026-04-10T07:35:17.998Z</time></trkpt><trkpt lat="40.7736402" lon="-3.7835524"><ele>1000.0</ele><time>2026-04-10T07:35:18.998Z</time></trkpt><trkpt lat="40.7737005" lon="-3.783606"><ele>1000.0</ele><time>2026-04-10T07:35:19.998Z</time></trkpt><trkpt lat="40.7738037" lon="-3.7837146"><ele>1000.0</ele><time>2026-04-10T07:35:21.998Z</time></trkpt><trkpt lat="40.7738636" lon="-3.7837779"><ele>999.9999999999999</ele><time>2026-04-10T07:35:22.998Z</time></trkpt><trkpt lat="40.7739322" lon="-3.7838364"><ele>1000.0</ele><time>2026-04-10T07:35:23.998Z</time></trkpt><trkpt lat="40.7740021" lon="-3.7839031"><ele>999.9999999999999</ele><time>2026-04-10T07:35:24.997Z</time></trkpt><trkpt lat="40.7740687" lon="-3.7839709"><ele>1000.0</ele><time>2026-04-10T07:35:25.997Z</time></trkpt><trkpt lat="40.7741299" lon="-3.7840386"><ele>1000.0</ele><time>2026-04-10T07:35:26.998Z</time></trkpt><trkpt lat="40.7741938" lon="-3.7841018"><ele>1000.0</ele><time>2026-04-10T07:35:27.998Z</time></trkpt><trkpt lat="40.7742574" lon="-3.7841687"><ele>999.9999999999999</ele><time>2026-04-10T07:35:28.998Z</time></trkpt><trkpt lat="40.7743221" lon="-3.7842244"><ele>1000.0</ele><time>2026-04-10T07:35:29.998Z</time></trkpt><trkpt lat="40.7743955" lon="-3.7842582"><ele>1000.1666666666666</ele><time>2026-04-10T07:35:30.998Z</time></trkpt><trkpt lat="40.7744685" lon="-3.7842848"><ele>1000.3333333333333</ele><time>2026-04-10T07:35:31.998Z</time></trkpt><trkpt lat="40.774536" lon="-3.7843267"><ele>1000.5</ele><time>2026-04-10T07:35:32.998Z</time></trkpt><trkpt lat="40.7746084" lon="-3.7843836"><ele>1000.6666666666667</ele><time>2026-04-10T07:35:33.998Z</time></trkpt><trkpt lat="40.7746864" lon="-3.7844474"><ele>1000.8333333333334</ele><time>2026-04-10T07:35:34.998Z</time></trkpt><trkpt lat="40.7747692" lon="-3.784513"><ele>1001.0</ele><time>2026-04-10T07:35:35.998Z</time></trkpt><trkpt lat="40.7748598" lon="-3.7845823"><ele>1000.5999999999999</ele><time>2026-04-10T07:35:36.998Z</time></trkpt><trkpt lat="40.7749498" lon="-3.7846514"><ele>1000.1999999999999</ele><time>2026-04-10T07:35:37.998Z</time></trkpt><trkpt lat="40.7750416" lon="-3.7847177"><ele>999.8000000000001</ele><time>2026-04-10T07:35:38.997Z</time></trkpt><trkpt lat="40.7751255" lon="-3.7847781"><ele>999.4000000000001</ele><time>2026-04-10T07:35:39.998Z</time></trkpt><trkpt lat="40.7752029" lon="-3.7848378"><ele>999.0</ele><time>2026-04-10T07:35:40.998Z</time></trkpt><trkpt lat="40.7752816" lon="-3.7848827"><ele>999.0</ele><time>2026-04-10T07:35:41.998Z</time></trkpt><trkpt lat="40.7753459" lon="-3.7849146"><ele>999.0</ele><time>2026-04-10T07:35:42.998Z</time></trkpt><trkpt lat="40.7754158" lon="-3.7849669"><ele>999.0</ele><time>2026-04-10T07:35:44.998Z</time></trkpt><trkpt lat="40.7754703" lon="-3.7850188"><ele>999.0</ele><time>2026-04-10T07:35:46.998Z</time></trkpt><trkpt lat="40.7755367" lon="-3.7850723"><ele>999.0</ele><time>2026-04-10T07:35:48.997Z</time></trkpt><trkpt lat="40.7756263" lon="-3.7851087"><ele>999.0</ele><time>2026-04-10T07:35:50.998Z</time></trkpt><trkpt lat="40.7757267" lon="-3.7851601"><ele>998.8571428571429</ele><time>2026-04-10T07:35:52.998Z</time></trkpt><trkpt lat="40.7757809" lon="-3.785207"><ele>998.7142857142858</ele><time>2026-04-10T07:35:53.998Z</time></trkpt><trkpt lat="40.7758414" lon="-3.785256"><ele>998.5714285714287</ele><time>2026-04-10T07:35:54.998Z</time></trkpt><trkpt lat="40.7758998" lon="-3.7853202"><ele>998.4285714285716</ele><time>2026-04-10T07:35:55.998Z</time></trkpt><trkpt lat="40.7759553" lon="-3.7853857"><ele>998.2857142857143</ele><time>2026-04-10T07:35:56.998Z</time></trkpt><trkpt lat="40.7760109" lon="-3.7854594"><ele>998.1428571428573</ele><time>2026-04-10T07:35:57.998Z</time></trkpt><trkpt lat="40.7760677" lon="-3.7855288"><ele>998.0000000000001</ele><time>2026-04-10T07:35:58.997Z</time></trkpt><trkpt lat="40.7761201" lon="-3.7856108"><ele>999.0</ele><time>2026-04-10T07:35:59.998Z</time></trkpt><trkpt lat="40.7761649" lon="-3.7856996"><ele>1000.0</ele><time>2026-04-10T07:36:00.997Z</time></trkpt><trkpt lat="40.7762132" lon="-3.7858005"><ele>1001.0</ele><time>2026-04-10T07:36:01.998Z</time></trkpt><trkpt lat="40.7762582" lon="-3.7858972"><ele>1002.0</ele><time>2026-04-10T07:36:02.998Z</time></trkpt><trkpt lat="40.7763025" lon="-3.7859742"><ele>1003.0</ele><time>2026-04-10T07:36:03.998Z</time></trkpt><trkpt lat="40.7763952" lon="-3.7860844"><ele>1002.9999999999999</ele><time>2026-04-10T07:36:05.998Z</time></trkpt><trkpt lat="40.7764851" lon="-3.7861593"><ele>1003.0</ele><time>2026-04-10T07:36:07.998Z</time></trkpt><trkpt lat="40.7765638" lon="-3.7861968"><ele>1003.0</ele><time>2026-04-10T07:36:10.998Z</time></trkpt><trkpt lat="40.7766191" lon="-3.7862492"><ele>1003.0</ele><time>2026-04-10T07:36:13.998Z</time></trkpt><trkpt lat="40.7766607" lon="-3.7863554"><ele>1002.9999999999999</ele><time>2026-04-10T07:36:15.998Z</time></trkpt><trkpt lat="40.776691" lon="-3.7864644"><ele>1003.0</ele><time>2026-04-10T07:36:17.998Z</time></trkpt><trkpt lat="40.776721" lon="-3.7865777"><ele>1003.0</ele><time>2026-04-10T07:36:19.998Z</time></trkpt><trkpt lat="40.7767568" lon="-3.786703"><ele>1003.0</ele><time>2026-04-10T07:36:21.998Z</time></trkpt><trkpt lat="40.7768115" lon="-3.7867893"><ele>1003.0</ele><time>2026-04-10T07:36:23.997Z</time></trkpt><trkpt lat="40.776856" lon="-3.7869239"><ele>1003.0</ele><time>2026-04-10T07:36:25.998Z</time></trkpt><trkpt lat="40.7768842" lon="-3.787"><ele>1003.0</ele><time>2026-04-10T07:36:26.998Z</time></trkpt><trkpt lat="40.7769316" lon="-3.7871513"><ele>1004.0</ele><time>2026-04-10T07:36:28.998Z</time></trkpt><trkpt lat="40.776984" lon="-3.7872909"><ele>1005.0</ele><time>2026-04-10T07:36:30.998Z</time></trkpt><trkpt lat="40.7770651" lon="-3.7874301"><ele>1006.0</ele><time>2026-04-10T07:36:32.998Z</time></trkpt><trkpt lat="40.7771174" lon="-3.7875155"><ele>1007.0</ele><time>2026-04-10T07:36:33.998Z</time></trkpt><trkpt lat="40.7771649" lon="-3.7875833"><ele>1008.0</ele><time>2026-04-10T07:36:34.998Z</time></trkpt><trkpt lat="40.7772534" lon="-3.7876827"><ele>1008.0</ele><time>2026-04-10T07:36:36.998Z</time></trkpt><trkpt lat="40.7773044" lon="-3.7877957"><ele>1008.0</ele><time>2026-04-10T07:36:38.997Z</time></trkpt><trkpt lat="40.7773978" lon="-3.7877494"><ele>1008.0</ele><time>2026-04-10T07:36:41.998Z</time></trkpt><trkpt lat="40.7774429" lon="-3.787666"><ele>1008.0</ele><time>2026-04-10T07:36:42.998Z</time></trkpt><trkpt lat="40.7774869" lon="-3.7875802"><ele>1008.0</ele><time>2026-04-10T07:36:43.998Z</time></trkpt><trkpt lat="40.777536" lon="-3.7874906"><ele>1008.0</ele><time>2026-04-10T07:36:44.997Z</time></trkpt><trkpt lat="40.7775985" lon="-3.7874069"><ele>1008.0</ele><time>2026-04-10T07:36:45.998Z</time></trkpt><trkpt lat="40.7776602" lon="-3.7873066"><ele>1008.0</ele><time>2026-04-10T07:36:46.998Z</time></trkpt><trkpt lat="40.7777212" lon="-3.787202"><ele>1008.0</ele><time>2026-04-10T07:36:47.998Z</time></trkpt><trkpt lat="40.7777588" lon="-3.7871019"><ele>1008.0</ele><time>2026-04-10T07:36:48.998Z</time></trkpt><trkpt lat="40.7777907" lon="-3.7870273"><ele>1008.0</ele><time>2026-04-10T07:36:49.998Z</time></trkpt><trkpt lat="40.7778997" lon="-3.7869928"><ele>1008.8333333333334</ele><time>2026-04-10T07:36:51.998Z</time></trkpt><trkpt lat="40.7779781" lon="-3.7869946"><ele>1009.6666666666667</ele><time>2026-04-10T07:36:52.998Z</time></trkpt><trkpt lat="40.7780537" lon="-3.7869594"><ele>1010.5</ele><time>2026-04-10T07:36:53.998Z</time></trkpt><trkpt lat="40.7780857" lon="-3.7868543"><ele>1011.3333333333334</ele><time>2026-04-10T07:36:55.998Z</time></trkpt><trkpt lat="40.7781135" lon="-3.7867149"><ele>1012.1666666666667</ele><time>2026-04-10T07:36:57.998Z</time></trkpt><trkpt lat="40.778135" lon="-3.7866281"><ele>1013.0</ele><time>2026-04-10T07:36:58.998Z</time></trkpt><trkpt lat="40.7782226" lon="-3.7865488"><ele>1013.0000000000001</ele><time>2026-04-10T07:37:00.997Z</time></trkpt><trkpt lat="40.778297" lon="-3.7865124"><ele>1013.0</ele><time>2026-04-10T07:37:01.997Z</time></trkpt><trkpt lat="40.778367" lon="-3.7864719"><ele>1013.0</ele><time>2026-04-10T07:37:02.998Z</time></trkpt><trkpt lat="40.7784441" lon="-3.786443"><ele>1013.0</ele><time>2026-04-10T07:37:03.998Z</time></trkpt><trkpt lat="40.778538" lon="-3.7864452"><ele>1013.0000000000001</ele><time>2026-04-10T07:37:04.998Z</time></trkpt><trkpt lat="40.7786312" lon="-3.786444"><ele>1013.0</ele><time>2026-04-10T07:37:05.998Z</time></trkpt><trkpt lat="40.778707" lon="-3.7864362"><ele>1013.6666666666667</ele><time>2026-04-10T07:37:06.998Z</time></trkpt><trkpt lat="40.7787801" lon="-3.7863897"><ele>1014.3333333333334</ele><time>2026-04-10T07:37:07.998Z</time></trkpt><trkpt lat="40.7788457" lon="-3.7863322"><ele>1015.0</ele><time>2026-04-10T07:37:08.998Z</time></trkpt><trkpt lat="40.7789139" lon="-3.786273"><ele>1015.6666666666667</ele><time>2026-04-10T07:37:09.997Z</time></trkpt><trkpt lat="40.7789881" lon="-3.7862243"><ele>1016.3333333333334</ele><time>2026-04-10T07:37:10.998Z</time></trkpt><trkpt lat="40.7790715" lon="-3.7861902"><ele>1017.0</ele><time>2026-04-10T07:37:11.998Z</time></trkpt><trkpt lat="40.7791475" lon="-3.7861689"><ele>1017.0</ele><time>2026-04-10T07:37:12.998Z</time></trkpt><trkpt lat="40.7792306" lon="-3.7861703"><ele>1017.0</ele><time>2026-04-10T07:37:13.998Z</time></trkpt><trkpt lat="40.7793241" lon="-3.7861865"><ele>1017.0</ele><time>2026-04-10T07:37:14.998Z</time></trkpt><trkpt lat="40.7794155" lon="-3.7862008"><ele>1017.0</ele><time>2026-04-10T07:37:15.998Z</time></trkpt><trkpt lat="40.7795008" lon="-3.7862156"><ele>1017.0</ele><time>2026-04-10T07:37:16.998Z</time></trkpt><trkpt lat="40.7795888" lon="-3.7862387"><ele>1017.0</ele><time>2026-04-10T07:37:17.998Z</time></trkpt><trkpt lat="40.7796756" lon="-3.7862596"><ele>1017.1666666666666</ele><time>2026-04-10T07:37:18.998Z</time></trkpt><trkpt lat="40.7797513" lon="-3.7862623"><ele>1017.3333333333333</ele><time>2026-04-10T07:37:19.997Z</time></trkpt><trkpt lat="40.7798308" lon="-3.7862568"><ele>1017.5</ele><time>2026-04-10T07:37:20.998Z</time></trkpt><trkpt lat="40.7799132" lon="-3.7862406"><ele>1017.6666666666666</ele><time>2026-04-10T07:37:21.997Z</time></trkpt><trkpt lat="40.7800002" lon="-3.7862219"><ele>1017.8333333333333</ele><time>2026-04-10T07:37:22.998Z</time></trkpt><trkpt lat="40.7800953" lon="-3.7862147"><ele>1018.0</ele><time>2026-04-10T07:37:23.998Z</time></trkpt><trkpt lat="40.7801903" lon="-3.7862114"><ele>1019.3333333333333</ele><time>2026-04-10T07:37:24.998Z</time></trkpt><trkpt lat="40.7802828" lon="-3.7862227"><ele>1020.6666666666666</ele><time>2026-04-10T07:37:25.998Z</time></trkpt><trkpt lat="40.7803663" lon="-3.7862339"><ele>1022.0</ele><time>2026-04-10T07:37:26.998Z</time></trkpt><trkpt lat="40.7804559" lon="-3.7862433"><ele>1023.3333333333333</ele><time>2026-04-10T07:37:27.997Z</time></trkpt><trkpt lat="40.7805364" lon="-3.7862565"><ele>1024.6666666666667</ele><time>2026-04-10T07:37:28.998Z</time></trkpt><trkpt lat="40.7806023" lon="-3.7862657"><ele>1026.0</ele><time>2026-04-10T07:37:29.998Z</time></trkpt><trkpt lat="40.7806665" lon="-3.7862706"><ele>1026.0</ele><time>2026-04-10T07:37:30.998Z</time></trkpt><trkpt lat="40.7807703" lon="-3.7862334"><ele>1026.0</ele><time>2026-04-10T07:37:32.998Z</time></trkpt><trkpt lat="40.7808261" lon="-3.7861617"><ele>1026.0</ele><time>2026-04-10T07:37:34.998Z</time></trkpt><trkpt lat="40.7808726" lon="-3.7859976"><ele>1026.0</ele><time>2026-04-10T07:37:36.998Z</time></trkpt><trkpt lat="40.7808915" lon="-3.7858596"><ele>1026.0</ele><time>2026-04-10T07:37:37.998Z</time></trkpt><trkpt lat="40.7809098" lon="-3.7857076"><ele>1025.75</ele><time>2026-04-10T07:37:38.998Z</time></trkpt><trkpt lat="40.7809215" lon="-3.785558"><ele>1025.5</ele><time>2026-04-10T07:37:39.998Z</time></trkpt><trkpt lat="40.7809336" lon="-3.7853974"><ele>1025.25</ele><time>2026-04-10T07:37:40.998Z</time></trkpt><trkpt lat="40.7809397" lon="-3.7852317"><ele>1025.0</ele><time>2026-04-10T07:37:41.998Z</time></trkpt><trkpt lat="40.7809341" lon="-3.7850632"><ele>1024.5</ele><time>2026-04-10T07:37:42.998Z</time></trkpt><trkpt lat="40.780918" lon="-3.7848956"><ele>1024.0</ele><time>2026-04-10T07:37:43.998Z</time></trkpt><trkpt lat="40.7809049" lon="-3.7847357"><ele>1023.5</ele><time>2026-04-10T07:37:44.998Z</time></trkpt><trkpt lat="40.7809033" lon="-3.7845635"><ele>1023.0</ele><time>2026-04-10T07:37:45.998Z</time></trkpt><trkpt lat="40.7809147" lon="-3.784393"><ele>1022.5</ele><time>2026-04-10T07:37:46.997Z</time></trkpt><trkpt lat="40.7809272" lon="-3.7842106"><ele>1022.0</ele><time>2026-04-10T07:37:47.998Z</time></trkpt><trkpt lat="40.7809255" lon="-3.784009"><ele>1021.5</ele><time>2026-04-10T07:37:48.998Z</time></trkpt><trkpt lat="40.7809022" lon="-3.7838077"><ele>1021.0</ele><time>2026-04-10T07:37:49.998Z</time></trkpt><trkpt lat="40.7808695" lon="-3.7836156"><ele>1021.0</ele><time>2026-04-10T07:37:50.998Z</time></trkpt><trkpt lat="40.7808437" lon="-3.7834306"><ele>1021.0</ele><time>2026-04-10T07:37:51.998Z</time></trkpt><trkpt lat="40.7808309" lon="-3.7832496"><ele>1021.0</ele><time>2026-04-10T07:37:52.998Z</time></trkpt><trkpt lat="40.7808264" lon="-3.7830699"><ele>1021.0</ele><time>2026-04-10T07:37:53.998Z</time></trkpt><trkpt lat="40.7808405" lon="-3.7828807"><ele>1021.0</ele><time>2026-04-10T07:37:54.998Z</time></trkpt><trkpt lat="40.7808653" lon="-3.7826869"><ele>1021.0</ele><time>2026-04-10T07:37:55.998Z</time></trkpt><trkpt lat="40.7809045" lon="-3.7824857"><ele>1021.0</ele><time>2026-04-10T07:37:56.998Z</time></trkpt><trkpt lat="40.7809447" lon="-3.7822836"><ele>1021.25</ele><time>2026-04-10T07:37:57.998Z</time></trkpt><trkpt lat="40.7809869" lon="-3.7821002"><ele>1021.5</ele><time>2026-04-10T07:37:58.998Z</time></trkpt><trkpt lat="40.7810285" lon="-3.7819354"><ele>1021.75</ele><time>2026-04-10T07:37:59.998Z</time></trkpt><trkpt lat="40.7810832" lon="-3.7817959"><ele>1022.0</ele><time>2026-04-10T07:38:00.998Z</time></trkpt><trkpt lat="40.7811431" lon="-3.7816674"><ele>1024.0</ele><time>2026-04-10T07:38:01.998Z</time></trkpt><trkpt lat="40.7812169" lon="-3.7815291"><ele>1026.0</ele><time>2026-04-10T07:38:02.998Z</time></trkpt><trkpt lat="40.7813005" lon="-3.7813821"><ele>1028.0</ele><time>2026-04-10T07:38:03.998Z</time></trkpt><trkpt lat="40.7813842" lon="-3.7812209"><ele>1030.0</ele><time>2026-04-10T07:38:04.998Z</time></trkpt><trkpt lat="40.7814602" lon="-3.7810531"><ele>1030.75</ele><time>2026-04-10T07:38:05.998Z</time></trkpt><trkpt lat="40.7815304" lon="-3.7808764"><ele>1031.5</ele><time>2026-04-10T07:38:06.998Z</time></trkpt><trkpt lat="40.7815924" lon="-3.7807233"><ele>1032.25</ele><time>2026-04-10T07:38:07.998Z</time></trkpt><trkpt lat="40.7816545" lon="-3.7805846"><ele>1033.0</ele><time>2026-04-10T07:38:08.998Z</time></trkpt><trkpt lat="40.781714" lon="-3.7804588"><ele>1033.0</ele><time>2026-04-10T07:38:09.997Z</time></trkpt><trkpt lat="40.7817534" lon="-3.7803289"><ele>1033.0</ele><time>2026-04-10T07:38:10.997Z</time></trkpt><trkpt lat="40.7817733" lon="-3.7802105"><ele>1033.0</ele><time>2026-04-10T07:38:11.998Z</time></trkpt><trkpt lat="40.7817909" lon="-3.7800889"><ele>1033.0</ele><time>2026-04-10T07:38:12.998Z</time></trkpt><trkpt lat="40.7817958" lon="-3.7799649"><ele>1033.0</ele><time>2026-04-10T07:38:13.998Z</time></trkpt><trkpt lat="40.7817957" lon="-3.7798361"><ele>1033.2</ele><time>2026-04-10T07:38:14.998Z</time></trkpt><trkpt lat="40.7817649" lon="-3.7797173"><ele>1033.4</ele><time>2026-04-10T07:38:15.998Z</time></trkpt><trkpt lat="40.7817183" lon="-3.7796021"><ele>1033.6000000000001</ele><time>2026-04-10T07:38:16.998Z</time></trkpt><trkpt lat="40.7816524" lon="-3.7794795"><ele>1033.8</ele><time>2026-04-10T07:38:17.998Z</time></trkpt><trkpt lat="40.7815671" lon="-3.7793608"><ele>1034.0</ele><time>2026-04-10T07:38:18.998Z</time></trkpt><trkpt lat="40.7814699" lon="-3.7792434"><ele>1035.75</ele><time>2026-04-10T07:38:19.998Z</time></trkpt><trkpt lat="40.7813706" lon="-3.7791161"><ele>1037.5</ele><time>2026-04-10T07:38:20.998Z</time></trkpt><trkpt lat="40.7812786" lon="-3.7789962"><ele>1039.25</ele><time>2026-04-10T07:38:21.998Z</time></trkpt><trkpt lat="40.7812038" lon="-3.7788629"><ele>1041.0</ele><time>2026-04-10T07:38:22.998Z</time></trkpt><trkpt lat="40.7811546" lon="-3.778714"><ele>1041.0</ele><time>2026-04-10T07:38:23.998Z</time></trkpt><trkpt lat="40.7811278" lon="-3.7785623"><ele>1041.0</ele><time>2026-04-10T07:38:24.998Z</time></trkpt><trkpt lat="40.7811195" lon="-3.7784309"><ele>1041.0</ele><time>2026-04-10T07:38:25.998Z</time></trkpt><trkpt lat="40.7811207" lon="-3.7783311"><ele>1041.0</ele><time>2026-04-10T07:38:26.998Z</time></trkpt><trkpt lat="40.7811371" lon="-3.7782431"><ele>1041.0</ele><time>2026-04-10T07:38:27.998Z</time></trkpt><trkpt lat="40.7811509" lon="-3.7781545"><ele>1041.0</ele><time>2026-04-10T07:38:28.998Z</time></trkpt><trkpt lat="40.7811629" lon="-3.7780463"><ele>1041.6</ele><time>2026-04-10T07:38:29.998Z</time></trkpt><trkpt lat="40.7811746" lon="-3.7779153"><ele>1042.1999999999998</ele><time>2026-04-10T07:38:30.998Z</time></trkpt><trkpt lat="40.7811888" lon="-3.7777704"><ele>1042.8000000000002</ele><time>2026-04-10T07:38:31.998Z</time></trkpt><trkpt lat="40.7811971" lon="-3.7776222"><ele>1043.4</ele><time>2026-04-10T07:38:32.998Z</time></trkpt><trkpt lat="40.7811896" lon="-3.7774757"><ele>1044.0</ele><time>2026-04-10T07:38:33.998Z</time></trkpt><trkpt lat="40.7811686" lon="-3.7773462"><ele>1044.0</ele><time>2026-04-10T07:38:34.997Z</time></trkpt><trkpt lat="40.7811389" lon="-3.7772129"><ele>1044.0</ele><time>2026-04-10T07:38:35.998Z</time></trkpt><trkpt lat="40.7811231" lon="-3.7770763"><ele>1044.0</ele><time>2026-04-10T07:38:36.998Z</time></trkpt><trkpt lat="40.7811363" lon="-3.7769348"><ele>1044.0</ele><time>2026-04-10T07:38:37.997Z</time></trkpt><trkpt lat="40.7811593" lon="-3.7767812"><ele>1044.0</ele><time>2026-04-10T07:38:38.997Z</time></trkpt><trkpt lat="40.7811928" lon="-3.7766164"><ele>1043.0</ele><time>2026-04-10T07:38:39.998Z</time></trkpt><trkpt lat="40.7812318" lon="-3.7764258"><ele>1042.0</ele><time>2026-04-10T07:38:40.998Z</time></trkpt><trkpt lat="40.7812686" lon="-3.7762267"><ele>1041.0</ele><time>2026-04-10T07:38:41.998Z</time></trkpt><trkpt lat="40.7813045" lon="-3.7760336"><ele>1039.5</ele><time>2026-04-10T07:38:42.998Z</time></trkpt><trkpt lat="40.7813411" lon="-3.775845"><ele>1038.0</ele><time>2026-04-10T07:38:43.998Z</time></trkpt><trkpt lat="40.7813768" lon="-3.7756636"><ele>1036.5</ele><time>2026-04-10T07:38:44.997Z</time></trkpt><trkpt lat="40.7814177" lon="-3.77549"><ele>1035.0</ele><time>2026-04-10T07:38:45.998Z</time></trkpt><trkpt lat="40.7814505" lon="-3.7753271"><ele>1034.4</ele><time>2026-04-10T07:38:46.998Z</time></trkpt><trkpt lat="40.7814844" lon="-3.7751756"><ele>1033.8</ele><time>2026-04-10T07:38:47.998Z</time></trkpt><trkpt lat="40.7815097" lon="-3.7750371"><ele>1033.2</ele><time>2026-04-10T07:38:48.998Z</time></trkpt><trkpt lat="40.7815072" lon="-3.7749134"><ele>1032.6</ele><time>2026-04-10T07:38:49.998Z</time></trkpt><trkpt lat="40.7814825" lon="-3.7747908"><ele>1032.0</ele><time>2026-04-10T07:38:50.998Z</time></trkpt><trkpt lat="40.7814521" lon="-3.7746812"><ele>1032.0</ele><time>2026-04-10T07:38:51.998Z</time></trkpt><trkpt lat="40.7814227" lon="-3.7745862"><ele>1032.0</ele><time>2026-04-10T07:38:52.998Z</time></trkpt><trkpt lat="40.7813911" lon="-3.7745016"><ele>1032.0</ele><time>2026-04-10T07:38:53.998Z</time></trkpt><trkpt lat="40.7813233" lon="-3.7744142"><ele>1032.0</ele><time>2026-04-10T07:38:55.998Z</time></trkpt><trkpt lat="40.78126" lon="-3.7744035"><ele>1032.0</ele><time>2026-04-10T07:38:56.998Z</time></trkpt><trkpt lat="40.7811789" lon="-3.7744261"><ele>1032.0</ele><time>2026-04-10T07:38:57.998Z</time></trkpt><trkpt lat="40.7810913" lon="-3.7744585"><ele>1030.8</ele><time>2026-04-10T07:38:58.997Z</time></trkpt><trkpt lat="40.7809894" lon="-3.7744911"><ele>1029.6</ele><time>2026-04-10T07:38:59.998Z</time></trkpt><trkpt lat="40.7808767" lon="-3.7745264"><ele>1028.3999999999999</ele><time>2026-04-10T07:39:00.998Z</time></trkpt><trkpt lat="40.7807685" lon="-3.7745655"><ele>1027.2</ele><time>2026-04-10T07:39:01.998Z</time></trkpt><trkpt lat="40.7806811" lon="-3.7746025"><ele>1026.0</ele><time>2026-04-10T07:39:02.998Z</time></trkpt><trkpt lat="40.7806083" lon="-3.7746234"><ele>1026.0</ele><time>2026-04-10T07:39:03.998Z</time></trkpt><trkpt lat="40.7805431" lon="-3.7746011"><ele>1026.0</ele><time>2026-04-10T07:39:04.998Z</time></trkpt><trkpt lat="40.7804933" lon="-3.7745049"><ele>1026.0</ele><time>2026-04-10T07:39:06.998Z</time></trkpt><trkpt lat="40.7805211" lon="-3.7743832"><ele>1026.0</ele><time>2026-04-10T07:39:08.998Z</time></trkpt><trkpt lat="40.7805893" lon="-3.7743188"><ele>1026.0</ele><time>2026-04-10T07:39:10.998Z</time></trkpt><trkpt lat="40.7806493" lon="-3.774385"><ele>1026.0</ele><time>2026-04-10T07:39:12.998Z</time></trkpt><trkpt lat="40.7807499" lon="-3.7742968"><ele>1026.0000000000002</ele><time>2026-04-10T07:40:18.998Z</time></trkpt><trkpt lat="40.7806853" lon="-3.774285"><ele>1026.0</ele><time>2026-04-10T07:40:42.998Z</time></trkpt><trkpt lat="40.7807544" lon="-3.7743196"><ele>1026.0</ele><time>2026-04-10T07:41:40.998Z</time></trkpt><trkpt lat="40.7806765" lon="-3.7742926"><ele>1026.0</ele><time>2026-04-10T07:41:50.997Z</time></trkpt><trkpt lat="40.7806122" lon="-3.7742816"><ele>1026.0</ele><time>2026-04-10T07:41:54.997Z</time></trkpt><trkpt lat="40.7806719" lon="-3.7743103"><ele>1026.0000000000002</ele><time>2026-04-10T07:42:35.009Z</time></trkpt><trkpt lat="40.7807388" lon="-3.7742982"><ele>1026.0</ele><time>2026-04-10T07:42:38.998Z</time></trkpt><trkpt lat="40.7808344" lon="-3.774382"><ele>1026.0</ele><time>2026-04-10T07:47:51.998Z</time></trkpt><trkpt lat="40.7809029" lon="-3.7744345"><ele>1026.0</ele><time>2026-04-10T07:47:52.998Z</time></trkpt><trkpt lat="40.7809644" lon="-3.7744618"><ele>1026.0</ele><time>2026-04-10T07:47:53.998Z</time></trkpt><trkpt lat="40.7810286" lon="-3.7744527"><ele>1026.0</ele><time>2026-04-10T07:47:54.998Z</time></trkpt><trkpt lat="40.7810989" lon="-3.7744264"><ele>1026.0</ele><time>2026-04-10T07:47:55.998Z</time></trkpt><trkpt lat="40.7811644" lon="-3.7744009"><ele>1026.0</ele><time>2026-04-10T07:47:56.998Z</time></trkpt><trkpt lat="40.7812804" lon="-3.7743716"><ele>1026.5</ele><time>2026-04-10T07:47:58.998Z</time></trkpt><trkpt lat="40.7813572" lon="-3.7743503"><ele>1027.0</ele><time>2026-04-10T07:47:59.998Z</time></trkpt><trkpt lat="40.7814449" lon="-3.7743172"><ele>1027.5</ele><time>2026-04-10T07:48:00.998Z</time></trkpt><trkpt lat="40.7815241" lon="-3.7742947"><ele>1028.0</ele><time>2026-04-10T07:48:01.998Z</time></trkpt><trkpt lat="40.7816007" lon="-3.7742694"><ele>1028.5</ele><time>2026-04-10T07:48:02.998Z</time></trkpt><trkpt lat="40.7816812" lon="-3.7742434"><ele>1029.0</ele><time>2026-04-10T07:48:03.997Z</time></trkpt><trkpt lat="40.7817668" lon="-3.7742154"><ele>1029.4</ele><time>2026-04-10T07:48:04.998Z</time></trkpt><trkpt lat="40.781856" lon="-3.7741821"><ele>1029.8000000000002</ele><time>2026-04-10T07:48:05.998Z</time></trkpt><trkpt lat="40.781954" lon="-3.7741489"><ele>1030.1999999999998</ele><time>2026-04-10T07:48:06.998Z</time></trkpt><trkpt lat="40.7820526" lon="-3.7741173"><ele>1030.6</ele><time>2026-04-10T07:48:07.998Z</time></trkpt><trkpt lat="40.7821565" lon="-3.7740877"><ele>1031.0</ele><time>2026-04-10T07:48:08.998Z</time></trkpt><trkpt lat="40.7822674" lon="-3.7740524"><ele>1031.0</ele><time>2026-04-10T07:48:09.998Z</time></trkpt><trkpt lat="40.7823796" lon="-3.7740127"><ele>1031.0</ele><time>2026-04-10T07:48:10.998Z</time></trkpt><trkpt lat="40.7824815" lon="-3.7739709"><ele>1031.0</ele><time>2026-04-10T07:48:11.998Z</time></trkpt><trkpt lat="40.7825704" lon="-3.7739248"><ele>1031.0</ele><time>2026-04-10T07:48:12.997Z</time></trkpt><trkpt lat="40.7826661" lon="-3.7738728"><ele>1031.0</ele><time>2026-04-10T07:48:13.998Z</time></trkpt><trkpt lat="40.7827595" lon="-3.7738144"><ele>1031.3333333333335</ele><time>2026-04-10T07:48:14.998Z</time></trkpt><trkpt lat="40.7828364" lon="-3.7737533"><ele>1031.6666666666667</ele><time>2026-04-10T07:48:15.998Z</time></trkpt><trkpt lat="40.7828933" lon="-3.7736773"><ele>1032.0</ele><time>2026-04-10T07:48:16.998Z</time></trkpt><trkpt lat="40.7829448" lon="-3.7735835"><ele>1032.3333333333333</ele><time>2026-04-10T07:48:17.998Z</time></trkpt><trkpt lat="40.7829963" lon="-3.7734879"><ele>1032.6666666666665</ele><time>2026-04-10T07:48:18.998Z</time></trkpt><trkpt lat="40.783054" lon="-3.7733874"><ele>1033.0</ele><time>2026-04-10T07:48:19.998Z</time></trkpt><trkpt lat="40.7831127" lon="-3.7732901"><ele>1033.0</ele><time>2026-04-10T07:48:20.998Z</time></trkpt><trkpt lat="40.7831641" lon="-3.7732019"><ele>1033.0</ele><time>2026-04-10T07:48:21.997Z</time></trkpt><trkpt lat="40.7832057" lon="-3.7731231"><ele>1033.0</ele><time>2026-04-10T07:48:22.998Z</time></trkpt><trkpt lat="40.7832389" lon="-3.7730441"><ele>1033.0</ele><time>2026-04-10T07:48:23.998Z</time></trkpt><trkpt lat="40.7832519" lon="-3.7729583"><ele>1033.0</ele><time>2026-04-10T07:48:24.998Z</time></trkpt><trkpt lat="40.7832403" lon="-3.7728589"><ele>1033.0</ele><time>2026-04-10T07:48:25.998Z</time></trkpt><trkpt lat="40.7832162" lon="-3.7727535"><ele>1032.8333333333333</ele><time>2026-04-10T07:48:26.998Z</time></trkpt><trkpt lat="40.7831901" lon="-3.7726508"><ele>1032.6666666666665</ele><time>2026-04-10T07:48:27.998Z</time></trkpt><trkpt lat="40.7831637" lon="-3.7725562"><ele>1032.5</ele><time>2026-04-10T07:48:28.998Z</time></trkpt><trkpt lat="40.7831381" lon="-3.7724748"><ele>1032.3333333333333</ele><time>2026-04-10T07:48:29.998Z</time></trkpt><trkpt lat="40.7830548" lon="-3.7723297"><ele>1032.1666666666667</ele><time>2026-04-10T07:48:31.998Z</time></trkpt><trkpt lat="40.7829932" lon="-3.7722793"><ele>1032.0</ele><time>2026-04-10T07:48:32.998Z</time></trkpt><trkpt lat="40.7829336" lon="-3.772234"><ele>1032.0</ele><time>2026-04-10T07:48:33.998Z</time></trkpt><trkpt lat="40.7828374" lon="-3.7721397"><ele>1032.0</ele><time>2026-04-10T07:48:35.998Z</time></trkpt><trkpt lat="40.7828048" lon="-3.772061"><ele>1032.0</ele><time>2026-04-10T07:48:36.998Z</time></trkpt><trkpt lat="40.7827641" lon="-3.7719786"><ele>1032.0</ele><time>2026-04-10T07:48:37.998Z</time></trkpt><trkpt lat="40.7827376" lon="-3.7719013"><ele>1032.0</ele><time>2026-04-10T07:48:38.998Z</time></trkpt><trkpt lat="40.7827177" lon="-3.7717786"><ele>1032.0</ele><time>2026-04-10T07:48:40.998Z</time></trkpt><trkpt lat="40.7826923" lon="-3.7716415"><ele>1033.2</ele><time>2026-04-10T07:48:42.998Z</time></trkpt><trkpt lat="40.7826117" lon="-3.7715376"><ele>1034.4</ele><time>2026-04-10T07:48:44.997Z</time></trkpt><trkpt lat="40.7824928" lon="-3.7714735"><ele>1035.6</ele><time>2026-04-10T07:48:46.998Z</time></trkpt><trkpt lat="40.7824257" lon="-3.7714464"><ele>1036.8</ele><time>2026-04-10T07:48:47.998Z</time></trkpt><trkpt lat="40.7823663" lon="-3.7714185"><ele>1038.0</ele><time>2026-04-10T07:48:48.998Z</time></trkpt><trkpt lat="40.7822766" lon="-3.7713512"><ele>1038.0</ele><time>2026-04-10T07:48:50.998Z</time></trkpt><trkpt lat="40.7821932" lon="-3.7712456"><ele>1038.0</ele><time>2026-04-10T07:48:52.998Z</time></trkpt><trkpt lat="40.7820961" lon="-3.7711664"><ele>1038.0</ele><time>2026-04-10T07:48:54.998Z</time></trkpt><trkpt lat="40.7820179" lon="-3.771086"><ele>1038.0</ele><time>2026-04-10T07:48:56.998Z</time></trkpt><trkpt lat="40.7819573" lon="-3.7710135"><ele>1038.0</ele><time>2026-04-10T07:48:58.997Z</time></trkpt><trkpt lat="40.7818671" lon="-3.7709501"><ele>1036.8333333333333</ele><time>2026-04-10T07:49:00.998Z</time></trkpt><trkpt lat="40.7817509" lon="-3.7709183"><ele>1035.6666666666667</ele><time>2026-04-10T07:49:02.998Z</time></trkpt><trkpt lat="40.7816825" lon="-3.7709034"><ele>1034.5</ele><time>2026-04-10T07:49:03.998Z</time></trkpt><trkpt lat="40.7816194" lon="-3.7708907"><ele>1033.3333333333335</ele><time>2026-04-10T07:49:04.998Z</time></trkpt><trkpt lat="40.7815565" lon="-3.7708752"><ele>1032.1666666666667</ele><time>2026-04-10T07:49:05.998Z</time></trkpt><trkpt lat="40.7814851" lon="-3.7708641"><ele>1031.0</ele><time>2026-04-10T07:49:06.997Z</time></trkpt><trkpt lat="40.7814107" lon="-3.7708699"><ele>1031.0</ele><time>2026-04-10T07:49:07.998Z</time></trkpt><trkpt lat="40.7813415" lon="-3.7708629"><ele>1031.0</ele><time>2026-04-10T07:49:08.998Z</time></trkpt><trkpt lat="40.7812686" lon="-3.7708416"><ele>1031.0</ele><time>2026-04-10T07:49:09.998Z</time></trkpt><trkpt lat="40.7811977" lon="-3.7708093"><ele>1031.0</ele><time>2026-04-10T07:49:10.998Z</time></trkpt><trkpt lat="40.7811345" lon="-3.7707628"><ele>1031.0</ele><time>2026-04-10T07:49:11.998Z</time></trkpt><trkpt lat="40.7810669" lon="-3.7707112"><ele>1031.0</ele><time>2026-04-10T07:49:12.998Z</time></trkpt><trkpt lat="40.7809993" lon="-3.7706698"><ele>1031.0</ele><time>2026-04-10T07:49:13.998Z</time></trkpt><trkpt lat="40.7809299" lon="-3.7706338"><ele>1030.5714285714284</ele><time>2026-04-10T07:49:14.997Z</time></trkpt><trkpt lat="40.7808627" lon="-3.7706016"><ele>1030.142857142857</ele><time>2026-04-10T07:49:15.998Z</time></trkpt><trkpt lat="40.7807988" lon="-3.7705587"><ele>1029.7142857142858</ele><time>2026-04-10T07:49:16.998Z</time></trkpt><trkpt lat="40.7807307" lon="-3.7705215"><ele>1029.2857142857142</ele><time>2026-04-10T07:49:17.998Z</time></trkpt><trkpt lat="40.7806597" lon="-3.7704879"><ele>1028.857142857143</ele><time>2026-04-10T07:49:18.998Z</time></trkpt><trkpt lat="40.7805869" lon="-3.7704614"><ele>1028.4285714285713</ele><time>2026-04-10T07:49:19.998Z</time></trkpt><trkpt lat="40.7805162" lon="-3.7704413"><ele>1028.0</ele><time>2026-04-10T07:49:20.998Z</time></trkpt><trkpt lat="40.7804505" lon="-3.7704248"><ele>1028.0</ele><time>2026-04-10T07:49:21.998Z</time></trkpt><trkpt lat="40.7803858" lon="-3.7704127"><ele>1028.0</ele><time>2026-04-10T07:49:22.998Z</time></trkpt><trkpt lat="40.7803185" lon="-3.7704029"><ele>1028.0</ele><time>2026-04-10T07:49:23.998Z</time></trkpt><trkpt lat="40.7802458" lon="-3.7703844"><ele>1028.0</ele><time>2026-04-10T07:49:24.998Z</time></trkpt><trkpt lat="40.7801689" lon="-3.7703698"><ele>1028.0</ele><time>2026-04-10T07:49:25.998Z</time></trkpt><trkpt lat="40.7800866" lon="-3.7703613"><ele>1028.0</ele><time>2026-04-10T07:49:26.998Z</time></trkpt><trkpt lat="40.7800026" lon="-3.7703577"><ele>1027.5</ele><time>2026-04-10T07:49:27.998Z</time></trkpt><trkpt lat="40.7799213" lon="-3.7703467"><ele>1027.0</ele><time>2026-04-10T07:49:28.998Z</time></trkpt><trkpt lat="40.7798469" lon="-3.7703184"><ele>1026.5</ele><time>2026-04-10T07:49:29.998Z</time></trkpt><trkpt lat="40.7797674" lon="-3.7702959"><ele>1026.0</ele><time>2026-04-10T07:49:30.998Z</time></trkpt><trkpt lat="40.7796925" lon="-3.7702748"><ele>1025.5</ele><time>2026-04-10T07:49:31.998Z</time></trkpt><trkpt lat="40.7796136" lon="-3.7702547"><ele>1025.0</ele><time>2026-04-10T07:49:32.998Z</time></trkpt><trkpt lat="40.7795416" lon="-3.7702305"><ele>1024.5</ele><time>2026-04-10T07:49:33.998Z</time></trkpt><trkpt lat="40.7794729" lon="-3.7701873"><ele>1024.0</ele><time>2026-04-10T07:49:34.998Z</time></trkpt><trkpt lat="40.7794016" lon="-3.7701492"><ele>1023.5</ele><time>2026-04-10T07:49:35.998Z</time></trkpt><trkpt lat="40.7793299" lon="-3.7701198"><ele>1023.0</ele><time>2026-04-10T07:49:36.998Z</time></trkpt><trkpt lat="40.7792632" lon="-3.770088"><ele>1022.5000000000001</ele><time>2026-04-10T07:49:37.998Z</time></trkpt><trkpt lat="40.7791511" lon="-3.7700459"><ele>1022.0</ele><time>2026-04-10T07:49:39.997Z</time></trkpt><trkpt lat="40.7790483" lon="-3.7700221"><ele>1020.6</ele><time>2026-04-10T07:49:41.998Z</time></trkpt><trkpt lat="40.7789675" lon="-3.7700574"><ele>1019.2</ele><time>2026-04-10T07:49:43.998Z</time></trkpt><trkpt lat="40.7788938" lon="-3.7700194"><ele>1017.8</ele><time>2026-04-10T07:49:46.998Z</time></trkpt><trkpt lat="40.778792" lon="-3.7699635"><ele>1016.4</ele><time>2026-04-10T07:49:48.998Z</time></trkpt><trkpt lat="40.778697" lon="-3.7699076"><ele>1015.0</ele><time>2026-04-10T07:49:50.998Z</time></trkpt><trkpt lat="40.7786226" lon="-3.7698373"><ele>1014.9999999999999</ele><time>2026-04-10T07:49:52.997Z</time></trkpt><trkpt lat="40.7785416" lon="-3.7697517"><ele>1015.0</ele><time>2026-04-10T07:49:54.997Z</time></trkpt><trkpt lat="40.7784564" lon="-3.769623"><ele>1015.0</ele><time>2026-04-10T07:49:56.998Z</time></trkpt><trkpt lat="40.7784192" lon="-3.7695441"><ele>1015.0</ele><time>2026-04-10T07:49:57.998Z</time></trkpt><trkpt lat="40.7783955" lon="-3.7694607"><ele>1014.9999999999999</ele><time>2026-04-10T07:49:58.998Z</time></trkpt><trkpt lat="40.7783664" lon="-3.7693703"><ele>1015.0</ele><time>2026-04-10T07:49:59.998Z</time></trkpt><trkpt lat="40.7783399" lon="-3.7692693"><ele>1014.1666666666666</ele><time>2026-04-10T07:50:00.997Z</time></trkpt><trkpt lat="40.7783184" lon="-3.7691651"><ele>1013.3333333333333</ele><time>2026-04-10T07:50:01.998Z</time></trkpt><trkpt lat="40.7783059" lon="-3.7690644"><ele>1012.5</ele><time>2026-04-10T07:50:02.998Z</time></trkpt><trkpt lat="40.7782994" lon="-3.7689707"><ele>1011.6666666666667</ele><time>2026-04-10T07:50:03.998Z</time></trkpt><trkpt lat="40.7783014" lon="-3.7688737"><ele>1010.8333333333334</ele><time>2026-04-10T07:50:04.998Z</time></trkpt><trkpt lat="40.7783067" lon="-3.7687623"><ele>1010.0</ele><time>2026-04-10T07:50:05.998Z</time></trkpt><trkpt lat="40.7783196" lon="-3.76865"><ele>1010.0000000000001</ele><time>2026-04-10T07:50:06.998Z</time></trkpt><trkpt lat="40.7783352" lon="-3.7685415"><ele>1010.0</ele><time>2026-04-10T07:50:07.998Z</time></trkpt><trkpt lat="40.7783583" lon="-3.76843"><ele>1010.0</ele><time>2026-04-10T07:50:08.998Z</time></trkpt><trkpt lat="40.7783853" lon="-3.7683363"><ele>1010.0</ele><time>2026-04-10T07:50:09.997Z</time></trkpt><trkpt lat="40.7784197" lon="-3.7682567"><ele>1010.0000000000001</ele><time>2026-04-10T07:50:10.998Z</time></trkpt><trkpt lat="40.7784758" lon="-3.7681862"><ele>1010.0</ele><time>2026-04-10T07:50:11.998Z</time></trkpt><trkpt lat="40.7785376" lon="-3.7681337"><ele>1010.3333333333334</ele><time>2026-04-10T07:50:12.998Z</time></trkpt><trkpt lat="40.7786134" lon="-3.768089"><ele>1010.6666666666667</ele><time>2026-04-10T07:50:13.998Z</time></trkpt><trkpt lat="40.7786961" lon="-3.7680535"><ele>1011.0</ele><time>2026-04-10T07:50:14.998Z</time></trkpt><trkpt lat="40.7787858" lon="-3.7680303"><ele>1011.3333333333333</ele><time>2026-04-10T07:50:15.998Z</time></trkpt><trkpt lat="40.778873" lon="-3.7680082"><ele>1011.6666666666666</ele><time>2026-04-10T07:50:16.998Z</time></trkpt><trkpt lat="40.7789529" lon="-3.7679802"><ele>1012.0</ele><time>2026-04-10T07:50:17.998Z</time></trkpt><trkpt lat="40.7790373" lon="-3.767938"><ele>1011.9999999999999</ele><time>2026-04-10T07:50:18.998Z</time></trkpt><trkpt lat="40.7791095" lon="-3.7678777"><ele>1012.0</ele><time>2026-04-10T07:50:19.998Z</time></trkpt><trkpt lat="40.7791716" lon="-3.7677997"><ele>1012.0</ele><time>2026-04-10T07:50:20.998Z</time></trkpt><trkpt lat="40.77921" lon="-3.7676989"><ele>1012.0</ele><time>2026-04-10T07:50:21.998Z</time></trkpt><trkpt lat="40.7792403" lon="-3.7675883"><ele>1011.9999999999999</ele><time>2026-04-10T07:50:22.998Z</time></trkpt><trkpt lat="40.7792709" lon="-3.7674661"><ele>1012.0</ele><time>2026-04-10T07:50:23.998Z</time></trkpt><trkpt lat="40.7793064" lon="-3.7673468"><ele>1010.8333333333333</ele><time>2026-04-10T07:50:24.998Z</time></trkpt><trkpt lat="40.7793416" lon="-3.7672304"><ele>1009.6666666666666</ele><time>2026-04-10T07:50:25.998Z</time></trkpt><trkpt lat="40.7793656" lon="-3.7671139"><ele>1008.5</ele><time>2026-04-10T07:50:26.998Z</time></trkpt><trkpt lat="40.7793493" lon="-3.7670094"><ele>1007.3333333333333</ele><time>2026-04-10T07:50:27.998Z</time></trkpt><trkpt lat="40.7792976" lon="-3.7669219"><ele>1006.1666666666666</ele><time>2026-04-10T07:50:28.998Z</time></trkpt><trkpt lat="40.7792304" lon="-3.7668525"><ele>1005.0</ele><time>2026-04-10T07:50:29.998Z</time></trkpt><trkpt lat="40.7791395" lon="-3.7667998"><ele>1003.4</ele><time>2026-04-10T07:50:30.997Z</time></trkpt><trkpt lat="40.779039" lon="-3.766772"><ele>1001.8</ele><time>2026-04-10T07:50:31.998Z</time></trkpt><trkpt lat="40.7789368" lon="-3.7667612"><ele>1000.2</ele><time>2026-04-10T07:50:32.998Z</time></trkpt><trkpt lat="40.778841" lon="-3.7667411"><ele>998.6</ele><time>2026-04-10T07:50:33.998Z</time></trkpt><trkpt lat="40.7787472" lon="-3.7667119"><ele>997.0</ele><time>2026-04-10T07:50:34.998Z</time></trkpt><trkpt lat="40.7786488" lon="-3.766678"><ele>997.0</ele><time>2026-04-10T07:50:35.998Z</time></trkpt><trkpt lat="40.7785421" lon="-3.7666236"><ele>997.0</ele><time>2026-04-10T07:50:36.998Z</time></trkpt><trkpt lat="40.7784308" lon="-3.7665654"><ele>997.0</ele><time>2026-04-10T07:50:37.998Z</time></trkpt><trkpt lat="40.7783217" lon="-3.7665058"><ele>997.0</ele><time>2026-04-10T07:50:38.998Z</time></trkpt><trkpt lat="40.7782061" lon="-3.7664457"><ele>996.75</ele><time>2026-04-10T07:50:39.998Z</time></trkpt><trkpt lat="40.7780874" lon="-3.7663811"><ele>996.5</ele><time>2026-04-10T07:50:40.998Z</time></trkpt><trkpt lat="40.7779733" lon="-3.766306"><ele>996.25</ele><time>2026-04-10T07:50:41.998Z</time></trkpt><trkpt lat="40.7778563" lon="-3.7662385"><ele>996.0</ele><time>2026-04-10T07:50:42.997Z</time></trkpt><trkpt lat="40.7777473" lon="-3.7661657"><ele>994.5</ele><time>2026-04-10T07:50:43.997Z</time></trkpt><trkpt lat="40.7776362" lon="-3.7660912"><ele>993.0</ele><time>2026-04-10T07:50:44.998Z</time></trkpt><trkpt lat="40.7775206" lon="-3.7660165"><ele>991.5</ele><time>2026-04-10T07:50:45.998Z</time></trkpt><trkpt lat="40.777402" lon="-3.7659438"><ele>990.0</ele><time>2026-04-10T07:50:46.998Z</time></trkpt><trkpt lat="40.7772781" lon="-3.7658818"><ele>988.75</ele><time>2026-04-10T07:50:47.998Z</time></trkpt><trkpt lat="40.7771559" lon="-3.7658321"><ele>987.5</ele><time>2026-04-10T07:50:48.998Z</time></trkpt><trkpt lat="40.7770413" lon="-3.7657833"><ele>986.25</ele><time>2026-04-10T07:50:49.998Z</time></trkpt><trkpt lat="40.7769301" lon="-3.7657384"><ele>985.0</ele><time>2026-04-10T07:50:50.998Z</time></trkpt><trkpt lat="40.776822" lon="-3.7656874"><ele>985.0</ele><time>2026-04-10T07:50:51.997Z</time></trkpt><trkpt lat="40.7767168" lon="-3.7656326"><ele>985.0</ele><time>2026-04-10T07:50:52.998Z</time></trkpt><trkpt lat="40.7766159" lon="-3.7655745"><ele>985.0</ele><time>2026-04-10T07:50:53.998Z</time></trkpt><trkpt lat="40.776524" lon="-3.7655216"><ele>985.0</ele><time>2026-04-10T07:50:54.998Z</time></trkpt><trkpt lat="40.7764398" lon="-3.7654579"><ele>985.0</ele><time>2026-04-10T07:50:55.998Z</time></trkpt><trkpt lat="40.7763599" lon="-3.7653935"><ele>984.9999999999999</ele><time>2026-04-10T07:50:56.998Z</time></trkpt><trkpt lat="40.776284" lon="-3.7653383"><ele>985.0</ele><time>2026-04-10T07:50:57.997Z</time></trkpt><trkpt lat="40.7762114" lon="-3.7652966"><ele>985.0</ele><time>2026-04-10T07:50:58.998Z</time></trkpt><trkpt lat="40.7761362" lon="-3.765253"><ele>985.0</ele><time>2026-04-10T07:50:59.998Z</time></trkpt><trkpt lat="40.7760704" lon="-3.7651922"><ele>984.9999999999999</ele><time>2026-04-10T07:51:00.998Z</time></trkpt><trkpt lat="40.7760121" lon="-3.7651142"><ele>985.0</ele><time>2026-04-10T07:51:01.998Z</time></trkpt><trkpt lat="40.775961" lon="-3.7650165"><ele>985.4</ele><time>2026-04-10T07:51:02.998Z</time></trkpt><trkpt lat="40.7759156" lon="-3.764903"><ele>985.8</ele><time>2026-04-10T07:51:03.998Z</time></trkpt><trkpt lat="40.7758715" lon="-3.7647863"><ele>986.2</ele><time>2026-04-10T07:51:04.998Z</time></trkpt><trkpt lat="40.7758287" lon="-3.7646745"><ele>986.6</ele><time>2026-04-10T07:51:05.998Z</time></trkpt><trkpt lat="40.7757952" lon="-3.7645586"><ele>987.0</ele><time>2026-04-10T07:51:06.998Z</time></trkpt><trkpt lat="40.7757662" lon="-3.7644416"><ele>988.4000000000001</ele><time>2026-04-10T07:51:07.998Z</time></trkpt><trkpt lat="40.7757302" lon="-3.7643206"><ele>989.8000000000001</ele><time>2026-04-10T07:51:08.998Z</time></trkpt><trkpt lat="40.7756799" lon="-3.7641934"><ele>991.2</ele><time>2026-04-10T07:51:09.998Z</time></trkpt><trkpt lat="40.7756347" lon="-3.7640558"><ele>992.6</ele><time>2026-04-10T07:51:10.998Z</time></trkpt><trkpt lat="40.7755854" lon="-3.7639182"><ele>994.0</ele><time>2026-04-10T07:51:11.998Z</time></trkpt><trkpt lat="40.7755338" lon="-3.7637686"><ele>994.0</ele><time>2026-04-10T07:51:12.998Z</time></trkpt><trkpt lat="40.7754732" lon="-3.7636205"><ele>994.0</ele><time>2026-04-10T07:51:13.998Z</time></trkpt><trkpt lat="40.7754145" lon="-3.7634822"><ele>994.0</ele><time>2026-04-10T07:51:14.998Z</time></trkpt><trkpt lat="40.7753604" lon="-3.7633541"><ele>994.0</ele><time>2026-04-10T07:51:15.998Z</time></trkpt><trkpt lat="40.7753077" lon="-3.7632372"><ele>994.8000000000001</ele><time>2026-04-10T07:51:16.998Z</time></trkpt><trkpt lat="40.7752564" lon="-3.7631193"><ele>995.6000000000001</ele><time>2026-04-10T07:51:17.997Z</time></trkpt><trkpt lat="40.7752083" lon="-3.7630061"><ele>996.4</ele><time>2026-04-10T07:51:18.998Z</time></trkpt><trkpt lat="40.7751627" lon="-3.7628967"><ele>997.2</ele><time>2026-04-10T07:51:19.997Z</time></trkpt><trkpt lat="40.7751227" lon="-3.7627861"><ele>998.0</ele><time>2026-04-10T07:51:20.998Z</time></trkpt><trkpt lat="40.7750841" lon="-3.7626734"><ele>999.0</ele><time>2026-04-10T07:51:21.998Z</time></trkpt><trkpt lat="40.7750443" lon="-3.7625561"><ele>1000.0</ele><time>2026-04-10T07:51:22.997Z</time></trkpt><trkpt lat="40.7749989" lon="-3.7624406"><ele>1001.0</ele><time>2026-04-10T07:51:23.998Z</time></trkpt><trkpt lat="40.7749456" lon="-3.7623286"><ele>1002.0</ele><time>2026-04-10T07:51:24.997Z</time></trkpt><trkpt lat="40.774878" lon="-3.762225"><ele>1003.0</ele><time>2026-04-10T07:51:25.998Z</time></trkpt><trkpt lat="40.7748089" lon="-3.7621234"><ele>1003.0</ele><time>2026-04-10T07:51:26.998Z</time></trkpt><trkpt lat="40.7747435" lon="-3.7620119"><ele>1003.0</ele><time>2026-04-10T07:51:27.998Z</time></trkpt><trkpt lat="40.7746818" lon="-3.7618972"><ele>1003.0</ele><time>2026-04-10T07:51:28.998Z</time></trkpt><trkpt lat="40.7746275" lon="-3.7617727"><ele>1003.0</ele><time>2026-04-10T07:51:29.998Z</time></trkpt><trkpt lat="40.7745791" lon="-3.7616472"><ele>1003.0</ele><time>2026-04-10T07:51:30.997Z</time></trkpt><trkpt lat="40.7745323" lon="-3.7615127"><ele>1004.0</ele><time>2026-04-10T07:51:31.998Z</time></trkpt><trkpt lat="40.7744903" lon="-3.7613759"><ele>1005.0</ele><time>2026-04-10T07:51:32.998Z</time></trkpt><trkpt lat="40.7744452" lon="-3.7612318"><ele>1006.0</ele><time>2026-04-10T07:51:33.998Z</time></trkpt><trkpt lat="40.7744005" lon="-3.761086"><ele>1007.0</ele><time>2026-04-10T07:51:34.998Z</time></trkpt><trkpt lat="40.7743508" lon="-3.7609466"><ele>1007.0</ele><time>2026-04-10T07:51:35.998Z</time></trkpt><trkpt lat="40.7743018" lon="-3.760807"><ele>1007.0</ele><time>2026-04-10T07:51:36.997Z</time></trkpt><trkpt lat="40.7742578" lon="-3.7606621"><ele>1007.0</ele><time>2026-04-10T07:51:37.998Z</time></trkpt><trkpt lat="40.774211" lon="-3.760516"><ele>1007.0</ele><time>2026-04-10T07:51:38.998Z</time></trkpt><trkpt lat="40.7741658" lon="-3.7603715"><ele>1007.0</ele><time>2026-04-10T07:51:39.998Z</time></trkpt><trkpt lat="40.7741132" lon="-3.7602311"><ele>1007.0</ele><time>2026-04-10T07:51:40.998Z</time></trkpt><trkpt lat="40.7740597" lon="-3.7600955"><ele>1007.0</ele><time>2026-04-10T07:51:41.998Z</time></trkpt><trkpt lat="40.7740029" lon="-3.7599612"><ele>1007.0</ele><time>2026-04-10T07:51:42.998Z</time></trkpt><trkpt lat="40.7739415" lon="-3.7598323"><ele>1007.75</ele><time>2026-04-10T07:51:43.998Z</time></trkpt><trkpt lat="40.7738736" lon="-3.759706"><ele>1008.5</ele><time>2026-04-10T07:51:44.998Z</time></trkpt><trkpt lat="40.7738065" lon="-3.7595835"><ele>1009.25</ele><time>2026-04-10T07:51:45.998Z</time></trkpt><trkpt lat="40.7737376" lon="-3.759464"><ele>1010.0</ele><time>2026-04-10T07:51:46.998Z</time></trkpt><trkpt lat="40.7736709" lon="-3.7593391"><ele>1010.25</ele><time>2026-04-10T07:51:47.998Z</time></trkpt><trkpt lat="40.7736046" lon="-3.759208"><ele>1010.5</ele><time>2026-04-10T07:51:48.998Z</time></trkpt><trkpt lat="40.7735319" lon="-3.759079"><ele>1010.75</ele><time>2026-04-10T07:51:49.998Z</time></trkpt><trkpt lat="40.7734555" lon="-3.7589568"><ele>1011.0</ele><time>2026-04-10T07:51:50.998Z</time></trkpt><trkpt lat="40.7733779" lon="-3.7588444"><ele>1011.5999999999999</ele><time>2026-04-10T07:51:51.998Z</time></trkpt><trkpt lat="40.7733067" lon="-3.7587428"><ele>1012.1999999999999</ele><time>2026-04-10T07:51:52.998Z</time></trkpt><trkpt lat="40.7732379" lon="-3.7586319"><ele>1012.8000000000001</ele><time>2026-04-10T07:51:53.998Z</time></trkpt><trkpt lat="40.773181" lon="-3.7585182"><ele>1013.4000000000001</ele><time>2026-04-10T07:51:54.998Z</time></trkpt><trkpt lat="40.773133" lon="-3.7583903"><ele>1014.0</ele><time>2026-04-10T07:51:55.998Z</time></trkpt><trkpt lat="40.7731014" lon="-3.7582467"><ele>1014.0</ele><time>2026-04-10T07:51:56.998Z</time></trkpt><trkpt lat="40.7730712" lon="-3.7581039"><ele>1014.0000000000001</ele><time>2026-04-10T07:51:57.998Z</time></trkpt><trkpt lat="40.7730463" lon="-3.7579571"><ele>1014.0000000000001</ele><time>2026-04-10T07:51:58.998Z</time></trkpt><trkpt lat="40.7730177" lon="-3.7578148"><ele>1014.0</ele><time>2026-04-10T07:51:59.998Z</time></trkpt><trkpt lat="40.7729812" lon="-3.7576801"><ele>1014.0</ele><time>2026-04-10T07:52:00.997Z</time></trkpt><trkpt lat="40.7729307" lon="-3.757545"><ele>1014.0</ele><time>2026-04-10T07:52:01.998Z</time></trkpt><trkpt lat="40.7728852" lon="-3.7574157"><ele>1014.0000000000001</ele><time>2026-04-10T07:52:02.998Z</time></trkpt><trkpt lat="40.7728315" lon="-3.7572785"><ele>1014.0000000000001</ele><time>2026-04-10T07:52:03.998Z</time></trkpt><trkpt lat="40.7727691" lon="-3.7571624"><ele>1014.0</ele><time>2026-04-10T07:52:04.998Z</time></trkpt><trkpt lat="40.7726941" lon="-3.7570501"><ele>1014.0</ele><time>2026-04-10T07:52:05.998Z</time></trkpt><trkpt lat="40.7726107" lon="-3.7569558"><ele>1015.4000000000001</ele><time>2026-04-10T07:52:06.997Z</time></trkpt><trkpt lat="40.7725317" lon="-3.7568703"><ele>1016.8000000000001</ele><time>2026-04-10T07:52:07.998Z</time></trkpt><trkpt lat="40.772446" lon="-3.7568014"><ele>1018.1999999999999</ele><time>2026-04-10T07:52:08.997Z</time></trkpt><trkpt lat="40.7723484" lon="-3.7567485"><ele>1019.5999999999999</ele><time>2026-04-10T07:52:09.998Z</time></trkpt><trkpt lat="40.7722497" lon="-3.7566886"><ele>1021.0</ele><time>2026-04-10T07:52:10.997Z</time></trkpt><trkpt lat="40.7721561" lon="-3.756626"><ele>1022.0</ele><time>2026-04-10T07:52:11.998Z</time></trkpt><trkpt lat="40.772058" lon="-3.7565589"><ele>1022.9999999999999</ele><time>2026-04-10T07:52:12.998Z</time></trkpt><trkpt lat="40.7719615" lon="-3.7564893"><ele>1023.9999999999999</ele><time>2026-04-10T07:52:13.998Z</time></trkpt><trkpt lat="40.7718666" lon="-3.7564304"><ele>1025.0</ele><time>2026-04-10T07:52:14.998Z</time></trkpt><trkpt lat="40.7717757" lon="-3.756361"><ele>1026.0</ele><time>2026-04-10T07:52:15.998Z</time></trkpt><trkpt lat="40.7716875" lon="-3.7562931"><ele>1026.6</ele><time>2026-04-10T07:52:16.998Z</time></trkpt><trkpt lat="40.7715975" lon="-3.7562178"><ele>1027.1999999999998</ele><time>2026-04-10T07:52:17.998Z</time></trkpt><trkpt lat="40.7715053" lon="-3.7561352"><ele>1027.8000000000002</ele><time>2026-04-10T07:52:18.998Z</time></trkpt><trkpt lat="40.7714117" lon="-3.7560518"><ele>1028.4</ele><time>2026-04-10T07:52:19.998Z</time></trkpt><trkpt lat="40.7713195" lon="-3.755979"><ele>1029.0</ele><time>2026-04-10T07:52:20.998Z</time></trkpt><trkpt lat="40.7712269" lon="-3.7559112"><ele>1029.8</ele><time>2026-04-10T07:52:21.998Z</time></trkpt><trkpt lat="40.7711312" lon="-3.7558464"><ele>1030.6000000000001</ele><time>2026-04-10T07:52:22.997Z</time></trkpt><trkpt lat="40.7710323" lon="-3.7557724"><ele>1031.4</ele><time>2026-04-10T07:52:23.998Z</time></trkpt><trkpt lat="40.7709354" lon="-3.7556956"><ele>1032.2</ele><time>2026-04-10T07:52:24.998Z</time></trkpt><trkpt lat="40.770839" lon="-3.7556166"><ele>1033.0</ele><time>2026-04-10T07:52:25.998Z</time></trkpt><trkpt lat="40.7707408" lon="-3.7555424"><ele>1033.6</ele><time>2026-04-10T07:52:26.998Z</time></trkpt><trkpt lat="40.7706432" lon="-3.7554635"><ele>1034.1999999999998</ele><time>2026-04-10T07:52:27.997Z</time></trkpt><trkpt lat="40.7705466" lon="-3.7553805"><ele>1034.8</ele><time>2026-04-10T07:52:28.998Z</time></trkpt><trkpt lat="40.7704512" lon="-3.7553036"><ele>1035.3999999999999</ele><time>2026-04-10T07:52:29.998Z</time></trkpt><trkpt lat="40.7703616" lon="-3.7552357"><ele>1036.0</ele><time>2026-04-10T07:52:30.998Z</time></trkpt><trkpt lat="40.7702765" lon="-3.7551583"><ele>1036.0</ele><time>2026-04-10T07:52:31.998Z</time></trkpt><trkpt lat="40.7701947" lon="-3.7550811"><ele>1036.0</ele><time>2026-04-10T07:52:32.998Z</time></trkpt><trkpt lat="40.7701159" lon="-3.7550041"><ele>1036.0</ele><time>2026-04-10T07:52:33.998Z</time></trkpt><trkpt lat="40.7700376" lon="-3.7549246"><ele>1036.0</ele><time>2026-04-10T07:52:34.998Z</time></trkpt><trkpt lat="40.7699561" lon="-3.7548451"><ele>1036.0</ele><time>2026-04-10T07:52:35.998Z</time></trkpt><trkpt lat="40.7698727" lon="-3.754765"><ele>1035.6</ele><time>2026-04-10T07:52:36.998Z</time></trkpt><trkpt lat="40.7697908" lon="-3.7546802"><ele>1035.1999999999998</ele><time>2026-04-10T07:52:37.998Z</time></trkpt><trkpt lat="40.7697066" lon="-3.7546099"><ele>1034.8000000000002</ele><time>2026-04-10T07:52:38.998Z</time></trkpt><trkpt lat="40.76962" lon="-3.7545319"><ele>1034.4</ele><time>2026-04-10T07:52:39.998Z</time></trkpt><trkpt lat="40.7695365" lon="-3.7544482"><ele>1034.0</ele><time>2026-04-10T07:52:40.997Z</time></trkpt><trkpt lat="40.7694591" lon="-3.754364"><ele>1034.0</ele><time>2026-04-10T07:52:41.998Z</time></trkpt><trkpt lat="40.7693767" lon="-3.7542888"><ele>1034.0</ele><time>2026-04-10T07:52:42.998Z</time></trkpt><trkpt lat="40.769293" lon="-3.7542108"><ele>1034.0</ele><time>2026-04-10T07:52:43.998Z</time></trkpt><trkpt lat="40.7692082" lon="-3.7541294"><ele>1034.0</ele><time>2026-04-10T07:52:44.998Z</time></trkpt><trkpt lat="40.7691163" lon="-3.7540452"><ele>1034.0</ele><time>2026-04-10T07:52:45.998Z</time></trkpt><trkpt lat="40.7690223" lon="-3.7539567"><ele>1033.5</ele><time>2026-04-10T07:52:46.998Z</time></trkpt><trkpt lat="40.7689229" lon="-3.7538741"><ele>1033.0</ele><time>2026-04-10T07:52:47.998Z</time></trkpt><trkpt lat="40.7688203" lon="-3.7537996"><ele>1032.5</ele><time>2026-04-10T07:52:48.998Z</time></trkpt><trkpt lat="40.7687087" lon="-3.7537397"><ele>1032.0</ele><time>2026-04-10T07:52:49.998Z</time></trkpt><trkpt lat="40.7685955" lon="-3.7536793"><ele>1031.4</ele><time>2026-04-10T07:52:50.998Z</time></trkpt><trkpt lat="40.7684848" lon="-3.7536307"><ele>1030.8000000000002</ele><time>2026-04-10T07:52:51.997Z</time></trkpt><trkpt lat="40.768384" lon="-3.7535987"><ele>1030.2</ele><time>2026-04-10T07:52:52.998Z</time></trkpt><trkpt lat="40.7682794" lon="-3.7535696"><ele>1029.6000000000001</ele><time>2026-04-10T07:52:53.998Z</time></trkpt><trkpt lat="40.7681718" lon="-3.7535451"><ele>1029.0</ele><time>2026-04-10T07:52:54.998Z</time></trkpt><trkpt lat="40.7680609" lon="-3.753529"><ele>1028.4</ele><time>2026-04-10T07:52:55.998Z</time></trkpt><trkpt lat="40.7679597" lon="-3.7535028"><ele>1027.8000000000002</ele><time>2026-04-10T07:52:56.998Z</time></trkpt><trkpt lat="40.7678535" lon="-3.7534669"><ele>1027.1999999999998</ele><time>2026-04-10T07:52:57.998Z</time></trkpt><trkpt lat="40.7677503" lon="-3.7534035"><ele>1026.6</ele><time>2026-04-10T07:52:58.998Z</time></trkpt><trkpt lat="40.7676435" lon="-3.7533434"><ele>1026.0</ele><time>2026-04-10T07:52:59.998Z</time></trkpt><trkpt lat="40.7675344" lon="-3.7532726"><ele>1024.75</ele><time>2026-04-10T07:53:00.998Z</time></trkpt><trkpt lat="40.7674272" lon="-3.7532045"><ele>1023.5</ele><time>2026-04-10T07:53:01.998Z</time></trkpt><trkpt lat="40.7673157" lon="-3.7531361"><ele>1022.25</ele><time>2026-04-10T07:53:02.998Z</time></trkpt><trkpt lat="40.7672073" lon="-3.7530751"><ele>1021.0</ele><time>2026-04-10T07:53:03.998Z</time></trkpt><trkpt lat="40.7671067" lon="-3.7530039"><ele>1021.0</ele><time>2026-04-10T07:53:04.998Z</time></trkpt><trkpt lat="40.7670008" lon="-3.7529355"><ele>1021.0</ele><time>2026-04-10T07:53:05.997Z</time></trkpt><trkpt lat="40.7668899" lon="-3.7528624"><ele>1021.0</ele><time>2026-04-10T07:53:06.998Z</time></trkpt><trkpt lat="40.7667799" lon="-3.7527972"><ele>1021.0</ele><time>2026-04-10T07:53:07.998Z</time></trkpt><trkpt lat="40.7666654" lon="-3.7527288"><ele>1020.0</ele><time>2026-04-10T07:53:08.998Z</time></trkpt><trkpt lat="40.7665551" lon="-3.7526599"><ele>1019.0</ele><time>2026-04-10T07:53:09.998Z</time></trkpt><trkpt lat="40.7664448" lon="-3.7525955"><ele>1018.0</ele><time>2026-04-10T07:53:10.998Z</time></trkpt><trkpt lat="40.7663365" lon="-3.7525334"><ele>1017.0</ele><time>2026-04-10T07:53:11.998Z</time></trkpt><trkpt lat="40.7662321" lon="-3.7524755"><ele>1017.0</ele><time>2026-04-10T07:53:12.998Z</time></trkpt><trkpt lat="40.7661317" lon="-3.7524175"><ele>1017.0</ele><time>2026-04-10T07:53:13.997Z</time></trkpt><trkpt lat="40.7660441" lon="-3.7523698"><ele>1017.0</ele><time>2026-04-10T07:53:14.998Z</time></trkpt><trkpt lat="40.7659559" lon="-3.7523232"><ele>1017.0</ele><time>2026-04-10T07:53:15.998Z</time></trkpt><trkpt lat="40.7658718" lon="-3.7522767"><ele>1017.0</ele><time>2026-04-10T07:53:16.998Z</time></trkpt><trkpt lat="40.7658027" lon="-3.7522206"><ele>1016.0</ele><time>2026-04-10T07:53:17.998Z</time></trkpt><trkpt lat="40.7657457" lon="-3.7521673"><ele>1015.0</ele><time>2026-04-10T07:53:18.998Z</time></trkpt><trkpt lat="40.7657009" lon="-3.7521064"><ele>1014.0</ele><time>2026-04-10T07:53:19.997Z</time></trkpt><trkpt lat="40.76566" lon="-3.7519648"><ele>1013.0</ele><time>2026-04-10T07:53:21.998Z</time></trkpt><trkpt lat="40.7657514" lon="-3.751812"><ele>1012.0</ele><time>2026-04-10T07:53:23.998Z</time></trkpt><trkpt lat="40.7658307" lon="-3.7517464"><ele>1012.0</ele><time>2026-04-10T07:53:24.998Z</time></trkpt><trkpt lat="40.7659338" lon="-3.7516923"><ele>1012.0</ele><time>2026-04-10T07:53:25.998Z</time></trkpt><trkpt lat="40.7660315" lon="-3.751657"><ele>1012.0</ele><time>2026-04-10T07:53:26.998Z</time></trkpt><trkpt lat="40.7661311" lon="-3.7516224"><ele>1012.0</ele><time>2026-04-10T07:53:27.997Z</time></trkpt><trkpt lat="40.7662188" lon="-3.7515739"><ele>1012.0</ele><time>2026-04-10T07:53:28.998Z</time></trkpt><trkpt lat="40.7662933" lon="-3.7515255"><ele>1012.8</ele><time>2026-04-10T07:53:29.998Z</time></trkpt><trkpt lat="40.7663643" lon="-3.7514724"><ele>1013.6</ele><time>2026-04-10T07:53:30.998Z</time></trkpt><trkpt lat="40.7664412" lon="-3.7514149"><ele>1014.3999999999999</ele><time>2026-04-10T07:53:31.998Z</time></trkpt><trkpt lat="40.7665279" lon="-3.7513721"><ele>1015.1999999999999</ele><time>2026-04-10T07:53:32.998Z</time></trkpt><trkpt lat="40.7666182" lon="-3.751343"><ele>1016.0</ele><time>2026-04-10T07:53:33.998Z</time></trkpt><trkpt lat="40.7667124" lon="-3.7513105"><ele>1016.0</ele><time>2026-04-10T07:53:34.998Z</time></trkpt><trkpt lat="40.7668061" lon="-3.7512619"><ele>1015.9999999999999</ele><time>2026-04-10T07:53:35.998Z</time></trkpt><trkpt lat="40.7668938" lon="-3.7512173"><ele>1015.9999999999999</ele><time>2026-04-10T07:53:36.998Z</time></trkpt><trkpt lat="40.7669844" lon="-3.7511828"><ele>1016.0</ele><time>2026-04-10T07:53:37.998Z</time></trkpt><trkpt lat="40.767067" lon="-3.751166"><ele>1016.0</ele><time>2026-04-10T07:53:38.998Z</time></trkpt><trkpt lat="40.7671588" lon="-3.7511706"><ele>1016.5000000000001</ele><time>2026-04-10T07:53:39.998Z</time></trkpt><trkpt lat="40.767252" lon="-3.751194"><ele>1017.0</ele><time>2026-04-10T07:53:40.998Z</time></trkpt><trkpt lat="40.7673438" lon="-3.7512102"><ele>1017.5</ele><time>2026-04-10T07:53:41.998Z</time></trkpt><trkpt lat="40.7674309" lon="-3.7512038"><ele>1018.0</ele><time>2026-04-10T07:53:42.998Z</time></trkpt><trkpt lat="40.76751" lon="-3.7511958"><ele>1018.5000000000001</ele><time>2026-04-10T07:53:43.998Z</time></trkpt><trkpt lat="40.7675865" lon="-3.7512088"><ele>1019.0</ele><time>2026-04-10T07:53:44.998Z</time></trkpt><trkpt lat="40.7676621" lon="-3.7512388"><ele>1019.8333333333334</ele><time>2026-04-10T07:53:45.998Z</time></trkpt><trkpt lat="40.7677427" lon="-3.7512669"><ele>1020.6666666666667</ele><time>2026-04-10T07:53:46.998Z</time></trkpt><trkpt lat="40.7678295" lon="-3.751273"><ele>1021.5</ele><time>2026-04-10T07:53:47.998Z</time></trkpt><trkpt lat="40.7679195" lon="-3.7512724"><ele>1022.3333333333333</ele><time>2026-04-10T07:53:48.997Z</time></trkpt><trkpt lat="40.7680124" lon="-3.7512717"><ele>1023.1666666666666</ele><time>2026-04-10T07:53:49.998Z</time></trkpt><trkpt lat="40.7681052" lon="-3.751291"><ele>1024.0</ele><time>2026-04-10T07:53:50.998Z</time></trkpt><trkpt lat="40.7681944" lon="-3.7512972"><ele>1023.9999999999999</ele><time>2026-04-10T07:53:51.998Z</time></trkpt><trkpt lat="40.7682737" lon="-3.7513022"><ele>1024.0</ele><time>2026-04-10T07:53:52.998Z</time></trkpt><trkpt lat="40.768347" lon="-3.7512822"><ele>1024.0</ele><time>2026-04-10T07:53:53.998Z</time></trkpt><trkpt lat="40.7684343" lon="-3.7512349"><ele>1024.0</ele><time>2026-04-10T07:53:54.998Z</time></trkpt><trkpt lat="40.7685262" lon="-3.7511875"><ele>1023.9999999999999</ele><time>2026-04-10T07:53:55.998Z</time></trkpt><trkpt lat="40.7686261" lon="-3.751189"><ele>1024.0</ele><time>2026-04-10T07:53:56.997Z</time></trkpt><trkpt lat="40.7687342" lon="-3.7512176"><ele>1024.4</ele><time>2026-04-10T07:53:57.998Z</time></trkpt><trkpt lat="40.7688249" lon="-3.751244"><ele>1024.8000000000002</ele><time>2026-04-10T07:53:58.997Z</time></trkpt><trkpt lat="40.7689158" lon="-3.7512711"><ele>1025.1999999999998</ele><time>2026-04-10T07:53:59.997Z</time></trkpt><trkpt lat="40.7689986" lon="-3.7513071"><ele>1025.6</ele><time>2026-04-10T07:54:00.998Z</time></trkpt><trkpt lat="40.7690851" lon="-3.7513582"><ele>1026.0</ele><time>2026-04-10T07:54:01.998Z</time></trkpt><trkpt lat="40.7691657" lon="-3.751409"><ele>1026.0</ele><time>2026-04-10T07:54:02.997Z</time></trkpt><trkpt lat="40.7692467" lon="-3.7514323"><ele>1026.0</ele><time>2026-04-10T07:54:03.998Z</time></trkpt><trkpt lat="40.7693175" lon="-3.7514186"><ele>1026.0</ele><time>2026-04-10T07:54:04.998Z</time></trkpt><trkpt lat="40.7694037" lon="-3.7513914"><ele>1026.0</ele><time>2026-04-10T07:54:05.998Z</time></trkpt><trkpt lat="40.7694846" lon="-3.7513504"><ele>1026.0</ele><time>2026-04-10T07:54:06.998Z</time></trkpt><trkpt lat="40.7695474" lon="-3.7512939"><ele>1026.0</ele><time>2026-04-10T07:54:07.998Z</time></trkpt><trkpt lat="40.7696058" lon="-3.7512213"><ele>1026.3999999999999</ele><time>2026-04-10T07:54:08.998Z</time></trkpt><trkpt lat="40.7696574" lon="-3.7511338"><ele>1026.8</ele><time>2026-04-10T07:54:09.998Z</time></trkpt><trkpt lat="40.769716" lon="-3.7510392"><ele>1027.1999999999998</ele><time>2026-04-10T07:54:10.998Z</time></trkpt><trkpt lat="40.7697818" lon="-3.750943"><ele>1027.6</ele><time>2026-04-10T07:54:11.998Z</time></trkpt><trkpt lat="40.7698555" lon="-3.7508424"><ele>1028.0</ele><time>2026-04-10T07:54:12.998Z</time></trkpt><trkpt lat="40.7699312" lon="-3.7507531"><ele>1028.0</ele><time>2026-04-10T07:54:13.998Z</time></trkpt><trkpt lat="40.7700026" lon="-3.7506618"><ele>1028.0</ele><time>2026-04-10T07:54:14.998Z</time></trkpt><trkpt lat="40.7700725" lon="-3.7505673"><ele>1028.0</ele><time>2026-04-10T07:54:15.998Z</time></trkpt><trkpt lat="40.7701488" lon="-3.7504765"><ele>1028.0</ele><time>2026-04-10T07:54:16.998Z</time></trkpt><trkpt lat="40.770225" lon="-3.7503946"><ele>1028.0</ele><time>2026-04-10T07:54:17.998Z</time></trkpt><trkpt lat="40.7702973" lon="-3.7503266"><ele>1028.1666666666667</ele><time>2026-04-10T07:54:18.998Z</time></trkpt><trkpt lat="40.7703619" lon="-3.7502721"><ele>1028.3333333333335</ele><time>2026-04-10T07:54:19.998Z</time></trkpt><trkpt lat="40.770403" lon="-3.750203"><ele>1028.5</ele><time>2026-04-10T07:54:20.998Z</time></trkpt><trkpt lat="40.770434" lon="-3.7501087"><ele>1028.6666666666667</ele><time>2026-04-10T07:54:21.998Z</time></trkpt><trkpt lat="40.7704828" lon="-3.7499996"><ele>1028.8333333333333</ele><time>2026-04-10T07:54:22.998Z</time></trkpt><trkpt lat="40.7705424" lon="-3.7498998"><ele>1029.0</ele><time>2026-04-10T07:54:23.998Z</time></trkpt><trkpt lat="40.7705871" lon="-3.7497951"><ele>1029.0</ele><time>2026-04-10T07:54:24.998Z</time></trkpt><trkpt lat="40.7706181" lon="-3.7496923"><ele>1029.0</ele><time>2026-04-10T07:54:25.998Z</time></trkpt><trkpt lat="40.7706468" lon="-3.7496093"><ele>1029.0</ele><time>2026-04-10T07:54:26.998Z</time></trkpt><trkpt lat="40.7707442" lon="-3.749556"><ele>1029.0</ele><time>2026-04-10T07:54:28.998Z</time></trkpt><trkpt lat="40.7708187" lon="-3.7495522"><ele>1029.0</ele><time>2026-04-10T07:54:29.998Z</time></trkpt><trkpt lat="40.7708761" lon="-3.7495164"><ele>1029.0</ele><time>2026-04-10T07:54:30.998Z</time></trkpt><trkpt lat="40.7709885" lon="-3.749411"><ele>1028.8333333333333</ele><time>2026-04-10T07:54:32.998Z</time></trkpt><trkpt lat="40.7710483" lon="-3.7493359"><ele>1028.6666666666667</ele><time>2026-04-10T07:54:33.998Z</time></trkpt><trkpt lat="40.7711038" lon="-3.7492502"><ele>1028.5</ele><time>2026-04-10T07:54:34.998Z</time></trkpt><trkpt lat="40.7711415" lon="-3.7491497"><ele>1028.3333333333335</ele><time>2026-04-10T07:54:35.998Z</time></trkpt><trkpt lat="40.7711788" lon="-3.7490477"><ele>1028.1666666666667</ele><time>2026-04-10T07:54:36.998Z</time></trkpt><trkpt lat="40.7712433" lon="-3.7489678"><ele>1028.0</ele><time>2026-04-10T07:54:37.997Z</time></trkpt><trkpt lat="40.7713387" lon="-3.7489003"><ele>1028.0</ele><time>2026-04-10T07:54:38.997Z</time></trkpt><trkpt lat="40.7714436" lon="-3.7488374"><ele>1028.0</ele><time>2026-04-10T07:54:39.998Z</time></trkpt><trkpt lat="40.771534" lon="-3.7487491"><ele>1028.0</ele><time>2026-04-10T07:54:40.998Z</time></trkpt><trkpt lat="40.7716107" lon="-3.7486321"><ele>1028.0</ele><time>2026-04-10T07:54:41.998Z</time></trkpt><trkpt lat="40.7716834" lon="-3.7485116"><ele>1028.0</ele><time>2026-04-10T07:54:42.997Z</time></trkpt><trkpt lat="40.7717713" lon="-3.7484098"><ele>1028.0</ele><time>2026-04-10T07:54:43.998Z</time></trkpt><trkpt lat="40.7718619" lon="-3.7483288"><ele>1028.0</ele><time>2026-04-10T07:54:44.998Z</time></trkpt><trkpt lat="40.7719456" lon="-3.7482687"><ele>1028.0</ele><time>2026-04-10T07:54:45.998Z</time></trkpt><trkpt lat="40.7720314" lon="-3.7482183"><ele>1028.0</ele><time>2026-04-10T07:54:46.997Z</time></trkpt><trkpt lat="40.7721074" lon="-3.7481693"><ele>1027.8333333333335</ele><time>2026-04-10T07:54:47.998Z</time></trkpt><trkpt lat="40.7721721" lon="-3.7480991"><ele>1027.6666666666667</ele><time>2026-04-10T07:54:48.997Z</time></trkpt><trkpt lat="40.7722375" lon="-3.7480341"><ele>1027.5</ele><time>2026-04-10T07:54:49.998Z</time></trkpt><trkpt lat="40.7723206" lon="-3.7480009"><ele>1027.3333333333333</ele><time>2026-04-10T07:54:50.998Z</time></trkpt><trkpt lat="40.7724109" lon="-3.7479708"><ele>1027.1666666666665</ele><time>2026-04-10T07:54:51.998Z</time></trkpt><trkpt lat="40.7725011" lon="-3.7479468"><ele>1027.0</ele><time>2026-04-10T07:54:52.998Z</time></trkpt><trkpt lat="40.7725867" lon="-3.7479347"><ele>1027.0</ele><time>2026-04-10T07:54:53.998Z</time></trkpt><trkpt lat="40.7726651" lon="-3.7479285"><ele>1027.0</ele><time>2026-04-10T07:54:54.998Z</time></trkpt><trkpt lat="40.7727376" lon="-3.7479207"><ele>1027.0</ele><time>2026-04-10T07:54:55.998Z</time></trkpt><trkpt lat="40.7727963" lon="-3.7478878"><ele>1027.0</ele><time>2026-04-10T07:54:56.997Z</time></trkpt><trkpt lat="40.7728558" lon="-3.747823"><ele>1027.0</ele><time>2026-04-10T07:54:57.997Z</time></trkpt><trkpt lat="40.7729077" lon="-3.7477464"><ele>1027.0</ele><time>2026-04-10T07:54:58.998Z</time></trkpt><trkpt lat="40.7729622" lon="-3.7477007"><ele>1027.0</ele><time>2026-04-10T07:54:59.997Z</time></trkpt><trkpt lat="40.7730274" lon="-3.747668"><ele>1025.6666666666665</ele><time>2026-04-10T07:55:00.998Z</time></trkpt><trkpt lat="40.7730996" lon="-3.7476378"><ele>1024.3333333333333</ele><time>2026-04-10T07:55:01.998Z</time></trkpt><trkpt lat="40.7731786" lon="-3.7476079"><ele>1023.0</ele><time>2026-04-10T07:55:02.998Z</time></trkpt><trkpt lat="40.7732589" lon="-3.7475836"><ele>1021.6666666666667</ele><time>2026-04-10T07:55:03.998Z</time></trkpt><trkpt lat="40.7733476" lon="-3.7475552"><ele>1020.3333333333334</ele><time>2026-04-10T07:55:04.998Z</time></trkpt><trkpt lat="40.773423" lon="-3.7475163"><ele>1019.0</ele><time>2026-04-10T07:55:05.998Z</time></trkpt><trkpt lat="40.7734932" lon="-3.7474741"><ele>1018.5000000000001</ele><time>2026-04-10T07:55:06.998Z</time></trkpt><trkpt lat="40.7735602" lon="-3.7474197"><ele>1018.0</ele><time>2026-04-10T07:55:07.998Z</time></trkpt><trkpt lat="40.7736215" lon="-3.7473653"><ele>1017.5</ele><time>2026-04-10T07:55:08.998Z</time></trkpt><trkpt lat="40.7736964" lon="-3.7473359"><ele>1017.0</ele><time>2026-04-10T07:55:09.998Z</time></trkpt><trkpt lat="40.7737781" lon="-3.7473181"><ele>1016.5000000000001</ele><time>2026-04-10T07:55:10.998Z</time></trkpt><trkpt lat="40.7738619" lon="-3.7473003"><ele>1016.0</ele><time>2026-04-10T07:55:11.998Z</time></trkpt><trkpt lat="40.7739367" lon="-3.747262"><ele>1016.0000000000001</ele><time>2026-04-10T07:55:12.998Z</time></trkpt><trkpt lat="40.7740053" lon="-3.747203"><ele>1016.0</ele><time>2026-04-10T07:55:13.998Z</time></trkpt><trkpt lat="40.7740596" lon="-3.7471219"><ele>1016.0</ele><time>2026-04-10T07:55:14.998Z</time></trkpt><trkpt lat="40.7741038" lon="-3.7470462"><ele>1016.0</ele><time>2026-04-10T07:55:15.998Z</time></trkpt><trkpt lat="40.7742113" lon="-3.7469835"><ele>1016.0000000000001</ele><time>2026-04-10T07:55:17.998Z</time></trkpt><trkpt lat="40.7742727" lon="-3.7470142"><ele>1016.0</ele><time>2026-04-10T07:55:18.998Z</time></trkpt><trkpt lat="40.7743411" lon="-3.7470412"><ele>1014.5999999999999</ele><time>2026-04-10T07:55:19.998Z</time></trkpt><trkpt lat="40.7744024" lon="-3.74707"><ele>1013.1999999999999</ele><time>2026-04-10T07:55:20.997Z</time></trkpt><trkpt lat="40.774509" lon="-3.7470641"><ele>1011.8000000000001</ele><time>2026-04-10T07:55:22.998Z</time></trkpt><trkpt lat="40.774606" lon="-3.7469925"><ele>1010.4000000000001</ele><time>2026-04-10T07:55:24.998Z</time></trkpt><trkpt lat="40.7746587" lon="-3.7468691"><ele>1009.0</ele><time>2026-04-10T07:55:26.998Z</time></trkpt><trkpt lat="40.7746869" lon="-3.7467781"><ele>1008.8333333333333</ele><time>2026-04-10T07:55:27.998Z</time></trkpt><trkpt lat="40.7747106" lon="-3.7466726"><ele>1008.6666666666666</ele><time>2026-04-10T07:55:28.998Z</time></trkpt><trkpt lat="40.7747199" lon="-3.7465855"><ele>1008.5</ele><time>2026-04-10T07:55:29.998Z</time></trkpt><trkpt lat="40.7748215" lon="-3.746485"><ele>1008.3333333333333</ele><time>2026-04-10T07:55:31.998Z</time></trkpt><trkpt lat="40.7748881" lon="-3.7464381"><ele>1008.1666666666666</ele><time>2026-04-10T07:55:32.998Z</time></trkpt><trkpt lat="40.7749545" lon="-3.7463951"><ele>1008.0</ele><time>2026-04-10T07:55:33.998Z</time></trkpt><trkpt lat="40.7750028" lon="-3.7463378"><ele>1008.0</ele><time>2026-04-10T07:55:34.997Z</time></trkpt><trkpt lat="40.7750839" lon="-3.7462236"><ele>1008.0</ele><time>2026-04-10T07:55:36.998Z</time></trkpt><trkpt lat="40.7751647" lon="-3.746128"><ele>1008.0</ele><time>2026-04-10T07:55:38.998Z</time></trkpt><trkpt lat="40.7752473" lon="-3.746033"><ele>1008.0</ele><time>2026-04-10T07:55:40.997Z</time></trkpt><trkpt lat="40.7752991" lon="-3.7459851"><ele>1008.0</ele><time>2026-04-10T07:55:41.998Z</time></trkpt><trkpt lat="40.7753553" lon="-3.745932"><ele>1006.2</ele><time>2026-04-10T07:55:42.998Z</time></trkpt><trkpt lat="40.7754188" lon="-3.7458854"><ele>1004.4</ele><time>2026-04-10T07:55:43.997Z</time></trkpt><trkpt lat="40.7755311" lon="-3.7458331"><ele>1002.6000000000001</ele><time>2026-04-10T07:55:45.998Z</time></trkpt><trkpt lat="40.7756548" lon="-3.7458031"><ele>1000.8000000000001</ele><time>2026-04-10T07:55:47.997Z</time></trkpt><trkpt lat="40.7757297" lon="-3.7457698"><ele>999.0</ele><time>2026-04-10T07:55:48.998Z</time></trkpt><trkpt lat="40.7758044" lon="-3.7457199"><ele>999.0</ele><time>2026-04-10T07:55:49.997Z</time></trkpt><trkpt lat="40.775865" lon="-3.7456522"><ele>999.0</ele><time>2026-04-10T07:55:50.998Z</time></trkpt><trkpt lat="40.7759204" lon="-3.7455825"><ele>999.0</ele><time>2026-04-10T07:55:51.998Z</time></trkpt><trkpt lat="40.7759883" lon="-3.7455455"><ele>999.0</ele><time>2026-04-10T07:55:52.998Z</time></trkpt><trkpt lat="40.7760711" lon="-3.7455234"><ele>999.0</ele><time>2026-04-10T07:55:53.998Z</time></trkpt><trkpt lat="40.7761529" lon="-3.7455297"><ele>999.0</ele><time>2026-04-10T07:55:54.998Z</time></trkpt><trkpt lat="40.7762282" lon="-3.7455266"><ele>998.5</ele><time>2026-04-10T07:55:55.998Z</time></trkpt><trkpt lat="40.7763065" lon="-3.7455026"><ele>998.0</ele><time>2026-04-10T07:55:56.998Z</time></trkpt><trkpt lat="40.7763846" lon="-3.7454616"><ele>997.5</ele><time>2026-04-10T07:55:57.998Z</time></trkpt><trkpt lat="40.7764743" lon="-3.7454124"><ele>997.0</ele><time>2026-04-10T07:55:58.998Z</time></trkpt><trkpt lat="40.776554" lon="-3.7453655"><ele>996.5</ele><time>2026-04-10T07:55:59.998Z</time></trkpt><trkpt lat="40.7766249" lon="-3.7453197"><ele>996.0</ele><time>2026-04-10T07:56:00.998Z</time></trkpt><trkpt lat="40.7766933" lon="-3.7452834"><ele>996.0</ele><time>2026-04-10T07:56:01.998Z</time></trkpt><trkpt lat="40.776762" lon="-3.745246"><ele>995.9999999999999</ele><time>2026-04-10T07:56:02.998Z</time></trkpt><trkpt lat="40.7768294" lon="-3.7452167"><ele>996.0</ele><time>2026-04-10T07:56:03.998Z</time></trkpt><trkpt lat="40.7769049" lon="-3.7451996"><ele>996.0</ele><time>2026-04-10T07:56:04.998Z</time></trkpt><trkpt lat="40.7769725" lon="-3.7452042"><ele>995.9999999999999</ele><time>2026-04-10T07:56:05.998Z</time></trkpt><trkpt lat="40.7770417" lon="-3.745191"><ele>996.0</ele><time>2026-04-10T07:56:06.998Z</time></trkpt><trkpt lat="40.7771075" lon="-3.7451566"><ele>996.0</ele><time>2026-04-10T07:56:07.998Z</time></trkpt><trkpt lat="40.7771767" lon="-3.745106"><ele>994.3333333333334</ele><time>2026-04-10T07:56:08.997Z</time></trkpt><trkpt lat="40.7772562" lon="-3.7450465"><ele>992.6666666666667</ele><time>2026-04-10T07:56:09.998Z</time></trkpt><trkpt lat="40.7773304" lon="-3.7449923"><ele>991.0</ele><time>2026-04-10T07:56:10.998Z</time></trkpt><trkpt lat="40.7773976" lon="-3.7449402"><ele>989.3333333333334</ele><time>2026-04-10T07:56:11.998Z</time></trkpt><trkpt lat="40.7774509" lon="-3.7448698"><ele>987.6666666666667</ele><time>2026-04-10T07:56:12.998Z</time></trkpt><trkpt lat="40.7774903" lon="-3.744797"><ele>986.0</ele><time>2026-04-10T07:56:13.998Z</time></trkpt><trkpt lat="40.777543" lon="-3.744672"><ele>986.0</ele><time>2026-04-10T07:56:15.998Z</time></trkpt><trkpt lat="40.7775826" lon="-3.744607"><ele>986.0</ele><time>2026-04-10T07:56:16.998Z</time></trkpt><trkpt lat="40.7776429" lon="-3.7445551"><ele>986.0</ele><time>2026-04-10T07:56:17.998Z</time></trkpt><trkpt lat="40.7777105" lon="-3.7445001"><ele>986.0</ele><time>2026-04-10T07:56:18.998Z</time></trkpt><trkpt lat="40.7777579" lon="-3.7444411"><ele>986.0</ele><time>2026-04-10T07:56:19.997Z</time></trkpt><trkpt lat="40.7777868" lon="-3.7443561"><ele>986.0</ele><time>2026-04-10T07:56:20.998Z</time></trkpt><trkpt lat="40.7778138" lon="-3.7442747"><ele>986.0</ele><time>2026-04-10T07:56:21.998Z</time></trkpt><trkpt lat="40.7778516" lon="-3.744206"><ele>984.5000000000001</ele><time>2026-04-10T07:56:22.998Z</time></trkpt><trkpt lat="40.7778981" lon="-3.7441485"><ele>983.0</ele><time>2026-04-10T07:56:23.998Z</time></trkpt><trkpt lat="40.7779746" lon="-3.7440495"><ele>981.5</ele><time>2026-04-10T07:56:25.998Z</time></trkpt><trkpt lat="40.7780432" lon="-3.7439962"><ele>980.0</ele><time>2026-04-10T07:56:27.997Z</time></trkpt><trkpt lat="40.7780545" lon="-3.7438819"><ele>978.5000000000001</ele><time>2026-04-10T07:56:48.998Z</time></trkpt><trkpt lat="40.7779963" lon="-3.7437697"><ele>977.0</ele><time>2026-04-10T07:56:50.998Z</time></trkpt><trkpt lat="40.7779511" lon="-3.7437085"><ele>977.0</ele><time>2026-04-10T07:56:51.998Z</time></trkpt><trkpt lat="40.7779069" lon="-3.7436422"><ele>977.0</ele><time>2026-04-10T07:56:52.998Z</time></trkpt><trkpt lat="40.7778623" lon="-3.7435688"><ele>977.0</ele><time>2026-04-10T07:56:53.998Z</time></trkpt><trkpt lat="40.7778045" lon="-3.7435124"><ele>977.0</ele><time>2026-04-10T07:56:54.998Z</time></trkpt><trkpt lat="40.7777112" lon="-3.7434095"><ele>977.0</ele><time>2026-04-10T07:56:56.998Z</time></trkpt><trkpt lat="40.7776316" lon="-3.7432912"><ele>978.1666666666667</ele><time>2026-04-10T07:56:58.998Z</time></trkpt><trkpt lat="40.7775507" lon="-3.7431674"><ele>979.3333333333334</ele><time>2026-04-10T07:57:00.998Z</time></trkpt><trkpt lat="40.7775128" lon="-3.7430995"><ele>980.5</ele><time>2026-04-10T07:57:01.998Z</time></trkpt><trkpt lat="40.7774612" lon="-3.7430322"><ele>981.6666666666667</ele><time>2026-04-10T07:57:02.998Z</time></trkpt><trkpt lat="40.7773934" lon="-3.7429852"><ele>982.8333333333334</ele><time>2026-04-10T07:57:03.997Z</time></trkpt><trkpt lat="40.7773281" lon="-3.7429288"><ele>984.0</ele><time>2026-04-10T07:57:04.998Z</time></trkpt><trkpt lat="40.7772692" lon="-3.7428665"><ele>984.0</ele><time>2026-04-10T07:57:05.997Z</time></trkpt><trkpt lat="40.7772151" lon="-3.7427932"><ele>984.0</ele><time>2026-04-10T07:57:06.998Z</time></trkpt><trkpt lat="40.7771455" lon="-3.7427366"><ele>984.0</ele><time>2026-04-10T07:57:07.998Z</time></trkpt><trkpt lat="40.7770636" lon="-3.7426941"><ele>984.0</ele><time>2026-04-10T07:57:08.998Z</time></trkpt><trkpt lat="40.7769798" lon="-3.7426527"><ele>984.0</ele><time>2026-04-10T07:57:09.998Z</time></trkpt><trkpt lat="40.7768926" lon="-3.7426182"><ele>984.0</ele><time>2026-04-10T07:57:10.998Z</time></trkpt><trkpt lat="40.776806" lon="-3.7425893"><ele>985.0</ele><time>2026-04-10T07:57:11.997Z</time></trkpt><trkpt lat="40.7767168" lon="-3.7425591"><ele>986.0</ele><time>2026-04-10T07:57:12.998Z</time></trkpt><trkpt lat="40.7766402" lon="-3.7425147"><ele>987.0</ele><time>2026-04-10T07:57:13.998Z</time></trkpt><trkpt lat="40.7765715" lon="-3.7424704"><ele>988.0</ele><time>2026-04-10T07:57:14.998Z</time></trkpt><trkpt lat="40.7765092" lon="-3.7424157"><ele>989.0</ele><time>2026-04-10T07:57:15.998Z</time></trkpt><trkpt lat="40.7764502" lon="-3.7423621"><ele>990.0</ele><time>2026-04-10T07:57:16.997Z</time></trkpt><trkpt lat="40.7763885" lon="-3.7423066"><ele>990.0</ele><time>2026-04-10T07:57:17.998Z</time></trkpt><trkpt lat="40.7763207" lon="-3.7422744"><ele>990.0</ele><time>2026-04-10T07:57:18.998Z</time></trkpt><trkpt lat="40.7762484" lon="-3.742256"><ele>990.0</ele><time>2026-04-10T07:57:19.998Z</time></trkpt><trkpt lat="40.7761712" lon="-3.7422412"><ele>990.0</ele><time>2026-04-10T07:57:20.998Z</time></trkpt><trkpt lat="40.77609" lon="-3.7422268"><ele>990.0</ele><time>2026-04-10T07:57:21.998Z</time></trkpt><trkpt lat="40.7760132" lon="-3.7422078"><ele>990.0</ele><time>2026-04-10T07:57:22.998Z</time></trkpt><trkpt lat="40.7759483" lon="-3.7421709"><ele>990.0</ele><time>2026-04-10T07:57:23.998Z</time></trkpt><trkpt lat="40.7758301" lon="-3.7421091"><ele>990.0</ele><time>2026-04-10T07:57:25.998Z</time></trkpt><trkpt lat="40.7757679" lon="-3.7420761"><ele>990.0</ele><time>2026-04-10T07:57:26.998Z</time></trkpt><trkpt lat="40.7757076" lon="-3.742019"><ele>990.0</ele><time>2026-04-10T07:57:27.998Z</time></trkpt><trkpt lat="40.7756374" lon="-3.7419435"><ele>990.0</ele><time>2026-04-10T07:57:28.998Z</time></trkpt><trkpt lat="40.7755754" lon="-3.7418718"><ele>990.0</ele><time>2026-04-10T07:57:29.997Z</time></trkpt><trkpt lat="40.7755109" lon="-3.741793"><ele>990.0</ele><time>2026-04-10T07:57:30.998Z</time></trkpt><trkpt lat="40.775446" lon="-3.7417157"><ele>990.0</ele><time>2026-04-10T07:57:31.998Z</time></trkpt><trkpt lat="40.7753762" lon="-3.7416483"><ele>990.0</ele><time>2026-04-10T07:57:32.998Z</time></trkpt><trkpt lat="40.7753076" lon="-3.7415858"><ele>990.0</ele><time>2026-04-10T07:57:33.998Z</time></trkpt><trkpt lat="40.7752362" lon="-3.741518"><ele>990.0</ele><time>2026-04-10T07:57:34.998Z</time></trkpt><trkpt lat="40.7751698" lon="-3.7414446"><ele>990.0</ele><time>2026-04-10T07:57:35.998Z</time></trkpt><trkpt lat="40.7751024" lon="-3.7413471"><ele>991.0</ele><time>2026-04-10T07:57:36.998Z</time></trkpt><trkpt lat="40.7750312" lon="-3.7412497"><ele>992.0</ele><time>2026-04-10T07:57:37.997Z</time></trkpt><trkpt lat="40.7749519" lon="-3.7411484"><ele>993.0</ele><time>2026-04-10T07:57:38.998Z</time></trkpt><trkpt lat="40.7748776" lon="-3.7410487"><ele>994.0</ele><time>2026-04-10T07:57:39.998Z</time></trkpt><trkpt lat="40.7748202" lon="-3.7409548"><ele>995.0</ele><time>2026-04-10T07:57:40.998Z</time></trkpt><trkpt lat="40.7747888" lon="-3.7408541"><ele>995.0</ele><time>2026-04-10T07:57:41.998Z</time></trkpt><trkpt lat="40.7747449" lon="-3.7407324"><ele>995.0</ele><time>2026-04-10T07:57:42.998Z</time></trkpt><trkpt lat="40.7746886" lon="-3.7406219"><ele>995.0</ele><time>2026-04-10T07:57:43.998Z</time></trkpt><trkpt lat="40.7746228" lon="-3.7405214"><ele>995.0</ele><time>2026-04-10T07:57:44.998Z</time></trkpt><trkpt lat="40.774562" lon="-3.7404229"><ele>995.0</ele><time>2026-04-10T07:57:45.998Z</time></trkpt><trkpt lat="40.7745044" lon="-3.7403161"><ele>994.3333333333334</ele><time>2026-04-10T07:57:46.998Z</time></trkpt><trkpt lat="40.7744439" lon="-3.7402117"><ele>993.6666666666667</ele><time>2026-04-10T07:57:47.998Z</time></trkpt><trkpt lat="40.7743872" lon="-3.7401141"><ele>993.0</ele><time>2026-04-10T07:57:48.998Z</time></trkpt><trkpt lat="40.7743353" lon="-3.7400198"><ele>992.3333333333333</ele><time>2026-04-10T07:57:49.998Z</time></trkpt><trkpt lat="40.7742889" lon="-3.7399289"><ele>991.6666666666666</ele><time>2026-04-10T07:57:50.997Z</time></trkpt><trkpt lat="40.7742572" lon="-3.7398311"><ele>991.0</ele><time>2026-04-10T07:57:51.997Z</time></trkpt><trkpt lat="40.7742228" lon="-3.7397416"><ele>990.9999999999999</ele><time>2026-04-10T07:57:52.998Z</time></trkpt><trkpt lat="40.7741825" lon="-3.7396765"><ele>991.0</ele><time>2026-04-10T07:57:53.998Z</time></trkpt><trkpt lat="40.7741203" lon="-3.7396299"><ele>991.0</ele><time>2026-04-10T07:57:54.997Z</time></trkpt><trkpt lat="40.7740506" lon="-3.7395922"><ele>991.0</ele><time>2026-04-10T07:57:55.998Z</time></trkpt><trkpt lat="40.7739882" lon="-3.7395277"><ele>990.9999999999999</ele><time>2026-04-10T07:57:56.998Z</time></trkpt><trkpt lat="40.7739272" lon="-3.7394399"><ele>991.0</ele><time>2026-04-10T07:57:57.998Z</time></trkpt><trkpt lat="40.7738776" lon="-3.7393374"><ele>990.3333333333333</ele><time>2026-04-10T07:57:58.998Z</time></trkpt><trkpt lat="40.7738275" lon="-3.7392341"><ele>989.6666666666666</ele><time>2026-04-10T07:57:59.997Z</time></trkpt><trkpt lat="40.7737679" lon="-3.7391405"><ele>989.0</ele><time>2026-04-10T07:58:00.997Z</time></trkpt><trkpt lat="40.7737061" lon="-3.7390523"><ele>988.3333333333333</ele><time>2026-04-10T07:58:01.998Z</time></trkpt><trkpt lat="40.7736533" lon="-3.7389578"><ele>987.6666666666666</ele><time>2026-04-10T07:58:02.998Z</time></trkpt><trkpt lat="40.7736257" lon="-3.738861"><ele>987.0</ele><time>2026-04-10T07:58:03.998Z</time></trkpt><trkpt lat="40.773629" lon="-3.7387734"><ele>987.0</ele><time>2026-04-10T07:58:04.998Z</time></trkpt><trkpt lat="40.7736525" lon="-3.7386826"><ele>987.0</ele><time>2026-04-10T07:58:05.998Z</time></trkpt><trkpt lat="40.7736899" lon="-3.7385882"><ele>987.0</ele><time>2026-04-10T07:58:06.998Z</time></trkpt><trkpt lat="40.7737332" lon="-3.7384721"><ele>987.0</ele><time>2026-04-10T07:58:07.998Z</time></trkpt><trkpt lat="40.77377" lon="-3.7383558"><ele>987.0</ele><time>2026-04-10T07:58:08.998Z</time></trkpt><trkpt lat="40.7738081" lon="-3.7382342"><ele>987.0</ele><time>2026-04-10T07:58:09.997Z</time></trkpt><trkpt lat="40.7738614" lon="-3.7381172"><ele>986.8333333333334</ele><time>2026-04-10T07:58:10.998Z</time></trkpt><trkpt lat="40.7739142" lon="-3.738004"><ele>986.6666666666667</ele><time>2026-04-10T07:58:11.997Z</time></trkpt><trkpt lat="40.7739614" lon="-3.7378989"><ele>986.5</ele><time>2026-04-10T07:58:12.998Z</time></trkpt><trkpt lat="40.7740076" lon="-3.737806"><ele>986.3333333333334</ele><time>2026-04-10T07:58:13.998Z</time></trkpt><trkpt lat="40.7740448" lon="-3.7377189"><ele>986.1666666666667</ele><time>2026-04-10T07:58:14.998Z</time></trkpt><trkpt lat="40.7740766" lon="-3.7376288"><ele>986.0</ele><time>2026-04-10T07:58:15.998Z</time></trkpt><trkpt lat="40.7741083" lon="-3.7375386"><ele>985.8333333333334</ele><time>2026-04-10T07:58:16.998Z</time></trkpt><trkpt lat="40.7741508" lon="-3.7374407"><ele>985.6666666666667</ele><time>2026-04-10T07:58:17.998Z</time></trkpt><trkpt lat="40.7741955" lon="-3.7373432"><ele>985.5</ele><time>2026-04-10T07:58:18.998Z</time></trkpt><trkpt lat="40.774248" lon="-3.7372489"><ele>985.3333333333333</ele><time>2026-04-10T07:58:19.998Z</time></trkpt><trkpt lat="40.7742996" lon="-3.7371647"><ele>985.1666666666666</ele><time>2026-04-10T07:58:20.998Z</time></trkpt><trkpt lat="40.7743484" lon="-3.7370883"><ele>985.0</ele><time>2026-04-10T07:58:21.998Z</time></trkpt><trkpt lat="40.7743834" lon="-3.7370187"><ele>984.9999999999999</ele><time>2026-04-10T07:58:22.998Z</time></trkpt><trkpt lat="40.7744071" lon="-3.7369407"><ele>985.0</ele><time>2026-04-10T07:58:23.998Z</time></trkpt><trkpt lat="40.7744184" lon="-3.7368495"><ele>985.0</ele><time>2026-04-10T07:58:24.998Z</time></trkpt><trkpt lat="40.7744233" lon="-3.7367503"><ele>985.0</ele><time>2026-04-10T07:58:25.998Z</time></trkpt><trkpt lat="40.7744317" lon="-3.7366492"><ele>984.9999999999999</ele><time>2026-04-10T07:58:26.998Z</time></trkpt><trkpt lat="40.7744488" lon="-3.7365334"><ele>985.0</ele><time>2026-04-10T07:58:27.998Z</time></trkpt><trkpt lat="40.774473" lon="-3.736421"><ele>983.4999999999999</ele><time>2026-04-10T07:58:28.998Z</time></trkpt><trkpt lat="40.7745028" lon="-3.7363222"><ele>982.0</ele><time>2026-04-10T07:58:29.998Z</time></trkpt><trkpt lat="40.774527" lon="-3.7362239"><ele>980.5</ele><time>2026-04-10T07:58:30.998Z</time></trkpt><trkpt lat="40.7745603" lon="-3.7361265"><ele>979.0</ele><time>2026-04-10T07:58:31.998Z</time></trkpt><trkpt lat="40.7745993" lon="-3.7360302"><ele>977.4999999999999</ele><time>2026-04-10T07:58:32.998Z</time></trkpt><trkpt lat="40.7746383" lon="-3.7359318"><ele>976.0</ele><time>2026-04-10T07:58:33.998Z</time></trkpt><trkpt lat="40.7746882" lon="-3.7358247"><ele>975.0</ele><time>2026-04-10T07:58:34.998Z</time></trkpt><trkpt lat="40.7747404" lon="-3.7357172"><ele>973.9999999999999</ele><time>2026-04-10T07:58:35.998Z</time></trkpt><trkpt lat="40.7747857" lon="-3.7356117"><ele>972.9999999999999</ele><time>2026-04-10T07:58:36.998Z</time></trkpt><trkpt lat="40.7748197" lon="-3.7355015"><ele>972.0</ele><time>2026-04-10T07:58:37.997Z</time></trkpt><trkpt lat="40.7748412" lon="-3.7353819"><ele>971.0</ele><time>2026-04-10T07:58:38.998Z</time></trkpt><trkpt lat="40.7748585" lon="-3.7352595"><ele>970.1999999999999</ele><time>2026-04-10T07:58:39.998Z</time></trkpt><trkpt lat="40.7748932" lon="-3.7351325"><ele>969.3999999999999</ele><time>2026-04-10T07:58:40.998Z</time></trkpt><trkpt lat="40.7749311" lon="-3.7350033"><ele>968.6</ele><time>2026-04-10T07:58:41.998Z</time></trkpt><trkpt lat="40.7749761" lon="-3.734888"><ele>967.8</ele><time>2026-04-10T07:58:42.998Z</time></trkpt><trkpt lat="40.7750308" lon="-3.734777"><ele>967.0</ele><time>2026-04-10T07:58:43.997Z</time></trkpt><trkpt lat="40.7750889" lon="-3.7346741"><ele>966.9999999999999</ele><time>2026-04-10T07:58:44.997Z</time></trkpt><trkpt lat="40.7751509" lon="-3.7345726"><ele>967.0</ele><time>2026-04-10T07:58:45.998Z</time></trkpt><trkpt lat="40.7752196" lon="-3.7344824"><ele>967.0</ele><time>2026-04-10T07:58:46.998Z</time></trkpt><trkpt lat="40.775285" lon="-3.734409"><ele>967.0</ele><time>2026-04-10T07:58:47.998Z</time></trkpt><trkpt lat="40.7753376" lon="-3.7343498"><ele>966.9999999999999</ele><time>2026-04-10T07:58:48.998Z</time></trkpt><trkpt lat="40.7754017" lon="-3.7343006"><ele>967.0</ele><time>2026-04-10T07:58:49.998Z</time></trkpt><trkpt lat="40.7754709" lon="-3.7342542"><ele>967.1666666666666</ele><time>2026-04-10T07:58:50.998Z</time></trkpt><trkpt lat="40.7755374" lon="-3.7342096"><ele>967.3333333333333</ele><time>2026-04-10T07:58:51.997Z</time></trkpt><trkpt lat="40.7755985" lon="-3.734172"><ele>967.5</ele><time>2026-04-10T07:58:52.997Z</time></trkpt><trkpt lat="40.7756547" lon="-3.7341261"><ele>967.6666666666667</ele><time>2026-04-10T07:58:53.998Z</time></trkpt><trkpt lat="40.7757547" lon="-3.7340244"><ele>967.8333333333334</ele><time>2026-04-10T07:58:55.998Z</time></trkpt><trkpt lat="40.7758145" lon="-3.7339664"><ele>968.0</ele><time>2026-04-10T07:58:56.998Z</time></trkpt><trkpt lat="40.7758895" lon="-3.7339219"><ele>968.0</ele><time>2026-04-10T07:58:57.998Z</time></trkpt><trkpt lat="40.7759724" lon="-3.7338827"><ele>968.0</ele><time>2026-04-10T07:58:58.998Z</time></trkpt><trkpt lat="40.7760568" lon="-3.7338416"><ele>968.0</ele><time>2026-04-10T07:58:59.998Z</time></trkpt><trkpt lat="40.7761539" lon="-3.7338079"><ele>968.0</ele><time>2026-04-10T07:59:00.998Z</time></trkpt><trkpt lat="40.7762623" lon="-3.733784"><ele>968.0</ele><time>2026-04-10T07:59:01.998Z</time></trkpt><trkpt lat="40.7763645" lon="-3.7337518"><ele>967.3333333333334</ele><time>2026-04-10T07:59:02.998Z</time></trkpt><trkpt lat="40.7764517" lon="-3.7337012"><ele>966.6666666666667</ele><time>2026-04-10T07:59:03.998Z</time></trkpt><trkpt lat="40.7765367" lon="-3.7336526"><ele>966.0</ele><time>2026-04-10T07:59:04.997Z</time></trkpt><trkpt lat="40.7766053" lon="-3.733623"><ele>965.3333333333333</ele><time>2026-04-10T07:59:05.998Z</time></trkpt><trkpt lat="40.7766646" lon="-3.7335901"><ele>964.6666666666666</ele><time>2026-04-10T07:59:06.998Z</time></trkpt><trkpt lat="40.7767615" lon="-3.7335218"><ele>964.0</ele><time>2026-04-10T07:59:08.998Z</time></trkpt><trkpt lat="40.776846" lon="-3.7334413"><ele>962.6</ele><time>2026-04-10T07:59:10.998Z</time></trkpt><trkpt lat="40.7769441" lon="-3.7333209"><ele>961.2</ele><time>2026-04-10T07:59:12.998Z</time></trkpt><trkpt lat="40.7769886" lon="-3.7332427"><ele>959.8000000000001</ele><time>2026-04-10T07:59:13.998Z</time></trkpt><trkpt lat="40.777036" lon="-3.733147"><ele>958.4000000000001</ele><time>2026-04-10T07:59:14.997Z</time></trkpt><trkpt lat="40.7770821" lon="-3.7330411"><ele>957.0</ele><time>2026-04-10T07:59:15.998Z</time></trkpt><trkpt lat="40.7771321" lon="-3.7329301"><ele>957.0</ele><time>2026-04-10T07:59:16.998Z</time></trkpt><trkpt lat="40.7771831" lon="-3.7328244"><ele>957.0</ele><time>2026-04-10T07:59:17.998Z</time></trkpt><trkpt lat="40.7772336" lon="-3.7327165"><ele>957.0</ele><time>2026-04-10T07:59:18.997Z</time></trkpt><trkpt lat="40.7772862" lon="-3.7326081"><ele>957.0</ele><time>2026-04-10T07:59:19.999Z</time></trkpt><trkpt lat="40.7773331" lon="-3.7324911"><ele>957.0</ele><time>2026-04-10T07:59:20.999Z</time></trkpt><trkpt lat="40.7773822" lon="-3.7323707"><ele>957.8</ele><time>2026-04-10T07:59:21.999Z</time></trkpt><trkpt lat="40.7774346" lon="-3.7322468"><ele>958.6</ele><time>2026-04-10T07:59:22.999Z</time></trkpt><trkpt lat="40.7774867" lon="-3.7321218"><ele>959.3999999999999</ele><time>2026-04-10T07:59:23.999Z</time></trkpt><trkpt lat="40.7775388" lon="-3.7319929"><ele>960.1999999999999</ele><time>2026-04-10T07:59:24.999Z</time></trkpt><trkpt lat="40.7775888" lon="-3.7318717"><ele>961.0</ele><time>2026-04-10T07:59:25.999Z</time></trkpt><trkpt lat="40.7776327" lon="-3.7317552"><ele>961.5999999999999</ele><time>2026-04-10T07:59:26.999Z</time></trkpt><trkpt lat="40.7776718" lon="-3.7316489"><ele>962.1999999999999</ele><time>2026-04-10T07:59:27.999Z</time></trkpt><trkpt lat="40.7777234" lon="-3.7315472"><ele>962.8000000000001</ele><time>2026-04-10T07:59:28.999Z</time></trkpt><trkpt lat="40.7777799" lon="-3.7314554"><ele>963.4000000000001</ele><time>2026-04-10T07:59:29.999Z</time></trkpt><trkpt lat="40.7778483" lon="-3.7313645"><ele>964.0</ele><time>2026-04-10T07:59:30.999Z</time></trkpt><trkpt lat="40.7779303" lon="-3.7312832"><ele>963.0</ele><time>2026-04-10T07:59:31.999Z</time></trkpt><trkpt lat="40.7780161" lon="-3.7311975"><ele>962.0000000000001</ele><time>2026-04-10T07:59:32.999Z</time></trkpt><trkpt lat="40.7780984" lon="-3.7311102"><ele>961.0000000000001</ele><time>2026-04-10T07:59:33.999Z</time></trkpt><trkpt lat="40.7781792" lon="-3.7310268"><ele>960.0</ele><time>2026-04-10T07:59:34.999Z</time></trkpt><trkpt lat="40.7782566" lon="-3.7309485"><ele>959.0</ele><time>2026-04-10T07:59:35.999Z</time></trkpt><trkpt lat="40.7783264" lon="-3.7308744"><ele>959.0000000000001</ele><time>2026-04-10T07:59:36.999Z</time></trkpt><trkpt lat="40.7783965" lon="-3.7308032"><ele>959.0</ele><time>2026-04-10T07:59:37.999Z</time></trkpt><trkpt lat="40.7784619" lon="-3.7307319"><ele>959.0</ele><time>2026-04-10T07:59:38.999Z</time></trkpt><trkpt lat="40.7785151" lon="-3.7306609"><ele>959.0</ele><time>2026-04-10T07:59:39.999Z</time></trkpt><trkpt lat="40.7785576" lon="-3.7305823"><ele>959.0000000000001</ele><time>2026-04-10T07:59:40.999Z</time></trkpt><trkpt lat="40.778583" lon="-3.7304984"><ele>959.0</ele><time>2026-04-10T07:59:41.998Z</time></trkpt><trkpt lat="40.7785983" lon="-3.7304022"><ele>958.6666666666667</ele><time>2026-04-10T07:59:42.999Z</time></trkpt><trkpt lat="40.778618" lon="-3.7303039"><ele>958.3333333333334</ele><time>2026-04-10T07:59:43.999Z</time></trkpt><trkpt lat="40.7786398" lon="-3.7302052"><ele>958.0</ele><time>2026-04-10T07:59:44.999Z</time></trkpt><trkpt lat="40.7786657" lon="-3.7301076"><ele>957.6666666666667</ele><time>2026-04-10T07:59:45.999Z</time></trkpt><trkpt lat="40.7786956" lon="-3.7300141"><ele>957.3333333333334</ele><time>2026-04-10T07:59:46.999Z</time></trkpt><trkpt lat="40.7787371" lon="-3.7299209"><ele>957.0</ele><time>2026-04-10T07:59:47.999Z</time></trkpt><trkpt lat="40.7787773" lon="-3.7298264"><ele>957.0</ele><time>2026-04-10T07:59:48.999Z</time></trkpt><trkpt lat="40.7788091" lon="-3.7297345"><ele>957.0000000000001</ele><time>2026-04-10T07:59:49.999Z</time></trkpt><trkpt lat="40.7788382" lon="-3.7296406"><ele>957.0</ele><time>2026-04-10T07:59:50.999Z</time></trkpt><trkpt lat="40.7788717" lon="-3.7295476"><ele>957.0</ele><time>2026-04-10T07:59:51.999Z</time></trkpt><trkpt lat="40.7789139" lon="-3.7294722"><ele>957.0000000000001</ele><time>2026-04-10T07:59:52.999Z</time></trkpt><trkpt lat="40.7789634" lon="-3.7293996"><ele>957.0</ele><time>2026-04-10T07:59:53.999Z</time></trkpt><trkpt lat="40.7790042" lon="-3.7293197"><ele>957.0</ele><time>2026-04-10T07:59:54.998Z</time></trkpt><trkpt lat="40.7790393" lon="-3.7292427"><ele>957.1666666666666</ele><time>2026-04-10T07:59:55.999Z</time></trkpt><trkpt lat="40.7790706" lon="-3.7291668"><ele>957.3333333333333</ele><time>2026-04-10T07:59:56.999Z</time></trkpt><trkpt lat="40.7791034" lon="-3.7290857"><ele>957.5</ele><time>2026-04-10T07:59:57.999Z</time></trkpt><trkpt lat="40.779139" lon="-3.7290112"><ele>957.6666666666666</ele><time>2026-04-10T07:59:58.999Z</time></trkpt><trkpt lat="40.7791779" lon="-3.7289446"><ele>957.8333333333333</ele><time>2026-04-10T07:59:59.999Z</time></trkpt><trkpt lat="40.7792393" lon="-3.7288277"><ele>958.0</ele><time>2026-04-10T08:00:01.999Z</time></trkpt><trkpt lat="40.7792874" lon="-3.728704"><ele>957.3333333333333</ele><time>2026-04-10T08:00:03.999Z</time></trkpt><trkpt lat="40.7793444" lon="-3.7285595"><ele>956.6666666666666</ele><time>2026-04-10T08:00:05.999Z</time></trkpt><trkpt lat="40.7793854" lon="-3.7284735"><ele>956.0</ele><time>2026-04-10T08:00:06.999Z</time></trkpt><trkpt lat="40.7794196" lon="-3.7283844"><ele>955.3333333333333</ele><time>2026-04-10T08:00:07.999Z</time></trkpt><trkpt lat="40.7794593" lon="-3.7282922"><ele>954.6666666666666</ele><time>2026-04-10T08:00:08.999Z</time></trkpt><trkpt lat="40.7795027" lon="-3.7282166"><ele>954.0</ele><time>2026-04-10T08:00:09.999Z</time></trkpt><trkpt lat="40.7795485" lon="-3.7281409"><ele>953.5</ele><time>2026-04-10T08:00:10.999Z</time></trkpt><trkpt lat="40.7795978" lon="-3.728063"><ele>953.0</ele><time>2026-04-10T08:00:11.999Z</time></trkpt><trkpt lat="40.7796485" lon="-3.7279891"><ele>952.5</ele><time>2026-04-10T08:00:12.998Z</time></trkpt><trkpt lat="40.779707" lon="-3.7279156"><ele>952.0</ele><time>2026-04-10T08:00:13.999Z</time></trkpt><trkpt lat="40.779776" lon="-3.7278463"><ele>951.5</ele><time>2026-04-10T08:00:14.999Z</time></trkpt><trkpt lat="40.7798514" lon="-3.7277871"><ele>951.0</ele><time>2026-04-10T08:00:15.999Z</time></trkpt><trkpt lat="40.779917" lon="-3.7277348"><ele>950.6666666666666</ele><time>2026-04-10T08:00:16.999Z</time></trkpt><trkpt lat="40.7799853" lon="-3.727693"><ele>950.3333333333333</ele><time>2026-04-10T08:00:17.998Z</time></trkpt><trkpt lat="40.7800532" lon="-3.7276478"><ele>950.0</ele><time>2026-04-10T08:00:18.999Z</time></trkpt><trkpt lat="40.7801227" lon="-3.7276039"><ele>949.6666666666666</ele><time>2026-04-10T08:00:19.999Z</time></trkpt><trkpt lat="40.7801948" lon="-3.7275443"><ele>949.3333333333333</ele><time>2026-04-10T08:00:20.999Z</time></trkpt><trkpt lat="40.7802717" lon="-3.7274792"><ele>949.0</ele><time>2026-04-10T08:00:21.998Z</time></trkpt><trkpt lat="40.7803461" lon="-3.7274095"><ele>948.3333333333333</ele><time>2026-04-10T08:00:22.998Z</time></trkpt><trkpt lat="40.780413" lon="-3.7273356"><ele>947.6666666666666</ele><time>2026-04-10T08:00:23.999Z</time></trkpt><trkpt lat="40.7804718" lon="-3.7272558"><ele>947.0</ele><time>2026-04-10T08:00:24.999Z</time></trkpt><trkpt lat="40.7805229" lon="-3.727167"><ele>946.3333333333333</ele><time>2026-04-10T08:00:25.999Z</time></trkpt><trkpt lat="40.7805765" lon="-3.7270759"><ele>945.6666666666666</ele><time>2026-04-10T08:00:26.999Z</time></trkpt><trkpt lat="40.7806279" lon="-3.7269736"><ele>945.0</ele><time>2026-04-10T08:00:27.998Z</time></trkpt><trkpt lat="40.7806717" lon="-3.7268749"><ele>944.6666666666666</ele><time>2026-04-10T08:00:28.999Z</time></trkpt><trkpt lat="40.7807175" lon="-3.7267809"><ele>944.3333333333333</ele><time>2026-04-10T08:00:29.999Z</time></trkpt><trkpt lat="40.7807668" lon="-3.7266791"><ele>944.0</ele><time>2026-04-10T08:00:30.999Z</time></trkpt><trkpt lat="40.780808" lon="-3.7265828"><ele>943.6666666666666</ele><time>2026-04-10T08:00:31.999Z</time></trkpt><trkpt lat="40.7808383" lon="-3.7264827"><ele>943.3333333333333</ele><time>2026-04-10T08:00:32.999Z</time></trkpt><trkpt lat="40.7808712" lon="-3.7263986"><ele>943.0</ele><time>2026-04-10T08:00:33.999Z</time></trkpt><trkpt lat="40.7809054" lon="-3.7263149"><ele>943.0</ele><time>2026-04-10T08:00:34.999Z</time></trkpt><trkpt lat="40.7809419" lon="-3.7262327"><ele>943.0000000000001</ele><time>2026-04-10T08:00:35.999Z</time></trkpt><trkpt lat="40.7809819" lon="-3.7261484"><ele>943.0</ele><time>2026-04-10T08:00:36.999Z</time></trkpt><trkpt lat="40.7810147" lon="-3.7260673"><ele>943.0</ele><time>2026-04-10T08:00:37.999Z</time></trkpt><trkpt lat="40.7810514" lon="-3.7259862"><ele>943.0000000000001</ele><time>2026-04-10T08:00:38.998Z</time></trkpt><trkpt lat="40.7810867" lon="-3.7258995"><ele>943.0</ele><time>2026-04-10T08:00:39.998Z</time></trkpt><trkpt lat="40.7811244" lon="-3.7258154"><ele>943.0</ele><time>2026-04-10T08:00:40.999Z</time></trkpt><trkpt lat="40.7811644" lon="-3.7257252"><ele>942.4999999999999</ele><time>2026-04-10T08:00:41.999Z</time></trkpt><trkpt lat="40.7812029" lon="-3.7256375"><ele>942.0</ele><time>2026-04-10T08:00:42.998Z</time></trkpt><trkpt lat="40.7812403" lon="-3.7255488"><ele>941.5</ele><time>2026-04-10T08:00:43.999Z</time></trkpt><trkpt lat="40.781278" lon="-3.725455"><ele>941.0</ele><time>2026-04-10T08:00:44.999Z</time></trkpt><trkpt lat="40.7813179" lon="-3.7253623"><ele>940.4999999999999</ele><time>2026-04-10T08:00:45.999Z</time></trkpt><trkpt lat="40.7813586" lon="-3.7252687"><ele>940.0</ele><time>2026-04-10T08:00:46.999Z</time></trkpt><trkpt lat="40.7813904" lon="-3.7251874"><ele>938.9999999999999</ele><time>2026-04-10T08:00:47.999Z</time></trkpt><trkpt lat="40.7814445" lon="-3.7250447"><ele>938.0</ele><time>2026-04-10T08:00:49.998Z</time></trkpt><trkpt lat="40.7814895" lon="-3.724976"><ele>937.0</ele><time>2026-04-10T08:00:50.999Z</time></trkpt><trkpt lat="40.7815395" lon="-3.7248984"><ele>936.0</ele><time>2026-04-10T08:00:51.999Z</time></trkpt><trkpt lat="40.7815858" lon="-3.7248163"><ele>934.9999999999999</ele><time>2026-04-10T08:00:52.999Z</time></trkpt><trkpt lat="40.781631" lon="-3.7247275"><ele>934.0</ele><time>2026-04-10T08:00:53.999Z</time></trkpt><trkpt lat="40.7816657" lon="-3.7246349"><ele>933.9999999999999</ele><time>2026-04-10T08:00:54.999Z</time></trkpt><trkpt lat="40.7817039" lon="-3.7245439"><ele>934.0</ele><time>2026-04-10T08:00:55.999Z</time></trkpt><trkpt lat="40.7817405" lon="-3.7244548"><ele>934.0</ele><time>2026-04-10T08:00:56.999Z</time></trkpt><trkpt lat="40.781776" lon="-3.7243685"><ele>934.0</ele><time>2026-04-10T08:00:57.999Z</time></trkpt><trkpt lat="40.7818131" lon="-3.7242854"><ele>933.9999999999999</ele><time>2026-04-10T08:00:58.999Z</time></trkpt><trkpt lat="40.7818538" lon="-3.7241968"><ele>934.0</ele><time>2026-04-10T08:00:59.998Z</time></trkpt><trkpt lat="40.7818885" lon="-3.7241051"><ele>932.1666666666666</ele><time>2026-04-10T08:01:00.999Z</time></trkpt><trkpt lat="40.781922" lon="-3.7240051"><ele>930.3333333333333</ele><time>2026-04-10T08:01:01.999Z</time></trkpt><trkpt lat="40.7819562" lon="-3.7239062"><ele>928.5</ele><time>2026-04-10T08:01:02.999Z</time></trkpt><trkpt lat="40.781998" lon="-3.7238141"><ele>926.6666666666667</ele><time>2026-04-10T08:01:03.999Z</time></trkpt><trkpt lat="40.7820405" lon="-3.7237137"><ele>924.8333333333334</ele><time>2026-04-10T08:01:04.999Z</time></trkpt><trkpt lat="40.7820824" lon="-3.7236063"><ele>923.0</ele><time>2026-04-10T08:01:05.999Z</time></trkpt><trkpt lat="40.7821288" lon="-3.7235015"><ele>922.6666666666667</ele><time>2026-04-10T08:01:06.999Z</time></trkpt><trkpt lat="40.7821718" lon="-3.7234093"><ele>922.3333333333334</ele><time>2026-04-10T08:01:07.999Z</time></trkpt><trkpt lat="40.7822176" lon="-3.7233352"><ele>922.0</ele><time>2026-04-10T08:01:08.999Z</time></trkpt><trkpt lat="40.7822532" lon="-3.7232644"><ele>921.6666666666667</ele><time>2026-04-10T08:01:09.999Z</time></trkpt><trkpt lat="40.7822916" lon="-3.7231962"><ele>921.3333333333334</ele><time>2026-04-10T08:01:10.999Z</time></trkpt><trkpt lat="40.7823677" lon="-3.7230504"><ele>921.0</ele><time>2026-04-10T08:01:12.999Z</time></trkpt><trkpt lat="40.7824312" lon="-3.72296"><ele>921.0</ele><time>2026-04-10T08:01:13.999Z</time></trkpt><trkpt lat="40.7824986" lon="-3.7228793"><ele>920.9999999999999</ele><time>2026-04-10T08:01:14.999Z</time></trkpt><trkpt lat="40.782569" lon="-3.7227894"><ele>920.9999999999999</ele><time>2026-04-10T08:01:15.999Z</time></trkpt><trkpt lat="40.7826398" lon="-3.722707"><ele>921.0</ele><time>2026-04-10T08:01:16.999Z</time></trkpt><trkpt lat="40.782699" lon="-3.722625"><ele>921.0</ele><time>2026-04-10T08:01:17.999Z</time></trkpt><trkpt lat="40.7827626" lon="-3.7225539"><ele>922.0</ele><time>2026-04-10T08:01:18.999Z</time></trkpt><trkpt lat="40.7828304" lon="-3.7224962"><ele>923.0</ele><time>2026-04-10T08:01:19.999Z</time></trkpt><trkpt lat="40.7829067" lon="-3.7224605"><ele>924.0</ele><time>2026-04-10T08:01:20.999Z</time></trkpt><trkpt lat="40.7829721" lon="-3.7224519"><ele>925.0</ele><time>2026-04-10T08:01:21.999Z</time></trkpt><trkpt lat="40.7830886" lon="-3.7224086"><ele>926.0</ele><time>2026-04-10T08:01:23.999Z</time></trkpt><trkpt lat="40.7831515" lon="-3.722391"><ele>927.0</ele><time>2026-04-10T08:01:24.999Z</time></trkpt><trkpt lat="40.7832201" lon="-3.7223725"><ele>927.0</ele><time>2026-04-10T08:01:25.999Z</time></trkpt><trkpt lat="40.7832887" lon="-3.7223546"><ele>927.0</ele><time>2026-04-10T08:01:26.999Z</time></trkpt><trkpt lat="40.7833553" lon="-3.7223237"><ele>927.0</ele><time>2026-04-10T08:01:27.999Z</time></trkpt><trkpt lat="40.7834248" lon="-3.722277"><ele>927.0</ele><time>2026-04-10T08:01:28.999Z</time></trkpt><trkpt lat="40.7834903" lon="-3.7222246"><ele>927.0</ele><time>2026-04-10T08:01:29.999Z</time></trkpt><trkpt lat="40.7835543" lon="-3.722162"><ele>927.0</ele><time>2026-04-10T08:01:30.999Z</time></trkpt><trkpt lat="40.7836149" lon="-3.722101"><ele>926.5714285714284</ele><time>2026-04-10T08:01:31.999Z</time></trkpt><trkpt lat="40.7836717" lon="-3.72203"><ele>926.1428571428571</ele><time>2026-04-10T08:01:32.999Z</time></trkpt><trkpt lat="40.7837243" lon="-3.7219524"><ele>925.7142857142857</ele><time>2026-04-10T08:01:33.999Z</time></trkpt><trkpt lat="40.7837682" lon="-3.7218821"><ele>925.2857142857142</ele><time>2026-04-10T08:01:34.999Z</time></trkpt><trkpt lat="40.7838059" lon="-3.7218111"><ele>924.8571428571429</ele><time>2026-04-10T08:01:35.999Z</time></trkpt><trkpt lat="40.783845" lon="-3.7217318"><ele>924.4285714285714</ele><time>2026-04-10T08:01:36.999Z</time></trkpt><trkpt lat="40.7838908" lon="-3.7216458"><ele>924.0</ele><time>2026-04-10T08:01:37.999Z</time></trkpt><trkpt lat="40.7839277" lon="-3.7215443"><ele>924.8333333333334</ele><time>2026-04-10T08:01:38.999Z</time></trkpt><trkpt lat="40.7839719" lon="-3.7214393"><ele>925.6666666666667</ele><time>2026-04-10T08:01:39.999Z</time></trkpt><trkpt lat="40.7840142" lon="-3.72133"><ele>926.5</ele><time>2026-04-10T08:01:40.999Z</time></trkpt><trkpt lat="40.7840517" lon="-3.7212146"><ele>927.3333333333334</ele><time>2026-04-10T08:01:41.999Z</time></trkpt><trkpt lat="40.7840802" lon="-3.7211124"><ele>928.1666666666667</ele><time>2026-04-10T08:01:42.999Z</time></trkpt><trkpt lat="40.7841111" lon="-3.7210185"><ele>929.0</ele><time>2026-04-10T08:01:43.999Z</time></trkpt><trkpt lat="40.7841363" lon="-3.7209396"><ele>929.0000000000001</ele><time>2026-04-10T08:01:44.998Z</time></trkpt><trkpt lat="40.784153" lon="-3.7208594"><ele>929.0</ele><time>2026-04-10T08:01:45.999Z</time></trkpt><trkpt lat="40.7841615" lon="-3.7207671"><ele>929.0</ele><time>2026-04-10T08:01:46.999Z</time></trkpt><trkpt lat="40.7841602" lon="-3.7206598"><ele>929.0</ele><time>2026-04-10T08:01:47.999Z</time></trkpt><trkpt lat="40.7841585" lon="-3.7205313"><ele>929.0000000000001</ele><time>2026-04-10T08:01:48.999Z</time></trkpt><trkpt lat="40.7841562" lon="-3.7203975"><ele>929.0</ele><time>2026-04-10T08:01:49.999Z</time></trkpt><trkpt lat="40.7841595" lon="-3.7202724"><ele>928.6</ele><time>2026-04-10T08:01:50.999Z</time></trkpt><trkpt lat="40.784165" lon="-3.7201534"><ele>928.2</ele><time>2026-04-10T08:01:51.998Z</time></trkpt><trkpt lat="40.784174" lon="-3.7200222"><ele>927.8000000000001</ele><time>2026-04-10T08:01:52.999Z</time></trkpt><trkpt lat="40.7841799" lon="-3.7198877"><ele>927.4000000000001</ele><time>2026-04-10T08:01:53.999Z</time></trkpt><trkpt lat="40.784183" lon="-3.7197517"><ele>927.0</ele><time>2026-04-10T08:01:54.999Z</time></trkpt><trkpt lat="40.7841842" lon="-3.7196169"><ele>927.0</ele><time>2026-04-10T08:01:55.999Z</time></trkpt><trkpt lat="40.784188" lon="-3.719492"><ele>927.0</ele><time>2026-04-10T08:01:56.999Z</time></trkpt><trkpt lat="40.7841925" lon="-3.7193743"><ele>927.0</ele><time>2026-04-10T08:01:57.999Z</time></trkpt><trkpt lat="40.7841956" lon="-3.7192654"><ele>927.0</ele><time>2026-04-10T08:01:58.999Z</time></trkpt><trkpt lat="40.7841998" lon="-3.7191563"><ele>927.0</ele><time>2026-04-10T08:01:59.998Z</time></trkpt><trkpt lat="40.784204" lon="-3.7190516"><ele>927.0</ele><time>2026-04-10T08:02:00.999Z</time></trkpt><trkpt lat="40.7842109" lon="-3.7189528"><ele>926.5</ele><time>2026-04-10T08:02:01.999Z</time></trkpt><trkpt lat="40.7842169" lon="-3.7188432"><ele>926.0</ele><time>2026-04-10T08:02:02.999Z</time></trkpt><trkpt lat="40.7842254" lon="-3.7187368"><ele>925.5</ele><time>2026-04-10T08:02:03.998Z</time></trkpt><trkpt lat="40.7842412" lon="-3.7186398"><ele>925.0</ele><time>2026-04-10T08:02:04.999Z</time></trkpt><trkpt lat="40.7842548" lon="-3.7185323"><ele>924.5</ele><time>2026-04-10T08:02:05.999Z</time></trkpt><trkpt lat="40.7842651" lon="-3.7184231"><ele>924.0</ele><time>2026-04-10T08:02:06.999Z</time></trkpt><trkpt lat="40.7842861" lon="-3.7182992"><ele>922.4000000000001</ele><time>2026-04-10T08:02:07.999Z</time></trkpt><trkpt lat="40.7843078" lon="-3.7181792"><ele>920.8000000000001</ele><time>2026-04-10T08:02:08.999Z</time></trkpt><trkpt lat="40.7843353" lon="-3.718048"><ele>919.1999999999999</ele><time>2026-04-10T08:02:09.999Z</time></trkpt><trkpt lat="40.7843499" lon="-3.7179244"><ele>917.5999999999999</ele><time>2026-04-10T08:02:10.999Z</time></trkpt><trkpt lat="40.7843547" lon="-3.7177652"><ele>916.0</ele><time>2026-04-10T08:02:11.998Z</time></trkpt><trkpt lat="40.7843626" lon="-3.7176175"><ele>914.0</ele><time>2026-04-10T08:02:12.998Z</time></trkpt><trkpt lat="40.7843792" lon="-3.7174758"><ele>912.0</ele><time>2026-04-10T08:02:13.999Z</time></trkpt><trkpt lat="40.7843974" lon="-3.7173127"><ele>910.0</ele><time>2026-04-10T08:02:14.999Z</time></trkpt><trkpt lat="40.784406" lon="-3.717158"><ele>908.0</ele><time>2026-04-10T08:02:15.999Z</time></trkpt><trkpt lat="40.7844172" lon="-3.717024"><ele>908.2</ele><time>2026-04-10T08:02:16.999Z</time></trkpt><trkpt lat="40.7844198" lon="-3.7168959"><ele>908.4</ele><time>2026-04-10T08:02:17.999Z</time></trkpt><trkpt lat="40.7844083" lon="-3.7167701"><ele>908.6000000000001</ele><time>2026-04-10T08:02:18.998Z</time></trkpt><trkpt lat="40.7843792" lon="-3.7166377"><ele>908.8000000000001</ele><time>2026-04-10T08:02:19.998Z</time></trkpt><trkpt lat="40.7843409" lon="-3.7165168"><ele>909.0</ele><time>2026-04-10T08:02:20.999Z</time></trkpt><trkpt lat="40.7843126" lon="-3.7163931"><ele>909.0</ele><time>2026-04-10T08:02:21.999Z</time></trkpt><trkpt lat="40.7842936" lon="-3.7162644"><ele>909.0000000000001</ele><time>2026-04-10T08:02:22.998Z</time></trkpt><trkpt lat="40.7842705" lon="-3.716136"><ele>909.0000000000001</ele><time>2026-04-10T08:02:23.999Z</time></trkpt><trkpt lat="40.7842417" lon="-3.716019"><ele>909.0</ele><time>2026-04-10T08:02:24.999Z</time></trkpt><trkpt lat="40.7842254" lon="-3.7159104"><ele>909.0</ele><time>2026-04-10T08:02:25.999Z</time></trkpt><trkpt lat="40.7842124" lon="-3.7158046"><ele>909.4000000000001</ele><time>2026-04-10T08:02:26.999Z</time></trkpt><trkpt lat="40.7842121" lon="-3.7156912"><ele>909.8000000000001</ele><time>2026-04-10T08:02:27.999Z</time></trkpt><trkpt lat="40.7842138" lon="-3.7155622"><ele>910.1999999999999</ele><time>2026-04-10T08:02:28.999Z</time></trkpt><trkpt lat="40.7842281" lon="-3.7154243"><ele>910.5999999999999</ele><time>2026-04-10T08:02:29.999Z</time></trkpt><trkpt lat="40.784245" lon="-3.7152819"><ele>911.0</ele><time>2026-04-10T08:02:30.999Z</time></trkpt><trkpt lat="40.7842591" lon="-3.7151342"><ele>909.5</ele><time>2026-04-10T08:02:31.999Z</time></trkpt><trkpt lat="40.7842721" lon="-3.7149903"><ele>908.0</ele><time>2026-04-10T08:02:32.999Z</time></trkpt><trkpt lat="40.78429" lon="-3.7148465"><ele>906.5</ele><time>2026-04-10T08:02:33.999Z</time></trkpt><trkpt lat="40.7843052" lon="-3.7146979"><ele>905.0</ele><time>2026-04-10T08:02:34.998Z</time></trkpt><trkpt lat="40.7843128" lon="-3.7145408"><ele>904.0</ele><time>2026-04-10T08:02:35.999Z</time></trkpt><trkpt lat="40.7843098" lon="-3.714381"><ele>903.0</ele><time>2026-04-10T08:02:36.999Z</time></trkpt><trkpt lat="40.7843092" lon="-3.7142179"><ele>902.0</ele><time>2026-04-10T08:02:37.999Z</time></trkpt><trkpt lat="40.7843196" lon="-3.7140604"><ele>901.0</ele><time>2026-04-10T08:02:38.999Z</time></trkpt><trkpt lat="40.78432" lon="-3.7138907"><ele>901.0</ele><time>2026-04-10T08:02:39.999Z</time></trkpt><trkpt lat="40.7843268" lon="-3.7137197"><ele>901.0</ele><time>2026-04-10T08:02:40.999Z</time></trkpt><trkpt lat="40.7843378" lon="-3.7135486"><ele>901.0</ele><time>2026-04-10T08:02:41.999Z</time></trkpt><trkpt lat="40.7843503" lon="-3.7133876"><ele>901.0</ele><time>2026-04-10T08:02:42.999Z</time></trkpt><trkpt lat="40.7843655" lon="-3.7132246"><ele>901.5999999999999</ele><time>2026-04-10T08:02:43.999Z</time></trkpt><trkpt lat="40.7843789" lon="-3.7130646"><ele>902.1999999999999</ele><time>2026-04-10T08:02:44.999Z</time></trkpt><trkpt lat="40.7843974" lon="-3.7129173"><ele>902.8000000000001</ele><time>2026-04-10T08:02:45.999Z</time></trkpt><trkpt lat="40.7844173" lon="-3.7127777"><ele>903.4000000000001</ele><time>2026-04-10T08:02:46.999Z</time></trkpt><trkpt lat="40.7844381" lon="-3.7126507"><ele>904.0</ele><time>2026-04-10T08:02:47.999Z</time></trkpt><trkpt lat="40.7844649" lon="-3.7125466"><ele>904.0</ele><time>2026-04-10T08:02:48.999Z</time></trkpt><trkpt lat="40.7844895" lon="-3.7124585"><ele>904.0</ele><time>2026-04-10T08:02:49.999Z</time></trkpt><trkpt lat="40.7845095" lon="-3.7123715"><ele>904.0</ele><time>2026-04-10T08:02:50.999Z</time></trkpt><trkpt lat="40.7845264" lon="-3.7122796"><ele>904.0</ele><time>2026-04-10T08:02:51.999Z</time></trkpt><trkpt lat="40.7845407" lon="-3.7121907"><ele>904.0</ele><time>2026-04-10T08:02:52.999Z</time></trkpt><trkpt lat="40.7845555" lon="-3.7120999"><ele>904.0</ele><time>2026-04-10T08:02:53.999Z</time></trkpt><trkpt lat="40.7845672" lon="-3.712009"><ele>904.0</ele><time>2026-04-10T08:02:54.999Z</time></trkpt><trkpt lat="40.7845783" lon="-3.7119211"><ele>902.9999999999999</ele><time>2026-04-10T08:02:55.998Z</time></trkpt><trkpt lat="40.7845903" lon="-3.7118369"><ele>902.0</ele><time>2026-04-10T08:02:56.999Z</time></trkpt><trkpt lat="40.7846092" lon="-3.7116782"><ele>901.0</ele><time>2026-04-10T08:02:58.999Z</time></trkpt><trkpt lat="40.7846338" lon="-3.7115166"><ele>900.0</ele><time>2026-04-10T08:03:00.999Z</time></trkpt><trkpt lat="40.7846458" lon="-3.7114271"><ele>898.9999999999999</ele><time>2026-04-10T08:03:01.999Z</time></trkpt><trkpt lat="40.7846597" lon="-3.7113443"><ele>898.0</ele><time>2026-04-10T08:03:02.999Z</time></trkpt><trkpt lat="40.7846877" lon="-3.7111926"><ele>898.0</ele><time>2026-04-10T08:03:04.998Z</time></trkpt><trkpt lat="40.7846993" lon="-3.7110997"><ele>898.0</ele><time>2026-04-10T08:03:05.999Z</time></trkpt><trkpt lat="40.7847331" lon="-3.7109463"><ele>898.0</ele><time>2026-04-10T08:03:07.999Z</time></trkpt><trkpt lat="40.7847637" lon="-3.7108619"><ele>898.0</ele><time>2026-04-10T08:03:08.999Z</time></trkpt><trkpt lat="40.7848147" lon="-3.7107001"><ele>898.0</ele><time>2026-04-10T08:03:10.999Z</time></trkpt><trkpt lat="40.7848407" lon="-3.7106021"><ele>897.1666666666666</ele><time>2026-04-10T08:03:11.999Z</time></trkpt><trkpt lat="40.7848692" lon="-3.7105008"><ele>896.3333333333333</ele><time>2026-04-10T08:03:12.999Z</time></trkpt><trkpt lat="40.7849052" lon="-3.7103925"><ele>895.5</ele><time>2026-04-10T08:03:13.999Z</time></trkpt><trkpt lat="40.7849432" lon="-3.7102867"><ele>894.6666666666667</ele><time>2026-04-10T08:03:14.999Z</time></trkpt><trkpt lat="40.7849812" lon="-3.7101795"><ele>893.8333333333334</ele><time>2026-04-10T08:03:15.999Z</time></trkpt><trkpt lat="40.7850201" lon="-3.7100694"><ele>893.0</ele><time>2026-04-10T08:03:16.999Z</time></trkpt><trkpt lat="40.7850561" lon="-3.7099591"><ele>892.0000000000001</ele><time>2026-04-10T08:03:17.999Z</time></trkpt><trkpt lat="40.7850976" lon="-3.7098598"><ele>891.0</ele><time>2026-04-10T08:03:18.999Z</time></trkpt><trkpt lat="40.7851379" lon="-3.7097603"><ele>890.0</ele><time>2026-04-10T08:03:19.999Z</time></trkpt><trkpt lat="40.7851724" lon="-3.7096609"><ele>889.0</ele><time>2026-04-10T08:03:20.999Z</time></trkpt><trkpt lat="40.7852019" lon="-3.7095764"><ele>888.0000000000001</ele><time>2026-04-10T08:03:21.999Z</time></trkpt><trkpt lat="40.785232" lon="-3.7094964"><ele>887.0</ele><time>2026-04-10T08:03:22.999Z</time></trkpt><trkpt lat="40.7852618" lon="-3.7094153"><ele>884.8333333333334</ele><time>2026-04-10T08:03:23.998Z</time></trkpt><trkpt lat="40.7852909" lon="-3.7093291"><ele>882.6666666666667</ele><time>2026-04-10T08:03:24.999Z</time></trkpt><trkpt lat="40.7853216" lon="-3.7092377"><ele>880.5</ele><time>2026-04-10T08:03:25.999Z</time></trkpt><trkpt lat="40.7853531" lon="-3.7091426"><ele>878.3333333333333</ele><time>2026-04-10T08:03:26.998Z</time></trkpt><trkpt lat="40.78539" lon="-3.709046"><ele>876.1666666666666</ele><time>2026-04-10T08:03:27.999Z</time></trkpt><trkpt lat="40.7854289" lon="-3.7089481"><ele>874.0</ele><time>2026-04-10T08:03:28.999Z</time></trkpt><trkpt lat="40.7854623" lon="-3.7088406"><ele>874.0</ele><time>2026-04-10T08:03:29.999Z</time></trkpt><trkpt lat="40.7854886" lon="-3.7087284"><ele>874.0000000000001</ele><time>2026-04-10T08:03:30.999Z</time></trkpt><trkpt lat="40.7855158" lon="-3.7086104"><ele>874.0000000000001</ele><time>2026-04-10T08:03:31.998Z</time></trkpt><trkpt lat="40.7855455" lon="-3.7084926"><ele>874.0</ele><time>2026-04-10T08:03:32.999Z</time></trkpt><trkpt lat="40.7855721" lon="-3.7083782"><ele>874.0</ele><time>2026-04-10T08:03:33.999Z</time></trkpt><trkpt lat="40.7855995" lon="-3.7082725"><ele>872.1666666666666</ele><time>2026-04-10T08:03:34.999Z</time></trkpt><trkpt lat="40.7856276" lon="-3.7081753"><ele>870.3333333333333</ele><time>2026-04-10T08:03:35.999Z</time></trkpt><trkpt lat="40.7856558" lon="-3.7080797"><ele>868.5</ele><time>2026-04-10T08:03:36.999Z</time></trkpt><trkpt lat="40.7856773" lon="-3.7079804"><ele>866.6666666666667</ele><time>2026-04-10T08:03:37.999Z</time></trkpt><trkpt lat="40.7856958" lon="-3.7078811"><ele>864.8333333333334</ele><time>2026-04-10T08:03:38.999Z</time></trkpt><trkpt lat="40.7857155" lon="-3.7077899"><ele>863.0</ele><time>2026-04-10T08:03:39.999Z</time></trkpt><trkpt lat="40.7857757" lon="-3.7076698"><ele>862.6666666666667</ele><time>2026-04-10T08:03:41.999Z</time></trkpt><trkpt lat="40.7858646" lon="-3.7076562"><ele>862.3333333333334</ele><time>2026-04-10T08:03:43.999Z</time></trkpt><trkpt lat="40.7859413" lon="-3.7076913"><ele>862.0</ele><time>2026-04-10T08:03:44.999Z</time></trkpt><trkpt lat="40.7860267" lon="-3.7077363"><ele>861.6666666666667</ele><time>2026-04-10T08:03:45.999Z</time></trkpt><trkpt lat="40.7861102" lon="-3.707772"><ele>861.3333333333334</ele><time>2026-04-10T08:03:46.999Z</time></trkpt><trkpt lat="40.786191" lon="-3.7078044"><ele>861.0</ele><time>2026-04-10T08:03:47.999Z</time></trkpt><trkpt lat="40.7862892" lon="-3.7078383"><ele>860.1666666666666</ele><time>2026-04-10T08:03:48.999Z</time></trkpt><trkpt lat="40.7863857" lon="-3.7078793"><ele>859.3333333333333</ele><time>2026-04-10T08:03:49.999Z</time></trkpt><trkpt lat="40.7864771" lon="-3.7079233"><ele>858.5</ele><time>2026-04-10T08:03:50.999Z</time></trkpt><trkpt lat="40.7865594" lon="-3.7079639"><ele>857.6666666666666</ele><time>2026-04-10T08:03:51.999Z</time></trkpt><trkpt lat="40.7866363" lon="-3.7080001"><ele>856.8333333333333</ele><time>2026-04-10T08:03:52.999Z</time></trkpt><trkpt lat="40.7867095" lon="-3.7080278"><ele>856.0</ele><time>2026-04-10T08:03:53.999Z</time></trkpt><trkpt lat="40.7867779" lon="-3.7080479"><ele>855.9999999999999</ele><time>2026-04-10T08:03:54.999Z</time></trkpt><trkpt lat="40.786844" lon="-3.708072"><ele>856.0</ele><time>2026-04-10T08:03:55.999Z</time></trkpt><trkpt lat="40.7869622" lon="-3.7081218"><ele>856.0</ele><time>2026-04-10T08:03:57.999Z</time></trkpt><trkpt lat="40.7869871" lon="-3.7082223"><ele>856.0</ele><time>2026-04-10T08:04:00.998Z</time></trkpt><trkpt lat="40.7869771" lon="-3.7083218"><ele>855.9999999999999</ele><time>2026-04-10T08:04:02.999Z</time></trkpt><trkpt lat="40.7869803" lon="-3.7084058"><ele>856.0</ele><time>2026-04-10T08:04:04.999Z</time></trkpt><trkpt lat="40.7870061" lon="-3.708495"><ele>856.0000000000001</ele><time>2026-04-10T08:04:07.999Z</time></trkpt><trkpt lat="40.7870081" lon="-3.7084094"><ele>856.0</ele><time>2026-04-10T08:06:01.998Z</time></trkpt><trkpt lat="40.7869833" lon="-3.7083292"><ele>856.0</ele><time>2026-04-10T08:06:04.999Z</time></trkpt><trkpt lat="40.7869617" lon="-3.7082416"><ele>856.0</ele><time>2026-04-10T08:06:08.999Z</time></trkpt><trkpt lat="40.7869643" lon="-3.7081558"><ele>856.0</ele><time>2026-04-10T08:06:35.999Z</time></trkpt><trkpt lat="40.7869029" lon="-3.708085"><ele>856.0000000000001</ele><time>2026-04-10T08:06:37.999Z</time></trkpt><trkpt lat="40.7868376" lon="-3.7080668"><ele>856.0</ele><time>2026-04-10T08:06:38.999Z</time></trkpt><trkpt lat="40.7867332" lon="-3.7080251"><ele>856.0</ele><time>2026-04-10T08:06:40.999Z</time></trkpt><trkpt lat="40.7866246" lon="-3.7079707"><ele>855.9999999999999</ele><time>2026-04-10T08:06:42.999Z</time></trkpt><trkpt lat="40.7865593" lon="-3.7079286"><ele>855.9999999999999</ele><time>2026-04-10T08:06:44.999Z</time></trkpt><trkpt lat="40.7864775" lon="-3.7078945"><ele>856.0</ele><time>2026-04-10T08:06:51.998Z</time></trkpt><trkpt lat="40.7863758" lon="-3.707855"><ele>856.0</ele><time>2026-04-10T08:06:53.998Z</time></trkpt><trkpt lat="40.7862688" lon="-3.7078033"><ele>855.9999999999999</ele><time>2026-04-10T08:06:55.998Z</time></trkpt><trkpt lat="40.7861464" lon="-3.7077573"><ele>856.0</ele><time>2026-04-10T08:06:57.999Z</time></trkpt><trkpt lat="40.786083" lon="-3.7077199"><ele>856.0</ele><time>2026-04-10T08:06:58.999Z</time></trkpt><trkpt lat="40.7860157" lon="-3.7076862"><ele>856.0</ele><time>2026-04-10T08:06:59.999Z</time></trkpt><trkpt lat="40.7859531" lon="-3.7076668"><ele>855.9999999999999</ele><time>2026-04-10T08:07:00.998Z</time></trkpt><trkpt lat="40.7858398" lon="-3.7076514"><ele>856.0</ele><time>2026-04-10T08:07:02.999Z</time></trkpt><trkpt lat="40.785748" lon="-3.7076676"><ele>856.8333333333333</ele><time>2026-04-10T08:07:04.999Z</time></trkpt><trkpt lat="40.7856775" lon="-3.7076439"><ele>857.6666666666666</ele><time>2026-04-10T08:07:06.999Z</time></trkpt><trkpt lat="40.78565" lon="-3.7075619"><ele>858.5</ele><time>2026-04-10T08:07:09.998Z</time></trkpt><trkpt lat="40.7857041" lon="-3.7074651"><ele>859.3333333333333</ele><time>2026-04-10T08:07:20.999Z</time></trkpt><trkpt lat="40.785806" lon="-3.7074174"><ele>860.1666666666666</ele><time>2026-04-10T08:07:22.999Z</time></trkpt><trkpt lat="40.7858798" lon="-3.7073642"><ele>861.0</ele><time>2026-04-10T08:07:23.999Z</time></trkpt><trkpt lat="40.7859321" lon="-3.7072957"><ele>861.0</ele><time>2026-04-10T08:07:24.998Z</time></trkpt><trkpt lat="40.7859778" lon="-3.7072032"><ele>860.9999999999999</ele><time>2026-04-10T08:07:25.998Z</time></trkpt><trkpt lat="40.7860215" lon="-3.7070928"><ele>860.9999999999999</ele><time>2026-04-10T08:07:26.999Z</time></trkpt><trkpt lat="40.7860558" lon="-3.7069814"><ele>861.0</ele><time>2026-04-10T08:07:27.998Z</time></trkpt><trkpt lat="40.7860893" lon="-3.7068746"><ele>861.0</ele><time>2026-04-10T08:07:28.999Z</time></trkpt><trkpt lat="40.7861304" lon="-3.7067641"><ele>859.4</ele><time>2026-04-10T08:07:29.999Z</time></trkpt><trkpt lat="40.7861697" lon="-3.706643"><ele>857.8</ele><time>2026-04-10T08:07:30.999Z</time></trkpt><trkpt lat="40.7862099" lon="-3.706514"><ele>856.1999999999999</ele><time>2026-04-10T08:07:31.999Z</time></trkpt><trkpt lat="40.7862486" lon="-3.7063895"><ele>854.5999999999999</ele><time>2026-04-10T08:07:32.999Z</time></trkpt><trkpt lat="40.7862889" lon="-3.7062789"><ele>853.0</ele><time>2026-04-10T08:07:33.998Z</time></trkpt><trkpt lat="40.7863312" lon="-3.7061713"><ele>852.6666666666666</ele><time>2026-04-10T08:07:34.999Z</time></trkpt><trkpt lat="40.786371" lon="-3.7060737"><ele>852.3333333333333</ele><time>2026-04-10T08:07:35.999Z</time></trkpt><trkpt lat="40.7864047" lon="-3.7059702"><ele>852.0</ele><time>2026-04-10T08:07:36.999Z</time></trkpt><trkpt lat="40.7864342" lon="-3.7058658"><ele>851.6666666666667</ele><time>2026-04-10T08:07:37.998Z</time></trkpt><trkpt lat="40.7864532" lon="-3.7057616"><ele>851.3333333333334</ele><time>2026-04-10T08:07:38.999Z</time></trkpt><trkpt lat="40.7864565" lon="-3.7056629"><ele>851.0</ele><time>2026-04-10T08:07:39.999Z</time></trkpt><trkpt lat="40.7864508" lon="-3.7055648"><ele>851.0</ele><time>2026-04-10T08:07:40.999Z</time></trkpt><trkpt lat="40.7864393" lon="-3.7054533"><ele>851.0</ele><time>2026-04-10T08:07:41.998Z</time></trkpt><trkpt lat="40.7864227" lon="-3.7053329"><ele>851.0</ele><time>2026-04-10T08:07:42.999Z</time></trkpt><trkpt lat="40.7863955" lon="-3.7052099"><ele>851.0</ele><time>2026-04-10T08:07:43.999Z</time></trkpt><trkpt lat="40.7863637" lon="-3.7050853"><ele>851.0</ele><time>2026-04-10T08:07:44.999Z</time></trkpt><trkpt lat="40.7863311" lon="-3.7049615"><ele>850.5999999999999</ele><time>2026-04-10T08:07:45.999Z</time></trkpt><trkpt lat="40.7862971" lon="-3.7048363"><ele>850.2</ele><time>2026-04-10T08:07:46.999Z</time></trkpt><trkpt lat="40.7862623" lon="-3.7047143"><ele>849.8</ele><time>2026-04-10T08:07:47.999Z</time></trkpt><trkpt lat="40.7862299" lon="-3.7045917"><ele>849.4000000000001</ele><time>2026-04-10T08:07:48.999Z</time></trkpt><trkpt lat="40.7861927" lon="-3.7044712"><ele>849.0</ele><time>2026-04-10T08:07:49.999Z</time></trkpt><trkpt lat="40.7861574" lon="-3.7043532"><ele>849.0</ele><time>2026-04-10T08:07:50.999Z</time></trkpt><trkpt lat="40.7861253" lon="-3.7042363"><ele>849.0</ele><time>2026-04-10T08:07:51.999Z</time></trkpt><trkpt lat="40.7860947" lon="-3.7041198"><ele>849.0</ele><time>2026-04-10T08:07:52.999Z</time></trkpt><trkpt lat="40.7860584" lon="-3.7040001"><ele>849.0</ele><time>2026-04-10T08:07:53.999Z</time></trkpt><trkpt lat="40.7860272" lon="-3.7038805"><ele>849.0</ele><time>2026-04-10T08:07:54.999Z</time></trkpt><trkpt lat="40.785989" lon="-3.7037614"><ele>849.0</ele><time>2026-04-10T08:07:55.999Z</time></trkpt><trkpt lat="40.7859543" lon="-3.7036451"><ele>849.0</ele><time>2026-04-10T08:07:56.999Z</time></trkpt><trkpt lat="40.7859189" lon="-3.7035228"><ele>849.0</ele><time>2026-04-10T08:07:57.999Z</time></trkpt><trkpt lat="40.7858838" lon="-3.7033937"><ele>849.0</ele><time>2026-04-10T08:07:58.998Z</time></trkpt><trkpt lat="40.7858457" lon="-3.7032681"><ele>849.0</ele><time>2026-04-10T08:07:59.999Z</time></trkpt><trkpt lat="40.7858076" lon="-3.7031338"><ele>849.0</ele><time>2026-04-10T08:08:00.999Z</time></trkpt><trkpt lat="40.7857728" lon="-3.7029971"><ele>849.0</ele><time>2026-04-10T08:08:01.999Z</time></trkpt><trkpt lat="40.7857362" lon="-3.7028601"><ele>849.0</ele><time>2026-04-10T08:08:02.999Z</time></trkpt><trkpt lat="40.7856965" lon="-3.7027324"><ele>849.0</ele><time>2026-04-10T08:08:03.999Z</time></trkpt><trkpt lat="40.785658" lon="-3.7026181"><ele>849.0</ele><time>2026-04-10T08:08:04.999Z</time></trkpt><trkpt lat="40.7856155" lon="-3.7025093"><ele>849.4000000000001</ele><time>2026-04-10T08:08:05.999Z</time></trkpt><trkpt lat="40.7855622" lon="-3.7023983"><ele>849.8</ele><time>2026-04-10T08:08:06.999Z</time></trkpt><trkpt lat="40.7855004" lon="-3.7022876"><ele>850.2</ele><time>2026-04-10T08:08:07.999Z</time></trkpt><trkpt lat="40.7854421" lon="-3.7021748"><ele>850.5999999999999</ele><time>2026-04-10T08:08:08.999Z</time></trkpt><trkpt lat="40.7853728" lon="-3.7020679"><ele>851.0</ele><time>2026-04-10T08:08:09.999Z</time></trkpt><trkpt lat="40.7853068" lon="-3.7019596"><ele>850.5999999999999</ele><time>2026-04-10T08:08:10.999Z</time></trkpt><trkpt lat="40.7852402" lon="-3.7018488"><ele>850.2</ele><time>2026-04-10T08:08:11.999Z</time></trkpt><trkpt lat="40.785175" lon="-3.7017395"><ele>849.8</ele><time>2026-04-10T08:08:12.998Z</time></trkpt><trkpt lat="40.7851109" lon="-3.7016364"><ele>849.4000000000001</ele><time>2026-04-10T08:08:13.998Z</time></trkpt><trkpt lat="40.7850447" lon="-3.7015313"><ele>849.0</ele><time>2026-04-10T08:08:14.998Z</time></trkpt><trkpt lat="40.7849785" lon="-3.7014267"><ele>848.8000000000001</ele><time>2026-04-10T08:08:15.998Z</time></trkpt><trkpt lat="40.7849171" lon="-3.7013184"><ele>848.6</ele><time>2026-04-10T08:08:16.999Z</time></trkpt><trkpt lat="40.7848646" lon="-3.7012229"><ele>848.4</ele><time>2026-04-10T08:08:17.999Z</time></trkpt><trkpt lat="40.7848243" lon="-3.7011085"><ele>848.2</ele><time>2026-04-10T08:08:18.999Z</time></trkpt><trkpt lat="40.7847905" lon="-3.7009756"><ele>848.0</ele><time>2026-04-10T08:08:19.999Z</time></trkpt><trkpt lat="40.7847673" lon="-3.7008416"><ele>848.0</ele><time>2026-04-10T08:08:20.999Z</time></trkpt><trkpt lat="40.7847486" lon="-3.700708"><ele>848.0</ele><time>2026-04-10T08:08:21.999Z</time></trkpt><trkpt lat="40.7847383" lon="-3.700573"><ele>848.0</ele><time>2026-04-10T08:08:22.999Z</time></trkpt><trkpt lat="40.7847212" lon="-3.7004409"><ele>848.0</ele><time>2026-04-10T08:08:23.998Z</time></trkpt><trkpt lat="40.7847007" lon="-3.7003066"><ele>848.0</ele><time>2026-04-10T08:08:24.999Z</time></trkpt><trkpt lat="40.7846738" lon="-3.7001705"><ele>847.5999999999999</ele><time>2026-04-10T08:08:25.999Z</time></trkpt><trkpt lat="40.78465" lon="-3.7000304"><ele>847.1999999999999</ele><time>2026-04-10T08:08:26.998Z</time></trkpt><trkpt lat="40.7846346" lon="-3.6998883"><ele>846.8</ele><time>2026-04-10T08:08:27.999Z</time></trkpt><trkpt lat="40.7846143" lon="-3.6997571"><ele>846.4</ele><time>2026-04-10T08:08:28.999Z</time></trkpt><trkpt lat="40.7845902" lon="-3.6996248"><ele>846.0</ele><time>2026-04-10T08:08:29.999Z</time></trkpt><trkpt lat="40.7845679" lon="-3.6994905"><ele>845.5999999999999</ele><time>2026-04-10T08:08:30.999Z</time></trkpt><trkpt lat="40.7845494" lon="-3.6993572"><ele>845.2</ele><time>2026-04-10T08:08:31.999Z</time></trkpt><trkpt lat="40.7845344" lon="-3.6992256"><ele>844.8</ele><time>2026-04-10T08:08:32.999Z</time></trkpt><trkpt lat="40.7845299" lon="-3.6990955"><ele>844.4000000000001</ele><time>2026-04-10T08:08:33.999Z</time></trkpt><trkpt lat="40.7845314" lon="-3.6989671"><ele>844.0</ele><time>2026-04-10T08:08:34.999Z</time></trkpt><trkpt lat="40.7845376" lon="-3.6988309"><ele>844.0</ele><time>2026-04-10T08:08:35.998Z</time></trkpt><trkpt lat="40.784549" lon="-3.6986866"><ele>844.0</ele><time>2026-04-10T08:08:36.999Z</time></trkpt><trkpt lat="40.7845628" lon="-3.698541"><ele>844.0</ele><time>2026-04-10T08:08:37.999Z</time></trkpt><trkpt lat="40.7845785" lon="-3.6983975"><ele>844.0</ele><time>2026-04-10T08:08:38.999Z</time></trkpt><trkpt lat="40.7845953" lon="-3.6982502"><ele>844.0</ele><time>2026-04-10T08:08:39.999Z</time></trkpt><trkpt lat="40.7846066" lon="-3.6981055"><ele>844.0</ele><time>2026-04-10T08:08:40.999Z</time></trkpt><trkpt lat="40.7846201" lon="-3.6979673"><ele>844.0</ele><time>2026-04-10T08:08:41.999Z</time></trkpt><trkpt lat="40.7846309" lon="-3.697824"><ele>844.0</ele><time>2026-04-10T08:08:42.999Z</time></trkpt><trkpt lat="40.7846398" lon="-3.6976768"><ele>844.0</ele><time>2026-04-10T08:08:43.998Z</time></trkpt><trkpt lat="40.7846456" lon="-3.697534"><ele>844.0</ele><time>2026-04-10T08:08:44.999Z</time></trkpt><trkpt lat="40.784651" lon="-3.6974012"><ele>843.8000000000001</ele><time>2026-04-10T08:08:45.999Z</time></trkpt><trkpt lat="40.7846594" lon="-3.6972728"><ele>843.6</ele><time>2026-04-10T08:08:46.999Z</time></trkpt><trkpt lat="40.7846668" lon="-3.6971422"><ele>843.4</ele><time>2026-04-10T08:08:47.999Z</time></trkpt><trkpt lat="40.7846744" lon="-3.6970052"><ele>843.2</ele><time>2026-04-10T08:08:48.999Z</time></trkpt><trkpt lat="40.7846821" lon="-3.6968644"><ele>843.0</ele><time>2026-04-10T08:08:49.999Z</time></trkpt><trkpt lat="40.7846909" lon="-3.6967229"><ele>843.0</ele><time>2026-04-10T08:08:50.999Z</time></trkpt><trkpt lat="40.7846997" lon="-3.6965812"><ele>843.0</ele><time>2026-04-10T08:08:51.999Z</time></trkpt><trkpt lat="40.7847082" lon="-3.696446"><ele>843.0</ele><time>2026-04-10T08:08:52.999Z</time></trkpt><trkpt lat="40.7847182" lon="-3.6963121"><ele>843.0</ele><time>2026-04-10T08:08:53.999Z</time></trkpt><trkpt lat="40.7847305" lon="-3.6961809"><ele>843.0</ele><time>2026-04-10T08:08:54.999Z</time></trkpt><trkpt lat="40.7847396" lon="-3.6960489"><ele>843.0</ele><time>2026-04-10T08:08:55.999Z</time></trkpt><trkpt lat="40.7847473" lon="-3.6959201"><ele>843.0</ele><time>2026-04-10T08:08:56.999Z</time></trkpt><trkpt lat="40.7847572" lon="-3.69579"><ele>843.0</ele><time>2026-04-10T08:08:57.999Z</time></trkpt><trkpt lat="40.7847683" lon="-3.6956641"><ele>843.0</ele><time>2026-04-10T08:08:58.998Z</time></trkpt><trkpt lat="40.7847799" lon="-3.6955401"><ele>843.0</ele><time>2026-04-10T08:08:59.998Z</time></trkpt><trkpt lat="40.7847892" lon="-3.6954244"><ele>843.0</ele><time>2026-04-10T08:09:00.999Z</time></trkpt><trkpt lat="40.7847961" lon="-3.6953086"><ele>843.0</ele><time>2026-04-10T08:09:01.999Z</time></trkpt><trkpt lat="40.7848042" lon="-3.6951895"><ele>843.0</ele><time>2026-04-10T08:09:02.999Z</time></trkpt><trkpt lat="40.7848134" lon="-3.6950776"><ele>843.0</ele><time>2026-04-10T08:09:03.999Z</time></trkpt><trkpt lat="40.7848195" lon="-3.6949799"><ele>843.0</ele><time>2026-04-10T08:09:04.998Z</time></trkpt><trkpt lat="40.784832" lon="-3.6948394"><ele>843.0</ele><time>2026-04-10T08:09:06.999Z</time></trkpt><trkpt lat="40.7848051" lon="-3.6947184"><ele>843.0</ele><time>2026-04-10T08:09:08.999Z</time></trkpt><trkpt lat="40.7847351" lon="-3.6946827"><ele>843.0</ele><time>2026-04-10T08:09:09.999Z</time></trkpt><trkpt lat="40.7846694" lon="-3.6946586"><ele>843.0</ele><time>2026-04-10T08:09:10.999Z</time></trkpt><trkpt lat="40.7845885" lon="-3.6946335"><ele>843.0</ele><time>2026-04-10T08:09:11.999Z</time></trkpt><trkpt lat="40.7845117" lon="-3.6946039"><ele>843.0</ele><time>2026-04-10T08:09:12.999Z</time></trkpt><trkpt lat="40.7844433" lon="-3.694572"><ele>843.0</ele><time>2026-04-10T08:09:13.999Z</time></trkpt><trkpt lat="40.7843201" lon="-3.6944997"><ele>842.5</ele><time>2026-04-10T08:09:15.999Z</time></trkpt><trkpt lat="40.7842211" lon="-3.6943918"><ele>842.0</ele><time>2026-04-10T08:09:17.999Z</time></trkpt><trkpt lat="40.7841753" lon="-3.6943346"><ele>841.5</ele><time>2026-04-10T08:09:18.999Z</time></trkpt><trkpt lat="40.7840982" lon="-3.6942548"><ele>841.0</ele><time>2026-04-10T08:09:20.999Z</time></trkpt><trkpt lat="40.7840527" lon="-3.694187"><ele>840.5</ele><time>2026-04-10T08:09:22.999Z</time></trkpt><trkpt lat="40.7841029" lon="-3.694103"><ele>840.0</ele><time>2026-04-10T08:09:32.999Z</time></trkpt><trkpt lat="40.7841966" lon="-3.6940149"><ele>840.0</ele><time>2026-04-10T08:09:34.998Z</time></trkpt><trkpt lat="40.7842933" lon="-3.6939129"><ele>840.0</ele><time>2026-04-10T08:09:36.998Z</time></trkpt><trkpt lat="40.784343" lon="-3.6938585"><ele>840.0</ele><time>2026-04-10T08:09:37.999Z</time></trkpt><trkpt lat="40.784408" lon="-3.6937523"><ele>840.0</ele><time>2026-04-10T08:09:39.999Z</time></trkpt><trkpt lat="40.7845089" lon="-3.6936753"><ele>840.0</ele><time>2026-04-10T08:09:41.999Z</time></trkpt><trkpt lat="40.7845876" lon="-3.6936462"><ele>840.3333333333334</ele><time>2026-04-10T08:09:43.998Z</time></trkpt><trkpt lat="40.7846514" lon="-3.6935846"><ele>840.6666666666667</ele><time>2026-04-10T08:09:46.999Z</time></trkpt><trkpt lat="40.7846566" lon="-3.6934997"><ele>841.0</ele><time>2026-04-10T08:09:48.999Z</time></trkpt><trkpt lat="40.7846512" lon="-3.6933892"><ele>841.3333333333334</ele><time>2026-04-10T08:09:50.999Z</time></trkpt><trkpt lat="40.784655" lon="-3.6932675"><ele>841.6666666666667</ele><time>2026-04-10T08:09:52.999Z</time></trkpt><trkpt lat="40.7846717" lon="-3.6931715"><ele>842.0</ele><time>2026-04-10T08:09:54.999Z</time></trkpt><trkpt lat="40.7846752" lon="-3.6930494"><ele>842.0000000000001</ele><time>2026-04-10T08:09:56.998Z</time></trkpt><trkpt lat="40.7846568" lon="-3.6929234"><ele>842.0</ele><time>2026-04-10T08:09:58.999Z</time></trkpt><trkpt lat="40.7846411" lon="-3.6927794"><ele>842.0</ele><time>2026-04-10T08:10:00.999Z</time></trkpt><trkpt lat="40.7846435" lon="-3.6926503"><ele>842.0</ele><time>2026-04-10T08:10:02.999Z</time></trkpt><trkpt lat="40.7846138" lon="-3.6925759"><ele>842.0000000000001</ele><time>2026-04-10T08:10:05.999Z</time></trkpt><trkpt lat="40.7846176" lon="-3.6926719"><ele>842.0</ele><time>2026-04-10T08:10:16.999Z</time></trkpt><trkpt lat="40.7846309" lon="-3.6927743"><ele>841.8333333333334</ele><time>2026-04-10T08:10:20.999Z</time></trkpt><trkpt lat="40.784567" lon="-3.6927273"><ele>841.6666666666667</ele><time>2026-04-10T08:10:29.999Z</time></trkpt><trkpt lat="40.784564" lon="-3.6926333"><ele>841.5</ele><time>2026-04-10T08:10:31.999Z</time></trkpt><trkpt lat="40.7845868" lon="-3.6925287"><ele>841.3333333333333</ele><time>2026-04-10T08:10:34.999Z</time></trkpt><trkpt lat="40.7845985" lon="-3.6924057"><ele>841.1666666666666</ele><time>2026-04-10T08:10:37.999Z</time></trkpt><trkpt lat="40.7846207" lon="-3.6923039"><ele>841.0</ele><time>2026-04-10T08:10:39.999Z</time></trkpt><trkpt lat="40.7846605" lon="-3.6921902"><ele>841.0</ele><time>2026-04-10T08:10:41.999Z</time></trkpt><trkpt lat="40.7846867" lon="-3.6920688"><ele>841.0</ele><time>2026-04-10T08:10:43.999Z</time></trkpt><trkpt lat="40.7846902" lon="-3.6919701"><ele>841.0</ele><time>2026-04-10T08:10:45.999Z</time></trkpt><trkpt lat="40.7846206" lon="-3.6918905"><ele>841.0</ele><time>2026-04-10T08:10:47.999Z</time></trkpt><trkpt lat="40.7844802" lon="-3.6918777"><ele>841.0</ele><time>2026-04-10T08:10:49.998Z</time></trkpt><trkpt lat="40.7844015" lon="-3.6918888"><ele>840.8</ele><time>2026-04-10T08:10:50.999Z</time></trkpt><trkpt lat="40.7843305" lon="-3.6918989"><ele>840.5999999999999</ele><time>2026-04-10T08:10:51.999Z</time></trkpt><trkpt lat="40.7842454" lon="-3.6918976"><ele>840.4</ele><time>2026-04-10T08:10:52.999Z</time></trkpt><trkpt lat="40.7841502" lon="-3.6918941"><ele>840.2</ele><time>2026-04-10T08:10:53.999Z</time></trkpt><trkpt lat="40.784055" lon="-3.6918785"><ele>840.0</ele><time>2026-04-10T08:10:54.999Z</time></trkpt><trkpt lat="40.7839527" lon="-3.6918879"><ele>840.0</ele><time>2026-04-10T08:10:55.998Z</time></trkpt><trkpt lat="40.7838408" lon="-3.6919199"><ele>840.0</ele><time>2026-04-10T08:10:56.999Z</time></trkpt><trkpt lat="40.7837416" lon="-3.6919415"><ele>840.0</ele><time>2026-04-10T08:10:57.999Z</time></trkpt><trkpt lat="40.7836422" lon="-3.6919621"><ele>840.0</ele><time>2026-04-10T08:10:58.999Z</time></trkpt><trkpt lat="40.7835505" lon="-3.6919685"><ele>840.0</ele><time>2026-04-10T08:10:59.999Z</time></trkpt><trkpt lat="40.7834636" lon="-3.6919699"><ele>840.0</ele><time>2026-04-10T08:11:00.998Z</time></trkpt><trkpt lat="40.7833916" lon="-3.6919548"><ele>840.0</ele><time>2026-04-10T08:11:01.999Z</time></trkpt><trkpt lat="40.7833212" lon="-3.6919284"><ele>840.0</ele><time>2026-04-10T08:11:02.999Z</time></trkpt><trkpt lat="40.7832212" lon="-3.6919049"><ele>840.0</ele><time>2026-04-10T08:11:04.999Z</time></trkpt><trkpt lat="40.7831962" lon="-3.6918096"><ele>840.0</ele><time>2026-04-10T08:11:07.999Z</time></trkpt><trkpt lat="40.7832542" lon="-3.6916834"><ele>840.0</ele><time>2026-04-10T08:11:09.999Z</time></trkpt><trkpt lat="40.7832932" lon="-3.6915928"><ele>840.0</ele><time>2026-04-10T08:11:10.999Z</time></trkpt><trkpt lat="40.7833415" lon="-3.6914825"><ele>840.0</ele><time>2026-04-10T08:11:11.999Z</time></trkpt><trkpt lat="40.7833935" lon="-3.6913758"><ele>840.0</ele><time>2026-04-10T08:11:12.999Z</time></trkpt><trkpt lat="40.7834461" lon="-3.6912731"><ele>840.0</ele><time>2026-04-10T08:11:13.999Z</time></trkpt><trkpt lat="40.7834971" lon="-3.6911775"><ele>840.0</ele><time>2026-04-10T08:11:14.999Z</time></trkpt><trkpt lat="40.7835533" lon="-3.6910825"><ele>839.6</ele><time>2026-04-10T08:11:15.999Z</time></trkpt><trkpt lat="40.7836246" lon="-3.6909841"><ele>839.2</ele><time>2026-04-10T08:11:16.999Z</time></trkpt><trkpt lat="40.7836962" lon="-3.6908773"><ele>838.8</ele><time>2026-04-10T08:11:17.999Z</time></trkpt><trkpt lat="40.7837702" lon="-3.6907717"><ele>838.4</ele><time>2026-04-10T08:11:18.999Z</time></trkpt><trkpt lat="40.7838402" lon="-3.6906572"><ele>838.0</ele><time>2026-04-10T08:11:19.999Z</time></trkpt><trkpt lat="40.7839056" lon="-3.6905427"><ele>838.0</ele><time>2026-04-10T08:11:20.999Z</time></trkpt><trkpt lat="40.7839641" lon="-3.6904272"><ele>838.0</ele><time>2026-04-10T08:11:21.999Z</time></trkpt><trkpt lat="40.7840158" lon="-3.6902964"><ele>838.0</ele><time>2026-04-10T08:11:22.999Z</time></trkpt><trkpt lat="40.784067" lon="-3.6901689"><ele>838.0</ele><time>2026-04-10T08:11:23.998Z</time></trkpt><trkpt lat="40.7841099" lon="-3.6900479"><ele>838.0</ele><time>2026-04-10T08:11:24.999Z</time></trkpt><trkpt lat="40.7841423" lon="-3.6899324"><ele>837.9999999999999</ele><time>2026-04-10T08:11:25.998Z</time></trkpt><trkpt lat="40.7841678" lon="-3.6898201"><ele>838.0</ele><time>2026-04-10T08:11:26.999Z</time></trkpt><trkpt lat="40.7841952" lon="-3.6897154"><ele>838.0</ele><time>2026-04-10T08:11:27.999Z</time></trkpt><trkpt lat="40.7842212" lon="-3.6896128"><ele>838.0</ele><time>2026-04-10T08:11:28.998Z</time></trkpt><trkpt lat="40.7842434" lon="-3.6895103"><ele>837.9999999999999</ele><time>2026-04-10T08:11:29.999Z</time></trkpt><trkpt lat="40.7842577" lon="-3.6894001"><ele>838.0</ele><time>2026-04-10T08:11:30.999Z</time></trkpt><trkpt lat="40.7842677" lon="-3.6892897"><ele>837.8333333333333</ele><time>2026-04-10T08:11:31.998Z</time></trkpt><trkpt lat="40.784268" lon="-3.6891811"><ele>837.6666666666666</ele><time>2026-04-10T08:11:32.999Z</time></trkpt><trkpt lat="40.7842634" lon="-3.6890743"><ele>837.5</ele><time>2026-04-10T08:11:33.998Z</time></trkpt><trkpt lat="40.7842596" lon="-3.6889627"><ele>837.3333333333333</ele><time>2026-04-10T08:11:34.999Z</time></trkpt><trkpt lat="40.7842599" lon="-3.6888509"><ele>837.1666666666666</ele><time>2026-04-10T08:11:35.999Z</time></trkpt><trkpt lat="40.7842568" lon="-3.6887418"><ele>837.0</ele><time>2026-04-10T08:11:36.998Z</time></trkpt><trkpt lat="40.7842548" lon="-3.6886345"><ele>836.6666666666666</ele><time>2026-04-10T08:11:37.999Z</time></trkpt><trkpt lat="40.7842504" lon="-3.6885163"><ele>836.3333333333333</ele><time>2026-04-10T08:11:38.999Z</time></trkpt><trkpt lat="40.7842498" lon="-3.6883941"><ele>836.0</ele><time>2026-04-10T08:11:39.999Z</time></trkpt><trkpt lat="40.7842485" lon="-3.6882882"><ele>835.6666666666666</ele><time>2026-04-10T08:11:40.999Z</time></trkpt><trkpt lat="40.7842367" lon="-3.6881797"><ele>835.3333333333333</ele><time>2026-04-10T08:11:42.999Z</time></trkpt><trkpt lat="40.7842299" lon="-3.6880715"><ele>835.0</ele><time>2026-04-10T08:11:44.999Z</time></trkpt><trkpt lat="40.784239" lon="-3.6879818"><ele>835.0</ele><time>2026-04-10T08:11:45.999Z</time></trkpt><trkpt lat="40.7842424" lon="-3.6878921"><ele>835.0</ele><time>2026-04-10T08:11:46.999Z</time></trkpt><trkpt lat="40.7842124" lon="-3.6877719"><ele>835.0</ele><time>2026-04-10T08:11:48.999Z</time></trkpt><trkpt lat="40.7841187" lon="-3.6877317"><ele>835.0</ele><time>2026-04-10T08:11:50.999Z</time></trkpt><trkpt lat="40.7839975" lon="-3.6877589"><ele>835.0</ele><time>2026-04-10T08:11:52.999Z</time></trkpt><trkpt lat="40.7838949" lon="-3.687689"><ele>835.0</ele><time>2026-04-10T08:11:54.999Z</time></trkpt><trkpt lat="40.7838413" lon="-3.6876047"><ele>835.0</ele><time>2026-04-10T08:11:55.999Z</time></trkpt><trkpt lat="40.7837854" lon="-3.6874917"><ele>835.0</ele><time>2026-04-10T08:11:56.999Z</time></trkpt><trkpt lat="40.7837172" lon="-3.6873754"><ele>835.0</ele><time>2026-04-10T08:11:57.998Z</time></trkpt><trkpt lat="40.7836578" lon="-3.6872658"><ele>835.0</ele><time>2026-04-10T08:11:58.999Z</time></trkpt><trkpt lat="40.783602" lon="-3.687159"><ele>834.9999999999999</ele><time>2026-04-10T08:11:59.999Z</time></trkpt><trkpt lat="40.7835487" lon="-3.6870561"><ele>835.0</ele><time>2026-04-10T08:12:00.999Z</time></trkpt><trkpt lat="40.7834918" lon="-3.686955"><ele>835.0</ele><time>2026-04-10T08:12:01.999Z</time></trkpt><trkpt lat="40.7834398" lon="-3.686858"><ele>835.0</ele><time>2026-04-10T08:12:02.999Z</time></trkpt><trkpt lat="40.7833852" lon="-3.6867694"><ele>834.9999999999999</ele><time>2026-04-10T08:12:03.999Z</time></trkpt><trkpt lat="40.7833375" lon="-3.6866813"><ele>835.0</ele><time>2026-04-10T08:12:04.999Z</time></trkpt><trkpt lat="40.7832902" lon="-3.6865941"><ele>834.9999999999999</ele><time>2026-04-10T08:12:05.998Z</time></trkpt><trkpt lat="40.7832451" lon="-3.6865122"><ele>835.0</ele><time>2026-04-10T08:12:06.999Z</time></trkpt><trkpt lat="40.7831998" lon="-3.6864204"><ele>835.0</ele><time>2026-04-10T08:12:07.998Z</time></trkpt><trkpt lat="40.7831509" lon="-3.6863222"><ele>835.0</ele><time>2026-04-10T08:12:08.999Z</time></trkpt><trkpt lat="40.7831012" lon="-3.6862139"><ele>834.9999999999999</ele><time>2026-04-10T08:12:09.999Z</time></trkpt><trkpt lat="40.7830471" lon="-3.6860955"><ele>835.0</ele><time>2026-04-10T08:12:10.999Z</time></trkpt><trkpt lat="40.7829913" lon="-3.6859708"><ele>834.8</ele><time>2026-04-10T08:12:11.999Z</time></trkpt><trkpt lat="40.7829381" lon="-3.6858421"><ele>834.6</ele><time>2026-04-10T08:12:12.999Z</time></trkpt><trkpt lat="40.7828924" lon="-3.6857195"><ele>834.4000000000001</ele><time>2026-04-10T08:12:13.999Z</time></trkpt><trkpt lat="40.7828485" lon="-3.6856102"><ele>834.2</ele><time>2026-04-10T08:12:14.999Z</time></trkpt><trkpt lat="40.782812" lon="-3.6855039"><ele>834.0</ele><time>2026-04-10T08:12:15.999Z</time></trkpt><trkpt lat="40.7827752" lon="-3.6854034"><ele>834.0</ele><time>2026-04-10T08:12:16.999Z</time></trkpt><trkpt lat="40.7827403" lon="-3.6853162"><ele>834.0</ele><time>2026-04-10T08:12:17.999Z</time></trkpt><trkpt lat="40.7827051" lon="-3.6852394"><ele>834.0</ele><time>2026-04-10T08:12:18.999Z</time></trkpt><trkpt lat="40.7826703" lon="-3.6851545"><ele>834.0</ele><time>2026-04-10T08:12:19.999Z</time></trkpt><trkpt lat="40.7826346" lon="-3.6850604"><ele>834.0</ele><time>2026-04-10T08:12:20.999Z</time></trkpt><trkpt lat="40.7826008" lon="-3.6849632"><ele>834.0</ele><time>2026-04-10T08:12:21.999Z</time></trkpt><trkpt lat="40.7825676" lon="-3.6848788"><ele>834.0</ele><time>2026-04-10T08:12:22.999Z</time></trkpt><trkpt lat="40.7825305" lon="-3.6848001"><ele>834.0</ele><time>2026-04-10T08:12:23.999Z</time></trkpt><trkpt lat="40.7824906" lon="-3.6847134"><ele>834.0</ele><time>2026-04-10T08:12:24.999Z</time></trkpt><trkpt lat="40.7824559" lon="-3.6846227"><ele>834.0</ele><time>2026-04-10T08:12:25.999Z</time></trkpt><trkpt lat="40.7824261" lon="-3.6845364"><ele>834.0</ele><time>2026-04-10T08:12:26.999Z</time></trkpt><trkpt lat="40.7823988" lon="-3.6844496"><ele>834.0</ele><time>2026-04-10T08:12:27.998Z</time></trkpt><trkpt lat="40.7823608" lon="-3.6843577"><ele>834.0</ele><time>2026-04-10T08:12:28.999Z</time></trkpt><trkpt lat="40.7823241" lon="-3.6842667"><ele>834.0</ele><time>2026-04-10T08:12:29.999Z</time></trkpt><trkpt lat="40.7822825" lon="-3.6841714"><ele>834.0</ele><time>2026-04-10T08:12:30.999Z</time></trkpt><trkpt lat="40.7822373" lon="-3.6840775"><ele>834.0</ele><time>2026-04-10T08:12:31.999Z</time></trkpt><trkpt lat="40.7821877" lon="-3.6839862"><ele>834.0</ele><time>2026-04-10T08:12:32.998Z</time></trkpt><trkpt lat="40.7821269" lon="-3.683883"><ele>834.0</ele><time>2026-04-10T08:12:33.999Z</time></trkpt><trkpt lat="40.7820609" lon="-3.6837794"><ele>834.0</ele><time>2026-04-10T08:12:34.999Z</time></trkpt><trkpt lat="40.7819812" lon="-3.6836783"><ele>834.0</ele><time>2026-04-10T08:12:35.999Z</time></trkpt><trkpt lat="40.7818964" lon="-3.683578"><ele>834.0</ele><time>2026-04-10T08:12:36.999Z</time></trkpt><trkpt lat="40.7818101" lon="-3.683482"><ele>834.0</ele><time>2026-04-10T08:12:37.999Z</time></trkpt><trkpt lat="40.7817249" lon="-3.6833796"><ele>834.0</ele><time>2026-04-10T08:12:38.999Z</time></trkpt><trkpt lat="40.7816395" lon="-3.6832722"><ele>834.0</ele><time>2026-04-10T08:12:39.998Z</time></trkpt><trkpt lat="40.7815569" lon="-3.6831593"><ele>834.0</ele><time>2026-04-10T08:12:40.999Z</time></trkpt><trkpt lat="40.7814776" lon="-3.6830489"><ele>834.0</ele><time>2026-04-10T08:12:41.998Z</time></trkpt><trkpt lat="40.7814024" lon="-3.682946"><ele>834.0</ele><time>2026-04-10T08:12:42.998Z</time></trkpt><trkpt lat="40.7813356" lon="-3.6828499"><ele>834.0</ele><time>2026-04-10T08:12:43.999Z</time></trkpt><trkpt lat="40.7812786" lon="-3.6827425"><ele>834.0</ele><time>2026-04-10T08:12:44.999Z</time></trkpt><trkpt lat="40.7812352" lon="-3.6826319"><ele>834.0</ele><time>2026-04-10T08:12:45.999Z</time></trkpt><trkpt lat="40.7812117" lon="-3.6824948"><ele>834.0</ele><time>2026-04-10T08:12:46.999Z</time></trkpt><trkpt lat="40.7812018" lon="-3.6823592"><ele>834.0</ele><time>2026-04-10T08:12:47.999Z</time></trkpt><trkpt lat="40.7811913" lon="-3.6822105"><ele>834.0</ele><time>2026-04-10T08:12:48.999Z</time></trkpt><trkpt lat="40.7811785" lon="-3.682062"><ele>834.0</ele><time>2026-04-10T08:12:49.999Z</time></trkpt><trkpt lat="40.78117" lon="-3.6819206"><ele>834.0</ele><time>2026-04-10T08:12:50.999Z</time></trkpt><trkpt lat="40.7811682" lon="-3.6817711"><ele>834.0</ele><time>2026-04-10T08:12:51.999Z</time></trkpt><trkpt lat="40.7811613" lon="-3.6816159"><ele>834.0</ele><time>2026-04-10T08:12:52.999Z</time></trkpt><trkpt lat="40.7811546" lon="-3.6814694"><ele>834.0</ele><time>2026-04-10T08:12:53.999Z</time></trkpt><trkpt lat="40.7811517" lon="-3.6813288"><ele>834.0</ele><time>2026-04-10T08:12:54.999Z</time></trkpt><trkpt lat="40.7811463" lon="-3.6811943"><ele>834.0</ele><time>2026-04-10T08:12:55.999Z</time></trkpt><trkpt lat="40.7811387" lon="-3.6810589"><ele>834.0</ele><time>2026-04-10T08:12:56.998Z</time></trkpt><trkpt lat="40.7811292" lon="-3.6809195"><ele>833.6</ele><time>2026-04-10T08:12:57.998Z</time></trkpt><trkpt lat="40.7811165" lon="-3.6807781"><ele>833.2</ele><time>2026-04-10T08:12:58.999Z</time></trkpt><trkpt lat="40.7811047" lon="-3.6806361"><ele>832.8000000000001</ele><time>2026-04-10T08:12:59.998Z</time></trkpt><trkpt lat="40.7810951" lon="-3.6804884"><ele>832.4000000000001</ele><time>2026-04-10T08:13:00.998Z</time></trkpt><trkpt lat="40.7810871" lon="-3.6803364"><ele>832.0</ele><time>2026-04-10T08:13:01.999Z</time></trkpt><trkpt lat="40.7810762" lon="-3.6801791"><ele>831.25</ele><time>2026-04-10T08:13:02.998Z</time></trkpt><trkpt lat="40.7810685" lon="-3.6800271"><ele>830.5</ele><time>2026-04-10T08:13:03.998Z</time></trkpt><trkpt lat="40.7810612" lon="-3.6798726"><ele>829.75</ele><time>2026-04-10T08:13:04.999Z</time></trkpt><trkpt lat="40.7810607" lon="-3.6797155"><ele>829.0</ele><time>2026-04-10T08:13:05.999Z</time></trkpt><trkpt lat="40.7810575" lon="-3.6795609"><ele>828.75</ele><time>2026-04-10T08:13:06.999Z</time></trkpt><trkpt lat="40.7810487" lon="-3.6794081"><ele>828.5</ele><time>2026-04-10T08:13:07.999Z</time></trkpt><trkpt lat="40.7810454" lon="-3.6792619"><ele>828.25</ele><time>2026-04-10T08:13:08.999Z</time></trkpt><trkpt lat="40.7810433" lon="-3.679114"><ele>828.0</ele><time>2026-04-10T08:13:09.999Z</time></trkpt><trkpt lat="40.7810338" lon="-3.6789626"><ele>828.0</ele><time>2026-04-10T08:13:10.998Z</time></trkpt><trkpt lat="40.7810307" lon="-3.6788128"><ele>828.0</ele><time>2026-04-10T08:13:11.999Z</time></trkpt><trkpt lat="40.7810223" lon="-3.6786644"><ele>828.0</ele><time>2026-04-10T08:13:12.999Z</time></trkpt><trkpt lat="40.7810065" lon="-3.6785168"><ele>828.0</ele><time>2026-04-10T08:13:13.999Z</time></trkpt><trkpt lat="40.7809887" lon="-3.6783837"><ele>828.0</ele><time>2026-04-10T08:13:14.999Z</time></trkpt><trkpt lat="40.7809753" lon="-3.6782505"><ele>829.5999999999999</ele><time>2026-04-10T08:13:15.999Z</time></trkpt><trkpt lat="40.7809618" lon="-3.6781229"><ele>831.1999999999999</ele><time>2026-04-10T08:13:16.999Z</time></trkpt><trkpt lat="40.7809459" lon="-3.6779883"><ele>832.8</ele><time>2026-04-10T08:13:17.999Z</time></trkpt><trkpt lat="40.780925" lon="-3.6778569"><ele>834.4</ele><time>2026-04-10T08:13:18.999Z</time></trkpt><trkpt lat="40.7809097" lon="-3.6777251"><ele>836.0</ele><time>2026-04-10T08:13:19.998Z</time></trkpt><trkpt lat="40.7808895" lon="-3.6775934"><ele>836.0</ele><time>2026-04-10T08:13:20.999Z</time></trkpt><trkpt lat="40.7808675" lon="-3.6774654"><ele>836.0</ele><time>2026-04-10T08:13:21.999Z</time></trkpt><trkpt lat="40.7808466" lon="-3.6773336"><ele>836.0</ele><time>2026-04-10T08:13:22.999Z</time></trkpt><trkpt lat="40.7808259" lon="-3.6771951"><ele>836.0</ele><time>2026-04-10T08:13:23.999Z</time></trkpt><trkpt lat="40.7808048" lon="-3.6770465"><ele>836.0</ele><time>2026-04-10T08:13:24.999Z</time></trkpt><trkpt lat="40.7807841" lon="-3.6768952"><ele>835.0</ele><time>2026-04-10T08:13:25.999Z</time></trkpt><trkpt lat="40.7807591" lon="-3.6767458"><ele>834.0</ele><time>2026-04-10T08:13:26.999Z</time></trkpt><trkpt lat="40.7807339" lon="-3.6765897"><ele>833.0</ele><time>2026-04-10T08:13:27.999Z</time></trkpt><trkpt lat="40.7806974" lon="-3.6764372"><ele>832.0</ele><time>2026-04-10T08:13:28.999Z</time></trkpt><trkpt lat="40.7806577" lon="-3.6762899"><ele>832.0</ele><time>2026-04-10T08:13:29.999Z</time></trkpt><trkpt lat="40.7806097" lon="-3.6761412"><ele>832.0</ele><time>2026-04-10T08:13:30.999Z</time></trkpt><trkpt lat="40.7805609" lon="-3.6759858"><ele>832.0</ele><time>2026-04-10T08:13:31.999Z</time></trkpt><trkpt lat="40.7805104" lon="-3.6758375"><ele>832.0</ele><time>2026-04-10T08:13:32.999Z</time></trkpt><trkpt lat="40.7804659" lon="-3.6756901"><ele>831.0</ele><time>2026-04-10T08:13:33.999Z</time></trkpt><trkpt lat="40.7804162" lon="-3.6755462"><ele>830.0</ele><time>2026-04-10T08:13:34.999Z</time></trkpt><trkpt lat="40.7803681" lon="-3.6754055"><ele>829.0</ele><time>2026-04-10T08:13:35.998Z</time></trkpt><trkpt lat="40.7803143" lon="-3.6752534"><ele>828.0</ele><time>2026-04-10T08:13:36.999Z</time></trkpt><trkpt lat="40.7802641" lon="-3.6750925"><ele>828.0</ele><time>2026-04-10T08:13:37.999Z</time></trkpt><trkpt lat="40.7802172" lon="-3.6749412"><ele>828.0</ele><time>2026-04-10T08:13:38.999Z</time></trkpt><trkpt lat="40.7801581" lon="-3.6747878"><ele>828.0</ele><time>2026-04-10T08:13:39.999Z</time></trkpt><trkpt lat="40.7801035" lon="-3.6746428"><ele>828.0</ele><time>2026-04-10T08:13:40.999Z</time></trkpt><trkpt lat="40.7800567" lon="-3.6744904"><ele>829.0</ele><time>2026-04-10T08:13:41.999Z</time></trkpt><trkpt lat="40.7800099" lon="-3.6743286"><ele>830.0</ele><time>2026-04-10T08:13:42.999Z</time></trkpt><trkpt lat="40.7799584" lon="-3.6741674"><ele>831.0</ele><time>2026-04-10T08:13:43.999Z</time></trkpt><trkpt lat="40.7799109" lon="-3.6740125"><ele>832.0</ele><time>2026-04-10T08:13:44.999Z</time></trkpt><trkpt lat="40.779861" lon="-3.6738601"><ele>832.0</ele><time>2026-04-10T08:13:45.999Z</time></trkpt><trkpt lat="40.7798121" lon="-3.6737094"><ele>832.0</ele><time>2026-04-10T08:13:46.999Z</time></trkpt><trkpt lat="40.7797679" lon="-3.673557"><ele>832.0</ele><time>2026-04-10T08:13:47.999Z</time></trkpt><trkpt lat="40.7797195" lon="-3.6734032"><ele>832.0</ele><time>2026-04-10T08:13:48.999Z</time></trkpt><trkpt lat="40.7796637" lon="-3.6732555"><ele>832.25</ele><time>2026-04-10T08:13:49.999Z</time></trkpt><trkpt lat="40.7795964" lon="-3.6731184"><ele>832.5</ele><time>2026-04-10T08:13:50.999Z</time></trkpt><trkpt lat="40.779515" lon="-3.67299"><ele>832.75</ele><time>2026-04-10T08:13:51.999Z</time></trkpt><trkpt lat="40.7794248" lon="-3.6728746"><ele>833.0</ele><time>2026-04-10T08:13:52.999Z</time></trkpt><trkpt lat="40.7793403" lon="-3.6727598"><ele>833.0</ele><time>2026-04-10T08:13:53.998Z</time></trkpt><trkpt lat="40.7792689" lon="-3.6726483"><ele>833.0</ele><time>2026-04-10T08:13:54.999Z</time></trkpt><trkpt lat="40.7792038" lon="-3.6725434"><ele>833.0</ele><time>2026-04-10T08:13:55.999Z</time></trkpt><trkpt lat="40.7791487" lon="-3.6724312"><ele>833.0</ele><time>2026-04-10T08:13:56.999Z</time></trkpt><trkpt lat="40.7790972" lon="-3.6723075"><ele>833.0</ele><time>2026-04-10T08:13:57.999Z</time></trkpt><trkpt lat="40.7790449" lon="-3.6721919"><ele>833.0000000000001</ele><time>2026-04-10T08:13:58.998Z</time></trkpt><trkpt lat="40.7790008" lon="-3.6720927"><ele>833.0</ele><time>2026-04-10T08:13:59.999Z</time></trkpt><trkpt lat="40.7789596" lon="-3.6719999"><ele>833.0</ele><time>2026-04-10T08:14:00.999Z</time></trkpt><trkpt lat="40.7789152" lon="-3.6719037"><ele>833.0</ele><time>2026-04-10T08:14:01.999Z</time></trkpt><trkpt lat="40.778873" lon="-3.6718093"><ele>833.0000000000001</ele><time>2026-04-10T08:14:02.999Z</time></trkpt><trkpt lat="40.7788203" lon="-3.6716948"><ele>833.0</ele><time>2026-04-10T08:14:03.999Z</time></trkpt><trkpt lat="40.7787557" lon="-3.6715616"><ele>833.0</ele><time>2026-04-10T08:14:04.999Z</time></trkpt><trkpt lat="40.7786877" lon="-3.6714287"><ele>833.0</ele><time>2026-04-10T08:14:05.999Z</time></trkpt><trkpt lat="40.7786153" lon="-3.6712867"><ele>833.0</ele><time>2026-04-10T08:14:06.999Z</time></trkpt><trkpt lat="40.7785457" lon="-3.6711446"><ele>833.0</ele><time>2026-04-10T08:14:07.999Z</time></trkpt><trkpt lat="40.7784804" lon="-3.67102"><ele>833.0</ele><time>2026-04-10T08:14:08.999Z</time></trkpt><trkpt lat="40.7784118" lon="-3.6709034"><ele>833.0</ele><time>2026-04-10T08:14:09.999Z</time></trkpt><trkpt lat="40.7783453" lon="-3.6707789"><ele>833.0</ele><time>2026-04-10T08:14:10.999Z</time></trkpt><trkpt lat="40.7782793" lon="-3.6706493"><ele>833.0</ele><time>2026-04-10T08:14:11.999Z</time></trkpt><trkpt lat="40.7782119" lon="-3.670521"><ele>833.0</ele><time>2026-04-10T08:14:12.999Z</time></trkpt><trkpt lat="40.7781447" lon="-3.670393"><ele>833.0</ele><time>2026-04-10T08:14:13.999Z</time></trkpt><trkpt lat="40.7780841" lon="-3.6702683"><ele>833.0</ele><time>2026-04-10T08:14:14.998Z</time></trkpt><trkpt lat="40.7780231" lon="-3.670149"><ele>833.0</ele><time>2026-04-10T08:14:15.999Z</time></trkpt><trkpt lat="40.7779622" lon="-3.670029"><ele>833.0</ele><time>2026-04-10T08:14:16.999Z</time></trkpt><trkpt lat="40.7779084" lon="-3.6699051"><ele>833.0</ele><time>2026-04-10T08:14:17.999Z</time></trkpt><trkpt lat="40.7778565" lon="-3.669785"><ele>833.0</ele><time>2026-04-10T08:14:18.999Z</time></trkpt><trkpt lat="40.7778143" lon="-3.6696705"><ele>833.0</ele><time>2026-04-10T08:14:19.999Z</time></trkpt><trkpt lat="40.7777672" lon="-3.6695522"><ele>833.0</ele><time>2026-04-10T08:14:20.999Z</time></trkpt><trkpt lat="40.7777227" lon="-3.6694381"><ele>833.0</ele><time>2026-04-10T08:14:21.999Z</time></trkpt><trkpt lat="40.7776767" lon="-3.6693259"><ele>833.0</ele><time>2026-04-10T08:14:22.999Z</time></trkpt><trkpt lat="40.7776317" lon="-3.6692195"><ele>833.0</ele><time>2026-04-10T08:14:23.999Z</time></trkpt><trkpt lat="40.777587" lon="-3.6691084"><ele>833.0</ele><time>2026-04-10T08:14:24.999Z</time></trkpt><trkpt lat="40.7775396" lon="-3.668989"><ele>833.0</ele><time>2026-04-10T08:14:25.999Z</time></trkpt><trkpt lat="40.7774924" lon="-3.6688639"><ele>833.0</ele><time>2026-04-10T08:14:26.999Z</time></trkpt><trkpt lat="40.7774468" lon="-3.6687387"><ele>832.4</ele><time>2026-04-10T08:14:27.999Z</time></trkpt><trkpt lat="40.7774068" lon="-3.668608"><ele>831.8</ele><time>2026-04-10T08:14:28.999Z</time></trkpt><trkpt lat="40.7773693" lon="-3.6684769"><ele>831.2</ele><time>2026-04-10T08:14:29.999Z</time></trkpt><trkpt lat="40.7773312" lon="-3.6683397"><ele>830.6</ele><time>2026-04-10T08:14:30.999Z</time></trkpt><trkpt lat="40.7772972" lon="-3.6682084"><ele>830.0</ele><time>2026-04-10T08:14:31.999Z</time></trkpt><trkpt lat="40.7772722" lon="-3.6680712"><ele>830.0</ele><time>2026-04-10T08:14:32.999Z</time></trkpt><trkpt lat="40.7772518" lon="-3.6679209"><ele>830.0</ele><time>2026-04-10T08:14:33.999Z</time></trkpt><trkpt lat="40.7772385" lon="-3.667776"><ele>830.0</ele><time>2026-04-10T08:14:34.999Z</time></trkpt><trkpt lat="40.7772265" lon="-3.6676448"><ele>830.0</ele><time>2026-04-10T08:14:35.999Z</time></trkpt><trkpt lat="40.7772115" lon="-3.6675144"><ele>830.0</ele><time>2026-04-10T08:14:36.999Z</time></trkpt><trkpt lat="40.7771844" lon="-3.6673908"><ele>829.5000000000001</ele><time>2026-04-10T08:14:37.999Z</time></trkpt><trkpt lat="40.777143" lon="-3.6672664"><ele>829.0</ele><time>2026-04-10T08:14:38.999Z</time></trkpt><trkpt lat="40.7771011" lon="-3.6671478"><ele>828.5</ele><time>2026-04-10T08:14:39.998Z</time></trkpt><trkpt lat="40.777066" lon="-3.6670367"><ele>828.0</ele><time>2026-04-10T08:14:40.998Z</time></trkpt><trkpt lat="40.7770374" lon="-3.666936"><ele>827.5000000000001</ele><time>2026-04-10T08:14:41.999Z</time></trkpt><trkpt lat="40.7770192" lon="-3.6668405"><ele>827.0</ele><time>2026-04-10T08:14:42.999Z</time></trkpt><trkpt lat="40.7770047" lon="-3.6667473"><ele>826.6666666666667</ele><time>2026-04-10T08:14:43.999Z</time></trkpt><trkpt lat="40.7769811" lon="-3.6666454"><ele>826.3333333333334</ele><time>2026-04-10T08:14:44.999Z</time></trkpt><trkpt lat="40.7769614" lon="-3.6665467"><ele>826.0</ele><time>2026-04-10T08:14:45.999Z</time></trkpt><trkpt lat="40.7769281" lon="-3.6664362"><ele>825.6666666666667</ele><time>2026-04-10T08:14:46.999Z</time></trkpt><trkpt lat="40.7768942" lon="-3.666326"><ele>825.3333333333334</ele><time>2026-04-10T08:14:47.999Z</time></trkpt><trkpt lat="40.7768633" lon="-3.6662077"><ele>825.0</ele><time>2026-04-10T08:14:48.999Z</time></trkpt><trkpt lat="40.7768378" lon="-3.6660857"><ele>826.6</ele><time>2026-04-10T08:14:49.999Z</time></trkpt><trkpt lat="40.7768264" lon="-3.6659696"><ele>828.2</ele><time>2026-04-10T08:14:50.999Z</time></trkpt><trkpt lat="40.7768197" lon="-3.6658533"><ele>829.8</ele><time>2026-04-10T08:14:51.999Z</time></trkpt><trkpt lat="40.7768081" lon="-3.6657368"><ele>831.4</ele><time>2026-04-10T08:14:52.999Z</time></trkpt><trkpt lat="40.7767886" lon="-3.6656133"><ele>833.0</ele><time>2026-04-10T08:14:53.999Z</time></trkpt><trkpt lat="40.7767554" lon="-3.665481"><ele>833.0</ele><time>2026-04-10T08:14:54.998Z</time></trkpt><trkpt lat="40.7767173" lon="-3.6653588"><ele>833.0</ele><time>2026-04-10T08:14:55.999Z</time></trkpt><trkpt lat="40.7766718" lon="-3.6652372"><ele>833.0</ele><time>2026-04-10T08:14:56.999Z</time></trkpt><trkpt lat="40.7766182" lon="-3.6651133"><ele>833.0</ele><time>2026-04-10T08:14:57.999Z</time></trkpt><trkpt lat="40.7765606" lon="-3.6649811"><ele>833.0</ele><time>2026-04-10T08:14:58.999Z</time></trkpt><trkpt lat="40.7765081" lon="-3.66485"><ele>832.5999999999999</ele><time>2026-04-10T08:14:59.999Z</time></trkpt><trkpt lat="40.7764554" lon="-3.6647173"><ele>832.1999999999999</ele><time>2026-04-10T08:15:00.999Z</time></trkpt><trkpt lat="40.7764032" lon="-3.6645836"><ele>831.8</ele><time>2026-04-10T08:15:01.999Z</time></trkpt><trkpt lat="40.7763617" lon="-3.664457"><ele>831.4</ele><time>2026-04-10T08:15:02.999Z</time></trkpt><trkpt lat="40.7763243" lon="-3.6643375"><ele>831.0</ele><time>2026-04-10T08:15:03.999Z</time></trkpt><trkpt lat="40.7762851" lon="-3.6642237"><ele>830.5</ele><time>2026-04-10T08:15:04.999Z</time></trkpt><trkpt lat="40.77625" lon="-3.6641231"><ele>830.0</ele><time>2026-04-10T08:15:05.999Z</time></trkpt><trkpt lat="40.776204" lon="-3.6640299"><ele>829.5</ele><time>2026-04-10T08:15:06.999Z</time></trkpt><trkpt lat="40.7761484" lon="-3.6639326"><ele>829.0</ele><time>2026-04-10T08:15:07.999Z</time></trkpt><trkpt lat="40.776092" lon="-3.6638326"><ele>828.5</ele><time>2026-04-10T08:15:08.998Z</time></trkpt><trkpt lat="40.7760448" lon="-3.6637406"><ele>828.0</ele><time>2026-04-10T08:15:09.999Z</time></trkpt><trkpt lat="40.7759956" lon="-3.6636536"><ele>828.1666666666666</ele><time>2026-04-10T08:15:10.999Z</time></trkpt><trkpt lat="40.7759365" lon="-3.6635728"><ele>828.3333333333333</ele><time>2026-04-10T08:15:11.998Z</time></trkpt><trkpt lat="40.7758699" lon="-3.6634925"><ele>828.5</ele><time>2026-04-10T08:15:12.999Z</time></trkpt><trkpt lat="40.7758119" lon="-3.6634182"><ele>828.6666666666666</ele><time>2026-04-10T08:15:13.999Z</time></trkpt><trkpt lat="40.7757532" lon="-3.6633488"><ele>828.8333333333333</ele><time>2026-04-10T08:15:14.999Z</time></trkpt><trkpt lat="40.7756946" lon="-3.66328"><ele>829.0</ele><time>2026-04-10T08:15:15.999Z</time></trkpt><trkpt lat="40.7756347" lon="-3.6632095"><ele>829.0</ele><time>2026-04-10T08:15:16.998Z</time></trkpt><trkpt lat="40.7755693" lon="-3.6631291"><ele>829.0</ele><time>2026-04-10T08:15:17.999Z</time></trkpt><trkpt lat="40.7755029" lon="-3.6630522"><ele>829.0</ele><time>2026-04-10T08:15:18.999Z</time></trkpt><trkpt lat="40.7754346" lon="-3.6629628"><ele>829.0</ele><time>2026-04-10T08:15:19.999Z</time></trkpt><trkpt lat="40.775367" lon="-3.6628722"><ele>829.0</ele><time>2026-04-10T08:15:20.999Z</time></trkpt><trkpt lat="40.7753053" lon="-3.6627859"><ele>828.1666666666666</ele><time>2026-04-10T08:15:21.999Z</time></trkpt><trkpt lat="40.7752443" lon="-3.6627018"><ele>827.3333333333333</ele><time>2026-04-10T08:15:22.999Z</time></trkpt><trkpt lat="40.7751845" lon="-3.6626181"><ele>826.5</ele><time>2026-04-10T08:15:23.999Z</time></trkpt><trkpt lat="40.7751233" lon="-3.6625218"><ele>825.6666666666667</ele><time>2026-04-10T08:15:24.999Z</time></trkpt><trkpt lat="40.7750647" lon="-3.662436"><ele>824.8333333333334</ele><time>2026-04-10T08:15:25.999Z</time></trkpt><trkpt lat="40.7750126" lon="-3.6623459"><ele>824.0</ele><time>2026-04-10T08:15:26.999Z</time></trkpt><trkpt lat="40.7749631" lon="-3.6622623"><ele>824.1666666666667</ele><time>2026-04-10T08:15:27.999Z</time></trkpt><trkpt lat="40.7749162" lon="-3.6621832"><ele>824.3333333333334</ele><time>2026-04-10T08:15:28.998Z</time></trkpt><trkpt lat="40.774872" lon="-3.6621032"><ele>824.5</ele><time>2026-04-10T08:15:29.999Z</time></trkpt><trkpt lat="40.7748266" lon="-3.6620127"><ele>824.6666666666667</ele><time>2026-04-10T08:15:30.999Z</time></trkpt><trkpt lat="40.7747801" lon="-3.66192"><ele>824.8333333333334</ele><time>2026-04-10T08:15:31.999Z</time></trkpt><trkpt lat="40.7747322" lon="-3.6618315"><ele>825.0</ele><time>2026-04-10T08:15:32.999Z</time></trkpt><trkpt lat="40.7746859" lon="-3.6617453"><ele>825.0</ele><time>2026-04-10T08:15:33.999Z</time></trkpt><trkpt lat="40.7746398" lon="-3.6616605"><ele>825.0</ele><time>2026-04-10T08:15:34.999Z</time></trkpt><trkpt lat="40.7745899" lon="-3.6615751"><ele>825.0</ele><time>2026-04-10T08:15:35.998Z</time></trkpt><trkpt lat="40.7745349" lon="-3.6614803"><ele>825.0</ele><time>2026-04-10T08:15:36.999Z</time></trkpt><trkpt lat="40.7744879" lon="-3.6613788"><ele>825.0</ele><time>2026-04-10T08:15:37.999Z</time></trkpt><trkpt lat="40.7744535" lon="-3.6612803"><ele>825.0</ele><time>2026-04-10T08:15:38.998Z</time></trkpt><trkpt lat="40.7744388" lon="-3.6611778"><ele>824.3333333333334</ele><time>2026-04-10T08:15:39.999Z</time></trkpt><trkpt lat="40.7744338" lon="-3.6610722"><ele>823.6666666666667</ele><time>2026-04-10T08:15:40.999Z</time></trkpt><trkpt lat="40.7744309" lon="-3.6609708"><ele>823.0</ele><time>2026-04-10T08:15:41.999Z</time></trkpt><trkpt lat="40.7744165" lon="-3.6608811"><ele>822.3333333333334</ele><time>2026-04-10T08:15:42.999Z</time></trkpt><trkpt lat="40.7743983" lon="-3.6607997"><ele>821.6666666666667</ele><time>2026-04-10T08:15:43.999Z</time></trkpt><trkpt lat="40.7743141" lon="-3.6606734"><ele>821.0</ele><time>2026-04-10T08:15:45.999Z</time></trkpt><trkpt lat="40.7742543" lon="-3.6606293"><ele>822.1428571428572</ele><time>2026-04-10T08:15:46.999Z</time></trkpt><trkpt lat="40.7741879" lon="-3.660601"><ele>823.2857142857143</ele><time>2026-04-10T08:15:47.999Z</time></trkpt><trkpt lat="40.7741127" lon="-3.6605833"><ele>824.4285714285714</ele><time>2026-04-10T08:15:48.999Z</time></trkpt><trkpt lat="40.7740439" lon="-3.6605626"><ele>825.5714285714287</ele><time>2026-04-10T08:15:49.999Z</time></trkpt><trkpt lat="40.7739744" lon="-3.6605334"><ele>826.7142857142857</ele><time>2026-04-10T08:15:50.998Z</time></trkpt><trkpt lat="40.773902" lon="-3.6604962"><ele>827.8571428571429</ele><time>2026-04-10T08:15:51.999Z</time></trkpt><trkpt lat="40.7738282" lon="-3.6604657"><ele>829.0</ele><time>2026-04-10T08:15:52.998Z</time></trkpt><trkpt lat="40.7737566" lon="-3.660435"><ele>828.9999999999999</ele><time>2026-04-10T08:15:53.999Z</time></trkpt><trkpt lat="40.7736819" lon="-3.6604071"><ele>829.0</ele><time>2026-04-10T08:15:54.999Z</time></trkpt><trkpt lat="40.7736065" lon="-3.6603754"><ele>829.0</ele><time>2026-04-10T08:15:55.999Z</time></trkpt><trkpt lat="40.7735335" lon="-3.6603312"><ele>829.0</ele><time>2026-04-10T08:15:56.999Z</time></trkpt><trkpt lat="40.7734604" lon="-3.6602847"><ele>828.9999999999999</ele><time>2026-04-10T08:15:57.999Z</time></trkpt><trkpt lat="40.7734016" lon="-3.6602376"><ele>829.0</ele><time>2026-04-10T08:15:58.999Z</time></trkpt><trkpt lat="40.7733034" lon="-3.6601556"><ele>828.8333333333333</ele><time>2026-04-10T08:16:00.999Z</time></trkpt><trkpt lat="40.7732348" lon="-3.6601043"><ele>828.6666666666666</ele><time>2026-04-10T08:16:03Z</time></trkpt><trkpt lat="40.7731768" lon="-3.6600478"><ele>828.5</ele><time>2026-04-10T08:17:00Z</time></trkpt><trkpt lat="40.7730816" lon="-3.6599654"><ele>828.3333333333333</ele><time>2026-04-10T08:17:02Z</time></trkpt><trkpt lat="40.7730279" lon="-3.6599102"><ele>828.1666666666666</ele><time>2026-04-10T08:17:03Z</time></trkpt><trkpt lat="40.7729791" lon="-3.6598512"><ele>828.0</ele><time>2026-04-10T08:17:04Z</time></trkpt><trkpt lat="40.7729289" lon="-3.659777"><ele>828.0</ele><time>2026-04-10T08:17:05Z</time></trkpt><trkpt lat="40.7728749" lon="-3.6597004"><ele>828.0</ele><time>2026-04-10T08:17:06Z</time></trkpt><trkpt lat="40.7728217" lon="-3.6596175"><ele>828.0</ele><time>2026-04-10T08:17:07Z</time></trkpt><trkpt lat="40.7727689" lon="-3.6595388"><ele>828.0</ele><time>2026-04-10T08:17:08Z</time></trkpt><trkpt lat="40.7727215" lon="-3.6594626"><ele>828.0</ele><time>2026-04-10T08:17:09Z</time></trkpt><trkpt lat="40.7726693" lon="-3.6593804"><ele>828.0</ele><time>2026-04-10T08:17:10Z</time></trkpt><trkpt lat="40.7726119" lon="-3.6592922"><ele>828.3333333333334</ele><time>2026-04-10T08:17:11Z</time></trkpt><trkpt lat="40.7725613" lon="-3.6592062"><ele>828.6666666666667</ele><time>2026-04-10T08:17:12Z</time></trkpt><trkpt lat="40.7725148" lon="-3.6591233"><ele>829.0</ele><time>2026-04-10T08:17:13Z</time></trkpt><trkpt lat="40.772471" lon="-3.6590462"><ele>829.3333333333334</ele><time>2026-04-10T08:17:14Z</time></trkpt><trkpt lat="40.7724362" lon="-3.6589645"><ele>829.6666666666667</ele><time>2026-04-10T08:17:15Z</time></trkpt><trkpt lat="40.7724005" lon="-3.658878"><ele>830.0</ele><time>2026-04-10T08:17:16Z</time></trkpt><trkpt lat="40.7723721" lon="-3.6587844"><ele>830.0000000000001</ele><time>2026-04-10T08:17:17Z</time></trkpt><trkpt lat="40.7723399" lon="-3.6586877"><ele>830.0</ele><time>2026-04-10T08:17:18Z</time></trkpt><trkpt lat="40.7722965" lon="-3.6585941"><ele>830.0</ele><time>2026-04-10T08:17:19Z</time></trkpt><trkpt lat="40.77225" lon="-3.6585146"><ele>830.0</ele><time>2026-04-10T08:17:20Z</time></trkpt><trkpt lat="40.7721952" lon="-3.6584431"><ele>830.0000000000001</ele><time>2026-04-10T08:17:21Z</time></trkpt><trkpt lat="40.7721412" lon="-3.6583835"><ele>830.0</ele><time>2026-04-10T08:17:22Z</time></trkpt><trkpt lat="40.7720758" lon="-3.6583465"><ele>829.5714285714286</ele><time>2026-04-10T08:17:23Z</time></trkpt><trkpt lat="40.7720026" lon="-3.6583359"><ele>829.1428571428571</ele><time>2026-04-10T08:17:24Z</time></trkpt><trkpt lat="40.7719331" lon="-3.6583269"><ele>828.7142857142858</ele><time>2026-04-10T08:17:25Z</time></trkpt><trkpt lat="40.7718552" lon="-3.658342"><ele>828.2857142857142</ele><time>2026-04-10T08:17:26Z</time></trkpt><trkpt lat="40.7717892" lon="-3.6583651"><ele>827.8571428571428</ele><time>2026-04-10T08:17:26.999Z</time></trkpt><trkpt lat="40.7717214" lon="-3.6583992"><ele>827.4285714285714</ele><time>2026-04-10T08:17:28Z</time></trkpt><trkpt lat="40.7716573" lon="-3.6584449"><ele>827.0</ele><time>2026-04-10T08:17:29Z</time></trkpt><trkpt lat="40.7715986" lon="-3.6584858"><ele>827.0000000000001</ele><time>2026-04-10T08:17:30Z</time></trkpt><trkpt lat="40.7715347" lon="-3.658534"><ele>827.0</ele><time>2026-04-10T08:17:31Z</time></trkpt><trkpt lat="40.7714739" lon="-3.6585933"><ele>827.0</ele><time>2026-04-10T08:17:32Z</time></trkpt><trkpt lat="40.77142" lon="-3.6586642"><ele>827.0</ele><time>2026-04-10T08:17:33Z</time></trkpt><trkpt lat="40.7713653" lon="-3.658743"><ele>827.0000000000001</ele><time>2026-04-10T08:17:34Z</time></trkpt><trkpt lat="40.7713064" lon="-3.6588248"><ele>827.0</ele><time>2026-04-10T08:17:35Z</time></trkpt><trkpt lat="40.7712369" lon="-3.658898"><ele>827.3333333333334</ele><time>2026-04-10T08:17:36Z</time></trkpt><trkpt lat="40.7711638" lon="-3.6589831"><ele>827.6666666666667</ele><time>2026-04-10T08:17:37Z</time></trkpt><trkpt lat="40.7710956" lon="-3.6590425"><ele>828.0</ele><time>2026-04-10T08:17:38Z</time></trkpt><trkpt lat="40.7710224" lon="-3.6591036"><ele>828.3333333333333</ele><time>2026-04-10T08:17:39Z</time></trkpt><trkpt lat="40.7709634" lon="-3.6591693"><ele>828.6666666666666</ele><time>2026-04-10T08:17:39.999Z</time></trkpt><trkpt lat="40.7709042" lon="-3.6592148"><ele>829.0</ele><time>2026-04-10T08:17:41Z</time></trkpt><trkpt lat="40.7708401" lon="-3.6592541"><ele>829.0</ele><time>2026-04-10T08:17:42Z</time></trkpt><trkpt lat="40.7707382" lon="-3.6593049"><ele>829.0</ele><time>2026-04-10T08:17:44Z</time></trkpt><trkpt lat="40.7706447" lon="-3.6593463"><ele>829.0</ele><time>2026-04-10T08:17:46Z</time></trkpt><trkpt lat="40.7705667" lon="-3.6593818"><ele>829.0</ele><time>2026-04-10T08:17:47.999Z</time></trkpt><trkpt lat="40.7704596" lon="-3.6594556"><ele>829.0</ele><time>2026-04-10T08:17:50Z</time></trkpt><trkpt lat="40.7704011" lon="-3.659501"><ele>828.8333333333333</ele><time>2026-04-10T08:17:51Z</time></trkpt><trkpt lat="40.7703403" lon="-3.6595473"><ele>828.6666666666666</ele><time>2026-04-10T08:17:52Z</time></trkpt><trkpt lat="40.7702757" lon="-3.6595948"><ele>828.5</ele><time>2026-04-10T08:17:53Z</time></trkpt><trkpt lat="40.7702105" lon="-3.6596539"><ele>828.3333333333333</ele><time>2026-04-10T08:17:54Z</time></trkpt><trkpt lat="40.7701433" lon="-3.6597208"><ele>828.1666666666666</ele><time>2026-04-10T08:17:55Z</time></trkpt><trkpt lat="40.7700772" lon="-3.6597862"><ele>828.0</ele><time>2026-04-10T08:17:55.999Z</time></trkpt><trkpt lat="40.7700291" lon="-3.6598589"><ele>828.0</ele><time>2026-04-10T08:17:57Z</time></trkpt><trkpt lat="40.7699882" lon="-3.6599345"><ele>828.0</ele><time>2026-04-10T08:17:57.999Z</time></trkpt><trkpt lat="40.7699571" lon="-3.6600145"><ele>828.0</ele><time>2026-04-10T08:17:59Z</time></trkpt><trkpt lat="40.7699099" lon="-3.6601619"><ele>828.0</ele><time>2026-04-10T08:18:01Z</time></trkpt><trkpt lat="40.7698893" lon="-3.6602524"><ele>828.0</ele><time>2026-04-10T08:18:02Z</time></trkpt><trkpt lat="40.7698835" lon="-3.6603489"><ele>828.0</ele><time>2026-04-10T08:18:03Z</time></trkpt><trkpt lat="40.7698793" lon="-3.660442"><ele>829.0</ele><time>2026-04-10T08:18:04Z</time></trkpt><trkpt lat="40.7698857" lon="-3.6605383"><ele>830.0</ele><time>2026-04-10T08:18:05Z</time></trkpt><trkpt lat="40.769896" lon="-3.6606322"><ele>831.0</ele><time>2026-04-10T08:18:05.999Z</time></trkpt><trkpt lat="40.7699089" lon="-3.6607318"><ele>832.0</ele><time>2026-04-10T08:18:07Z</time></trkpt><trkpt lat="40.7699215" lon="-3.6608359"><ele>833.0</ele><time>2026-04-10T08:18:08Z</time></trkpt><trkpt lat="40.7699335" lon="-3.6609465"><ele>834.0</ele><time>2026-04-10T08:18:09Z</time></trkpt><trkpt lat="40.7699289" lon="-3.6610578"><ele>835.2</ele><time>2026-04-10T08:18:10Z</time></trkpt><trkpt lat="40.7699106" lon="-3.6611635"><ele>836.4000000000001</ele><time>2026-04-10T08:18:11Z</time></trkpt><trkpt lat="40.7698807" lon="-3.6612807"><ele>837.6</ele><time>2026-04-10T08:18:12Z</time></trkpt><trkpt lat="40.7698336" lon="-3.6613885"><ele>838.8</ele><time>2026-04-10T08:18:13Z</time></trkpt><trkpt lat="40.7697891" lon="-3.6614974"><ele>840.0</ele><time>2026-04-10T08:18:14Z</time></trkpt><trkpt lat="40.7697365" lon="-3.6616072"><ele>840.0</ele><time>2026-04-10T08:18:15Z</time></trkpt><trkpt lat="40.7696821" lon="-3.6617093"><ele>840.0</ele><time>2026-04-10T08:18:15.999Z</time></trkpt><trkpt lat="40.7696336" lon="-3.6618065"><ele>840.0</ele><time>2026-04-10T08:18:17Z</time></trkpt><trkpt lat="40.7695769" lon="-3.6618915"><ele>840.0</ele><time>2026-04-10T08:18:18Z</time></trkpt><trkpt lat="40.7695105" lon="-3.6619691"><ele>840.0</ele><time>2026-04-10T08:18:19Z</time></trkpt><trkpt lat="40.7694404" lon="-3.6620455"><ele>840.0</ele><time>2026-04-10T08:18:20Z</time></trkpt><trkpt lat="40.7693785" lon="-3.6621183"><ele>838.6666666666666</ele><time>2026-04-10T08:18:21Z</time></trkpt><trkpt lat="40.7693218" lon="-3.6621969"><ele>837.3333333333333</ele><time>2026-04-10T08:18:22Z</time></trkpt><trkpt lat="40.7692613" lon="-3.662287"><ele>836.0</ele><time>2026-04-10T08:18:22.999Z</time></trkpt><trkpt lat="40.7691999" lon="-3.6623888"><ele>834.6666666666666</ele><time>2026-04-10T08:18:24Z</time></trkpt><trkpt lat="40.7691475" lon="-3.6624856"><ele>833.3333333333333</ele><time>2026-04-10T08:18:25Z</time></trkpt><trkpt lat="40.7690948" lon="-3.6625718"><ele>832.0</ele><time>2026-04-10T08:18:26Z</time></trkpt><trkpt lat="40.7690503" lon="-3.6626647"><ele>831.9999999999999</ele><time>2026-04-10T08:18:26.999Z</time></trkpt><trkpt lat="40.7690126" lon="-3.6627686"><ele>832.0</ele><time>2026-04-10T08:18:28Z</time></trkpt><trkpt lat="40.7689862" lon="-3.6628717"><ele>832.0</ele><time>2026-04-10T08:18:29Z</time></trkpt><trkpt lat="40.7689741" lon="-3.6629825"><ele>832.0</ele><time>2026-04-10T08:18:29.999Z</time></trkpt><trkpt lat="40.768973" lon="-3.6630913"><ele>831.9999999999999</ele><time>2026-04-10T08:18:31Z</time></trkpt><trkpt lat="40.7689888" lon="-3.6632036"><ele>832.0</ele><time>2026-04-10T08:18:31.999Z</time></trkpt><trkpt lat="40.7690147" lon="-3.663306"><ele>832.1666666666666</ele><time>2026-04-10T08:18:33Z</time></trkpt><trkpt lat="40.7690452" lon="-3.6633923"><ele>832.3333333333333</ele><time>2026-04-10T08:18:34Z</time></trkpt><trkpt lat="40.7690825" lon="-3.6634762"><ele>832.5</ele><time>2026-04-10T08:18:34.999Z</time></trkpt><trkpt lat="40.7691312" lon="-3.6635516"><ele>832.6666666666667</ele><time>2026-04-10T08:18:36Z</time></trkpt><trkpt lat="40.7691922" lon="-3.6636223"><ele>832.8333333333334</ele><time>2026-04-10T08:18:36.999Z</time></trkpt><trkpt lat="40.7692563" lon="-3.6636963"><ele>833.0</ele><time>2026-04-10T08:18:38Z</time></trkpt><trkpt lat="40.769325" lon="-3.6637687"><ele>833.4</ele><time>2026-04-10T08:18:39Z</time></trkpt><trkpt lat="40.7694007" lon="-3.6638432"><ele>833.8</ele><time>2026-04-10T08:18:40Z</time></trkpt><trkpt lat="40.7694837" lon="-3.6639113"><ele>834.2</ele><time>2026-04-10T08:18:40.999Z</time></trkpt><trkpt lat="40.7695658" lon="-3.6639755"><ele>834.6</ele><time>2026-04-10T08:18:42Z</time></trkpt><trkpt lat="40.7696453" lon="-3.6640423"><ele>835.0</ele><time>2026-04-10T08:18:42.999Z</time></trkpt><trkpt lat="40.7697248" lon="-3.6640973"><ele>835.0</ele><time>2026-04-10T08:18:44Z</time></trkpt><trkpt lat="40.7698077" lon="-3.6641398"><ele>835.0</ele><time>2026-04-10T08:18:45Z</time></trkpt><trkpt lat="40.7698988" lon="-3.664154"><ele>835.0</ele><time>2026-04-10T08:18:46Z</time></trkpt><trkpt lat="40.7699908" lon="-3.6641675"><ele>835.0</ele><time>2026-04-10T08:18:47Z</time></trkpt><trkpt lat="40.7700885" lon="-3.6641635"><ele>835.0</ele><time>2026-04-10T08:18:48Z</time></trkpt><trkpt lat="40.7701798" lon="-3.664151"><ele>836.3333333333333</ele><time>2026-04-10T08:18:49Z</time></trkpt><trkpt lat="40.7702656" lon="-3.6641541"><ele>837.6666666666666</ele><time>2026-04-10T08:18:50Z</time></trkpt><trkpt lat="40.7703529" lon="-3.6641673"><ele>839.0</ele><time>2026-04-10T08:18:51Z</time></trkpt><trkpt lat="40.7704341" lon="-3.664191"><ele>840.3333333333333</ele><time>2026-04-10T08:18:52Z</time></trkpt><trkpt lat="40.7705109" lon="-3.6642343"><ele>841.6666666666666</ele><time>2026-04-10T08:18:53Z</time></trkpt><trkpt lat="40.7705986" lon="-3.6642864"><ele>843.0</ele><time>2026-04-10T08:18:54Z</time></trkpt><trkpt lat="40.7706798" lon="-3.6643459"><ele>843.0</ele><time>2026-04-10T08:18:55Z</time></trkpt><trkpt lat="40.7707654" lon="-3.6644044"><ele>843.0</ele><time>2026-04-10T08:18:56Z</time></trkpt><trkpt lat="40.7708338" lon="-3.6644771"><ele>843.0</ele><time>2026-04-10T08:18:57Z</time></trkpt><trkpt lat="40.7708988" lon="-3.6645545"><ele>843.0</ele><time>2026-04-10T08:18:58Z</time></trkpt><trkpt lat="40.7709665" lon="-3.6646375"><ele>843.0</ele><time>2026-04-10T08:18:59Z</time></trkpt><trkpt lat="40.7710297" lon="-3.6647326"><ele>843.6666666666666</ele><time>2026-04-10T08:18:59.999Z</time></trkpt><trkpt lat="40.7711013" lon="-3.6648184"><ele>844.3333333333333</ele><time>2026-04-10T08:19:01Z</time></trkpt><trkpt lat="40.7711682" lon="-3.6649054"><ele>845.0</ele><time>2026-04-10T08:19:01.999Z</time></trkpt><trkpt lat="40.7712239" lon="-3.6649903"><ele>845.6666666666666</ele><time>2026-04-10T08:19:03Z</time></trkpt><trkpt lat="40.7712727" lon="-3.6650721"><ele>846.3333333333333</ele><time>2026-04-10T08:19:04Z</time></trkpt><trkpt lat="40.7713111" lon="-3.665143"><ele>847.0</ele><time>2026-04-10T08:19:05Z</time></trkpt><trkpt lat="40.7713343" lon="-3.665281"><ele>844.4999999999999</ele><time>2026-04-10T08:19:07Z</time></trkpt><trkpt lat="40.771299" lon="-3.6653981"><ele>842.0</ele><time>2026-04-10T08:19:09Z</time></trkpt><trkpt lat="40.7712465" lon="-3.6654679"><ele>839.5</ele><time>2026-04-10T08:19:14Z</time></trkpt><trkpt lat="40.7711967" lon="-3.6655258"><ele>837.0</ele><time>2026-04-10T08:19:17Z</time></trkpt><trkpt lat="40.7711205" lon="-3.6655875"><ele>834.4999999999999</ele><time>2026-04-10T08:19:20Z</time></trkpt><trkpt lat="40.7710569" lon="-3.665633"><ele>832.0</ele><time>2026-04-10T08:19:23Z</time></trkpt><trkpt lat="40.7709904" lon="-3.6656736"><ele>831.9999999999999</ele><time>2026-04-10T08:19:25Z</time></trkpt><trkpt lat="40.7709402" lon="-3.6657243"><ele>832.0</ele><time>2026-04-10T08:19:27Z</time></trkpt><trkpt lat="40.7708687" lon="-3.6657176"><ele>832.0</ele><time>2026-04-10T08:19:29Z</time></trkpt><trkpt lat="40.7708192" lon="-3.6656441"><ele>832.0</ele><time>2026-04-10T08:19:31Z</time></trkpt><trkpt lat="40.7707582" lon="-3.6655772"><ele>831.9999999999999</ele><time>2026-04-10T08:19:33Z</time></trkpt><trkpt lat="40.7706902" lon="-3.6655308"><ele>832.0</ele><time>2026-04-10T08:19:35Z</time></trkpt><trkpt lat="40.7706313" lon="-3.6654424"><ele>831.9999999999999</ele><time>2026-04-10T08:19:37Z</time></trkpt><trkpt lat="40.7705842" lon="-3.6653434"><ele>832.0</ele><time>2026-04-10T08:19:39Z</time></trkpt><trkpt lat="40.7705083" lon="-3.6652271"><ele>832.0</ele><time>2026-04-10T08:19:41Z</time></trkpt><trkpt lat="40.7704567" lon="-3.6651784"><ele>832.0</ele><time>2026-04-10T08:19:42Z</time></trkpt><trkpt lat="40.7703964" lon="-3.6651372"><ele>831.9999999999999</ele><time>2026-04-10T08:19:42.999Z</time></trkpt><trkpt lat="40.7703285" lon="-3.6650986"><ele>832.0</ele><time>2026-04-10T08:19:44Z</time></trkpt><trkpt lat="40.7702537" lon="-3.6650536"><ele>831.9999999999999</ele><time>2026-04-10T08:19:44.999Z</time></trkpt><trkpt lat="40.7701777" lon="-3.6650209"><ele>832.0</ele><time>2026-04-10T08:19:46Z</time></trkpt><trkpt lat="40.7701068" lon="-3.6649919"><ele>832.0</ele><time>2026-04-10T08:19:47Z</time></trkpt><trkpt lat="40.7700468" lon="-3.6649631"><ele>832.0</ele><time>2026-04-10T08:19:48Z</time></trkpt><trkpt lat="40.7699869" lon="-3.6649354"><ele>831.9999999999999</ele><time>2026-04-10T08:19:48.999Z</time></trkpt><trkpt lat="40.7698792" lon="-3.6648433"><ele>832.0</ele><time>2026-04-10T08:19:51Z</time></trkpt><trkpt lat="40.7697844" lon="-3.6647559"><ele>832.0</ele><time>2026-04-10T08:19:52.999Z</time></trkpt><trkpt lat="40.7696917" lon="-3.6646874"><ele>832.0</ele><time>2026-04-10T08:19:55Z</time></trkpt><trkpt lat="40.7695789" lon="-3.6646249"><ele>832.0</ele><time>2026-04-10T08:19:57Z</time></trkpt><trkpt lat="40.7694582" lon="-3.6645703"><ele>832.0</ele><time>2026-04-10T08:19:58.999Z</time></trkpt><trkpt lat="40.7693917" lon="-3.6645361"><ele>832.0</ele><time>2026-04-10T08:20:00Z</time></trkpt><trkpt lat="40.769324" lon="-3.6644976"><ele>831.8333333333333</ele><time>2026-04-10T08:20:01Z</time></trkpt><trkpt lat="40.7692627" lon="-3.6644654"><ele>831.6666666666666</ele><time>2026-04-10T08:20:02Z</time></trkpt><trkpt lat="40.7691978" lon="-3.6644287"><ele>831.5</ele><time>2026-04-10T08:20:03Z</time></trkpt><trkpt lat="40.7691343" lon="-3.6643962"><ele>831.3333333333333</ele><time>2026-04-10T08:20:04Z</time></trkpt><trkpt lat="40.7690708" lon="-3.6643621"><ele>831.1666666666666</ele><time>2026-04-10T08:20:05Z</time></trkpt><trkpt lat="40.7689609" lon="-3.6642871"><ele>831.0</ele><time>2026-04-10T08:20:06.999Z</time></trkpt><trkpt lat="40.768841" lon="-3.6642556"><ele>831.0</ele><time>2026-04-10T08:20:09Z</time></trkpt><trkpt lat="40.7687749" lon="-3.6641944"><ele>831.0</ele><time>2026-04-10T08:20:11Z</time></trkpt><trkpt lat="40.7687629" lon="-3.6640538"><ele>831.0</ele><time>2026-04-10T08:20:13Z</time></trkpt><trkpt lat="40.7687449" lon="-3.6639735"><ele>831.0</ele><time>2026-04-10T08:20:14Z</time></trkpt><trkpt lat="40.7686909" lon="-3.6638253"><ele>831.0</ele><time>2026-04-10T08:20:16Z</time></trkpt><trkpt lat="40.7686577" lon="-3.6637492"><ele>831.0</ele><time>2026-04-10T08:20:17Z</time></trkpt><trkpt lat="40.7685987" lon="-3.66361"><ele>831.2857142857142</ele><time>2026-04-10T08:20:19Z</time></trkpt><trkpt lat="40.7685544" lon="-3.6634984"><ele>831.5714285714286</ele><time>2026-04-10T08:20:21Z</time></trkpt><trkpt lat="40.7685151" lon="-3.6633963"><ele>831.8571428571429</ele><time>2026-04-10T08:20:23Z</time></trkpt><trkpt lat="40.7684937" lon="-3.6633116"><ele>832.1428571428571</ele><time>2026-04-10T08:20:25Z</time></trkpt><trkpt lat="40.768471" lon="-3.6632286"><ele>832.4285714285714</ele><time>2026-04-10T08:20:28Z</time></trkpt><trkpt lat="40.7684548" lon="-3.6631457"><ele>832.7142857142857</ele><time>2026-04-10T08:20:31.999Z</time></trkpt><trkpt lat="40.7684282" lon="-3.6630646"><ele>833.0</ele><time>2026-04-10T08:20:45Z</time></trkpt><trkpt lat="40.7684069" lon="-3.662921"><ele>832.8333333333334</ele><time>2026-04-10T08:20:52.999Z</time></trkpt><trkpt lat="40.7684105" lon="-3.6628373"><ele>832.6666666666667</ele><time>2026-04-10T08:21:31Z</time></trkpt><trkpt lat="40.7684001" lon="-3.662736"><ele>832.5</ele><time>2026-04-10T08:21:53Z</time></trkpt><trkpt lat="40.7684367" lon="-3.6626369"><ele>832.3333333333333</ele><time>2026-04-10T08:22:44Z</time></trkpt><trkpt lat="40.768464" lon="-3.6625401"><ele>832.1666666666666</ele><time>2026-04-10T08:22:46Z</time></trkpt><trkpt lat="40.768497" lon="-3.6624275"><ele>832.0</ele><time>2026-04-10T08:22:48Z</time></trkpt><trkpt lat="40.7685514" lon="-3.6623035"><ele>832.0</ele><time>2026-04-10T08:22:49.999Z</time></trkpt><trkpt lat="40.7686212" lon="-3.6621845"><ele>832.0</ele><time>2026-04-10T08:22:51.999Z</time></trkpt><trkpt lat="40.7686711" lon="-3.6620431"><ele>832.0</ele><time>2026-04-10T08:22:54Z</time></trkpt><trkpt lat="40.768751" lon="-3.6619452"><ele>832.0</ele><time>2026-04-10T08:22:56Z</time></trkpt><trkpt lat="40.7688374" lon="-3.6618583"><ele>831.6</ele><time>2026-04-10T08:22:58Z</time></trkpt><trkpt lat="40.7689069" lon="-3.6617404"><ele>831.2</ele><time>2026-04-10T08:23:00Z</time></trkpt><trkpt lat="40.7689652" lon="-3.661586"><ele>830.8</ele><time>2026-04-10T08:23:02Z</time></trkpt><trkpt lat="40.7689979" lon="-3.6615072"><ele>830.4</ele><time>2026-04-10T08:23:03Z</time></trkpt><trkpt lat="40.7690339" lon="-3.6614218"><ele>830.0</ele><time>2026-04-10T08:23:04Z</time></trkpt><trkpt lat="40.7690652" lon="-3.6613422"><ele>830.0</ele><time>2026-04-10T08:23:05Z</time></trkpt><trkpt lat="40.7691223" lon="-3.6612054"><ele>830.0</ele><time>2026-04-10T08:23:07Z</time></trkpt><trkpt lat="40.7691175" lon="-3.661055"><ele>830.0</ele><time>2026-04-10T08:23:09Z</time></trkpt><trkpt lat="40.7690856" lon="-3.6609794"><ele>830.0</ele><time>2026-04-10T08:23:10Z</time></trkpt><trkpt lat="40.7690757" lon="-3.6608269"><ele>830.0</ele><time>2026-04-10T08:23:11.999Z</time></trkpt><trkpt lat="40.7691376" lon="-3.6606886"><ele>830.0</ele><time>2026-04-10T08:23:14Z</time></trkpt><trkpt lat="40.769162" lon="-3.660608"><ele>830.0</ele><time>2026-04-10T08:23:15Z</time></trkpt><trkpt lat="40.7691747" lon="-3.6605194"><ele>830.0</ele><time>2026-04-10T08:23:16Z</time></trkpt><trkpt lat="40.7691716" lon="-3.6604352"><ele>830.0</ele><time>2026-04-10T08:23:17Z</time></trkpt><trkpt lat="40.7691597" lon="-3.660349"><ele>830.0</ele><time>2026-04-10T08:23:18Z</time></trkpt><trkpt lat="40.7691411" lon="-3.660249"><ele>830.0</ele><time>2026-04-10T08:23:19Z</time></trkpt><trkpt lat="40.769119" lon="-3.6601537"><ele>830.0</ele><time>2026-04-10T08:23:19.999Z</time></trkpt><trkpt lat="40.7691073" lon="-3.6600615"><ele>830.3333333333334</ele><time>2026-04-10T08:23:21Z</time></trkpt><trkpt lat="40.7691014" lon="-3.6599734"><ele>830.6666666666667</ele><time>2026-04-10T08:23:22Z</time></trkpt><trkpt lat="40.7691007" lon="-3.6598796"><ele>831.0</ele><time>2026-04-10T08:23:23Z</time></trkpt><trkpt lat="40.769105" lon="-3.6597817"><ele>831.3333333333333</ele><time>2026-04-10T08:23:24Z</time></trkpt><trkpt lat="40.7691055" lon="-3.6596733"><ele>831.6666666666666</ele><time>2026-04-10T08:23:25Z</time></trkpt><trkpt lat="40.7690978" lon="-3.6595645"><ele>832.0</ele><time>2026-04-10T08:23:26Z</time></trkpt><trkpt lat="40.7690948" lon="-3.6594585"><ele>831.9999999999999</ele><time>2026-04-10T08:23:27Z</time></trkpt><trkpt lat="40.7690921" lon="-3.6593553"><ele>832.0</ele><time>2026-04-10T08:23:28Z</time></trkpt><trkpt lat="40.7690969" lon="-3.6592459"><ele>832.0</ele><time>2026-04-10T08:23:29Z</time></trkpt><trkpt lat="40.7691014" lon="-3.6591369"><ele>832.0</ele><time>2026-04-10T08:23:30Z</time></trkpt><trkpt lat="40.7691106" lon="-3.6590272"><ele>831.9999999999999</ele><time>2026-04-10T08:23:30.999Z</time></trkpt><trkpt lat="40.7691266" lon="-3.6589114"><ele>832.0</ele><time>2026-04-10T08:23:32Z</time></trkpt><trkpt lat="40.7691387" lon="-3.6587975"><ele>831.9999999999999</ele><time>2026-04-10T08:23:33Z</time></trkpt><trkpt lat="40.7691506" lon="-3.6586887"><ele>832.0</ele><time>2026-04-10T08:23:34Z</time></trkpt><trkpt lat="40.7691569" lon="-3.6585858"><ele>832.0</ele><time>2026-04-10T08:23:35Z</time></trkpt><trkpt lat="40.7691634" lon="-3.658484"><ele>832.0</ele><time>2026-04-10T08:23:35.999Z</time></trkpt><trkpt lat="40.7691762" lon="-3.6583839"><ele>831.9999999999999</ele><time>2026-04-10T08:23:36.999Z</time></trkpt><trkpt lat="40.7691889" lon="-3.6582726"><ele>832.0</ele><time>2026-04-10T08:23:38Z</time></trkpt><trkpt lat="40.7692093" lon="-3.6581542"><ele>832.1666666666666</ele><time>2026-04-10T08:23:39Z</time></trkpt><trkpt lat="40.7692355" lon="-3.6580327"><ele>832.3333333333333</ele><time>2026-04-10T08:23:40Z</time></trkpt><trkpt lat="40.7692581" lon="-3.6579206"><ele>832.5</ele><time>2026-04-10T08:23:41Z</time></trkpt><trkpt lat="40.7692806" lon="-3.6578092"><ele>832.6666666666667</ele><time>2026-04-10T08:23:42Z</time></trkpt><trkpt lat="40.7693004" lon="-3.6577055"><ele>832.8333333333334</ele><time>2026-04-10T08:23:43Z</time></trkpt><trkpt lat="40.7693204" lon="-3.6575985"><ele>833.0</ele><time>2026-04-10T08:23:44Z</time></trkpt><trkpt lat="40.7693329" lon="-3.6575065"><ele>833.2</ele><time>2026-04-10T08:23:45Z</time></trkpt><trkpt lat="40.7693261" lon="-3.6574231"><ele>833.4</ele><time>2026-04-10T08:23:46Z</time></trkpt><trkpt lat="40.7692723" lon="-3.6572913"><ele>833.6</ele><time>2026-04-10T08:23:48Z</time></trkpt><trkpt lat="40.7692185" lon="-3.6571542"><ele>833.8000000000001</ele><time>2026-04-10T08:23:50Z</time></trkpt><trkpt lat="40.769245" lon="-3.6570152"><ele>834.0</ele><time>2026-04-10T08:23:52Z</time></trkpt><trkpt lat="40.7693199" lon="-3.6569031"><ele>832.5714285714286</ele><time>2026-04-10T08:23:54Z</time></trkpt><trkpt lat="40.7693625" lon="-3.6568371"><ele>831.1428571428571</ele><time>2026-04-10T08:23:55Z</time></trkpt><trkpt lat="40.7694137" lon="-3.6567603"><ele>829.7142857142857</ele><time>2026-04-10T08:23:56Z</time></trkpt><trkpt lat="40.7694589" lon="-3.6566779"><ele>828.2857142857142</ele><time>2026-04-10T08:23:57Z</time></trkpt><trkpt lat="40.7694881" lon="-3.6565854"><ele>826.8571428571429</ele><time>2026-04-10T08:23:58Z</time></trkpt><trkpt lat="40.7695015" lon="-3.6564895"><ele>825.4285714285713</ele><time>2026-04-10T08:23:59Z</time></trkpt><trkpt lat="40.7695009" lon="-3.6564048"><ele>824.0</ele><time>2026-04-10T08:24:00Z</time></trkpt><trkpt lat="40.7694775" lon="-3.6563163"><ele>823.9999999999999</ele><time>2026-04-10T08:24:00.999Z</time></trkpt><trkpt lat="40.7694423" lon="-3.6562334"><ele>824.0</ele><time>2026-04-10T08:24:02Z</time></trkpt><trkpt lat="40.7693968" lon="-3.6561688"><ele>824.0</ele><time>2026-04-10T08:24:03Z</time></trkpt><trkpt lat="40.7693414" lon="-3.6561093"><ele>824.0</ele><time>2026-04-10T08:24:04Z</time></trkpt><trkpt lat="40.7692787" lon="-3.6560685"><ele>824.0</ele><time>2026-04-10T08:24:05Z</time></trkpt><trkpt lat="40.7692104" lon="-3.6560432"><ele>823.9999999999999</ele><time>2026-04-10T08:24:06Z</time></trkpt><trkpt lat="40.7691455" lon="-3.6560234"><ele>824.0</ele><time>2026-04-10T08:24:07Z</time></trkpt><trkpt lat="40.7690715" lon="-3.6559464"><ele>824.4285714285713</ele><time>2026-04-10T08:24:09Z</time></trkpt><trkpt lat="40.7690804" lon="-3.6558452"><ele>824.8571428571429</ele><time>2026-04-10T08:24:11Z</time></trkpt><trkpt lat="40.7691217" lon="-3.6557775"><ele>825.2857142857142</ele><time>2026-04-10T08:24:13Z</time></trkpt><trkpt lat="40.769184" lon="-3.65576"><ele>825.7142857142857</ele><time>2026-04-10T08:24:15Z</time></trkpt><trkpt lat="40.7692666" lon="-3.6557283"><ele>826.1428571428571</ele><time>2026-04-10T08:24:17Z</time></trkpt><trkpt lat="40.7693293" lon="-3.6556851"><ele>826.5714285714286</ele><time>2026-04-10T08:24:17.999Z</time></trkpt><trkpt lat="40.7693925" lon="-3.6556206"><ele>827.0</ele><time>2026-04-10T08:24:19Z</time></trkpt><trkpt lat="40.7694518" lon="-3.6555411"><ele>827.0</ele><time>2026-04-10T08:24:20Z</time></trkpt><trkpt lat="40.7695118" lon="-3.655452"><ele>827.0</ele><time>2026-04-10T08:24:21Z</time></trkpt><trkpt lat="40.7695731" lon="-3.6553591"><ele>827.0</ele><time>2026-04-10T08:24:22Z</time></trkpt><trkpt lat="40.7696313" lon="-3.6552551"><ele>827.0</ele><time>2026-04-10T08:24:22.999Z</time></trkpt><trkpt lat="40.7696833" lon="-3.6551471"><ele>827.0</ele><time>2026-04-10T08:24:24Z</time></trkpt><trkpt lat="40.7697261" lon="-3.6550315"><ele>827.0000000000001</ele><time>2026-04-10T08:24:25Z</time></trkpt><trkpt lat="40.7697594" lon="-3.6549112"><ele>827.0</ele><time>2026-04-10T08:24:26Z</time></trkpt><trkpt lat="40.7697809" lon="-3.6547966"><ele>827.0</ele><time>2026-04-10T08:24:27Z</time></trkpt><trkpt lat="40.7697877" lon="-3.6546803"><ele>827.0</ele><time>2026-04-10T08:24:27.999Z</time></trkpt><trkpt lat="40.7697898" lon="-3.6545806"><ele>827.0000000000001</ele><time>2026-04-10T08:24:29Z</time></trkpt><trkpt lat="40.7697737" lon="-3.6544825"><ele>827.0</ele><time>2026-04-10T08:24:30Z</time></trkpt><trkpt lat="40.7697457" lon="-3.6543812"><ele>827.0000000000001</ele><time>2026-04-10T08:24:31Z</time></trkpt><trkpt lat="40.7697165" lon="-3.6542755"><ele>827.0</ele><time>2026-04-10T08:24:32Z</time></trkpt><trkpt lat="40.7696872" lon="-3.65417"><ele>827.0</ele><time>2026-04-10T08:24:33Z</time></trkpt><trkpt lat="40.7696609" lon="-3.6540517"><ele>827.0</ele><time>2026-04-10T08:24:34Z</time></trkpt><trkpt lat="40.7696286" lon="-3.6539445"><ele>827.0000000000001</ele><time>2026-04-10T08:24:35Z</time></trkpt><trkpt lat="40.7695873" lon="-3.6538407"><ele>827.0</ele><time>2026-04-10T08:24:36Z</time></trkpt><trkpt lat="40.7695433" lon="-3.6537361"><ele>827.0000000000001</ele><time>2026-04-10T08:24:37Z</time></trkpt><trkpt lat="40.769492" lon="-3.6536409"><ele>827.0</ele><time>2026-04-10T08:24:38Z</time></trkpt><trkpt lat="40.769436" lon="-3.6535457"><ele>827.0</ele><time>2026-04-10T08:24:39Z</time></trkpt><trkpt lat="40.7693872" lon="-3.6534511"><ele>827.0</ele><time>2026-04-10T08:24:40Z</time></trkpt><trkpt lat="40.7693468" lon="-3.6533509"><ele>827.0000000000001</ele><time>2026-04-10T08:24:41Z</time></trkpt><trkpt lat="40.7693166" lon="-3.6532451"><ele>827.0</ele><time>2026-04-10T08:24:42Z</time></trkpt><trkpt lat="40.7692992" lon="-3.653137"><ele>827.0</ele><time>2026-04-10T08:24:43Z</time></trkpt><trkpt lat="40.7692868" lon="-3.6530323"><ele>827.0</ele><time>2026-04-10T08:24:44Z</time></trkpt><trkpt lat="40.7692964" lon="-3.6529169"><ele>827.0</ele><time>2026-04-10T08:24:45Z</time></trkpt><trkpt lat="40.7693239" lon="-3.6528007"><ele>827.0</ele><time>2026-04-10T08:24:46Z</time></trkpt><trkpt lat="40.7693546" lon="-3.6526865"><ele>827.0</ele><time>2026-04-10T08:24:46.999Z</time></trkpt><trkpt lat="40.7693964" lon="-3.6525682"><ele>827.0</ele><time>2026-04-10T08:24:48Z</time></trkpt><trkpt lat="40.7694449" lon="-3.652455"><ele>827.0</ele><time>2026-04-10T08:24:49Z</time></trkpt><trkpt lat="40.7694939" lon="-3.6523465"><ele>827.0</ele><time>2026-04-10T08:24:50Z</time></trkpt><trkpt lat="40.7695325" lon="-3.6522426"><ele>827.0</ele><time>2026-04-10T08:24:51Z</time></trkpt><trkpt lat="40.769561" lon="-3.6521286"><ele>827.0</ele><time>2026-04-10T08:24:52Z</time></trkpt><trkpt lat="40.7695748" lon="-3.652011"><ele>827.3333333333334</ele><time>2026-04-10T08:24:53Z</time></trkpt><trkpt lat="40.7695816" lon="-3.6518905"><ele>827.6666666666667</ele><time>2026-04-10T08:24:54Z</time></trkpt><trkpt lat="40.7695793" lon="-3.6517712"><ele>828.0</ele><time>2026-04-10T08:24:55Z</time></trkpt><trkpt lat="40.7695696" lon="-3.6516531"><ele>828.3333333333333</ele><time>2026-04-10T08:24:56Z</time></trkpt><trkpt lat="40.7695557" lon="-3.6515476"><ele>828.6666666666666</ele><time>2026-04-10T08:24:57Z</time></trkpt><trkpt lat="40.7695338" lon="-3.6514501"><ele>829.0</ele><time>2026-04-10T08:24:58Z</time></trkpt><trkpt lat="40.7694903" lon="-3.6513519"><ele>828.9999999999999</ele><time>2026-04-10T08:24:59Z</time></trkpt><trkpt lat="40.7694423" lon="-3.6512591"><ele>829.0</ele><time>2026-04-10T08:25:00Z</time></trkpt><trkpt lat="40.769395" lon="-3.6511674"><ele>829.0</ele><time>2026-04-10T08:25:01Z</time></trkpt><trkpt lat="40.7693612" lon="-3.6510688"><ele>829.0</ele><time>2026-04-10T08:25:02Z</time></trkpt><trkpt lat="40.7693374" lon="-3.650963"><ele>828.9999999999999</ele><time>2026-04-10T08:25:03Z</time></trkpt><trkpt lat="40.7693373" lon="-3.6508528"><ele>829.0</ele><time>2026-04-10T08:25:04Z</time></trkpt><trkpt lat="40.7693539" lon="-3.6507556"><ele>828.6666666666666</ele><time>2026-04-10T08:25:05Z</time></trkpt><trkpt lat="40.7693857" lon="-3.6506606"><ele>828.3333333333333</ele><time>2026-04-10T08:25:05.999Z</time></trkpt><trkpt lat="40.769418" lon="-3.6505577"><ele>828.0</ele><time>2026-04-10T08:25:07Z</time></trkpt><trkpt lat="40.7694426" lon="-3.6504591"><ele>827.6666666666667</ele><time>2026-04-10T08:25:07.999Z</time></trkpt><trkpt lat="40.76945" lon="-3.6503612"><ele>827.3333333333334</ele><time>2026-04-10T08:25:09Z</time></trkpt><trkpt lat="40.7694436" lon="-3.6502679"><ele>827.0</ele><time>2026-04-10T08:25:10Z</time></trkpt><trkpt lat="40.7694167" lon="-3.6501697"><ele>827.0000000000001</ele><time>2026-04-10T08:25:11Z</time></trkpt><trkpt lat="40.7693877" lon="-3.6500726"><ele>827.0</ele><time>2026-04-10T08:25:12Z</time></trkpt><trkpt lat="40.7693676" lon="-3.6499834"><ele>827.0</ele><time>2026-04-10T08:25:13Z</time></trkpt><trkpt lat="40.769368" lon="-3.6498573"><ele>827.0</ele><time>2026-04-10T08:25:15Z</time></trkpt><trkpt lat="40.7693852" lon="-3.6497563"><ele>827.0000000000001</ele><time>2026-04-10T08:25:17Z</time></trkpt><trkpt lat="40.7694048" lon="-3.6496756"><ele>827.0</ele><time>2026-04-10T08:25:19Z</time></trkpt><trkpt lat="40.7694116" lon="-3.6495825"><ele>827.0000000000001</ele><time>2026-04-10T08:25:23Z</time></trkpt><trkpt lat="40.7694546" lon="-3.649509"><ele>827.0</ele><time>2026-04-10T08:25:51Z</time></trkpt><trkpt lat="40.7694543" lon="-3.6493955"><ele>827.0</ele><time>2026-04-10T08:25:54Z</time></trkpt><trkpt lat="40.7694348" lon="-3.6492923"><ele>827.0</ele><time>2026-04-10T08:25:56Z</time></trkpt><trkpt lat="40.7694439" lon="-3.64919"><ele>827.0000000000001</ele><time>2026-04-10T08:25:58Z</time></trkpt><trkpt lat="40.7694761" lon="-3.6490598"><ele>827.0</ele><time>2026-04-10T08:26:00Z</time></trkpt><trkpt lat="40.7695098" lon="-3.6488975"><ele>826.6666666666667</ele><time>2026-04-10T08:26:02Z</time></trkpt><trkpt lat="40.7695191" lon="-3.648815"><ele>826.3333333333334</ele><time>2026-04-10T08:26:02.999Z</time></trkpt><trkpt lat="40.7694905" lon="-3.6486487"><ele>826.0</ele><time>2026-04-10T08:26:05Z</time></trkpt><trkpt lat="40.7694753" lon="-3.6485547"><ele>825.6666666666667</ele><time>2026-04-10T08:26:06Z</time></trkpt><trkpt lat="40.7694453" lon="-3.6484788"><ele>825.3333333333334</ele><time>2026-04-10T08:26:07Z</time></trkpt><trkpt lat="40.7694161" lon="-3.6483891"><ele>825.0</ele><time>2026-04-10T08:26:08Z</time></trkpt><trkpt lat="40.7693884" lon="-3.6483032"><ele>826.6666666666666</ele><time>2026-04-10T08:26:09Z</time></trkpt><trkpt lat="40.7693566" lon="-3.6482132"><ele>828.3333333333333</ele><time>2026-04-10T08:26:10Z</time></trkpt><trkpt lat="40.7693316" lon="-3.6481241"><ele>830.0</ele><time>2026-04-10T08:26:11Z</time></trkpt><trkpt lat="40.7693295" lon="-3.6480349"><ele>831.6666666666666</ele><time>2026-04-10T08:26:12Z</time></trkpt><trkpt lat="40.7693293" lon="-3.6478641"><ele>833.3333333333333</ele><time>2026-04-10T08:26:14Z</time></trkpt><trkpt lat="40.7693344" lon="-3.6477774"><ele>835.0</ele><time>2026-04-10T08:26:15Z</time></trkpt><trkpt lat="40.769322" lon="-3.6476919"><ele>835.0000000000001</ele><time>2026-04-10T08:26:16Z</time></trkpt><trkpt lat="40.7692968" lon="-3.6475981"><ele>835.0</ele><time>2026-04-10T08:26:17Z</time></trkpt><trkpt lat="40.7692612" lon="-3.6475018"><ele>835.0</ele><time>2026-04-10T08:26:18Z</time></trkpt><trkpt lat="40.7692241" lon="-3.6474205"><ele>835.0</ele><time>2026-04-10T08:26:19Z</time></trkpt><trkpt lat="40.7691731" lon="-3.6473469"><ele>835.0</ele><time>2026-04-10T08:26:19.999Z</time></trkpt><trkpt lat="40.7691207" lon="-3.6472888"><ele>835.0000000000001</ele><time>2026-04-10T08:26:21Z</time></trkpt><trkpt lat="40.7690732" lon="-3.6472327"><ele>835.0</ele><time>2026-04-10T08:26:22Z</time></trkpt><trkpt lat="40.7690278" lon="-3.6471708"><ele>834.9999999999999</ele><time>2026-04-10T08:26:22.999Z</time></trkpt><trkpt lat="40.7689299" lon="-3.647077"><ele>835.0</ele><time>2026-04-10T08:26:25Z</time></trkpt><trkpt lat="40.7688717" lon="-3.647038"><ele>835.0</ele><time>2026-04-10T08:26:26Z</time></trkpt><trkpt lat="40.7688108" lon="-3.6469914"><ele>835.0</ele><time>2026-04-10T08:26:27Z</time></trkpt><trkpt lat="40.76875" lon="-3.6469496"><ele>834.9999999999999</ele><time>2026-04-10T08:26:28Z</time></trkpt><trkpt lat="40.7686934" lon="-3.6469109"><ele>835.0</ele><time>2026-04-10T08:26:28.999Z</time></trkpt><trkpt lat="40.7686289" lon="-3.6468795"><ele>833.6</ele><time>2026-04-10T08:26:30Z</time></trkpt><trkpt lat="40.7685173" lon="-3.6468265"><ele>832.2</ele><time>2026-04-10T08:26:32Z</time></trkpt><trkpt lat="40.7684554" lon="-3.6468"><ele>830.8</ele><time>2026-04-10T08:26:33Z</time></trkpt><trkpt lat="40.7683613" lon="-3.6467675"><ele>829.4</ele><time>2026-04-10T08:26:35Z</time></trkpt><trkpt lat="40.7682798" lon="-3.6467443"><ele>828.0</ele><time>2026-04-10T08:26:37Z</time></trkpt><trkpt lat="40.7681941" lon="-3.6467491"><ele>828.0</ele><time>2026-04-10T08:26:39Z</time></trkpt><trkpt lat="40.7680905" lon="-3.6468051"><ele>828.0</ele><time>2026-04-10T08:26:41Z</time></trkpt><trkpt lat="40.7680048" lon="-3.6468712"><ele>828.0</ele><time>2026-04-10T08:26:43Z</time></trkpt><trkpt lat="40.7679361" lon="-3.6469638"><ele>828.0</ele><time>2026-04-10T08:26:45Z</time></trkpt><trkpt lat="40.7678672" lon="-3.6470786"><ele>828.0</ele><time>2026-04-10T08:26:47Z</time></trkpt><trkpt lat="40.7678314" lon="-3.6471495"><ele>828.3333333333334</ele><time>2026-04-10T08:26:48Z</time></trkpt><trkpt lat="40.7677902" lon="-3.6472297"><ele>828.6666666666667</ele><time>2026-04-10T08:26:49Z</time></trkpt><trkpt lat="40.7677464" lon="-3.647328"><ele>829.0</ele><time>2026-04-10T08:26:50Z</time></trkpt><trkpt lat="40.7677059" lon="-3.647423"><ele>829.3333333333334</ele><time>2026-04-10T08:26:51Z</time></trkpt><trkpt lat="40.7676725" lon="-3.6475177"><ele>829.6666666666667</ele><time>2026-04-10T08:26:51.999Z</time></trkpt><trkpt lat="40.7676438" lon="-3.6476131"><ele>830.0</ele><time>2026-04-10T08:26:53Z</time></trkpt><trkpt lat="40.7676148" lon="-3.6476943"><ele>830.0</ele><time>2026-04-10T08:26:54Z</time></trkpt><trkpt lat="40.7675834" lon="-3.6477721"><ele>830.0</ele><time>2026-04-10T08:26:55Z</time></trkpt><trkpt lat="40.7675778" lon="-3.6478615"><ele>830.0</ele><time>2026-04-10T08:26:56Z</time></trkpt><trkpt lat="40.7675769" lon="-3.6479683"><ele>830.0</ele><time>2026-04-10T08:26:57Z</time></trkpt><trkpt lat="40.7675789" lon="-3.6480788"><ele>830.0</ele><time>2026-04-10T08:26:58Z</time></trkpt><trkpt lat="40.7675867" lon="-3.6481709"><ele>830.0</ele><time>2026-04-10T08:26:59Z</time></trkpt><trkpt lat="40.7675846" lon="-3.648266"><ele>830.0</ele><time>2026-04-10T08:27:00Z</time></trkpt><trkpt lat="40.7675753" lon="-3.6483647"><ele>830.5714285714286</ele><time>2026-04-10T08:27:01Z</time></trkpt><trkpt lat="40.7675757" lon="-3.6484557"><ele>831.1428571428571</ele><time>2026-04-10T08:27:02Z</time></trkpt><trkpt lat="40.7675776" lon="-3.6485437"><ele>831.7142857142858</ele><time>2026-04-10T08:27:02.999Z</time></trkpt><trkpt lat="40.7675838" lon="-3.6486347"><ele>832.2857142857142</ele><time>2026-04-10T08:27:03.999Z</time></trkpt><trkpt lat="40.7675753" lon="-3.648733"><ele>832.8571428571428</ele><time>2026-04-10T08:27:05Z</time></trkpt><trkpt lat="40.7675556" lon="-3.648834"><ele>833.4285714285714</ele><time>2026-04-10T08:27:06Z</time></trkpt><trkpt lat="40.7675362" lon="-3.6489361"><ele>834.0</ele><time>2026-04-10T08:27:06.999Z</time></trkpt><trkpt lat="40.767516" lon="-3.6490432"><ele>834.7142857142858</ele><time>2026-04-10T08:27:08Z</time></trkpt><trkpt lat="40.7674968" lon="-3.649147"><ele>835.4285714285713</ele><time>2026-04-10T08:27:09Z</time></trkpt><trkpt lat="40.767477" lon="-3.64925"><ele>836.1428571428571</ele><time>2026-04-10T08:27:10Z</time></trkpt><trkpt lat="40.7674441" lon="-3.6493383"><ele>836.8571428571429</ele><time>2026-04-10T08:27:11Z</time></trkpt><trkpt lat="40.7674016" lon="-3.6494122"><ele>837.5714285714287</ele><time>2026-04-10T08:27:12Z</time></trkpt><trkpt lat="40.7673502" lon="-3.6494722"><ele>838.2857142857142</ele><time>2026-04-10T08:27:12.999Z</time></trkpt><trkpt lat="40.767296" lon="-3.6495171"><ele>839.0</ele><time>2026-04-10T08:27:14Z</time></trkpt><trkpt lat="40.7671774" lon="-3.6495819"><ele>839.5000000000001</ele><time>2026-04-10T08:27:16Z</time></trkpt><trkpt lat="40.7670965" lon="-3.6496029"><ele>840.0</ele><time>2026-04-10T08:27:17Z</time></trkpt><trkpt lat="40.7670176" lon="-3.6496189"><ele>840.5</ele><time>2026-04-10T08:27:18Z</time></trkpt><trkpt lat="40.7669486" lon="-3.6496406"><ele>841.0</ele><time>2026-04-10T08:27:19Z</time></trkpt><trkpt lat="40.7668811" lon="-3.6496652"><ele>841.5000000000001</ele><time>2026-04-10T08:27:20Z</time></trkpt><trkpt lat="40.766763" lon="-3.6496308"><ele>842.0</ele><time>2026-04-10T08:27:22Z</time></trkpt><trkpt lat="40.7667036" lon="-3.6495969"><ele>842.0000000000001</ele><time>2026-04-10T08:27:22.999Z</time></trkpt><trkpt lat="40.7665929" lon="-3.649518"><ele>842.0</ele><time>2026-04-10T08:27:25Z</time></trkpt><trkpt lat="40.7665275" lon="-3.6494813"><ele>842.0</ele><time>2026-04-10T08:27:25.999Z</time></trkpt><trkpt lat="40.7664656" lon="-3.6494618"><ele>842.0</ele><time>2026-04-10T08:27:27Z</time></trkpt><trkpt lat="40.7663513" lon="-3.6494536"><ele>842.0000000000001</ele><time>2026-04-10T08:27:29Z</time></trkpt><trkpt lat="40.7663017" lon="-3.6495074"><ele>842.0</ele><time>2026-04-10T08:27:30Z</time></trkpt><trkpt lat="40.7662444" lon="-3.6495728"><ele>842.0000000000001</ele><time>2026-04-10T08:27:31Z</time></trkpt><trkpt lat="40.7661999" lon="-3.6496381"><ele>842.0</ele><time>2026-04-10T08:27:31.999Z</time></trkpt><trkpt lat="40.7661647" lon="-3.649725"><ele>842.0</ele><time>2026-04-10T08:27:33Z</time></trkpt><trkpt lat="40.7661303" lon="-3.6498132"><ele>842.0</ele><time>2026-04-10T08:27:34Z</time></trkpt><trkpt lat="40.766103" lon="-3.6499009"><ele>842.0000000000001</ele><time>2026-04-10T08:27:35Z</time></trkpt><trkpt lat="40.7660866" lon="-3.6499941"><ele>842.0</ele><time>2026-04-10T08:27:35.999Z</time></trkpt><trkpt lat="40.7660949" lon="-3.6501412"><ele>842.0000000000001</ele><time>2026-04-10T08:27:38Z</time></trkpt><trkpt lat="40.7660843" lon="-3.6502511"><ele>842.0</ele><time>2026-04-10T08:27:40Z</time></trkpt><trkpt lat="40.7660255" lon="-3.6503358"><ele>842.0</ele><time>2026-04-10T08:27:42Z</time></trkpt><trkpt lat="40.76594" lon="-3.6503738"><ele>842.0</ele><time>2026-04-10T08:27:43.999Z</time></trkpt><trkpt lat="40.7658768" lon="-3.6503219"><ele>842.0000000000001</ele><time>2026-04-10T08:27:46Z</time></trkpt><trkpt lat="40.7658701" lon="-3.6501815"><ele>842.0</ele><time>2026-04-10T08:27:48Z</time></trkpt><trkpt lat="40.7658871" lon="-3.6500826"><ele>842.0</ele><time>2026-04-10T08:27:50Z</time></trkpt><trkpt lat="40.7658597" lon="-3.6499541"><ele>842.0</ele><time>2026-04-10T08:27:53Z</time></trkpt><trkpt lat="40.7658535" lon="-3.6498229"><ele>842.0</ele><time>2026-04-10T08:27:55Z</time></trkpt><trkpt lat="40.7658493" lon="-3.6496799"><ele>842.0</ele><time>2026-04-10T08:27:57Z</time></trkpt><trkpt lat="40.7658276" lon="-3.6495974"><ele>842.0</ele><time>2026-04-10T08:27:58Z</time></trkpt><trkpt lat="40.7658183" lon="-3.6494367"><ele>842.0000000000001</ele><time>2026-04-10T08:28:00Z</time></trkpt><trkpt lat="40.7658681" lon="-3.649292"><ele>842.0</ele><time>2026-04-10T08:28:02Z</time></trkpt><trkpt lat="40.7659077" lon="-3.6492162"><ele>842.0</ele><time>2026-04-10T08:28:03Z</time></trkpt><trkpt lat="40.7659599" lon="-3.6491188"><ele>842.0</ele><time>2026-04-10T08:28:04Z</time></trkpt><trkpt lat="40.7660114" lon="-3.6490307"><ele>842.0000000000001</ele><time>2026-04-10T08:28:05Z</time></trkpt><trkpt lat="40.76607" lon="-3.6489597"><ele>842.0</ele><time>2026-04-10T08:28:06Z</time></trkpt><trkpt lat="40.766127" lon="-3.6488924"><ele>840.8571428571429</ele><time>2026-04-10T08:28:07Z</time></trkpt><trkpt lat="40.7661834" lon="-3.6488526"><ele>839.7142857142858</ele><time>2026-04-10T08:28:08Z</time></trkpt><trkpt lat="40.76625" lon="-3.6488472"><ele>838.5714285714287</ele><time>2026-04-10T08:28:09Z</time></trkpt><trkpt lat="40.7663194" lon="-3.6488485"><ele>837.4285714285714</ele><time>2026-04-10T08:28:10Z</time></trkpt><trkpt lat="40.7663899" lon="-3.6488552"><ele>836.2857142857142</ele><time>2026-04-10T08:28:11Z</time></trkpt><trkpt lat="40.7664529" lon="-3.6488518"><ele>835.1428571428572</ele><time>2026-04-10T08:28:12Z</time></trkpt><trkpt lat="40.7665271" lon="-3.6488456"><ele>834.0</ele><time>2026-04-10T08:28:13Z</time></trkpt><trkpt lat="40.7665933" lon="-3.6488344"><ele>834.0</ele><time>2026-04-10T08:28:14Z</time></trkpt><trkpt lat="40.7667128" lon="-3.6488337"><ele>834.0</ele><time>2026-04-10T08:28:16Z</time></trkpt><trkpt lat="40.7667823" lon="-3.6488358"><ele>834.0</ele><time>2026-04-10T08:28:16.999Z</time></trkpt><trkpt lat="40.7669065" lon="-3.6487949"><ele>834.0</ele><time>2026-04-10T08:28:19Z</time></trkpt><trkpt lat="40.7669638" lon="-3.6487462"><ele>834.0</ele><time>2026-04-10T08:28:20Z</time></trkpt><trkpt lat="40.767021" lon="-3.6486693"><ele>834.0</ele><time>2026-04-10T08:28:21Z</time></trkpt><trkpt lat="40.7670521" lon="-3.6485619"><ele>834.0</ele><time>2026-04-10T08:28:22Z</time></trkpt><trkpt lat="40.7670883" lon="-3.6484382"><ele>834.0</ele><time>2026-04-10T08:28:23Z</time></trkpt><trkpt lat="40.767103" lon="-3.6483367"><ele>834.0</ele><time>2026-04-10T08:28:24Z</time></trkpt><trkpt lat="40.7670987" lon="-3.6482469"><ele>834.0</ele><time>2026-04-10T08:28:25Z</time></trkpt><trkpt lat="40.7670923" lon="-3.6481573"><ele>834.0</ele><time>2026-04-10T08:28:26Z</time></trkpt><trkpt lat="40.7670423" lon="-3.6480359"><ele>834.0</ele><time>2026-04-10T08:28:28Z</time></trkpt><trkpt lat="40.766958" lon="-3.6479559"><ele>834.0</ele><time>2026-04-10T08:28:30Z</time></trkpt><trkpt lat="40.7668932" lon="-3.6479077"><ele>834.0</ele><time>2026-04-10T08:28:31Z</time></trkpt><trkpt lat="40.7668174" lon="-3.6478742"><ele>834.0</ele><time>2026-04-10T08:28:32Z</time></trkpt><trkpt lat="40.7667469" lon="-3.6478546"><ele>834.0</ele><time>2026-04-10T08:28:33Z</time></trkpt><trkpt lat="40.766681" lon="-3.6478522"><ele>834.0</ele><time>2026-04-10T08:28:34Z</time></trkpt><trkpt lat="40.7665603" lon="-3.6478527"><ele>834.25</ele><time>2026-04-10T08:28:36Z</time></trkpt><trkpt lat="40.7664473" lon="-3.6478683"><ele>834.5</ele><time>2026-04-10T08:28:38Z</time></trkpt><trkpt lat="40.7663313" lon="-3.6479091"><ele>834.75</ele><time>2026-04-10T08:28:40Z</time></trkpt><trkpt lat="40.7662241" lon="-3.647952"><ele>835.0</ele><time>2026-04-10T08:28:42Z</time></trkpt><trkpt lat="40.7660963" lon="-3.6479569"><ele>835.0</ele><time>2026-04-10T08:28:44Z</time></trkpt><trkpt lat="40.7660323" lon="-3.6479688"><ele>835.0</ele><time>2026-04-10T08:28:45Z</time></trkpt><trkpt lat="40.7659213" lon="-3.6479621"><ele>835.0</ele><time>2026-04-10T08:28:47Z</time></trkpt><trkpt lat="40.7658203" lon="-3.6479033"><ele>835.0</ele><time>2026-04-10T08:28:49Z</time></trkpt><trkpt lat="40.7657109" lon="-3.6478731"><ele>835.0</ele><time>2026-04-10T08:28:51Z</time></trkpt><trkpt lat="40.7656237" lon="-3.6478295"><ele>837.1666666666666</ele><time>2026-04-10T08:28:53Z</time></trkpt><trkpt lat="40.7655745" lon="-3.6477418"><ele>839.3333333333333</ele><time>2026-04-10T08:29:05Z</time></trkpt><trkpt lat="40.7655274" lon="-3.6476071"><ele>841.5</ele><time>2026-04-10T08:30:03Z</time></trkpt><trkpt lat="40.76548" lon="-3.6475067"><ele>843.6666666666667</ele><time>2026-04-10T08:30:06Z</time></trkpt><trkpt lat="40.765424" lon="-3.6474477"><ele>845.8333333333334</ele><time>2026-04-10T08:30:09Z</time></trkpt><trkpt lat="40.7654033" lon="-3.6473535"><ele>848.0</ele><time>2026-04-10T08:30:13Z</time></trkpt><trkpt lat="40.765371" lon="-3.6472674"><ele>848.0000000000001</ele><time>2026-04-10T08:30:17Z</time></trkpt><trkpt lat="40.7653476" lon="-3.6471848"><ele>848.0</ele><time>2026-04-10T08:30:22Z</time></trkpt><trkpt lat="40.7653186" lon="-3.6470848"><ele>848.0</ele><time>2026-04-10T08:30:25Z</time></trkpt><trkpt lat="40.7653237" lon="-3.6469786"><ele>848.0</ele><time>2026-04-10T08:30:28Z</time></trkpt><trkpt lat="40.7653483" lon="-3.6468724"><ele>848.0000000000001</ele><time>2026-04-10T08:30:30.999Z</time></trkpt><trkpt lat="40.765316" lon="-3.6467995"><ele>848.0</ele><time>2026-04-10T08:30:37Z</time></trkpt><trkpt lat="40.7652913" lon="-3.6466966"><ele>850.1666666666667</ele><time>2026-04-10T08:30:38Z</time></trkpt><trkpt lat="40.7652603" lon="-3.6465753"><ele>852.3333333333334</ele><time>2026-04-10T08:30:39Z</time></trkpt><trkpt lat="40.7652362" lon="-3.6464813"><ele>854.5</ele><time>2026-04-10T08:30:42Z</time></trkpt><trkpt lat="40.7652046" lon="-3.6463977"><ele>856.6666666666667</ele><time>2026-04-10T08:30:44.999Z</time></trkpt><trkpt lat="40.7651619" lon="-3.6462905"><ele>858.8333333333334</ele><time>2026-04-10T08:31:00.089Z</time></trkpt><trkpt lat="40.7651507" lon="-3.6461871"><ele>861.0</ele><time>2026-04-10T08:31:02.093Z</time></trkpt><trkpt lat="40.7652172" lon="-3.6460375"><ele>863.1999999999999</ele><time>2026-04-10T08:31:06.102Z</time></trkpt><trkpt lat="40.7652329" lon="-3.6459333"><ele>865.3999999999999</ele><time>2026-04-10T08:31:08.107Z</time></trkpt><trkpt lat="40.7651827" lon="-3.6457985"><ele>867.6</ele><time>2026-04-10T08:31:10.455Z</time></trkpt><trkpt lat="40.76513" lon="-3.6457355"><ele>869.8</ele><time>2026-04-10T08:31:11.855Z</time></trkpt><trkpt lat="40.7651355" lon="-3.6455793"><ele>872.0</ele><time>2026-04-10T08:31:14.117Z</time></trkpt><trkpt lat="40.7651467" lon="-3.6454008"><ele>875.3333333333334</ele><time>2026-04-10T08:31:16Z</time></trkpt><trkpt lat="40.7650923" lon="-3.6452852"><ele>878.6666666666667</ele><time>2026-04-10T08:31:18Z</time></trkpt><trkpt lat="40.7650701" lon="-3.645165"><ele>882.0</ele><time>2026-04-10T08:31:19.999Z</time></trkpt><trkpt lat="40.7650656" lon="-3.6450518"><ele>885.3333333333333</ele><time>2026-04-10T08:31:22Z</time></trkpt><trkpt lat="40.7650606" lon="-3.644962"><ele>888.6666666666666</ele><time>2026-04-10T08:31:24Z</time></trkpt><trkpt lat="40.7650352" lon="-3.644877"><ele>892.0</ele><time>2026-04-10T08:31:26Z</time></trkpt><trkpt lat="40.764955" lon="-3.6448236"><ele>892.0</ele><time>2026-04-10T08:31:28Z</time></trkpt><trkpt lat="40.7648832" lon="-3.6447304"><ele>892.0</ele><time>2026-04-10T08:31:30Z</time></trkpt><trkpt lat="40.7648253" lon="-3.6446339"><ele>892.0</ele><time>2026-04-10T08:31:32Z</time></trkpt><trkpt lat="40.7647631" lon="-3.6445451"><ele>892.0</ele><time>2026-04-10T08:31:34Z</time></trkpt><trkpt lat="40.7646562" lon="-3.6445203"><ele>892.0</ele><time>2026-04-10T08:33:05.001Z</time></trkpt><trkpt lat="40.7645626" lon="-3.6445675"><ele>892.0</ele><time>2026-04-10T08:33:07.001Z</time></trkpt><trkpt lat="40.7644751" lon="-3.6445855"><ele>892.0</ele><time>2026-04-10T08:33:09.001Z</time></trkpt><trkpt lat="40.7643848" lon="-3.6445789"><ele>892.0</ele><time>2026-04-10T08:33:11.001Z</time></trkpt><trkpt lat="40.7642865" lon="-3.6446102"><ele>892.0</ele><time>2026-04-10T08:33:13.001Z</time></trkpt><trkpt lat="40.7641712" lon="-3.644657"><ele>892.0</ele><time>2026-04-10T08:33:15.001Z</time></trkpt><trkpt lat="40.7640628" lon="-3.6447044"><ele>891.9999999999999</ele><time>2026-04-10T08:33:17.001Z</time></trkpt><trkpt lat="40.7639997" lon="-3.6447237"><ele>892.0</ele><time>2026-04-10T08:33:18.001Z</time></trkpt><trkpt lat="40.7638895" lon="-3.6447422"><ele>892.0</ele><time>2026-04-10T08:33:20Z</time></trkpt><trkpt lat="40.7637805" lon="-3.644748"><ele>892.0</ele><time>2026-04-10T08:33:22.001Z</time></trkpt><trkpt lat="40.7637167" lon="-3.6447532"><ele>891.9999999999999</ele><time>2026-04-10T08:33:23.001Z</time></trkpt><trkpt lat="40.7636231" lon="-3.6447759"><ele>892.0</ele><time>2026-04-10T08:33:25.001Z</time></trkpt><trkpt lat="40.7635375" lon="-3.6448074"><ele>893.0</ele><time>2026-04-10T08:33:27.001Z</time></trkpt><trkpt lat="40.763442" lon="-3.6448518"><ele>894.0</ele><time>2026-04-10T08:33:29Z</time></trkpt><trkpt lat="40.7633193" lon="-3.644903"><ele>895.0</ele><time>2026-04-10T08:33:31.001Z</time></trkpt><trkpt lat="40.7632532" lon="-3.6449093"><ele>896.0</ele><time>2026-04-10T08:33:32.001Z</time></trkpt><trkpt lat="40.7631364" lon="-3.6448896"><ele>897.0</ele><time>2026-04-10T08:33:34.001Z</time></trkpt><trkpt lat="40.7630181" lon="-3.6449223"><ele>897.0</ele><time>2026-04-10T08:33:36.001Z</time></trkpt><trkpt lat="40.7629151" lon="-3.6449872"><ele>897.0</ele><time>2026-04-10T08:33:38.001Z</time></trkpt><trkpt lat="40.7628265" lon="-3.645029"><ele>897.0</ele><time>2026-04-10T08:33:40.001Z</time></trkpt><trkpt lat="40.7627442" lon="-3.6450767"><ele>897.0</ele><time>2026-04-10T08:33:42.001Z</time></trkpt><trkpt lat="40.762641" lon="-3.6451144"><ele>897.0</ele><time>2026-04-10T08:33:44.001Z</time></trkpt><trkpt lat="40.7625493" lon="-3.6451661"><ele>897.6</ele><time>2026-04-10T08:33:46.001Z</time></trkpt><trkpt lat="40.762463" lon="-3.6452208"><ele>898.2</ele><time>2026-04-10T08:33:48.001Z</time></trkpt><trkpt lat="40.7623553" lon="-3.6452556"><ele>898.8</ele><time>2026-04-10T08:33:50.001Z</time></trkpt><trkpt lat="40.7622288" lon="-3.6452826"><ele>899.4</ele><time>2026-04-10T08:33:52Z</time></trkpt><trkpt lat="40.7621603" lon="-3.6452935"><ele>900.0</ele><time>2026-04-10T08:33:53.001Z</time></trkpt><trkpt lat="40.7620597" lon="-3.6452961"><ele>900.0</ele><time>2026-04-10T08:33:55.001Z</time></trkpt><trkpt lat="40.7619642" lon="-3.6452961"><ele>900.0</ele><time>2026-04-10T08:34:10.001Z</time></trkpt><trkpt lat="40.7618576" lon="-3.6453314"><ele>900.0</ele><time>2026-04-10T08:34:12.001Z</time></trkpt><trkpt lat="40.761741" lon="-3.6453938"><ele>900.0</ele><time>2026-04-10T08:34:14.001Z</time></trkpt><trkpt lat="40.7616782" lon="-3.6454281"><ele>900.0</ele><time>2026-04-10T08:34:15.001Z</time></trkpt><trkpt lat="40.7616146" lon="-3.6454572"><ele>900.7142857142858</ele><time>2026-04-10T08:34:16.001Z</time></trkpt><trkpt lat="40.7615468" lon="-3.6454753"><ele>901.4285714285714</ele><time>2026-04-10T08:34:17.001Z</time></trkpt><trkpt lat="40.7614713" lon="-3.6454762"><ele>902.1428571428571</ele><time>2026-04-10T08:34:18.001Z</time></trkpt><trkpt lat="40.7613992" lon="-3.6454741"><ele>902.8571428571429</ele><time>2026-04-10T08:34:19.001Z</time></trkpt><trkpt lat="40.7613327" lon="-3.6454914"><ele>903.5714285714284</ele><time>2026-04-10T08:34:20.001Z</time></trkpt><trkpt lat="40.7612667" lon="-3.6455098"><ele>904.2857142857142</ele><time>2026-04-10T08:34:21.001Z</time></trkpt><trkpt lat="40.7611963" lon="-3.6455299"><ele>905.0</ele><time>2026-04-10T08:34:22.001Z</time></trkpt><trkpt lat="40.7611137" lon="-3.6455513"><ele>905.2</ele><time>2026-04-10T08:34:23.001Z</time></trkpt><trkpt lat="40.7610317" lon="-3.645577"><ele>905.4</ele><time>2026-04-10T08:34:24.001Z</time></trkpt><trkpt lat="40.7609413" lon="-3.645611"><ele>905.5999999999999</ele><time>2026-04-10T08:34:25.001Z</time></trkpt><trkpt lat="40.7608514" lon="-3.6456413"><ele>905.8</ele><time>2026-04-10T08:34:26.001Z</time></trkpt><trkpt lat="40.7607613" lon="-3.6456715"><ele>906.0</ele><time>2026-04-10T08:34:27.001Z</time></trkpt><trkpt lat="40.7606679" lon="-3.6457011"><ele>906.0</ele><time>2026-04-10T08:34:28.001Z</time></trkpt><trkpt lat="40.7605674" lon="-3.6457354"><ele>905.9999999999999</ele><time>2026-04-10T08:34:29.001Z</time></trkpt><trkpt lat="40.7604677" lon="-3.6457743"><ele>905.9999999999999</ele><time>2026-04-10T08:34:30.001Z</time></trkpt><trkpt lat="40.7603715" lon="-3.6458144"><ele>906.0</ele><time>2026-04-10T08:34:31.001Z</time></trkpt><trkpt lat="40.7602714" lon="-3.6458559"><ele>906.0</ele><time>2026-04-10T08:34:32.001Z</time></trkpt><trkpt lat="40.7601718" lon="-3.6458947"><ele>906.5999999999999</ele><time>2026-04-10T08:34:33Z</time></trkpt><trkpt lat="40.7600754" lon="-3.6459202"><ele>907.1999999999999</ele><time>2026-04-10T08:34:34.001Z</time></trkpt><trkpt lat="40.7599766" lon="-3.6459236"><ele>907.8000000000001</ele><time>2026-04-10T08:34:35Z</time></trkpt><trkpt lat="40.7598626" lon="-3.6459074"><ele>908.4000000000001</ele><time>2026-04-10T08:34:36.001Z</time></trkpt><trkpt lat="40.7597503" lon="-3.6458909"><ele>909.0</ele><time>2026-04-10T08:34:37.001Z</time></trkpt><trkpt lat="40.7596283" lon="-3.6458758"><ele>909.0</ele><time>2026-04-10T08:34:38Z</time></trkpt><trkpt lat="40.7595108" lon="-3.6458649"><ele>909.0000000000001</ele><time>2026-04-10T08:34:39.001Z</time></trkpt><trkpt lat="40.7594075" lon="-3.6458572"><ele>909.0000000000001</ele><time>2026-04-10T08:34:40.001Z</time></trkpt><trkpt lat="40.7593133" lon="-3.6458589"><ele>909.0</ele><time>2026-04-10T08:34:41.001Z</time></trkpt><trkpt lat="40.7592317" lon="-3.6458934"><ele>909.0</ele><time>2026-04-10T08:34:42.001Z</time></trkpt><trkpt lat="40.7591621" lon="-3.6459606"><ele>909.0</ele><time>2026-04-10T08:34:43.001Z</time></trkpt><trkpt lat="40.7590886" lon="-3.6460457"><ele>909.0000000000001</ele><time>2026-04-10T08:34:44.001Z</time></trkpt><trkpt lat="40.7590065" lon="-3.6461379"><ele>909.0000000000001</ele><time>2026-04-10T08:34:45.001Z</time></trkpt><trkpt lat="40.7589239" lon="-3.6462153"><ele>909.0</ele><time>2026-04-10T08:34:46.001Z</time></trkpt><trkpt lat="40.7588483" lon="-3.646288"><ele>909.0</ele><time>2026-04-10T08:34:47.001Z</time></trkpt><trkpt lat="40.7587821" lon="-3.6463662"><ele>909.3333333333334</ele><time>2026-04-10T08:34:48.001Z</time></trkpt><trkpt lat="40.7587287" lon="-3.6464562"><ele>909.6666666666667</ele><time>2026-04-10T08:34:49.001Z</time></trkpt><trkpt lat="40.7586824" lon="-3.6465397"><ele>910.0</ele><time>2026-04-10T08:34:50.001Z</time></trkpt><trkpt lat="40.7586515" lon="-3.646631"><ele>910.3333333333334</ele><time>2026-04-10T08:34:51.001Z</time></trkpt><trkpt lat="40.7586242" lon="-3.6467392"><ele>910.6666666666667</ele><time>2026-04-10T08:34:52.001Z</time></trkpt><trkpt lat="40.7585907" lon="-3.646842"><ele>911.0</ele><time>2026-04-10T08:34:53.001Z</time></trkpt><trkpt lat="40.758559" lon="-3.6469543"><ele>911.3333333333334</ele><time>2026-04-10T08:34:54.001Z</time></trkpt><trkpt lat="40.7585244" lon="-3.6470718"><ele>911.6666666666667</ele><time>2026-04-10T08:34:55.001Z</time></trkpt><trkpt lat="40.758493" lon="-3.6471823"><ele>912.0</ele><time>2026-04-10T08:34:56.001Z</time></trkpt><trkpt lat="40.7584744" lon="-3.6472938"><ele>912.3333333333333</ele><time>2026-04-10T08:34:57.001Z</time></trkpt><trkpt lat="40.7584624" lon="-3.6473965"><ele>912.6666666666666</ele><time>2026-04-10T08:34:58Z</time></trkpt><trkpt lat="40.758442" lon="-3.6474936"><ele>913.0</ele><time>2026-04-10T08:34:59.001Z</time></trkpt><trkpt lat="40.7584257" lon="-3.6475802"><ele>912.9999999999999</ele><time>2026-04-10T08:35:00Z</time></trkpt><trkpt lat="40.7584098" lon="-3.6476622"><ele>913.0</ele><time>2026-04-10T08:35:01.001Z</time></trkpt><trkpt lat="40.7583433" lon="-3.6477891"><ele>913.0</ele><time>2026-04-10T08:35:03Z</time></trkpt><trkpt lat="40.7582886" lon="-3.6478337"><ele>913.0</ele><time>2026-04-10T08:35:04.001Z</time></trkpt><trkpt lat="40.7582032" lon="-3.6479421"><ele>912.9999999999999</ele><time>2026-04-10T08:35:06.001Z</time></trkpt><trkpt lat="40.7581566" lon="-3.6480003"><ele>913.0</ele><time>2026-04-10T08:35:07.001Z</time></trkpt><trkpt lat="40.7580906" lon="-3.6480437"><ele>912.7142857142856</ele><time>2026-04-10T08:35:08.001Z</time></trkpt><trkpt lat="40.7580189" lon="-3.6481023"><ele>912.4285714285713</ele><time>2026-04-10T08:35:09.001Z</time></trkpt><trkpt lat="40.7579556" lon="-3.6481718"><ele>912.1428571428571</ele><time>2026-04-10T08:35:10.001Z</time></trkpt><trkpt lat="40.7578979" lon="-3.6482425"><ele>911.8571428571428</ele><time>2026-04-10T08:35:11.001Z</time></trkpt><trkpt lat="40.757844" lon="-3.6482896"><ele>911.5714285714284</ele><time>2026-04-10T08:35:12.001Z</time></trkpt><trkpt lat="40.7577789" lon="-3.6483037"><ele>911.2857142857143</ele><time>2026-04-10T08:35:13.001Z</time></trkpt><trkpt lat="40.7577112" lon="-3.6483143"><ele>911.0</ele><time>2026-04-10T08:35:14.001Z</time></trkpt><trkpt lat="40.7576393" lon="-3.6483223"><ele>911.8333333333334</ele><time>2026-04-10T08:35:15Z</time></trkpt><trkpt lat="40.7575687" lon="-3.6483441"><ele>912.6666666666667</ele><time>2026-04-10T08:35:16.001Z</time></trkpt><trkpt lat="40.7575016" lon="-3.6483545"><ele>913.5</ele><time>2026-04-10T08:35:17.001Z</time></trkpt><trkpt lat="40.7574361" lon="-3.6483493"><ele>914.3333333333333</ele><time>2026-04-10T08:35:18.001Z</time></trkpt><trkpt lat="40.7573687" lon="-3.6483238"><ele>915.1666666666666</ele><time>2026-04-10T08:35:19.001Z</time></trkpt><trkpt lat="40.7572572" lon="-3.6483006"><ele>916.0</ele><time>2026-04-10T08:35:21.001Z</time></trkpt><trkpt lat="40.7571835" lon="-3.6484173"><ele>915.9999999999999</ele><time>2026-04-10T08:35:23.001Z</time></trkpt><trkpt lat="40.7571749" lon="-3.6485009"><ele>916.0</ele><time>2026-04-10T08:35:24Z</time></trkpt><trkpt lat="40.7571592" lon="-3.6486617"><ele>916.0</ele><time>2026-04-10T08:35:26.001Z</time></trkpt><trkpt lat="40.7571244" lon="-3.6487331"><ele>916.0</ele><time>2026-04-10T08:35:27.001Z</time></trkpt><trkpt lat="40.7570648" lon="-3.648765"><ele>915.9999999999999</ele><time>2026-04-10T08:35:28.001Z</time></trkpt><trkpt lat="40.7569979" lon="-3.648774"><ele>916.0</ele><time>2026-04-10T08:35:29Z</time></trkpt><trkpt lat="40.7569279" lon="-3.6487765"><ele>916.5714285714286</ele><time>2026-04-10T08:35:30.001Z</time></trkpt><trkpt lat="40.7568512" lon="-3.6487656"><ele>917.1428571428571</ele><time>2026-04-10T08:35:31.001Z</time></trkpt><trkpt lat="40.7567853" lon="-3.6487595"><ele>917.7142857142857</ele><time>2026-04-10T08:35:32.001Z</time></trkpt><trkpt lat="40.7567201" lon="-3.6487787"><ele>918.2857142857142</ele><time>2026-04-10T08:35:33.001Z</time></trkpt><trkpt lat="40.7566761" lon="-3.6488391"><ele>918.8571428571429</ele><time>2026-04-10T08:35:34.001Z</time></trkpt><trkpt lat="40.7566264" lon="-3.6489089"><ele>919.4285714285713</ele><time>2026-04-10T08:35:35.001Z</time></trkpt><trkpt lat="40.7565756" lon="-3.6489819"><ele>919.9999999999999</ele><time>2026-04-10T08:35:36Z</time></trkpt><trkpt lat="40.7564669" lon="-3.6490517"><ele>920.0000000000001</ele><time>2026-04-10T08:35:38.001Z</time></trkpt><trkpt lat="40.7564004" lon="-3.6490477"><ele>920.0</ele><time>2026-04-10T08:35:39Z</time></trkpt><trkpt lat="40.7563316" lon="-3.6490425"><ele>920.0</ele><time>2026-04-10T08:35:40.001Z</time></trkpt><trkpt lat="40.7562507" lon="-3.6490583"><ele>920.0</ele><time>2026-04-10T08:35:41.001Z</time></trkpt><trkpt lat="40.7561687" lon="-3.6490811"><ele>920.0000000000001</ele><time>2026-04-10T08:35:42Z</time></trkpt><trkpt lat="40.7560856" lon="-3.649105"><ele>920.0</ele><time>2026-04-10T08:35:43Z</time></trkpt><trkpt lat="40.7560017" lon="-3.6491339"><ele>920.8</ele><time>2026-04-10T08:35:44.001Z</time></trkpt><trkpt lat="40.7559201" lon="-3.6491818"><ele>921.6</ele><time>2026-04-10T08:35:45.001Z</time></trkpt><trkpt lat="40.7558449" lon="-3.6492408"><ele>922.4000000000001</ele><time>2026-04-10T08:35:46.001Z</time></trkpt><trkpt lat="40.755773" lon="-3.6493211"><ele>923.2</ele><time>2026-04-10T08:35:47.001Z</time></trkpt><trkpt lat="40.7556952" lon="-3.6494065"><ele>924.0</ele><time>2026-04-10T08:35:48.001Z</time></trkpt><trkpt lat="40.7556049" lon="-3.6494815"><ele>924.2</ele><time>2026-04-10T08:35:49.001Z</time></trkpt><trkpt lat="40.7555193" lon="-3.6495396"><ele>924.4000000000001</ele><time>2026-04-10T08:35:50.001Z</time></trkpt><trkpt lat="40.7554355" lon="-3.6495958"><ele>924.6</ele><time>2026-04-10T08:35:51.001Z</time></trkpt><trkpt lat="40.7553475" lon="-3.6496457"><ele>924.8</ele><time>2026-04-10T08:35:52.001Z</time></trkpt><trkpt lat="40.7552601" lon="-3.6496954"><ele>925.0</ele><time>2026-04-10T08:35:53Z</time></trkpt><trkpt lat="40.7551626" lon="-3.6497495"><ele>925.8</ele><time>2026-04-10T08:35:54Z</time></trkpt><trkpt lat="40.7550642" lon="-3.6498121"><ele>926.6</ele><time>2026-04-10T08:35:55.001Z</time></trkpt><trkpt lat="40.7549799" lon="-3.6498753"><ele>927.4000000000001</ele><time>2026-04-10T08:35:56.001Z</time></trkpt><trkpt lat="40.7548903" lon="-3.6499362"><ele>928.2</ele><time>2026-04-10T08:35:57.001Z</time></trkpt><trkpt lat="40.7548004" lon="-3.6499811"><ele>929.0</ele><time>2026-04-10T08:35:58.001Z</time></trkpt><trkpt lat="40.7547009" lon="-3.6500263"><ele>929.0000000000001</ele><time>2026-04-10T08:35:59.001Z</time></trkpt><trkpt lat="40.7546088" lon="-3.6500701"><ele>929.0</ele><time>2026-04-10T08:36:00.001Z</time></trkpt><trkpt lat="40.7545333" lon="-3.6501355"><ele>929.0</ele><time>2026-04-10T08:36:01.001Z</time></trkpt><trkpt lat="40.7544833" lon="-3.6502085"><ele>929.0</ele><time>2026-04-10T08:36:02.001Z</time></trkpt><trkpt lat="40.7544527" lon="-3.6502936"><ele>929.0000000000001</ele><time>2026-04-10T08:36:03.001Z</time></trkpt><trkpt lat="40.7544269" lon="-3.6503724"><ele>929.0</ele><time>2026-04-10T08:36:04.001Z</time></trkpt><trkpt lat="40.7543894" lon="-3.6504415"><ele>929.7142857142858</ele><time>2026-04-10T08:36:05.001Z</time></trkpt><trkpt lat="40.7543301" lon="-3.6505005"><ele>930.4285714285716</ele><time>2026-04-10T08:36:06.001Z</time></trkpt><trkpt lat="40.7542728" lon="-3.650561"><ele>931.1428571428571</ele><time>2026-04-10T08:36:07.001Z</time></trkpt><trkpt lat="40.7542145" lon="-3.6506365"><ele>931.8571428571429</ele><time>2026-04-10T08:36:08.001Z</time></trkpt><trkpt lat="40.7541566" lon="-3.6507114"><ele>932.5714285714286</ele><time>2026-04-10T08:36:09.001Z</time></trkpt><trkpt lat="40.7541085" lon="-3.6507652"><ele>933.2857142857142</ele><time>2026-04-10T08:36:10.001Z</time></trkpt><trkpt lat="40.7540429" lon="-3.6507791"><ele>933.9999999999999</ele><time>2026-04-10T08:36:11.001Z</time></trkpt><trkpt lat="40.7539616" lon="-3.650764"><ele>933.9999999999999</ele><time>2026-04-10T08:36:12.001Z</time></trkpt><trkpt lat="40.7538855" lon="-3.6507497"><ele>934.0</ele><time>2026-04-10T08:36:13.001Z</time></trkpt><trkpt lat="40.7538055" lon="-3.6507262"><ele>934.0</ele><time>2026-04-10T08:36:14.001Z</time></trkpt><trkpt lat="40.7537199" lon="-3.6506973"><ele>934.0</ele><time>2026-04-10T08:36:15Z</time></trkpt><trkpt lat="40.7536434" lon="-3.6506924"><ele>933.9999999999999</ele><time>2026-04-10T08:36:16.001Z</time></trkpt><trkpt lat="40.7535789" lon="-3.6507149"><ele>934.0</ele><time>2026-04-10T08:36:17.001Z</time></trkpt><trkpt lat="40.7534645" lon="-3.6507275"><ele>934.2</ele><time>2026-04-10T08:36:19.001Z</time></trkpt><trkpt lat="40.7533356" lon="-3.6506901"><ele>934.4000000000001</ele><time>2026-04-10T08:36:21.001Z</time></trkpt><trkpt lat="40.7532572" lon="-3.6506802"><ele>934.6</ele><time>2026-04-10T08:36:22.001Z</time></trkpt><trkpt lat="40.7531729" lon="-3.6506679"><ele>934.8</ele><time>2026-04-10T08:36:23.001Z</time></trkpt><trkpt lat="40.7530839" lon="-3.6506582"><ele>935.0</ele><time>2026-04-10T08:36:24.001Z</time></trkpt><trkpt lat="40.7529941" lon="-3.6506588"><ele>935.0</ele><time>2026-04-10T08:36:25.001Z</time></trkpt><trkpt lat="40.7529037" lon="-3.6506786"><ele>935.0</ele><time>2026-04-10T08:36:26.001Z</time></trkpt><trkpt lat="40.7527979" lon="-3.6507027"><ele>935.0</ele><time>2026-04-10T08:36:27Z</time></trkpt><trkpt lat="40.7526922" lon="-3.6507183"><ele>935.0</ele><time>2026-04-10T08:36:28.001Z</time></trkpt><trkpt lat="40.7525871" lon="-3.6507389"><ele>935.0</ele><time>2026-04-10T08:36:29.001Z</time></trkpt><trkpt lat="40.7524872" lon="-3.6507666"><ele>935.8</ele><time>2026-04-10T08:36:30.001Z</time></trkpt><trkpt lat="40.7523878" lon="-3.6508017"><ele>936.6</ele><time>2026-04-10T08:36:31Z</time></trkpt><trkpt lat="40.7522927" lon="-3.6508388"><ele>937.4000000000001</ele><time>2026-04-10T08:36:32Z</time></trkpt><trkpt lat="40.7522031" lon="-3.6508631"><ele>938.2</ele><time>2026-04-10T08:36:33.001Z</time></trkpt><trkpt lat="40.7521122" lon="-3.6508706"><ele>939.0</ele><time>2026-04-10T08:36:34.001Z</time></trkpt><trkpt lat="40.7520163" lon="-3.6508715"><ele>939.0</ele><time>2026-04-10T08:36:35.001Z</time></trkpt><trkpt lat="40.7519291" lon="-3.6508615"><ele>939.0</ele><time>2026-04-10T08:36:36.001Z</time></trkpt><trkpt lat="40.7518457" lon="-3.6508595"><ele>939.0</ele><time>2026-04-10T08:36:37.001Z</time></trkpt><trkpt lat="40.7517722" lon="-3.6508782"><ele>939.0</ele><time>2026-04-10T08:36:38Z</time></trkpt><trkpt lat="40.751702" lon="-3.6509272"><ele>939.0</ele><time>2026-04-10T08:36:39.001Z</time></trkpt><trkpt lat="40.7516302" lon="-3.6509838"><ele>939.0</ele><time>2026-04-10T08:36:40Z</time></trkpt><trkpt lat="40.7515448" lon="-3.6510123"><ele>939.1666666666666</ele><time>2026-04-10T08:36:41.001Z</time></trkpt><trkpt lat="40.7514603" lon="-3.6510312"><ele>939.3333333333333</ele><time>2026-04-10T08:36:42.001Z</time></trkpt><trkpt lat="40.7513729" lon="-3.651046"><ele>939.5</ele><time>2026-04-10T08:36:43.001Z</time></trkpt><trkpt lat="40.7512822" lon="-3.6510554"><ele>939.6666666666666</ele><time>2026-04-10T08:36:44.001Z</time></trkpt><trkpt lat="40.7511992" lon="-3.6510392"><ele>939.8333333333333</ele><time>2026-04-10T08:36:45.001Z</time></trkpt><trkpt lat="40.7511148" lon="-3.6510197"><ele>940.0</ele><time>2026-04-10T08:36:46.001Z</time></trkpt><trkpt lat="40.7510384" lon="-3.6510025"><ele>940.3333333333333</ele><time>2026-04-10T08:36:47.001Z</time></trkpt><trkpt lat="40.7509721" lon="-3.650989"><ele>940.6666666666666</ele><time>2026-04-10T08:36:48.001Z</time></trkpt><trkpt lat="40.7509022" lon="-3.6509822"><ele>941.0</ele><time>2026-04-10T08:36:49.001Z</time></trkpt><trkpt lat="40.750773" lon="-3.6510371"><ele>941.3333333333333</ele><time>2026-04-10T08:36:51Z</time></trkpt><trkpt lat="40.7507125" lon="-3.6510805"><ele>941.6666666666666</ele><time>2026-04-10T08:36:52.001Z</time></trkpt><trkpt lat="40.750659" lon="-3.6511352"><ele>942.0</ele><time>2026-04-10T08:36:53Z</time></trkpt><trkpt lat="40.7506146" lon="-3.6512042"><ele>942.3333333333334</ele><time>2026-04-10T08:36:54.001Z</time></trkpt><trkpt lat="40.750572" lon="-3.6512778"><ele>942.6666666666667</ele><time>2026-04-10T08:36:55.001Z</time></trkpt><trkpt lat="40.7505193" lon="-3.6513528"><ele>943.0</ele><time>2026-04-10T08:36:56.001Z</time></trkpt><trkpt lat="40.7504589" lon="-3.6514245"><ele>943.3333333333334</ele><time>2026-04-10T08:36:57.001Z</time></trkpt><trkpt lat="40.7503913" lon="-3.6514983"><ele>943.6666666666667</ele><time>2026-04-10T08:36:58.001Z</time></trkpt><trkpt lat="40.7503203" lon="-3.6515778"><ele>944.0</ele><time>2026-04-10T08:36:59.001Z</time></trkpt><trkpt lat="40.7502411" lon="-3.6516632"><ele>944.6666666666667</ele><time>2026-04-10T08:37:00.001Z</time></trkpt><trkpt lat="40.7501642" lon="-3.6517404"><ele>945.3333333333334</ele><time>2026-04-10T08:37:01.001Z</time></trkpt><trkpt lat="40.7500868" lon="-3.6518142"><ele>946.0</ele><time>2026-04-10T08:37:02.001Z</time></trkpt><trkpt lat="40.7500143" lon="-3.6518879"><ele>946.6666666666667</ele><time>2026-04-10T08:37:03.001Z</time></trkpt><trkpt lat="40.7499438" lon="-3.6519505"><ele>947.3333333333334</ele><time>2026-04-10T08:37:04Z</time></trkpt><trkpt lat="40.749875" lon="-3.6520053"><ele>948.0</ele><time>2026-04-10T08:37:05.001Z</time></trkpt><trkpt lat="40.7498026" lon="-3.6520432"><ele>948.8</ele><time>2026-04-10T08:37:06.001Z</time></trkpt><trkpt lat="40.7497314" lon="-3.6520701"><ele>949.5999999999999</ele><time>2026-04-10T08:37:07Z</time></trkpt><trkpt lat="40.7496261" lon="-3.652096"><ele>950.4000000000001</ele><time>2026-04-10T08:37:09.001Z</time></trkpt><trkpt lat="40.7495176" lon="-3.6521612"><ele>951.2</ele><time>2026-04-10T08:37:50.001Z</time></trkpt><trkpt lat="40.7494271" lon="-3.6522033"><ele>952.0</ele><time>2026-04-10T08:37:52.001Z</time></trkpt><trkpt lat="40.7493136" lon="-3.6522778"><ele>952.8333333333333</ele><time>2026-04-10T08:37:54.001Z</time></trkpt><trkpt lat="40.7492519" lon="-3.6523266"><ele>953.6666666666666</ele><time>2026-04-10T08:37:55.001Z</time></trkpt><trkpt lat="40.7491919" lon="-3.6523789"><ele>954.5</ele><time>2026-04-10T08:37:56.001Z</time></trkpt><trkpt lat="40.7490991" lon="-3.6524675"><ele>955.3333333333333</ele><time>2026-04-10T08:37:58.001Z</time></trkpt><trkpt lat="40.7490461" lon="-3.6525191"><ele>956.1666666666666</ele><time>2026-04-10T08:38:01.001Z</time></trkpt><trkpt lat="40.7489437" lon="-3.6525824"><ele>957.0</ele><time>2026-04-10T08:38:09Z</time></trkpt><trkpt lat="40.7488478" lon="-3.6526338"><ele>957.0</ele><time>2026-04-10T08:38:11.001Z</time></trkpt><trkpt lat="40.7487895" lon="-3.6526707"><ele>957.0000000000001</ele><time>2026-04-10T08:38:12.001Z</time></trkpt><trkpt lat="40.7487301" lon="-3.6527052"><ele>957.0</ele><time>2026-04-10T08:38:13.001Z</time></trkpt><trkpt lat="40.7486654" lon="-3.6527378"><ele>957.0</ele><time>2026-04-10T08:38:14.001Z</time></trkpt><trkpt lat="40.7485963" lon="-3.6527734"><ele>957.0000000000001</ele><time>2026-04-10T08:38:15.001Z</time></trkpt><trkpt lat="40.7485252" lon="-3.6528086"><ele>957.0</ele><time>2026-04-10T08:38:16.001Z</time></trkpt><trkpt lat="40.7484542" lon="-3.6528456"><ele>957.0</ele><time>2026-04-10T08:38:17.001Z</time></trkpt><trkpt lat="40.7483837" lon="-3.6528868"><ele>958.1666666666666</ele><time>2026-04-10T08:38:18Z</time></trkpt><trkpt lat="40.7483134" lon="-3.652925"><ele>959.3333333333333</ele><time>2026-04-10T08:38:19.001Z</time></trkpt><trkpt lat="40.7482552" lon="-3.6529599"><ele>960.5</ele><time>2026-04-10T08:38:20.001Z</time></trkpt><trkpt lat="40.7481562" lon="-3.6530223"><ele>961.6666666666666</ele><time>2026-04-10T08:38:22.001Z</time></trkpt><trkpt lat="40.7480464" lon="-3.653092"><ele>962.8333333333333</ele><time>2026-04-10T08:38:24.001Z</time></trkpt><trkpt lat="40.7479884" lon="-3.6531407"><ele>964.0</ele><time>2026-04-10T08:38:25.001Z</time></trkpt><trkpt lat="40.7479335" lon="-3.6531854"><ele>963.9999999999999</ele><time>2026-04-10T08:38:26.001Z</time></trkpt><trkpt lat="40.7478275" lon="-3.6532722"><ele>964.0</ele><time>2026-04-10T08:38:28.001Z</time></trkpt><trkpt lat="40.7477618" lon="-3.6533072"><ele>964.0</ele><time>2026-04-10T08:38:29.001Z</time></trkpt><trkpt lat="40.7476949" lon="-3.6533401"><ele>964.0</ele><time>2026-04-10T08:38:30.001Z</time></trkpt><trkpt lat="40.7476322" lon="-3.6533786"><ele>963.9999999999999</ele><time>2026-04-10T08:38:31.001Z</time></trkpt><trkpt lat="40.7475754" lon="-3.6534232"><ele>964.0</ele><time>2026-04-10T08:38:32.001Z</time></trkpt><trkpt lat="40.7475202" lon="-3.6534641"><ele>964.4000000000001</ele><time>2026-04-10T08:38:33.001Z</time></trkpt><trkpt lat="40.74744" lon="-3.6535251"><ele>964.8000000000001</ele><time>2026-04-10T08:38:35Z</time></trkpt><trkpt lat="40.7473662" lon="-3.6536097"><ele>965.1999999999999</ele><time>2026-04-10T08:38:37.001Z</time></trkpt><trkpt lat="40.7473063" lon="-3.6536867"><ele>965.5999999999999</ele><time>2026-04-10T08:38:39Z</time></trkpt><trkpt lat="40.7472231" lon="-3.6537612"><ele>966.0</ele><time>2026-04-10T08:38:41.001Z</time></trkpt><trkpt lat="40.7471486" lon="-3.6538562"><ele>966.1999999999999</ele><time>2026-04-10T08:38:43Z</time></trkpt><trkpt lat="40.7470803" lon="-3.6539062"><ele>966.3999999999999</ele><time>2026-04-10T08:38:45Z</time></trkpt><trkpt lat="40.7470062" lon="-3.6539633"><ele>966.6</ele><time>2026-04-10T08:38:47.001Z</time></trkpt><trkpt lat="40.7469168" lon="-3.6540258"><ele>966.8</ele><time>2026-04-10T08:38:49.001Z</time></trkpt><trkpt lat="40.7468183" lon="-3.6540984"><ele>967.0</ele><time>2026-04-10T08:38:51.001Z</time></trkpt><trkpt lat="40.7467303" lon="-3.6541967"><ele>967.1666666666666</ele><time>2026-04-10T08:38:53.001Z</time></trkpt><trkpt lat="40.7466646" lon="-3.6542851"><ele>967.3333333333333</ele><time>2026-04-10T08:38:55.001Z</time></trkpt><trkpt lat="40.7465958" lon="-3.6543457"><ele>967.5</ele><time>2026-04-10T08:38:57.001Z</time></trkpt><trkpt lat="40.746517" lon="-3.6543997"><ele>967.6666666666667</ele><time>2026-04-10T08:38:59.001Z</time></trkpt><trkpt lat="40.7465818" lon="-3.6543504"><ele>967.8333333333334</ele><time>2026-04-10T08:41:26.001Z</time></trkpt><trkpt lat="40.7466493" lon="-3.6542959"><ele>968.0</ele><time>2026-04-10T08:41:29.001Z</time></trkpt><trkpt lat="40.7467121" lon="-3.6542096"><ele>968.0</ele><time>2026-04-10T08:41:32.001Z</time></trkpt><trkpt lat="40.7467868" lon="-3.6541247"><ele>968.0</ele><time>2026-04-10T08:41:34.001Z</time></trkpt><trkpt lat="40.7468788" lon="-3.6540488"><ele>968.0</ele><time>2026-04-10T08:41:36.001Z</time></trkpt><trkpt lat="40.7469588" lon="-3.6539971"><ele>968.0</ele><time>2026-04-10T08:41:38.001Z</time></trkpt><trkpt lat="40.7470382" lon="-3.6539419"><ele>968.0</ele><time>2026-04-10T08:41:40.001Z</time></trkpt><trkpt lat="40.7471031" lon="-3.6538822"><ele>967.8333333333334</ele><time>2026-04-10T08:41:42.001Z</time></trkpt><trkpt lat="40.7471707" lon="-3.6538191"><ele>967.6666666666667</ele><time>2026-04-10T08:41:44.001Z</time></trkpt><trkpt lat="40.7472409" lon="-3.6537417"><ele>967.5</ele><time>2026-04-10T08:41:46.001Z</time></trkpt><trkpt lat="40.7473218" lon="-3.6536787"><ele>967.3333333333333</ele><time>2026-04-10T08:41:48.001Z</time></trkpt><trkpt lat="40.7473845" lon="-3.6536088"><ele>967.1666666666666</ele><time>2026-04-10T08:41:50.001Z</time></trkpt><trkpt lat="40.7474341" lon="-3.653534"><ele>967.0</ele><time>2026-04-10T08:41:52.001Z</time></trkpt><trkpt lat="40.7475127" lon="-3.6534694"><ele>966.8</ele><time>2026-04-10T08:41:54Z</time></trkpt><trkpt lat="40.7476041" lon="-3.6533931"><ele>966.6</ele><time>2026-04-10T08:41:56.001Z</time></trkpt><trkpt lat="40.7477011" lon="-3.6533179"><ele>966.3999999999999</ele><time>2026-04-10T08:41:58.001Z</time></trkpt><trkpt lat="40.7478026" lon="-3.6532522"><ele>966.1999999999999</ele><time>2026-04-10T08:42:00Z</time></trkpt><trkpt lat="40.7478954" lon="-3.6532017"><ele>966.0</ele><time>2026-04-10T08:42:02.001Z</time></trkpt><trkpt lat="40.7479987" lon="-3.6531279"><ele>965.5999999999999</ele><time>2026-04-10T08:42:04.001Z</time></trkpt><trkpt lat="40.7480853" lon="-3.6530708"><ele>965.1999999999999</ele><time>2026-04-10T08:42:06.001Z</time></trkpt><trkpt lat="40.7481386" lon="-3.6530029"><ele>964.8000000000001</ele><time>2026-04-10T08:42:15.001Z</time></trkpt><trkpt lat="40.7480293" lon="-3.6529944"><ele>964.4000000000001</ele><time>2026-04-10T08:42:23.001Z</time></trkpt><trkpt lat="40.7479218" lon="-3.6530215"><ele>964.0</ele><time>2026-04-10T08:42:25.001Z</time></trkpt><trkpt lat="40.7478564" lon="-3.6530311"><ele>964.0</ele><time>2026-04-10T08:42:26Z</time></trkpt><trkpt lat="40.747786" lon="-3.6530429"><ele>964.0000000000001</ele><time>2026-04-10T08:42:27.001Z</time></trkpt><trkpt lat="40.7477161" lon="-3.6530569"><ele>964.0</ele><time>2026-04-10T08:42:28.001Z</time></trkpt><trkpt lat="40.747649" lon="-3.6530672"><ele>964.0</ele><time>2026-04-10T08:42:29.001Z</time></trkpt><trkpt lat="40.7475853" lon="-3.6530812"><ele>964.0000000000001</ele><time>2026-04-10T08:42:30.001Z</time></trkpt><trkpt lat="40.747521" lon="-3.6530921"><ele>964.0</ele><time>2026-04-10T08:42:31.001Z</time></trkpt><trkpt lat="40.7474575" lon="-3.6531163"><ele>964.0</ele><time>2026-04-10T08:42:32.001Z</time></trkpt><trkpt lat="40.7473926" lon="-3.653164"><ele>964.3333333333333</ele><time>2026-04-10T08:42:33.001Z</time></trkpt><trkpt lat="40.7473291" lon="-3.6532142"><ele>964.6666666666666</ele><time>2026-04-10T08:42:34.001Z</time></trkpt><trkpt lat="40.7472614" lon="-3.6532733"><ele>965.0</ele><time>2026-04-10T08:42:35.001Z</time></trkpt><trkpt lat="40.7471975" lon="-3.6533449"><ele>965.3333333333333</ele><time>2026-04-10T08:42:36.001Z</time></trkpt><trkpt lat="40.7471322" lon="-3.6534093"><ele>965.6666666666666</ele><time>2026-04-10T08:42:37.001Z</time></trkpt><trkpt lat="40.7470641" lon="-3.6534736"><ele>966.0</ele><time>2026-04-10T08:42:38.001Z</time></trkpt><trkpt lat="40.7469798" lon="-3.6535392"><ele>966.0</ele><time>2026-04-10T08:42:39.001Z</time></trkpt><trkpt lat="40.7468802" lon="-3.653594"><ele>965.9999999999999</ele><time>2026-04-10T08:42:40.001Z</time></trkpt><trkpt lat="40.7467775" lon="-3.653647"><ele>965.9999999999999</ele><time>2026-04-10T08:42:41.001Z</time></trkpt><trkpt lat="40.7466829" lon="-3.6537087"><ele>966.0</ele><time>2026-04-10T08:42:42.001Z</time></trkpt><trkpt lat="40.7465976" lon="-3.6537694"><ele>966.0</ele><time>2026-04-10T08:42:43Z</time></trkpt><trkpt lat="40.7465119" lon="-3.653831"><ele>966.3333333333334</ele><time>2026-04-10T08:42:44.001Z</time></trkpt><trkpt lat="40.7464338" lon="-3.6538843"><ele>966.6666666666667</ele><time>2026-04-10T08:42:45.001Z</time></trkpt><trkpt lat="40.746366" lon="-3.6539321"><ele>967.0</ele><time>2026-04-10T08:42:46.001Z</time></trkpt><trkpt lat="40.7463069" lon="-3.6539818"><ele>967.3333333333334</ele><time>2026-04-10T08:42:47.001Z</time></trkpt><trkpt lat="40.746246" lon="-3.6540514"><ele>967.6666666666667</ele><time>2026-04-10T08:42:48.001Z</time></trkpt><trkpt lat="40.7461825" lon="-3.6541256"><ele>968.0</ele><time>2026-04-10T08:42:49.001Z</time></trkpt><trkpt lat="40.7461113" lon="-3.6541919"><ele>968.0</ele><time>2026-04-10T08:42:50.001Z</time></trkpt><trkpt lat="40.7460321" lon="-3.6542566"><ele>968.0</ele><time>2026-04-10T08:42:51.001Z</time></trkpt><trkpt lat="40.7459451" lon="-3.6543092"><ele>968.0</ele><time>2026-04-10T08:42:52.001Z</time></trkpt><trkpt lat="40.7458574" lon="-3.6543591"><ele>968.0</ele><time>2026-04-10T08:42:53.001Z</time></trkpt><trkpt lat="40.7457826" lon="-3.6544128"><ele>968.0</ele><time>2026-04-10T08:42:54.001Z</time></trkpt><trkpt lat="40.7457029" lon="-3.6544663"><ele>968.0</ele><time>2026-04-10T08:42:55.001Z</time></trkpt><trkpt lat="40.7456251" lon="-3.6545322"><ele>968.0</ele><time>2026-04-10T08:42:56.001Z</time></trkpt><trkpt lat="40.7455379" lon="-3.6545982"><ele>968.0</ele><time>2026-04-10T08:42:57.001Z</time></trkpt><trkpt lat="40.7454615" lon="-3.654657"><ele>968.0</ele><time>2026-04-10T08:42:58.001Z</time></trkpt><trkpt lat="40.7453972" lon="-3.6547082"><ele>968.0</ele><time>2026-04-10T08:42:59.001Z</time></trkpt><trkpt lat="40.7452969" lon="-3.654737"><ele>968.0</ele><time>2026-04-10T08:43:01.001Z</time></trkpt><trkpt lat="40.7452142" lon="-3.6546462"><ele>968.0</ele><time>2026-04-10T08:43:03Z</time></trkpt><trkpt lat="40.7451307" lon="-3.654588"><ele>968.0</ele><time>2026-04-10T08:43:05.001Z</time></trkpt><trkpt lat="40.7450721" lon="-3.6546523"><ele>968.0</ele><time>2026-04-10T08:43:07.001Z</time></trkpt><trkpt lat="40.7450618" lon="-3.6547588"><ele>968.0</ele><time>2026-04-10T08:43:09.001Z</time></trkpt><trkpt lat="40.7449968" lon="-3.6548855"><ele>968.1666666666667</ele><time>2026-04-10T08:43:11Z</time></trkpt><trkpt lat="40.7449489" lon="-3.6549623"><ele>968.3333333333334</ele><time>2026-04-10T08:43:12.001Z</time></trkpt><trkpt lat="40.7448867" lon="-3.6550459"><ele>968.5</ele><time>2026-04-10T08:43:13.001Z</time></trkpt><trkpt lat="40.744828" lon="-3.6551277"><ele>968.6666666666667</ele><time>2026-04-10T08:43:14.001Z</time></trkpt><trkpt lat="40.7447733" lon="-3.6552178"><ele>968.8333333333334</ele><time>2026-04-10T08:43:15.001Z</time></trkpt><trkpt lat="40.7447162" lon="-3.6553062"><ele>969.0</ele><time>2026-04-10T08:43:16.001Z</time></trkpt><trkpt lat="40.7446549" lon="-3.6553982"><ele>969.0</ele><time>2026-04-10T08:43:17.001Z</time></trkpt><trkpt lat="40.7445969" lon="-3.6554836"><ele>969.0</ele><time>2026-04-10T08:43:18.001Z</time></trkpt><trkpt lat="40.7445469" lon="-3.6555644"><ele>969.0</ele><time>2026-04-10T08:43:19.001Z</time></trkpt><trkpt lat="40.7444995" lon="-3.6556438"><ele>969.0</ele><time>2026-04-10T08:43:20.001Z</time></trkpt><trkpt lat="40.7444531" lon="-3.6557097"><ele>969.0</ele><time>2026-04-10T08:43:21.001Z</time></trkpt><trkpt lat="40.744406" lon="-3.6557801"><ele>969.0</ele><time>2026-04-10T08:43:22.001Z</time></trkpt><trkpt lat="40.7443589" lon="-3.6558556"><ele>969.0</ele><time>2026-04-10T08:43:23.001Z</time></trkpt><trkpt lat="40.7443088" lon="-3.655925"><ele>969.0</ele><time>2026-04-10T08:43:24.001Z</time></trkpt><trkpt lat="40.7442565" lon="-3.6559793"><ele>969.0</ele><time>2026-04-10T08:43:25.001Z</time></trkpt><trkpt lat="40.7441963" lon="-3.6560386"><ele>969.0</ele><time>2026-04-10T08:43:26.001Z</time></trkpt><trkpt lat="40.7441293" lon="-3.656097"><ele>969.0</ele><time>2026-04-10T08:43:27.001Z</time></trkpt><trkpt lat="40.7440578" lon="-3.6561613"><ele>969.0</ele><time>2026-04-10T08:43:28.001Z</time></trkpt><trkpt lat="40.7439766" lon="-3.6562231"><ele>969.6666666666666</ele><time>2026-04-10T08:43:29.001Z</time></trkpt><trkpt lat="40.7438973" lon="-3.6562862"><ele>970.3333333333333</ele><time>2026-04-10T08:43:30.001Z</time></trkpt><trkpt lat="40.7438259" lon="-3.6563409"><ele>971.0</ele><time>2026-04-10T08:43:31Z</time></trkpt><trkpt lat="40.7437629" lon="-3.6563955"><ele>971.6666666666666</ele><time>2026-04-10T08:43:32.001Z</time></trkpt><trkpt lat="40.7437186" lon="-3.6564604"><ele>972.3333333333333</ele><time>2026-04-10T08:43:33.001Z</time></trkpt><trkpt lat="40.7436733" lon="-3.6565315"><ele>973.0</ele><time>2026-04-10T08:43:34.001Z</time></trkpt><trkpt lat="40.7436263" lon="-3.6565966"><ele>973.4</ele><time>2026-04-10T08:43:35.001Z</time></trkpt><trkpt lat="40.7435371" lon="-3.6567006"><ele>973.8</ele><time>2026-04-10T08:43:37.001Z</time></trkpt><trkpt lat="40.7434589" lon="-3.6568151"><ele>974.2</ele><time>2026-04-10T08:43:39.001Z</time></trkpt><trkpt lat="40.7434218" lon="-3.656884"><ele>974.6</ele><time>2026-04-10T08:43:40.001Z</time></trkpt><trkpt lat="40.7433822" lon="-3.6569498"><ele>975.0</ele><time>2026-04-10T08:43:41.001Z</time></trkpt><trkpt lat="40.7433018" lon="-3.657053"><ele>975.8</ele><time>2026-04-10T08:43:43.001Z</time></trkpt><trkpt lat="40.743229" lon="-3.6571097"><ele>976.6</ele><time>2026-04-10T08:43:45.001Z</time></trkpt><trkpt lat="40.7431127" lon="-3.6570915"><ele>977.4000000000001</ele><time>2026-04-10T08:43:47.001Z</time></trkpt><trkpt lat="40.7429979" lon="-3.6570874"><ele>978.2</ele><time>2026-04-10T08:43:49.001Z</time></trkpt><trkpt lat="40.7428902" lon="-3.6570618"><ele>979.0</ele><time>2026-04-10T08:43:51.001Z</time></trkpt><trkpt lat="40.7428359" lon="-3.6571069"><ele>979.0</ele><time>2026-04-10T08:43:52.001Z</time></trkpt><trkpt lat="40.7427903" lon="-3.6571958"><ele>979.0000000000001</ele><time>2026-04-10T08:43:53.001Z</time></trkpt><trkpt lat="40.7427412" lon="-3.6572845"><ele>979.0000000000001</ele><time>2026-04-10T08:43:54.001Z</time></trkpt><trkpt lat="40.7426939" lon="-3.6573825"><ele>979.0</ele><time>2026-04-10T08:43:55.001Z</time></trkpt><trkpt lat="40.7426417" lon="-3.6574888"><ele>979.0</ele><time>2026-04-10T08:43:56.001Z</time></trkpt><trkpt lat="40.7425821" lon="-3.6575997"><ele>978.9999999999999</ele><time>2026-04-10T08:43:57.001Z</time></trkpt><trkpt lat="40.7425313" lon="-3.6577047"><ele>979.0</ele><time>2026-04-10T08:43:58Z</time></trkpt><trkpt lat="40.7424862" lon="-3.6577988"><ele>979.0</ele><time>2026-04-10T08:43:59.001Z</time></trkpt><trkpt lat="40.7424425" lon="-3.6578769"><ele>979.0</ele><time>2026-04-10T08:44:00.001Z</time></trkpt><trkpt lat="40.7423856" lon="-3.6579781"><ele>978.9999999999999</ele><time>2026-04-10T08:44:02.001Z</time></trkpt><trkpt lat="40.7423964" lon="-3.6580917"><ele>979.0</ele><time>2026-04-10T08:45:06.001Z</time></trkpt><trkpt lat="40.7424875" lon="-3.6581982"><ele>979.6666666666666</ele><time>2026-04-10T08:45:08.001Z</time></trkpt><trkpt lat="40.7425394" lon="-3.6582536"><ele>980.3333333333333</ele><time>2026-04-10T08:45:09.001Z</time></trkpt><trkpt lat="40.742597" lon="-3.6583194"><ele>981.0</ele><time>2026-04-10T08:45:10.001Z</time></trkpt><trkpt lat="40.7426666" lon="-3.6583981"><ele>981.6666666666667</ele><time>2026-04-10T08:45:11.001Z</time></trkpt><trkpt lat="40.7427426" lon="-3.6584816"><ele>982.3333333333334</ele><time>2026-04-10T08:45:12.001Z</time></trkpt><trkpt lat="40.7428072" lon="-3.6585632"><ele>983.0</ele><time>2026-04-10T08:45:13.001Z</time></trkpt><trkpt lat="40.742866" lon="-3.6586475"><ele>983.5714285714284</ele><time>2026-04-10T08:45:14.001Z</time></trkpt><trkpt lat="40.7429114" lon="-3.658729"><ele>984.1428571428571</ele><time>2026-04-10T08:45:15.001Z</time></trkpt><trkpt lat="40.7429517" lon="-3.658815"><ele>984.7142857142857</ele><time>2026-04-10T08:45:16.001Z</time></trkpt><trkpt lat="40.7429827" lon="-3.6589083"><ele>985.2857142857142</ele><time>2026-04-10T08:45:17.001Z</time></trkpt><trkpt lat="40.743015" lon="-3.6589886"><ele>985.8571428571429</ele><time>2026-04-10T08:45:18.001Z</time></trkpt><trkpt lat="40.7430641" lon="-3.6590498"><ele>986.4285714285714</ele><time>2026-04-10T08:45:19.001Z</time></trkpt><trkpt lat="40.7431234" lon="-3.6590989"><ele>987.0</ele><time>2026-04-10T08:45:20.001Z</time></trkpt><trkpt lat="40.7431746" lon="-3.6591509"><ele>987.0</ele><time>2026-04-10T08:45:21.001Z</time></trkpt><trkpt lat="40.7432094" lon="-3.6592264"><ele>987.0</ele><time>2026-04-10T08:45:22.001Z</time></trkpt><trkpt lat="40.7432314" lon="-3.6593077"><ele>987.0</ele><time>2026-04-10T08:45:23.001Z</time></trkpt><trkpt lat="40.7432524" lon="-3.6594537"><ele>987.0</ele><time>2026-04-10T08:45:25.001Z</time></trkpt><trkpt lat="40.7432246" lon="-3.65956"><ele>987.0</ele><time>2026-04-10T08:45:27.001Z</time></trkpt><trkpt lat="40.743183" lon="-3.6596316"><ele>987.0</ele><time>2026-04-10T08:45:30.001Z</time></trkpt><trkpt lat="40.7431114" lon="-3.6597534"><ele>986.8</ele><time>2026-04-10T08:45:33.001Z</time></trkpt><trkpt lat="40.7430543" lon="-3.6598662"><ele>986.6</ele><time>2026-04-10T08:45:35.001Z</time></trkpt><trkpt lat="40.7430211" lon="-3.6599851"><ele>986.3999999999999</ele><time>2026-04-10T08:45:37.001Z</time></trkpt><trkpt lat="40.743052" lon="-3.660139"><ele>986.1999999999999</ele><time>2026-04-10T08:45:39.001Z</time></trkpt><trkpt lat="40.7430833" lon="-3.6602199"><ele>986.0</ele><time>2026-04-10T08:45:40.001Z</time></trkpt><trkpt lat="40.7431139" lon="-3.6603061"><ele>986.3333333333334</ele><time>2026-04-10T08:45:41.001Z</time></trkpt><trkpt lat="40.7431437" lon="-3.6603939"><ele>986.6666666666667</ele><time>2026-04-10T08:45:42.001Z</time></trkpt><trkpt lat="40.7431773" lon="-3.660488"><ele>987.0</ele><time>2026-04-10T08:45:43.001Z</time></trkpt><trkpt lat="40.7432098" lon="-3.6605838"><ele>987.3333333333333</ele><time>2026-04-10T08:45:44.001Z</time></trkpt><trkpt lat="40.7432436" lon="-3.66068"><ele>987.6666666666666</ele><time>2026-04-10T08:45:45.001Z</time></trkpt><trkpt lat="40.7432756" lon="-3.6607786"><ele>988.0</ele><time>2026-04-10T08:45:46.001Z</time></trkpt><trkpt lat="40.7433068" lon="-3.660868"><ele>988.0</ele><time>2026-04-10T08:45:47.001Z</time></trkpt><trkpt lat="40.7433262" lon="-3.6609647"><ele>988.0</ele><time>2026-04-10T08:45:48.001Z</time></trkpt><trkpt lat="40.7433498" lon="-3.6610639"><ele>988.0</ele><time>2026-04-10T08:45:49.001Z</time></trkpt><trkpt lat="40.7433749" lon="-3.6611516"><ele>988.0</ele><time>2026-04-10T08:45:50.001Z</time></trkpt><trkpt lat="40.7434047" lon="-3.6612317"><ele>988.0</ele><time>2026-04-10T08:45:51.001Z</time></trkpt><trkpt lat="40.7434304" lon="-3.661314"><ele>988.0</ele><time>2026-04-10T08:45:52.001Z</time></trkpt><trkpt lat="40.7434505" lon="-3.6613967"><ele>988.0</ele><time>2026-04-10T08:45:53.001Z</time></trkpt><trkpt lat="40.743486" lon="-3.6614818"><ele>987.9999999999999</ele><time>2026-04-10T08:45:54Z</time></trkpt><trkpt lat="40.7435255" lon="-3.6615783"><ele>988.0</ele><time>2026-04-10T08:45:55.001Z</time></trkpt><trkpt lat="40.7435599" lon="-3.6616816"><ele>988.0</ele><time>2026-04-10T08:45:56Z</time></trkpt><trkpt lat="40.7435969" lon="-3.6617974"><ele>988.0</ele><time>2026-04-10T08:45:57.001Z</time></trkpt><trkpt lat="40.7436365" lon="-3.6619057"><ele>987.9999999999999</ele><time>2026-04-10T08:45:58.001Z</time></trkpt><trkpt lat="40.7436694" lon="-3.662004"><ele>988.0</ele><time>2026-04-10T08:45:59.001Z</time></trkpt><trkpt lat="40.7437054" lon="-3.6620887"><ele>987.9999999999999</ele><time>2026-04-10T08:46:00.001Z</time></trkpt><trkpt lat="40.7437324" lon="-3.6621778"><ele>988.0</ele><time>2026-04-10T08:46:01.001Z</time></trkpt><trkpt lat="40.7437478" lon="-3.6622791"><ele>988.0</ele><time>2026-04-10T08:46:02.001Z</time></trkpt><trkpt lat="40.7437657" lon="-3.6623787"><ele>988.0</ele><time>2026-04-10T08:46:03.001Z</time></trkpt><trkpt lat="40.7437813" lon="-3.6624808"><ele>987.9999999999999</ele><time>2026-04-10T08:46:04.001Z</time></trkpt><trkpt lat="40.743794" lon="-3.6625763"><ele>988.0</ele><time>2026-04-10T08:46:05Z</time></trkpt><trkpt lat="40.7438156" lon="-3.6626665"><ele>988.0</ele><time>2026-04-10T08:46:06.001Z</time></trkpt><trkpt lat="40.7438584" lon="-3.6627369"><ele>988.0</ele><time>2026-04-10T08:46:07.001Z</time></trkpt><trkpt lat="40.7439118" lon="-3.6628033"><ele>988.0</ele><time>2026-04-10T08:46:08.001Z</time></trkpt><trkpt lat="40.7439528" lon="-3.6628734"><ele>988.0</ele><time>2026-04-10T08:46:09Z</time></trkpt><trkpt lat="40.7439859" lon="-3.662946"><ele>988.0</ele><time>2026-04-10T08:46:10.001Z</time></trkpt><trkpt lat="40.7440296" lon="-3.6630091"><ele>988.0</ele><time>2026-04-10T08:46:11.001Z</time></trkpt><trkpt lat="40.7440765" lon="-3.6630654"><ele>988.0</ele><time>2026-04-10T08:46:12.001Z</time></trkpt><trkpt lat="40.7441353" lon="-3.6631227"><ele>988.6666666666666</ele><time>2026-04-10T08:46:13.001Z</time></trkpt><trkpt lat="40.7441951" lon="-3.6632063"><ele>989.3333333333333</ele><time>2026-04-10T08:46:14.001Z</time></trkpt><trkpt lat="40.7442421" lon="-3.6632802"><ele>990.0</ele><time>2026-04-10T08:46:15.001Z</time></trkpt><trkpt lat="40.7442786" lon="-3.6633532"><ele>990.6666666666667</ele><time>2026-04-10T08:46:16.001Z</time></trkpt><trkpt lat="40.744306" lon="-3.6634353"><ele>991.3333333333334</ele><time>2026-04-10T08:46:17.001Z</time></trkpt><trkpt lat="40.7443247" lon="-3.663536"><ele>992.0</ele><time>2026-04-10T08:46:18.001Z</time></trkpt><trkpt lat="40.7443592" lon="-3.6636264"><ele>991.6666666666667</ele><time>2026-04-10T08:46:19.001Z</time></trkpt><trkpt lat="40.7443927" lon="-3.6637131"><ele>991.3333333333334</ele><time>2026-04-10T08:46:20.001Z</time></trkpt><trkpt lat="40.7444205" lon="-3.6637958"><ele>991.0</ele><time>2026-04-10T08:46:21.001Z</time></trkpt><trkpt lat="40.7444497" lon="-3.6638725"><ele>990.6666666666667</ele><time>2026-04-10T08:46:22.001Z</time></trkpt><trkpt lat="40.7445159" lon="-3.6639973"><ele>990.3333333333334</ele><time>2026-04-10T08:46:24.001Z</time></trkpt><trkpt lat="40.7445652" lon="-3.6640652"><ele>990.0</ele><time>2026-04-10T08:46:25.001Z</time></trkpt><trkpt lat="40.7446232" lon="-3.6641355"><ele>990.0</ele><time>2026-04-10T08:46:26.001Z</time></trkpt><trkpt lat="40.7446901" lon="-3.6642042"><ele>990.0</ele><time>2026-04-10T08:46:27.001Z</time></trkpt><trkpt lat="40.7447612" lon="-3.664275"><ele>990.0</ele><time>2026-04-10T08:46:28Z</time></trkpt><trkpt lat="40.7448358" lon="-3.6643371"><ele>990.0</ele><time>2026-04-10T08:46:29.001Z</time></trkpt><trkpt lat="40.7449173" lon="-3.6643948"><ele>990.0</ele><time>2026-04-10T08:46:30.001Z</time></trkpt><trkpt lat="40.7449955" lon="-3.6644596"><ele>990.0</ele><time>2026-04-10T08:46:31.001Z</time></trkpt><trkpt lat="40.7450687" lon="-3.6645167"><ele>991.5</ele><time>2026-04-10T08:46:32.001Z</time></trkpt><trkpt lat="40.7451394" lon="-3.6645598"><ele>993.0</ele><time>2026-04-10T08:46:33.001Z</time></trkpt><trkpt lat="40.7452025" lon="-3.6645948"><ele>994.5</ele><time>2026-04-10T08:46:34.001Z</time></trkpt><trkpt lat="40.7452994" lon="-3.6646281"><ele>996.0</ele><time>2026-04-10T08:46:36.001Z</time></trkpt><trkpt lat="40.7454037" lon="-3.6646894"><ele>997.5</ele><time>2026-04-10T08:46:38.001Z</time></trkpt><trkpt lat="40.745461" lon="-3.6647251"><ele>999.0</ele><time>2026-04-10T08:46:39.001Z</time></trkpt><trkpt lat="40.745584" lon="-3.664749"><ele>999.0</ele><time>2026-04-10T08:46:41.001Z</time></trkpt><trkpt lat="40.7456581" lon="-3.6647438"><ele>999.0</ele><time>2026-04-10T08:46:42Z</time></trkpt><trkpt lat="40.7457358" lon="-3.6647419"><ele>999.0</ele><time>2026-04-10T08:46:43.001Z</time></trkpt><trkpt lat="40.745818" lon="-3.6647492"><ele>999.0</ele><time>2026-04-10T08:46:44Z</time></trkpt><trkpt lat="40.7459024" lon="-3.6647677"><ele>999.0</ele><time>2026-04-10T08:46:45.001Z</time></trkpt><trkpt lat="40.7459901" lon="-3.664794"><ele>999.0</ele><time>2026-04-10T08:46:46.001Z</time></trkpt><trkpt lat="40.7460684" lon="-3.6648441"><ele>998.6666666666666</ele><time>2026-04-10T08:46:47.001Z</time></trkpt><trkpt lat="40.7461443" lon="-3.6649016"><ele>998.3333333333333</ele><time>2026-04-10T08:46:48.001Z</time></trkpt><trkpt lat="40.7462183" lon="-3.6649619"><ele>998.0</ele><time>2026-04-10T08:46:49.001Z</time></trkpt><trkpt lat="40.7462908" lon="-3.6650154"><ele>997.6666666666666</ele><time>2026-04-10T08:46:50.001Z</time></trkpt><trkpt lat="40.7463634" lon="-3.6650701"><ele>997.3333333333333</ele><time>2026-04-10T08:46:51Z</time></trkpt><trkpt lat="40.7464391" lon="-3.6651419"><ele>997.0</ele><time>2026-04-10T08:46:52.001Z</time></trkpt><trkpt lat="40.7465142" lon="-3.6652255"><ele>996.8</ele><time>2026-04-10T08:46:53.001Z</time></trkpt><trkpt lat="40.7465946" lon="-3.6653127"><ele>996.6</ele><time>2026-04-10T08:46:54.001Z</time></trkpt><trkpt lat="40.7466713" lon="-3.6653951"><ele>996.3999999999999</ele><time>2026-04-10T08:46:55.001Z</time></trkpt><trkpt lat="40.746744" lon="-3.6654841"><ele>996.1999999999999</ele><time>2026-04-10T08:46:56.001Z</time></trkpt><trkpt lat="40.7468123" lon="-3.6655797"><ele>996.0</ele><time>2026-04-10T08:46:57.001Z</time></trkpt><trkpt lat="40.7468819" lon="-3.6656814"><ele>996.0</ele><time>2026-04-10T08:46:58.001Z</time></trkpt><trkpt lat="40.7469474" lon="-3.6657838"><ele>995.9999999999999</ele><time>2026-04-10T08:46:59.001Z</time></trkpt><trkpt lat="40.7470138" lon="-3.6658782"><ele>995.9999999999999</ele><time>2026-04-10T08:47:00.001Z</time></trkpt><trkpt lat="40.7470872" lon="-3.6659649"><ele>996.0</ele><time>2026-04-10T08:47:01.001Z</time></trkpt><trkpt lat="40.7471578" lon="-3.6660507"><ele>996.0</ele><time>2026-04-10T08:47:02Z</time></trkpt><trkpt lat="40.7472279" lon="-3.6661445"><ele>995.1999999999999</ele><time>2026-04-10T08:47:03.001Z</time></trkpt><trkpt lat="40.7472851" lon="-3.66626"><ele>994.3999999999999</ele><time>2026-04-10T08:47:04Z</time></trkpt><trkpt lat="40.7473423" lon="-3.6663768"><ele>993.6</ele><time>2026-04-10T08:47:05.001Z</time></trkpt><trkpt lat="40.7473895" lon="-3.6664995"><ele>992.8</ele><time>2026-04-10T08:47:06.001Z</time></trkpt><trkpt lat="40.7474373" lon="-3.6666198"><ele>992.0</ele><time>2026-04-10T08:47:07.001Z</time></trkpt><trkpt lat="40.7474846" lon="-3.6667443"><ele>992.0</ele><time>2026-04-10T08:47:08.001Z</time></trkpt><trkpt lat="40.7475273" lon="-3.6668666"><ele>992.0</ele><time>2026-04-10T08:47:09.001Z</time></trkpt><trkpt lat="40.74757" lon="-3.6669887"><ele>992.0</ele><time>2026-04-10T08:47:10.001Z</time></trkpt><trkpt lat="40.7476066" lon="-3.6671124"><ele>992.0</ele><time>2026-04-10T08:47:11.001Z</time></trkpt><trkpt lat="40.7476468" lon="-3.6672321"><ele>992.0</ele><time>2026-04-10T08:47:12.001Z</time></trkpt><trkpt lat="40.7476827" lon="-3.6673528"><ele>990.4000000000001</ele><time>2026-04-10T08:47:13.001Z</time></trkpt><trkpt lat="40.7477123" lon="-3.6674733"><ele>988.8000000000001</ele><time>2026-04-10T08:47:14.001Z</time></trkpt><trkpt lat="40.7477441" lon="-3.6675892"><ele>987.2</ele><time>2026-04-10T08:47:15.001Z</time></trkpt><trkpt lat="40.7477728" lon="-3.6676844"><ele>985.6</ele><time>2026-04-10T08:47:16.001Z</time></trkpt><trkpt lat="40.7478092" lon="-3.6677566"><ele>984.0</ele><time>2026-04-10T08:47:17.001Z</time></trkpt><trkpt lat="40.7479244" lon="-3.667858"><ele>981.6</ele><time>2026-04-10T08:47:19Z</time></trkpt><trkpt lat="40.7480093" lon="-3.6678972"><ele>979.2</ele><time>2026-04-10T08:47:20Z</time></trkpt><trkpt lat="40.7480864" lon="-3.6679616"><ele>976.8000000000001</ele><time>2026-04-10T08:47:21.001Z</time></trkpt><trkpt lat="40.7481556" lon="-3.6680489"><ele>974.4000000000001</ele><time>2026-04-10T08:47:22Z</time></trkpt><trkpt lat="40.7482228" lon="-3.6681314"><ele>972.0</ele><time>2026-04-10T08:47:23.001Z</time></trkpt><trkpt lat="40.7482947" lon="-3.6681992"><ele>972.0</ele><time>2026-04-10T08:47:24.001Z</time></trkpt><trkpt lat="40.748366" lon="-3.6682501"><ele>972.0</ele><time>2026-04-10T08:47:25.001Z</time></trkpt><trkpt lat="40.7484307" lon="-3.6682904"><ele>972.0</ele><time>2026-04-10T08:47:26.001Z</time></trkpt><trkpt lat="40.7484941" lon="-3.6683139"><ele>972.0</ele><time>2026-04-10T08:47:27.001Z</time></trkpt><trkpt lat="40.7485692" lon="-3.6683279"><ele>972.0</ele><time>2026-04-10T08:47:28.001Z</time></trkpt><trkpt lat="40.7486506" lon="-3.6683392"><ele>972.0</ele><time>2026-04-10T08:47:29.001Z</time></trkpt><trkpt lat="40.7487343" lon="-3.6683464"><ele>971.0</ele><time>2026-04-10T08:47:30.001Z</time></trkpt><trkpt lat="40.7488121" lon="-3.6683472"><ele>970.0</ele><time>2026-04-10T08:47:31.001Z</time></trkpt><trkpt lat="40.7488881" lon="-3.6683393"><ele>969.0</ele><time>2026-04-10T08:47:32.001Z</time></trkpt><trkpt lat="40.7489625" lon="-3.6683336"><ele>968.0</ele><time>2026-04-10T08:47:33.001Z</time></trkpt><trkpt lat="40.7490425" lon="-3.6683248"><ele>967.0</ele><time>2026-04-10T08:47:34.001Z</time></trkpt><trkpt lat="40.7491186" lon="-3.6683048"><ele>966.0</ele><time>2026-04-10T08:47:35.001Z</time></trkpt><trkpt lat="40.7491876" lon="-3.6682719"><ele>966.0</ele><time>2026-04-10T08:47:36.001Z</time></trkpt><trkpt lat="40.7492578" lon="-3.6682232"><ele>966.0</ele><time>2026-04-10T08:47:37.001Z</time></trkpt><trkpt lat="40.7493215" lon="-3.6682037"><ele>966.0</ele><time>2026-04-10T08:47:38.001Z</time></trkpt><trkpt lat="40.7493885" lon="-3.6681951"><ele>966.0</ele><time>2026-04-10T08:47:39Z</time></trkpt><trkpt lat="40.7494556" lon="-3.6681874"><ele>966.0</ele><time>2026-04-10T08:47:40.001Z</time></trkpt><trkpt lat="40.7495391" lon="-3.6681789"><ele>966.0</ele><time>2026-04-10T08:47:41Z</time></trkpt><trkpt lat="40.7496182" lon="-3.6681678"><ele>966.0</ele><time>2026-04-10T08:47:42Z</time></trkpt><trkpt lat="40.749694" lon="-3.668157"><ele>964.0</ele><time>2026-04-10T08:47:43.001Z</time></trkpt><trkpt lat="40.74977" lon="-3.668138"><ele>962.0</ele><time>2026-04-10T08:47:44.001Z</time></trkpt><trkpt lat="40.7498467" lon="-3.668111"><ele>960.0</ele><time>2026-04-10T08:47:45.001Z</time></trkpt><trkpt lat="40.749929" lon="-3.6680778"><ele>958.0</ele><time>2026-04-10T08:47:46.001Z</time></trkpt><trkpt lat="40.7500103" lon="-3.6680466"><ele>956.0</ele><time>2026-04-10T08:47:47.001Z</time></trkpt><trkpt lat="40.7500906" lon="-3.6680221"><ele>954.0</ele><time>2026-04-10T08:47:48.001Z</time></trkpt><trkpt lat="40.7501687" lon="-3.6680264"><ele>952.0</ele><time>2026-04-10T08:47:49.001Z</time></trkpt><trkpt lat="40.7502502" lon="-3.6680458"><ele>950.0</ele><time>2026-04-10T08:47:50Z</time></trkpt><trkpt lat="40.7503328" lon="-3.6680611"><ele>948.0</ele><time>2026-04-10T08:47:51.001Z</time></trkpt><trkpt lat="40.7504133" lon="-3.6680726"><ele>946.0</ele><time>2026-04-10T08:47:52.001Z</time></trkpt><trkpt lat="40.7504875" lon="-3.6680857"><ele>944.0</ele><time>2026-04-10T08:47:53.001Z</time></trkpt><trkpt lat="40.7505602" lon="-3.6680993"><ele>942.0</ele><time>2026-04-10T08:47:54.001Z</time></trkpt><trkpt lat="40.7506375" lon="-3.6681078"><ele>942.0</ele><time>2026-04-10T08:47:55.001Z</time></trkpt><trkpt lat="40.7507194" lon="-3.6681016"><ele>942.0</ele><time>2026-04-10T08:47:56.001Z</time></trkpt><trkpt lat="40.7508065" lon="-3.6680996"><ele>942.0</ele><time>2026-04-10T08:47:57.001Z</time></trkpt><trkpt lat="40.7508918" lon="-3.6680963"><ele>942.0</ele><time>2026-04-10T08:47:58.001Z</time></trkpt><trkpt lat="40.7509683" lon="-3.6680953"><ele>942.0</ele><time>2026-04-10T08:47:59.001Z</time></trkpt><trkpt lat="40.7510379" lon="-3.6680896"><ele>942.0</ele><time>2026-04-10T08:48:00.001Z</time></trkpt><trkpt lat="40.7511725" lon="-3.6680997"><ele>940.857142857143</ele><time>2026-04-10T08:48:02.001Z</time></trkpt><trkpt lat="40.7512422" lon="-3.6681137"><ele>939.7142857142858</ele><time>2026-04-10T08:48:03.001Z</time></trkpt><trkpt lat="40.7513131" lon="-3.6681317"><ele>938.5714285714286</ele><time>2026-04-10T08:48:04.001Z</time></trkpt><trkpt lat="40.7513841" lon="-3.668158"><ele>937.4285714285714</ele><time>2026-04-10T08:48:05.001Z</time></trkpt><trkpt lat="40.7514532" lon="-3.6681877"><ele>936.2857142857142</ele><time>2026-04-10T08:48:06.001Z</time></trkpt><trkpt lat="40.7515241" lon="-3.6682162"><ele>935.142857142857</ele><time>2026-04-10T08:48:07.001Z</time></trkpt><trkpt lat="40.7515943" lon="-3.6682538"><ele>933.9999999999999</ele><time>2026-04-10T08:48:08.001Z</time></trkpt><trkpt lat="40.7516687" lon="-3.668292"><ele>933.9999999999999</ele><time>2026-04-10T08:48:09.001Z</time></trkpt><trkpt lat="40.7517421" lon="-3.6683245"><ele>934.0</ele><time>2026-04-10T08:48:10.001Z</time></trkpt><trkpt lat="40.751814" lon="-3.6683578"><ele>934.0</ele><time>2026-04-10T08:48:11.001Z</time></trkpt><trkpt lat="40.7518826" lon="-3.668399"><ele>934.0</ele><time>2026-04-10T08:48:12.001Z</time></trkpt><trkpt lat="40.7519417" lon="-3.6684538"><ele>933.9999999999999</ele><time>2026-04-10T08:48:13.001Z</time></trkpt><trkpt lat="40.7519986" lon="-3.6685212"><ele>934.0</ele><time>2026-04-10T08:48:14.001Z</time></trkpt><trkpt lat="40.7520475" lon="-3.6685932"><ele>932.6666666666666</ele><time>2026-04-10T08:48:15.001Z</time></trkpt><trkpt lat="40.7520942" lon="-3.6686791"><ele>931.3333333333333</ele><time>2026-04-10T08:48:16.001Z</time></trkpt><trkpt lat="40.7521289" lon="-3.6687739"><ele>930.0</ele><time>2026-04-10T08:48:17.001Z</time></trkpt><trkpt lat="40.7521489" lon="-3.6688686"><ele>928.6666666666667</ele><time>2026-04-10T08:48:18.001Z</time></trkpt><trkpt lat="40.7521573" lon="-3.668956"><ele>927.3333333333334</ele><time>2026-04-10T08:48:19.001Z</time></trkpt><trkpt lat="40.7521619" lon="-3.6690664"><ele>926.0</ele><time>2026-04-10T08:48:21.001Z</time></trkpt><trkpt lat="40.7521557" lon="-3.6691798"><ele>926.0</ele><time>2026-04-10T08:48:25.001Z</time></trkpt><trkpt lat="40.7521847" lon="-3.6692793"><ele>925.9999999999999</ele><time>2026-04-10T08:48:27.001Z</time></trkpt><trkpt lat="40.7522472" lon="-3.6693801"><ele>925.9999999999999</ele><time>2026-04-10T08:48:29.001Z</time></trkpt><trkpt lat="40.7523499" lon="-3.669449"><ele>926.0</ele><time>2026-04-10T08:48:31.001Z</time></trkpt><trkpt lat="40.7524279" lon="-3.6694738"><ele>926.0</ele><time>2026-04-10T08:48:32.001Z</time></trkpt><trkpt lat="40.752508" lon="-3.6694993"><ele>926.5000000000001</ele><time>2026-04-10T08:48:33.001Z</time></trkpt><trkpt lat="40.7525931" lon="-3.6695317"><ele>927.0</ele><time>2026-04-10T08:48:34Z</time></trkpt><trkpt lat="40.7526772" lon="-3.6695563"><ele>927.5</ele><time>2026-04-10T08:48:35.001Z</time></trkpt><trkpt lat="40.7527672" lon="-3.6695859"><ele>928.0</ele><time>2026-04-10T08:48:36.001Z</time></trkpt><trkpt lat="40.7528504" lon="-3.669624"><ele>928.5000000000001</ele><time>2026-04-10T08:48:37.001Z</time></trkpt><trkpt lat="40.7529207" lon="-3.6696534"><ele>929.0</ele><time>2026-04-10T08:48:38.001Z</time></trkpt><trkpt lat="40.7529826" lon="-3.6696871"><ele>927.4000000000001</ele><time>2026-04-10T08:48:39.001Z</time></trkpt><trkpt lat="40.7530388" lon="-3.6697369"><ele>925.8000000000001</ele><time>2026-04-10T08:48:40.001Z</time></trkpt><trkpt lat="40.7530806" lon="-3.6698037"><ele>924.1999999999999</ele><time>2026-04-10T08:48:41.001Z</time></trkpt><trkpt lat="40.753107" lon="-3.6699932"><ele>922.5999999999999</ele><time>2026-04-10T08:48:43.001Z</time></trkpt><trkpt lat="40.7531106" lon="-3.6701243"><ele>921.0</ele><time>2026-04-10T08:48:44.001Z</time></trkpt><trkpt lat="40.7531206" lon="-3.6702399"><ele>921.0</ele><time>2026-04-10T08:48:45.001Z</time></trkpt><trkpt lat="40.7531346" lon="-3.6703377"><ele>921.0</ele><time>2026-04-10T08:48:46.001Z</time></trkpt><trkpt lat="40.7531498" lon="-3.6704343"><ele>921.0</ele><time>2026-04-10T08:48:47.001Z</time></trkpt><trkpt lat="40.7531657" lon="-3.6705306"><ele>921.0</ele><time>2026-04-10T08:48:48.001Z</time></trkpt><trkpt lat="40.7531799" lon="-3.6706175"><ele>921.0</ele><time>2026-04-10T08:48:49.001Z</time></trkpt><trkpt lat="40.7532041" lon="-3.6707652"><ele>921.0</ele><time>2026-04-10T08:48:51.001Z</time></trkpt><trkpt lat="40.7532119" lon="-3.6708653"><ele>921.0</ele><time>2026-04-10T08:48:53.001Z</time></trkpt><trkpt lat="40.7531392" lon="-3.6709811"><ele>920.9999999999999</ele><time>2026-04-10T08:50:45.001Z</time></trkpt><trkpt lat="40.7530468" lon="-3.6709525"><ele>920.9999999999999</ele><time>2026-04-10T08:50:47.001Z</time></trkpt><trkpt lat="40.7529327" lon="-3.6709376"><ele>921.0</ele><time>2026-04-10T08:50:49.001Z</time></trkpt><trkpt lat="40.752864" lon="-3.6709541"><ele>921.0</ele><time>2026-04-10T08:50:50.001Z</time></trkpt><trkpt lat="40.7527876" lon="-3.6709847"><ele>921.0000000000001</ele><time>2026-04-10T08:50:51.001Z</time></trkpt><trkpt lat="40.7527157" lon="-3.6710042"><ele>921.0</ele><time>2026-04-10T08:50:52Z</time></trkpt><trkpt lat="40.7526465" lon="-3.6710271"><ele>921.0000000000001</ele><time>2026-04-10T08:50:53.001Z</time></trkpt><trkpt lat="40.7525796" lon="-3.6710443"><ele>921.0000000000001</ele><time>2026-04-10T08:50:54.001Z</time></trkpt><trkpt lat="40.7525076" lon="-3.6710565"><ele>921.0</ele><time>2026-04-10T08:50:55.001Z</time></trkpt><trkpt lat="40.7524354" lon="-3.671059"><ele>921.0000000000001</ele><time>2026-04-10T08:50:56.001Z</time></trkpt><trkpt lat="40.7523653" lon="-3.6710638"><ele>921.0000000000001</ele><time>2026-04-10T08:50:57.001Z</time></trkpt><trkpt lat="40.7522947" lon="-3.6710649"><ele>921.5714285714287</ele><time>2026-04-10T08:50:58.001Z</time></trkpt><trkpt lat="40.7522246" lon="-3.6710803"><ele>922.1428571428571</ele><time>2026-04-10T08:50:59.001Z</time></trkpt><trkpt lat="40.7521538" lon="-3.6711047"><ele>922.7142857142858</ele><time>2026-04-10T08:51:00Z</time></trkpt><trkpt lat="40.7520839" lon="-3.6711279"><ele>923.2857142857143</ele><time>2026-04-10T08:51:01.001Z</time></trkpt><trkpt lat="40.7520113" lon="-3.671152"><ele>923.8571428571429</ele><time>2026-04-10T08:51:02.001Z</time></trkpt><trkpt lat="40.75194" lon="-3.6711852"><ele>924.4285714285714</ele><time>2026-04-10T08:51:03.001Z</time></trkpt><trkpt lat="40.7518751" lon="-3.6712233"><ele>925.0</ele><time>2026-04-10T08:51:04.001Z</time></trkpt><trkpt lat="40.7518106" lon="-3.67126"><ele>926.8333333333333</ele><time>2026-04-10T08:51:05.001Z</time></trkpt><trkpt lat="40.7517515" lon="-3.6713102"><ele>928.6666666666666</ele><time>2026-04-10T08:51:06Z</time></trkpt><trkpt lat="40.7517009" lon="-3.6713713"><ele>930.5</ele><time>2026-04-10T08:51:07.001Z</time></trkpt><trkpt lat="40.7516522" lon="-3.6714302"><ele>932.3333333333333</ele><time>2026-04-10T08:51:08Z</time></trkpt><trkpt lat="40.7515459" lon="-3.6715043"><ele>934.1666666666666</ele><time>2026-04-10T08:51:10.001Z</time></trkpt><trkpt lat="40.7514807" lon="-3.6715318"><ele>936.0</ele><time>2026-04-10T08:51:11.001Z</time></trkpt><trkpt lat="40.7513897" lon="-3.6715781"><ele>936.0</ele><time>2026-04-10T08:51:13Z</time></trkpt><trkpt lat="40.7513254" lon="-3.6716022"><ele>936.0</ele><time>2026-04-10T08:51:14.001Z</time></trkpt><trkpt lat="40.7512583" lon="-3.671645"><ele>936.0</ele><time>2026-04-10T08:51:15.001Z</time></trkpt><trkpt lat="40.7511815" lon="-3.6716861"><ele>936.0</ele><time>2026-04-10T08:51:16.001Z</time></trkpt><trkpt lat="40.7511062" lon="-3.6717378"><ele>936.0</ele><time>2026-04-10T08:51:17.001Z</time></trkpt><trkpt lat="40.7510377" lon="-3.6717854"><ele>936.0</ele><time>2026-04-10T08:51:18.001Z</time></trkpt><trkpt lat="40.750973" lon="-3.6718282"><ele>936.8571428571429</ele><time>2026-04-10T08:51:19.001Z</time></trkpt><trkpt lat="40.7509102" lon="-3.6718712"><ele>937.7142857142858</ele><time>2026-04-10T08:51:20.001Z</time></trkpt><trkpt lat="40.7508508" lon="-3.671919"><ele>938.5714285714287</ele><time>2026-04-10T08:51:21.001Z</time></trkpt><trkpt lat="40.7507894" lon="-3.6719663"><ele>939.4285714285716</ele><time>2026-04-10T08:51:22Z</time></trkpt><trkpt lat="40.7507245" lon="-3.6720148"><ele>940.2857142857143</ele><time>2026-04-10T08:51:23.001Z</time></trkpt><trkpt lat="40.7506644" lon="-3.6720669"><ele>941.1428571428573</ele><time>2026-04-10T08:51:24.001Z</time></trkpt><trkpt lat="40.7506096" lon="-3.6721303"><ele>942.0000000000001</ele><time>2026-04-10T08:51:25.001Z</time></trkpt><trkpt lat="40.7505667" lon="-3.6721928"><ele>942.25</ele><time>2026-04-10T08:51:26Z</time></trkpt><trkpt lat="40.7504847" lon="-3.672285"><ele>942.5</ele><time>2026-04-10T08:51:28.001Z</time></trkpt><trkpt lat="40.7503891" lon="-3.6723554"><ele>942.75</ele><time>2026-04-10T08:51:30.001Z</time></trkpt><trkpt lat="40.7503092" lon="-3.6724706"><ele>943.0</ele><time>2026-04-10T08:51:32.001Z</time></trkpt><trkpt lat="40.7502295" lon="-3.6725799"><ele>944.0</ele><time>2026-04-10T08:51:34Z</time></trkpt><trkpt lat="40.7501804" lon="-3.6726362"><ele>945.0000000000001</ele><time>2026-04-10T08:51:35.001Z</time></trkpt><trkpt lat="40.750117" lon="-3.6726907"><ele>946.0</ele><time>2026-04-10T08:51:36.001Z</time></trkpt><trkpt lat="40.7500516" lon="-3.6727414"><ele>947.0</ele><time>2026-04-10T08:51:37.001Z</time></trkpt><trkpt lat="40.749992" lon="-3.6727949"><ele>948.0000000000001</ele><time>2026-04-10T08:51:38.001Z</time></trkpt><trkpt lat="40.7499405" lon="-3.6728537"><ele>949.0</ele><time>2026-04-10T08:51:39.001Z</time></trkpt><trkpt lat="40.7498901" lon="-3.6729123"><ele>950.0</ele><time>2026-04-10T08:51:40.001Z</time></trkpt><trkpt lat="40.7498352" lon="-3.6729722"><ele>950.0000000000001</ele><time>2026-04-10T08:51:41.001Z</time></trkpt><trkpt lat="40.7497731" lon="-3.6730231"><ele>950.0</ele><time>2026-04-10T08:51:42.001Z</time></trkpt><trkpt lat="40.7497102" lon="-3.6730755"><ele>950.0</ele><time>2026-04-10T08:51:43.001Z</time></trkpt><trkpt lat="40.7496391" lon="-3.6731152"><ele>950.0</ele><time>2026-04-10T08:51:44.001Z</time></trkpt><trkpt lat="40.7495626" lon="-3.6731516"><ele>950.0000000000001</ele><time>2026-04-10T08:51:45.001Z</time></trkpt><trkpt lat="40.7494856" lon="-3.6731891"><ele>950.0</ele><time>2026-04-10T08:51:46.001Z</time></trkpt><trkpt lat="40.7494053" lon="-3.6732339"><ele>950.6666666666667</ele><time>2026-04-10T08:51:47.001Z</time></trkpt><trkpt lat="40.7493302" lon="-3.6732743"><ele>951.3333333333334</ele><time>2026-04-10T08:51:48.001Z</time></trkpt><trkpt lat="40.7492586" lon="-3.6733094"><ele>952.0</ele><time>2026-04-10T08:51:49.001Z</time></trkpt><trkpt lat="40.7491932" lon="-3.673338"><ele>952.6666666666667</ele><time>2026-04-10T08:51:50.001Z</time></trkpt><trkpt lat="40.7491239" lon="-3.6733448"><ele>953.3333333333334</ele><time>2026-04-10T08:51:51Z</time></trkpt><trkpt lat="40.749038" lon="-3.673321"><ele>954.0</ele><time>2026-04-10T08:51:52.001Z</time></trkpt><trkpt lat="40.7489627" lon="-3.673292"><ele>954.0</ele><time>2026-04-10T08:51:53Z</time></trkpt><trkpt lat="40.7488927" lon="-3.6732767"><ele>954.0</ele><time>2026-04-10T08:51:54.001Z</time></trkpt><trkpt lat="40.7488223" lon="-3.6732665"><ele>954.0</ele><time>2026-04-10T08:51:55Z</time></trkpt><trkpt lat="40.7487488" lon="-3.6732883"><ele>954.0</ele><time>2026-04-10T08:51:56.001Z</time></trkpt><trkpt lat="40.748676" lon="-3.6733231"><ele>954.0</ele><time>2026-04-10T08:51:57.001Z</time></trkpt><trkpt lat="40.7486103" lon="-3.6733717"><ele>954.0</ele><time>2026-04-10T08:51:58.001Z</time></trkpt><trkpt lat="40.7485439" lon="-3.6734477"><ele>955.0</ele><time>2026-04-10T08:51:59.001Z</time></trkpt><trkpt lat="40.748481" lon="-3.6735318"><ele>956.0</ele><time>2026-04-10T08:52:00.001Z</time></trkpt><trkpt lat="40.7484203" lon="-3.6735973"><ele>957.0</ele><time>2026-04-10T08:52:01.001Z</time></trkpt><trkpt lat="40.748355" lon="-3.6736508"><ele>958.0</ele><time>2026-04-10T08:52:02.001Z</time></trkpt><trkpt lat="40.7483033" lon="-3.6737145"><ele>959.0</ele><time>2026-04-10T08:52:03.001Z</time></trkpt><trkpt lat="40.748247" lon="-3.6738332"><ele>960.0</ele><time>2026-04-10T08:52:05.001Z</time></trkpt><trkpt lat="40.7481934" lon="-3.67396"><ele>960.1666666666666</ele><time>2026-04-10T08:52:07.001Z</time></trkpt><trkpt lat="40.7481573" lon="-3.6740307"><ele>960.3333333333333</ele><time>2026-04-10T08:52:08.001Z</time></trkpt><trkpt lat="40.7481315" lon="-3.6741067"><ele>960.5</ele><time>2026-04-10T08:52:09.001Z</time></trkpt><trkpt lat="40.748099" lon="-3.6741788"><ele>960.6666666666666</ele><time>2026-04-10T08:52:10.001Z</time></trkpt><trkpt lat="40.7480221" lon="-3.6743041"><ele>960.8333333333333</ele><time>2026-04-10T08:52:12.001Z</time></trkpt><trkpt lat="40.747938" lon="-3.6744159"><ele>961.0</ele><time>2026-04-10T08:52:14.001Z</time></trkpt><trkpt lat="40.7478526" lon="-3.6745095"><ele>961.4</ele><time>2026-04-10T08:52:16.001Z</time></trkpt><trkpt lat="40.7477726" lon="-3.6746191"><ele>961.8</ele><time>2026-04-10T08:52:18.001Z</time></trkpt><trkpt lat="40.7476899" lon="-3.6747302"><ele>962.1999999999999</ele><time>2026-04-10T08:52:20.001Z</time></trkpt><trkpt lat="40.7476148" lon="-3.6747851"><ele>962.5999999999999</ele><time>2026-04-10T08:52:22.001Z</time></trkpt><trkpt lat="40.747552" lon="-3.6748694"><ele>963.0</ele><time>2026-04-10T08:52:24.001Z</time></trkpt><trkpt lat="40.7474722" lon="-3.6749838"><ele>964.8333333333334</ele><time>2026-04-10T08:52:26.001Z</time></trkpt><trkpt lat="40.7474012" lon="-3.6750566"><ele>966.6666666666667</ele><time>2026-04-10T08:52:28.001Z</time></trkpt><trkpt lat="40.7473553" lon="-3.6751421"><ele>968.5</ele><time>2026-04-10T08:52:30.001Z</time></trkpt><trkpt lat="40.7472699" lon="-3.6751869"><ele>970.3333333333334</ele><time>2026-04-10T08:52:32.001Z</time></trkpt><trkpt lat="40.7472082" lon="-3.6752687"><ele>972.1666666666667</ele><time>2026-04-10T08:52:34.001Z</time></trkpt><trkpt lat="40.7471541" lon="-3.67538"><ele>974.0</ele><time>2026-04-10T08:52:36.001Z</time></trkpt><trkpt lat="40.7470985" lon="-3.6754858"><ele>974.0</ele><time>2026-04-10T08:52:38.001Z</time></trkpt><trkpt lat="40.7470108" lon="-3.6755039"><ele>974.0000000000001</ele><time>2026-04-10T08:52:40Z</time></trkpt><trkpt lat="40.7469059" lon="-3.6755417"><ele>974.0000000000001</ele><time>2026-04-10T08:52:42.001Z</time></trkpt><trkpt lat="40.7468122" lon="-3.6756113"><ele>974.0</ele><time>2026-04-10T08:52:44.001Z</time></trkpt><trkpt lat="40.7467202" lon="-3.6757029"><ele>974.0</ele><time>2026-04-10T08:52:46.001Z</time></trkpt><trkpt lat="40.7466614" lon="-3.6757499"><ele>975.6666666666667</ele><time>2026-04-10T08:52:47Z</time></trkpt><trkpt lat="40.7466034" lon="-3.6757961"><ele>977.3333333333334</ele><time>2026-04-10T08:52:48.001Z</time></trkpt><trkpt lat="40.7465334" lon="-3.6758558"><ele>979.0</ele><time>2026-04-10T08:52:49.001Z</time></trkpt><trkpt lat="40.746466" lon="-3.6759128"><ele>980.6666666666667</ele><time>2026-04-10T08:52:50.001Z</time></trkpt><trkpt lat="40.7464042" lon="-3.675964"><ele>982.3333333333334</ele><time>2026-04-10T08:52:51.001Z</time></trkpt><trkpt lat="40.7463419" lon="-3.6760176"><ele>984.0</ele><time>2026-04-10T08:52:52.001Z</time></trkpt><trkpt lat="40.7462665" lon="-3.676064"><ele>984.0</ele><time>2026-04-10T08:52:53.001Z</time></trkpt><trkpt lat="40.7461914" lon="-3.6761022"><ele>984.0</ele><time>2026-04-10T08:52:54.001Z</time></trkpt><trkpt lat="40.7461122" lon="-3.6761393"><ele>984.0</ele><time>2026-04-10T08:52:55Z</time></trkpt><trkpt lat="40.7460276" lon="-3.6761734"><ele>984.0</ele><time>2026-04-10T08:52:56.001Z</time></trkpt><trkpt lat="40.7459416" lon="-3.6762223"><ele>984.0</ele><time>2026-04-10T08:52:57.001Z</time></trkpt><trkpt lat="40.7458687" lon="-3.6762757"><ele>984.0</ele><time>2026-04-10T08:52:58.001Z</time></trkpt><trkpt lat="40.7458079" lon="-3.6763333"><ele>985.2857142857144</ele><time>2026-04-10T08:52:59.001Z</time></trkpt><trkpt lat="40.7457546" lon="-3.6763969"><ele>986.5714285714287</ele><time>2026-04-10T08:53:00.001Z</time></trkpt><trkpt lat="40.7457077" lon="-3.6764565"><ele>987.8571428571429</ele><time>2026-04-10T08:53:01.001Z</time></trkpt><trkpt lat="40.7456507" lon="-3.6765031"><ele>989.1428571428572</ele><time>2026-04-10T08:53:02.001Z</time></trkpt><trkpt lat="40.7455836" lon="-3.676549"><ele>990.4285714285716</ele><time>2026-04-10T08:53:03.001Z</time></trkpt><trkpt lat="40.7455093" lon="-3.6765912"><ele>991.7142857142857</ele><time>2026-04-10T08:53:04.001Z</time></trkpt><trkpt lat="40.7454283" lon="-3.6766352"><ele>993.0</ele><time>2026-04-10T08:53:05.001Z</time></trkpt><trkpt lat="40.7453449" lon="-3.6766797"><ele>993.0</ele><time>2026-04-10T08:53:06.001Z</time></trkpt><trkpt lat="40.7452643" lon="-3.6767222"><ele>993.0</ele><time>2026-04-10T08:53:07.001Z</time></trkpt><trkpt lat="40.7451815" lon="-3.6767609"><ele>993.0</ele><time>2026-04-10T08:53:08Z</time></trkpt><trkpt lat="40.7451085" lon="-3.6768103"><ele>993.0</ele><time>2026-04-10T08:53:09.001Z</time></trkpt><trkpt lat="40.7450349" lon="-3.6768678"><ele>993.0</ele><time>2026-04-10T08:53:10.001Z</time></trkpt><trkpt lat="40.7449613" lon="-3.6769123"><ele>993.0</ele><time>2026-04-10T08:53:11.001Z</time></trkpt><trkpt lat="40.7448759" lon="-3.6769424"><ele>994.0</ele><time>2026-04-10T08:53:12Z</time></trkpt><trkpt lat="40.7447963" lon="-3.67698"><ele>995.0</ele><time>2026-04-10T08:53:13Z</time></trkpt><trkpt lat="40.7447252" lon="-3.6770314"><ele>996.0</ele><time>2026-04-10T08:53:14Z</time></trkpt><trkpt lat="40.7446596" lon="-3.6770766"><ele>997.0</ele><time>2026-04-10T08:53:15.001Z</time></trkpt><trkpt lat="40.7446018" lon="-3.6771136"><ele>998.0</ele><time>2026-04-10T08:53:16.001Z</time></trkpt><trkpt lat="40.7444818" lon="-3.6771743"><ele>999.0</ele><time>2026-04-10T08:53:18.001Z</time></trkpt><trkpt lat="40.7444196" lon="-3.6772075"><ele>1000.1666666666666</ele><time>2026-04-10T08:53:19.001Z</time></trkpt><trkpt lat="40.7443531" lon="-3.6772584"><ele>1001.3333333333333</ele><time>2026-04-10T08:53:20Z</time></trkpt><trkpt lat="40.7442862" lon="-3.6773124"><ele>1002.5</ele><time>2026-04-10T08:53:21.001Z</time></trkpt><trkpt lat="40.7442149" lon="-3.677368"><ele>1003.6666666666666</ele><time>2026-04-10T08:53:22.001Z</time></trkpt><trkpt lat="40.7441359" lon="-3.6774189"><ele>1004.8333333333333</ele><time>2026-04-10T08:53:23.001Z</time></trkpt><trkpt lat="40.7440568" lon="-3.6774693"><ele>1006.0</ele><time>2026-04-10T08:53:24.001Z</time></trkpt><trkpt lat="40.743974" lon="-3.6775107"><ele>1006.0</ele><time>2026-04-10T08:53:25Z</time></trkpt><trkpt lat="40.7438892" lon="-3.6775364"><ele>1005.9999999999999</ele><time>2026-04-10T08:53:26.001Z</time></trkpt><trkpt lat="40.7438014" lon="-3.677564"><ele>1005.9999999999999</ele><time>2026-04-10T08:53:27.001Z</time></trkpt><trkpt lat="40.7437077" lon="-3.677607"><ele>1006.0</ele><time>2026-04-10T08:53:28.001Z</time></trkpt><trkpt lat="40.7436212" lon="-3.6776573"><ele>1006.0</ele><time>2026-04-10T08:53:29.001Z</time></trkpt><trkpt lat="40.7435399" lon="-3.6777103"><ele>1006.8333333333333</ele><time>2026-04-10T08:53:30.001Z</time></trkpt><trkpt lat="40.7434587" lon="-3.6777619"><ele>1007.6666666666666</ele><time>2026-04-10T08:53:31.001Z</time></trkpt><trkpt lat="40.7433872" lon="-3.6778135"><ele>1008.5</ele><time>2026-04-10T08:53:32.001Z</time></trkpt><trkpt lat="40.743329" lon="-3.6778722"><ele>1009.3333333333333</ele><time>2026-04-10T08:53:33.001Z</time></trkpt><trkpt lat="40.7432833" lon="-3.6779505"><ele>1010.1666666666666</ele><time>2026-04-10T08:53:34.001Z</time></trkpt><trkpt lat="40.7432342" lon="-3.6780352"><ele>1011.0</ele><time>2026-04-10T08:53:35Z</time></trkpt><trkpt lat="40.7431891" lon="-3.6781024"><ele>1011.0</ele><time>2026-04-10T08:53:36.001Z</time></trkpt><trkpt lat="40.7431302" lon="-3.6781493"><ele>1011.0</ele><time>2026-04-10T08:53:37.001Z</time></trkpt><trkpt lat="40.7430637" lon="-3.6781954"><ele>1011.0</ele><time>2026-04-10T08:53:38Z</time></trkpt><trkpt lat="40.7430021" lon="-3.6782581"><ele>1011.0</ele><time>2026-04-10T08:53:39.001Z</time></trkpt><trkpt lat="40.742938" lon="-3.678334"><ele>1011.0</ele><time>2026-04-10T08:53:40Z</time></trkpt><trkpt lat="40.742877" lon="-3.6784192"><ele>1011.0</ele><time>2026-04-10T08:53:41.001Z</time></trkpt><trkpt lat="40.7428182" lon="-3.6784992"><ele>1011.0</ele><time>2026-04-10T08:53:42.001Z</time></trkpt><trkpt lat="40.7427549" lon="-3.6785491"><ele>1011.0</ele><time>2026-04-10T08:53:43.001Z</time></trkpt><trkpt lat="40.7426848" lon="-3.6785824"><ele>1011.0</ele><time>2026-04-10T08:53:44.001Z</time></trkpt><trkpt lat="40.7426093" lon="-3.6786254"><ele>1011.0</ele><time>2026-04-10T08:53:45.001Z</time></trkpt><trkpt lat="40.7425309" lon="-3.6786754"><ele>1011.0</ele><time>2026-04-10T08:53:46.001Z</time></trkpt><trkpt lat="40.7424557" lon="-3.6787467"><ele>1011.0</ele><time>2026-04-10T08:53:47.001Z</time></trkpt><trkpt lat="40.7423858" lon="-3.6788036"><ele>1012.142857142857</ele><time>2026-04-10T08:53:48.001Z</time></trkpt><trkpt lat="40.7423275" lon="-3.6788458"><ele>1013.2857142857142</ele><time>2026-04-10T08:53:49.001Z</time></trkpt><trkpt lat="40.7422617" lon="-3.6788527"><ele>1014.4285714285714</ele><time>2026-04-10T08:53:50.001Z</time></trkpt><trkpt lat="40.7421878" lon="-3.678845"><ele>1015.5714285714286</ele><time>2026-04-10T08:53:51.001Z</time></trkpt><trkpt lat="40.7421135" lon="-3.6788416"><ele>1016.7142857142858</ele><time>2026-04-10T08:53:52.001Z</time></trkpt><trkpt lat="40.7420492" lon="-3.6788725"><ele>1017.857142857143</ele><time>2026-04-10T08:53:53.001Z</time></trkpt><trkpt lat="40.7419875" lon="-3.6789386"><ele>1019.0000000000001</ele><time>2026-04-10T08:53:54Z</time></trkpt><trkpt lat="40.7419265" lon="-3.6790072"><ele>1019.8333333333334</ele><time>2026-04-10T08:53:55.001Z</time></trkpt><trkpt lat="40.7418594" lon="-3.6790723"><ele>1020.6666666666667</ele><time>2026-04-10T08:53:56.001Z</time></trkpt><trkpt lat="40.7417936" lon="-3.6791246"><ele>1021.5</ele><time>2026-04-10T08:53:57.001Z</time></trkpt><trkpt lat="40.7417233" lon="-3.6791607"><ele>1022.3333333333333</ele><time>2026-04-10T08:53:58.001Z</time></trkpt><trkpt lat="40.7416459" lon="-3.6791844"><ele>1023.1666666666666</ele><time>2026-04-10T08:53:59.001Z</time></trkpt><trkpt lat="40.7415593" lon="-3.6792064"><ele>1024.0</ele><time>2026-04-10T08:54:00.001Z</time></trkpt><trkpt lat="40.7414728" lon="-3.6792336"><ele>1023.9999999999999</ele><time>2026-04-10T08:54:01.001Z</time></trkpt><trkpt lat="40.7413903" lon="-3.6792744"><ele>1024.0</ele><time>2026-04-10T08:54:02.001Z</time></trkpt><trkpt lat="40.7413023" lon="-3.6793201"><ele>1024.0</ele><time>2026-04-10T08:54:03Z</time></trkpt><trkpt lat="40.7412145" lon="-3.6793653"><ele>1024.0</ele><time>2026-04-10T08:54:04.001Z</time></trkpt><trkpt lat="40.7411315" lon="-3.6793936"><ele>1023.9999999999999</ele><time>2026-04-10T08:54:05Z</time></trkpt><trkpt lat="40.741058" lon="-3.6794135"><ele>1024.0</ele><time>2026-04-10T08:54:06.001Z</time></trkpt><trkpt lat="40.7409902" lon="-3.6794256"><ele>1024.3333333333333</ele><time>2026-04-10T08:54:07.001Z</time></trkpt><trkpt lat="40.7409219" lon="-3.6794198"><ele>1024.6666666666665</ele><time>2026-04-10T08:54:08.001Z</time></trkpt><trkpt lat="40.7408584" lon="-3.6794193"><ele>1025.0</ele><time>2026-04-10T08:54:09.001Z</time></trkpt><trkpt lat="40.740774" lon="-3.6795385"><ele>1025.3333333333333</ele><time>2026-04-10T08:54:11.001Z</time></trkpt><trkpt lat="40.7407297" lon="-3.6796258"><ele>1025.6666666666667</ele><time>2026-04-10T08:54:12.001Z</time></trkpt><trkpt lat="40.7406883" lon="-3.6797228"><ele>1026.0</ele><time>2026-04-10T08:54:13.001Z</time></trkpt><trkpt lat="40.7406585" lon="-3.6798083"><ele>1026.3999999999999</ele><time>2026-04-10T08:54:14.001Z</time></trkpt><trkpt lat="40.7406349" lon="-3.6798893"><ele>1026.8</ele><time>2026-04-10T08:54:15.001Z</time></trkpt><trkpt lat="40.7405443" lon="-3.6799529"><ele>1027.1999999999998</ele><time>2026-04-10T08:54:17.001Z</time></trkpt><trkpt lat="40.7404132" lon="-3.6799782"><ele>1027.6</ele><time>2026-04-10T08:54:19.001Z</time></trkpt><trkpt lat="40.7403298" lon="-3.6799972"><ele>1028.0</ele><time>2026-04-10T08:54:20.001Z</time></trkpt><trkpt lat="40.7402414" lon="-3.6800121"><ele>1028.8</ele><time>2026-04-10T08:54:21.001Z</time></trkpt><trkpt lat="40.7401582" lon="-3.6800494"><ele>1029.6</ele><time>2026-04-10T08:54:22.001Z</time></trkpt><trkpt lat="40.7400755" lon="-3.6801003"><ele>1030.4</ele><time>2026-04-10T08:54:23.001Z</time></trkpt><trkpt lat="40.7399894" lon="-3.6801514"><ele>1031.2</ele><time>2026-04-10T08:54:24.001Z</time></trkpt><trkpt lat="40.7398987" lon="-3.6802065"><ele>1032.0</ele><time>2026-04-10T08:54:25.001Z</time></trkpt><trkpt lat="40.7398109" lon="-3.6802578"><ele>1032.1666666666667</ele><time>2026-04-10T08:54:26.001Z</time></trkpt><trkpt lat="40.7397298" lon="-3.6803043"><ele>1032.3333333333333</ele><time>2026-04-10T08:54:27.001Z</time></trkpt><trkpt lat="40.7396536" lon="-3.6803524"><ele>1032.5</ele><time>2026-04-10T08:54:28.001Z</time></trkpt><trkpt lat="40.7395766" lon="-3.6804009"><ele>1032.6666666666665</ele><time>2026-04-10T08:54:29.001Z</time></trkpt><trkpt lat="40.7395059" lon="-3.6804502"><ele>1032.8333333333333</ele><time>2026-04-10T08:54:30.001Z</time></trkpt><trkpt lat="40.7394318" lon="-3.6805069"><ele>1033.0</ele><time>2026-04-10T08:54:31.001Z</time></trkpt><trkpt lat="40.7393562" lon="-3.6805662"><ele>1033.1666666666665</ele><time>2026-04-10T08:54:32.001Z</time></trkpt><trkpt lat="40.7392886" lon="-3.6806184"><ele>1033.3333333333333</ele><time>2026-04-10T08:54:33.001Z</time></trkpt><trkpt lat="40.739225" lon="-3.6806699"><ele>1033.5</ele><time>2026-04-10T08:54:34.001Z</time></trkpt><trkpt lat="40.7391504" lon="-3.6807151"><ele>1033.6666666666667</ele><time>2026-04-10T08:54:35.001Z</time></trkpt><trkpt lat="40.7390703" lon="-3.6807701"><ele>1033.8333333333335</ele><time>2026-04-10T08:54:36.001Z</time></trkpt><trkpt lat="40.7389964" lon="-3.6808355"><ele>1034.0</ele><time>2026-04-10T08:54:37.001Z</time></trkpt><trkpt lat="40.7389287" lon="-3.6809128"><ele>1034.0</ele><time>2026-04-10T08:54:38.001Z</time></trkpt><trkpt lat="40.7388612" lon="-3.6809872"><ele>1034.0</ele><time>2026-04-10T08:54:39.001Z</time></trkpt><trkpt lat="40.7387963" lon="-3.6810609"><ele>1034.0</ele><time>2026-04-10T08:54:40.001Z</time></trkpt><trkpt lat="40.738734" lon="-3.681139"><ele>1034.0</ele><time>2026-04-10T08:54:41Z</time></trkpt><trkpt lat="40.7386725" lon="-3.6812258"><ele>1034.0</ele><time>2026-04-10T08:54:42.001Z</time></trkpt><trkpt lat="40.7386032" lon="-3.6813135"><ele>1034.0</ele><time>2026-04-10T08:54:43.001Z</time></trkpt><trkpt lat="40.7385283" lon="-3.681403"><ele>1034.6000000000001</ele><time>2026-04-10T08:54:44.001Z</time></trkpt><trkpt lat="40.7384485" lon="-3.6814904"><ele>1035.2</ele><time>2026-04-10T08:54:45.001Z</time></trkpt><trkpt lat="40.7383636" lon="-3.6815731"><ele>1035.8000000000002</ele><time>2026-04-10T08:54:46.001Z</time></trkpt><trkpt lat="40.738285" lon="-3.6816487"><ele>1036.4</ele><time>2026-04-10T08:54:47.001Z</time></trkpt><trkpt lat="40.7382107" lon="-3.6817181"><ele>1037.0</ele><time>2026-04-10T08:54:48.001Z</time></trkpt><trkpt lat="40.738135" lon="-3.6817933"><ele>1037.0</ele><time>2026-04-10T08:54:49.001Z</time></trkpt><trkpt lat="40.7380576" lon="-3.6818615"><ele>1037.0</ele><time>2026-04-10T08:54:50.001Z</time></trkpt><trkpt lat="40.737975" lon="-3.6819241"><ele>1037.0</ele><time>2026-04-10T08:54:51.001Z</time></trkpt><trkpt lat="40.7378843" lon="-3.6819718"><ele>1037.0</ele><time>2026-04-10T08:54:52.001Z</time></trkpt><trkpt lat="40.7378118" lon="-3.6819927"><ele>1037.0</ele><time>2026-04-10T08:54:53.001Z</time></trkpt><trkpt lat="40.7377475" lon="-3.6820109"><ele>1037.0</ele><time>2026-04-10T08:54:54Z</time></trkpt><trkpt lat="40.7376315" lon="-3.6820339"><ele>1037.3333333333335</ele><time>2026-04-10T08:54:56.001Z</time></trkpt><trkpt lat="40.7375644" lon="-3.6820471"><ele>1037.6666666666667</ele><time>2026-04-10T08:54:57.001Z</time></trkpt><trkpt lat="40.7374964" lon="-3.6820605"><ele>1038.0</ele><time>2026-04-10T08:54:58.001Z</time></trkpt><trkpt lat="40.737383" lon="-3.6820696"><ele>1038.3333333333333</ele><time>2026-04-10T08:55:00.001Z</time></trkpt><trkpt lat="40.737264" lon="-3.6820897"><ele>1038.6666666666665</ele><time>2026-04-10T08:55:02.001Z</time></trkpt><trkpt lat="40.7371938" lon="-3.6821151"><ele>1039.0</ele><time>2026-04-10T08:55:04.001Z</time></trkpt><trkpt lat="40.7370697" lon="-3.6820737"><ele>1039.0</ele><time>2026-04-10T08:55:06.001Z</time></trkpt><trkpt lat="40.7369477" lon="-3.68209"><ele>1039.0</ele><time>2026-04-10T08:55:08.001Z</time></trkpt><trkpt lat="40.7368469" lon="-3.6821602"><ele>1039.0</ele><time>2026-04-10T08:55:10.001Z</time></trkpt><trkpt lat="40.7367642" lon="-3.6822592"><ele>1039.0</ele><time>2026-04-10T08:55:12.001Z</time></trkpt><trkpt lat="40.7366894" lon="-3.6823658"><ele>1039.5</ele><time>2026-04-10T08:55:14.001Z</time></trkpt><trkpt lat="40.7366242" lon="-3.6824618"><ele>1040.0</ele><time>2026-04-10T08:55:16.001Z</time></trkpt><trkpt lat="40.7366198" lon="-3.6825549"><ele>1040.5</ele><time>2026-04-10T08:55:18.001Z</time></trkpt><trkpt lat="40.7366364" lon="-3.6826519"><ele>1041.0</ele><time>2026-04-10T08:55:20.001Z</time></trkpt><trkpt lat="40.7366245" lon="-3.6827486"><ele>1041.5</ele><time>2026-04-10T08:55:23.001Z</time></trkpt><trkpt lat="40.7366162" lon="-3.6828617"><ele>1042.0</ele><time>2026-04-10T08:55:30.001Z</time></trkpt><trkpt lat="40.7366048" lon="-3.6829443"><ele>1042.0</ele><time>2026-04-10T08:55:32.001Z</time></trkpt><trkpt lat="40.7365908" lon="-3.6830611"><ele>1042.0</ele><time>2026-04-10T08:55:35.001Z</time></trkpt><trkpt lat="40.7365849" lon="-3.6831442"><ele>1042.0</ele><time>2026-04-10T08:55:37.001Z</time></trkpt><trkpt lat="40.7365777" lon="-3.6832382"><ele>1042.0</ele><time>2026-04-10T08:55:39Z</time></trkpt><trkpt lat="40.7365595" lon="-3.6833247"><ele>1042.0</ele><time>2026-04-10T08:55:41.001Z</time></trkpt><trkpt lat="40.7365511" lon="-3.6834094"><ele>1042.0</ele><time>2026-04-10T08:55:44.001Z</time></trkpt><trkpt lat="40.7365301" lon="-3.6834907"><ele>1042.0</ele><time>2026-04-10T08:55:48.001Z</time></trkpt><trkpt lat="40.736519" lon="-3.68361"><ele>1042.1666666666665</ele><time>2026-04-10T08:55:50Z</time></trkpt><trkpt lat="40.7365036" lon="-3.6837009"><ele>1042.3333333333333</ele><time>2026-04-10T08:55:52.001Z</time></trkpt><trkpt lat="40.736493" lon="-3.6837866"><ele>1042.5</ele><time>2026-04-10T08:55:54.001Z</time></trkpt><trkpt lat="40.7364931" lon="-3.6838794"><ele>1042.6666666666667</ele><time>2026-04-10T08:55:58.001Z</time></trkpt><trkpt lat="40.7364395" lon="-3.6840003"><ele>1042.8333333333335</ele><time>2026-04-10T08:57:31.001Z</time></trkpt><trkpt lat="40.7364064" lon="-3.6840838"><ele>1043.0</ele><time>2026-04-10T08:57:34.001Z</time></trkpt><trkpt lat="40.7363466" lon="-3.6841645"><ele>1043.0</ele><time>2026-04-10T08:57:37.001Z</time></trkpt><trkpt lat="40.7363071" lon="-3.6842331"><ele>1043.0</ele><time>2026-04-10T08:57:39.001Z</time></trkpt><trkpt lat="40.7362412" lon="-3.6843133"><ele>1043.0</ele><time>2026-04-10T08:57:42.001Z</time></trkpt><trkpt lat="40.7361834" lon="-3.6843481"><ele>1043.0</ele><time>2026-04-10T08:57:44.001Z</time></trkpt><trkpt lat="40.736115" lon="-3.6843814"><ele>1043.0</ele><time>2026-04-10T08:57:46Z</time></trkpt><trkpt lat="40.7360281" lon="-3.6844195"><ele>1043.0</ele><time>2026-04-10T08:57:48.001Z</time></trkpt><trkpt lat="40.7359491" lon="-3.6844576"><ele>1044.4</ele><time>2026-04-10T08:57:50.001Z</time></trkpt><trkpt lat="40.7358576" lon="-3.6844911"><ele>1045.8</ele><time>2026-04-10T08:57:52.001Z</time></trkpt><trkpt lat="40.735772" lon="-3.6845469"><ele>1047.2</ele><time>2026-04-10T08:57:54.001Z</time></trkpt><trkpt lat="40.7357081" lon="-3.6846004"><ele>1048.6</ele><time>2026-04-10T08:57:56.001Z</time></trkpt><trkpt lat="40.7356121" lon="-3.6846448"><ele>1050.0</ele><time>2026-04-10T08:57:58.001Z</time></trkpt><trkpt lat="40.7355162" lon="-3.6846799"><ele>1050.0</ele><time>2026-04-10T08:58:00.001Z</time></trkpt><trkpt lat="40.7354198" lon="-3.6847389"><ele>1050.0</ele><time>2026-04-10T08:58:02.001Z</time></trkpt><trkpt lat="40.7353072" lon="-3.6847892"><ele>1050.0</ele><time>2026-04-10T08:58:04.001Z</time></trkpt><trkpt lat="40.7352038" lon="-3.684818"><ele>1050.0</ele><time>2026-04-10T08:58:06.001Z</time></trkpt><trkpt lat="40.7351146" lon="-3.6848569"><ele>1050.0</ele><time>2026-04-10T08:58:08.001Z</time></trkpt><trkpt lat="40.7350171" lon="-3.6848934"><ele>1051.5</ele><time>2026-04-10T08:58:10.001Z</time></trkpt><trkpt lat="40.7349142" lon="-3.6849426"><ele>1053.0</ele><time>2026-04-10T08:58:12.001Z</time></trkpt><trkpt lat="40.734831" lon="-3.6849845"><ele>1054.5</ele><time>2026-04-10T08:58:14.001Z</time></trkpt><trkpt lat="40.7347615" lon="-3.6850108"><ele>1056.0</ele><time>2026-04-10T08:58:16.001Z</time></trkpt><trkpt lat="40.7346973" lon="-3.6850388"><ele>1057.5</ele><time>2026-04-10T08:58:18.001Z</time></trkpt><trkpt lat="40.7346012" lon="-3.6850196"><ele>1059.0</ele><time>2026-04-10T08:58:21.001Z</time></trkpt><trkpt lat="40.7345049" lon="-3.685045"><ele>1059.0</ele><time>2026-04-10T08:58:23.001Z</time></trkpt><trkpt lat="40.7344038" lon="-3.6850715"><ele>1059.0</ele><time>2026-04-10T08:58:25.001Z</time></trkpt><trkpt lat="40.7343244" lon="-3.6850819"><ele>1059.0</ele><time>2026-04-10T08:58:27.001Z</time></trkpt><trkpt lat="40.7342556" lon="-3.6850971"><ele>1059.0</ele><time>2026-04-10T08:58:29.001Z</time></trkpt><trkpt lat="40.7341957" lon="-3.6851259"><ele>1059.0</ele><time>2026-04-10T08:58:31.001Z</time></trkpt><trkpt lat="40.7341295" lon="-3.6851564"><ele>1059.0</ele><time>2026-04-10T08:58:33.001Z</time></trkpt><trkpt lat="40.7340516" lon="-3.6851628"><ele>1059.5</ele><time>2026-04-10T08:58:35.001Z</time></trkpt><trkpt lat="40.7339977" lon="-3.6852403"><ele>1060.0</ele><time>2026-04-10T08:58:37.001Z</time></trkpt><trkpt lat="40.7339671" lon="-3.6853522"><ele>1060.5</ele><time>2026-04-10T08:58:39.001Z</time></trkpt><trkpt lat="40.7339004" lon="-3.685387"><ele>1061.0</ele><time>2026-04-10T08:58:41.001Z</time></trkpt><trkpt lat="40.7338328" lon="-3.6853329"><ele>1061.5</ele><time>2026-04-10T08:58:43.001Z</time></trkpt><trkpt lat="40.7337359" lon="-3.6852482"><ele>1062.0</ele><time>2026-04-10T08:58:45.001Z</time></trkpt><trkpt lat="40.7336431" lon="-3.6852289"><ele>1062.5</ele><time>2026-04-10T08:58:47Z</time></trkpt><trkpt lat="40.7335296" lon="-3.6852745"><ele>1063.0</ele><time>2026-04-10T08:58:49.001Z</time></trkpt><trkpt lat="40.7334383" lon="-3.6852579"><ele>1063.5</ele><time>2026-04-10T08:58:51Z</time></trkpt><trkpt lat="40.7333729" lon="-3.6852323"><ele>1064.0</ele><time>2026-04-10T08:58:52.001Z</time></trkpt><trkpt lat="40.7332952" lon="-3.6852134"><ele>1064.5</ele><time>2026-04-10T08:58:53Z</time></trkpt><trkpt lat="40.7332167" lon="-3.6851943"><ele>1065.0</ele><time>2026-04-10T08:58:54.001Z</time></trkpt><trkpt lat="40.7331168" lon="-3.6851663"><ele>1065.0</ele><time>2026-04-10T08:58:56.001Z</time></trkpt><trkpt lat="40.7330168" lon="-3.6851531"><ele>1065.0</ele><time>2026-04-10T08:58:58.001Z</time></trkpt><trkpt lat="40.7329125" lon="-3.6851777"><ele>1065.0</ele><time>2026-04-10T08:59:00.001Z</time></trkpt><trkpt lat="40.7328219" lon="-3.6852481"><ele>1065.0</ele><time>2026-04-10T08:59:02Z</time></trkpt><trkpt lat="40.7327174" lon="-3.6853243"><ele>1065.0</ele><time>2026-04-10T08:59:04.001Z</time></trkpt><trkpt lat="40.7326633" lon="-3.6853708"><ele>1065.8333333333333</ele><time>2026-04-10T08:59:05.001Z</time></trkpt><trkpt lat="40.7326016" lon="-3.6854113"><ele>1066.6666666666667</ele><time>2026-04-10T08:59:06.001Z</time></trkpt><trkpt lat="40.732541" lon="-3.6854592"><ele>1067.5</ele><time>2026-04-10T08:59:07Z</time></trkpt><trkpt lat="40.7324793" lon="-3.6854995"><ele>1068.3333333333335</ele><time>2026-04-10T08:59:08.001Z</time></trkpt><trkpt lat="40.7323815" lon="-3.6855795"><ele>1069.1666666666667</ele><time>2026-04-10T08:59:10.001Z</time></trkpt><trkpt lat="40.7322732" lon="-3.685649"><ele>1070.0</ele><time>2026-04-10T08:59:12.001Z</time></trkpt><trkpt lat="40.7322167" lon="-3.6856946"><ele>1070.0</ele><time>2026-04-10T08:59:13.001Z</time></trkpt><trkpt lat="40.7321166" lon="-3.6857836"><ele>1070.0</ele><time>2026-04-10T08:59:15Z</time></trkpt><trkpt lat="40.732013" lon="-3.6858695"><ele>1070.0</ele><time>2026-04-10T08:59:17.001Z</time></trkpt><trkpt lat="40.7319029" lon="-3.6859471"><ele>1070.0</ele><time>2026-04-10T08:59:19.001Z</time></trkpt><trkpt lat="40.7318026" lon="-3.6860235"><ele>1071.2</ele><time>2026-04-10T08:59:21.001Z</time></trkpt><trkpt lat="40.7317008" lon="-3.6860997"><ele>1072.4</ele><time>2026-04-10T08:59:23.001Z</time></trkpt><trkpt lat="40.7316124" lon="-3.6861755"><ele>1073.6</ele><time>2026-04-10T08:59:25Z</time></trkpt><trkpt lat="40.7315333" lon="-3.6862357"><ele>1074.8</ele><time>2026-04-10T08:59:27.001Z</time></trkpt><trkpt lat="40.7314532" lon="-3.6862733"><ele>1076.0</ele><time>2026-04-10T08:59:29.001Z</time></trkpt><trkpt lat="40.7313852" lon="-3.6863121"><ele>1076.0</ele><time>2026-04-10T08:59:31Z</time></trkpt><trkpt lat="40.731283" lon="-3.6863562"><ele>1076.0</ele><time>2026-04-10T08:59:33.001Z</time></trkpt><trkpt lat="40.7311847" lon="-3.6864175"><ele>1076.0</ele><time>2026-04-10T08:59:35.001Z</time></trkpt><trkpt lat="40.7310929" lon="-3.686484"><ele>1076.0</ele><time>2026-04-10T08:59:37.001Z</time></trkpt><trkpt lat="40.731007" lon="-3.6865663"><ele>1076.0</ele><time>2026-04-10T08:59:39.001Z</time></trkpt><trkpt lat="40.7309321" lon="-3.6866396"><ele>1077.2</ele><time>2026-04-10T08:59:41.001Z</time></trkpt><trkpt lat="40.7307894" lon="-3.6867479"><ele>1078.3999999999999</ele><time>2026-04-10T09:00:15.001Z</time></trkpt><trkpt lat="40.7307289" lon="-3.6867825"><ele>1079.6</ele><time>2026-04-10T09:00:16.001Z</time></trkpt><trkpt lat="40.7306176" lon="-3.686862"><ele>1080.8</ele><time>2026-04-10T09:00:18.001Z</time></trkpt><trkpt lat="40.7305523" lon="-3.6868985"><ele>1082.0</ele><time>2026-04-10T09:00:19.001Z</time></trkpt><trkpt lat="40.7304876" lon="-3.6869267"><ele>1082.0</ele><time>2026-04-10T09:00:20.001Z</time></trkpt><trkpt lat="40.7304157" lon="-3.6869434"><ele>1082.0</ele><time>2026-04-10T09:00:21.001Z</time></trkpt><trkpt lat="40.7303417" lon="-3.6869325"><ele>1082.0</ele><time>2026-04-10T09:00:22.001Z</time></trkpt><trkpt lat="40.7302568" lon="-3.6869072"><ele>1082.0</ele><time>2026-04-10T09:00:23.001Z</time></trkpt><trkpt lat="40.7301653" lon="-3.6868695"><ele>1082.0</ele><time>2026-04-10T09:00:24Z</time></trkpt><trkpt lat="40.7300809" lon="-3.6868172"><ele>1082.0</ele><time>2026-04-10T09:00:25.001Z</time></trkpt><trkpt lat="40.73" lon="-3.6867701"><ele>1082.5</ele><time>2026-04-10T09:00:26.001Z</time></trkpt><trkpt lat="40.7299253" lon="-3.6867631"><ele>1083.0</ele><time>2026-04-10T09:00:27.001Z</time></trkpt><trkpt lat="40.7298518" lon="-3.6867786"><ele>1083.5</ele><time>2026-04-10T09:00:28.001Z</time></trkpt><trkpt lat="40.7297758" lon="-3.6868023"><ele>1084.0</ele><time>2026-04-10T09:00:29.001Z</time></trkpt><trkpt lat="40.7296994" lon="-3.6868209"><ele>1084.5</ele><time>2026-04-10T09:00:30.001Z</time></trkpt><trkpt lat="40.7296212" lon="-3.6868526"><ele>1085.0</ele><time>2026-04-10T09:00:31.001Z</time></trkpt><trkpt lat="40.7295506" lon="-3.6869011"><ele>1085.5</ele><time>2026-04-10T09:00:32Z</time></trkpt><trkpt lat="40.7294803" lon="-3.6869581"><ele>1086.0</ele><time>2026-04-10T09:00:33.001Z</time></trkpt><trkpt lat="40.7294141" lon="-3.6870252"><ele>1086.5</ele><time>2026-04-10T09:00:34.001Z</time></trkpt><trkpt lat="40.7293521" lon="-3.687102"><ele>1087.0</ele><time>2026-04-10T09:00:35.001Z</time></trkpt><trkpt lat="40.7293012" lon="-3.6871953"><ele>1087.5</ele><time>2026-04-10T09:00:36.001Z</time></trkpt><trkpt lat="40.7292568" lon="-3.6872945"><ele>1088.0</ele><time>2026-04-10T09:00:37.001Z</time></trkpt><trkpt lat="40.7292066" lon="-3.6873855"><ele>1088.3333333333335</ele><time>2026-04-10T09:00:38.001Z</time></trkpt><trkpt lat="40.7291581" lon="-3.6874688"><ele>1088.6666666666667</ele><time>2026-04-10T09:00:39.001Z</time></trkpt><trkpt lat="40.7291089" lon="-3.687549"><ele>1089.0</ele><time>2026-04-10T09:00:40.001Z</time></trkpt><trkpt lat="40.7290659" lon="-3.6876351"><ele>1089.3333333333333</ele><time>2026-04-10T09:00:41.001Z</time></trkpt><trkpt lat="40.7290292" lon="-3.687726"><ele>1089.6666666666665</ele><time>2026-04-10T09:00:42.001Z</time></trkpt><trkpt lat="40.7290071" lon="-3.687823"><ele>1090.0</ele><time>2026-04-10T09:00:43.001Z</time></trkpt><trkpt lat="40.7290064" lon="-3.6879182"><ele>1090.7142857142858</ele><time>2026-04-10T09:00:44.001Z</time></trkpt><trkpt lat="40.7290292" lon="-3.6880108"><ele>1091.4285714285716</ele><time>2026-04-10T09:00:45.001Z</time></trkpt><trkpt lat="40.7290413" lon="-3.6881064"><ele>1092.142857142857</ele><time>2026-04-10T09:00:46.001Z</time></trkpt><trkpt lat="40.7290372" lon="-3.6881952"><ele>1092.857142857143</ele><time>2026-04-10T09:00:47.001Z</time></trkpt><trkpt lat="40.7290266" lon="-3.68829"><ele>1093.5714285714284</ele><time>2026-04-10T09:00:48.001Z</time></trkpt><trkpt lat="40.7290104" lon="-3.6883779"><ele>1094.2857142857142</ele><time>2026-04-10T09:00:49.001Z</time></trkpt><trkpt lat="40.7289996" lon="-3.6884712"><ele>1095.0</ele><time>2026-04-10T09:00:50.001Z</time></trkpt><trkpt lat="40.7289812" lon="-3.6885681"><ele>1095.1666666666667</ele><time>2026-04-10T09:00:51.001Z</time></trkpt><trkpt lat="40.7289589" lon="-3.688675"><ele>1095.3333333333333</ele><time>2026-04-10T09:00:52.001Z</time></trkpt><trkpt lat="40.7289318" lon="-3.6887732"><ele>1095.5</ele><time>2026-04-10T09:00:53Z</time></trkpt><trkpt lat="40.7289095" lon="-3.6888552"><ele>1095.6666666666665</ele><time>2026-04-10T09:00:54.001Z</time></trkpt><trkpt lat="40.7288865" lon="-3.6889476"><ele>1095.8333333333333</ele><time>2026-04-10T09:00:55.001Z</time></trkpt><trkpt lat="40.7288676" lon="-3.6890463"><ele>1096.0</ele><time>2026-04-10T09:00:56.001Z</time></trkpt><trkpt lat="40.7288517" lon="-3.689144"><ele>1096.0</ele><time>2026-04-10T09:00:57.001Z</time></trkpt><trkpt lat="40.7288268" lon="-3.6892339"><ele>1096.0</ele><time>2026-04-10T09:00:58.001Z</time></trkpt><trkpt lat="40.7287834" lon="-3.6893072"><ele>1096.0</ele><time>2026-04-10T09:00:59.001Z</time></trkpt><trkpt lat="40.7287194" lon="-3.6893742"><ele>1096.0</ele><time>2026-04-10T09:01:00.001Z</time></trkpt><trkpt lat="40.7286519" lon="-3.6894446"><ele>1096.0</ele><time>2026-04-10T09:01:01.001Z</time></trkpt><trkpt lat="40.7285884" lon="-3.6895171"><ele>1096.0</ele><time>2026-04-10T09:01:02.001Z</time></trkpt><trkpt lat="40.7285272" lon="-3.6895896"><ele>1096.8333333333333</ele><time>2026-04-10T09:01:03.001Z</time></trkpt><trkpt lat="40.7284816" lon="-3.6896633"><ele>1097.6666666666665</ele><time>2026-04-10T09:01:04.001Z</time></trkpt><trkpt lat="40.7284513" lon="-3.689755"><ele>1098.5</ele><time>2026-04-10T09:01:05.001Z</time></trkpt><trkpt lat="40.7284243" lon="-3.6898547"><ele>1099.3333333333333</ele><time>2026-04-10T09:01:06.001Z</time></trkpt><trkpt lat="40.7283906" lon="-3.6899445"><ele>1100.1666666666667</ele><time>2026-04-10T09:01:07.001Z</time></trkpt><trkpt lat="40.7283495" lon="-3.6900418"><ele>1101.0</ele><time>2026-04-10T09:01:08.001Z</time></trkpt><trkpt lat="40.7283183" lon="-3.6901478"><ele>1100.8</ele><time>2026-04-10T09:01:09.001Z</time></trkpt><trkpt lat="40.7283032" lon="-3.6902687"><ele>1100.6</ele><time>2026-04-10T09:01:10.001Z</time></trkpt><trkpt lat="40.7282846" lon="-3.6903918"><ele>1100.4</ele><time>2026-04-10T09:01:11Z</time></trkpt><trkpt lat="40.7282512" lon="-3.6905118"><ele>1100.2</ele><time>2026-04-10T09:01:12Z</time></trkpt><trkpt lat="40.7281985" lon="-3.6906059"><ele>1100.0</ele><time>2026-04-10T09:01:13.001Z</time></trkpt><trkpt lat="40.7281132" lon="-3.6906824"><ele>1100.0</ele><time>2026-04-10T09:01:14.001Z</time></trkpt><trkpt lat="40.7279998" lon="-3.6907541"><ele>1100.0</ele><time>2026-04-10T09:01:15.001Z</time></trkpt><trkpt lat="40.7278768" lon="-3.6908437"><ele>1100.0</ele><time>2026-04-10T09:01:16.001Z</time></trkpt><trkpt lat="40.727752" lon="-3.690935"><ele>1100.0</ele><time>2026-04-10T09:01:17.001Z</time></trkpt><trkpt lat="40.7276193" lon="-3.6910208"><ele>1100.25</ele><time>2026-04-10T09:01:18Z</time></trkpt><trkpt lat="40.727488" lon="-3.6911106"><ele>1100.5</ele><time>2026-04-10T09:01:19.001Z</time></trkpt><trkpt lat="40.7273555" lon="-3.6911984"><ele>1100.75</ele><time>2026-04-10T09:01:20.001Z</time></trkpt><trkpt lat="40.7272255" lon="-3.6912818"><ele>1101.0</ele><time>2026-04-10T09:01:21.001Z</time></trkpt><trkpt lat="40.7270948" lon="-3.6913702"><ele>1101.0</ele><time>2026-04-10T09:01:22.001Z</time></trkpt><trkpt lat="40.7269705" lon="-3.6914517"><ele>1101.0</ele><time>2026-04-10T09:01:23.001Z</time></trkpt><trkpt lat="40.7268462" lon="-3.6915321"><ele>1101.0</ele><time>2026-04-10T09:01:24.001Z</time></trkpt><trkpt lat="40.7267198" lon="-3.6916169"><ele>1101.0</ele><time>2026-04-10T09:01:25Z</time></trkpt><trkpt lat="40.7265901" lon="-3.6916928"><ele>1098.25</ele><time>2026-04-10T09:01:26Z</time></trkpt><trkpt lat="40.7264598" lon="-3.6917641"><ele>1095.5</ele><time>2026-04-10T09:01:27.001Z</time></trkpt><trkpt lat="40.7263182" lon="-3.6918256"><ele>1092.75</ele><time>2026-04-10T09:01:28.001Z</time></trkpt><trkpt lat="40.7261688" lon="-3.69188"><ele>1090.0</ele><time>2026-04-10T09:01:29.001Z</time></trkpt><trkpt lat="40.7260135" lon="-3.6919249"><ele>1088.3333333333333</ele><time>2026-04-10T09:01:30.001Z</time></trkpt><trkpt lat="40.7258563" lon="-3.6919616"><ele>1086.6666666666667</ele><time>2026-04-10T09:01:31.001Z</time></trkpt><trkpt lat="40.7256976" lon="-3.6919939"><ele>1085.0</ele><time>2026-04-10T09:01:32.001Z</time></trkpt><trkpt lat="40.725545" lon="-3.692033"><ele>1085.0</ele><time>2026-04-10T09:01:33.001Z</time></trkpt><trkpt lat="40.7254005" lon="-3.6920768"><ele>1085.0</ele><time>2026-04-10T09:01:34.001Z</time></trkpt><trkpt lat="40.7252596" lon="-3.6921289"><ele>1085.0</ele><time>2026-04-10T09:01:35.001Z</time></trkpt><trkpt lat="40.7251223" lon="-3.6921888"><ele>1085.0</ele><time>2026-04-10T09:01:36.001Z</time></trkpt><trkpt lat="40.7249901" lon="-3.6922519"><ele>1082.0</ele><time>2026-04-10T09:01:37.001Z</time></trkpt><trkpt lat="40.7248635" lon="-3.692318"><ele>1079.0</ele><time>2026-04-10T09:01:38.001Z</time></trkpt><trkpt lat="40.7247374" lon="-3.6923936"><ele>1076.0</ele><time>2026-04-10T09:01:39Z</time></trkpt><trkpt lat="40.7246184" lon="-3.6924775"><ele>1073.0</ele><time>2026-04-10T09:01:40.001Z</time></trkpt><trkpt lat="40.7245052" lon="-3.6925738"><ele>1073.0</ele><time>2026-04-10T09:01:41.001Z</time></trkpt><trkpt lat="40.7243999" lon="-3.692675"><ele>1073.0</ele><time>2026-04-10T09:01:42.001Z</time></trkpt><trkpt lat="40.7243044" lon="-3.6927746"><ele>1073.0</ele><time>2026-04-10T09:01:43.001Z</time></trkpt><trkpt lat="40.7241946" lon="-3.692865"><ele>1073.0</ele><time>2026-04-10T09:01:44.001Z</time></trkpt><trkpt lat="40.7240736" lon="-3.6929555"><ele>1072.0</ele><time>2026-04-10T09:01:45.001Z</time></trkpt><trkpt lat="40.7239486" lon="-3.6930512"><ele>1071.0</ele><time>2026-04-10T09:01:46.001Z</time></trkpt><trkpt lat="40.7238231" lon="-3.6931482"><ele>1070.0</ele><time>2026-04-10T09:01:47.001Z</time></trkpt><trkpt lat="40.7237073" lon="-3.6932429"><ele>1069.0</ele><time>2026-04-10T09:01:48Z</time></trkpt><trkpt lat="40.7235991" lon="-3.6933301"><ele>1067.5</ele><time>2026-04-10T09:01:49.001Z</time></trkpt><trkpt lat="40.723488" lon="-3.6934246"><ele>1066.0</ele><time>2026-04-10T09:01:50.001Z</time></trkpt><trkpt lat="40.723386" lon="-3.6935399"><ele>1064.5</ele><time>2026-04-10T09:01:51.001Z</time></trkpt><trkpt lat="40.723287" lon="-3.6936729"><ele>1063.0</ele><time>2026-04-10T09:01:52.001Z</time></trkpt><trkpt lat="40.7231894" lon="-3.6938175"><ele>1063.0</ele><time>2026-04-10T09:01:53.001Z</time></trkpt><trkpt lat="40.7231002" lon="-3.6939645"><ele>1063.0</ele><time>2026-04-10T09:01:54.001Z</time></trkpt><trkpt lat="40.7230096" lon="-3.6941176"><ele>1063.0</ele><time>2026-04-10T09:01:55.001Z</time></trkpt><trkpt lat="40.7229138" lon="-3.6942654"><ele>1063.0</ele><time>2026-04-10T09:01:56.001Z</time></trkpt><trkpt lat="40.7228055" lon="-3.6944178"><ele>1061.3333333333333</ele><time>2026-04-10T09:01:57.001Z</time></trkpt><trkpt lat="40.7226889" lon="-3.6945652"><ele>1059.6666666666667</ele><time>2026-04-10T09:01:58.001Z</time></trkpt><trkpt lat="40.7225587" lon="-3.6947186"><ele>1058.0</ele><time>2026-04-10T09:01:59.001Z</time></trkpt><trkpt lat="40.7224281" lon="-3.6948765"><ele>1058.0</ele><time>2026-04-10T09:02:00.001Z</time></trkpt><trkpt lat="40.7222963" lon="-3.6950285"><ele>1058.0</ele><time>2026-04-10T09:02:01.001Z</time></trkpt><trkpt lat="40.7221688" lon="-3.6951752"><ele>1058.0</ele><time>2026-04-10T09:02:02Z</time></trkpt><trkpt lat="40.7220579" lon="-3.6953126"><ele>1059.75</ele><time>2026-04-10T09:02:03.001Z</time></trkpt><trkpt lat="40.7219517" lon="-3.6954375"><ele>1061.5</ele><time>2026-04-10T09:02:04.001Z</time></trkpt><trkpt lat="40.7218547" lon="-3.695566"><ele>1063.25</ele><time>2026-04-10T09:02:05.001Z</time></trkpt><trkpt lat="40.7217597" lon="-3.695685"><ele>1065.0</ele><time>2026-04-10T09:02:06.001Z</time></trkpt><trkpt lat="40.7216634" lon="-3.6958174"><ele>1062.6666666666667</ele><time>2026-04-10T09:02:07.001Z</time></trkpt><trkpt lat="40.7215664" lon="-3.6959721"><ele>1060.3333333333335</ele><time>2026-04-10T09:02:08.001Z</time></trkpt><trkpt lat="40.7214718" lon="-3.6961407"><ele>1058.0</ele><time>2026-04-10T09:02:09.001Z</time></trkpt><trkpt lat="40.7213743" lon="-3.6963118"><ele>1058.0</ele><time>2026-04-10T09:02:10.001Z</time></trkpt><trkpt lat="40.7212753" lon="-3.6964841"><ele>1058.0</ele><time>2026-04-10T09:02:11.001Z</time></trkpt><trkpt lat="40.7211846" lon="-3.6966511"><ele>1058.0</ele><time>2026-04-10T09:02:12.001Z</time></trkpt><trkpt lat="40.7210901" lon="-3.6968073"><ele>1056.25</ele><time>2026-04-10T09:02:13.001Z</time></trkpt><trkpt lat="40.7210007" lon="-3.696949"><ele>1054.5</ele><time>2026-04-10T09:02:14.001Z</time></trkpt><trkpt lat="40.7209145" lon="-3.6970892"><ele>1052.75</ele><time>2026-04-10T09:02:15.001Z</time></trkpt><trkpt lat="40.7208306" lon="-3.697223"><ele>1051.0</ele><time>2026-04-10T09:02:16.001Z</time></trkpt><trkpt lat="40.7207547" lon="-3.697352"><ele>1051.0</ele><time>2026-04-10T09:02:17.001Z</time></trkpt><trkpt lat="40.7206768" lon="-3.6974825"><ele>1051.0</ele><time>2026-04-10T09:02:18Z</time></trkpt><trkpt lat="40.7206016" lon="-3.6976113"><ele>1051.0</ele><time>2026-04-10T09:02:19Z</time></trkpt><trkpt lat="40.7205237" lon="-3.6977412"><ele>1051.0</ele><time>2026-04-10T09:02:20Z</time></trkpt><trkpt lat="40.7204507" lon="-3.6978681"><ele>1052.0</ele><time>2026-04-10T09:02:21.001Z</time></trkpt><trkpt lat="40.7203742" lon="-3.6979886"><ele>1053.0</ele><time>2026-04-10T09:02:22.001Z</time></trkpt><trkpt lat="40.7203057" lon="-3.6981066"><ele>1054.0</ele><time>2026-04-10T09:02:23.001Z</time></trkpt><trkpt lat="40.7202416" lon="-3.6982253"><ele>1055.0</ele><time>2026-04-10T09:02:24Z</time></trkpt><trkpt lat="40.7201868" lon="-3.6983466"><ele>1056.0</ele><time>2026-04-10T09:02:25.001Z</time></trkpt><trkpt lat="40.7201425" lon="-3.6984723"><ele>1054.0</ele><time>2026-04-10T09:02:26.001Z</time></trkpt><trkpt lat="40.7200981" lon="-3.6985928"><ele>1052.0</ele><time>2026-04-10T09:02:27Z</time></trkpt><trkpt lat="40.7200448" lon="-3.6987053"><ele>1050.0</ele><time>2026-04-10T09:02:28.001Z</time></trkpt><trkpt lat="40.7199797" lon="-3.698822"><ele>1048.0</ele><time>2026-04-10T09:02:29.001Z</time></trkpt><trkpt lat="40.7199072" lon="-3.698936"><ele>1046.0</ele><time>2026-04-10T09:02:30.001Z</time></trkpt><trkpt lat="40.719834" lon="-3.6990459"><ele>1046.0</ele><time>2026-04-10T09:02:31.001Z</time></trkpt><trkpt lat="40.7197598" lon="-3.6991576"><ele>1046.0</ele><time>2026-04-10T09:02:32Z</time></trkpt><trkpt lat="40.7196872" lon="-3.6992722"><ele>1046.0</ele><time>2026-04-10T09:02:33.001Z</time></trkpt><trkpt lat="40.7196195" lon="-3.6993925"><ele>1046.0</ele><time>2026-04-10T09:02:34.001Z</time></trkpt><trkpt lat="40.7195444" lon="-3.6995136"><ele>1047.25</ele><time>2026-04-10T09:02:35.001Z</time></trkpt><trkpt lat="40.7194664" lon="-3.6996331"><ele>1048.5</ele><time>2026-04-10T09:02:36.001Z</time></trkpt><trkpt lat="40.7193863" lon="-3.6997493"><ele>1049.75</ele><time>2026-04-10T09:02:37Z</time></trkpt><trkpt lat="40.7192911" lon="-3.699869"><ele>1051.0</ele><time>2026-04-10T09:02:38Z</time></trkpt><trkpt lat="40.7191826" lon="-3.6999934"><ele>1049.0</ele><time>2026-04-10T09:02:39.001Z</time></trkpt><trkpt lat="40.7190768" lon="-3.7001264"><ele>1047.0</ele><time>2026-04-10T09:02:40.001Z</time></trkpt><trkpt lat="40.7189732" lon="-3.7002643"><ele>1045.0</ele><time>2026-04-10T09:02:41.001Z</time></trkpt><trkpt lat="40.7188703" lon="-3.7004068"><ele>1043.0</ele><time>2026-04-10T09:02:42.001Z</time></trkpt><trkpt lat="40.7187676" lon="-3.7005414"><ele>1043.0</ele><time>2026-04-10T09:02:43.001Z</time></trkpt><trkpt lat="40.7186649" lon="-3.7006841"><ele>1043.0</ele><time>2026-04-10T09:02:44.001Z</time></trkpt><trkpt lat="40.7185747" lon="-3.7008346"><ele>1043.0</ele><time>2026-04-10T09:02:45.001Z</time></trkpt><trkpt lat="40.7184875" lon="-3.7009884"><ele>1043.0</ele><time>2026-04-10T09:02:46.001Z</time></trkpt><trkpt lat="40.7184032" lon="-3.7011475"><ele>1042.5</ele><time>2026-04-10T09:02:47.001Z</time></trkpt><trkpt lat="40.7183262" lon="-3.7013101"><ele>1042.0</ele><time>2026-04-10T09:02:48.001Z</time></trkpt><trkpt lat="40.7182459" lon="-3.7014794"><ele>1041.5</ele><time>2026-04-10T09:02:49Z</time></trkpt><trkpt lat="40.7181651" lon="-3.7016463"><ele>1041.0</ele><time>2026-04-10T09:02:50.001Z</time></trkpt><trkpt lat="40.7180873" lon="-3.7018151"><ele>1043.0</ele><time>2026-04-10T09:02:51.001Z</time></trkpt><trkpt lat="40.718001" lon="-3.7019811"><ele>1045.0</ele><time>2026-04-10T09:02:52.001Z</time></trkpt><trkpt lat="40.7179136" lon="-3.7021417"><ele>1047.0</ele><time>2026-04-10T09:02:53Z</time></trkpt><trkpt lat="40.7178196" lon="-3.7023056"><ele>1045.3333333333333</ele><time>2026-04-10T09:02:54.001Z</time></trkpt><trkpt lat="40.7177246" lon="-3.7024725"><ele>1043.6666666666665</ele><time>2026-04-10T09:02:55.001Z</time></trkpt><trkpt lat="40.7176294" lon="-3.7026485"><ele>1042.0</ele><time>2026-04-10T09:02:56.001Z</time></trkpt><trkpt lat="40.7175288" lon="-3.7028242"><ele>1042.0</ele><time>2026-04-10T09:02:57.001Z</time></trkpt><trkpt lat="40.7174225" lon="-3.7030011"><ele>1042.0</ele><time>2026-04-10T09:02:58.001Z</time></trkpt><trkpt lat="40.7173135" lon="-3.7031798"><ele>1042.0</ele><time>2026-04-10T09:02:59.001Z</time></trkpt><trkpt lat="40.7172109" lon="-3.7033466"><ele>1042.0</ele><time>2026-04-10T09:03:00.001Z</time></trkpt><trkpt lat="40.7171112" lon="-3.7035079"><ele>1042.0</ele><time>2026-04-10T09:03:01.001Z</time></trkpt><trkpt lat="40.7170093" lon="-3.7036639"><ele>1042.0</ele><time>2026-04-10T09:03:02.001Z</time></trkpt><trkpt lat="40.7169116" lon="-3.7038238"><ele>1042.0</ele><time>2026-04-10T09:03:03.001Z</time></trkpt><trkpt lat="40.716815" lon="-3.703986"><ele>1042.0</ele><time>2026-04-10T09:03:04.001Z</time></trkpt><trkpt lat="40.7167312" lon="-3.7041435"><ele>1042.0</ele><time>2026-04-10T09:03:05.001Z</time></trkpt><trkpt lat="40.7166534" lon="-3.7043011"><ele>1042.0</ele><time>2026-04-10T09:03:06.001Z</time></trkpt><trkpt lat="40.7165791" lon="-3.7044499"><ele>1043.75</ele><time>2026-04-10T09:03:07.001Z</time></trkpt><trkpt lat="40.716507" lon="-3.7045912"><ele>1045.5</ele><time>2026-04-10T09:03:08.001Z</time></trkpt><trkpt lat="40.7164325" lon="-3.7047244"><ele>1047.25</ele><time>2026-04-10T09:03:09.001Z</time></trkpt><trkpt lat="40.7163558" lon="-3.7048473"><ele>1049.0</ele><time>2026-04-10T09:03:10.001Z</time></trkpt><trkpt lat="40.7162855" lon="-3.7049522"><ele>1049.0</ele><time>2026-04-10T09:03:11.001Z</time></trkpt><trkpt lat="40.7162059" lon="-3.7050372"><ele>1049.0</ele><time>2026-04-10T09:03:12.001Z</time></trkpt><trkpt lat="40.7161164" lon="-3.7051035"><ele>1049.0</ele><time>2026-04-10T09:03:13.001Z</time></trkpt><trkpt lat="40.7160323" lon="-3.7051807"><ele>1049.0</ele><time>2026-04-10T09:03:14.001Z</time></trkpt><trkpt lat="40.7159691" lon="-3.705283"><ele>1049.0</ele><time>2026-04-10T09:03:15.001Z</time></trkpt><trkpt lat="40.7159174" lon="-3.7054028"><ele>1047.4</ele><time>2026-04-10T09:03:16Z</time></trkpt><trkpt lat="40.7158819" lon="-3.7055379"><ele>1045.8000000000002</ele><time>2026-04-10T09:03:17.001Z</time></trkpt><trkpt lat="40.7158455" lon="-3.7056618"><ele>1044.1999999999998</ele><time>2026-04-10T09:03:18.001Z</time></trkpt><trkpt lat="40.7157996" lon="-3.7057787"><ele>1042.6</ele><time>2026-04-10T09:03:19Z</time></trkpt><trkpt lat="40.7157343" lon="-3.7058684"><ele>1041.0</ele><time>2026-04-10T09:03:20.001Z</time></trkpt><trkpt lat="40.7156559" lon="-3.7059516"><ele>1041.0</ele><time>2026-04-10T09:03:21.001Z</time></trkpt><trkpt lat="40.7155798" lon="-3.7060473"><ele>1041.0</ele><time>2026-04-10T09:03:22.001Z</time></trkpt><trkpt lat="40.715507" lon="-3.7061479"><ele>1041.0</ele><time>2026-04-10T09:03:23.001Z</time></trkpt><trkpt lat="40.7154344" lon="-3.7062481"><ele>1041.0</ele><time>2026-04-10T09:03:24Z</time></trkpt><trkpt lat="40.7153545" lon="-3.7063246"><ele>1041.0</ele><time>2026-04-10T09:03:25.001Z</time></trkpt><trkpt lat="40.7152582" lon="-3.7063887"><ele>1039.3999999999999</ele><time>2026-04-10T09:03:26.001Z</time></trkpt><trkpt lat="40.7151644" lon="-3.7064563"><ele>1037.8</ele><time>2026-04-10T09:03:27.001Z</time></trkpt><trkpt lat="40.7150738" lon="-3.7065303"><ele>1036.1999999999998</ele><time>2026-04-10T09:03:28.001Z</time></trkpt><trkpt lat="40.7149981" lon="-3.7066208"><ele>1034.6</ele><time>2026-04-10T09:03:29.001Z</time></trkpt><trkpt lat="40.7149336" lon="-3.7067336"><ele>1033.0</ele><time>2026-04-10T09:03:30.001Z</time></trkpt><trkpt lat="40.7148745" lon="-3.706859"><ele>1034.25</ele><time>2026-04-10T09:03:31.001Z</time></trkpt><trkpt lat="40.7148222" lon="-3.706989"><ele>1035.5</ele><time>2026-04-10T09:03:32.001Z</time></trkpt><trkpt lat="40.7147679" lon="-3.7071178"><ele>1036.75</ele><time>2026-04-10T09:03:33.001Z</time></trkpt><trkpt lat="40.7147063" lon="-3.7072501"><ele>1038.0</ele><time>2026-04-10T09:03:34.001Z</time></trkpt><trkpt lat="40.7146395" lon="-3.7073847"><ele>1038.0</ele><time>2026-04-10T09:03:35.001Z</time></trkpt><trkpt lat="40.7145673" lon="-3.7075168"><ele>1038.0</ele><time>2026-04-10T09:03:36.001Z</time></trkpt><trkpt lat="40.7144815" lon="-3.7076158"><ele>1038.0</ele><time>2026-04-10T09:03:37.001Z</time></trkpt><trkpt lat="40.71438" lon="-3.7077006"><ele>1038.0</ele><time>2026-04-10T09:03:38.001Z</time></trkpt><trkpt lat="40.7142829" lon="-3.7077919"><ele>1035.75</ele><time>2026-04-10T09:03:39.001Z</time></trkpt><trkpt lat="40.71419" lon="-3.7079111"><ele>1033.5</ele><time>2026-04-10T09:03:40.001Z</time></trkpt><trkpt lat="40.7141085" lon="-3.7080444"><ele>1031.25</ele><time>2026-04-10T09:03:41.001Z</time></trkpt><trkpt lat="40.7140183" lon="-3.7081742"><ele>1029.0</ele><time>2026-04-10T09:03:42.001Z</time></trkpt><trkpt lat="40.7139298" lon="-3.7083076"><ele>1029.0</ele><time>2026-04-10T09:03:43.001Z</time></trkpt><trkpt lat="40.7138469" lon="-3.7084462"><ele>1029.0</ele><time>2026-04-10T09:03:44.001Z</time></trkpt><trkpt lat="40.7137665" lon="-3.7085798"><ele>1029.0</ele><time>2026-04-10T09:03:45Z</time></trkpt><trkpt lat="40.7136903" lon="-3.7087093"><ele>1029.0</ele><time>2026-04-10T09:03:46.001Z</time></trkpt><trkpt lat="40.7136183" lon="-3.7088291"><ele>1029.2</ele><time>2026-04-10T09:03:47.001Z</time></trkpt><trkpt lat="40.7135474" lon="-3.7089424"><ele>1029.4</ele><time>2026-04-10T09:03:48.001Z</time></trkpt><trkpt lat="40.7134771" lon="-3.709051"><ele>1029.6</ele><time>2026-04-10T09:03:49.001Z</time></trkpt><trkpt lat="40.7134093" lon="-3.7091595"><ele>1029.8</ele><time>2026-04-10T09:03:50.001Z</time></trkpt><trkpt lat="40.7133399" lon="-3.709278"><ele>1030.0</ele><time>2026-04-10T09:03:51.001Z</time></trkpt><trkpt lat="40.7132763" lon="-3.7094123"><ele>1030.0</ele><time>2026-04-10T09:03:52.001Z</time></trkpt><trkpt lat="40.713221" lon="-3.7095631"><ele>1030.0</ele><time>2026-04-10T09:03:53.001Z</time></trkpt><trkpt lat="40.7131741" lon="-3.7097136"><ele>1030.0</ele><time>2026-04-10T09:03:54Z</time></trkpt><trkpt lat="40.7131278" lon="-3.7098632"><ele>1030.0</ele><time>2026-04-10T09:03:55.001Z</time></trkpt><trkpt lat="40.7130817" lon="-3.71001"><ele>1030.0</ele><time>2026-04-10T09:03:56.001Z</time></trkpt><trkpt lat="40.7130339" lon="-3.7101541"><ele>1030.0</ele><time>2026-04-10T09:03:57.001Z</time></trkpt><trkpt lat="40.7129815" lon="-3.7103041"><ele>1030.0</ele><time>2026-04-10T09:03:58.001Z</time></trkpt><trkpt lat="40.712924" lon="-3.710468"><ele>1030.0</ele><time>2026-04-10T09:03:59.001Z</time></trkpt><trkpt lat="40.712868" lon="-3.7106372"><ele>1031.25</ele><time>2026-04-10T09:04:00.001Z</time></trkpt><trkpt lat="40.7128181" lon="-3.7108081"><ele>1032.5</ele><time>2026-04-10T09:04:01Z</time></trkpt><trkpt lat="40.7127852" lon="-3.7109685"><ele>1033.75</ele><time>2026-04-10T09:04:02.001Z</time></trkpt><trkpt lat="40.7127661" lon="-3.7111383"><ele>1035.0</ele><time>2026-04-10T09:04:03.001Z</time></trkpt><trkpt lat="40.7127502" lon="-3.7113111"><ele>1033.6</ele><time>2026-04-10T09:04:04.001Z</time></trkpt><trkpt lat="40.7127353" lon="-3.7114767"><ele>1032.2</ele><time>2026-04-10T09:04:05Z</time></trkpt><trkpt lat="40.7127134" lon="-3.7116237"><ele>1030.8</ele><time>2026-04-10T09:04:06.001Z</time></trkpt><trkpt lat="40.7126811" lon="-3.7117484"><ele>1029.4</ele><time>2026-04-10T09:04:07.001Z</time></trkpt><trkpt lat="40.7126402" lon="-3.7118555"><ele>1028.0</ele><time>2026-04-10T09:04:08.001Z</time></trkpt><trkpt lat="40.7126015" lon="-3.7119722"><ele>1028.0</ele><time>2026-04-10T09:04:09.001Z</time></trkpt><trkpt lat="40.7125581" lon="-3.7120985"><ele>1028.0</ele><time>2026-04-10T09:04:10.001Z</time></trkpt><trkpt lat="40.7125064" lon="-3.7122349"><ele>1028.0</ele><time>2026-04-10T09:04:11.001Z</time></trkpt><trkpt lat="40.7124541" lon="-3.712372"><ele>1028.0</ele><time>2026-04-10T09:04:12.001Z</time></trkpt><trkpt lat="40.7124005" lon="-3.7125068"><ele>1028.0</ele><time>2026-04-10T09:04:13.001Z</time></trkpt><trkpt lat="40.712337" lon="-3.7126279"><ele>1028.0</ele><time>2026-04-10T09:04:14.001Z</time></trkpt><trkpt lat="40.7122718" lon="-3.7127423"><ele>1028.0</ele><time>2026-04-10T09:04:15.001Z</time></trkpt><trkpt lat="40.7122047" lon="-3.7128618"><ele>1028.0</ele><time>2026-04-10T09:04:16.001Z</time></trkpt><trkpt lat="40.712142" lon="-3.7129873"><ele>1028.0</ele><time>2026-04-10T09:04:17.001Z</time></trkpt><trkpt lat="40.7120768" lon="-3.7131115"><ele>1026.8</ele><time>2026-04-10T09:04:18.001Z</time></trkpt><trkpt lat="40.7120097" lon="-3.7132186"><ele>1025.6</ele><time>2026-04-10T09:04:19.001Z</time></trkpt><trkpt lat="40.7119401" lon="-3.7133125"><ele>1024.4</ele><time>2026-04-10T09:04:20.001Z</time></trkpt><trkpt lat="40.7118696" lon="-3.713396"><ele>1023.2</ele><time>2026-04-10T09:04:21.001Z</time></trkpt><trkpt lat="40.7118062" lon="-3.7134713"><ele>1022.0</ele><time>2026-04-10T09:04:22.001Z</time></trkpt><trkpt lat="40.711737" lon="-3.7135372"><ele>1022.0</ele><time>2026-04-10T09:04:23.001Z</time></trkpt><trkpt lat="40.7116554" lon="-3.7135661"><ele>1022.0</ele><time>2026-04-10T09:04:24.001Z</time></trkpt><trkpt lat="40.7115534" lon="-3.7135652"><ele>1022.0</ele><time>2026-04-10T09:04:25.001Z</time></trkpt><trkpt lat="40.7114705" lon="-3.7135824"><ele>1022.0</ele><time>2026-04-10T09:04:26.001Z</time></trkpt><trkpt lat="40.7113884" lon="-3.7136234"><ele>1022.0</ele><time>2026-04-10T09:04:27.001Z</time></trkpt><trkpt lat="40.7113143" lon="-3.7137066"><ele>1022.0</ele><time>2026-04-10T09:04:28Z</time></trkpt><trkpt lat="40.711237" lon="-3.7137956"><ele>1022.0</ele><time>2026-04-10T09:04:29.001Z</time></trkpt><trkpt lat="40.7111479" lon="-3.7138841"><ele>1022.0</ele><time>2026-04-10T09:04:30Z</time></trkpt><trkpt lat="40.7110602" lon="-3.7139806"><ele>1022.0</ele><time>2026-04-10T09:04:31.001Z</time></trkpt><trkpt lat="40.7109786" lon="-3.7140815"><ele>1022.0</ele><time>2026-04-10T09:04:32.001Z</time></trkpt><trkpt lat="40.7109256" lon="-3.7141765"><ele>1022.0000000000001</ele><time>2026-04-10T09:04:33.001Z</time></trkpt><trkpt lat="40.7108856" lon="-3.7142842"><ele>1022.0</ele><time>2026-04-10T09:04:34.001Z</time></trkpt><trkpt lat="40.7108526" lon="-3.7143874"><ele>1022.0</ele><time>2026-04-10T09:04:35.001Z</time></trkpt><trkpt lat="40.7108091" lon="-3.7144588"><ele>1022.0</ele><time>2026-04-10T09:04:36.001Z</time></trkpt><trkpt lat="40.7107627" lon="-3.7145167"><ele>1022.0000000000001</ele><time>2026-04-10T09:04:37.001Z</time></trkpt><trkpt lat="40.7107217" lon="-3.7146916"><ele>1022.0</ele><time>2026-04-10T09:04:39.001Z</time></trkpt><trkpt lat="40.7106966" lon="-3.7147997"><ele>1023.0</ele><time>2026-04-10T09:04:40Z</time></trkpt><trkpt lat="40.7106583" lon="-3.714917"><ele>1024.0</ele><time>2026-04-10T09:04:41.001Z</time></trkpt><trkpt lat="40.7106112" lon="-3.7150323"><ele>1025.0</ele><time>2026-04-10T09:04:42.001Z</time></trkpt><trkpt lat="40.7105521" lon="-3.7151406"><ele>1026.0</ele><time>2026-04-10T09:04:43.001Z</time></trkpt><trkpt lat="40.7104777" lon="-3.715238"><ele>1027.0</ele><time>2026-04-10T09:04:44.001Z</time></trkpt><trkpt lat="40.7103906" lon="-3.7153238"><ele>1027.4</ele><time>2026-04-10T09:04:45Z</time></trkpt><trkpt lat="40.7103055" lon="-3.7154013"><ele>1027.8000000000002</ele><time>2026-04-10T09:04:46.001Z</time></trkpt><trkpt lat="40.7102254" lon="-3.7154619"><ele>1028.2</ele><time>2026-04-10T09:04:47.001Z</time></trkpt><trkpt lat="40.7101526" lon="-3.7155086"><ele>1028.6000000000001</ele><time>2026-04-10T09:04:48Z</time></trkpt><trkpt lat="40.7100842" lon="-3.7155415"><ele>1029.0</ele><time>2026-04-10T09:04:49.001Z</time></trkpt><trkpt lat="40.7100197" lon="-3.7156578"><ele>1029.0</ele><time>2026-04-10T09:04:51.001Z</time></trkpt><trkpt lat="40.7099792" lon="-3.7158097"><ele>1029.0</ele><time>2026-04-10T09:04:53.001Z</time></trkpt><trkpt lat="40.7099602" lon="-3.7158924"><ele>1029.0</ele><time>2026-04-10T09:04:54.001Z</time></trkpt><trkpt lat="40.7099429" lon="-3.7159916"><ele>1029.0</ele><time>2026-04-10T09:04:55.001Z</time></trkpt><trkpt lat="40.7099277" lon="-3.716102"><ele>1029.0</ele><time>2026-04-10T09:04:56.001Z</time></trkpt><trkpt lat="40.7099097" lon="-3.7162258"><ele>1029.0</ele><time>2026-04-10T09:04:57.001Z</time></trkpt><trkpt lat="40.709888" lon="-3.7163543"><ele>1029.8</ele><time>2026-04-10T09:04:58.001Z</time></trkpt><trkpt lat="40.7098698" lon="-3.7164873"><ele>1030.6000000000001</ele><time>2026-04-10T09:04:59.001Z</time></trkpt><trkpt lat="40.7098628" lon="-3.7166222"><ele>1031.4</ele><time>2026-04-10T09:05:00.001Z</time></trkpt><trkpt lat="40.7098615" lon="-3.7167552"><ele>1032.2</ele><time>2026-04-10T09:05:01.001Z</time></trkpt><trkpt lat="40.7098754" lon="-3.7168825"><ele>1033.0</ele><time>2026-04-10T09:05:02.001Z</time></trkpt><trkpt lat="40.7098869" lon="-3.7170166"><ele>1034.4</ele><time>2026-04-10T09:05:03.001Z</time></trkpt><trkpt lat="40.7098917" lon="-3.7171533"><ele>1035.8</ele><time>2026-04-10T09:05:04.001Z</time></trkpt><trkpt lat="40.7098977" lon="-3.7172921"><ele>1037.2</ele><time>2026-04-10T09:05:05.001Z</time></trkpt><trkpt lat="40.7098877" lon="-3.7174244"><ele>1038.6</ele><time>2026-04-10T09:05:06.001Z</time></trkpt><trkpt lat="40.7098695" lon="-3.7175606"><ele>1040.0</ele><time>2026-04-10T09:05:07.001Z</time></trkpt><trkpt lat="40.709845" lon="-3.7177011"><ele>1041.2</ele><time>2026-04-10T09:05:08.001Z</time></trkpt><trkpt lat="40.7098093" lon="-3.7178433"><ele>1042.4</ele><time>2026-04-10T09:05:09.001Z</time></trkpt><trkpt lat="40.7097688" lon="-3.7179778"><ele>1043.6</ele><time>2026-04-10T09:05:10.001Z</time></trkpt><trkpt lat="40.7097282" lon="-3.7181083"><ele>1044.8</ele><time>2026-04-10T09:05:11.001Z</time></trkpt><trkpt lat="40.7096825" lon="-3.7182249"><ele>1046.0</ele><time>2026-04-10T09:05:12.001Z</time></trkpt><trkpt lat="40.709631" lon="-3.7183318"><ele>1046.0</ele><time>2026-04-10T09:05:13.001Z</time></trkpt><trkpt lat="40.7095724" lon="-3.7184319"><ele>1046.0</ele><time>2026-04-10T09:05:14.001Z</time></trkpt><trkpt lat="40.7095152" lon="-3.7185189"><ele>1046.0</ele><time>2026-04-10T09:05:15.001Z</time></trkpt><trkpt lat="40.7094651" lon="-3.7185848"><ele>1046.0</ele><time>2026-04-10T09:05:16.001Z</time></trkpt><trkpt lat="40.7094058" lon="-3.718677"><ele>1046.0</ele><time>2026-04-10T09:05:18.001Z</time></trkpt><trkpt lat="40.7093424" lon="-3.7187061"><ele>1046.0</ele><time>2026-04-10T09:05:24.001Z</time></trkpt><trkpt lat="40.709245" lon="-3.7187547"><ele>1046.8</ele><time>2026-04-10T09:05:26.001Z</time></trkpt><trkpt lat="40.7091274" lon="-3.7188298"><ele>1047.6</ele><time>2026-04-10T09:05:28.001Z</time></trkpt><trkpt lat="40.7090529" lon="-3.7188906"><ele>1048.4</ele><time>2026-04-10T09:05:29.001Z</time></trkpt><trkpt lat="40.7089699" lon="-3.7189608"><ele>1049.2</ele><time>2026-04-10T09:05:30.001Z</time></trkpt><trkpt lat="40.7088899" lon="-3.7190313"><ele>1050.0</ele><time>2026-04-10T09:05:31.001Z</time></trkpt><trkpt lat="40.7088162" lon="-3.7191117"><ele>1050.0</ele><time>2026-04-10T09:05:32.001Z</time></trkpt><trkpt lat="40.708748" lon="-3.7192143"><ele>1050.0</ele><time>2026-04-10T09:05:33.001Z</time></trkpt><trkpt lat="40.7086879" lon="-3.7193119"><ele>1050.0</ele><time>2026-04-10T09:05:34.001Z</time></trkpt><trkpt lat="40.7086211" lon="-3.7193918"><ele>1050.0</ele><time>2026-04-10T09:05:35.001Z</time></trkpt><trkpt lat="40.7085451" lon="-3.7194676"><ele>1050.0</ele><time>2026-04-10T09:05:36Z</time></trkpt><trkpt lat="40.7084535" lon="-3.7195385"><ele>1048.8</ele><time>2026-04-10T09:05:37.001Z</time></trkpt><trkpt lat="40.7083593" lon="-3.7195943"><ele>1047.6</ele><time>2026-04-10T09:05:38.001Z</time></trkpt><trkpt lat="40.7082689" lon="-3.7196601"><ele>1046.4</ele><time>2026-04-10T09:05:39Z</time></trkpt><trkpt lat="40.7081763" lon="-3.7197234"><ele>1045.2</ele><time>2026-04-10T09:05:40.001Z</time></trkpt><trkpt lat="40.7080789" lon="-3.7197807"><ele>1044.0</ele><time>2026-04-10T09:05:41.001Z</time></trkpt><trkpt lat="40.7079755" lon="-3.7198306"><ele>1044.0</ele><time>2026-04-10T09:05:42Z</time></trkpt><trkpt lat="40.7078723" lon="-3.7198763"><ele>1044.0</ele><time>2026-04-10T09:05:43.001Z</time></trkpt><trkpt lat="40.7077739" lon="-3.7199179"><ele>1044.0</ele><time>2026-04-10T09:05:44.001Z</time></trkpt><trkpt lat="40.7076918" lon="-3.71995"><ele>1044.0</ele><time>2026-04-10T09:05:45.001Z</time></trkpt><trkpt lat="40.7076211" lon="-3.7199596"><ele>1044.0</ele><time>2026-04-10T09:05:46.001Z</time></trkpt><trkpt lat="40.7075537" lon="-3.7199626"><ele>1044.0</ele><time>2026-04-10T09:05:47Z</time></trkpt><trkpt lat="40.7074873" lon="-3.7199719"><ele>1044.8333333333333</ele><time>2026-04-10T09:05:48.001Z</time></trkpt><trkpt lat="40.7074198" lon="-3.7199854"><ele>1045.6666666666667</ele><time>2026-04-10T09:05:49.001Z</time></trkpt><trkpt lat="40.7073457" lon="-3.720003"><ele>1046.5</ele><time>2026-04-10T09:05:50.001Z</time></trkpt><trkpt lat="40.7072726" lon="-3.7200333"><ele>1047.3333333333335</ele><time>2026-04-10T09:05:51.001Z</time></trkpt><trkpt lat="40.7072035" lon="-3.7200714"><ele>1048.1666666666667</ele><time>2026-04-10T09:05:52.001Z</time></trkpt><trkpt lat="40.7071275" lon="-3.7201092"><ele>1049.0</ele><time>2026-04-10T09:05:53.001Z</time></trkpt><trkpt lat="40.7070513" lon="-3.7201408"><ele>1049.0</ele><time>2026-04-10T09:05:54.001Z</time></trkpt><trkpt lat="40.7069772" lon="-3.7201765"><ele>1049.0</ele><time>2026-04-10T09:05:55.001Z</time></trkpt><trkpt lat="40.7068961" lon="-3.7202111"><ele>1049.0</ele><time>2026-04-10T09:05:56.001Z</time></trkpt><trkpt lat="40.7068093" lon="-3.7202371"><ele>1049.0</ele><time>2026-04-10T09:05:57.001Z</time></trkpt><trkpt lat="40.7067311" lon="-3.7202641"><ele>1049.0</ele><time>2026-04-10T09:05:58.001Z</time></trkpt><trkpt lat="40.7066504" lon="-3.7202926"><ele>1049.0</ele><time>2026-04-10T09:05:59.001Z</time></trkpt><trkpt lat="40.7065669" lon="-3.7203221"><ele>1048.6666666666667</ele><time>2026-04-10T09:06:00.001Z</time></trkpt><trkpt lat="40.7064873" lon="-3.7203553"><ele>1048.3333333333335</ele><time>2026-04-10T09:06:01.001Z</time></trkpt><trkpt lat="40.7064097" lon="-3.7203878"><ele>1048.0</ele><time>2026-04-10T09:06:02.001Z</time></trkpt><trkpt lat="40.7063278" lon="-3.7204158"><ele>1047.6666666666667</ele><time>2026-04-10T09:06:03.001Z</time></trkpt><trkpt lat="40.7062517" lon="-3.7204402"><ele>1047.3333333333333</ele><time>2026-04-10T09:06:04.001Z</time></trkpt><trkpt lat="40.7061847" lon="-3.7204602"><ele>1047.0</ele><time>2026-04-10T09:06:05Z</time></trkpt><trkpt lat="40.706121" lon="-3.7204873"><ele>1048.7142857142858</ele><time>2026-04-10T09:06:06.001Z</time></trkpt><trkpt lat="40.706058" lon="-3.7205137"><ele>1050.4285714285716</ele><time>2026-04-10T09:06:07Z</time></trkpt><trkpt lat="40.7059875" lon="-3.7205419"><ele>1052.142857142857</ele><time>2026-04-10T09:06:08.001Z</time></trkpt><trkpt lat="40.7059194" lon="-3.7205645"><ele>1053.857142857143</ele><time>2026-04-10T09:06:09Z</time></trkpt><trkpt lat="40.7058489" lon="-3.7205851"><ele>1055.5714285714284</ele><time>2026-04-10T09:06:10Z</time></trkpt><trkpt lat="40.7057814" lon="-3.7206086"><ele>1057.2857142857142</ele><time>2026-04-10T09:06:11.001Z</time></trkpt><trkpt lat="40.7057187" lon="-3.7206327"><ele>1059.0</ele><time>2026-04-10T09:06:12.001Z</time></trkpt><trkpt lat="40.7055992" lon="-3.7206905"><ele>1059.0</ele><time>2026-04-10T09:06:14Z</time></trkpt><trkpt lat="40.7054885" lon="-3.720743"><ele>1059.0</ele><time>2026-04-10T09:06:16.001Z</time></trkpt><trkpt lat="40.7054272" lon="-3.7207632"><ele>1059.0</ele><time>2026-04-10T09:06:17.001Z</time></trkpt><trkpt lat="40.7053359" lon="-3.7208044"><ele>1059.0</ele><time>2026-04-10T09:06:19.001Z</time></trkpt><trkpt lat="40.7052675" lon="-3.7208663"><ele>1059.0</ele><time>2026-04-10T09:06:21.001Z</time></trkpt><trkpt lat="40.7052033" lon="-3.7209406"><ele>1059.0</ele><time>2026-04-10T09:06:23.001Z</time></trkpt><trkpt lat="40.70515" lon="-3.72103"><ele>1058.6000000000001</ele><time>2026-04-10T09:06:25.001Z</time></trkpt><trkpt lat="40.7050599" lon="-3.7211039"><ele>1058.2</ele><time>2026-04-10T09:06:27.001Z</time></trkpt><trkpt lat="40.7049868" lon="-3.7211446"><ele>1057.8000000000002</ele><time>2026-04-10T09:06:28.001Z</time></trkpt><trkpt lat="40.7049123" lon="-3.7211899"><ele>1057.4</ele><time>2026-04-10T09:06:29.001Z</time></trkpt><trkpt lat="40.7048472" lon="-3.72123"><ele>1057.0</ele><time>2026-04-10T09:06:30.001Z</time></trkpt><trkpt lat="40.704742" lon="-3.7213182"><ele>1057.0</ele><time>2026-04-10T09:06:32.001Z</time></trkpt><trkpt lat="40.7046853" lon="-3.7213736"><ele>1057.0</ele><time>2026-04-10T09:06:33.001Z</time></trkpt><trkpt lat="40.7046297" lon="-3.7214265"><ele>1057.0</ele><time>2026-04-10T09:06:34.001Z</time></trkpt><trkpt lat="40.7045715" lon="-3.7214839"><ele>1057.0</ele><time>2026-04-10T09:06:35.001Z</time></trkpt><trkpt lat="40.7045103" lon="-3.7215384"><ele>1057.0</ele><time>2026-04-10T09:06:36.001Z</time></trkpt><trkpt lat="40.7044553" lon="-3.7215928"><ele>1057.0</ele><time>2026-04-10T09:06:37.001Z</time></trkpt><trkpt lat="40.7044048" lon="-3.7216541"><ele>1057.0</ele><time>2026-04-10T09:06:38.001Z</time></trkpt><trkpt lat="40.7043525" lon="-3.7217195"><ele>1057.5</ele><time>2026-04-10T09:06:39.001Z</time></trkpt><trkpt lat="40.7043114" lon="-3.7217839"><ele>1058.0</ele><time>2026-04-10T09:06:40.001Z</time></trkpt><trkpt lat="40.7042263" lon="-3.7219043"><ele>1058.5</ele><time>2026-04-10T09:06:42.001Z</time></trkpt><trkpt lat="40.7041743" lon="-3.7219566"><ele>1059.0</ele><time>2026-04-10T09:06:43.001Z</time></trkpt><trkpt lat="40.7041219" lon="-3.7220033"><ele>1059.5</ele><time>2026-04-10T09:06:44.001Z</time></trkpt><trkpt lat="40.7040351" lon="-3.7220968"><ele>1060.0</ele><time>2026-04-10T09:06:46.001Z</time></trkpt><trkpt lat="40.7039691" lon="-3.7222097"><ele>1058.5</ele><time>2026-04-10T09:06:48.001Z</time></trkpt><trkpt lat="40.7038904" lon="-3.7222957"><ele>1057.0</ele><time>2026-04-10T09:06:50.001Z</time></trkpt><trkpt lat="40.7038313" lon="-3.7223649"><ele>1055.5</ele><time>2026-04-10T09:06:52.001Z</time></trkpt><trkpt lat="40.7037817" lon="-3.7224298"><ele>1054.0</ele><time>2026-04-10T09:06:54.001Z</time></trkpt><trkpt lat="40.7037362" lon="-3.7225128"><ele>1052.5</ele><time>2026-04-10T09:06:56.001Z</time></trkpt><trkpt lat="40.7036976" lon="-3.7226001"><ele>1051.0</ele><time>2026-04-10T09:06:58.001Z</time></trkpt><trkpt lat="40.7036349" lon="-3.7226381"><ele>1050.857142857143</ele><time>2026-04-10T09:07:00.001Z</time></trkpt><trkpt lat="40.7035656" lon="-3.7226618"><ele>1050.7142857142858</ele><time>2026-04-10T09:07:02.001Z</time></trkpt><trkpt lat="40.7034883" lon="-3.7227142"><ele>1050.5714285714284</ele><time>2026-04-10T09:07:05.001Z</time></trkpt><trkpt lat="40.703424" lon="-3.7227681"><ele>1050.4285714285716</ele><time>2026-04-10T09:07:08Z</time></trkpt><trkpt lat="40.7033811" lon="-3.7228438"><ele>1050.2857142857142</ele><time>2026-04-10T09:07:10.001Z</time></trkpt><trkpt lat="40.7033315" lon="-3.7229023"><ele>1050.142857142857</ele><time>2026-04-10T09:07:12.001Z</time></trkpt><trkpt lat="40.7032734" lon="-3.7229483"><ele>1050.0</ele><time>2026-04-10T09:07:14.001Z</time></trkpt><trkpt lat="40.7032102" lon="-3.7230038"><ele>1047.6</ele><time>2026-04-10T09:07:16.001Z</time></trkpt><trkpt lat="40.7031401" lon="-3.7230335"><ele>1045.2</ele><time>2026-04-10T09:07:18Z</time></trkpt><trkpt lat="40.7030519" lon="-3.7231116"><ele>1042.8</ele><time>2026-04-10T09:07:59.001Z</time></trkpt><trkpt lat="40.7029748" lon="-3.7232055"><ele>1040.4</ele><time>2026-04-10T09:08:01.001Z</time></trkpt><trkpt lat="40.7028876" lon="-3.7233328"><ele>1038.0</ele><time>2026-04-10T09:08:03.001Z</time></trkpt><trkpt lat="40.7028329" lon="-3.7233944"><ele>1038.0</ele><time>2026-04-10T09:08:04.001Z</time></trkpt><trkpt lat="40.702769" lon="-3.7234643"><ele>1038.0</ele><time>2026-04-10T09:08:05.001Z</time></trkpt><trkpt lat="40.7027027" lon="-3.7235381"><ele>1038.0</ele><time>2026-04-10T09:08:06.001Z</time></trkpt><trkpt lat="40.7026415" lon="-3.7236064"><ele>1038.0</ele><time>2026-04-10T09:08:07.001Z</time></trkpt><trkpt lat="40.7025834" lon="-3.7236586"><ele>1038.0</ele><time>2026-04-10T09:08:08.001Z</time></trkpt><trkpt lat="40.7025235" lon="-3.7237101"><ele>1038.0</ele><time>2026-04-10T09:08:09.001Z</time></trkpt><trkpt lat="40.7024721" lon="-3.7237679"><ele>1038.3333333333333</ele><time>2026-04-10T09:08:10.001Z</time></trkpt><trkpt lat="40.7024207" lon="-3.7238419"><ele>1038.6666666666667</ele><time>2026-04-10T09:08:11.001Z</time></trkpt><trkpt lat="40.7023661" lon="-3.7239203"><ele>1039.0</ele><time>2026-04-10T09:08:12.001Z</time></trkpt><trkpt lat="40.7023052" lon="-3.7239999"><ele>1039.3333333333335</ele><time>2026-04-10T09:08:13Z</time></trkpt><trkpt lat="40.7022365" lon="-3.7240728"><ele>1039.6666666666667</ele><time>2026-04-10T09:08:14.001Z</time></trkpt><trkpt lat="40.7021631" lon="-3.724146"><ele>1040.0</ele><time>2026-04-10T09:08:15.001Z</time></trkpt><trkpt lat="40.7020897" lon="-3.7242256"><ele>1040.0</ele><time>2026-04-10T09:08:16.001Z</time></trkpt><trkpt lat="40.7020212" lon="-3.7243081"><ele>1040.0</ele><time>2026-04-10T09:08:17.001Z</time></trkpt><trkpt lat="40.7019555" lon="-3.7243896"><ele>1040.0</ele><time>2026-04-10T09:08:18.001Z</time></trkpt><trkpt lat="40.7018857" lon="-3.7244625"><ele>1040.0</ele><time>2026-04-10T09:08:19.001Z</time></trkpt><trkpt lat="40.7018146" lon="-3.7245319"><ele>1040.0</ele><time>2026-04-10T09:08:20.001Z</time></trkpt><trkpt lat="40.7017363" lon="-3.7245933"><ele>1040.8</ele><time>2026-04-10T09:08:21.001Z</time></trkpt><trkpt lat="40.7016549" lon="-3.7246497"><ele>1041.6</ele><time>2026-04-10T09:08:22.001Z</time></trkpt><trkpt lat="40.7015748" lon="-3.7247149"><ele>1042.4</ele><time>2026-04-10T09:08:23.001Z</time></trkpt><trkpt lat="40.7014966" lon="-3.7247999"><ele>1043.2</ele><time>2026-04-10T09:08:24.001Z</time></trkpt><trkpt lat="40.7014337" lon="-3.7248949"><ele>1044.0</ele><time>2026-04-10T09:08:25.001Z</time></trkpt><trkpt lat="40.7013843" lon="-3.7249926"><ele>1044.0</ele><time>2026-04-10T09:08:26.001Z</time></trkpt><trkpt lat="40.7013416" lon="-3.7250922"><ele>1044.0</ele><time>2026-04-10T09:08:27.001Z</time></trkpt><trkpt lat="40.7013184" lon="-3.725186"><ele>1044.0</ele><time>2026-04-10T09:08:28.001Z</time></trkpt><trkpt lat="40.7013058" lon="-3.7252696"><ele>1044.0</ele><time>2026-04-10T09:08:29.001Z</time></trkpt><trkpt lat="40.7012843" lon="-3.7254213"><ele>1044.0</ele><time>2026-04-10T09:08:31.001Z</time></trkpt><trkpt lat="40.7012336" lon="-3.7255519"><ele>1042.4</ele><time>2026-04-10T09:08:33.001Z</time></trkpt><trkpt lat="40.701144" lon="-3.7256176"><ele>1040.8000000000002</ele><time>2026-04-10T09:08:35.001Z</time></trkpt><trkpt lat="40.7010808" lon="-3.7256161"><ele>1039.1999999999998</ele><time>2026-04-10T09:08:36.001Z</time></trkpt><trkpt lat="40.7009682" lon="-3.7256039"><ele>1037.6</ele><time>2026-04-10T09:08:38.001Z</time></trkpt><trkpt lat="40.7008564" lon="-3.7256624"><ele>1036.0</ele><time>2026-04-10T09:08:40.001Z</time></trkpt><trkpt lat="40.7007594" lon="-3.7257641"><ele>1035.6</ele><time>2026-04-10T09:08:42.001Z</time></trkpt><trkpt lat="40.7007055" lon="-3.7258244"><ele>1035.1999999999998</ele><time>2026-04-10T09:08:43Z</time></trkpt><trkpt lat="40.7006017" lon="-3.725914"><ele>1034.8000000000002</ele><time>2026-04-10T09:08:45.001Z</time></trkpt><trkpt lat="40.7004925" lon="-3.726021"><ele>1034.4</ele><time>2026-04-10T09:08:47.001Z</time></trkpt><trkpt lat="40.7004357" lon="-3.7260818"><ele>1034.0</ele><time>2026-04-10T09:08:48.001Z</time></trkpt><trkpt lat="40.7003749" lon="-3.7261327"><ele>1033.0</ele><time>2026-04-10T09:08:49.001Z</time></trkpt><trkpt lat="40.7003095" lon="-3.7261715"><ele>1032.0</ele><time>2026-04-10T09:08:50.001Z</time></trkpt><trkpt lat="40.7002501" lon="-3.7262088"><ele>1031.0</ele><time>2026-04-10T09:08:51.001Z</time></trkpt><trkpt lat="40.7001939" lon="-3.7262485"><ele>1030.0</ele><time>2026-04-10T09:08:52.001Z</time></trkpt><trkpt lat="40.7001511" lon="-3.726317"><ele>1029.0</ele><time>2026-04-10T09:08:53.001Z</time></trkpt><trkpt lat="40.7001248" lon="-3.7263948"><ele>1028.0</ele><time>2026-04-10T09:08:54.001Z</time></trkpt><trkpt lat="40.7001053" lon="-3.7264825"><ele>1027.0</ele><time>2026-04-10T09:08:55.001Z</time></trkpt><trkpt lat="40.7000655" lon="-3.7266232"><ele>1026.7142857142858</ele><time>2026-04-10T09:08:57.001Z</time></trkpt><trkpt lat="40.7000058" lon="-3.7266684"><ele>1026.4285714285716</ele><time>2026-04-10T09:08:58Z</time></trkpt><trkpt lat="40.6999483" lon="-3.7267177"><ele>1026.142857142857</ele><time>2026-04-10T09:08:59.001Z</time></trkpt><trkpt lat="40.6998886" lon="-3.7267682"><ele>1025.857142857143</ele><time>2026-04-10T09:09:00.001Z</time></trkpt><trkpt lat="40.6998189" lon="-3.7268081"><ele>1025.5714285714284</ele><time>2026-04-10T09:09:01.001Z</time></trkpt><trkpt lat="40.6997476" lon="-3.7268417"><ele>1025.2857142857142</ele><time>2026-04-10T09:09:02Z</time></trkpt><trkpt lat="40.6996734" lon="-3.7268632"><ele>1025.0</ele><time>2026-04-10T09:09:03.001Z</time></trkpt><trkpt lat="40.699592" lon="-3.7269034"><ele>1024.3333333333335</ele><time>2026-04-10T09:09:04.001Z</time></trkpt><trkpt lat="40.6995128" lon="-3.7269457"><ele>1023.6666666666667</ele><time>2026-04-10T09:09:05.001Z</time></trkpt><trkpt lat="40.6994406" lon="-3.7269993"><ele>1023.0</ele><time>2026-04-10T09:09:06.001Z</time></trkpt><trkpt lat="40.6993686" lon="-3.7270597"><ele>1022.3333333333333</ele><time>2026-04-10T09:09:07Z</time></trkpt><trkpt lat="40.6992953" lon="-3.7271048"><ele>1021.6666666666666</ele><time>2026-04-10T09:09:08.001Z</time></trkpt><trkpt lat="40.6992184" lon="-3.7271345"><ele>1021.0</ele><time>2026-04-10T09:09:09.001Z</time></trkpt><trkpt lat="40.6991438" lon="-3.7271611"><ele>1020.7142857142857</ele><time>2026-04-10T09:09:10.001Z</time></trkpt><trkpt lat="40.699072" lon="-3.7271744"><ele>1020.4285714285716</ele><time>2026-04-10T09:09:11.001Z</time></trkpt><trkpt lat="40.6989973" lon="-3.7271858"><ele>1020.1428571428572</ele><time>2026-04-10T09:09:12.001Z</time></trkpt><trkpt lat="40.698925" lon="-3.7271932"><ele>1019.8571428571429</ele><time>2026-04-10T09:09:13.001Z</time></trkpt><trkpt lat="40.698859" lon="-3.7272029"><ele>1019.5714285714287</ele><time>2026-04-10T09:09:14.001Z</time></trkpt><trkpt lat="40.6987989" lon="-3.7272445"><ele>1019.2857142857144</ele><time>2026-04-10T09:09:15.001Z</time></trkpt><trkpt lat="40.6987447" lon="-3.7273122"><ele>1019.0000000000001</ele><time>2026-04-10T09:09:16.001Z</time></trkpt><trkpt lat="40.6986864" lon="-3.7273833"><ele>1019.0</ele><time>2026-04-10T09:09:17.001Z</time></trkpt><trkpt lat="40.6986179" lon="-3.727454"><ele>1019.0000000000001</ele><time>2026-04-10T09:09:18.001Z</time></trkpt><trkpt lat="40.6985261" lon="-3.7275136"><ele>1019.0000000000001</ele><time>2026-04-10T09:09:19.001Z</time></trkpt><trkpt lat="40.6984067" lon="-3.7275543"><ele>1019.0</ele><time>2026-04-10T09:09:20.001Z</time></trkpt><trkpt lat="40.6982882" lon="-3.7275893"><ele>1019.0</ele><time>2026-04-10T09:09:21.001Z</time></trkpt><trkpt lat="40.6981702" lon="-3.7276187"><ele>1017.25</ele><time>2026-04-10T09:09:22.001Z</time></trkpt><trkpt lat="40.6980546" lon="-3.7276592"><ele>1015.5</ele><time>2026-04-10T09:09:23.001Z</time></trkpt><trkpt lat="40.6979432" lon="-3.7277167"><ele>1013.75</ele><time>2026-04-10T09:09:24.001Z</time></trkpt><trkpt lat="40.697833" lon="-3.7277778"><ele>1012.0</ele><time>2026-04-10T09:09:25Z</time></trkpt><trkpt lat="40.6977253" lon="-3.7278306"><ele>1006.75</ele><time>2026-04-10T09:09:26Z</time></trkpt><trkpt lat="40.6976147" lon="-3.7278805"><ele>1001.5</ele><time>2026-04-10T09:09:27.001Z</time></trkpt><trkpt lat="40.697504" lon="-3.727922"><ele>996.25</ele><time>2026-04-10T09:09:28.001Z</time></trkpt><trkpt lat="40.6973947" lon="-3.7279583"><ele>991.0</ele><time>2026-04-10T09:09:29.001Z</time></trkpt><trkpt lat="40.6972859" lon="-3.7279902"><ele>991.0</ele><time>2026-04-10T09:09:30.001Z</time></trkpt><trkpt lat="40.6971879" lon="-3.7280319"><ele>990.9999999999999</ele><time>2026-04-10T09:09:31.001Z</time></trkpt><trkpt lat="40.6970951" lon="-3.7280876"><ele>990.9999999999999</ele><time>2026-04-10T09:09:32.001Z</time></trkpt><trkpt lat="40.6970076" lon="-3.7281546"><ele>991.0</ele><time>2026-04-10T09:09:33.001Z</time></trkpt><trkpt lat="40.69692" lon="-3.7282227"><ele>991.0</ele><time>2026-04-10T09:09:34.001Z</time></trkpt><trkpt lat="40.6968396" lon="-3.728292"><ele>989.8</ele><time>2026-04-10T09:09:35.001Z</time></trkpt><trkpt lat="40.6967561" lon="-3.7283483"><ele>988.5999999999999</ele><time>2026-04-10T09:09:36.001Z</time></trkpt><trkpt lat="40.6966694" lon="-3.7283928"><ele>987.4</ele><time>2026-04-10T09:09:37.001Z</time></trkpt><trkpt lat="40.6965797" lon="-3.7284406"><ele>986.2</ele><time>2026-04-10T09:09:38.001Z</time></trkpt><trkpt lat="40.6964949" lon="-3.7285111"><ele>985.0</ele><time>2026-04-10T09:09:39.001Z</time></trkpt><trkpt lat="40.6964143" lon="-3.7285914"><ele>983.8</ele><time>2026-04-10T09:09:40.001Z</time></trkpt><trkpt lat="40.6963404" lon="-3.7286848"><ele>982.6</ele><time>2026-04-10T09:09:41.001Z</time></trkpt><trkpt lat="40.6962768" lon="-3.728792"><ele>981.4000000000001</ele><time>2026-04-10T09:09:42.001Z</time></trkpt><trkpt lat="40.69621" lon="-3.7288897"><ele>980.2</ele><time>2026-04-10T09:09:43.001Z</time></trkpt><trkpt lat="40.6961263" lon="-3.728967"><ele>979.0</ele><time>2026-04-10T09:09:44.001Z</time></trkpt><trkpt lat="40.6960324" lon="-3.7290209"><ele>977.6</ele><time>2026-04-10T09:09:45.001Z</time></trkpt><trkpt lat="40.6959445" lon="-3.7290699"><ele>976.2</ele><time>2026-04-10T09:09:46.001Z</time></trkpt><trkpt lat="40.695862" lon="-3.7291259"><ele>974.8000000000001</ele><time>2026-04-10T09:09:47Z</time></trkpt><trkpt lat="40.6957887" lon="-3.729197"><ele>973.4000000000001</ele><time>2026-04-10T09:09:48.001Z</time></trkpt><trkpt lat="40.6957281" lon="-3.7292816"><ele>972.0</ele><time>2026-04-10T09:09:49.001Z</time></trkpt><trkpt lat="40.6956712" lon="-3.729373"><ele>971.5</ele><time>2026-04-10T09:09:50.001Z</time></trkpt><trkpt lat="40.6956234" lon="-3.7294608"><ele>971.0</ele><time>2026-04-10T09:09:51Z</time></trkpt><trkpt lat="40.6955845" lon="-3.7295439"><ele>970.5</ele><time>2026-04-10T09:09:52.001Z</time></trkpt><trkpt lat="40.6955534" lon="-3.7296205"><ele>970.0</ele><time>2026-04-10T09:09:53.001Z</time></trkpt><trkpt lat="40.6955287" lon="-3.7296975"><ele>969.5</ele><time>2026-04-10T09:09:54Z</time></trkpt><trkpt lat="40.6954379" lon="-3.7298283"><ele>969.0</ele><time>2026-04-10T09:09:56.001Z</time></trkpt><trkpt lat="40.6953727" lon="-3.7298873"><ele>969.0</ele><time>2026-04-10T09:09:57.001Z</time></trkpt><trkpt lat="40.695302" lon="-3.7299476"><ele>969.0</ele><time>2026-04-10T09:09:58.001Z</time></trkpt><trkpt lat="40.6952374" lon="-3.7300158"><ele>969.0</ele><time>2026-04-10T09:09:59.001Z</time></trkpt><trkpt lat="40.6951813" lon="-3.7300901"><ele>969.0</ele><time>2026-04-10T09:10:00.001Z</time></trkpt><trkpt lat="40.6951383" lon="-3.7301652"><ele>969.0</ele><time>2026-04-10T09:10:01Z</time></trkpt><trkpt lat="40.6951077" lon="-3.730247"><ele>969.0</ele><time>2026-04-10T09:10:02.001Z</time></trkpt><trkpt lat="40.6950758" lon="-3.730333"><ele>968.3333333333334</ele><time>2026-04-10T09:10:03.001Z</time></trkpt><trkpt lat="40.6950397" lon="-3.7304275"><ele>967.6666666666667</ele><time>2026-04-10T09:10:04.001Z</time></trkpt><trkpt lat="40.6950032" lon="-3.7305144"><ele>967.0</ele><time>2026-04-10T09:10:05Z</time></trkpt><trkpt lat="40.6949635" lon="-3.730601"><ele>966.3333333333334</ele><time>2026-04-10T09:10:06.001Z</time></trkpt><trkpt lat="40.6949137" lon="-3.7306959"><ele>965.6666666666667</ele><time>2026-04-10T09:10:07.001Z</time></trkpt><trkpt lat="40.6948513" lon="-3.7307855"><ele>965.0</ele><time>2026-04-10T09:10:08.001Z</time></trkpt><trkpt lat="40.6947788" lon="-3.7308605"><ele>965.0000000000001</ele><time>2026-04-10T09:10:09.001Z</time></trkpt><trkpt lat="40.6947131" lon="-3.7309321"><ele>965.0</ele><time>2026-04-10T09:10:10.001Z</time></trkpt><trkpt lat="40.694663" lon="-3.731019"><ele>965.0</ele><time>2026-04-10T09:10:11.001Z</time></trkpt><trkpt lat="40.694624" lon="-3.731121"><ele>965.0</ele><time>2026-04-10T09:10:12.001Z</time></trkpt><trkpt lat="40.6945869" lon="-3.7312206"><ele>965.0000000000001</ele><time>2026-04-10T09:10:13.001Z</time></trkpt><trkpt lat="40.6945538" lon="-3.7313166"><ele>965.0</ele><time>2026-04-10T09:10:14.001Z</time></trkpt><trkpt lat="40.6945206" lon="-3.7314032"><ele>964.8571428571429</ele><time>2026-04-10T09:10:15Z</time></trkpt><trkpt lat="40.6944852" lon="-3.7314947"><ele>964.7142857142858</ele><time>2026-04-10T09:10:16.001Z</time></trkpt><trkpt lat="40.6944357" lon="-3.7315774"><ele>964.5714285714287</ele><time>2026-04-10T09:10:17.001Z</time></trkpt><trkpt lat="40.6943709" lon="-3.7316499"><ele>964.4285714285714</ele><time>2026-04-10T09:10:18.001Z</time></trkpt><trkpt lat="40.6943112" lon="-3.7317085"><ele>964.2857142857144</ele><time>2026-04-10T09:10:19.001Z</time></trkpt><trkpt lat="40.6942505" lon="-3.7317445"><ele>964.1428571428572</ele><time>2026-04-10T09:10:20.001Z</time></trkpt><trkpt lat="40.6941901" lon="-3.7317696"><ele>964.0</ele><time>2026-04-10T09:10:21.001Z</time></trkpt><trkpt lat="40.6941254" lon="-3.7318186"><ele>964.1666666666666</ele><time>2026-04-10T09:10:22.001Z</time></trkpt><trkpt lat="40.6940575" lon="-3.7318818"><ele>964.3333333333333</ele><time>2026-04-10T09:10:23.001Z</time></trkpt><trkpt lat="40.6939838" lon="-3.7319431"><ele>964.5</ele><time>2026-04-10T09:10:24Z</time></trkpt><trkpt lat="40.6939274" lon="-3.7320261"><ele>964.6666666666667</ele><time>2026-04-10T09:10:25.001Z</time></trkpt><trkpt lat="40.693881" lon="-3.7321063"><ele>964.8333333333334</ele><time>2026-04-10T09:10:26.001Z</time></trkpt><trkpt lat="40.693827" lon="-3.7321651"><ele>965.0</ele><time>2026-04-10T09:10:27.001Z</time></trkpt><trkpt lat="40.6937392" lon="-3.732263"><ele>965.0</ele><time>2026-04-10T09:10:29.001Z</time></trkpt><trkpt lat="40.6936555" lon="-3.7323491"><ele>965.0</ele><time>2026-04-10T09:10:31.001Z</time></trkpt><trkpt lat="40.693621" lon="-3.7324497"><ele>965.0</ele><time>2026-04-10T09:10:33Z</time></trkpt><trkpt lat="40.6935445" lon="-3.7324833"><ele>965.0</ele><time>2026-04-10T09:10:35.001Z</time></trkpt><trkpt lat="40.6934699" lon="-3.7325574"><ele>965.0</ele><time>2026-04-10T09:10:37.001Z</time></trkpt><trkpt lat="40.693411" lon="-3.7326896"><ele>965.2</ele><time>2026-04-10T09:10:39Z</time></trkpt><trkpt lat="40.6933566" lon="-3.7327507"><ele>965.4</ele><time>2026-04-10T09:10:40.001Z</time></trkpt><trkpt lat="40.6933041" lon="-3.7328007"><ele>965.5999999999999</ele><time>2026-04-10T09:10:41.001Z</time></trkpt><trkpt lat="40.6932049" lon="-3.7328862"><ele>965.8</ele><time>2026-04-10T09:10:43.001Z</time></trkpt><trkpt lat="40.6931793" lon="-3.7330245"><ele>966.0</ele><time>2026-04-10T09:10:45.001Z</time></trkpt><trkpt lat="40.6931116" lon="-3.7331149"><ele>966.0</ele><time>2026-04-10T09:10:47.001Z</time></trkpt><trkpt lat="40.6930534" lon="-3.7331551"><ele>966.0</ele><time>2026-04-10T09:10:48.001Z</time></trkpt><trkpt lat="40.6929907" lon="-3.733274"><ele>966.0</ele><time>2026-04-10T09:10:50.001Z</time></trkpt><trkpt lat="40.6929573" lon="-3.7333773"><ele>966.0</ele><time>2026-04-10T09:10:52.001Z</time></trkpt><trkpt lat="40.6929228" lon="-3.7334803"><ele>966.0</ele><time>2026-04-10T09:10:54.001Z</time></trkpt><trkpt lat="40.6928709" lon="-3.7335687"><ele>966.0</ele><time>2026-04-10T09:10:56.001Z</time></trkpt><trkpt lat="40.6928161" lon="-3.7336751"><ele>965.5</ele><time>2026-04-10T09:10:58.001Z</time></trkpt><trkpt lat="40.692785" lon="-3.7338382"><ele>965.0</ele><time>2026-04-10T09:11:00.002Z</time></trkpt><trkpt lat="40.6927622" lon="-3.7339281"><ele>964.5</ele><time>2026-04-10T09:11:01.002Z</time></trkpt><trkpt lat="40.6927297" lon="-3.7340202"><ele>964.0</ele><time>2026-04-10T09:11:02.002Z</time></trkpt><trkpt lat="40.6926998" lon="-3.7341083"><ele>963.5</ele><time>2026-04-10T09:11:03.002Z</time></trkpt><trkpt lat="40.692662" lon="-3.7341954"><ele>963.0</ele><time>2026-04-10T09:11:04.002Z</time></trkpt><trkpt lat="40.6926225" lon="-3.7342882"><ele>963.0</ele><time>2026-04-10T09:11:05.002Z</time></trkpt><trkpt lat="40.6925831" lon="-3.7343787"><ele>963.0</ele><time>2026-04-10T09:11:06.002Z</time></trkpt><trkpt lat="40.69255" lon="-3.734451"><ele>963.0</ele><time>2026-04-10T09:11:07.002Z</time></trkpt><trkpt lat="40.6924578" lon="-3.7345539"><ele>963.0</ele><time>2026-04-10T09:11:09.002Z</time></trkpt><trkpt lat="40.6923953" lon="-3.7346045"><ele>963.0</ele><time>2026-04-10T09:11:10.002Z</time></trkpt><trkpt lat="40.6923165" lon="-3.7346917"><ele>963.0</ele><time>2026-04-10T09:11:12.002Z</time></trkpt><trkpt lat="40.6922889" lon="-3.7347896"><ele>962.2</ele><time>2026-04-10T09:11:14.002Z</time></trkpt><trkpt lat="40.6922359" lon="-3.7348875"><ele>961.4</ele><time>2026-04-10T09:11:16.002Z</time></trkpt><trkpt lat="40.6921893" lon="-3.7349471"><ele>960.6000000000001</ele><time>2026-04-10T09:11:17.002Z</time></trkpt><trkpt lat="40.6921092" lon="-3.7350569"><ele>959.8000000000001</ele><time>2026-04-10T09:11:19.002Z</time></trkpt><trkpt lat="40.6920334" lon="-3.7351677"><ele>959.0</ele><time>2026-04-10T09:11:21.002Z</time></trkpt><trkpt lat="40.6919568" lon="-3.7352421"><ele>958.1666666666667</ele><time>2026-04-10T09:11:23.002Z</time></trkpt><trkpt lat="40.6918684" lon="-3.7352475"><ele>957.3333333333334</ele><time>2026-04-10T09:11:25.002Z</time></trkpt><trkpt lat="40.6918038" lon="-3.7352647"><ele>956.5</ele><time>2026-04-10T09:11:27.002Z</time></trkpt><trkpt lat="40.6917599" lon="-3.7353327"><ele>955.6666666666667</ele><time>2026-04-10T09:11:30.002Z</time></trkpt><trkpt lat="40.6917497" lon="-3.7354325"><ele>954.8333333333334</ele><time>2026-04-10T09:11:32.002Z</time></trkpt><trkpt lat="40.6917086" lon="-3.7355654"><ele>954.0</ele><time>2026-04-10T09:11:34.002Z</time></trkpt><trkpt lat="40.6916616" lon="-3.7356697"><ele>954.0</ele><time>2026-04-10T09:11:36.001Z</time></trkpt><trkpt lat="40.6916461" lon="-3.7357612"><ele>954.0</ele><time>2026-04-10T09:11:38.002Z</time></trkpt><trkpt lat="40.6916182" lon="-3.7358739"><ele>954.0</ele><time>2026-04-10T09:11:41.002Z</time></trkpt><trkpt lat="40.6915713" lon="-3.73597"><ele>954.0</ele><time>2026-04-10T09:11:44.002Z</time></trkpt><trkpt lat="40.6915089" lon="-3.7360147"><ele>954.0</ele><time>2026-04-10T09:11:47.002Z</time></trkpt><trkpt lat="40.6914535" lon="-3.7360977"><ele>954.0</ele><time>2026-04-10T09:11:50.001Z</time></trkpt><trkpt lat="40.6914104" lon="-3.7361825"><ele>952.6666666666666</ele><time>2026-04-10T09:11:53.002Z</time></trkpt><trkpt lat="40.6913613" lon="-3.7362378"><ele>951.3333333333333</ele><time>2026-04-10T09:11:56.002Z</time></trkpt><trkpt lat="40.6913017" lon="-3.7362976"><ele>950.0</ele><time>2026-04-10T09:11:59.002Z</time></trkpt><trkpt lat="40.6912512" lon="-3.7363501"><ele>948.6666666666666</ele><time>2026-04-10T09:12:01.001Z</time></trkpt><trkpt lat="40.6911606" lon="-3.7364465"><ele>947.3333333333333</ele><time>2026-04-10T09:12:03.002Z</time></trkpt><trkpt lat="40.6911017" lon="-3.7365016"><ele>946.0</ele><time>2026-04-10T09:12:04.002Z</time></trkpt><trkpt lat="40.6910399" lon="-3.7365586"><ele>945.2857142857143</ele><time>2026-04-10T09:12:05.002Z</time></trkpt><trkpt lat="40.6909772" lon="-3.7366049"><ele>944.5714285714284</ele><time>2026-04-10T09:12:06.002Z</time></trkpt><trkpt lat="40.690914" lon="-3.7366541"><ele>943.8571428571428</ele><time>2026-04-10T09:12:07.002Z</time></trkpt><trkpt lat="40.6908509" lon="-3.7367112"><ele>943.1428571428571</ele><time>2026-04-10T09:12:08.002Z</time></trkpt><trkpt lat="40.6907938" lon="-3.7367705"><ele>942.4285714285713</ele><time>2026-04-10T09:12:09.002Z</time></trkpt><trkpt lat="40.6907404" lon="-3.7368326"><ele>941.7142857142856</ele><time>2026-04-10T09:12:10.002Z</time></trkpt><trkpt lat="40.6906877" lon="-3.7368937"><ele>940.9999999999999</ele><time>2026-04-10T09:12:11.002Z</time></trkpt><trkpt lat="40.6906377" lon="-3.7369533"><ele>940.8333333333334</ele><time>2026-04-10T09:12:12.002Z</time></trkpt><trkpt lat="40.6905843" lon="-3.7370137"><ele>940.6666666666667</ele><time>2026-04-10T09:12:13.002Z</time></trkpt><trkpt lat="40.6905316" lon="-3.7370764"><ele>940.5</ele><time>2026-04-10T09:12:14.002Z</time></trkpt><trkpt lat="40.6904478" lon="-3.7371769"><ele>940.3333333333333</ele><time>2026-04-10T09:12:16.002Z</time></trkpt><trkpt lat="40.6904041" lon="-3.73726"><ele>940.1666666666666</ele><time>2026-04-10T09:12:18.002Z</time></trkpt><trkpt lat="40.6903442" lon="-3.7373376"><ele>940.0</ele><time>2026-04-10T09:12:20.002Z</time></trkpt><trkpt lat="40.6902601" lon="-3.7373517"><ele>937.6</ele><time>2026-04-10T09:12:23.002Z</time></trkpt><trkpt lat="40.6902017" lon="-3.7374339"><ele>935.2</ele><time>2026-04-10T09:12:26.002Z</time></trkpt><trkpt lat="40.6901252" lon="-3.7375439"><ele>932.8</ele><time>2026-04-10T09:12:36.001Z</time></trkpt><trkpt lat="40.6900185" lon="-3.7376521"><ele>930.4</ele><time>2026-04-10T09:12:54.002Z</time></trkpt><trkpt lat="40.6899535" lon="-3.7376728"><ele>928.0</ele><time>2026-04-10T09:13:01.002Z</time></trkpt><trkpt lat="40.6898927" lon="-3.7376976"><ele>926.7142857142858</ele><time>2026-04-10T09:14:15.002Z</time></trkpt><trkpt lat="40.6897917" lon="-3.7377281"><ele>925.4285714285714</ele><time>2026-04-10T09:14:31.002Z</time></trkpt><trkpt lat="40.6897183" lon="-3.7377488"><ele>924.1428571428571</ele><time>2026-04-10T09:14:41.002Z</time></trkpt><trkpt lat="40.6896565" lon="-3.7377728"><ele>922.8571428571429</ele><time>2026-04-10T09:14:44.002Z</time></trkpt><trkpt lat="40.6896005" lon="-3.7378313"><ele>921.5714285714284</ele><time>2026-04-10T09:14:52.002Z</time></trkpt><trkpt lat="40.689541" lon="-3.7378589"><ele>920.2857142857142</ele><time>2026-04-10T09:14:55.002Z</time></trkpt><trkpt lat="40.6894716" lon="-3.7378764"><ele>919.0</ele><time>2026-04-10T09:14:58.002Z</time></trkpt><trkpt lat="40.6893939" lon="-3.7378918"><ele>916.0</ele><time>2026-04-10T09:15:01.002Z</time></trkpt><trkpt lat="40.6893038" lon="-3.7379116"><ele>913.0</ele><time>2026-04-10T09:15:04.002Z</time></trkpt><trkpt lat="40.6891759" lon="-3.7379417"><ele>910.0</ele><time>2026-04-10T09:15:07.002Z</time></trkpt><trkpt lat="40.6890328" lon="-3.7379857"><ele>907.0</ele><time>2026-04-10T09:15:08.002Z</time></trkpt><trkpt lat="40.688841" lon="-3.7380477"><ele>906.9999999999999</ele><time>2026-04-10T09:15:09.002Z</time></trkpt><trkpt lat="40.6887724" lon="-3.7380745"><ele>907.0</ele><time>2026-04-10T09:15:10.001Z</time></trkpt><trkpt lat="40.6887066" lon="-3.7380967"><ele>907.0</ele><time>2026-04-10T09:15:11.001Z</time></trkpt><trkpt lat="40.6886348" lon="-3.738109"><ele>907.0</ele><time>2026-04-10T09:15:12.002Z</time></trkpt><trkpt lat="40.6885687" lon="-3.7381261"><ele>906.9999999999999</ele><time>2026-04-10T09:15:13.001Z</time></trkpt><trkpt lat="40.6885099" lon="-3.7381667"><ele>907.0</ele><time>2026-04-10T09:15:14.002Z</time></trkpt><trkpt lat="40.6884278" lon="-3.7382577"><ele>905.8</ele><time>2026-04-10T09:15:16.002Z</time></trkpt><trkpt lat="40.6883409" lon="-3.7383698"><ele>904.6</ele><time>2026-04-10T09:15:18.002Z</time></trkpt><trkpt lat="40.6882291" lon="-3.7384641"><ele>903.3999999999999</ele><time>2026-04-10T09:15:20.002Z</time></trkpt><trkpt lat="40.6881662" lon="-3.7385178"><ele>902.1999999999999</ele><time>2026-04-10T09:15:21.002Z</time></trkpt><trkpt lat="40.688111" lon="-3.7385809"><ele>901.0</ele><time>2026-04-10T09:15:22.002Z</time></trkpt><trkpt lat="40.6880583" lon="-3.73864"><ele>899.6666666666666</ele><time>2026-04-10T09:15:23.002Z</time></trkpt><trkpt lat="40.6880076" lon="-3.7387063"><ele>898.3333333333333</ele><time>2026-04-10T09:15:24.002Z</time></trkpt><trkpt lat="40.6879598" lon="-3.7387773"><ele>897.0</ele><time>2026-04-10T09:15:25.002Z</time></trkpt><trkpt lat="40.6879131" lon="-3.7388546"><ele>895.6666666666667</ele><time>2026-04-10T09:15:26.002Z</time></trkpt><trkpt lat="40.6878616" lon="-3.7389419"><ele>894.3333333333334</ele><time>2026-04-10T09:15:27.001Z</time></trkpt><trkpt lat="40.6878093" lon="-3.7390254"><ele>893.0</ele><time>2026-04-10T09:15:28.002Z</time></trkpt><trkpt lat="40.6877578" lon="-3.7391026"><ele>892.2</ele><time>2026-04-10T09:15:29.002Z</time></trkpt><trkpt lat="40.6877097" lon="-3.7391707"><ele>891.4</ele><time>2026-04-10T09:15:30.002Z</time></trkpt><trkpt lat="40.6876303" lon="-3.7392718"><ele>890.6000000000001</ele><time>2026-04-10T09:15:32.002Z</time></trkpt><trkpt lat="40.6875597" lon="-3.7393294"><ele>889.8000000000001</ele><time>2026-04-10T09:15:34.001Z</time></trkpt><trkpt lat="40.6874547" lon="-3.7393905"><ele>889.0</ele><time>2026-04-10T09:15:36.002Z</time></trkpt><trkpt lat="40.6873913" lon="-3.7394507"><ele>888.5714285714286</ele><time>2026-04-10T09:15:37.002Z</time></trkpt><trkpt lat="40.6873234" lon="-3.7394995"><ele>888.1428571428571</ele><time>2026-04-10T09:15:38.002Z</time></trkpt><trkpt lat="40.6872599" lon="-3.7395392"><ele>887.7142857142858</ele><time>2026-04-10T09:15:39.002Z</time></trkpt><trkpt lat="40.6871999" lon="-3.73957"><ele>887.2857142857142</ele><time>2026-04-10T09:15:40.002Z</time></trkpt><trkpt lat="40.6871259" lon="-3.7395866"><ele>886.8571428571429</ele><time>2026-04-10T09:15:41.002Z</time></trkpt><trkpt lat="40.6870506" lon="-3.739615"><ele>886.4285714285714</ele><time>2026-04-10T09:15:42.002Z</time></trkpt><trkpt lat="40.6869802" lon="-3.7396625"><ele>886.0</ele><time>2026-04-10T09:15:43.002Z</time></trkpt><trkpt lat="40.6869163" lon="-3.7397058"><ele>886.0</ele><time>2026-04-10T09:15:44.002Z</time></trkpt><trkpt lat="40.6868488" lon="-3.7397401"><ele>886.0</ele><time>2026-04-10T09:15:45.002Z</time></trkpt><trkpt lat="40.6867766" lon="-3.7397663"><ele>886.0</ele><time>2026-04-10T09:15:46.002Z</time></trkpt><trkpt lat="40.6866948" lon="-3.7397931"><ele>886.0</ele><time>2026-04-10T09:15:47.002Z</time></trkpt><trkpt lat="40.6866182" lon="-3.7398174"><ele>886.0</ele><time>2026-04-10T09:15:48.001Z</time></trkpt><trkpt lat="40.6865505" lon="-3.7398378"><ele>886.0</ele><time>2026-04-10T09:15:49.002Z</time></trkpt><trkpt lat="40.6864875" lon="-3.7398524"><ele>886.0</ele><time>2026-04-10T09:15:50.002Z</time></trkpt><trkpt lat="40.6864198" lon="-3.7398751"><ele>885.9999999999999</ele><time>2026-04-10T09:15:51.002Z</time></trkpt><trkpt lat="40.6863459" lon="-3.7398998"><ele>886.0</ele><time>2026-04-10T09:15:52.002Z</time></trkpt><trkpt lat="40.6862815" lon="-3.7399315"><ele>886.0</ele><time>2026-04-10T09:15:53.002Z</time></trkpt><trkpt lat="40.6862227" lon="-3.739969"><ele>886.0</ele><time>2026-04-10T09:15:54.002Z</time></trkpt><trkpt lat="40.6861643" lon="-3.7400172"><ele>885.9999999999999</ele><time>2026-04-10T09:15:55.001Z</time></trkpt><trkpt lat="40.6861058" lon="-3.7400739"><ele>886.0</ele><time>2026-04-10T09:15:56.002Z</time></trkpt><trkpt lat="40.6860089" lon="-3.7401148"><ele>885.4</ele><time>2026-04-10T09:15:58.002Z</time></trkpt><trkpt lat="40.685911" lon="-3.7401603"><ele>884.8</ele><time>2026-04-10T09:17:00.002Z</time></trkpt><trkpt lat="40.685801" lon="-3.7402147"><ele>884.1999999999999</ele><time>2026-04-10T09:17:02.002Z</time></trkpt><trkpt lat="40.6857343" lon="-3.7402377"><ele>883.5999999999999</ele><time>2026-04-10T09:17:03.002Z</time></trkpt><trkpt lat="40.6856517" lon="-3.7402603"><ele>883.0</ele><time>2026-04-10T09:17:04.002Z</time></trkpt><trkpt lat="40.6855638" lon="-3.7402886"><ele>884.5999999999999</ele><time>2026-04-10T09:17:05.001Z</time></trkpt><trkpt lat="40.6854775" lon="-3.7403217"><ele>886.1999999999999</ele><time>2026-04-10T09:17:06.002Z</time></trkpt><trkpt lat="40.6853963" lon="-3.7403729"><ele>887.8</ele><time>2026-04-10T09:17:07.002Z</time></trkpt><trkpt lat="40.6853121" lon="-3.7404317"><ele>889.4</ele><time>2026-04-10T09:17:08.002Z</time></trkpt><trkpt lat="40.6852274" lon="-3.7404937"><ele>891.0</ele><time>2026-04-10T09:17:09.002Z</time></trkpt><trkpt lat="40.6851293" lon="-3.7405405"><ele>891.5</ele><time>2026-04-10T09:17:10.002Z</time></trkpt><trkpt lat="40.685037" lon="-3.7405914"><ele>892.0</ele><time>2026-04-10T09:17:11.002Z</time></trkpt><trkpt lat="40.6849745" lon="-3.7406509"><ele>892.5</ele><time>2026-04-10T09:17:12.002Z</time></trkpt><trkpt lat="40.6849062" lon="-3.7407687"><ele>893.0</ele><time>2026-04-10T09:17:14.002Z</time></trkpt><trkpt lat="40.6848582" lon="-3.7408298"><ele>893.5</ele><time>2026-04-10T09:17:15.002Z</time></trkpt><trkpt lat="40.6848004" lon="-3.7408679"><ele>894.0</ele><time>2026-04-10T09:17:16.002Z</time></trkpt><trkpt lat="40.6847284" lon="-3.7408843"><ele>894.0</ele><time>2026-04-10T09:17:17.002Z</time></trkpt><trkpt lat="40.6846558" lon="-3.7409025"><ele>894.0</ele><time>2026-04-10T09:17:18.002Z</time></trkpt><trkpt lat="40.6845865" lon="-3.7409409"><ele>894.0</ele><time>2026-04-10T09:17:19.002Z</time></trkpt><trkpt lat="40.6845204" lon="-3.7410101"><ele>894.0</ele><time>2026-04-10T09:17:20.002Z</time></trkpt><trkpt lat="40.6844513" lon="-3.7411084"><ele>894.0</ele><time>2026-04-10T09:17:21.002Z</time></trkpt><trkpt lat="40.6843844" lon="-3.7412165"><ele>894.0</ele><time>2026-04-10T09:17:22.002Z</time></trkpt><trkpt lat="40.6843143" lon="-3.7413316"><ele>895.6</ele><time>2026-04-10T09:17:23.001Z</time></trkpt><trkpt lat="40.6842443" lon="-3.7414495"><ele>897.2</ele><time>2026-04-10T09:17:24.002Z</time></trkpt><trkpt lat="40.6841698" lon="-3.7415561"><ele>898.8000000000001</ele><time>2026-04-10T09:17:25.002Z</time></trkpt><trkpt lat="40.6840871" lon="-3.7416517"><ele>900.4000000000001</ele><time>2026-04-10T09:17:26.002Z</time></trkpt><trkpt lat="40.6840033" lon="-3.7417378"><ele>902.0</ele><time>2026-04-10T09:17:27.001Z</time></trkpt><trkpt lat="40.6839326" lon="-3.7418211"><ele>902.1666666666667</ele><time>2026-04-10T09:17:28.002Z</time></trkpt><trkpt lat="40.6838918" lon="-3.7419148"><ele>902.3333333333334</ele><time>2026-04-10T09:17:29.002Z</time></trkpt><trkpt lat="40.6838802" lon="-3.7420247"><ele>902.5</ele><time>2026-04-10T09:17:30.002Z</time></trkpt><trkpt lat="40.6839028" lon="-3.7421362"><ele>902.6666666666667</ele><time>2026-04-10T09:17:31.002Z</time></trkpt><trkpt lat="40.6839454" lon="-3.7422407"><ele>902.8333333333334</ele><time>2026-04-10T09:17:32.001Z</time></trkpt><trkpt lat="40.6840034" lon="-3.7423287"><ele>903.0</ele><time>2026-04-10T09:17:33.001Z</time></trkpt><trkpt lat="40.6840542" lon="-3.7424139"><ele>903.0</ele><time>2026-04-10T09:17:34.002Z</time></trkpt><trkpt lat="40.6840949" lon="-3.7424998"><ele>903.0</ele><time>2026-04-10T09:17:35.002Z</time></trkpt><trkpt lat="40.6841271" lon="-3.742602"><ele>903.0</ele><time>2026-04-10T09:17:36.002Z</time></trkpt><trkpt lat="40.6841577" lon="-3.7427037"><ele>903.0</ele><time>2026-04-10T09:17:37.002Z</time></trkpt><trkpt lat="40.684192" lon="-3.7427997"><ele>903.0</ele><time>2026-04-10T09:17:38.002Z</time></trkpt><trkpt lat="40.6842203" lon="-3.7428891"><ele>903.0</ele><time>2026-04-10T09:17:39.002Z</time></trkpt><trkpt lat="40.6842612" lon="-3.7430344"><ele>902.5999999999999</ele><time>2026-04-10T09:17:41.002Z</time></trkpt><trkpt lat="40.6843167" lon="-3.7431689"><ele>902.1999999999999</ele><time>2026-04-10T09:17:43.001Z</time></trkpt><trkpt lat="40.6843542" lon="-3.7432431"><ele>901.8</ele><time>2026-04-10T09:17:44.002Z</time></trkpt><trkpt lat="40.6844021" lon="-3.7433246"><ele>901.4</ele><time>2026-04-10T09:17:45.002Z</time></trkpt><trkpt lat="40.6844496" lon="-3.7434309"><ele>901.0</ele><time>2026-04-10T09:17:46.001Z</time></trkpt><trkpt lat="40.6844973" lon="-3.7435558"><ele>901.0</ele><time>2026-04-10T09:17:47.002Z</time></trkpt><trkpt lat="40.6845442" lon="-3.7436914"><ele>901.0</ele><time>2026-04-10T09:17:48.002Z</time></trkpt><trkpt lat="40.684592" lon="-3.7438272"><ele>901.0</ele><time>2026-04-10T09:17:49.002Z</time></trkpt><trkpt lat="40.6846387" lon="-3.7439692"><ele>901.0</ele><time>2026-04-10T09:17:50.002Z</time></trkpt><trkpt lat="40.6846841" lon="-3.7441115"><ele>901.0</ele><time>2026-04-10T09:17:51.002Z</time></trkpt><trkpt lat="40.6847337" lon="-3.7442493"><ele>900.9999999999999</ele><time>2026-04-10T09:17:52.001Z</time></trkpt><trkpt lat="40.6847772" lon="-3.7443987"><ele>900.9999999999999</ele><time>2026-04-10T09:17:53.002Z</time></trkpt><trkpt lat="40.6847985" lon="-3.7445398"><ele>901.0</ele><time>2026-04-10T09:17:54.002Z</time></trkpt><trkpt lat="40.6848039" lon="-3.7446733"><ele>901.0</ele><time>2026-04-10T09:17:55.002Z</time></trkpt><trkpt lat="40.6847799" lon="-3.7448119"><ele>901.5</ele><time>2026-04-10T09:17:56.002Z</time></trkpt><trkpt lat="40.6847504" lon="-3.7449617"><ele>902.0</ele><time>2026-04-10T09:17:57.002Z</time></trkpt><trkpt lat="40.6847275" lon="-3.7451134"><ele>902.5</ele><time>2026-04-10T09:17:58.002Z</time></trkpt><trkpt lat="40.6847236" lon="-3.7452705"><ele>903.0</ele><time>2026-04-10T09:17:59.002Z</time></trkpt><trkpt lat="40.6847278" lon="-3.7454357"><ele>903.25</ele><time>2026-04-10T09:18:00.002Z</time></trkpt><trkpt lat="40.6847436" lon="-3.7456005"><ele>903.5</ele><time>2026-04-10T09:18:01.002Z</time></trkpt><trkpt lat="40.6847646" lon="-3.7457657"><ele>903.75</ele><time>2026-04-10T09:18:02.002Z</time></trkpt><trkpt lat="40.684796" lon="-3.7459368"><ele>904.0</ele><time>2026-04-10T09:18:03.002Z</time></trkpt><trkpt lat="40.6848304" lon="-3.7461118"><ele>906.25</ele><time>2026-04-10T09:18:04.001Z</time></trkpt><trkpt lat="40.6848739" lon="-3.7462894"><ele>908.5</ele><time>2026-04-10T09:18:05.002Z</time></trkpt><trkpt lat="40.6849198" lon="-3.7464554"><ele>910.75</ele><time>2026-04-10T09:18:06.002Z</time></trkpt><trkpt lat="40.6849639" lon="-3.7466114"><ele>913.0</ele><time>2026-04-10T09:18:07.002Z</time></trkpt><trkpt lat="40.6850043" lon="-3.7467716"><ele>913.25</ele><time>2026-04-10T09:18:08.002Z</time></trkpt><trkpt lat="40.6850416" lon="-3.7469389"><ele>913.5</ele><time>2026-04-10T09:18:09.002Z</time></trkpt><trkpt lat="40.6850749" lon="-3.7471135"><ele>913.75</ele><time>2026-04-10T09:18:10.002Z</time></trkpt><trkpt lat="40.6851063" lon="-3.7472845"><ele>914.0</ele><time>2026-04-10T09:18:11.002Z</time></trkpt><trkpt lat="40.6851428" lon="-3.7474519"><ele>914.0</ele><time>2026-04-10T09:18:12.002Z</time></trkpt><trkpt lat="40.685186" lon="-3.7476212"><ele>914.0</ele><time>2026-04-10T09:18:13.002Z</time></trkpt><trkpt lat="40.6852361" lon="-3.7477865"><ele>914.0</ele><time>2026-04-10T09:18:14.002Z</time></trkpt><trkpt lat="40.6852955" lon="-3.7479481"><ele>914.0</ele><time>2026-04-10T09:18:15.001Z</time></trkpt><trkpt lat="40.685356" lon="-3.7481105"><ele>917.3333333333334</ele><time>2026-04-10T09:18:16.002Z</time></trkpt><trkpt lat="40.6854294" lon="-3.748275"><ele>920.6666666666667</ele><time>2026-04-10T09:18:17.002Z</time></trkpt><trkpt lat="40.6855131" lon="-3.7484446"><ele>924.0</ele><time>2026-04-10T09:18:18.002Z</time></trkpt><trkpt lat="40.6855909" lon="-3.7486223"><ele>925.6666666666667</ele><time>2026-04-10T09:18:19.002Z</time></trkpt><trkpt lat="40.6856698" lon="-3.7488074"><ele>927.3333333333334</ele><time>2026-04-10T09:18:20.002Z</time></trkpt><trkpt lat="40.6857512" lon="-3.7489826"><ele>929.0</ele><time>2026-04-10T09:18:21.002Z</time></trkpt><trkpt lat="40.6858346" lon="-3.7491452"><ele>929.0</ele><time>2026-04-10T09:18:22.002Z</time></trkpt><trkpt lat="40.6859215" lon="-3.7493032"><ele>929.0</ele><time>2026-04-10T09:18:23.002Z</time></trkpt><trkpt lat="40.6860083" lon="-3.7494534"><ele>929.0</ele><time>2026-04-10T09:18:24.002Z</time></trkpt><trkpt lat="40.68609" lon="-3.7496083"><ele>929.0</ele><time>2026-04-10T09:18:25.002Z</time></trkpt><trkpt lat="40.6861613" lon="-3.7497735"><ele>930.5</ele><time>2026-04-10T09:18:26.002Z</time></trkpt><trkpt lat="40.6862151" lon="-3.749952"><ele>932.0</ele><time>2026-04-10T09:18:27.001Z</time></trkpt><trkpt lat="40.6862529" lon="-3.7501424"><ele>933.5</ele><time>2026-04-10T09:18:28.002Z</time></trkpt><trkpt lat="40.686287" lon="-3.7503344"><ele>935.0</ele><time>2026-04-10T09:18:29.002Z</time></trkpt><trkpt lat="40.6863274" lon="-3.7505226"><ele>936.5</ele><time>2026-04-10T09:18:30.002Z</time></trkpt><trkpt lat="40.6863715" lon="-3.7507115"><ele>938.0</ele><time>2026-04-10T09:18:31.002Z</time></trkpt><trkpt lat="40.6864135" lon="-3.750898"><ele>939.5</ele><time>2026-04-10T09:18:32.002Z</time></trkpt><trkpt lat="40.6864608" lon="-3.7510883"><ele>941.0</ele><time>2026-04-10T09:18:33.002Z</time></trkpt><trkpt lat="40.6865122" lon="-3.751279"><ele>942.0</ele><time>2026-04-10T09:18:34.002Z</time></trkpt><trkpt lat="40.6865644" lon="-3.7514716"><ele>943.0</ele><time>2026-04-10T09:18:35.002Z</time></trkpt><trkpt lat="40.6866105" lon="-3.7516679"><ele>944.0</ele><time>2026-04-10T09:18:36.002Z</time></trkpt><trkpt lat="40.686655" lon="-3.751863"><ele>946.5</ele><time>2026-04-10T09:18:37.002Z</time></trkpt><trkpt lat="40.6866939" lon="-3.7520484"><ele>949.0</ele><time>2026-04-10T09:18:38.001Z</time></trkpt><trkpt lat="40.6867322" lon="-3.7522237"><ele>951.5</ele><time>2026-04-10T09:18:39.002Z</time></trkpt><trkpt lat="40.6867789" lon="-3.7523894"><ele>954.0</ele><time>2026-04-10T09:18:40.002Z</time></trkpt><trkpt lat="40.6868301" lon="-3.7525454"><ele>954.0</ele><time>2026-04-10T09:18:41.002Z</time></trkpt><trkpt lat="40.68688" lon="-3.752688"><ele>954.0</ele><time>2026-04-10T09:18:42.001Z</time></trkpt><trkpt lat="40.6869249" lon="-3.7528216"><ele>954.0</ele><time>2026-04-10T09:18:43.002Z</time></trkpt><trkpt lat="40.6869671" lon="-3.7529608"><ele>954.0</ele><time>2026-04-10T09:18:44.002Z</time></trkpt><trkpt lat="40.6870135" lon="-3.7530943"><ele>955.6</ele><time>2026-04-10T09:18:45.002Z</time></trkpt><trkpt lat="40.6870594" lon="-3.7532021"><ele>957.2</ele><time>2026-04-10T09:18:46.002Z</time></trkpt><trkpt lat="40.6871092" lon="-3.7533006"><ele>958.8000000000001</ele><time>2026-04-10T09:18:47.002Z</time></trkpt><trkpt lat="40.6871858" lon="-3.7533888"><ele>960.4000000000001</ele><time>2026-04-10T09:18:48.002Z</time></trkpt><trkpt lat="40.6872778" lon="-3.7534652"><ele>962.0</ele><time>2026-04-10T09:18:49.002Z</time></trkpt><trkpt lat="40.6873767" lon="-3.7535422"><ele>962.75</ele><time>2026-04-10T09:18:50.002Z</time></trkpt><trkpt lat="40.6874779" lon="-3.7536322"><ele>963.5</ele><time>2026-04-10T09:18:51.001Z</time></trkpt><trkpt lat="40.6875641" lon="-3.7537499"><ele>964.25</ele><time>2026-04-10T09:18:52.002Z</time></trkpt><trkpt lat="40.6876368" lon="-3.7538788"><ele>965.0</ele><time>2026-04-10T09:18:53.002Z</time></trkpt><trkpt lat="40.6877122" lon="-3.7540131"><ele>964.5</ele><time>2026-04-10T09:18:54.002Z</time></trkpt><trkpt lat="40.6877824" lon="-3.7541533"><ele>964.0</ele><time>2026-04-10T09:18:55.002Z</time></trkpt><trkpt lat="40.687855" lon="-3.7542843"><ele>963.5</ele><time>2026-04-10T09:18:56.002Z</time></trkpt><trkpt lat="40.687929" lon="-3.7544061"><ele>963.0</ele><time>2026-04-10T09:18:57.002Z</time></trkpt><trkpt lat="40.6880006" lon="-3.754519"><ele>962.8</ele><time>2026-04-10T09:18:58.002Z</time></trkpt><trkpt lat="40.6880765" lon="-3.7546259"><ele>962.5999999999999</ele><time>2026-04-10T09:18:59.002Z</time></trkpt><trkpt lat="40.6881534" lon="-3.7547283"><ele>962.4000000000001</ele><time>2026-04-10T09:19:00.002Z</time></trkpt><trkpt lat="40.6882258" lon="-3.7548267"><ele>962.2</ele><time>2026-04-10T09:19:01.002Z</time></trkpt><trkpt lat="40.6882944" lon="-3.7549277"><ele>962.0</ele><time>2026-04-10T09:19:02.002Z</time></trkpt><trkpt lat="40.6883591" lon="-3.7550288"><ele>962.0000000000001</ele><time>2026-04-10T09:19:03.002Z</time></trkpt><trkpt lat="40.6884244" lon="-3.7551251"><ele>962.0</ele><time>2026-04-10T09:19:04.002Z</time></trkpt><trkpt lat="40.688485" lon="-3.7552137"><ele>962.0</ele><time>2026-04-10T09:19:05.002Z</time></trkpt><trkpt lat="40.6885285" lon="-3.7553084"><ele>962.0</ele><time>2026-04-10T09:19:06.001Z</time></trkpt><trkpt lat="40.6885568" lon="-3.7554117"><ele>962.0000000000001</ele><time>2026-04-10T09:19:07.002Z</time></trkpt><trkpt lat="40.6885735" lon="-3.7555176"><ele>962.0</ele><time>2026-04-10T09:19:08.002Z</time></trkpt><trkpt lat="40.6885683" lon="-3.7556175"><ele>961.3333333333334</ele><time>2026-04-10T09:19:09.002Z</time></trkpt><trkpt lat="40.6885479" lon="-3.755705"><ele>960.6666666666667</ele><time>2026-04-10T09:19:10.002Z</time></trkpt><trkpt lat="40.688506" lon="-3.7557963"><ele>960.0</ele><time>2026-04-10T09:19:11.002Z</time></trkpt><trkpt lat="40.6884683" lon="-3.7558821"><ele>959.3333333333333</ele><time>2026-04-10T09:19:12.002Z</time></trkpt><trkpt lat="40.6884317" lon="-3.7559746"><ele>958.6666666666666</ele><time>2026-04-10T09:19:13.001Z</time></trkpt><trkpt lat="40.6883939" lon="-3.7560821"><ele>958.0</ele><time>2026-04-10T09:19:14.001Z</time></trkpt><trkpt lat="40.6883399" lon="-3.7561943"><ele>958.0</ele><time>2026-04-10T09:19:15.002Z</time></trkpt><trkpt lat="40.6882652" lon="-3.7563029"><ele>958.0</ele><time>2026-04-10T09:19:16.002Z</time></trkpt><trkpt lat="40.6881745" lon="-3.7564031"><ele>958.0</ele><time>2026-04-10T09:19:17.002Z</time></trkpt><trkpt lat="40.6880775" lon="-3.7565097"><ele>958.0</ele><time>2026-04-10T09:19:18.002Z</time></trkpt><trkpt lat="40.6879748" lon="-3.7566252"><ele>958.0</ele><time>2026-04-10T09:19:19.002Z</time></trkpt><trkpt lat="40.6878761" lon="-3.756746"><ele>958.0</ele><time>2026-04-10T09:19:20.002Z</time></trkpt><trkpt lat="40.6877813" lon="-3.7568724"><ele>958.0</ele><time>2026-04-10T09:19:21.002Z</time></trkpt><trkpt lat="40.6876895" lon="-3.7570081"><ele>958.0</ele><time>2026-04-10T09:19:22.002Z</time></trkpt><trkpt lat="40.6875947" lon="-3.7571529"><ele>955.3333333333333</ele><time>2026-04-10T09:19:23.002Z</time></trkpt><trkpt lat="40.6874996" lon="-3.7573027"><ele>952.6666666666667</ele><time>2026-04-10T09:19:24.002Z</time></trkpt><trkpt lat="40.6874063" lon="-3.7574668"><ele>950.0</ele><time>2026-04-10T09:19:25.002Z</time></trkpt><trkpt lat="40.6873176" lon="-3.7576362"><ele>950.75</ele><time>2026-04-10T09:19:26.002Z</time></trkpt><trkpt lat="40.6872405" lon="-3.7578124"><ele>951.5</ele><time>2026-04-10T09:19:27.002Z</time></trkpt><trkpt lat="40.6871712" lon="-3.7579825"><ele>952.25</ele><time>2026-04-10T09:19:28.002Z</time></trkpt><trkpt lat="40.6871097" lon="-3.7581463"><ele>953.0</ele><time>2026-04-10T09:19:29.002Z</time></trkpt><trkpt lat="40.6870526" lon="-3.7583069"><ele>953.0</ele><time>2026-04-10T09:19:30.002Z</time></trkpt><trkpt lat="40.6869999" lon="-3.7584668"><ele>953.0</ele><time>2026-04-10T09:19:31.002Z</time></trkpt><trkpt lat="40.686956" lon="-3.758624"><ele>953.0</ele><time>2026-04-10T09:19:32.002Z</time></trkpt><trkpt lat="40.6869167" lon="-3.7587859"><ele>953.0</ele><time>2026-04-10T09:19:33.002Z</time></trkpt><trkpt lat="40.686869" lon="-3.7589305"><ele>951.25</ele><time>2026-04-10T09:19:34.002Z</time></trkpt><trkpt lat="40.6868159" lon="-3.7590661"><ele>949.5</ele><time>2026-04-10T09:19:35.001Z</time></trkpt><trkpt lat="40.6867528" lon="-3.759191"><ele>947.75</ele><time>2026-04-10T09:19:36.002Z</time></trkpt><trkpt lat="40.6866906" lon="-3.7593189"><ele>946.0</ele><time>2026-04-10T09:19:37.002Z</time></trkpt><trkpt lat="40.6866237" lon="-3.7594438"><ele>945.75</ele><time>2026-04-10T09:19:38.001Z</time></trkpt><trkpt lat="40.686557" lon="-3.7595731"><ele>945.5</ele><time>2026-04-10T09:19:39.002Z</time></trkpt><trkpt lat="40.6864961" lon="-3.7597084"><ele>945.25</ele><time>2026-04-10T09:19:40.002Z</time></trkpt><trkpt lat="40.6864415" lon="-3.7598512"><ele>945.0</ele><time>2026-04-10T09:19:41.002Z</time></trkpt><trkpt lat="40.6863925" lon="-3.7600042"><ele>945.0</ele><time>2026-04-10T09:19:42.002Z</time></trkpt><trkpt lat="40.6863581" lon="-3.7601634"><ele>945.0</ele><time>2026-04-10T09:19:43.001Z</time></trkpt><trkpt lat="40.6863403" lon="-3.7603229"><ele>945.0</ele><time>2026-04-10T09:19:44.002Z</time></trkpt><trkpt lat="40.6863455" lon="-3.7604763"><ele>945.0</ele><time>2026-04-10T09:19:45.002Z</time></trkpt><trkpt lat="40.6863574" lon="-3.760624"><ele>945.75</ele><time>2026-04-10T09:19:46.002Z</time></trkpt><trkpt lat="40.6863868" lon="-3.7607701"><ele>946.5</ele><time>2026-04-10T09:19:47.002Z</time></trkpt><trkpt lat="40.6864269" lon="-3.7609089"><ele>947.25</ele><time>2026-04-10T09:19:48.002Z</time></trkpt><trkpt lat="40.6864705" lon="-3.7610575"><ele>948.0</ele><time>2026-04-10T09:19:49.002Z</time></trkpt><trkpt lat="40.6865184" lon="-3.7612094"><ele>948.25</ele><time>2026-04-10T09:19:50.002Z</time></trkpt><trkpt lat="40.6865706" lon="-3.7613624"><ele>948.5</ele><time>2026-04-10T09:19:51.002Z</time></trkpt><trkpt lat="40.6866254" lon="-3.7615158"><ele>948.75</ele><time>2026-04-10T09:19:52.002Z</time></trkpt><trkpt lat="40.6866821" lon="-3.7616709"><ele>949.0</ele><time>2026-04-10T09:19:53.002Z</time></trkpt><trkpt lat="40.6867439" lon="-3.7618195"><ele>949.75</ele><time>2026-04-10T09:19:54.002Z</time></trkpt><trkpt lat="40.6868069" lon="-3.7619683"><ele>950.5</ele><time>2026-04-10T09:19:55.001Z</time></trkpt><trkpt lat="40.6868692" lon="-3.7621142"><ele>951.25</ele><time>2026-04-10T09:19:56.002Z</time></trkpt><trkpt lat="40.6869218" lon="-3.7622544"><ele>952.0</ele><time>2026-04-10T09:19:57.002Z</time></trkpt><trkpt lat="40.6869513" lon="-3.7623884"><ele>952.5</ele><time>2026-04-10T09:19:58.002Z</time></trkpt><trkpt lat="40.6869671" lon="-3.7625307"><ele>953.0</ele><time>2026-04-10T09:19:59.002Z</time></trkpt><trkpt lat="40.6869688" lon="-3.7626878"><ele>953.5</ele><time>2026-04-10T09:20:00.002Z</time></trkpt><trkpt lat="40.6869608" lon="-3.7628425"><ele>954.0</ele><time>2026-04-10T09:20:01.002Z</time></trkpt><trkpt lat="40.6869504" lon="-3.762996"><ele>954.0</ele><time>2026-04-10T09:20:02.002Z</time></trkpt><trkpt lat="40.6869375" lon="-3.7631488"><ele>954.0000000000001</ele><time>2026-04-10T09:20:03.002Z</time></trkpt><trkpt lat="40.686924" lon="-3.7632965"><ele>954.0000000000001</ele><time>2026-04-10T09:20:04.002Z</time></trkpt><trkpt lat="40.6868976" lon="-3.7634353"><ele>954.0</ele><time>2026-04-10T09:20:05.002Z</time></trkpt><trkpt lat="40.6868639" lon="-3.7635645"><ele>954.0</ele><time>2026-04-10T09:20:06.002Z</time></trkpt><trkpt lat="40.6868279" lon="-3.7636799"><ele>953.6</ele><time>2026-04-10T09:20:07.002Z</time></trkpt><trkpt lat="40.6867873" lon="-3.7637946"><ele>953.2</ele><time>2026-04-10T09:20:08.002Z</time></trkpt><trkpt lat="40.6867396" lon="-3.7639111"><ele>952.8000000000001</ele><time>2026-04-10T09:20:09.002Z</time></trkpt><trkpt lat="40.6866993" lon="-3.7640216"><ele>952.4000000000001</ele><time>2026-04-10T09:20:10.002Z</time></trkpt><trkpt lat="40.6866548" lon="-3.7641379"><ele>952.0</ele><time>2026-04-10T09:20:11.002Z</time></trkpt><trkpt lat="40.6866106" lon="-3.7642551"><ele>951.8</ele><time>2026-04-10T09:20:12.002Z</time></trkpt><trkpt lat="40.6865723" lon="-3.7643726"><ele>951.6</ele><time>2026-04-10T09:20:13.001Z</time></trkpt><trkpt lat="40.6865486" lon="-3.7644987"><ele>951.3999999999999</ele><time>2026-04-10T09:20:14.002Z</time></trkpt><trkpt lat="40.6865354" lon="-3.7646352"><ele>951.1999999999999</ele><time>2026-04-10T09:20:15.001Z</time></trkpt><trkpt lat="40.6865303" lon="-3.764783"><ele>951.0</ele><time>2026-04-10T09:20:16.002Z</time></trkpt><trkpt lat="40.6865283" lon="-3.7649248"><ele>951.0</ele><time>2026-04-10T09:20:17.002Z</time></trkpt><trkpt lat="40.6865159" lon="-3.7650595"><ele>950.9999999999999</ele><time>2026-04-10T09:20:18.002Z</time></trkpt><trkpt lat="40.6864974" lon="-3.7651893"><ele>950.9999999999999</ele><time>2026-04-10T09:20:19.002Z</time></trkpt><trkpt lat="40.6864647" lon="-3.765307"><ele>951.0</ele><time>2026-04-10T09:20:20.001Z</time></trkpt><trkpt lat="40.6864209" lon="-3.7654076"><ele>951.0</ele><time>2026-04-10T09:20:21.001Z</time></trkpt><trkpt lat="40.6863652" lon="-3.7655036"><ele>950.5</ele><time>2026-04-10T09:20:22.002Z</time></trkpt><trkpt lat="40.6863071" lon="-3.7655959"><ele>950.0</ele><time>2026-04-10T09:20:23.002Z</time></trkpt><trkpt lat="40.6862549" lon="-3.7656896"><ele>949.5</ele><time>2026-04-10T09:20:24.002Z</time></trkpt><trkpt lat="40.6862088" lon="-3.7657759"><ele>949.0</ele><time>2026-04-10T09:20:25.002Z</time></trkpt><trkpt lat="40.6861504" lon="-3.7658635"><ele>948.5</ele><time>2026-04-10T09:20:26.002Z</time></trkpt><trkpt lat="40.6860802" lon="-3.7659497"><ele>948.0</ele><time>2026-04-10T09:20:27.002Z</time></trkpt><trkpt lat="40.6860087" lon="-3.7660325"><ele>945.8</ele><time>2026-04-10T09:20:28.002Z</time></trkpt><trkpt lat="40.6859401" lon="-3.7661126"><ele>943.5999999999999</ele><time>2026-04-10T09:20:29.002Z</time></trkpt><trkpt lat="40.6858616" lon="-3.766195"><ele>941.4000000000001</ele><time>2026-04-10T09:20:30.001Z</time></trkpt><trkpt lat="40.6857726" lon="-3.766281"><ele>939.2</ele><time>2026-04-10T09:20:31.002Z</time></trkpt><trkpt lat="40.6856792" lon="-3.7663683"><ele>937.0</ele><time>2026-04-10T09:20:32.002Z</time></trkpt><trkpt lat="40.6855812" lon="-3.7664596"><ele>937.0</ele><time>2026-04-10T09:20:33.002Z</time></trkpt><trkpt lat="40.6854856" lon="-3.7665488"><ele>937.0</ele><time>2026-04-10T09:20:34.002Z</time></trkpt><trkpt lat="40.6853941" lon="-3.7666457"><ele>937.0</ele><time>2026-04-10T09:20:35.002Z</time></trkpt><trkpt lat="40.6853102" lon="-3.7667429"><ele>937.0</ele><time>2026-04-10T09:20:36.002Z</time></trkpt><trkpt lat="40.6852353" lon="-3.7668496"><ele>936.4000000000001</ele><time>2026-04-10T09:20:37.002Z</time></trkpt><trkpt lat="40.6851672" lon="-3.7669558"><ele>935.8000000000001</ele><time>2026-04-10T09:20:38.002Z</time></trkpt><trkpt lat="40.6851084" lon="-3.7670541"><ele>935.2</ele><time>2026-04-10T09:20:39.002Z</time></trkpt><trkpt lat="40.6850576" lon="-3.7671501"><ele>934.6</ele><time>2026-04-10T09:20:40.002Z</time></trkpt><trkpt lat="40.6850158" lon="-3.7672499"><ele>934.0</ele><time>2026-04-10T09:20:41.002Z</time></trkpt><trkpt lat="40.6849828" lon="-3.7673491"><ele>933.9999999999999</ele><time>2026-04-10T09:20:42.002Z</time></trkpt><trkpt lat="40.6849506" lon="-3.7674506"><ele>934.0</ele><time>2026-04-10T09:20:43.002Z</time></trkpt><trkpt lat="40.6849197" lon="-3.7675487"><ele>934.0</ele><time>2026-04-10T09:20:44.002Z</time></trkpt><trkpt lat="40.6848876" lon="-3.7676375"><ele>934.0</ele><time>2026-04-10T09:20:45.001Z</time></trkpt><trkpt lat="40.6848592" lon="-3.76773"><ele>933.9999999999999</ele><time>2026-04-10T09:20:46.002Z</time></trkpt><trkpt lat="40.6848264" lon="-3.7678236"><ele>934.0</ele><time>2026-04-10T09:20:47.001Z</time></trkpt><trkpt lat="40.6847896" lon="-3.7679329"><ele>934.6</ele><time>2026-04-10T09:20:48.002Z</time></trkpt><trkpt lat="40.684754" lon="-3.7680474"><ele>935.2</ele><time>2026-04-10T09:20:49.001Z</time></trkpt><trkpt lat="40.6847191" lon="-3.7681601"><ele>935.8000000000001</ele><time>2026-04-10T09:20:50.001Z</time></trkpt><trkpt lat="40.6846931" lon="-3.7682678"><ele>936.4000000000001</ele><time>2026-04-10T09:20:51.002Z</time></trkpt><trkpt lat="40.6846795" lon="-3.7683815"><ele>937.0</ele><time>2026-04-10T09:20:52.002Z</time></trkpt><trkpt lat="40.684671" lon="-3.7685017"><ele>938.0</ele><time>2026-04-10T09:20:53.002Z</time></trkpt><trkpt lat="40.6846637" lon="-3.7686152"><ele>939.0</ele><time>2026-04-10T09:20:54.002Z</time></trkpt><trkpt lat="40.6846482" lon="-3.7687233"><ele>940.0</ele><time>2026-04-10T09:20:55.002Z</time></trkpt><trkpt lat="40.6846299" lon="-3.7688204"><ele>941.0</ele><time>2026-04-10T09:20:56.002Z</time></trkpt><trkpt lat="40.6846536" lon="-3.7689635"><ele>942.0</ele><time>2026-04-10T09:20:58.002Z</time></trkpt><trkpt lat="40.6847343" lon="-3.7690874"><ele>942.0</ele><time>2026-04-10T09:21:00.002Z</time></trkpt><trkpt lat="40.6847812" lon="-3.7691476"><ele>942.0</ele><time>2026-04-10T09:21:01.001Z</time></trkpt><trkpt lat="40.6848449" lon="-3.7692326"><ele>942.0</ele><time>2026-04-10T09:21:03.002Z</time></trkpt><trkpt lat="40.6849035" lon="-3.7693057"><ele>942.0</ele><time>2026-04-10T09:21:05.002Z</time></trkpt><trkpt lat="40.6849596" lon="-3.7693621"><ele>942.0</ele><time>2026-04-10T09:21:07.002Z</time></trkpt><trkpt lat="40.6850325" lon="-3.7693958"><ele>942.0</ele><time>2026-04-10T09:21:17.002Z</time></trkpt><trkpt lat="40.6851014" lon="-3.7694603"><ele>943.1666666666666</ele><time>2026-04-10T09:21:33.002Z</time></trkpt><trkpt lat="40.6851567" lon="-3.7695617"><ele>944.3333333333333</ele><time>2026-04-10T09:21:35.002Z</time></trkpt><trkpt lat="40.6851395" lon="-3.7697142"><ele>945.5</ele><time>2026-04-10T09:21:37.002Z</time></trkpt><trkpt lat="40.6851134" lon="-3.7698057"><ele>946.6666666666666</ele><time>2026-04-10T09:21:38.002Z</time></trkpt><trkpt lat="40.6850821" lon="-3.7699034"><ele>947.8333333333333</ele><time>2026-04-10T09:21:39.002Z</time></trkpt><trkpt lat="40.6850449" lon="-3.7699978"><ele>949.0</ele><time>2026-04-10T09:21:40.002Z</time></trkpt><trkpt lat="40.6850083" lon="-3.7700869"><ele>948.9999999999999</ele><time>2026-04-10T09:21:41.002Z</time></trkpt><trkpt lat="40.6849746" lon="-3.7701783"><ele>949.0</ele><time>2026-04-10T09:21:42.002Z</time></trkpt><trkpt lat="40.684939" lon="-3.7702755"><ele>949.0</ele><time>2026-04-10T09:21:43.002Z</time></trkpt><trkpt lat="40.6849084" lon="-3.7703661"><ele>949.0</ele><time>2026-04-10T09:21:44.002Z</time></trkpt><trkpt lat="40.6848577" lon="-3.7704892"><ele>948.9999999999999</ele><time>2026-04-10T09:21:46.002Z</time></trkpt><trkpt lat="40.6848287" lon="-3.7706035"><ele>949.0</ele><time>2026-04-10T09:21:48.002Z</time></trkpt><trkpt lat="40.6847823" lon="-3.7707362"><ele>950.4999999999999</ele><time>2026-04-10T09:21:50.002Z</time></trkpt><trkpt lat="40.6847099" lon="-3.7708462"><ele>952.0</ele><time>2026-04-10T09:21:52.002Z</time></trkpt><trkpt lat="40.6846518" lon="-3.7709915"><ele>953.5</ele><time>2026-04-10T09:21:54.001Z</time></trkpt><trkpt lat="40.6846393" lon="-3.7710806"><ele>955.0</ele><time>2026-04-10T09:21:55.002Z</time></trkpt><trkpt lat="40.6846328" lon="-3.7711634"><ele>956.4999999999999</ele><time>2026-04-10T09:21:56.002Z</time></trkpt><trkpt lat="40.6846233" lon="-3.7712487"><ele>958.0</ele><time>2026-04-10T09:21:57.002Z</time></trkpt><trkpt lat="40.6846209" lon="-3.7713353"><ele>958.9999999999999</ele><time>2026-04-10T09:21:58.002Z</time></trkpt><trkpt lat="40.6846243" lon="-3.7714258"><ele>960.0</ele><time>2026-04-10T09:21:59.002Z</time></trkpt><trkpt lat="40.6846301" lon="-3.7715274"><ele>961.0</ele><time>2026-04-10T09:22:00.002Z</time></trkpt><trkpt lat="40.6846355" lon="-3.7716323"><ele>962.0</ele><time>2026-04-10T09:22:01.002Z</time></trkpt><trkpt lat="40.6846476" lon="-3.771736"><ele>962.9999999999999</ele><time>2026-04-10T09:22:02.002Z</time></trkpt><trkpt lat="40.6846604" lon="-3.7718364"><ele>964.0</ele><time>2026-04-10T09:22:03.002Z</time></trkpt><trkpt lat="40.6846767" lon="-3.7719392"><ele>964.0</ele><time>2026-04-10T09:22:04.001Z</time></trkpt><trkpt lat="40.6846866" lon="-3.7720446"><ele>964.0000000000001</ele><time>2026-04-10T09:22:05.002Z</time></trkpt><trkpt lat="40.6846989" lon="-3.7721568"><ele>964.0000000000001</ele><time>2026-04-10T09:22:06.002Z</time></trkpt><trkpt lat="40.6847049" lon="-3.7722732"><ele>964.0</ele><time>2026-04-10T09:22:07.002Z</time></trkpt><trkpt lat="40.684701" lon="-3.7724073"><ele>964.0</ele><time>2026-04-10T09:22:08.002Z</time></trkpt><trkpt lat="40.6846905" lon="-3.7725336"><ele>964.0</ele><time>2026-04-10T09:22:09.002Z</time></trkpt><trkpt lat="40.6846749" lon="-3.7726644"><ele>964.0000000000001</ele><time>2026-04-10T09:22:10.002Z</time></trkpt><trkpt lat="40.6846586" lon="-3.7727972"><ele>964.0000000000001</ele><time>2026-04-10T09:22:11.002Z</time></trkpt><trkpt lat="40.6846453" lon="-3.7729224"><ele>964.0</ele><time>2026-04-10T09:22:12.002Z</time></trkpt><trkpt lat="40.6846308" lon="-3.7730561"><ele>964.0</ele><time>2026-04-10T09:22:13.002Z</time></trkpt><trkpt lat="40.6846128" lon="-3.7731877"><ele>962.6</ele><time>2026-04-10T09:22:14.001Z</time></trkpt><trkpt lat="40.6845952" lon="-3.7733189"><ele>961.2</ele><time>2026-04-10T09:22:15.002Z</time></trkpt><trkpt lat="40.684572" lon="-3.773441"><ele>959.8000000000001</ele><time>2026-04-10T09:22:16.002Z</time></trkpt><trkpt lat="40.6845478" lon="-3.7735573"><ele>958.4000000000001</ele><time>2026-04-10T09:22:17.002Z</time></trkpt><trkpt lat="40.6845215" lon="-3.7736702"><ele>957.0</ele><time>2026-04-10T09:22:18.002Z</time></trkpt><trkpt lat="40.6844923" lon="-3.7737822"><ele>956.6</ele><time>2026-04-10T09:22:19.002Z</time></trkpt><trkpt lat="40.6844573" lon="-3.7739009"><ele>956.2</ele><time>2026-04-10T09:22:20.001Z</time></trkpt><trkpt lat="40.6844118" lon="-3.7740161"><ele>955.8</ele><time>2026-04-10T09:22:21.002Z</time></trkpt><trkpt lat="40.6843493" lon="-3.774129"><ele>955.4</ele><time>2026-04-10T09:22:22.002Z</time></trkpt><trkpt lat="40.6842904" lon="-3.7742319"><ele>955.0</ele><time>2026-04-10T09:22:23.002Z</time></trkpt><trkpt lat="40.6842369" lon="-3.7743402"><ele>953.6</ele><time>2026-04-10T09:22:24.002Z</time></trkpt><trkpt lat="40.6841904" lon="-3.7744533"><ele>952.2</ele><time>2026-04-10T09:22:25.002Z</time></trkpt><trkpt lat="40.6841296" lon="-3.7745503"><ele>950.8</ele><time>2026-04-10T09:22:26.002Z</time></trkpt><trkpt lat="40.6840661" lon="-3.7746539"><ele>949.4</ele><time>2026-04-10T09:22:27.002Z</time></trkpt><trkpt lat="40.6839907" lon="-3.7747456"><ele>948.0</ele><time>2026-04-10T09:22:28.002Z</time></trkpt><trkpt lat="40.6839051" lon="-3.7748272"><ele>948.0</ele><time>2026-04-10T09:22:29.002Z</time></trkpt><trkpt lat="40.6838172" lon="-3.7748981"><ele>948.0</ele><time>2026-04-10T09:22:30.002Z</time></trkpt><trkpt lat="40.6837329" lon="-3.774968"><ele>948.0</ele><time>2026-04-10T09:22:31.002Z</time></trkpt><trkpt lat="40.683648" lon="-3.7750355"><ele>948.0</ele><time>2026-04-10T09:22:32.002Z</time></trkpt><trkpt lat="40.6835684" lon="-3.7750889"><ele>948.0</ele><time>2026-04-10T09:22:33.002Z</time></trkpt><trkpt lat="40.6834906" lon="-3.7751378"><ele>947.4</ele><time>2026-04-10T09:22:34.002Z</time></trkpt><trkpt lat="40.6834116" lon="-3.7752094"><ele>946.8</ele><time>2026-04-10T09:22:35.001Z</time></trkpt><trkpt lat="40.6833286" lon="-3.7752832"><ele>946.2</ele><time>2026-04-10T09:22:36.002Z</time></trkpt><trkpt lat="40.6832437" lon="-3.7753508"><ele>945.6</ele><time>2026-04-10T09:22:37.002Z</time></trkpt><trkpt lat="40.6831569" lon="-3.7754212"><ele>945.0</ele><time>2026-04-10T09:22:38.002Z</time></trkpt><trkpt lat="40.6830712" lon="-3.7754894"><ele>945.0</ele><time>2026-04-10T09:22:39.002Z</time></trkpt><trkpt lat="40.6829899" lon="-3.7755546"><ele>945.0</ele><time>2026-04-10T09:22:40.002Z</time></trkpt><trkpt lat="40.6829171" lon="-3.7756305"><ele>945.0</ele><time>2026-04-10T09:22:41.002Z</time></trkpt><trkpt lat="40.6828581" lon="-3.7757082"><ele>945.0</ele><time>2026-04-10T09:22:42.002Z</time></trkpt><trkpt lat="40.6827974" lon="-3.7757824"><ele>945.0</ele><time>2026-04-10T09:22:43.002Z</time></trkpt><trkpt lat="40.6827384" lon="-3.7758491"><ele>945.0</ele><time>2026-04-10T09:22:44.002Z</time></trkpt><trkpt lat="40.6826711" lon="-3.7758916"><ele>944.0</ele><time>2026-04-10T09:22:45.002Z</time></trkpt><trkpt lat="40.6825908" lon="-3.7759208"><ele>943.0</ele><time>2026-04-10T09:22:46.002Z</time></trkpt><trkpt lat="40.682501" lon="-3.7759371"><ele>942.0</ele><time>2026-04-10T09:22:47.002Z</time></trkpt><trkpt lat="40.6824154" lon="-3.7759729"><ele>941.0</ele><time>2026-04-10T09:22:48.002Z</time></trkpt><trkpt lat="40.6823536" lon="-3.7760768"><ele>940.0</ele><time>2026-04-10T09:22:49.002Z</time></trkpt><trkpt lat="40.6822943" lon="-3.7761687"><ele>940.0</ele><time>2026-04-10T09:22:50.002Z</time></trkpt><trkpt lat="40.6822216" lon="-3.7762082"><ele>940.0</ele><time>2026-04-10T09:22:51.002Z</time></trkpt><trkpt lat="40.6821341" lon="-3.7762584"><ele>940.0</ele><time>2026-04-10T09:22:52.002Z</time></trkpt><trkpt lat="40.6820596" lon="-3.7763361"><ele>940.0</ele><time>2026-04-10T09:22:53.002Z</time></trkpt><trkpt lat="40.6819847" lon="-3.7764301"><ele>940.0</ele><time>2026-04-10T09:22:54.002Z</time></trkpt><trkpt lat="40.6819086" lon="-3.7765322"><ele>939.4</ele><time>2026-04-10T09:22:55.002Z</time></trkpt><trkpt lat="40.6818356" lon="-3.7766301"><ele>938.8</ele><time>2026-04-10T09:22:56.002Z</time></trkpt><trkpt lat="40.6817596" lon="-3.7767246"><ele>938.2</ele><time>2026-04-10T09:22:57.002Z</time></trkpt><trkpt lat="40.6816779" lon="-3.7768163"><ele>937.6</ele><time>2026-04-10T09:22:58.001Z</time></trkpt><trkpt lat="40.6815922" lon="-3.7769028"><ele>937.0</ele><time>2026-04-10T09:22:59.002Z</time></trkpt><trkpt lat="40.6815041" lon="-3.7769814"><ele>936.8</ele><time>2026-04-10T09:23:00.001Z</time></trkpt><trkpt lat="40.6814218" lon="-3.7770601"><ele>936.6</ele><time>2026-04-10T09:23:01.001Z</time></trkpt><trkpt lat="40.6813432" lon="-3.7771411"><ele>936.3999999999999</ele><time>2026-04-10T09:23:02.002Z</time></trkpt><trkpt lat="40.6812643" lon="-3.7772158"><ele>936.1999999999999</ele><time>2026-04-10T09:23:03.002Z</time></trkpt><trkpt lat="40.6811777" lon="-3.7772806"><ele>936.0</ele><time>2026-04-10T09:23:04.002Z</time></trkpt><trkpt lat="40.6810848" lon="-3.7773528"><ele>934.5</ele><time>2026-04-10T09:23:05.002Z</time></trkpt><trkpt lat="40.6809889" lon="-3.7774368"><ele>933.0</ele><time>2026-04-10T09:23:06.002Z</time></trkpt><trkpt lat="40.6808953" lon="-3.7775293"><ele>931.5</ele><time>2026-04-10T09:23:07.002Z</time></trkpt><trkpt lat="40.6808094" lon="-3.7776233"><ele>930.0</ele><time>2026-04-10T09:23:08.002Z</time></trkpt><trkpt lat="40.6807265" lon="-3.7777311"><ele>929.5</ele><time>2026-04-10T09:23:09.002Z</time></trkpt><trkpt lat="40.6806403" lon="-3.7778528"><ele>929.0</ele><time>2026-04-10T09:23:10.002Z</time></trkpt><trkpt lat="40.6805647" lon="-3.7779963"><ele>928.5</ele><time>2026-04-10T09:23:11.001Z</time></trkpt><trkpt lat="40.6805137" lon="-3.7781663"><ele>928.0</ele><time>2026-04-10T09:23:12.002Z</time></trkpt><trkpt lat="40.6804628" lon="-3.7783414"><ele>928.0</ele><time>2026-04-10T09:23:13.002Z</time></trkpt><trkpt lat="40.6803932" lon="-3.7785029"><ele>928.0</ele><time>2026-04-10T09:23:14.002Z</time></trkpt><trkpt lat="40.6803126" lon="-3.7786553"><ele>928.0</ele><time>2026-04-10T09:23:15.002Z</time></trkpt><trkpt lat="40.680223" lon="-3.7787985"><ele>928.0</ele><time>2026-04-10T09:23:16.002Z</time></trkpt><trkpt lat="40.6801261" lon="-3.7789414"><ele>926.0</ele><time>2026-04-10T09:23:17.002Z</time></trkpt><trkpt lat="40.6800238" lon="-3.7790817"><ele>924.0</ele><time>2026-04-10T09:23:18.002Z</time></trkpt><trkpt lat="40.67992" lon="-3.7792095"><ele>922.0</ele><time>2026-04-10T09:23:19.002Z</time></trkpt><trkpt lat="40.67981" lon="-3.7793316"><ele>920.0</ele><time>2026-04-10T09:23:20.002Z</time></trkpt><trkpt lat="40.6797061" lon="-3.7794555"><ele>919.75</ele><time>2026-04-10T09:23:21.002Z</time></trkpt><trkpt lat="40.679617" lon="-3.7795899"><ele>919.5</ele><time>2026-04-10T09:23:22.001Z</time></trkpt><trkpt lat="40.6795359" lon="-3.7797451"><ele>919.25</ele><time>2026-04-10T09:23:23.002Z</time></trkpt><trkpt lat="40.6794513" lon="-3.7799092"><ele>919.0</ele><time>2026-04-10T09:23:24.002Z</time></trkpt><trkpt lat="40.6793662" lon="-3.7800805"><ele>917.75</ele><time>2026-04-10T09:23:25.002Z</time></trkpt><trkpt lat="40.6792822" lon="-3.7802353"><ele>916.5</ele><time>2026-04-10T09:23:26.002Z</time></trkpt><trkpt lat="40.6791987" lon="-3.7803765"><ele>915.25</ele><time>2026-04-10T09:23:27.002Z</time></trkpt><trkpt lat="40.6791176" lon="-3.7805127"><ele>914.0</ele><time>2026-04-10T09:23:28.002Z</time></trkpt><trkpt lat="40.6790396" lon="-3.7806416"><ele>914.0</ele><time>2026-04-10T09:23:29.002Z</time></trkpt><trkpt lat="40.6789648" lon="-3.780764"><ele>914.0</ele><time>2026-04-10T09:23:30.002Z</time></trkpt><trkpt lat="40.678889" lon="-3.7808821"><ele>914.0</ele><time>2026-04-10T09:23:31.002Z</time></trkpt><trkpt lat="40.6788152" lon="-3.7809885"><ele>914.0</ele><time>2026-04-10T09:23:32.001Z</time></trkpt><trkpt lat="40.6787408" lon="-3.7810925"><ele>913.8333333333334</ele><time>2026-04-10T09:23:33.002Z</time></trkpt><trkpt lat="40.6786667" lon="-3.7811936"><ele>913.6666666666667</ele><time>2026-04-10T09:23:34.002Z</time></trkpt><trkpt lat="40.6786052" lon="-3.7812963"><ele>913.5</ele><time>2026-04-10T09:23:35.002Z</time></trkpt><trkpt lat="40.6785621" lon="-3.7813915"><ele>913.3333333333333</ele><time>2026-04-10T09:23:36.002Z</time></trkpt><trkpt lat="40.6785395" lon="-3.7814792"><ele>913.1666666666666</ele><time>2026-04-10T09:23:37.002Z</time></trkpt><trkpt lat="40.6785085" lon="-3.7815694"><ele>913.0</ele><time>2026-04-10T09:23:39.002Z</time></trkpt><trkpt lat="40.6784364" lon="-3.7816705"><ele>912.5999999999999</ele><time>2026-04-10T09:23:54.002Z</time></trkpt><trkpt lat="40.6783536" lon="-3.7817261"><ele>912.1999999999999</ele><time>2026-04-10T09:23:56.002Z</time></trkpt><trkpt lat="40.6782536" lon="-3.7818005"><ele>911.8</ele><time>2026-04-10T09:23:58.002Z</time></trkpt><trkpt lat="40.6781777" lon="-3.781868"><ele>911.4</ele><time>2026-04-10T09:23:59.002Z</time></trkpt><trkpt lat="40.6780928" lon="-3.7819489"><ele>911.0</ele><time>2026-04-10T09:24:00.002Z</time></trkpt><trkpt lat="40.6780013" lon="-3.7820275"><ele>910.75</ele><time>2026-04-10T09:24:01.002Z</time></trkpt><trkpt lat="40.6779027" lon="-3.7821135"><ele>910.5</ele><time>2026-04-10T09:24:02.002Z</time></trkpt><trkpt lat="40.6778068" lon="-3.7821915"><ele>910.25</ele><time>2026-04-10T09:24:03.002Z</time></trkpt><trkpt lat="40.6777107" lon="-3.7822735"><ele>910.0</ele><time>2026-04-10T09:24:04.002Z</time></trkpt><trkpt lat="40.6776117" lon="-3.782358"><ele>910.0</ele><time>2026-04-10T09:24:05.002Z</time></trkpt><trkpt lat="40.6775141" lon="-3.7824363"><ele>910.0</ele><time>2026-04-10T09:24:06.002Z</time></trkpt><trkpt lat="40.6774209" lon="-3.7825032"><ele>910.0</ele><time>2026-04-10T09:24:07.002Z</time></trkpt><trkpt lat="40.6773333" lon="-3.7825705"><ele>910.0</ele><time>2026-04-10T09:24:08.001Z</time></trkpt><trkpt lat="40.6772582" lon="-3.7826448"><ele>910.0</ele><time>2026-04-10T09:24:09.002Z</time></trkpt><trkpt lat="40.6771898" lon="-3.7827405"><ele>909.25</ele><time>2026-04-10T09:24:10.002Z</time></trkpt><trkpt lat="40.6771271" lon="-3.7828551"><ele>908.5</ele><time>2026-04-10T09:24:11.002Z</time></trkpt><trkpt lat="40.6770586" lon="-3.7829889"><ele>907.75</ele><time>2026-04-10T09:24:12.002Z</time></trkpt><trkpt lat="40.6769792" lon="-3.7831258"><ele>907.0</ele><time>2026-04-10T09:24:13.001Z</time></trkpt><trkpt lat="40.6768948" lon="-3.7832608"><ele>906.75</ele><time>2026-04-10T09:24:14.002Z</time></trkpt><trkpt lat="40.6767996" lon="-3.7833864"><ele>906.5</ele><time>2026-04-10T09:24:15.002Z</time></trkpt><trkpt lat="40.6767016" lon="-3.7834928"><ele>906.25</ele><time>2026-04-10T09:24:16.002Z</time></trkpt><trkpt lat="40.6765972" lon="-3.7835931"><ele>906.0</ele><time>2026-04-10T09:24:17.002Z</time></trkpt><trkpt lat="40.6764953" lon="-3.7836923"><ele>905.5</ele><time>2026-04-10T09:24:18.002Z</time></trkpt><trkpt lat="40.6763875" lon="-3.783797"><ele>905.0</ele><time>2026-04-10T09:24:19.001Z</time></trkpt><trkpt lat="40.6762729" lon="-3.7839025"><ele>904.5</ele><time>2026-04-10T09:24:20.002Z</time></trkpt><trkpt lat="40.676163" lon="-3.7840075"><ele>904.0</ele><time>2026-04-10T09:24:21.002Z</time></trkpt><trkpt lat="40.676057" lon="-3.7841052"><ele>904.0</ele><time>2026-04-10T09:24:22.002Z</time></trkpt><trkpt lat="40.6759625" lon="-3.7841939"><ele>904.0</ele><time>2026-04-10T09:24:23.002Z</time></trkpt><trkpt lat="40.6758681" lon="-3.7842725"><ele>904.0</ele><time>2026-04-10T09:24:24.001Z</time></trkpt><trkpt lat="40.6757716" lon="-3.7843391"><ele>904.0</ele><time>2026-04-10T09:24:25.002Z</time></trkpt><trkpt lat="40.6756666" lon="-3.7844063"><ele>902.75</ele><time>2026-04-10T09:24:26.001Z</time></trkpt><trkpt lat="40.6755569" lon="-3.7844731"><ele>901.5</ele><time>2026-04-10T09:24:27.002Z</time></trkpt><trkpt lat="40.6754415" lon="-3.7845444"><ele>900.25</ele><time>2026-04-10T09:24:28.002Z</time></trkpt><trkpt lat="40.6753221" lon="-3.7846118"><ele>899.0</ele><time>2026-04-10T09:24:29.002Z</time></trkpt><trkpt lat="40.6752009" lon="-3.7846791"><ele>898.25</ele><time>2026-04-10T09:24:30.002Z</time></trkpt><trkpt lat="40.6750806" lon="-3.7847464"><ele>897.5</ele><time>2026-04-10T09:24:31.002Z</time></trkpt><trkpt lat="40.6749613" lon="-3.7848087"><ele>896.75</ele><time>2026-04-10T09:24:32.002Z</time></trkpt><trkpt lat="40.6748457" lon="-3.784864"><ele>896.0</ele><time>2026-04-10T09:24:33.002Z</time></trkpt><trkpt lat="40.6747317" lon="-3.7849161"><ele>896.0</ele><time>2026-04-10T09:24:34.002Z</time></trkpt><trkpt lat="40.6746201" lon="-3.7849684"><ele>896.0</ele><time>2026-04-10T09:24:35.002Z</time></trkpt><trkpt lat="40.6745135" lon="-3.7850195"><ele>896.0</ele><time>2026-04-10T09:24:36.002Z</time></trkpt><trkpt lat="40.6744029" lon="-3.7850764"><ele>896.0</ele><time>2026-04-10T09:24:37.002Z</time></trkpt><trkpt lat="40.674291" lon="-3.7851355"><ele>894.25</ele><time>2026-04-10T09:24:38.002Z</time></trkpt><trkpt lat="40.6741746" lon="-3.7851933"><ele>892.5</ele><time>2026-04-10T09:24:39.002Z</time></trkpt><trkpt lat="40.6740626" lon="-3.7852478"><ele>890.75</ele><time>2026-04-10T09:24:40.002Z</time></trkpt><trkpt lat="40.6739575" lon="-3.7853028"><ele>889.0</ele><time>2026-04-10T09:24:41.002Z</time></trkpt><trkpt lat="40.6738586" lon="-3.7853543"><ele>889.0</ele><time>2026-04-10T09:24:42.002Z</time></trkpt><trkpt lat="40.673766" lon="-3.785405"><ele>889.0000000000001</ele><time>2026-04-10T09:24:43.002Z</time></trkpt><trkpt lat="40.6736781" lon="-3.7854567"><ele>889.0000000000001</ele><time>2026-04-10T09:24:44.002Z</time></trkpt><trkpt lat="40.6735911" lon="-3.7855056"><ele>889.0</ele><time>2026-04-10T09:24:45.002Z</time></trkpt><trkpt lat="40.6735043" lon="-3.7855543"><ele>889.0</ele><time>2026-04-10T09:24:46.001Z</time></trkpt><trkpt lat="40.6734176" lon="-3.7855936"><ele>888.9999999999999</ele><time>2026-04-10T09:24:47.002Z</time></trkpt><trkpt lat="40.6733313" lon="-3.7856371"><ele>889.0</ele><time>2026-04-10T09:24:48.002Z</time></trkpt><trkpt lat="40.6732482" lon="-3.7856723"><ele>889.0</ele><time>2026-04-10T09:24:49.001Z</time></trkpt><trkpt lat="40.6731677" lon="-3.7857034"><ele>889.0</ele><time>2026-04-10T09:24:50.002Z</time></trkpt><trkpt lat="40.6730889" lon="-3.7857273"><ele>888.9999999999999</ele><time>2026-04-10T09:24:51.002Z</time></trkpt><trkpt lat="40.673011" lon="-3.7857624"><ele>889.0</ele><time>2026-04-10T09:24:52.001Z</time></trkpt><trkpt lat="40.6729275" lon="-3.7857944"><ele>889.0</ele><time>2026-04-10T09:24:53.002Z</time></trkpt><trkpt lat="40.6728451" lon="-3.7858298"><ele>889.0000000000001</ele><time>2026-04-10T09:24:54.002Z</time></trkpt><trkpt lat="40.6727558" lon="-3.785863"><ele>889.0000000000001</ele><time>2026-04-10T09:24:55.001Z</time></trkpt><trkpt lat="40.6726662" lon="-3.785898"><ele>889.0</ele><time>2026-04-10T09:24:56.002Z</time></trkpt><trkpt lat="40.6725746" lon="-3.7859355"><ele>889.0</ele><time>2026-04-10T09:24:57.002Z</time></trkpt><trkpt lat="40.6724803" lon="-3.7859723"><ele>889.0</ele><time>2026-04-10T09:24:58.002Z</time></trkpt><trkpt lat="40.6723814" lon="-3.786001"><ele>889.0000000000001</ele><time>2026-04-10T09:24:59.002Z</time></trkpt><trkpt lat="40.6722835" lon="-3.7860174"><ele>889.0000000000001</ele><time>2026-04-10T09:25:00.001Z</time></trkpt><trkpt lat="40.6721881" lon="-3.7860245"><ele>889.0</ele><time>2026-04-10T09:25:01.002Z</time></trkpt><trkpt lat="40.6720994" lon="-3.7860369"><ele>889.0</ele><time>2026-04-10T09:25:02.002Z</time></trkpt><trkpt lat="40.6720158" lon="-3.7860576"><ele>887.6</ele><time>2026-04-10T09:25:03.001Z</time></trkpt><trkpt lat="40.6719309" lon="-3.7860726"><ele>886.2</ele><time>2026-04-10T09:25:04.002Z</time></trkpt><trkpt lat="40.6718447" lon="-3.7860855"><ele>884.8000000000001</ele><time>2026-04-10T09:25:05.002Z</time></trkpt><trkpt lat="40.6717533" lon="-3.7860931"><ele>883.4000000000001</ele><time>2026-04-10T09:25:06.002Z</time></trkpt><trkpt lat="40.6716601" lon="-3.7860947"><ele>882.0</ele><time>2026-04-10T09:25:07.001Z</time></trkpt><trkpt lat="40.6715629" lon="-3.7860996"><ele>882.0</ele><time>2026-04-10T09:25:08.002Z</time></trkpt><trkpt lat="40.6714631" lon="-3.7861104"><ele>882.0</ele><time>2026-04-10T09:25:09.002Z</time></trkpt><trkpt lat="40.6713691" lon="-3.7861286"><ele>882.0</ele><time>2026-04-10T09:25:10.002Z</time></trkpt><trkpt lat="40.6712793" lon="-3.7861464"><ele>882.0</ele><time>2026-04-10T09:25:11.002Z</time></trkpt><trkpt lat="40.6711878" lon="-3.7861629"><ele>882.0</ele><time>2026-04-10T09:25:12.002Z</time></trkpt><trkpt lat="40.6710987" lon="-3.786185"><ele>882.2</ele><time>2026-04-10T09:25:13.002Z</time></trkpt><trkpt lat="40.6710076" lon="-3.7862039"><ele>882.4000000000001</ele><time>2026-04-10T09:25:14.002Z</time></trkpt><trkpt lat="40.6709138" lon="-3.786224"><ele>882.5999999999999</ele><time>2026-04-10T09:25:15.002Z</time></trkpt><trkpt lat="40.6708189" lon="-3.7862352"><ele>882.8</ele><time>2026-04-10T09:25:16.002Z</time></trkpt><trkpt lat="40.6707207" lon="-3.786241"><ele>883.0</ele><time>2026-04-10T09:25:17.001Z</time></trkpt><trkpt lat="40.6706233" lon="-3.786257"><ele>883.0</ele><time>2026-04-10T09:25:18.002Z</time></trkpt><trkpt lat="40.6705288" lon="-3.7862719"><ele>883.0</ele><time>2026-04-10T09:25:19.002Z</time></trkpt><trkpt lat="40.6704366" lon="-3.7862844"><ele>883.0</ele><time>2026-04-10T09:25:20.002Z</time></trkpt><trkpt lat="40.6703504" lon="-3.7862992"><ele>883.0</ele><time>2026-04-10T09:25:21.002Z</time></trkpt><trkpt lat="40.6702585" lon="-3.7863027"><ele>883.0</ele><time>2026-04-10T09:25:22.002Z</time></trkpt><trkpt lat="40.6701664" lon="-3.7862727"><ele>883.8</ele><time>2026-04-10T09:25:23.002Z</time></trkpt><trkpt lat="40.6700802" lon="-3.7862368"><ele>884.5999999999999</ele><time>2026-04-10T09:25:24.002Z</time></trkpt><trkpt lat="40.6699984" lon="-3.7861939"><ele>885.4000000000001</ele><time>2026-04-10T09:25:25.002Z</time></trkpt><trkpt lat="40.6699137" lon="-3.7861508"><ele>886.2</ele><time>2026-04-10T09:25:26.002Z</time></trkpt><trkpt lat="40.6698265" lon="-3.7861014"><ele>887.0</ele><time>2026-04-10T09:25:27.002Z</time></trkpt><trkpt lat="40.669739" lon="-3.7860469"><ele>886.8</ele><time>2026-04-10T09:25:28.002Z</time></trkpt><trkpt lat="40.6696625" lon="-3.7859773"><ele>886.6</ele><time>2026-04-10T09:25:29.002Z</time></trkpt><trkpt lat="40.6695941" lon="-3.785893"><ele>886.3999999999999</ele><time>2026-04-10T09:25:30.002Z</time></trkpt><trkpt lat="40.6695258" lon="-3.7858106"><ele>886.1999999999999</ele><time>2026-04-10T09:25:31.002Z</time></trkpt><trkpt lat="40.6694561" lon="-3.7857222"><ele>886.0</ele><time>2026-04-10T09:25:32.002Z</time></trkpt><trkpt lat="40.6693952" lon="-3.7856273"><ele>886.0</ele><time>2026-04-10T09:25:33.002Z</time></trkpt><trkpt lat="40.6693333" lon="-3.7855422"><ele>885.9999999999999</ele><time>2026-04-10T09:25:34.002Z</time></trkpt><trkpt lat="40.6692621" lon="-3.7854763"><ele>885.9999999999999</ele><time>2026-04-10T09:25:35.002Z</time></trkpt><trkpt lat="40.669176" lon="-3.7854302"><ele>886.0</ele><time>2026-04-10T09:25:36.002Z</time></trkpt><trkpt lat="40.6690788" lon="-3.7854121"><ele>886.0</ele><time>2026-04-10T09:25:37.002Z</time></trkpt><trkpt lat="40.6689772" lon="-3.7853944"><ele>886.0</ele><time>2026-04-10T09:25:38.002Z</time></trkpt><trkpt lat="40.6688654" lon="-3.7853735"><ele>885.9999999999999</ele><time>2026-04-10T09:25:39.002Z</time></trkpt><trkpt lat="40.6687532" lon="-3.7853456"><ele>885.9999999999999</ele><time>2026-04-10T09:25:40.002Z</time></trkpt><trkpt lat="40.6686446" lon="-3.7853303"><ele>886.0</ele><time>2026-04-10T09:25:41.002Z</time></trkpt><trkpt lat="40.6685403" lon="-3.7853203"><ele>886.0</ele><time>2026-04-10T09:25:42.002Z</time></trkpt><trkpt lat="40.6684349" lon="-3.7853124"><ele>885.5999999999999</ele><time>2026-04-10T09:25:43.002Z</time></trkpt><trkpt lat="40.6683275" lon="-3.7852974"><ele>885.1999999999999</ele><time>2026-04-10T09:25:44.002Z</time></trkpt><trkpt lat="40.6682175" lon="-3.7852876"><ele>884.8000000000001</ele><time>2026-04-10T09:25:45.002Z</time></trkpt><trkpt lat="40.6681119" lon="-3.7852797"><ele>884.4000000000001</ele><time>2026-04-10T09:25:46.002Z</time></trkpt><trkpt lat="40.6680096" lon="-3.7852847"><ele>884.0</ele><time>2026-04-10T09:25:47.002Z</time></trkpt><trkpt lat="40.6679175" lon="-3.7853065"><ele>884.0</ele><time>2026-04-10T09:25:48.002Z</time></trkpt><trkpt lat="40.6678314" lon="-3.7853505"><ele>884.0000000000001</ele><time>2026-04-10T09:25:49.002Z</time></trkpt><trkpt lat="40.6677434" lon="-3.7853925"><ele>884.0000000000001</ele><time>2026-04-10T09:25:50.002Z</time></trkpt><trkpt lat="40.6676534" lon="-3.7854307"><ele>884.0</ele><time>2026-04-10T09:25:51.002Z</time></trkpt><trkpt lat="40.6675625" lon="-3.7854618"><ele>884.0</ele><time>2026-04-10T09:25:52.002Z</time></trkpt><trkpt lat="40.6674688" lon="-3.7854808"><ele>884.6666666666667</ele><time>2026-04-10T09:25:53.002Z</time></trkpt><trkpt lat="40.6673715" lon="-3.7854997"><ele>885.3333333333334</ele><time>2026-04-10T09:25:54.002Z</time></trkpt><trkpt lat="40.667276" lon="-3.7855114"><ele>886.0</ele><time>2026-04-10T09:25:55.002Z</time></trkpt><trkpt lat="40.6671931" lon="-3.7855173"><ele>886.6666666666667</ele><time>2026-04-10T09:25:56.002Z</time></trkpt><trkpt lat="40.6671143" lon="-3.7855209"><ele>887.3333333333334</ele><time>2026-04-10T09:25:57.002Z</time></trkpt><trkpt lat="40.6670389" lon="-3.7855287"><ele>888.0</ele><time>2026-04-10T09:25:58.002Z</time></trkpt><trkpt lat="40.6669711" lon="-3.7855408"><ele>889.0</ele><time>2026-04-10T09:25:59.002Z</time></trkpt><trkpt lat="40.6668582" lon="-3.7855921"><ele>890.0</ele><time>2026-04-10T09:26:01.002Z</time></trkpt><trkpt lat="40.6667604" lon="-3.7856362"><ele>891.0</ele><time>2026-04-10T09:26:03.002Z</time></trkpt><trkpt lat="40.6666453" lon="-3.7856742"><ele>892.0</ele><time>2026-04-10T09:26:05.002Z</time></trkpt><trkpt lat="40.666579" lon="-3.7856925"><ele>893.0</ele><time>2026-04-10T09:26:06.002Z</time></trkpt><trkpt lat="40.6665027" lon="-3.7857162"><ele>893.0000000000001</ele><time>2026-04-10T09:26:07.002Z</time></trkpt><trkpt lat="40.666424" lon="-3.7857396"><ele>893.0</ele><time>2026-04-10T09:26:08.002Z</time></trkpt><trkpt lat="40.6663437" lon="-3.7857597"><ele>893.0</ele><time>2026-04-10T09:26:09.002Z</time></trkpt><trkpt lat="40.6662712" lon="-3.7857769"><ele>893.0</ele><time>2026-04-10T09:26:10.002Z</time></trkpt><trkpt lat="40.6662058" lon="-3.7857914"><ele>893.0000000000001</ele><time>2026-04-10T09:26:11.001Z</time></trkpt><trkpt lat="40.6660936" lon="-3.7858196"><ele>893.0</ele><time>2026-04-10T09:26:13.002Z</time></trkpt><trkpt lat="40.666" lon="-3.7858599"><ele>892.2</ele><time>2026-04-10T09:26:15.002Z</time></trkpt><trkpt lat="40.6659342" lon="-3.7859583"><ele>891.4</ele><time>2026-04-10T09:26:17.002Z</time></trkpt><trkpt lat="40.6659205" lon="-3.7861013"><ele>890.6000000000001</ele><time>2026-04-10T09:26:19.002Z</time></trkpt><trkpt lat="40.6659841" lon="-3.7862622"><ele>889.8000000000001</ele><time>2026-04-10T09:26:21.002Z</time></trkpt><trkpt lat="40.6660284" lon="-3.7863519"><ele>889.0</ele><time>2026-04-10T09:26:22.002Z</time></trkpt><trkpt lat="40.6660751" lon="-3.7864463"><ele>888.6</ele><time>2026-04-10T09:26:23.002Z</time></trkpt><trkpt lat="40.6661233" lon="-3.7865457"><ele>888.2</ele><time>2026-04-10T09:26:24.002Z</time></trkpt><trkpt lat="40.6661699" lon="-3.7866527"><ele>887.8000000000001</ele><time>2026-04-10T09:26:25.002Z</time></trkpt><trkpt lat="40.6662118" lon="-3.7867762"><ele>887.4000000000001</ele><time>2026-04-10T09:26:26.002Z</time></trkpt><trkpt lat="40.6662447" lon="-3.7869137"><ele>887.0</ele><time>2026-04-10T09:26:27.002Z</time></trkpt><trkpt lat="40.6662764" lon="-3.7870492"><ele>886.5</ele><time>2026-04-10T09:26:28.002Z</time></trkpt><trkpt lat="40.6663111" lon="-3.7871934"><ele>886.0</ele><time>2026-04-10T09:26:29.002Z</time></trkpt><trkpt lat="40.6663508" lon="-3.7873297"><ele>885.5</ele><time>2026-04-10T09:26:30.001Z</time></trkpt><trkpt lat="40.6663889" lon="-3.7874736"><ele>885.0</ele><time>2026-04-10T09:26:31.002Z</time></trkpt><trkpt lat="40.6664251" lon="-3.7876192"><ele>884.0</ele><time>2026-04-10T09:26:32.002Z</time></trkpt><trkpt lat="40.6664653" lon="-3.7877622"><ele>883.0</ele><time>2026-04-10T09:26:33.002Z</time></trkpt><trkpt lat="40.6665039" lon="-3.7879022"><ele>882.0</ele><time>2026-04-10T09:26:34.002Z</time></trkpt><trkpt lat="40.6665475" lon="-3.7880338"><ele>881.0</ele><time>2026-04-10T09:26:35.002Z</time></trkpt><trkpt lat="40.6665943" lon="-3.7881603"><ele>880.0</ele><time>2026-04-10T09:26:36.002Z</time></trkpt><trkpt lat="40.6666432" lon="-3.7882892"><ele>880.0</ele><time>2026-04-10T09:26:37.002Z</time></trkpt><trkpt lat="40.666696" lon="-3.7884154"><ele>880.0</ele><time>2026-04-10T09:26:38.001Z</time></trkpt><trkpt lat="40.6667537" lon="-3.7885487"><ele>880.0</ele><time>2026-04-10T09:26:39.002Z</time></trkpt><trkpt lat="40.6668181" lon="-3.788694"><ele>880.0</ele><time>2026-04-10T09:26:40.002Z</time></trkpt><trkpt lat="40.6668837" lon="-3.7888329"><ele>880.0</ele><time>2026-04-10T09:26:41.002Z</time></trkpt><trkpt lat="40.666943" lon="-3.7889688"><ele>880.0</ele><time>2026-04-10T09:26:42.001Z</time></trkpt><trkpt lat="40.6670013" lon="-3.7891105"><ele>880.0</ele><time>2026-04-10T09:26:43.002Z</time></trkpt><trkpt lat="40.6670616" lon="-3.7892458"><ele>880.0</ele><time>2026-04-10T09:26:44.001Z</time></trkpt><trkpt lat="40.6671161" lon="-3.7893833"><ele>879.6</ele><time>2026-04-10T09:26:45.002Z</time></trkpt><trkpt lat="40.6671683" lon="-3.7895151"><ele>879.2</ele><time>2026-04-10T09:26:46.002Z</time></trkpt><trkpt lat="40.66722" lon="-3.7896466"><ele>878.8</ele><time>2026-04-10T09:26:47.002Z</time></trkpt><trkpt lat="40.6672687" lon="-3.7897747"><ele>878.4</ele><time>2026-04-10T09:26:48.002Z</time></trkpt><trkpt lat="40.6673234" lon="-3.7898982"><ele>878.0</ele><time>2026-04-10T09:26:49.002Z</time></trkpt><trkpt lat="40.6673792" lon="-3.7900173"><ele>878.0</ele><time>2026-04-10T09:26:50.002Z</time></trkpt><trkpt lat="40.6674353" lon="-3.7901301"><ele>878.0</ele><time>2026-04-10T09:26:51.002Z</time></trkpt><trkpt lat="40.6674852" lon="-3.7902323"><ele>878.0</ele><time>2026-04-10T09:26:52.002Z</time></trkpt><trkpt lat="40.6675303" lon="-3.7903363"><ele>878.0</ele><time>2026-04-10T09:26:53.002Z</time></trkpt><trkpt lat="40.6675714" lon="-3.7904408"><ele>878.0</ele><time>2026-04-10T09:26:54.002Z</time></trkpt><trkpt lat="40.6676154" lon="-3.7905453"><ele>877.3333333333334</ele><time>2026-04-10T09:26:55.002Z</time></trkpt><trkpt lat="40.6676602" lon="-3.7906427"><ele>876.6666666666667</ele><time>2026-04-10T09:26:56.002Z</time></trkpt><trkpt lat="40.6677075" lon="-3.7907384"><ele>876.0</ele><time>2026-04-10T09:26:57.002Z</time></trkpt><trkpt lat="40.6677532" lon="-3.7908372"><ele>875.3333333333333</ele><time>2026-04-10T09:26:58.002Z</time></trkpt><trkpt lat="40.6678001" lon="-3.7909357"><ele>874.6666666666666</ele><time>2026-04-10T09:26:59.002Z</time></trkpt><trkpt lat="40.6678452" lon="-3.7910368"><ele>874.0</ele><time>2026-04-10T09:27:00.001Z</time></trkpt><trkpt lat="40.6678933" lon="-3.7911377"><ele>873.6666666666666</ele><time>2026-04-10T09:27:01.002Z</time></trkpt><trkpt lat="40.6679376" lon="-3.7912337"><ele>873.3333333333333</ele><time>2026-04-10T09:27:02.002Z</time></trkpt><trkpt lat="40.667985" lon="-3.791328"><ele>873.0</ele><time>2026-04-10T09:27:03.002Z</time></trkpt><trkpt lat="40.6680236" lon="-3.7914304"><ele>872.6666666666667</ele><time>2026-04-10T09:27:04.002Z</time></trkpt><trkpt lat="40.6680522" lon="-3.7915334"><ele>872.3333333333334</ele><time>2026-04-10T09:27:05.002Z</time></trkpt><trkpt lat="40.6680792" lon="-3.7916453"><ele>872.0</ele><time>2026-04-10T09:27:06.002Z</time></trkpt><trkpt lat="40.668107" lon="-3.791765"><ele>871.8</ele><time>2026-04-10T09:27:07.002Z</time></trkpt><trkpt lat="40.6681329" lon="-3.7918852"><ele>871.6</ele><time>2026-04-10T09:27:08.002Z</time></trkpt><trkpt lat="40.6681547" lon="-3.7920105"><ele>871.3999999999999</ele><time>2026-04-10T09:27:09.002Z</time></trkpt><trkpt lat="40.6681784" lon="-3.7921409"><ele>871.1999999999999</ele><time>2026-04-10T09:27:10.002Z</time></trkpt><trkpt lat="40.6682078" lon="-3.7922769"><ele>871.0</ele><time>2026-04-10T09:27:11.002Z</time></trkpt><trkpt lat="40.6682374" lon="-3.792415"><ele>871.0</ele><time>2026-04-10T09:27:12.001Z</time></trkpt><trkpt lat="40.6682657" lon="-3.7925566"><ele>870.9999999999999</ele><time>2026-04-10T09:27:13.002Z</time></trkpt><trkpt lat="40.6682801" lon="-3.7926988"><ele>870.9999999999999</ele><time>2026-04-10T09:27:14.002Z</time></trkpt><trkpt lat="40.6682902" lon="-3.7928466"><ele>871.0</ele><time>2026-04-10T09:27:15.002Z</time></trkpt><trkpt lat="40.6683016" lon="-3.7929969"><ele>871.0</ele><time>2026-04-10T09:27:16.002Z</time></trkpt><trkpt lat="40.6683106" lon="-3.7931472"><ele>870.75</ele><time>2026-04-10T09:27:17.002Z</time></trkpt><trkpt lat="40.6683205" lon="-3.7932949"><ele>870.5</ele><time>2026-04-10T09:27:18.002Z</time></trkpt><trkpt lat="40.668335" lon="-3.7934442"><ele>870.25</ele><time>2026-04-10T09:27:19.002Z</time></trkpt><trkpt lat="40.6683542" lon="-3.7935914"><ele>870.0</ele><time>2026-04-10T09:27:20.002Z</time></trkpt><trkpt lat="40.668381" lon="-3.7937376"><ele>870.4</ele><time>2026-04-10T09:27:21.002Z</time></trkpt><trkpt lat="40.6684077" lon="-3.793879"><ele>870.8</ele><time>2026-04-10T09:27:22.002Z</time></trkpt><trkpt lat="40.6684314" lon="-3.7940154"><ele>871.2</ele><time>2026-04-10T09:27:23.002Z</time></trkpt><trkpt lat="40.668459" lon="-3.7941484"><ele>871.6</ele><time>2026-04-10T09:27:24.001Z</time></trkpt><trkpt lat="40.6684937" lon="-3.7942759"><ele>872.0</ele><time>2026-04-10T09:27:25.002Z</time></trkpt><trkpt lat="40.6685292" lon="-3.7944047"><ele>872.6</ele><time>2026-04-10T09:27:26.002Z</time></trkpt><trkpt lat="40.6685813" lon="-3.7945303"><ele>873.2</ele><time>2026-04-10T09:27:27.002Z</time></trkpt><trkpt lat="40.6686356" lon="-3.7946497"><ele>873.8</ele><time>2026-04-10T09:27:28.002Z</time></trkpt><trkpt lat="40.6686969" lon="-3.7947658"><ele>874.4</ele><time>2026-04-10T09:27:29.002Z</time></trkpt><trkpt lat="40.6687568" lon="-3.7948756"><ele>875.0</ele><time>2026-04-10T09:27:30.002Z</time></trkpt><trkpt lat="40.66882" lon="-3.7949886"><ele>875.6</ele><time>2026-04-10T09:27:31.002Z</time></trkpt><trkpt lat="40.6688836" lon="-3.7950954"><ele>876.2</ele><time>2026-04-10T09:27:32.002Z</time></trkpt><trkpt lat="40.6689428" lon="-3.7952118"><ele>876.8</ele><time>2026-04-10T09:27:33.002Z</time></trkpt><trkpt lat="40.6689928" lon="-3.7953349"><ele>877.4</ele><time>2026-04-10T09:27:34.002Z</time></trkpt><trkpt lat="40.669033" lon="-3.7954625"><ele>878.0</ele><time>2026-04-10T09:27:35.002Z</time></trkpt><trkpt lat="40.6690711" lon="-3.7955914"><ele>878.8</ele><time>2026-04-10T09:27:36.001Z</time></trkpt><trkpt lat="40.6691118" lon="-3.7957066"><ele>879.5999999999999</ele><time>2026-04-10T09:27:37.002Z</time></trkpt><trkpt lat="40.6691674" lon="-3.7958103"><ele>880.4000000000001</ele><time>2026-04-10T09:27:38.002Z</time></trkpt><trkpt lat="40.6692222" lon="-3.795908"><ele>881.2</ele><time>2026-04-10T09:27:39.001Z</time></trkpt><trkpt lat="40.6692666" lon="-3.7960051"><ele>882.0</ele><time>2026-04-10T09:27:40.002Z</time></trkpt><trkpt lat="40.6693006" lon="-3.796103"><ele>882.4000000000001</ele><time>2026-04-10T09:27:41.002Z</time></trkpt><trkpt lat="40.669335" lon="-3.7961936"><ele>882.8000000000001</ele><time>2026-04-10T09:27:42.002Z</time></trkpt><trkpt lat="40.6693702" lon="-3.7962912"><ele>883.2</ele><time>2026-04-10T09:27:43.002Z</time></trkpt><trkpt lat="40.6694047" lon="-3.7963991"><ele>883.6</ele><time>2026-04-10T09:27:44.002Z</time></trkpt><trkpt lat="40.6694436" lon="-3.7965188"><ele>884.0</ele><time>2026-04-10T09:27:45.002Z</time></trkpt><trkpt lat="40.6694734" lon="-3.7966502"><ele>885.2</ele><time>2026-04-10T09:27:46.002Z</time></trkpt><trkpt lat="40.6694997" lon="-3.7967859"><ele>886.4000000000001</ele><time>2026-04-10T09:27:47.002Z</time></trkpt><trkpt lat="40.6695173" lon="-3.7969191"><ele>887.6</ele><time>2026-04-10T09:27:48.002Z</time></trkpt><trkpt lat="40.6695295" lon="-3.797059"><ele>888.8</ele><time>2026-04-10T09:27:49.002Z</time></trkpt><trkpt lat="40.6695355" lon="-3.7971975"><ele>890.0</ele><time>2026-04-10T09:27:50.002Z</time></trkpt><trkpt lat="40.6695411" lon="-3.797337"><ele>891.0</ele><time>2026-04-10T09:27:51.002Z</time></trkpt><trkpt lat="40.6695487" lon="-3.7974711"><ele>892.0</ele><time>2026-04-10T09:27:52.002Z</time></trkpt><trkpt lat="40.6695545" lon="-3.797605"><ele>893.0</ele><time>2026-04-10T09:27:53.002Z</time></trkpt><trkpt lat="40.6695583" lon="-3.7977403"><ele>894.0</ele><time>2026-04-10T09:27:54.002Z</time></trkpt><trkpt lat="40.6695536" lon="-3.7978755"><ele>895.0</ele><time>2026-04-10T09:27:55.002Z</time></trkpt><trkpt lat="40.6695437" lon="-3.798018"><ele>895.6</ele><time>2026-04-10T09:27:56.002Z</time></trkpt><trkpt lat="40.6695431" lon="-3.7981643"><ele>896.2</ele><time>2026-04-10T09:27:57.002Z</time></trkpt><trkpt lat="40.6695521" lon="-3.7983177"><ele>896.8</ele><time>2026-04-10T09:27:58.002Z</time></trkpt><trkpt lat="40.6695616" lon="-3.7984639"><ele>897.4</ele><time>2026-04-10T09:27:59.002Z</time></trkpt><trkpt lat="40.6695655" lon="-3.7985887"><ele>898.0</ele><time>2026-04-10T09:28:00.002Z</time></trkpt><trkpt lat="40.6695826" lon="-3.798707"><ele>898.0</ele><time>2026-04-10T09:28:01.002Z</time></trkpt><trkpt lat="40.6695983" lon="-3.7988234"><ele>898.0</ele><time>2026-04-10T09:28:02.002Z</time></trkpt><trkpt lat="40.6696157" lon="-3.7989441"><ele>898.0</ele><time>2026-04-10T09:28:03.002Z</time></trkpt><trkpt lat="40.6696466" lon="-3.7990573"><ele>898.0</ele><time>2026-04-10T09:28:04.002Z</time></trkpt><trkpt lat="40.669686" lon="-3.7991633"><ele>898.0</ele><time>2026-04-10T09:28:05.002Z</time></trkpt><trkpt lat="40.6697174" lon="-3.7992722"><ele>897.9999999999999</ele><time>2026-04-10T09:28:06.002Z</time></trkpt><trkpt lat="40.6697362" lon="-3.7993761"><ele>898.0</ele><time>2026-04-10T09:28:07.002Z</time></trkpt><trkpt lat="40.669747" lon="-3.7994605"><ele>898.0</ele><time>2026-04-10T09:28:08.002Z</time></trkpt><trkpt lat="40.6697547" lon="-3.7995495"><ele>898.0</ele><time>2026-04-10T09:28:09.002Z</time></trkpt><trkpt lat="40.669772" lon="-3.7996483"><ele>897.9999999999999</ele><time>2026-04-10T09:28:10.001Z</time></trkpt><trkpt lat="40.669804" lon="-3.7997467"><ele>898.0</ele><time>2026-04-10T09:28:11.002Z</time></trkpt><trkpt lat="40.6698425" lon="-3.7998397"><ele>897.9999999999999</ele><time>2026-04-10T09:28:12.002Z</time></trkpt><trkpt lat="40.6698829" lon="-3.7999347"><ele>898.0</ele><time>2026-04-10T09:28:13.002Z</time></trkpt><trkpt lat="40.6699202" lon="-3.8000309"><ele>898.0</ele><time>2026-04-10T09:28:14.002Z</time></trkpt><trkpt lat="40.6699584" lon="-3.8001196"><ele>898.0</ele><time>2026-04-10T09:28:15.002Z</time></trkpt><trkpt lat="40.6699897" lon="-3.8001978"><ele>897.9999999999999</ele><time>2026-04-10T09:28:16.002Z</time></trkpt><trkpt lat="40.6700219" lon="-3.8002732"><ele>898.0</ele><time>2026-04-10T09:28:17.002Z</time></trkpt><trkpt lat="40.6700682" lon="-3.8004086"><ele>897.8333333333333</ele><time>2026-04-10T09:28:19.002Z</time></trkpt><trkpt lat="40.6701254" lon="-3.8004879"><ele>897.6666666666666</ele><time>2026-04-10T09:28:21.002Z</time></trkpt><trkpt lat="40.6701915" lon="-3.8005466"><ele>897.5</ele><time>2026-04-10T09:28:23.002Z</time></trkpt><trkpt lat="40.6702507" lon="-3.8006085"><ele>897.3333333333333</ele><time>2026-04-10T09:28:25.002Z</time></trkpt><trkpt lat="40.6703131" lon="-3.8006671"><ele>897.1666666666666</ele><time>2026-04-10T09:28:27.002Z</time></trkpt><trkpt lat="40.6703869" lon="-3.8007034"><ele>897.0</ele><time>2026-04-10T09:28:29.002Z</time></trkpt><trkpt lat="40.6704812" lon="-3.8007408"><ele>896.6</ele><time>2026-04-10T09:28:31.002Z</time></trkpt><trkpt lat="40.6705864" lon="-3.8007709"><ele>896.2</ele><time>2026-04-10T09:28:33.002Z</time></trkpt><trkpt lat="40.6706484" lon="-3.8008589"><ele>895.8</ele><time>2026-04-10T09:28:35.002Z</time></trkpt><trkpt lat="40.6706974" lon="-3.8010012"><ele>895.4</ele><time>2026-04-10T09:28:37.001Z</time></trkpt><trkpt lat="40.6707245" lon="-3.80109"><ele>895.0</ele><time>2026-04-10T09:28:38.002Z</time></trkpt><trkpt lat="40.6707476" lon="-3.8011817"><ele>894.3333333333333</ele><time>2026-04-10T09:28:39.002Z</time></trkpt><trkpt lat="40.670771" lon="-3.8012709"><ele>893.6666666666666</ele><time>2026-04-10T09:28:40.002Z</time></trkpt><trkpt lat="40.6707844" lon="-3.8013589"><ele>893.0</ele><time>2026-04-10T09:28:41.002Z</time></trkpt><trkpt lat="40.6707959" lon="-3.801445"><ele>892.3333333333333</ele><time>2026-04-10T09:28:42.002Z</time></trkpt><trkpt lat="40.6708212" lon="-3.8015986"><ele>891.6666666666666</ele><time>2026-04-10T09:28:44.002Z</time></trkpt><trkpt lat="40.6708518" lon="-3.8017571"><ele>891.0</ele><time>2026-04-10T09:28:46.002Z</time></trkpt><trkpt lat="40.6708752" lon="-3.8018434"><ele>890.5999999999999</ele><time>2026-04-10T09:28:47.001Z</time></trkpt><trkpt lat="40.6708973" lon="-3.8019262"><ele>890.1999999999999</ele><time>2026-04-10T09:28:48.002Z</time></trkpt><trkpt lat="40.6709483" lon="-3.8020708"><ele>889.8000000000001</ele><time>2026-04-10T09:28:50.002Z</time></trkpt><trkpt lat="40.6710184" lon="-3.8021644"><ele>889.4000000000001</ele><time>2026-04-10T09:28:52.002Z</time></trkpt><trkpt lat="40.671083" lon="-3.8022426"><ele>889.0</ele><time>2026-04-10T09:28:54.002Z</time></trkpt><trkpt lat="40.6711012" lon="-3.8023536"><ele>889.0</ele><time>2026-04-10T09:28:56.002Z</time></trkpt><trkpt lat="40.6710894" lon="-3.8024759"><ele>889.0000000000001</ele><time>2026-04-10T09:28:58.002Z</time></trkpt><trkpt lat="40.6711008" lon="-3.8026012"><ele>889.0000000000001</ele><time>2026-04-10T09:29:00.001Z</time></trkpt><trkpt lat="40.6711389" lon="-3.8027297"><ele>889.0</ele><time>2026-04-10T09:29:02.002Z</time></trkpt><trkpt lat="40.6711777" lon="-3.802882"><ele>889.0</ele><time>2026-04-10T09:29:04.002Z</time></trkpt><trkpt lat="40.6712001" lon="-3.8030146"><ele>888.0</ele><time>2026-04-10T09:29:06.002Z</time></trkpt><trkpt lat="40.6712187" lon="-3.8031053"><ele>887.0</ele><time>2026-04-10T09:29:08.002Z</time></trkpt><trkpt lat="40.6712693" lon="-3.8031591"><ele>886.0</ele><time>2026-04-10T09:29:10.002Z</time></trkpt><trkpt lat="40.6713405" lon="-3.803168"><ele>885.0</ele><time>2026-04-10T09:29:13.002Z</time></trkpt><trkpt lat="40.6714065" lon="-3.8032343"><ele>884.0</ele><time>2026-04-10T09:29:17.002Z</time></trkpt><trkpt lat="40.6714457" lon="-3.8033059"><ele>883.0</ele><time>2026-04-10T09:29:24.002Z</time></trkpt><trkpt lat="40.6715065" lon="-3.8033336"><ele>882.0</ele><time>2026-04-10T09:29:32.002Z</time></trkpt><trkpt lat="40.6715712" lon="-3.8033954"><ele>882.0</ele><time>2026-04-10T09:29:35.002Z</time></trkpt><trkpt lat="40.6716286" lon="-3.8034411"><ele>882.0</ele><time>2026-04-10T09:29:37.002Z</time></trkpt><trkpt lat="40.6716826" lon="-3.8034901"><ele>882.0</ele><time>2026-04-10T09:29:39.002Z</time></trkpt><trkpt lat="40.6717419" lon="-3.8035367"><ele>882.0</ele><time>2026-04-10T09:29:41.002Z</time></trkpt><trkpt lat="40.6718057" lon="-3.8035953"><ele>882.0</ele><time>2026-04-10T09:29:43.001Z</time></trkpt><trkpt lat="40.6718475" lon="-3.8036931"><ele>882.0</ele><time>2026-04-10T09:29:45.002Z</time></trkpt><trkpt lat="40.6718752" lon="-3.8037718"><ele>882.0</ele><time>2026-04-10T09:29:47.001Z</time></trkpt><trkpt lat="40.6719131" lon="-3.8038517"><ele>881.0</ele><time>2026-04-10T09:29:49.002Z</time></trkpt><trkpt lat="40.6719482" lon="-3.8039408"><ele>880.0</ele><time>2026-04-10T09:29:52.002Z</time></trkpt><trkpt lat="40.6719502" lon="-3.8040303"><ele>879.0</ele><time>2026-04-10T09:29:55.002Z</time></trkpt><trkpt lat="40.6720128" lon="-3.8040879"><ele>878.0</ele><time>2026-04-10T09:30:03.002Z</time></trkpt><trkpt lat="40.6720722" lon="-3.8041803"><ele>877.0</ele><time>2026-04-10T09:30:06.002Z</time></trkpt><trkpt lat="40.6721104" lon="-3.80429"><ele>876.0</ele><time>2026-04-10T09:30:08.002Z</time></trkpt><trkpt lat="40.6721532" lon="-3.8043749"><ele>875.0</ele><time>2026-04-10T09:30:10.002Z</time></trkpt><trkpt lat="40.672204" lon="-3.8044426"><ele>874.0</ele><time>2026-04-10T09:30:13.002Z</time></trkpt><trkpt lat="40.6722472" lon="-3.8045382"><ele>873.0</ele><time>2026-04-10T09:30:16.002Z</time></trkpt><trkpt lat="40.6722726" lon="-3.8046248"><ele>872.0</ele><time>2026-04-10T09:30:18.001Z</time></trkpt><trkpt lat="40.6723224" lon="-3.8047185"><ele>871.0</ele><time>2026-04-10T09:30:20.002Z</time></trkpt><trkpt lat="40.6723766" lon="-3.8048272"><ele>870.0</ele><time>2026-04-10T09:30:22.002Z</time></trkpt><trkpt lat="40.672403" lon="-3.8049245"><ele>870.0000000000001</ele><time>2026-04-10T09:30:24.002Z</time></trkpt><trkpt lat="40.6724354" lon="-3.8050008"><ele>870.0</ele><time>2026-04-10T09:30:26.002Z</time></trkpt><trkpt lat="40.6724708" lon="-3.8050799"><ele>870.0</ele><time>2026-04-10T09:30:29.002Z</time></trkpt><trkpt lat="40.672523" lon="-3.8051384"><ele>870.0</ele><time>2026-04-10T09:30:32.002Z</time></trkpt><trkpt lat="40.6725874" lon="-3.8052015"><ele>870.0</ele><time>2026-04-10T09:30:35.002Z</time></trkpt><trkpt lat="40.6726316" lon="-3.8052654"><ele>870.0000000000001</ele><time>2026-04-10T09:30:38.001Z</time></trkpt><trkpt lat="40.6726311" lon="-3.8053728"><ele>870.0</ele><time>2026-04-10T09:30:43.002Z</time></trkpt><trkpt lat="40.6726687" lon="-3.8054689"><ele>869.5714285714287</ele><time>2026-04-10T09:30:45.002Z</time></trkpt><trkpt lat="40.6726985" lon="-3.8055507"><ele>869.1428571428571</ele><time>2026-04-10T09:30:47.002Z</time></trkpt><trkpt lat="40.6727246" lon="-3.8056343"><ele>868.7142857142858</ele><time>2026-04-10T09:30:49.001Z</time></trkpt><trkpt lat="40.6727588" lon="-3.8057279"><ele>868.2857142857143</ele><time>2026-04-10T09:30:52.002Z</time></trkpt><trkpt lat="40.6728017" lon="-3.8058021"><ele>867.8571428571429</ele><time>2026-04-10T09:30:55.002Z</time></trkpt><trkpt lat="40.6728306" lon="-3.8058776"><ele>867.4285714285714</ele><time>2026-04-10T09:30:57.002Z</time></trkpt><trkpt lat="40.6728986" lon="-3.8059608"><ele>867.0</ele><time>2026-04-10T09:31:00.002Z</time></trkpt><trkpt lat="40.6729506" lon="-3.8060133"><ele>866.5714285714286</ele><time>2026-04-10T09:31:03.002Z</time></trkpt><trkpt lat="40.6730136" lon="-3.8060641"><ele>866.1428571428572</ele><time>2026-04-10T09:31:59.002Z</time></trkpt><trkpt lat="40.6730626" lon="-3.8061301"><ele>865.7142857142858</ele><time>2026-04-10T09:32:03.002Z</time></trkpt><trkpt lat="40.673111" lon="-3.8061833"><ele>865.2857142857142</ele><time>2026-04-10T09:32:15.002Z</time></trkpt><trkpt lat="40.6731631" lon="-3.8061071"><ele>864.8571428571429</ele><time>2026-04-10T09:32:20.002Z</time></trkpt><trkpt lat="40.673232" lon="-3.8060271"><ele>864.4285714285714</ele><time>2026-04-10T09:32:23.002Z</time></trkpt><trkpt lat="40.6732949" lon="-3.8059797"><ele>864.0</ele><time>2026-04-10T09:32:25.002Z</time></trkpt><trkpt lat="40.6733642" lon="-3.8060387"><ele>863.0</ele><time>2026-04-10T09:32:28.002Z</time></trkpt><trkpt lat="40.673415" lon="-3.8061193"><ele>862.0</ele><time>2026-04-10T09:32:30.002Z</time></trkpt><trkpt lat="40.6734579" lon="-3.8062066"><ele>861.0</ele><time>2026-04-10T09:32:32.002Z</time></trkpt><trkpt lat="40.6735037" lon="-3.8062791"><ele>860.0</ele><time>2026-04-10T09:32:35.002Z</time></trkpt><trkpt lat="40.6735841" lon="-3.8062908"><ele>859.0</ele><time>2026-04-10T09:32:38.002Z</time></trkpt><trkpt lat="40.673652" lon="-3.806293"><ele>858.0</ele><time>2026-04-10T09:32:40.002Z</time></trkpt><trkpt lat="40.6737215" lon="-3.8063327"><ele>857.0</ele><time>2026-04-10T09:32:42.002Z</time></trkpt><trkpt lat="40.6738158" lon="-3.8063712"><ele>856.0</ele><time>2026-04-10T09:32:45.002Z</time></trkpt><trkpt lat="40.6738852" lon="-3.8063988"><ele>855.0</ele><time>2026-04-10T09:32:48.002Z</time></trkpt><trkpt lat="40.6739487" lon="-3.8064242"><ele>854.0</ele><time>2026-04-10T09:32:51.002Z</time></trkpt><trkpt lat="40.6740252" lon="-3.8064943"><ele>853.0</ele><time>2026-04-10T09:32:54.002Z</time></trkpt><trkpt lat="40.674086" lon="-3.8065481"><ele>852.0</ele><time>2026-04-10T09:32:56.002Z</time></trkpt><trkpt lat="40.6741411" lon="-3.8065893"><ele>852.0</ele><time>2026-04-10T09:32:58.002Z</time></trkpt><trkpt lat="40.6742073" lon="-3.8066489"><ele>852.0</ele><time>2026-04-10T09:33:01.001Z</time></trkpt><trkpt lat="40.6742633" lon="-3.8067375"><ele>852.0</ele><time>2026-04-10T09:33:04.001Z</time></trkpt><trkpt lat="40.6743297" lon="-3.8067866"><ele>852.0</ele><time>2026-04-10T09:33:07.002Z</time></trkpt><trkpt lat="40.6743943" lon="-3.8068165"><ele>852.0</ele><time>2026-04-10T09:33:10.002Z</time></trkpt><trkpt lat="40.6744506" lon="-3.8068866"><ele>852.0</ele><time>2026-04-10T09:33:13.002Z</time></trkpt><trkpt lat="40.6745033" lon="-3.8069372"><ele>850.5</ele><time>2026-04-10T09:33:15.002Z</time></trkpt><trkpt lat="40.6745807" lon="-3.8069725"><ele>849.0</ele><time>2026-04-10T09:33:17.002Z</time></trkpt><trkpt lat="40.6746402" lon="-3.8070139"><ele>847.5</ele><time>2026-04-10T09:33:19.002Z</time></trkpt><trkpt lat="40.6746958" lon="-3.8070958"><ele>846.0</ele><time>2026-04-10T09:33:22.002Z</time></trkpt><trkpt lat="40.6747491" lon="-3.8071699"><ele>844.5</ele><time>2026-04-10T09:33:26.002Z</time></trkpt><trkpt lat="40.6748133" lon="-3.8071975"><ele>843.0</ele><time>2026-04-10T09:33:29.002Z</time></trkpt><trkpt lat="40.6748981" lon="-3.8072449"><ele>843.0</ele><time>2026-04-10T09:33:32.002Z</time></trkpt><trkpt lat="40.6749538" lon="-3.8072887"><ele>843.0</ele><time>2026-04-10T09:33:35.002Z</time></trkpt><trkpt lat="40.6749994" lon="-3.8073512"><ele>843.0</ele><time>2026-04-10T09:33:57.002Z</time></trkpt><trkpt lat="40.6750608" lon="-3.8073783"><ele>843.0</ele><time>2026-04-10T09:34:11.001Z</time></trkpt><trkpt lat="40.6750986" lon="-3.8074543"><ele>843.0</ele><time>2026-04-10T09:34:22.002Z</time></trkpt><trkpt lat="40.6751626" lon="-3.807503"><ele>843.0</ele><time>2026-04-10T09:34:28.002Z</time></trkpt><trkpt lat="40.6752875" lon="-3.8075893"><ele>842.7142857142857</ele><time>2026-04-10T09:35:31.001Z</time></trkpt><trkpt lat="40.6753606" lon="-3.807603"><ele>842.4285714285713</ele><time>2026-04-10T09:35:34.002Z</time></trkpt><trkpt lat="40.6754329" lon="-3.8075879"><ele>842.1428571428571</ele><time>2026-04-10T09:35:37.002Z</time></trkpt><trkpt lat="40.6755192" lon="-3.8075997"><ele>841.8571428571429</ele><time>2026-04-10T09:35:40.002Z</time></trkpt><trkpt lat="40.6755835" lon="-3.8076076"><ele>841.5714285714286</ele><time>2026-04-10T09:35:42.002Z</time></trkpt><trkpt lat="40.6756446" lon="-3.8076382"><ele>841.2857142857143</ele><time>2026-04-10T09:35:44.002Z</time></trkpt><trkpt lat="40.6757079" lon="-3.8076918"><ele>841.0</ele><time>2026-04-10T09:35:46.002Z</time></trkpt><trkpt lat="40.6757601" lon="-3.8077471"><ele>840.4999999999999</ele><time>2026-04-10T09:35:48.002Z</time></trkpt><trkpt lat="40.6758023" lon="-3.8078267"><ele>840.0</ele><time>2026-04-10T09:35:50.002Z</time></trkpt><trkpt lat="40.6758299" lon="-3.8079147"><ele>839.5</ele><time>2026-04-10T09:35:52.002Z</time></trkpt><trkpt lat="40.6758756" lon="-3.8080019"><ele>839.0</ele><time>2026-04-10T09:35:55.002Z</time></trkpt><trkpt lat="40.6759943" lon="-3.8080405"><ele>838.4999999999999</ele><time>2026-04-10T09:36:06.001Z</time></trkpt><trkpt lat="40.6760751" lon="-3.8080832"><ele>838.0</ele><time>2026-04-10T09:36:08.002Z</time></trkpt><trkpt lat="40.676116" lon="-3.8081646"><ele>838.1666666666666</ele><time>2026-04-10T09:36:10.002Z</time></trkpt><trkpt lat="40.6761349" lon="-3.8082783"><ele>838.3333333333333</ele><time>2026-04-10T09:36:13.002Z</time></trkpt><trkpt lat="40.676176" lon="-3.8083953"><ele>838.5</ele><time>2026-04-10T09:36:16.002Z</time></trkpt><trkpt lat="40.6762173" lon="-3.8084618"><ele>838.6666666666667</ele><time>2026-04-10T09:36:18.002Z</time></trkpt><trkpt lat="40.6762576" lon="-3.8085257"><ele>838.8333333333334</ele><time>2026-04-10T09:36:20.002Z</time></trkpt><trkpt lat="40.6763228" lon="-3.808586"><ele>839.0</ele><time>2026-04-10T09:36:23.002Z</time></trkpt><trkpt lat="40.6763808" lon="-3.8086438"><ele>839.0000000000001</ele><time>2026-04-10T09:36:27.001Z</time></trkpt><trkpt lat="40.6764467" lon="-3.8087433"><ele>839.0</ele><time>2026-04-10T09:36:29.002Z</time></trkpt><trkpt lat="40.676514" lon="-3.8088557"><ele>839.0</ele><time>2026-04-10T09:36:31.002Z</time></trkpt><trkpt lat="40.6765599" lon="-3.8089391"><ele>839.0</ele><time>2026-04-10T09:36:33.002Z</time></trkpt><trkpt lat="40.676619" lon="-3.8090137"><ele>839.0000000000001</ele><time>2026-04-10T09:36:36.002Z</time></trkpt><trkpt lat="40.6766828" lon="-3.8090457"><ele>839.0</ele><time>2026-04-10T09:36:38.002Z</time></trkpt><trkpt lat="40.6767554" lon="-3.8090634"><ele>839.0</ele><time>2026-04-10T09:36:40.002Z</time></trkpt><trkpt lat="40.6768243" lon="-3.8091397"><ele>839.0</ele><time>2026-04-10T09:36:42.002Z</time></trkpt><trkpt lat="40.6768973" lon="-3.8092648"><ele>839.0</ele><time>2026-04-10T09:36:44.002Z</time></trkpt><trkpt lat="40.6769246" lon="-3.8093443"><ele>839.0</ele><time>2026-04-10T09:36:45.002Z</time></trkpt><trkpt lat="40.6769752" lon="-3.8094871"><ele>839.0</ele><time>2026-04-10T09:36:47.002Z</time></trkpt><trkpt lat="40.6770207" lon="-3.8095697"><ele>840.8000000000001</ele><time>2026-04-10T09:36:49.002Z</time></trkpt><trkpt lat="40.6770625" lon="-3.8096375"><ele>842.6</ele><time>2026-04-10T09:36:51.002Z</time></trkpt><trkpt lat="40.6771005" lon="-3.8097659"><ele>844.4</ele><time>2026-04-10T09:36:53.002Z</time></trkpt><trkpt lat="40.6771675" lon="-3.8098779"><ele>846.2</ele><time>2026-04-10T09:36:55.002Z</time></trkpt><trkpt lat="40.6772334" lon="-3.8100109"><ele>848.0</ele><time>2026-04-10T09:36:57.002Z</time></trkpt><trkpt lat="40.6772917" lon="-3.8101393"><ele>847.5000000000001</ele><time>2026-04-10T09:36:59.002Z</time></trkpt><trkpt lat="40.6773343" lon="-3.8102508"><ele>847.0</ele><time>2026-04-10T09:37:01.002Z</time></trkpt><trkpt lat="40.6773843" lon="-3.8103397"><ele>846.5</ele><time>2026-04-10T09:37:03.002Z</time></trkpt><trkpt lat="40.6774004" lon="-3.8104508"><ele>846.0</ele><time>2026-04-10T09:37:05.001Z</time></trkpt><trkpt lat="40.6773728" lon="-3.8105605"><ele>845.5000000000001</ele><time>2026-04-10T09:37:07.002Z</time></trkpt><trkpt lat="40.6773241" lon="-3.8106604"><ele>845.0</ele><time>2026-04-10T09:37:09.002Z</time></trkpt><trkpt lat="40.6774065" lon="-3.8106991"><ele>845.0000000000001</ele><time>2026-04-10T09:37:11.002Z</time></trkpt><trkpt lat="40.6775066" lon="-3.8106961"><ele>845.0</ele><time>2026-04-10T09:37:13.002Z</time></trkpt><trkpt lat="40.6775686" lon="-3.8107298"><ele>845.0</ele><time>2026-04-10T09:37:15.002Z</time></trkpt><trkpt lat="40.6775776" lon="-3.8108168"><ele>845.0</ele><time>2026-04-10T09:37:18.002Z</time></trkpt><trkpt lat="40.6775605" lon="-3.8109063"><ele>845.0000000000001</ele><time>2026-04-10T09:37:20.002Z</time></trkpt><trkpt lat="40.6775628" lon="-3.8110086"><ele>845.0</ele><time>2026-04-10T09:37:22.002Z</time></trkpt><trkpt lat="40.6775811" lon="-3.8111121"><ele>844.2</ele><time>2026-04-10T09:37:24.002Z</time></trkpt><trkpt lat="40.6776369" lon="-3.8112067"><ele>843.4</ele><time>2026-04-10T09:37:26.002Z</time></trkpt><trkpt lat="40.6776691" lon="-3.8113163"><ele>842.5999999999999</ele><time>2026-04-10T09:37:28.002Z</time></trkpt><trkpt lat="40.6777038" lon="-3.8114545"><ele>841.8</ele><time>2026-04-10T09:37:30.002Z</time></trkpt><trkpt lat="40.6777146" lon="-3.8115864"><ele>841.0</ele><time>2026-04-10T09:37:32.002Z</time></trkpt><trkpt lat="40.6777296" lon="-3.8117192"><ele>841.9999999999999</ele><time>2026-04-10T09:37:34.002Z</time></trkpt><trkpt lat="40.677781" lon="-3.8118076"><ele>843.0</ele><time>2026-04-10T09:37:36.002Z</time></trkpt><trkpt lat="40.6778387" lon="-3.8118681"><ele>844.0</ele><time>2026-04-10T09:37:38.002Z</time></trkpt><trkpt lat="40.6778797" lon="-3.8119396"><ele>845.0</ele><time>2026-04-10T09:37:40.002Z</time></trkpt><trkpt lat="40.6779112" lon="-3.8120518"><ele>845.9999999999999</ele><time>2026-04-10T09:37:43.002Z</time></trkpt><trkpt lat="40.6779268" lon="-3.812157"><ele>847.0</ele><time>2026-04-10T09:37:46.001Z</time></trkpt><trkpt lat="40.6779778" lon="-3.8122401"><ele>847.0</ele><time>2026-04-10T09:37:49.002Z</time></trkpt><trkpt lat="40.678064" lon="-3.8122184"><ele>847.0</ele><time>2026-04-10T09:37:52.002Z</time></trkpt><trkpt lat="40.6781308" lon="-3.8121851"><ele>847.0</ele><time>2026-04-10T09:37:55.002Z</time></trkpt><trkpt lat="40.6781073" lon="-3.8123879"><ele>847.0</ele><time>2026-04-10T09:38:53.002Z</time></trkpt><trkpt lat="40.6781559" lon="-3.8124639"><ele>847.0</ele><time>2026-04-10T09:38:57.002Z</time></trkpt><trkpt lat="40.6781862" lon="-3.8125411"><ele>847.0</ele><time>2026-04-10T09:39:00.002Z</time></trkpt><trkpt lat="40.6782357" lon="-3.8126038"><ele>847.0</ele><time>2026-04-10T09:39:07.002Z</time></trkpt><trkpt lat="40.6783039" lon="-3.8126574"><ele>847.0</ele><time>2026-04-10T09:39:11.002Z</time></trkpt><trkpt lat="40.6783597" lon="-3.8127299"><ele>847.0</ele><time>2026-04-10T09:39:14.002Z</time></trkpt><trkpt lat="40.6784126" lon="-3.8128161"><ele>847.0</ele><time>2026-04-10T09:39:17.002Z</time></trkpt><trkpt lat="40.6784344" lon="-3.8129003"><ele>847.0</ele><time>2026-04-10T09:39:22.002Z</time></trkpt><trkpt lat="40.6784851" lon="-3.8129511"><ele>847.0</ele><time>2026-04-10T09:41:12.002Z</time></trkpt><trkpt lat="40.6785447" lon="-3.8129941"><ele>848.0</ele><time>2026-04-10T09:41:39.002Z</time></trkpt><trkpt lat="40.6785929" lon="-3.8130604"><ele>849.0</ele><time>2026-04-10T09:42:19.001Z</time></trkpt><trkpt lat="40.6786432" lon="-3.8131374"><ele>850.0</ele><time>2026-04-10T09:42:21.001Z</time></trkpt><trkpt lat="40.6787032" lon="-3.8131763"><ele>851.0</ele><time>2026-04-10T09:42:25.001Z</time></trkpt><trkpt lat="40.6787555" lon="-3.8132232"><ele>852.0</ele><time>2026-04-10T09:42:28.002Z</time></trkpt><trkpt lat="40.6788153" lon="-3.8133194"><ele>853.0</ele><time>2026-04-10T09:42:31.002Z</time></trkpt><trkpt lat="40.6788666" lon="-3.813385"><ele>854.0</ele><time>2026-04-10T09:42:33.002Z</time></trkpt><trkpt lat="40.6789335" lon="-3.8134482"><ele>855.5714285714286</ele><time>2026-04-10T09:42:36.002Z</time></trkpt><trkpt lat="40.6789861" lon="-3.8135161"><ele>857.1428571428571</ele><time>2026-04-10T09:42:40.001Z</time></trkpt><trkpt lat="40.6790103" lon="-3.8135963"><ele>858.7142857142858</ele><time>2026-04-10T09:42:43.002Z</time></trkpt><trkpt lat="40.6790207" lon="-3.8136878"><ele>860.2857142857142</ele><time>2026-04-10T09:42:45.002Z</time></trkpt><trkpt lat="40.6790301" lon="-3.8137931"><ele>861.8571428571429</ele><time>2026-04-10T09:42:47.002Z</time></trkpt><trkpt lat="40.6790505" lon="-3.8138947"><ele>863.4285714285714</ele><time>2026-04-10T09:42:50.002Z</time></trkpt><trkpt lat="40.6790745" lon="-3.8139875"><ele>865.0</ele><time>2026-04-10T09:42:52.002Z</time></trkpt><trkpt lat="40.6791047" lon="-3.8141394"><ele>864.9999999999999</ele><time>2026-04-10T09:42:54.002Z</time></trkpt><trkpt lat="40.6791341" lon="-3.8142396"><ele>865.0</ele><time>2026-04-10T09:42:56.002Z</time></trkpt><trkpt lat="40.6791769" lon="-3.8143414"><ele>865.0</ele><time>2026-04-10T09:42:59.002Z</time></trkpt><trkpt lat="40.6791865" lon="-3.8144458"><ele>865.0</ele><time>2026-04-10T09:43:02.002Z</time></trkpt><trkpt lat="40.6792093" lon="-3.8145279"><ele>864.9999999999999</ele><time>2026-04-10T09:43:04.001Z</time></trkpt><trkpt lat="40.6792819" lon="-3.8146029"><ele>865.0</ele><time>2026-04-10T09:43:07.002Z</time></trkpt><trkpt lat="40.6793413" lon="-3.8146705"><ele>865.2</ele><time>2026-04-10T09:43:10.002Z</time></trkpt><trkpt lat="40.6793842" lon="-3.8147579"><ele>865.4</ele><time>2026-04-10T09:44:55.001Z</time></trkpt><trkpt lat="40.6794701" lon="-3.8148375"><ele>865.5999999999999</ele><time>2026-04-10T09:44:57.002Z</time></trkpt><trkpt lat="40.6795525" lon="-3.8149633"><ele>865.8</ele><time>2026-04-10T09:44:59.002Z</time></trkpt><trkpt lat="40.6796193" lon="-3.8150601"><ele>866.0</ele><time>2026-04-10T09:45:01.002Z</time></trkpt><trkpt lat="40.6796637" lon="-3.8151923"><ele>866.3333333333334</ele><time>2026-04-10T09:45:03.002Z</time></trkpt><trkpt lat="40.6796894" lon="-3.8153176"><ele>866.6666666666667</ele><time>2026-04-10T09:45:05.002Z</time></trkpt><trkpt lat="40.6797061" lon="-3.8154127"><ele>867.0</ele><time>2026-04-10T09:45:06.001Z</time></trkpt><trkpt lat="40.6797219" lon="-3.8155137"><ele>867.3333333333333</ele><time>2026-04-10T09:45:07.002Z</time></trkpt><trkpt lat="40.6797412" lon="-3.8156048"><ele>867.6666666666666</ele><time>2026-04-10T09:45:08.002Z</time></trkpt><trkpt lat="40.6797651" lon="-3.8156832"><ele>868.0</ele><time>2026-04-10T09:45:09.001Z</time></trkpt><trkpt lat="40.6798144" lon="-3.8158024"><ele>868.0</ele><time>2026-04-10T09:45:11.002Z</time></trkpt><trkpt lat="40.6798573" lon="-3.8159286"><ele>868.0</ele><time>2026-04-10T09:45:13.002Z</time></trkpt><trkpt lat="40.6798974" lon="-3.8160338"><ele>868.0</ele><time>2026-04-10T09:45:15.002Z</time></trkpt><trkpt lat="40.679945" lon="-3.8161872"><ele>868.0</ele><time>2026-04-10T09:45:17.002Z</time></trkpt><trkpt lat="40.6799743" lon="-3.8162816"><ele>868.0</ele><time>2026-04-10T09:45:18.002Z</time></trkpt><trkpt lat="40.6800127" lon="-3.8163822"><ele>868.0</ele><time>2026-04-10T09:45:19.001Z</time></trkpt><trkpt lat="40.6800556" lon="-3.8164844"><ele>868.0</ele><time>2026-04-10T09:45:20.002Z</time></trkpt><trkpt lat="40.6800949" lon="-3.8165896"><ele>868.0</ele><time>2026-04-10T09:45:21.002Z</time></trkpt><trkpt lat="40.6801323" lon="-3.8166986"><ele>868.0</ele><time>2026-04-10T09:45:22.002Z</time></trkpt><trkpt lat="40.680172" lon="-3.8168085"><ele>868.0</ele><time>2026-04-10T09:45:23.002Z</time></trkpt><trkpt lat="40.6802155" lon="-3.8169296"><ele>867.9999999999999</ele><time>2026-04-10T09:45:24.002Z</time></trkpt><trkpt lat="40.6802527" lon="-3.8170499"><ele>868.0</ele><time>2026-04-10T09:45:25.002Z</time></trkpt><trkpt lat="40.6802751" lon="-3.8171622"><ele>868.0</ele><time>2026-04-10T09:45:26.002Z</time></trkpt><trkpt lat="40.6802897" lon="-3.8172658"><ele>868.0</ele><time>2026-04-10T09:45:27.002Z</time></trkpt><trkpt lat="40.6803094" lon="-3.8173575"><ele>867.9999999999999</ele><time>2026-04-10T09:45:28.002Z</time></trkpt><trkpt lat="40.6803316" lon="-3.81744"><ele>868.0</ele><time>2026-04-10T09:45:29.002Z</time></trkpt><trkpt lat="40.6803571" lon="-3.817522"><ele>867.9999999999999</ele><time>2026-04-10T09:45:30.002Z</time></trkpt><trkpt lat="40.6803924" lon="-3.817602"><ele>868.0</ele><time>2026-04-10T09:45:31.002Z</time></trkpt><trkpt lat="40.6804387" lon="-3.8176826"><ele>868.0</ele><time>2026-04-10T09:45:32.002Z</time></trkpt><trkpt lat="40.6804877" lon="-3.8177696"><ele>868.0</ele><time>2026-04-10T09:45:33.002Z</time></trkpt><trkpt lat="40.6805429" lon="-3.8178596"><ele>867.9999999999999</ele><time>2026-04-10T09:45:34.002Z</time></trkpt><trkpt lat="40.6805993" lon="-3.8179525"><ele>868.0</ele><time>2026-04-10T09:45:35.002Z</time></trkpt><trkpt lat="40.6806626" lon="-3.8180343"><ele>867.8333333333333</ele><time>2026-04-10T09:45:36.002Z</time></trkpt><trkpt lat="40.6807302" lon="-3.818105"><ele>867.6666666666666</ele><time>2026-04-10T09:45:37.002Z</time></trkpt><trkpt lat="40.6808105" lon="-3.8181571"><ele>867.5</ele><time>2026-04-10T09:45:38.002Z</time></trkpt><trkpt lat="40.6808905" lon="-3.8181961"><ele>867.3333333333333</ele><time>2026-04-10T09:45:39.002Z</time></trkpt><trkpt lat="40.6809734" lon="-3.8182246"><ele>867.1666666666666</ele><time>2026-04-10T09:45:40.001Z</time></trkpt><trkpt lat="40.6810593" lon="-3.8182459"><ele>867.0</ele><time>2026-04-10T09:45:41.002Z</time></trkpt><trkpt lat="40.6811437" lon="-3.8182667"><ele>866.8333333333334</ele><time>2026-04-10T09:45:42.002Z</time></trkpt><trkpt lat="40.681226" lon="-3.8182847"><ele>866.6666666666667</ele><time>2026-04-10T09:45:43.002Z</time></trkpt><trkpt lat="40.6813067" lon="-3.818304"><ele>866.5</ele><time>2026-04-10T09:45:44.002Z</time></trkpt><trkpt lat="40.6813901" lon="-3.8183214"><ele>866.3333333333334</ele><time>2026-04-10T09:45:45.002Z</time></trkpt><trkpt lat="40.6814775" lon="-3.8183415"><ele>866.1666666666667</ele><time>2026-04-10T09:45:46.002Z</time></trkpt><trkpt lat="40.681561" lon="-3.8183699"><ele>866.0</ele><time>2026-04-10T09:45:47.002Z</time></trkpt><trkpt lat="40.6816496" lon="-3.8183973"><ele>866.0000000000001</ele><time>2026-04-10T09:45:48.002Z</time></trkpt><trkpt lat="40.681734" lon="-3.8184295"><ele>866.0</ele><time>2026-04-10T09:45:49.001Z</time></trkpt><trkpt lat="40.6818187" lon="-3.8184506"><ele>866.0</ele><time>2026-04-10T09:45:50.002Z</time></trkpt><trkpt lat="40.6819062" lon="-3.8184653"><ele>866.0</ele><time>2026-04-10T09:45:51.002Z</time></trkpt><trkpt lat="40.68199" lon="-3.8184636"><ele>866.0000000000001</ele><time>2026-04-10T09:45:52.002Z</time></trkpt><trkpt lat="40.6820709" lon="-3.8184497"><ele>866.0</ele><time>2026-04-10T09:45:53.002Z</time></trkpt><trkpt lat="40.6821483" lon="-3.8184295"><ele>866.3333333333334</ele><time>2026-04-10T09:45:54.002Z</time></trkpt><trkpt lat="40.6822298" lon="-3.8184252"><ele>866.6666666666667</ele><time>2026-04-10T09:45:55.002Z</time></trkpt><trkpt lat="40.6823122" lon="-3.8184297"><ele>867.0</ele><time>2026-04-10T09:45:56.002Z</time></trkpt><trkpt lat="40.6823919" lon="-3.8184415"><ele>867.3333333333333</ele><time>2026-04-10T09:45:57.002Z</time></trkpt><trkpt lat="40.6824602" lon="-3.8184569"><ele>867.6666666666666</ele><time>2026-04-10T09:45:58.001Z</time></trkpt><trkpt lat="40.6825231" lon="-3.8184852"><ele>868.0</ele><time>2026-04-10T09:45:59.002Z</time></trkpt><trkpt lat="40.6825939" lon="-3.8185136"><ele>867.9999999999999</ele><time>2026-04-10T09:46:00.001Z</time></trkpt><trkpt lat="40.6826627" lon="-3.8185358"><ele>868.0</ele><time>2026-04-10T09:46:01.002Z</time></trkpt><trkpt lat="40.6827346" lon="-3.8185536"><ele>868.0</ele><time>2026-04-10T09:46:02.002Z</time></trkpt><trkpt lat="40.6828146" lon="-3.8185746"><ele>868.0</ele><time>2026-04-10T09:46:03.001Z</time></trkpt><trkpt lat="40.6829038" lon="-3.8186014"><ele>867.9999999999999</ele><time>2026-04-10T09:46:04.002Z</time></trkpt><trkpt lat="40.6829894" lon="-3.8186236"><ele>868.0</ele><time>2026-04-10T09:46:05.002Z</time></trkpt><trkpt lat="40.6830734" lon="-3.8186515"><ele>867.8</ele><time>2026-04-10T09:46:06.002Z</time></trkpt><trkpt lat="40.6831568" lon="-3.8186828"><ele>867.5999999999999</ele><time>2026-04-10T09:46:07.002Z</time></trkpt><trkpt lat="40.6832316" lon="-3.8187152"><ele>867.4000000000001</ele><time>2026-04-10T09:46:08.002Z</time></trkpt><trkpt lat="40.6832902" lon="-3.8187472"><ele>867.2</ele><time>2026-04-10T09:46:09.002Z</time></trkpt><trkpt lat="40.6833909" lon="-3.8188171"><ele>867.0</ele><time>2026-04-10T09:46:11.002Z</time></trkpt><trkpt lat="40.6835021" lon="-3.8189071"><ele>867.0</ele><time>2026-04-10T09:46:13.002Z</time></trkpt><trkpt lat="40.6835718" lon="-3.8189704"><ele>867.0</ele><time>2026-04-10T09:46:14.001Z</time></trkpt><trkpt lat="40.683646" lon="-3.81904"><ele>867.0</ele><time>2026-04-10T09:46:15.002Z</time></trkpt><trkpt lat="40.6837097" lon="-3.8191057"><ele>867.0</ele><time>2026-04-10T09:46:16.002Z</time></trkpt><trkpt lat="40.683766" lon="-3.8191621"><ele>867.0</ele><time>2026-04-10T09:46:17.002Z</time></trkpt><trkpt lat="40.6838171" lon="-3.8192144"><ele>867.0</ele><time>2026-04-10T09:46:18.002Z</time></trkpt><trkpt lat="40.6838823" lon="-3.8193456"><ele>867.0</ele><time>2026-04-10T09:46:20.002Z</time></trkpt><trkpt lat="40.6839127" lon="-3.819433"><ele>867.0</ele><time>2026-04-10T09:46:21.002Z</time></trkpt><trkpt lat="40.683952" lon="-3.819525"><ele>867.0</ele><time>2026-04-10T09:46:22.002Z</time></trkpt><trkpt lat="40.6839966" lon="-3.8196143"><ele>867.0</ele><time>2026-04-10T09:46:23.001Z</time></trkpt><trkpt lat="40.6840343" lon="-3.8196985"><ele>867.0</ele><time>2026-04-10T09:46:24.002Z</time></trkpt><trkpt lat="40.6840556" lon="-3.8198447"><ele>867.0</ele><time>2026-04-10T09:46:26.002Z</time></trkpt><trkpt lat="40.6840585" lon="-3.8199633"><ele>867.0</ele><time>2026-04-10T09:46:28.002Z</time></trkpt><trkpt lat="40.6840844" lon="-3.8200867"><ele>867.0</ele><time>2026-04-10T09:46:30.002Z</time></trkpt><trkpt lat="40.6841374" lon="-3.8201944"><ele>867.0</ele><time>2026-04-10T09:46:32.002Z</time></trkpt><trkpt lat="40.6842045" lon="-3.820311"><ele>867.0</ele><time>2026-04-10T09:46:34.002Z</time></trkpt><trkpt lat="40.6842847" lon="-3.8204135"><ele>867.0</ele><time>2026-04-10T09:46:36.002Z</time></trkpt><trkpt lat="40.684342" lon="-3.8205265"><ele>866.8333333333334</ele><time>2026-04-10T09:46:38.001Z</time></trkpt><trkpt lat="40.6844049" lon="-3.8206231"><ele>866.6666666666667</ele><time>2026-04-10T09:46:40.002Z</time></trkpt><trkpt lat="40.6844518" lon="-3.8206871"><ele>866.5</ele><time>2026-04-10T09:46:41.002Z</time></trkpt><trkpt lat="40.6845015" lon="-3.8207492"><ele>866.3333333333334</ele><time>2026-04-10T09:46:42.002Z</time></trkpt><trkpt lat="40.684588" lon="-3.8208547"><ele>866.1666666666667</ele><time>2026-04-10T09:46:44.001Z</time></trkpt><trkpt lat="40.6846432" lon="-3.8209479"><ele>866.0</ele><time>2026-04-10T09:46:46.001Z</time></trkpt><trkpt lat="40.684702" lon="-3.8210638"><ele>864.4</ele><time>2026-04-10T09:46:48.002Z</time></trkpt><trkpt lat="40.6847708" lon="-3.8211882"><ele>862.8</ele><time>2026-04-10T09:46:50.001Z</time></trkpt><trkpt lat="40.6848452" lon="-3.8212976"><ele>861.1999999999999</ele><time>2026-04-10T09:46:52.002Z</time></trkpt><trkpt lat="40.684944" lon="-3.8213899"><ele>859.5999999999999</ele><time>2026-04-10T09:46:54.002Z</time></trkpt><trkpt lat="40.6849888" lon="-3.8214496"><ele>858.0</ele><time>2026-04-10T09:46:55.002Z</time></trkpt><trkpt lat="40.6850509" lon="-3.821549"><ele>858.0</ele><time>2026-04-10T09:46:57.002Z</time></trkpt><trkpt lat="40.685031" lon="-3.8216531"><ele>858.0</ele><time>2026-04-10T09:46:59.002Z</time></trkpt><trkpt lat="40.6849551" lon="-3.8217384"><ele>858.0</ele><time>2026-04-10T09:47:01.002Z</time></trkpt><trkpt lat="40.6849051" lon="-3.8218765"><ele>858.0</ele><time>2026-04-10T09:47:03.002Z</time></trkpt><trkpt lat="40.6849025" lon="-3.8219691"><ele>858.0</ele><time>2026-04-10T09:47:04.002Z</time></trkpt><trkpt lat="40.6849025" lon="-3.8220596"><ele>858.0</ele><time>2026-04-10T09:47:05.002Z</time></trkpt><trkpt lat="40.6849057" lon="-3.8221448"><ele>857.0</ele><time>2026-04-10T09:47:06.002Z</time></trkpt><trkpt lat="40.6849139" lon="-3.8222878"><ele>856.0</ele><time>2026-04-10T09:47:08.002Z</time></trkpt><trkpt lat="40.6849525" lon="-3.8224027"><ele>855.0</ele><time>2026-04-10T09:47:10.002Z</time></trkpt><trkpt lat="40.6849985" lon="-3.8224849"><ele>854.0</ele><time>2026-04-10T09:47:12.002Z</time></trkpt><trkpt lat="40.6850677" lon="-3.8225534"><ele>853.0</ele><time>2026-04-10T09:47:14.002Z</time></trkpt><trkpt lat="40.685168" lon="-3.8226079"><ele>851.8</ele><time>2026-04-10T09:47:16.002Z</time></trkpt><trkpt lat="40.6852728" lon="-3.8226908"><ele>850.5999999999999</ele><time>2026-04-10T09:47:18.002Z</time></trkpt><trkpt lat="40.6853594" lon="-3.822813"><ele>849.4000000000001</ele><time>2026-04-10T09:47:20.002Z</time></trkpt><trkpt lat="40.6853977" lon="-3.8228953"><ele>848.2</ele><time>2026-04-10T09:47:21.002Z</time></trkpt><trkpt lat="40.6854225" lon="-3.822979"><ele>847.0</ele><time>2026-04-10T09:47:22.002Z</time></trkpt><trkpt lat="40.68545" lon="-3.8230616"><ele>846.9999999999999</ele><time>2026-04-10T09:47:23.002Z</time></trkpt><trkpt lat="40.6854848" lon="-3.8231454"><ele>847.0</ele><time>2026-04-10T09:47:24.002Z</time></trkpt><trkpt lat="40.6855387" lon="-3.8232155"><ele>847.0</ele><time>2026-04-10T09:47:25.002Z</time></trkpt><trkpt lat="40.6855929" lon="-3.8232646"><ele>847.0</ele><time>2026-04-10T09:47:26.002Z</time></trkpt><trkpt lat="40.68569" lon="-3.8233109"><ele>846.9999999999999</ele><time>2026-04-10T09:47:28.002Z</time></trkpt><trkpt lat="40.6858026" lon="-3.823331"><ele>847.0</ele><time>2026-04-10T09:47:30.001Z</time></trkpt><trkpt lat="40.6859126" lon="-3.8233121"><ele>846.9999999999999</ele><time>2026-04-10T09:47:32.002Z</time></trkpt><trkpt lat="40.6860074" lon="-3.8233169"><ele>847.0</ele><time>2026-04-10T09:47:34.002Z</time></trkpt><trkpt lat="40.6860733" lon="-3.8233578"><ele>847.0</ele><time>2026-04-10T09:47:36.002Z</time></trkpt><trkpt lat="40.6861057" lon="-3.8234555"><ele>847.0</ele><time>2026-04-10T09:47:38.002Z</time></trkpt><trkpt lat="40.6861416" lon="-3.8235555"><ele>846.9999999999999</ele><time>2026-04-10T09:47:40.002Z</time></trkpt><trkpt lat="40.6861826" lon="-3.8236472"><ele>847.0</ele><time>2026-04-10T09:47:42.002Z</time></trkpt><trkpt lat="40.6862254" lon="-3.8237379"><ele>847.8</ele><time>2026-04-10T09:47:44.001Z</time></trkpt><trkpt lat="40.6862771" lon="-3.8238171"><ele>848.6</ele><time>2026-04-10T09:47:46.002Z</time></trkpt><trkpt lat="40.6863707" lon="-3.8239078"><ele>849.4</ele><time>2026-04-10T09:47:48.002Z</time></trkpt><trkpt lat="40.6864" lon="-3.8240121"><ele>850.1999999999999</ele><time>2026-04-10T09:47:50.002Z</time></trkpt><trkpt lat="40.6864042" lon="-3.8241445"><ele>851.0</ele><time>2026-04-10T09:47:52.002Z</time></trkpt><trkpt lat="40.6864329" lon="-3.8242837"><ele>852.5000000000001</ele><time>2026-04-10T09:47:54.002Z</time></trkpt><trkpt lat="40.6864451" lon="-3.8243937"><ele>854.0</ele><time>2026-04-10T09:47:56.001Z</time></trkpt><trkpt lat="40.6864624" lon="-3.8245018"><ele>855.5</ele><time>2026-04-10T09:47:58.002Z</time></trkpt><trkpt lat="40.6865024" lon="-3.8246134"><ele>857.0</ele><time>2026-04-10T09:48:00.001Z</time></trkpt><trkpt lat="40.6865647" lon="-3.8246803"><ele>858.5000000000001</ele><time>2026-04-10T09:48:02.002Z</time></trkpt><trkpt lat="40.6866395" lon="-3.8246922"><ele>860.0</ele><time>2026-04-10T09:48:04.002Z</time></trkpt><trkpt lat="40.6866991" lon="-3.8246647"><ele>860.0</ele><time>2026-04-10T09:48:06.002Z</time></trkpt><trkpt lat="40.6867771" lon="-3.8246445"><ele>860.0</ele><time>2026-04-10T09:48:08.002Z</time></trkpt><trkpt lat="40.6868707" lon="-3.8246156"><ele>860.0</ele><time>2026-04-10T09:48:10.002Z</time></trkpt><trkpt lat="40.6869703" lon="-3.824555"><ele>860.0</ele><time>2026-04-10T09:48:12.002Z</time></trkpt><trkpt lat="40.6870297" lon="-3.8245187"><ele>860.0</ele><time>2026-04-10T09:48:13.002Z</time></trkpt><trkpt lat="40.6871296" lon="-3.8245268"><ele>860.0</ele><time>2026-04-10T09:48:15.002Z</time></trkpt><trkpt lat="40.6872455" lon="-3.8245885"><ele>860.0</ele><time>2026-04-10T09:48:17.002Z</time></trkpt><trkpt lat="40.6873237" lon="-3.8246299"><ele>860.0</ele><time>2026-04-10T09:48:18.001Z</time></trkpt><trkpt lat="40.6874091" lon="-3.824673"><ele>860.0</ele><time>2026-04-10T09:48:19.002Z</time></trkpt><trkpt lat="40.6874926" lon="-3.8247317"><ele>860.0</ele><time>2026-04-10T09:48:20.002Z</time></trkpt><trkpt lat="40.6875621" lon="-3.8248037"><ele>860.0</ele><time>2026-04-10T09:48:21.002Z</time></trkpt><trkpt lat="40.6876226" lon="-3.8248807"><ele>860.0</ele><time>2026-04-10T09:48:22.002Z</time></trkpt><trkpt lat="40.6876823" lon="-3.8249672"><ele>860.0</ele><time>2026-04-10T09:48:23.002Z</time></trkpt><trkpt lat="40.6877421" lon="-3.825063"><ele>860.0</ele><time>2026-04-10T09:48:24.002Z</time></trkpt><trkpt lat="40.6878099" lon="-3.8251662"><ele>860.0</ele><time>2026-04-10T09:48:25.002Z</time></trkpt><trkpt lat="40.6878774" lon="-3.8252797"><ele>861.4</ele><time>2026-04-10T09:48:26.002Z</time></trkpt><trkpt lat="40.6879377" lon="-3.8253958"><ele>862.8</ele><time>2026-04-10T09:48:27.002Z</time></trkpt><trkpt lat="40.6879969" lon="-3.825509"><ele>864.2</ele><time>2026-04-10T09:48:28.002Z</time></trkpt><trkpt lat="40.6880511" lon="-3.8256153"><ele>865.6</ele><time>2026-04-10T09:48:29.002Z</time></trkpt><trkpt lat="40.6881072" lon="-3.8257189"><ele>867.0</ele><time>2026-04-10T09:48:30.002Z</time></trkpt><trkpt lat="40.6881648" lon="-3.825816"><ele>867.0</ele><time>2026-04-10T09:48:31.002Z</time></trkpt><trkpt lat="40.6882257" lon="-3.825914"><ele>867.0</ele><time>2026-04-10T09:48:32.002Z</time></trkpt><trkpt lat="40.6882978" lon="-3.8260233"><ele>867.0</ele><time>2026-04-10T09:48:33.001Z</time></trkpt><trkpt lat="40.6883848" lon="-3.8261451"><ele>867.0</ele><time>2026-04-10T09:48:34.002Z</time></trkpt><trkpt lat="40.6884811" lon="-3.8262603"><ele>867.75</ele><time>2026-04-10T09:48:35.002Z</time></trkpt><trkpt lat="40.6885737" lon="-3.8263701"><ele>868.5</ele><time>2026-04-10T09:48:36.002Z</time></trkpt><trkpt lat="40.6886752" lon="-3.82647"><ele>869.25</ele><time>2026-04-10T09:48:37.002Z</time></trkpt><trkpt lat="40.6887768" lon="-3.8265693"><ele>870.0</ele><time>2026-04-10T09:48:38.002Z</time></trkpt><trkpt lat="40.688873" lon="-3.8266742"><ele>870.25</ele><time>2026-04-10T09:48:39.002Z</time></trkpt><trkpt lat="40.6889737" lon="-3.8267895"><ele>870.5</ele><time>2026-04-10T09:48:40.002Z</time></trkpt><trkpt lat="40.6890733" lon="-3.8269161"><ele>870.75</ele><time>2026-04-10T09:48:41.002Z</time></trkpt><trkpt lat="40.6891678" lon="-3.8270457"><ele>871.0</ele><time>2026-04-10T09:48:42.001Z</time></trkpt><trkpt lat="40.6892498" lon="-3.8271678"><ele>871.75</ele><time>2026-04-10T09:48:43.002Z</time></trkpt><trkpt lat="40.6893131" lon="-3.8272857"><ele>872.5</ele><time>2026-04-10T09:48:44.002Z</time></trkpt><trkpt lat="40.6893626" lon="-3.8274165"><ele>873.25</ele><time>2026-04-10T09:48:45.002Z</time></trkpt><trkpt lat="40.6894058" lon="-3.8275654"><ele>874.0</ele><time>2026-04-10T09:48:46.002Z</time></trkpt><trkpt lat="40.689447" lon="-3.8277315"><ele>874.0</ele><time>2026-04-10T09:48:47.002Z</time></trkpt><trkpt lat="40.6894898" lon="-3.8279048"><ele>874.0</ele><time>2026-04-10T09:48:48.002Z</time></trkpt><trkpt lat="40.689535" lon="-3.8280754"><ele>874.0</ele><time>2026-04-10T09:48:49.002Z</time></trkpt><trkpt lat="40.6895825" lon="-3.8282408"><ele>874.0</ele><time>2026-04-10T09:48:50.001Z</time></trkpt><trkpt lat="40.6896311" lon="-3.8283976"><ele>874.25</ele><time>2026-04-10T09:48:51.002Z</time></trkpt><trkpt lat="40.6896811" lon="-3.8285546"><ele>874.5</ele><time>2026-04-10T09:48:52.002Z</time></trkpt><trkpt lat="40.6897408" lon="-3.8287162"><ele>874.75</ele><time>2026-04-10T09:48:53.002Z</time></trkpt><trkpt lat="40.6898131" lon="-3.8288819"><ele>875.0</ele><time>2026-04-10T09:48:54.002Z</time></trkpt><trkpt lat="40.6898834" lon="-3.8290524"><ele>875.0</ele><time>2026-04-10T09:48:55.002Z</time></trkpt><trkpt lat="40.6899485" lon="-3.8292183"><ele>875.0</ele><time>2026-04-10T09:48:56.002Z</time></trkpt><trkpt lat="40.6900108" lon="-3.8293714"><ele>875.0</ele><time>2026-04-10T09:48:57.001Z</time></trkpt><trkpt lat="40.6900765" lon="-3.8295168"><ele>875.0</ele><time>2026-04-10T09:48:58.001Z</time></trkpt><trkpt lat="40.6901509" lon="-3.829643"><ele>875.75</ele><time>2026-04-10T09:48:59.002Z</time></trkpt><trkpt lat="40.6902308" lon="-3.829761"><ele>876.5</ele><time>2026-04-10T09:49:00.002Z</time></trkpt><trkpt lat="40.6903102" lon="-3.8298938"><ele>877.25</ele><time>2026-04-10T09:49:01.002Z</time></trkpt><trkpt lat="40.6903859" lon="-3.8300335"><ele>878.0</ele><time>2026-04-10T09:49:02.002Z</time></trkpt><trkpt lat="40.6904608" lon="-3.8301891"><ele>879.0</ele><time>2026-04-10T09:49:03.002Z</time></trkpt><trkpt lat="40.6905343" lon="-3.8303405"><ele>880.0</ele><time>2026-04-10T09:49:04.002Z</time></trkpt><trkpt lat="40.6906044" lon="-3.8304831"><ele>881.0</ele><time>2026-04-10T09:49:05.002Z</time></trkpt><trkpt lat="40.690679" lon="-3.8306184"><ele>882.0</ele><time>2026-04-10T09:49:06.002Z</time></trkpt><trkpt lat="40.6907436" lon="-3.8307547"><ele>882.0</ele><time>2026-04-10T09:49:07.002Z</time></trkpt><trkpt lat="40.6907981" lon="-3.830897"><ele>882.0</ele><time>2026-04-10T09:49:08.001Z</time></trkpt><trkpt lat="40.6908571" lon="-3.8310462"><ele>882.0</ele><time>2026-04-10T09:49:09.002Z</time></trkpt><trkpt lat="40.6909144" lon="-3.8312001"><ele>882.0</ele><time>2026-04-10T09:49:10.002Z</time></trkpt><trkpt lat="40.6909719" lon="-3.8313549"><ele>881.75</ele><time>2026-04-10T09:49:11.002Z</time></trkpt><trkpt lat="40.6910294" lon="-3.8315225"><ele>881.5</ele><time>2026-04-10T09:49:12.002Z</time></trkpt><trkpt lat="40.6910865" lon="-3.8316989"><ele>881.25</ele><time>2026-04-10T09:49:13.001Z</time></trkpt><trkpt lat="40.6911395" lon="-3.83188"><ele>881.0</ele><time>2026-04-10T09:49:14.002Z</time></trkpt><trkpt lat="40.6911916" lon="-3.8320675"><ele>881.5</ele><time>2026-04-10T09:49:15.001Z</time></trkpt><trkpt lat="40.691239" lon="-3.8322501"><ele>882.0</ele><time>2026-04-10T09:49:16.001Z</time></trkpt><trkpt lat="40.6912821" lon="-3.8324207"><ele>882.5</ele><time>2026-04-10T09:49:17.001Z</time></trkpt><trkpt lat="40.691328" lon="-3.8325816"><ele>883.0</ele><time>2026-04-10T09:49:18.002Z</time></trkpt><trkpt lat="40.6913864" lon="-3.8327448"><ele>883.0</ele><time>2026-04-10T09:49:19.002Z</time></trkpt><trkpt lat="40.6914553" lon="-3.8329128"><ele>883.0</ele><time>2026-04-10T09:49:20.002Z</time></trkpt><trkpt lat="40.6915363" lon="-3.8330858"><ele>883.0</ele><time>2026-04-10T09:49:21.002Z</time></trkpt><trkpt lat="40.6916257" lon="-3.8332566"><ele>883.0</ele><time>2026-04-10T09:49:22.002Z</time></trkpt><trkpt lat="40.6917116" lon="-3.8334254"><ele>883.0</ele><time>2026-04-10T09:49:23.002Z</time></trkpt><trkpt lat="40.6918007" lon="-3.8335839"><ele>883.0</ele><time>2026-04-10T09:49:24.001Z</time></trkpt><trkpt lat="40.6918825" lon="-3.8337351"><ele>883.0</ele><time>2026-04-10T09:49:25.002Z</time></trkpt><trkpt lat="40.6919637" lon="-3.8338728"><ele>884.25</ele><time>2026-04-10T09:49:26.002Z</time></trkpt><trkpt lat="40.6920566" lon="-3.8340025"><ele>885.5</ele><time>2026-04-10T09:49:27.001Z</time></trkpt><trkpt lat="40.6921601" lon="-3.8341331"><ele>886.75</ele><time>2026-04-10T09:49:28.002Z</time></trkpt><trkpt lat="40.6922645" lon="-3.8342675"><ele>888.0</ele><time>2026-04-10T09:49:29.002Z</time></trkpt><trkpt lat="40.6923654" lon="-3.8343966"><ele>889.75</ele><time>2026-04-10T09:49:30.002Z</time></trkpt><trkpt lat="40.6924536" lon="-3.8345245"><ele>891.5</ele><time>2026-04-10T09:49:31.002Z</time></trkpt><trkpt lat="40.6925396" lon="-3.8346547"><ele>893.25</ele><time>2026-04-10T09:49:32.002Z</time></trkpt><trkpt lat="40.6926209" lon="-3.8347922"><ele>895.0</ele><time>2026-04-10T09:49:33.002Z</time></trkpt><trkpt lat="40.6926995" lon="-3.8349317"><ele>895.0</ele><time>2026-04-10T09:49:34.002Z</time></trkpt><trkpt lat="40.6927533" lon="-3.8350655"><ele>895.0</ele><time>2026-04-10T09:49:35.002Z</time></trkpt><trkpt lat="40.6928012" lon="-3.835195"><ele>895.0</ele><time>2026-04-10T09:49:36.002Z</time></trkpt><trkpt lat="40.6928447" lon="-3.8353343"><ele>895.0</ele><time>2026-04-10T09:49:37.002Z</time></trkpt><trkpt lat="40.6928928" lon="-3.8354822"><ele>896.75</ele><time>2026-04-10T09:49:38.002Z</time></trkpt><trkpt lat="40.6929331" lon="-3.8356251"><ele>898.5</ele><time>2026-04-10T09:49:39.002Z</time></trkpt><trkpt lat="40.6929887" lon="-3.8357832"><ele>900.25</ele><time>2026-04-10T09:49:40.002Z</time></trkpt><trkpt lat="40.6930443" lon="-3.8359384"><ele>902.0</ele><time>2026-04-10T09:49:41.002Z</time></trkpt><trkpt lat="40.6930977" lon="-3.8361038"><ele>903.0</ele><time>2026-04-10T09:49:42.002Z</time></trkpt><trkpt lat="40.6931497" lon="-3.8362785"><ele>904.0</ele><time>2026-04-10T09:49:43.002Z</time></trkpt><trkpt lat="40.6932016" lon="-3.8364507"><ele>905.0</ele><time>2026-04-10T09:49:44.002Z</time></trkpt><trkpt lat="40.6932518" lon="-3.8366117"><ele>906.0</ele><time>2026-04-10T09:49:45.001Z</time></trkpt><trkpt lat="40.6933033" lon="-3.8367776"><ele>906.5</ele><time>2026-04-10T09:49:46.002Z</time></trkpt><trkpt lat="40.693358" lon="-3.8369427"><ele>907.0</ele><time>2026-04-10T09:49:47.002Z</time></trkpt><trkpt lat="40.6934054" lon="-3.8371019"><ele>907.5</ele><time>2026-04-10T09:49:48.002Z</time></trkpt><trkpt lat="40.6934479" lon="-3.8372518"><ele>908.0</ele><time>2026-04-10T09:49:49.002Z</time></trkpt><trkpt lat="40.6934913" lon="-3.8374075"><ele>908.0</ele><time>2026-04-10T09:49:50.002Z</time></trkpt><trkpt lat="40.6935386" lon="-3.8375604"><ele>908.0</ele><time>2026-04-10T09:49:51.002Z</time></trkpt><trkpt lat="40.6935963" lon="-3.8377149"><ele>908.0</ele><time>2026-04-10T09:49:52.002Z</time></trkpt><trkpt lat="40.6936647" lon="-3.8378645"><ele>908.0</ele><time>2026-04-10T09:49:53.002Z</time></trkpt><trkpt lat="40.6937341" lon="-3.8380103"><ele>908.75</ele><time>2026-04-10T09:49:54.002Z</time></trkpt><trkpt lat="40.693799" lon="-3.8381538"><ele>909.5</ele><time>2026-04-10T09:49:55.001Z</time></trkpt><trkpt lat="40.6938583" lon="-3.8383007"><ele>910.25</ele><time>2026-04-10T09:49:56.002Z</time></trkpt><trkpt lat="40.6939145" lon="-3.838456"><ele>911.0</ele><time>2026-04-10T09:49:57.002Z</time></trkpt><trkpt lat="40.6939634" lon="-3.83862"><ele>912.0</ele><time>2026-04-10T09:49:58.001Z</time></trkpt><trkpt lat="40.6940046" lon="-3.8387977"><ele>913.0</ele><time>2026-04-10T09:49:59.002Z</time></trkpt><trkpt lat="40.6940458" lon="-3.8389811"><ele>914.0</ele><time>2026-04-10T09:50:00.002Z</time></trkpt><trkpt lat="40.6940792" lon="-3.8391734"><ele>915.0</ele><time>2026-04-10T09:50:01.002Z</time></trkpt><trkpt lat="40.6940969" lon="-3.8393677"><ele>916.0</ele><time>2026-04-10T09:50:02.002Z</time></trkpt><trkpt lat="40.6941073" lon="-3.839564"><ele>917.0</ele><time>2026-04-10T09:50:03.002Z</time></trkpt><trkpt lat="40.6941269" lon="-3.8397659"><ele>918.0</ele><time>2026-04-10T09:50:04.002Z</time></trkpt><trkpt lat="40.6941602" lon="-3.8399675"><ele>918.0</ele><time>2026-04-10T09:50:05.002Z</time></trkpt><trkpt lat="40.6942098" lon="-3.8401698"><ele>918.0</ele><time>2026-04-10T09:50:06.002Z</time></trkpt><trkpt lat="40.6942616" lon="-3.8403756"><ele>918.0</ele><time>2026-04-10T09:50:07.002Z</time></trkpt><trkpt lat="40.6943285" lon="-3.8405848"><ele>918.0</ele><time>2026-04-10T09:50:08.002Z</time></trkpt><trkpt lat="40.6944075" lon="-3.8407926"><ele>918.0</ele><time>2026-04-10T09:50:09.002Z</time></trkpt><trkpt lat="40.6945144" lon="-3.840984"><ele>918.0</ele><time>2026-04-10T09:50:10.002Z</time></trkpt><trkpt lat="40.6946202" lon="-3.8411804"><ele>919.6666666666667</ele><time>2026-04-10T09:50:11.002Z</time></trkpt><trkpt lat="40.694718" lon="-3.8413707"><ele>921.3333333333334</ele><time>2026-04-10T09:50:12.002Z</time></trkpt><trkpt lat="40.6948092" lon="-3.841571"><ele>923.0</ele><time>2026-04-10T09:50:13.002Z</time></trkpt><trkpt lat="40.6948918" lon="-3.8417773"><ele>923.6666666666667</ele><time>2026-04-10T09:50:14.002Z</time></trkpt><trkpt lat="40.6949695" lon="-3.8419923"><ele>924.3333333333333</ele><time>2026-04-10T09:50:15.002Z</time></trkpt><trkpt lat="40.6950463" lon="-3.8422099"><ele>925.0</ele><time>2026-04-10T09:50:16.002Z</time></trkpt><trkpt lat="40.6951172" lon="-3.8424306"><ele>926.0</ele><time>2026-04-10T09:50:17.002Z</time></trkpt><trkpt lat="40.6951809" lon="-3.8426444"><ele>927.0</ele><time>2026-04-10T09:50:18.002Z</time></trkpt><trkpt lat="40.6952393" lon="-3.8428508"><ele>928.0</ele><time>2026-04-10T09:50:19.002Z</time></trkpt><trkpt lat="40.6952938" lon="-3.8430542"><ele>928.3333333333333</ele><time>2026-04-10T09:50:20.002Z</time></trkpt><trkpt lat="40.6953404" lon="-3.8432585"><ele>928.6666666666667</ele><time>2026-04-10T09:50:21.002Z</time></trkpt><trkpt lat="40.6953819" lon="-3.8434543"><ele>929.0</ele><time>2026-04-10T09:50:22.002Z</time></trkpt><trkpt lat="40.6954146" lon="-3.8436418"><ele>930.0</ele><time>2026-04-10T09:50:23.002Z</time></trkpt><trkpt lat="40.695445" lon="-3.843819"><ele>931.0</ele><time>2026-04-10T09:50:24.002Z</time></trkpt><trkpt lat="40.695476" lon="-3.8439939"><ele>932.0</ele><time>2026-04-10T09:50:25.001Z</time></trkpt><trkpt lat="40.6955029" lon="-3.8441649"><ele>933.0</ele><time>2026-04-10T09:50:26.002Z</time></trkpt><trkpt lat="40.6955367" lon="-3.8443289"><ele>934.0</ele><time>2026-04-10T09:50:27.002Z</time></trkpt><trkpt lat="40.6955703" lon="-3.8444875"><ele>935.0</ele><time>2026-04-10T09:50:28.002Z</time></trkpt><trkpt lat="40.6956086" lon="-3.8446438"><ele>936.0</ele><time>2026-04-10T09:50:29.002Z</time></trkpt><trkpt lat="40.6956503" lon="-3.8448039"><ele>937.0</ele><time>2026-04-10T09:50:30.002Z</time></trkpt><trkpt lat="40.6956957" lon="-3.8449762"><ele>937.75</ele><time>2026-04-10T09:50:31.002Z</time></trkpt><trkpt lat="40.6957395" lon="-3.8451558"><ele>938.5</ele><time>2026-04-10T09:50:32.002Z</time></trkpt><trkpt lat="40.6957853" lon="-3.8453373"><ele>939.25</ele><time>2026-04-10T09:50:33.002Z</time></trkpt><trkpt lat="40.6958327" lon="-3.8455112"><ele>940.0</ele><time>2026-04-10T09:50:34.002Z</time></trkpt><trkpt lat="40.6958772" lon="-3.8456762"><ele>940.0</ele><time>2026-04-10T09:50:35.002Z</time></trkpt><trkpt lat="40.6959183" lon="-3.8458336"><ele>940.0</ele><time>2026-04-10T09:50:36.002Z</time></trkpt><trkpt lat="40.6959568" lon="-3.845993"><ele>940.0</ele><time>2026-04-10T09:50:37.002Z</time></trkpt><trkpt lat="40.6959863" lon="-3.8461482"><ele>940.0</ele><time>2026-04-10T09:50:38.002Z</time></trkpt><trkpt lat="40.6960093" lon="-3.8462954"><ele>940.2</ele><time>2026-04-10T09:50:39.002Z</time></trkpt><trkpt lat="40.6960276" lon="-3.8464352"><ele>940.4</ele><time>2026-04-10T09:50:40.002Z</time></trkpt><trkpt lat="40.6960361" lon="-3.8465767"><ele>940.5999999999999</ele><time>2026-04-10T09:50:41.002Z</time></trkpt><trkpt lat="40.6960428" lon="-3.8467222"><ele>940.8</ele><time>2026-04-10T09:50:42.001Z</time></trkpt><trkpt lat="40.6960512" lon="-3.8468744"><ele>941.0</ele><time>2026-04-10T09:50:43.002Z</time></trkpt><trkpt lat="40.6960595" lon="-3.8470406"><ele>941.0</ele><time>2026-04-10T09:50:44.002Z</time></trkpt><trkpt lat="40.6960646" lon="-3.8472195"><ele>941.0</ele><time>2026-04-10T09:50:45.002Z</time></trkpt><trkpt lat="40.6960668" lon="-3.8474146"><ele>941.0</ele><time>2026-04-10T09:50:46.002Z</time></trkpt><trkpt lat="40.6960684" lon="-3.8476204"><ele>941.0</ele><time>2026-04-10T09:50:47.002Z</time></trkpt><trkpt lat="40.696067" lon="-3.8478369"><ele>942.3333333333334</ele><time>2026-04-10T09:50:48.002Z</time></trkpt><trkpt lat="40.696066" lon="-3.8480584"><ele>943.6666666666667</ele><time>2026-04-10T09:50:49.002Z</time></trkpt><trkpt lat="40.6960663" lon="-3.8482873"><ele>945.0</ele><time>2026-04-10T09:50:50.002Z</time></trkpt><trkpt lat="40.6960721" lon="-3.8485027"><ele>945.3333333333333</ele><time>2026-04-10T09:50:51.002Z</time></trkpt><trkpt lat="40.6960755" lon="-3.8487082"><ele>945.6666666666666</ele><time>2026-04-10T09:50:52.002Z</time></trkpt><trkpt lat="40.6960794" lon="-3.8489062"><ele>946.0</ele><time>2026-04-10T09:50:53.002Z</time></trkpt><trkpt lat="40.6960813" lon="-3.8491066"><ele>947.0</ele><time>2026-04-10T09:50:54.002Z</time></trkpt><trkpt lat="40.6960814" lon="-3.8493061"><ele>948.0</ele><time>2026-04-10T09:50:55.001Z</time></trkpt><trkpt lat="40.6960831" lon="-3.8495046"><ele>949.0</ele><time>2026-04-10T09:50:56.002Z</time></trkpt><trkpt lat="40.6960816" lon="-3.849707"><ele>949.0</ele><time>2026-04-10T09:50:57.002Z</time></trkpt><trkpt lat="40.6960833" lon="-3.8499099"><ele>949.0</ele><time>2026-04-10T09:50:58.002Z</time></trkpt><trkpt lat="40.6960866" lon="-3.8501105"><ele>949.0</ele><time>2026-04-10T09:50:59.002Z</time></trkpt><trkpt lat="40.6960936" lon="-3.8503109"><ele>950.6666666666666</ele><time>2026-04-10T09:51:00.002Z</time></trkpt><trkpt lat="40.6961003" lon="-3.8505117"><ele>952.3333333333333</ele><time>2026-04-10T09:51:01.002Z</time></trkpt><trkpt lat="40.6961028" lon="-3.8507117"><ele>954.0</ele><time>2026-04-10T09:51:02.002Z</time></trkpt><trkpt lat="40.6961075" lon="-3.8509087"><ele>954.75</ele><time>2026-04-10T09:51:03.002Z</time></trkpt><trkpt lat="40.696116" lon="-3.8511005"><ele>955.5</ele><time>2026-04-10T09:51:04.002Z</time></trkpt><trkpt lat="40.6961209" lon="-3.8512914"><ele>956.25</ele><time>2026-04-10T09:51:05.002Z</time></trkpt><trkpt lat="40.6961174" lon="-3.8514788"><ele>957.0</ele><time>2026-04-10T09:51:06.002Z</time></trkpt><trkpt lat="40.6961157" lon="-3.8516656"><ele>957.5</ele><time>2026-04-10T09:51:07.002Z</time></trkpt><trkpt lat="40.6961179" lon="-3.8518493"><ele>958.0</ele><time>2026-04-10T09:51:08.002Z</time></trkpt><trkpt lat="40.696118" lon="-3.8520349"><ele>958.5</ele><time>2026-04-10T09:51:09.002Z</time></trkpt><trkpt lat="40.6961166" lon="-3.8522216"><ele>959.0</ele><time>2026-04-10T09:51:10.001Z</time></trkpt><trkpt lat="40.6961192" lon="-3.8524115"><ele>959.0</ele><time>2026-04-10T09:51:11.002Z</time></trkpt><trkpt lat="40.6961193" lon="-3.8526053"><ele>959.0</ele><time>2026-04-10T09:51:12.002Z</time></trkpt><trkpt lat="40.696118" lon="-3.8528078"><ele>959.0</ele><time>2026-04-10T09:51:13.002Z</time></trkpt><trkpt lat="40.6961189" lon="-3.8530088"><ele>959.75</ele><time>2026-04-10T09:51:14.002Z</time></trkpt><trkpt lat="40.696115" lon="-3.8532041"><ele>960.5</ele><time>2026-04-10T09:51:15.002Z</time></trkpt><trkpt lat="40.6961198" lon="-3.853392"><ele>961.25</ele><time>2026-04-10T09:51:16.001Z</time></trkpt><trkpt lat="40.6961256" lon="-3.8535878"><ele>962.0</ele><time>2026-04-10T09:51:17.001Z</time></trkpt><trkpt lat="40.6961296" lon="-3.8537763"><ele>962.5</ele><time>2026-04-10T09:51:18.002Z</time></trkpt><trkpt lat="40.6961358" lon="-3.8539707"><ele>963.0</ele><time>2026-04-10T09:51:19.002Z</time></trkpt><trkpt lat="40.6961409" lon="-3.8541677"><ele>963.5</ele><time>2026-04-10T09:51:20.001Z</time></trkpt><trkpt lat="40.696142" lon="-3.8543594"><ele>964.0</ele><time>2026-04-10T09:51:21.002Z</time></trkpt><trkpt lat="40.6961467" lon="-3.8545497"><ele>964.0</ele><time>2026-04-10T09:51:22.002Z</time></trkpt><trkpt lat="40.6961493" lon="-3.8547314"><ele>964.0</ele><time>2026-04-10T09:51:23.002Z</time></trkpt><trkpt lat="40.6961518" lon="-3.8549058"><ele>964.0</ele><time>2026-04-10T09:51:24.002Z</time></trkpt><trkpt lat="40.6961558" lon="-3.8550725"><ele>964.0</ele><time>2026-04-10T09:51:25.001Z</time></trkpt><trkpt lat="40.6961649" lon="-3.8552357"><ele>964.5</ele><time>2026-04-10T09:51:26.002Z</time></trkpt><trkpt lat="40.6961793" lon="-3.855388"><ele>965.0</ele><time>2026-04-10T09:51:27.002Z</time></trkpt><trkpt lat="40.6962023" lon="-3.8555351"><ele>965.5</ele><time>2026-04-10T09:51:28.002Z</time></trkpt><trkpt lat="40.6962364" lon="-3.855684"><ele>966.0</ele><time>2026-04-10T09:51:29.002Z</time></trkpt><trkpt lat="40.6962834" lon="-3.8558217"><ele>966.0</ele><time>2026-04-10T09:51:30.002Z</time></trkpt><trkpt lat="40.6963479" lon="-3.8559502"><ele>966.0</ele><time>2026-04-10T09:51:31.001Z</time></trkpt><trkpt lat="40.6964264" lon="-3.856065"><ele>966.0</ele><time>2026-04-10T09:51:32.002Z</time></trkpt><trkpt lat="40.6965055" lon="-3.8561692"><ele>966.0</ele><time>2026-04-10T09:51:33.002Z</time></trkpt><trkpt lat="40.6965823" lon="-3.8562776"><ele>965.5</ele><time>2026-04-10T09:51:34.002Z</time></trkpt><trkpt lat="40.6966508" lon="-3.8563945"><ele>965.0</ele><time>2026-04-10T09:51:35.002Z</time></trkpt><trkpt lat="40.6967143" lon="-3.8565267"><ele>964.5</ele><time>2026-04-10T09:51:36.002Z</time></trkpt><trkpt lat="40.6967813" lon="-3.856662"><ele>964.0</ele><time>2026-04-10T09:51:37.002Z</time></trkpt><trkpt lat="40.6968557" lon="-3.8567934"><ele>964.75</ele><time>2026-04-10T09:51:38.002Z</time></trkpt><trkpt lat="40.696933" lon="-3.8569264"><ele>965.5</ele><time>2026-04-10T09:51:39.002Z</time></trkpt><trkpt lat="40.6970109" lon="-3.8570578"><ele>966.25</ele><time>2026-04-10T09:51:40.001Z</time></trkpt><trkpt lat="40.6970889" lon="-3.8571871"><ele>967.0</ele><time>2026-04-10T09:51:41.002Z</time></trkpt><trkpt lat="40.6971661" lon="-3.8573228"><ele>967.0</ele><time>2026-04-10T09:51:42.002Z</time></trkpt><trkpt lat="40.6972427" lon="-3.8574674"><ele>967.0</ele><time>2026-04-10T09:51:43.002Z</time></trkpt><trkpt lat="40.6973277" lon="-3.8576087"><ele>967.0</ele><time>2026-04-10T09:51:44.002Z</time></trkpt><trkpt lat="40.6974155" lon="-3.8577548"><ele>967.0</ele><time>2026-04-10T09:51:45.002Z</time></trkpt><trkpt lat="40.6975003" lon="-3.857909"><ele>966.5</ele><time>2026-04-10T09:51:46.002Z</time></trkpt><trkpt lat="40.6975878" lon="-3.8580703"><ele>966.0</ele><time>2026-04-10T09:51:47.002Z</time></trkpt><trkpt lat="40.697673" lon="-3.858232"><ele>965.5</ele><time>2026-04-10T09:51:48.002Z</time></trkpt><trkpt lat="40.6977589" lon="-3.8583825"><ele>965.0</ele><time>2026-04-10T09:51:49.002Z</time></trkpt><trkpt lat="40.6978405" lon="-3.8585307"><ele>967.0</ele><time>2026-04-10T09:51:50.002Z</time></trkpt><trkpt lat="40.6979057" lon="-3.8587039"><ele>969.0</ele><time>2026-04-10T09:51:51.002Z</time></trkpt><trkpt lat="40.6979636" lon="-3.8588828"><ele>971.0</ele><time>2026-04-10T09:51:52.002Z</time></trkpt><trkpt lat="40.6980269" lon="-3.8590773"><ele>971.0</ele><time>2026-04-10T09:51:53.002Z</time></trkpt><trkpt lat="40.6980864" lon="-3.8592829"><ele>971.0</ele><time>2026-04-10T09:51:54.002Z</time></trkpt><trkpt lat="40.6981396" lon="-3.8595031"><ele>971.0</ele><time>2026-04-10T09:51:55.002Z</time></trkpt><trkpt lat="40.698186" lon="-3.8597208"><ele>970.6666666666667</ele><time>2026-04-10T09:51:56.002Z</time></trkpt><trkpt lat="40.6982233" lon="-3.8599374"><ele>970.3333333333333</ele><time>2026-04-10T09:51:57.002Z</time></trkpt><trkpt lat="40.6982522" lon="-3.8601569"><ele>970.0</ele><time>2026-04-10T09:51:58.002Z</time></trkpt><trkpt lat="40.6982759" lon="-3.8603746"><ele>970.3333333333333</ele><time>2026-04-10T09:51:59.002Z</time></trkpt><trkpt lat="40.698309" lon="-3.8605855"><ele>970.6666666666667</ele><time>2026-04-10T09:52:00.002Z</time></trkpt><trkpt lat="40.6983487" lon="-3.8607874"><ele>971.0</ele><time>2026-04-10T09:52:01.002Z</time></trkpt><trkpt lat="40.698394" lon="-3.860992"><ele>971.0</ele><time>2026-04-10T09:52:02.002Z</time></trkpt><trkpt lat="40.69844" lon="-3.8611887"><ele>971.0</ele><time>2026-04-10T09:52:03.002Z</time></trkpt><trkpt lat="40.6984822" lon="-3.8613713"><ele>971.0</ele><time>2026-04-10T09:52:04.002Z</time></trkpt><trkpt lat="40.6985268" lon="-3.8615441"><ele>971.0</ele><time>2026-04-10T09:52:05.002Z</time></trkpt><trkpt lat="40.6985786" lon="-3.8617116"><ele>972.25</ele><time>2026-04-10T09:52:06.002Z</time></trkpt><trkpt lat="40.6986413" lon="-3.8618722"><ele>973.5</ele><time>2026-04-10T09:52:07.002Z</time></trkpt><trkpt lat="40.698702" lon="-3.8620384"><ele>974.75</ele><time>2026-04-10T09:52:08.002Z</time></trkpt><trkpt lat="40.6987658" lon="-3.8622126"><ele>976.0</ele><time>2026-04-10T09:52:09.002Z</time></trkpt><trkpt lat="40.6988284" lon="-3.8623952"><ele>976.0</ele><time>2026-04-10T09:52:10.002Z</time></trkpt><trkpt lat="40.6988909" lon="-3.862579"><ele>976.0</ele><time>2026-04-10T09:52:11.002Z</time></trkpt><trkpt lat="40.6989573" lon="-3.8627673"><ele>976.0</ele><time>2026-04-10T09:52:12.002Z</time></trkpt><trkpt lat="40.6990237" lon="-3.8629565"><ele>976.0</ele><time>2026-04-10T09:52:13.002Z</time></trkpt><trkpt lat="40.6990866" lon="-3.8631447"><ele>976.0</ele><time>2026-04-10T09:52:14.002Z</time></trkpt><trkpt lat="40.6991519" lon="-3.8633357"><ele>976.0</ele><time>2026-04-10T09:52:15.002Z</time></trkpt><trkpt lat="40.6992155" lon="-3.8635324"><ele>976.0</ele><time>2026-04-10T09:52:16.002Z</time></trkpt><trkpt lat="40.6992766" lon="-3.8637274"><ele>976.0</ele><time>2026-04-10T09:52:17.002Z</time></trkpt><trkpt lat="40.6993333" lon="-3.863917"><ele>976.0</ele><time>2026-04-10T09:52:18.002Z</time></trkpt><trkpt lat="40.699383" lon="-3.864104"><ele>979.0</ele><time>2026-04-10T09:52:19.002Z</time></trkpt><trkpt lat="40.6994264" lon="-3.8642972"><ele>982.0</ele><time>2026-04-10T09:52:20.002Z</time></trkpt><trkpt lat="40.6994684" lon="-3.8644884"><ele>985.0</ele><time>2026-04-10T09:52:21.001Z</time></trkpt><trkpt lat="40.6995101" lon="-3.8646773"><ele>985.0</ele><time>2026-04-10T09:52:22.002Z</time></trkpt><trkpt lat="40.6995516" lon="-3.8648596"><ele>985.0</ele><time>2026-04-10T09:52:23.002Z</time></trkpt><trkpt lat="40.6995935" lon="-3.8650324"><ele>985.0</ele><time>2026-04-10T09:52:24.002Z</time></trkpt><trkpt lat="40.6996149" lon="-3.865205"><ele>985.0</ele><time>2026-04-10T09:52:25.002Z</time></trkpt><trkpt lat="40.699607" lon="-3.8653856"><ele>985.0</ele><time>2026-04-10T09:52:26.002Z</time></trkpt><trkpt lat="40.6995833" lon="-3.8655689"><ele>985.0</ele><time>2026-04-10T09:52:27.001Z</time></trkpt><trkpt lat="40.6995621" lon="-3.8657571"><ele>985.0</ele><time>2026-04-10T09:52:28.001Z</time></trkpt><trkpt lat="40.6995371" lon="-3.8659476"><ele>985.0</ele><time>2026-04-10T09:52:29.002Z</time></trkpt><trkpt lat="40.6995054" lon="-3.8661359"><ele>985.0</ele><time>2026-04-10T09:52:30.002Z</time></trkpt><trkpt lat="40.6994632" lon="-3.8663224"><ele>985.0</ele><time>2026-04-10T09:52:31.001Z</time></trkpt><trkpt lat="40.6994128" lon="-3.8665018"><ele>985.0</ele><time>2026-04-10T09:52:32.002Z</time></trkpt><trkpt lat="40.6993587" lon="-3.8666843"><ele>985.0</ele><time>2026-04-10T09:52:33.002Z</time></trkpt><trkpt lat="40.6993051" lon="-3.8668744"><ele>985.6666666666666</ele><time>2026-04-10T09:52:34.002Z</time></trkpt><trkpt lat="40.6992422" lon="-3.8670753"><ele>986.3333333333333</ele><time>2026-04-10T09:52:35.002Z</time></trkpt><trkpt lat="40.6991835" lon="-3.8672812"><ele>987.0</ele><time>2026-04-10T09:52:36.002Z</time></trkpt><trkpt lat="40.6991267" lon="-3.8674908"><ele>987.75</ele><time>2026-04-10T09:52:37.002Z</time></trkpt><trkpt lat="40.6990717" lon="-3.8676894"><ele>988.5</ele><time>2026-04-10T09:52:38.002Z</time></trkpt><trkpt lat="40.699016" lon="-3.8678622"><ele>989.25</ele><time>2026-04-10T09:52:39.002Z</time></trkpt><trkpt lat="40.6989654" lon="-3.8680201"><ele>990.0</ele><time>2026-04-10T09:52:40.002Z</time></trkpt><trkpt lat="40.6989141" lon="-3.8681523"><ele>990.0</ele><time>2026-04-10T09:52:41.001Z</time></trkpt><trkpt lat="40.698854" lon="-3.8682653"><ele>990.0</ele><time>2026-04-10T09:52:42.002Z</time></trkpt><trkpt lat="40.6987804" lon="-3.8683442"><ele>990.0</ele><time>2026-04-10T09:52:43.002Z</time></trkpt><trkpt lat="40.6986916" lon="-3.8684192"><ele>990.0</ele><time>2026-04-10T09:52:44.002Z</time></trkpt><trkpt lat="40.6985957" lon="-3.8685057"><ele>990.0</ele><time>2026-04-10T09:52:45.002Z</time></trkpt><trkpt lat="40.6985129" lon="-3.8686217"><ele>989.5</ele><time>2026-04-10T09:52:46.001Z</time></trkpt><trkpt lat="40.698445" lon="-3.8687519"><ele>989.0</ele><time>2026-04-10T09:52:47.001Z</time></trkpt><trkpt lat="40.698385" lon="-3.868889"><ele>988.5</ele><time>2026-04-10T09:52:48.002Z</time></trkpt><trkpt lat="40.6983309" lon="-3.8690267"><ele>988.0</ele><time>2026-04-10T09:52:49.002Z</time></trkpt><trkpt lat="40.6982781" lon="-3.8691798"><ele>988.5</ele><time>2026-04-10T09:52:50.002Z</time></trkpt><trkpt lat="40.698233" lon="-3.8693419"><ele>989.0</ele><time>2026-04-10T09:52:51.001Z</time></trkpt><trkpt lat="40.6981816" lon="-3.8695069"><ele>989.5</ele><time>2026-04-10T09:52:52.002Z</time></trkpt><trkpt lat="40.6981337" lon="-3.8696789"><ele>990.0</ele><time>2026-04-10T09:52:53.002Z</time></trkpt><trkpt lat="40.6980797" lon="-3.8698539"><ele>990.0</ele><time>2026-04-10T09:52:54.002Z</time></trkpt><trkpt lat="40.6980173" lon="-3.8700267"><ele>990.0</ele><time>2026-04-10T09:52:55.002Z</time></trkpt><trkpt lat="40.6979536" lon="-3.8702047"><ele>990.0</ele><time>2026-04-10T09:52:56.001Z</time></trkpt><trkpt lat="40.6978924" lon="-3.8703797"><ele>990.0</ele><time>2026-04-10T09:52:57.002Z</time></trkpt><trkpt lat="40.6978414" lon="-3.870553"><ele>989.5</ele><time>2026-04-10T09:52:58.002Z</time></trkpt><trkpt lat="40.6977963" lon="-3.8707186"><ele>989.0</ele><time>2026-04-10T09:52:59.002Z</time></trkpt><trkpt lat="40.6977583" lon="-3.8708781"><ele>988.5</ele><time>2026-04-10T09:53:00.001Z</time></trkpt><trkpt lat="40.6977317" lon="-3.8710267"><ele>988.0</ele><time>2026-04-10T09:53:01.002Z</time></trkpt><trkpt lat="40.6977204" lon="-3.8711522"><ele>988.0</ele><time>2026-04-10T09:53:02.002Z</time></trkpt><trkpt lat="40.6977069" lon="-3.8712492"><ele>988.0</ele><time>2026-04-10T09:53:03.002Z</time></trkpt><trkpt lat="40.6976919" lon="-3.8713989"><ele>988.0</ele><time>2026-04-10T09:53:05.002Z</time></trkpt><trkpt lat="40.6976971" lon="-3.8715089"><ele>988.0</ele><time>2026-04-10T09:53:07.002Z</time></trkpt><trkpt lat="40.6977118" lon="-3.8716173"><ele>988.0</ele><time>2026-04-10T09:53:09.002Z</time></trkpt><trkpt lat="40.6977212" lon="-3.8717594"><ele>988.4</ele><time>2026-04-10T09:53:11.002Z</time></trkpt><trkpt lat="40.6977287" lon="-3.8719191"><ele>988.8</ele><time>2026-04-10T09:53:13.002Z</time></trkpt><trkpt lat="40.6977255" lon="-3.8720097"><ele>989.2</ele><time>2026-04-10T09:53:14.002Z</time></trkpt><trkpt lat="40.6977204" lon="-3.8721273"><ele>989.6</ele><time>2026-04-10T09:53:15.002Z</time></trkpt><trkpt lat="40.6977069" lon="-3.8722605"><ele>990.0</ele><time>2026-04-10T09:53:16.002Z</time></trkpt><trkpt lat="40.6976999" lon="-3.8724152"><ele>990.0</ele><time>2026-04-10T09:53:17.002Z</time></trkpt><trkpt lat="40.6977098" lon="-3.8725651"><ele>990.0</ele><time>2026-04-10T09:53:18.002Z</time></trkpt><trkpt lat="40.6977306" lon="-3.8727183"><ele>990.0</ele><time>2026-04-10T09:53:19.002Z</time></trkpt><trkpt lat="40.6977468" lon="-3.8728838"><ele>990.0</ele><time>2026-04-10T09:53:20.002Z</time></trkpt><trkpt lat="40.6977539" lon="-3.8730547"><ele>990.25</ele><time>2026-04-10T09:53:21.002Z</time></trkpt><trkpt lat="40.6977341" lon="-3.8732338"><ele>990.5</ele><time>2026-04-10T09:53:22.002Z</time></trkpt><trkpt lat="40.6976976" lon="-3.8734126"><ele>990.75</ele><time>2026-04-10T09:53:23.002Z</time></trkpt><trkpt lat="40.6976437" lon="-3.8735824"><ele>991.0</ele><time>2026-04-10T09:53:24.002Z</time></trkpt><trkpt lat="40.6975757" lon="-3.8737518"><ele>991.0</ele><time>2026-04-10T09:53:25.002Z</time></trkpt><trkpt lat="40.6975102" lon="-3.8739141"><ele>991.0</ele><time>2026-04-10T09:53:26.002Z</time></trkpt><trkpt lat="40.6974481" lon="-3.8740794"><ele>991.0</ele><time>2026-04-10T09:53:27.002Z</time></trkpt><trkpt lat="40.6974009" lon="-3.8742425"><ele>991.0</ele><time>2026-04-10T09:53:28.002Z</time></trkpt><trkpt lat="40.6973645" lon="-3.874413"><ele>991.5</ele><time>2026-04-10T09:53:29.002Z</time></trkpt><trkpt lat="40.6973321" lon="-3.8746008"><ele>992.0</ele><time>2026-04-10T09:53:30.002Z</time></trkpt><trkpt lat="40.6972981" lon="-3.8747802"><ele>992.5</ele><time>2026-04-10T09:53:31.001Z</time></trkpt><trkpt lat="40.6972704" lon="-3.8749558"><ele>993.0</ele><time>2026-04-10T09:53:32.002Z</time></trkpt><trkpt lat="40.6972384" lon="-3.8751368"><ele>993.75</ele><time>2026-04-10T09:53:33.002Z</time></trkpt><trkpt lat="40.697208" lon="-3.875309"><ele>994.5</ele><time>2026-04-10T09:53:34.002Z</time></trkpt><trkpt lat="40.6971815" lon="-3.8754828"><ele>995.25</ele><time>2026-04-10T09:53:35.001Z</time></trkpt><trkpt lat="40.697154" lon="-3.8756589"><ele>996.0</ele><time>2026-04-10T09:53:36.002Z</time></trkpt><trkpt lat="40.6971284" lon="-3.8758338"><ele>996.0</ele><time>2026-04-10T09:53:37.002Z</time></trkpt><trkpt lat="40.6971091" lon="-3.875997"><ele>996.0</ele><time>2026-04-10T09:53:38.002Z</time></trkpt><trkpt lat="40.69709" lon="-3.8761595"><ele>996.0</ele><time>2026-04-10T09:53:39.002Z</time></trkpt><trkpt lat="40.6970688" lon="-3.8763157"><ele>996.0</ele><time>2026-04-10T09:53:40.001Z</time></trkpt><trkpt lat="40.6970347" lon="-3.8764689"><ele>996.0</ele><time>2026-04-10T09:53:41.002Z</time></trkpt><trkpt lat="40.6969962" lon="-3.8766335"><ele>996.0</ele><time>2026-04-10T09:53:42.002Z</time></trkpt><trkpt lat="40.6969659" lon="-3.8768029"><ele>996.0</ele><time>2026-04-10T09:53:43.001Z</time></trkpt><trkpt lat="40.6969395" lon="-3.8769689"><ele>996.0</ele><time>2026-04-10T09:53:44.002Z</time></trkpt><trkpt lat="40.696911" lon="-3.877129"><ele>994.75</ele><time>2026-04-10T09:53:45.001Z</time></trkpt><trkpt lat="40.6968774" lon="-3.8772866"><ele>993.5</ele><time>2026-04-10T09:53:46.002Z</time></trkpt><trkpt lat="40.6968457" lon="-3.877448"><ele>992.25</ele><time>2026-04-10T09:53:47.002Z</time></trkpt><trkpt lat="40.6968172" lon="-3.8776117"><ele>991.0</ele><time>2026-04-10T09:53:48.002Z</time></trkpt><trkpt lat="40.696787" lon="-3.8777711"><ele>991.0</ele><time>2026-04-10T09:53:49.002Z</time></trkpt><trkpt lat="40.6967506" lon="-3.8779277"><ele>991.0</ele><time>2026-04-10T09:53:50.001Z</time></trkpt><trkpt lat="40.6967175" lon="-3.8780941"><ele>991.0</ele><time>2026-04-10T09:53:51.002Z</time></trkpt><trkpt lat="40.6966868" lon="-3.8782682"><ele>991.0</ele><time>2026-04-10T09:53:52.002Z</time></trkpt><trkpt lat="40.6966613" lon="-3.8784369"><ele>990.75</ele><time>2026-04-10T09:53:53.002Z</time></trkpt><trkpt lat="40.6966401" lon="-3.8786119"><ele>990.5</ele><time>2026-04-10T09:53:54.002Z</time></trkpt><trkpt lat="40.6966191" lon="-3.8787908"><ele>990.25</ele><time>2026-04-10T09:53:55.001Z</time></trkpt><trkpt lat="40.6965973" lon="-3.8789739"><ele>990.0</ele><time>2026-04-10T09:53:56.002Z</time></trkpt><trkpt lat="40.6965742" lon="-3.8791546"><ele>989.75</ele><time>2026-04-10T09:53:57.002Z</time></trkpt><trkpt lat="40.6965637" lon="-3.8793293"><ele>989.5</ele><time>2026-04-10T09:53:58.002Z</time></trkpt><trkpt lat="40.6965656" lon="-3.8795086"><ele>989.25</ele><time>2026-04-10T09:53:59.002Z</time></trkpt><trkpt lat="40.696574" lon="-3.8796816"><ele>989.0</ele><time>2026-04-10T09:54:00.002Z</time></trkpt><trkpt lat="40.6965751" lon="-3.8798438"><ele>989.0</ele><time>2026-04-10T09:54:01.002Z</time></trkpt><trkpt lat="40.69656" lon="-3.8800021"><ele>989.0</ele><time>2026-04-10T09:54:02.002Z</time></trkpt><trkpt lat="40.6965295" lon="-3.8801691"><ele>989.0</ele><time>2026-04-10T09:54:03.002Z</time></trkpt><trkpt lat="40.696494" lon="-3.8803421"><ele>989.0</ele><time>2026-04-10T09:54:04.002Z</time></trkpt><trkpt lat="40.696474" lon="-3.8805043"><ele>989.0</ele><time>2026-04-10T09:54:05.002Z</time></trkpt><trkpt lat="40.696455" lon="-3.8806614"><ele>989.0</ele><time>2026-04-10T09:54:06.002Z</time></trkpt><trkpt lat="40.6964246" lon="-3.8808184"><ele>989.0</ele><time>2026-04-10T09:54:07.002Z</time></trkpt><trkpt lat="40.6963977" lon="-3.8809773"><ele>989.0</ele><time>2026-04-10T09:54:08.002Z</time></trkpt><trkpt lat="40.6963703" lon="-3.8811419"><ele>989.0</ele><time>2026-04-10T09:54:09.002Z</time></trkpt><trkpt lat="40.6963381" lon="-3.8813113"><ele>989.0</ele><time>2026-04-10T09:54:10.002Z</time></trkpt><trkpt lat="40.6963122" lon="-3.8814828"><ele>989.0</ele><time>2026-04-10T09:54:11.002Z</time></trkpt><trkpt lat="40.6962705" lon="-3.8816522"><ele>989.0</ele><time>2026-04-10T09:54:12.002Z</time></trkpt><trkpt lat="40.6962301" lon="-3.8818058"><ele>988.0</ele><time>2026-04-10T09:54:13.002Z</time></trkpt><trkpt lat="40.6961911" lon="-3.8819562"><ele>987.0</ele><time>2026-04-10T09:54:14.002Z</time></trkpt><trkpt lat="40.6961511" lon="-3.882107"><ele>986.0</ele><time>2026-04-10T09:54:15.002Z</time></trkpt><trkpt lat="40.6961161" lon="-3.8822518"><ele>985.0</ele><time>2026-04-10T09:54:16.001Z</time></trkpt><trkpt lat="40.6960839" lon="-3.882395"><ele>984.0</ele><time>2026-04-10T09:54:17.002Z</time></trkpt><trkpt lat="40.6960598" lon="-3.8825321"><ele>983.0</ele><time>2026-04-10T09:54:18.002Z</time></trkpt><trkpt lat="40.6960355" lon="-3.8826628"><ele>982.0</ele><time>2026-04-10T09:54:19.002Z</time></trkpt><trkpt lat="40.696007" lon="-3.8827826"><ele>981.0</ele><time>2026-04-10T09:54:20.002Z</time></trkpt><trkpt lat="40.6959664" lon="-3.882882"><ele>980.0</ele><time>2026-04-10T09:54:21.002Z</time></trkpt><trkpt lat="40.6959247" lon="-3.8829722"><ele>980.0000000000001</ele><time>2026-04-10T09:54:22.002Z</time></trkpt><trkpt lat="40.6958859" lon="-3.8830538"><ele>980.0</ele><time>2026-04-10T09:54:23.002Z</time></trkpt><trkpt lat="40.6958509" lon="-3.8831306"><ele>980.0</ele><time>2026-04-10T09:54:24.002Z</time></trkpt><trkpt lat="40.6958235" lon="-3.8832088"><ele>980.0</ele><time>2026-04-10T09:54:25.002Z</time></trkpt><trkpt lat="40.695812" lon="-3.8833669"><ele>980.0000000000001</ele><time>2026-04-10T09:54:27.002Z</time></trkpt><trkpt lat="40.6958302" lon="-3.8834578"><ele>980.0</ele><time>2026-04-10T09:54:28.002Z</time></trkpt><trkpt lat="40.6958481" lon="-3.8835603"><ele>980.6</ele><time>2026-04-10T09:54:29.002Z</time></trkpt><trkpt lat="40.6958369" lon="-3.8836703"><ele>981.2</ele><time>2026-04-10T09:54:30.002Z</time></trkpt><trkpt lat="40.6958034" lon="-3.8837891"><ele>981.8</ele><time>2026-04-10T09:54:31.002Z</time></trkpt><trkpt lat="40.6957535" lon="-3.8839129"><ele>982.4</ele><time>2026-04-10T09:54:32.002Z</time></trkpt><trkpt lat="40.6957014" lon="-3.8840568"><ele>983.0</ele><time>2026-04-10T09:54:33.002Z</time></trkpt><trkpt lat="40.6956568" lon="-3.884198"><ele>983.25</ele><time>2026-04-10T09:54:34.001Z</time></trkpt><trkpt lat="40.6956174" lon="-3.8843412"><ele>983.5</ele><time>2026-04-10T09:54:35.002Z</time></trkpt><trkpt lat="40.6955825" lon="-3.8844965"><ele>983.75</ele><time>2026-04-10T09:54:36.002Z</time></trkpt><trkpt lat="40.6955431" lon="-3.884648"><ele>984.0</ele><time>2026-04-10T09:54:37.002Z</time></trkpt><trkpt lat="40.6954964" lon="-3.8847937"><ele>984.0</ele><time>2026-04-10T09:54:38.002Z</time></trkpt><trkpt lat="40.6954479" lon="-3.884935"><ele>984.0000000000001</ele><time>2026-04-10T09:54:39.002Z</time></trkpt><trkpt lat="40.6954028" lon="-3.8850686"><ele>984.0000000000001</ele><time>2026-04-10T09:54:40.002Z</time></trkpt><trkpt lat="40.69535" lon="-3.8851787"><ele>984.0</ele><time>2026-04-10T09:54:41.002Z</time></trkpt><trkpt lat="40.6952872" lon="-3.8852797"><ele>984.0</ele><time>2026-04-10T09:54:42.002Z</time></trkpt><trkpt lat="40.6952237" lon="-3.8853553"><ele>983.1666666666666</ele><time>2026-04-10T09:54:43.001Z</time></trkpt><trkpt lat="40.6951632" lon="-3.885432"><ele>982.3333333333333</ele><time>2026-04-10T09:54:44.002Z</time></trkpt><trkpt lat="40.6951151" lon="-3.8855114"><ele>981.5</ele><time>2026-04-10T09:54:45.002Z</time></trkpt><trkpt lat="40.6950761" lon="-3.8855993"><ele>980.6666666666666</ele><time>2026-04-10T09:54:46.002Z</time></trkpt><trkpt lat="40.6950475" lon="-3.8857082"><ele>979.8333333333333</ele><time>2026-04-10T09:54:47.002Z</time></trkpt><trkpt lat="40.6950218" lon="-3.8858174"><ele>979.0</ele><time>2026-04-10T09:54:48.002Z</time></trkpt><trkpt lat="40.6949914" lon="-3.8859256"><ele>979.6</ele><time>2026-04-10T09:54:49.002Z</time></trkpt><trkpt lat="40.6949519" lon="-3.8860324"><ele>980.2</ele><time>2026-04-10T09:54:50.001Z</time></trkpt><trkpt lat="40.694915" lon="-3.8861481"><ele>980.8000000000001</ele><time>2026-04-10T09:54:51.002Z</time></trkpt><trkpt lat="40.6948739" lon="-3.8862772"><ele>981.4000000000001</ele><time>2026-04-10T09:54:52.002Z</time></trkpt><trkpt lat="40.6948267" lon="-3.8864128"><ele>982.0</ele><time>2026-04-10T09:54:53.002Z</time></trkpt><trkpt lat="40.6947796" lon="-3.8865453"><ele>982.0</ele><time>2026-04-10T09:54:54.002Z</time></trkpt><trkpt lat="40.694733" lon="-3.8866746"><ele>982.0</ele><time>2026-04-10T09:54:55.002Z</time></trkpt><trkpt lat="40.694679" lon="-3.8868102"><ele>982.0</ele><time>2026-04-10T09:54:56.002Z</time></trkpt><trkpt lat="40.6946315" lon="-3.8869549"><ele>982.0</ele><time>2026-04-10T09:54:57.002Z</time></trkpt><trkpt lat="40.6945811" lon="-3.887099"><ele>982.5</ele><time>2026-04-10T09:54:58.002Z</time></trkpt><trkpt lat="40.6945317" lon="-3.8872401"><ele>983.0</ele><time>2026-04-10T09:54:59.002Z</time></trkpt><trkpt lat="40.694481" lon="-3.8873791"><ele>983.5</ele><time>2026-04-10T09:55:00.002Z</time></trkpt><trkpt lat="40.6944311" lon="-3.8875268"><ele>984.0</ele><time>2026-04-10T09:55:01.002Z</time></trkpt><trkpt lat="40.6943766" lon="-3.8876829"><ele>984.0</ele><time>2026-04-10T09:55:02.001Z</time></trkpt><trkpt lat="40.6943237" lon="-3.8878356"><ele>984.0</ele><time>2026-04-10T09:55:03.001Z</time></trkpt><trkpt lat="40.6942758" lon="-3.8880013"><ele>984.0</ele><time>2026-04-10T09:55:04.002Z</time></trkpt><trkpt lat="40.6942337" lon="-3.8881629"><ele>984.0</ele><time>2026-04-10T09:55:05.002Z</time></trkpt><trkpt lat="40.6941838" lon="-3.888322"><ele>984.0</ele><time>2026-04-10T09:55:06.002Z</time></trkpt><trkpt lat="40.6941259" lon="-3.88847"><ele>984.0</ele><time>2026-04-10T09:55:07.001Z</time></trkpt><trkpt lat="40.6940687" lon="-3.8886078"><ele>984.0</ele><time>2026-04-10T09:55:08.002Z</time></trkpt><trkpt lat="40.6940162" lon="-3.8887441"><ele>984.0</ele><time>2026-04-10T09:55:09.002Z</time></trkpt><trkpt lat="40.693975" lon="-3.8888894"><ele>984.0</ele><time>2026-04-10T09:55:10.002Z</time></trkpt><trkpt lat="40.693944" lon="-3.8890459"><ele>984.0</ele><time>2026-04-10T09:55:11.001Z</time></trkpt><trkpt lat="40.6939218" lon="-3.8892075"><ele>984.0</ele><time>2026-04-10T09:55:12.002Z</time></trkpt><trkpt lat="40.6939003" lon="-3.8893725"><ele>984.0</ele><time>2026-04-10T09:55:13.002Z</time></trkpt><trkpt lat="40.6938789" lon="-3.8895391"><ele>984.5</ele><time>2026-04-10T09:55:14.001Z</time></trkpt><trkpt lat="40.6938596" lon="-3.8897075"><ele>985.0</ele><time>2026-04-10T09:55:15.001Z</time></trkpt><trkpt lat="40.6938381" lon="-3.8898799"><ele>985.5</ele><time>2026-04-10T09:55:16.002Z</time></trkpt><trkpt lat="40.6938183" lon="-3.8900615"><ele>986.0</ele><time>2026-04-10T09:55:17.002Z</time></trkpt><trkpt lat="40.6937981" lon="-3.8902447"><ele>986.25</ele><time>2026-04-10T09:55:18.002Z</time></trkpt><trkpt lat="40.6937792" lon="-3.8904264"><ele>986.5</ele><time>2026-04-10T09:55:19.002Z</time></trkpt><trkpt lat="40.6937611" lon="-3.8906064"><ele>986.75</ele><time>2026-04-10T09:55:20.001Z</time></trkpt><trkpt lat="40.6937498" lon="-3.8907837"><ele>987.0</ele><time>2026-04-10T09:55:21.002Z</time></trkpt><trkpt lat="40.693746" lon="-3.8909642"><ele>987.0</ele><time>2026-04-10T09:55:22.002Z</time></trkpt><trkpt lat="40.6937471" lon="-3.8911347"><ele>987.0</ele><time>2026-04-10T09:55:23.002Z</time></trkpt><trkpt lat="40.6937474" lon="-3.8912799"><ele>987.0</ele><time>2026-04-10T09:55:24.002Z</time></trkpt><trkpt lat="40.6937464" lon="-3.8914202"><ele>987.0</ele><time>2026-04-10T09:55:25.002Z</time></trkpt><trkpt lat="40.69374" lon="-3.8915644"><ele>987.0</ele><time>2026-04-10T09:55:26.002Z</time></trkpt><trkpt lat="40.6937346" lon="-3.8917127"><ele>987.0</ele><time>2026-04-10T09:55:27.002Z</time></trkpt><trkpt lat="40.6937348" lon="-3.8918676"><ele>987.0</ele><time>2026-04-10T09:55:28.002Z</time></trkpt><trkpt lat="40.6937339" lon="-3.8920294"><ele>987.0</ele><time>2026-04-10T09:55:29.002Z</time></trkpt><trkpt lat="40.693726" lon="-3.8921909"><ele>986.75</ele><time>2026-04-10T09:55:30.002Z</time></trkpt><trkpt lat="40.6937162" lon="-3.8923449"><ele>986.5</ele><time>2026-04-10T09:55:31.002Z</time></trkpt><trkpt lat="40.6937131" lon="-3.8924969"><ele>986.25</ele><time>2026-04-10T09:55:32.002Z</time></trkpt><trkpt lat="40.6937198" lon="-3.8926466"><ele>986.0</ele><time>2026-04-10T09:55:33.002Z</time></trkpt><trkpt lat="40.6937329" lon="-3.8928026"><ele>986.0</ele><time>2026-04-10T09:55:34.002Z</time></trkpt><trkpt lat="40.6937519" lon="-3.892956"><ele>985.9999999999999</ele><time>2026-04-10T09:55:35.002Z</time></trkpt><trkpt lat="40.6937705" lon="-3.8931006"><ele>985.9999999999999</ele><time>2026-04-10T09:55:36.002Z</time></trkpt><trkpt lat="40.6937871" lon="-3.8932445"><ele>986.0</ele><time>2026-04-10T09:55:37.002Z</time></trkpt><trkpt lat="40.693791" lon="-3.8933765"><ele>986.0</ele><time>2026-04-10T09:55:38.002Z</time></trkpt><trkpt lat="40.6937721" lon="-3.8935146"><ele>986.25</ele><time>2026-04-10T09:55:39.002Z</time></trkpt><trkpt lat="40.6937356" lon="-3.8936576"><ele>986.5</ele><time>2026-04-10T09:55:40.002Z</time></trkpt><trkpt lat="40.693698" lon="-3.8938012"><ele>986.75</ele><time>2026-04-10T09:55:41.002Z</time></trkpt><trkpt lat="40.6936632" lon="-3.8939488"><ele>987.0</ele><time>2026-04-10T09:55:42.002Z</time></trkpt><trkpt lat="40.6936343" lon="-3.8941069"><ele>986.5</ele><time>2026-04-10T09:55:43.002Z</time></trkpt><trkpt lat="40.6936137" lon="-3.8942758"><ele>986.0</ele><time>2026-04-10T09:55:44.002Z</time></trkpt><trkpt lat="40.6935955" lon="-3.8944468"><ele>985.5</ele><time>2026-04-10T09:55:45.001Z</time></trkpt><trkpt lat="40.6935763" lon="-3.8946179"><ele>985.0</ele><time>2026-04-10T09:55:46.002Z</time></trkpt><trkpt lat="40.6935649" lon="-3.8947769"><ele>984.75</ele><time>2026-04-10T09:55:47.001Z</time></trkpt><trkpt lat="40.6935605" lon="-3.8949184"><ele>984.5</ele><time>2026-04-10T09:55:48.002Z</time></trkpt><trkpt lat="40.6935666" lon="-3.8950676"><ele>984.25</ele><time>2026-04-10T09:55:49.001Z</time></trkpt><trkpt lat="40.6935797" lon="-3.8952165"><ele>984.0</ele><time>2026-04-10T09:55:50.002Z</time></trkpt><trkpt lat="40.6936214" lon="-3.8953658"><ele>984.0</ele><time>2026-04-10T09:55:51.002Z</time></trkpt><trkpt lat="40.6936739" lon="-3.8955157"><ele>984.0</ele><time>2026-04-10T09:55:52.002Z</time></trkpt><trkpt lat="40.6937169" lon="-3.8956648"><ele>984.0</ele><time>2026-04-10T09:55:53.002Z</time></trkpt><trkpt lat="40.6937442" lon="-3.8958396"><ele>984.0</ele><time>2026-04-10T09:55:54.002Z</time></trkpt><trkpt lat="40.693764" lon="-3.8960193"><ele>983.75</ele><time>2026-04-10T09:55:55.001Z</time></trkpt><trkpt lat="40.6937739" lon="-3.8962134"><ele>983.5</ele><time>2026-04-10T09:55:56.002Z</time></trkpt><trkpt lat="40.6937718" lon="-3.8964124"><ele>983.25</ele><time>2026-04-10T09:55:57.002Z</time></trkpt><trkpt lat="40.6937762" lon="-3.8966087"><ele>983.0</ele><time>2026-04-10T09:55:58.002Z</time></trkpt><trkpt lat="40.693784" lon="-3.8967987"><ele>982.25</ele><time>2026-04-10T09:55:59.002Z</time></trkpt><trkpt lat="40.6937861" lon="-3.8969771"><ele>981.5</ele><time>2026-04-10T09:56:00.002Z</time></trkpt><trkpt lat="40.6937839" lon="-3.8971557"><ele>980.75</ele><time>2026-04-10T09:56:01.002Z</time></trkpt><trkpt lat="40.6937743" lon="-3.8973268"><ele>980.0</ele><time>2026-04-10T09:56:02.002Z</time></trkpt><trkpt lat="40.6937606" lon="-3.8974948"><ele>979.0</ele><time>2026-04-10T09:56:03.002Z</time></trkpt><trkpt lat="40.6937384" lon="-3.8976637"><ele>978.0</ele><time>2026-04-10T09:56:04.002Z</time></trkpt><trkpt lat="40.6937172" lon="-3.8978146"><ele>977.0</ele><time>2026-04-10T09:56:05.002Z</time></trkpt><trkpt lat="40.6936978" lon="-3.8979662"><ele>976.0</ele><time>2026-04-10T09:56:06.002Z</time></trkpt><trkpt lat="40.693695" lon="-3.8981098"><ele>976.0</ele><time>2026-04-10T09:56:07.002Z</time></trkpt><trkpt lat="40.693698" lon="-3.898243"><ele>975.9999999999999</ele><time>2026-04-10T09:56:08.002Z</time></trkpt><trkpt lat="40.6936839" lon="-3.898357"><ele>975.9999999999999</ele><time>2026-04-10T09:56:09.001Z</time></trkpt><trkpt lat="40.6936451" lon="-3.898474"><ele>976.0</ele><time>2026-04-10T09:56:10.002Z</time></trkpt><trkpt lat="40.693607" lon="-3.8985953"><ele>976.0</ele><time>2026-04-10T09:56:11.002Z</time></trkpt><trkpt lat="40.6935763" lon="-3.898727"><ele>973.25</ele><time>2026-04-10T09:56:12.002Z</time></trkpt><trkpt lat="40.6935544" lon="-3.8988764"><ele>970.5</ele><time>2026-04-10T09:56:13.002Z</time></trkpt><trkpt lat="40.6935359" lon="-3.8990257"><ele>967.75</ele><time>2026-04-10T09:56:14.002Z</time></trkpt><trkpt lat="40.6935135" lon="-3.8991755"><ele>965.0</ele><time>2026-04-10T09:56:15.002Z</time></trkpt><trkpt lat="40.6934879" lon="-3.8993206"><ele>964.6</ele><time>2026-04-10T09:56:16.002Z</time></trkpt><trkpt lat="40.6934569" lon="-3.8994587"><ele>964.2</ele><time>2026-04-10T09:56:17.002Z</time></trkpt><trkpt lat="40.6934246" lon="-3.899589"><ele>963.8</ele><time>2026-04-10T09:56:18.002Z</time></trkpt><trkpt lat="40.6934016" lon="-3.8997116"><ele>963.4</ele><time>2026-04-10T09:56:19.002Z</time></trkpt><trkpt lat="40.693403" lon="-3.8998115"><ele>963.0</ele><time>2026-04-10T09:56:20.001Z</time></trkpt><trkpt lat="40.6934085" lon="-3.8999048"><ele>963.0</ele><time>2026-04-10T09:56:21.002Z</time></trkpt><trkpt lat="40.6933895" lon="-3.9000322"><ele>963.0</ele><time>2026-04-10T09:56:23.002Z</time></trkpt><trkpt lat="40.6933265" lon="-3.9001964"><ele>963.0</ele><time>2026-04-10T09:56:25.002Z</time></trkpt><trkpt lat="40.6932924" lon="-3.900321"><ele>963.0</ele><time>2026-04-10T09:56:26.002Z</time></trkpt><trkpt lat="40.6932589" lon="-3.900452"><ele>963.0</ele><time>2026-04-10T09:56:27.002Z</time></trkpt><trkpt lat="40.6932255" lon="-3.9005851"><ele>963.0</ele><time>2026-04-10T09:56:28.002Z</time></trkpt><trkpt lat="40.6931985" lon="-3.9007294"><ele>963.0</ele><time>2026-04-10T09:56:29.002Z</time></trkpt><trkpt lat="40.6931713" lon="-3.9008724"><ele>963.0</ele><time>2026-04-10T09:56:30.002Z</time></trkpt><trkpt lat="40.6931489" lon="-3.9009953"><ele>963.0</ele><time>2026-04-10T09:56:31.002Z</time></trkpt><trkpt lat="40.6931262" lon="-3.9011074"><ele>963.0</ele><time>2026-04-10T09:56:32.002Z</time></trkpt><trkpt lat="40.6931001" lon="-3.901221"><ele>963.0</ele><time>2026-04-10T09:56:33.002Z</time></trkpt><trkpt lat="40.6930699" lon="-3.9013427"><ele>963.0</ele><time>2026-04-10T09:56:34.002Z</time></trkpt><trkpt lat="40.6930357" lon="-3.9014664"><ele>963.0</ele><time>2026-04-10T09:56:35.002Z</time></trkpt><trkpt lat="40.6929951" lon="-3.9016059"><ele>963.0</ele><time>2026-04-10T09:56:36.002Z</time></trkpt><trkpt lat="40.6929501" lon="-3.9017623"><ele>963.0</ele><time>2026-04-10T09:56:37.002Z</time></trkpt><trkpt lat="40.6929021" lon="-3.9019258"><ele>963.0</ele><time>2026-04-10T09:56:38.002Z</time></trkpt><trkpt lat="40.6928626" lon="-3.9020766"><ele>963.0</ele><time>2026-04-10T09:56:39.002Z</time></trkpt><trkpt lat="40.6928261" lon="-3.9022151"><ele>963.0</ele><time>2026-04-10T09:56:40.002Z</time></trkpt><trkpt lat="40.6927923" lon="-3.9023383"><ele>963.0</ele><time>2026-04-10T09:56:41.002Z</time></trkpt><trkpt lat="40.6927558" lon="-3.9024499"><ele>963.0</ele><time>2026-04-10T09:56:42.002Z</time></trkpt><trkpt lat="40.6927224" lon="-3.9025603"><ele>961.2</ele><time>2026-04-10T09:56:43.002Z</time></trkpt><trkpt lat="40.692691" lon="-3.9026715"><ele>959.4</ele><time>2026-04-10T09:56:44.002Z</time></trkpt><trkpt lat="40.6926626" lon="-3.9027738"><ele>957.6000000000001</ele><time>2026-04-10T09:56:45.002Z</time></trkpt><trkpt lat="40.6926287" lon="-3.9028737"><ele>955.8000000000001</ele><time>2026-04-10T09:56:46.002Z</time></trkpt><trkpt lat="40.6925899" lon="-3.902988"><ele>954.0</ele><time>2026-04-10T09:56:47.002Z</time></trkpt><trkpt lat="40.69255" lon="-3.9031237"><ele>954.0</ele><time>2026-04-10T09:56:48.002Z</time></trkpt><trkpt lat="40.6925007" lon="-3.9032801"><ele>954.0</ele><time>2026-04-10T09:56:49.002Z</time></trkpt><trkpt lat="40.6924478" lon="-3.9034495"><ele>954.0</ele><time>2026-04-10T09:56:50.001Z</time></trkpt><trkpt lat="40.6924033" lon="-3.9036106"><ele>954.0</ele><time>2026-04-10T09:56:51.002Z</time></trkpt><trkpt lat="40.6923627" lon="-3.9037618"><ele>954.3333333333334</ele><time>2026-04-10T09:56:52.001Z</time></trkpt><trkpt lat="40.6923251" lon="-3.9038996"><ele>954.6666666666667</ele><time>2026-04-10T09:56:53.002Z</time></trkpt><trkpt lat="40.692295" lon="-3.9040139"><ele>955.0</ele><time>2026-04-10T09:56:54.002Z</time></trkpt><trkpt lat="40.6922725" lon="-3.9041159"><ele>955.3333333333334</ele><time>2026-04-10T09:56:55.002Z</time></trkpt><trkpt lat="40.6922324" lon="-3.9042062"><ele>955.6666666666667</ele><time>2026-04-10T09:56:56.002Z</time></trkpt><trkpt lat="40.6921903" lon="-3.9042919"><ele>956.0</ele><time>2026-04-10T09:56:57.002Z</time></trkpt><trkpt lat="40.6921507" lon="-3.9043683"><ele>956.5999999999999</ele><time>2026-04-10T09:56:58.002Z</time></trkpt><trkpt lat="40.6921146" lon="-3.9044429"><ele>957.1999999999999</ele><time>2026-04-10T09:56:59.002Z</time></trkpt><trkpt lat="40.6920561" lon="-3.9045824"><ele>957.8000000000001</ele><time>2026-04-10T09:57:01.002Z</time></trkpt><trkpt lat="40.6920074" lon="-3.9047393"><ele>958.4000000000001</ele><time>2026-04-10T09:57:03.002Z</time></trkpt><trkpt lat="40.6919723" lon="-3.9048242"><ele>959.0</ele><time>2026-04-10T09:57:04.002Z</time></trkpt><trkpt lat="40.6919366" lon="-3.904916"><ele>958.0</ele><time>2026-04-10T09:57:05.002Z</time></trkpt><trkpt lat="40.6919037" lon="-3.9050205"><ele>957.0000000000001</ele><time>2026-04-10T09:57:06.002Z</time></trkpt><trkpt lat="40.6918692" lon="-3.9051357"><ele>956.0000000000001</ele><time>2026-04-10T09:57:07.002Z</time></trkpt><trkpt lat="40.6918321" lon="-3.9052629"><ele>955.0</ele><time>2026-04-10T09:57:08.002Z</time></trkpt><trkpt lat="40.6918021" lon="-3.9053835"><ele>954.0</ele><time>2026-04-10T09:57:09.002Z</time></trkpt><trkpt lat="40.6917687" lon="-3.9054948"><ele>953.8333333333334</ele><time>2026-04-10T09:57:10.002Z</time></trkpt><trkpt lat="40.6917357" lon="-3.9055962"><ele>953.6666666666667</ele><time>2026-04-10T09:57:11.002Z</time></trkpt><trkpt lat="40.691703" lon="-3.9056857"><ele>953.5</ele><time>2026-04-10T09:57:12.002Z</time></trkpt><trkpt lat="40.6916706" lon="-3.9057597"><ele>953.3333333333334</ele><time>2026-04-10T09:57:13.001Z</time></trkpt><trkpt lat="40.6915811" lon="-3.9058643"><ele>953.1666666666667</ele><time>2026-04-10T09:57:15.002Z</time></trkpt><trkpt lat="40.6915198" lon="-3.9058981"><ele>953.0</ele><time>2026-04-10T09:57:16.002Z</time></trkpt><trkpt lat="40.6914214" lon="-3.9059866"><ele>952.6666666666667</ele><time>2026-04-10T09:57:18.002Z</time></trkpt><trkpt lat="40.6913918" lon="-3.906072"><ele>952.3333333333334</ele><time>2026-04-10T09:57:19.002Z</time></trkpt><trkpt lat="40.6913582" lon="-3.9061597"><ele>952.0</ele><time>2026-04-10T09:57:20.002Z</time></trkpt><trkpt lat="40.6913208" lon="-3.9062519"><ele>951.6666666666667</ele><time>2026-04-10T09:57:21.002Z</time></trkpt><trkpt lat="40.691286" lon="-3.9063398"><ele>951.3333333333334</ele><time>2026-04-10T09:57:22.001Z</time></trkpt><trkpt lat="40.6912537" lon="-3.9064282"><ele>951.0</ele><time>2026-04-10T09:57:23.002Z</time></trkpt><trkpt lat="40.6912165" lon="-3.9065156"><ele>951.0</ele><time>2026-04-10T09:57:24.002Z</time></trkpt><trkpt lat="40.6911776" lon="-3.9066105"><ele>951.0</ele><time>2026-04-10T09:57:25.001Z</time></trkpt><trkpt lat="40.6911349" lon="-3.9067064"><ele>951.0</ele><time>2026-04-10T09:57:26.002Z</time></trkpt><trkpt lat="40.6910914" lon="-3.9068041"><ele>951.0</ele><time>2026-04-10T09:57:27.002Z</time></trkpt><trkpt lat="40.6910455" lon="-3.9069096"><ele>951.0</ele><time>2026-04-10T09:57:28.002Z</time></trkpt><trkpt lat="40.6909989" lon="-3.9070196"><ele>951.0</ele><time>2026-04-10T09:57:29.001Z</time></trkpt><trkpt lat="40.6909567" lon="-3.9071297"><ele>949.1999999999999</ele><time>2026-04-10T09:57:30.002Z</time></trkpt><trkpt lat="40.6909197" lon="-3.9072465"><ele>947.3999999999999</ele><time>2026-04-10T09:57:31.002Z</time></trkpt><trkpt lat="40.6908799" lon="-3.9073641"><ele>945.6</ele><time>2026-04-10T09:57:32.002Z</time></trkpt><trkpt lat="40.690837" lon="-3.9074844"><ele>943.8</ele><time>2026-04-10T09:57:33.002Z</time></trkpt><trkpt lat="40.690793" lon="-3.9076109"><ele>942.0</ele><time>2026-04-10T09:57:34.002Z</time></trkpt><trkpt lat="40.6907467" lon="-3.9077253"><ele>942.0</ele><time>2026-04-10T09:57:35.002Z</time></trkpt><trkpt lat="40.6906952" lon="-3.9078369"><ele>942.0</ele><time>2026-04-10T09:57:36.002Z</time></trkpt><trkpt lat="40.6906398" lon="-3.9079462"><ele>942.0</ele><time>2026-04-10T09:57:37.002Z</time></trkpt><trkpt lat="40.6905859" lon="-3.9080727"><ele>942.0</ele><time>2026-04-10T09:57:38.002Z</time></trkpt><trkpt lat="40.690539" lon="-3.9081975"><ele>942.0</ele><time>2026-04-10T09:57:39.001Z</time></trkpt><trkpt lat="40.690482" lon="-3.9083423"><ele>942.25</ele><time>2026-04-10T09:57:40.002Z</time></trkpt><trkpt lat="40.6904134" lon="-3.9084991"><ele>942.5</ele><time>2026-04-10T09:57:41.002Z</time></trkpt><trkpt lat="40.6903414" lon="-3.9086586"><ele>942.75</ele><time>2026-04-10T09:57:42.002Z</time></trkpt><trkpt lat="40.6902747" lon="-3.9088202"><ele>943.0</ele><time>2026-04-10T09:57:43.002Z</time></trkpt><trkpt lat="40.6902126" lon="-3.9089819"><ele>941.25</ele><time>2026-04-10T09:57:44.002Z</time></trkpt><trkpt lat="40.690153" lon="-3.9091341"><ele>939.5</ele><time>2026-04-10T09:57:45.002Z</time></trkpt><trkpt lat="40.6900908" lon="-3.9092854"><ele>937.75</ele><time>2026-04-10T09:57:46.002Z</time></trkpt><trkpt lat="40.6900231" lon="-3.9094392"><ele>936.0</ele><time>2026-04-10T09:57:47.002Z</time></trkpt><trkpt lat="40.6899626" lon="-3.9095854"><ele>935.75</ele><time>2026-04-10T09:57:48.002Z</time></trkpt><trkpt lat="40.6898992" lon="-3.9097437"><ele>935.5</ele><time>2026-04-10T09:57:49.002Z</time></trkpt><trkpt lat="40.6898356" lon="-3.9098933"><ele>935.25</ele><time>2026-04-10T09:57:50.002Z</time></trkpt><trkpt lat="40.6897762" lon="-3.9100367"><ele>935.0</ele><time>2026-04-10T09:57:51.002Z</time></trkpt><trkpt lat="40.6897239" lon="-3.9101835"><ele>934.5</ele><time>2026-04-10T09:57:52.002Z</time></trkpt><trkpt lat="40.6896745" lon="-3.91033"><ele>934.0</ele><time>2026-04-10T09:57:53.002Z</time></trkpt><trkpt lat="40.6896306" lon="-3.9104686"><ele>933.5</ele><time>2026-04-10T09:57:54.002Z</time></trkpt><trkpt lat="40.6895837" lon="-3.9106036"><ele>933.0</ele><time>2026-04-10T09:57:55.001Z</time></trkpt><trkpt lat="40.6895402" lon="-3.9107494"><ele>933.0</ele><time>2026-04-10T09:57:56.002Z</time></trkpt><trkpt lat="40.6895061" lon="-3.910893"><ele>933.0</ele><time>2026-04-10T09:57:57.002Z</time></trkpt><trkpt lat="40.6894777" lon="-3.911032"><ele>933.0</ele><time>2026-04-10T09:57:58.002Z</time></trkpt><trkpt lat="40.689447" lon="-3.9111627"><ele>933.0</ele><time>2026-04-10T09:57:59.002Z</time></trkpt><trkpt lat="40.6894086" lon="-3.9112725"><ele>933.0</ele><time>2026-04-10T09:58:00.002Z</time></trkpt><trkpt lat="40.6893432" lon="-3.9113605"><ele>933.0</ele><time>2026-04-10T09:58:01.002Z</time></trkpt><trkpt lat="40.6892784" lon="-3.9114382"><ele>933.0</ele><time>2026-04-10T09:58:02.002Z</time></trkpt><trkpt lat="40.6892245" lon="-3.9115321"><ele>933.0</ele><time>2026-04-10T09:58:03.002Z</time></trkpt><trkpt lat="40.6891755" lon="-3.9116419"><ele>933.0</ele><time>2026-04-10T09:58:04.002Z</time></trkpt><trkpt lat="40.6891364" lon="-3.911771"><ele>933.0</ele><time>2026-04-10T09:58:05.002Z</time></trkpt><trkpt lat="40.6891009" lon="-3.911902"><ele>933.0</ele><time>2026-04-10T09:58:06.001Z</time></trkpt><trkpt lat="40.6890618" lon="-3.9120317"><ele>933.0</ele><time>2026-04-10T09:58:07.002Z</time></trkpt><trkpt lat="40.6890198" lon="-3.9121577"><ele>933.0</ele><time>2026-04-10T09:58:08.002Z</time></trkpt><trkpt lat="40.6889806" lon="-3.9122856"><ele>933.0</ele><time>2026-04-10T09:58:09.001Z</time></trkpt><trkpt lat="40.6889528" lon="-3.9124089"><ele>933.0</ele><time>2026-04-10T09:58:10.001Z</time></trkpt><trkpt lat="40.6889442" lon="-3.9125311"><ele>933.5999999999999</ele><time>2026-04-10T09:58:11.002Z</time></trkpt><trkpt lat="40.6889364" lon="-3.912652"><ele>934.1999999999999</ele><time>2026-04-10T09:58:12.002Z</time></trkpt><trkpt lat="40.6889341" lon="-3.9127814"><ele>934.8</ele><time>2026-04-10T09:58:13.002Z</time></trkpt><trkpt lat="40.68894" lon="-3.9129183"><ele>935.4</ele><time>2026-04-10T09:58:14.002Z</time></trkpt><trkpt lat="40.6889549" lon="-3.9130547"><ele>936.0</ele><time>2026-04-10T09:58:15.002Z</time></trkpt><trkpt lat="40.688974" lon="-3.9131912"><ele>936.0</ele><time>2026-04-10T09:58:16.002Z</time></trkpt><trkpt lat="40.6889859" lon="-3.913336"><ele>935.9999999999999</ele><time>2026-04-10T09:58:17.002Z</time></trkpt><trkpt lat="40.6889924" lon="-3.9134803"><ele>935.9999999999999</ele><time>2026-04-10T09:58:18.002Z</time></trkpt><trkpt lat="40.688992" lon="-3.9136276"><ele>936.0</ele><time>2026-04-10T09:58:19.002Z</time></trkpt><trkpt lat="40.6889837" lon="-3.9137647"><ele>936.0</ele><time>2026-04-10T09:58:20.002Z</time></trkpt><trkpt lat="40.6889802" lon="-3.9138864"><ele>936.3333333333334</ele><time>2026-04-10T09:58:21.002Z</time></trkpt><trkpt lat="40.6889831" lon="-3.9139988"><ele>936.6666666666667</ele><time>2026-04-10T09:58:22.002Z</time></trkpt><trkpt lat="40.6889989" lon="-3.9140997"><ele>937.0</ele><time>2026-04-10T09:58:23.002Z</time></trkpt><trkpt lat="40.6890266" lon="-3.9142017"><ele>937.3333333333334</ele><time>2026-04-10T09:58:24.002Z</time></trkpt><trkpt lat="40.6890543" lon="-3.9143238"><ele>937.6666666666667</ele><time>2026-04-10T09:58:25.002Z</time></trkpt><trkpt lat="40.6890846" lon="-3.9144549"><ele>938.0</ele><time>2026-04-10T09:58:26.001Z</time></trkpt><trkpt lat="40.6891124" lon="-3.9145913"><ele>938.0</ele><time>2026-04-10T09:58:27.002Z</time></trkpt><trkpt lat="40.6891388" lon="-3.9147267"><ele>938.0</ele><time>2026-04-10T09:58:28.002Z</time></trkpt><trkpt lat="40.6891596" lon="-3.9148593"><ele>938.0</ele><time>2026-04-10T09:58:29.002Z</time></trkpt><trkpt lat="40.6891768" lon="-3.9149858"><ele>938.0</ele><time>2026-04-10T09:58:30.002Z</time></trkpt><trkpt lat="40.6891875" lon="-3.9151012"><ele>938.0</ele><time>2026-04-10T09:58:31.002Z</time></trkpt><trkpt lat="40.6892092" lon="-3.91522"><ele>938.5999999999999</ele><time>2026-04-10T09:58:32.002Z</time></trkpt><trkpt lat="40.6892385" lon="-3.9153351"><ele>939.1999999999999</ele><time>2026-04-10T09:58:33.001Z</time></trkpt><trkpt lat="40.6892707" lon="-3.9154399"><ele>939.8</ele><time>2026-04-10T09:58:34.002Z</time></trkpt><trkpt lat="40.6892925" lon="-3.9155544"><ele>940.4</ele><time>2026-04-10T09:58:35.002Z</time></trkpt><trkpt lat="40.6893107" lon="-3.9156829"><ele>941.0</ele><time>2026-04-10T09:58:36.002Z</time></trkpt><trkpt lat="40.6893312" lon="-3.9158218"><ele>941.4</ele><time>2026-04-10T09:58:37.001Z</time></trkpt><trkpt lat="40.6893416" lon="-3.9159728"><ele>941.8</ele><time>2026-04-10T09:58:38.002Z</time></trkpt><trkpt lat="40.6893155" lon="-3.9161106"><ele>942.1999999999999</ele><time>2026-04-10T09:58:39.002Z</time></trkpt><trkpt lat="40.6892816" lon="-3.916231"><ele>942.5999999999999</ele><time>2026-04-10T09:58:40.002Z</time></trkpt><trkpt lat="40.6892531" lon="-3.9163465"><ele>943.0</ele><time>2026-04-10T09:58:41.001Z</time></trkpt><trkpt lat="40.6892446" lon="-3.9164628"><ele>943.0</ele><time>2026-04-10T09:58:42.002Z</time></trkpt><trkpt lat="40.6892486" lon="-3.9165885"><ele>943.0</ele><time>2026-04-10T09:58:43.002Z</time></trkpt><trkpt lat="40.6892611" lon="-3.9167214"><ele>943.0</ele><time>2026-04-10T09:58:44.002Z</time></trkpt><trkpt lat="40.6892838" lon="-3.9168551"><ele>943.0</ele><time>2026-04-10T09:58:45.002Z</time></trkpt><trkpt lat="40.6893037" lon="-3.9169964"><ele>943.0</ele><time>2026-04-10T09:58:46.002Z</time></trkpt><trkpt lat="40.6893169" lon="-3.9171542"><ele>943.25</ele><time>2026-04-10T09:58:47.002Z</time></trkpt><trkpt lat="40.6893295" lon="-3.9173229"><ele>943.5</ele><time>2026-04-10T09:58:48.002Z</time></trkpt><trkpt lat="40.6893412" lon="-3.9175058"><ele>943.75</ele><time>2026-04-10T09:58:49.002Z</time></trkpt><trkpt lat="40.6893502" lon="-3.9176941"><ele>944.0</ele><time>2026-04-10T09:58:50.002Z</time></trkpt><trkpt lat="40.6893627" lon="-3.9178809"><ele>944.75</ele><time>2026-04-10T09:58:51.002Z</time></trkpt><trkpt lat="40.689373" lon="-3.9180698"><ele>945.5</ele><time>2026-04-10T09:58:52.002Z</time></trkpt><trkpt lat="40.6893818" lon="-3.9182601"><ele>946.25</ele><time>2026-04-10T09:58:53.002Z</time></trkpt><trkpt lat="40.6893901" lon="-3.9184521"><ele>947.0</ele><time>2026-04-10T09:58:54.002Z</time></trkpt><trkpt lat="40.68939" lon="-3.9186327"><ele>947.25</ele><time>2026-04-10T09:58:55.002Z</time></trkpt><trkpt lat="40.689375" lon="-3.9187985"><ele>947.5</ele><time>2026-04-10T09:58:56.002Z</time></trkpt><trkpt lat="40.689355" lon="-3.9189705"><ele>947.75</ele><time>2026-04-10T09:58:57.002Z</time></trkpt><trkpt lat="40.6893351" lon="-3.9191288"><ele>948.0</ele><time>2026-04-10T09:58:58.001Z</time></trkpt><trkpt lat="40.6893129" lon="-3.9192804"><ele>948.5999999999999</ele><time>2026-04-10T09:58:59.002Z</time></trkpt><trkpt lat="40.6892932" lon="-3.9194161"><ele>949.1999999999999</ele><time>2026-04-10T09:59:00.001Z</time></trkpt><trkpt lat="40.6892689" lon="-3.9195332"><ele>949.8</ele><time>2026-04-10T09:59:01.002Z</time></trkpt><trkpt lat="40.6892306" lon="-3.9196494"><ele>950.4</ele><time>2026-04-10T09:59:02.002Z</time></trkpt><trkpt lat="40.6892006" lon="-3.9197638"><ele>951.0</ele><time>2026-04-10T09:59:03.002Z</time></trkpt><trkpt lat="40.6891953" lon="-3.9198823"><ele>951.0</ele><time>2026-04-10T09:59:04.002Z</time></trkpt><trkpt lat="40.6892077" lon="-3.9199932"><ele>951.0</ele><time>2026-04-10T09:59:05.002Z</time></trkpt><trkpt lat="40.6892488" lon="-3.9200848"><ele>951.0</ele><time>2026-04-10T09:59:06.002Z</time></trkpt><trkpt lat="40.689296" lon="-3.9201873"><ele>951.0</ele><time>2026-04-10T09:59:07.002Z</time></trkpt><trkpt lat="40.6893294" lon="-3.9202951"><ele>951.0</ele><time>2026-04-10T09:59:08.001Z</time></trkpt><trkpt lat="40.6893438" lon="-3.9204137"><ele>951.0</ele><time>2026-04-10T09:59:09.002Z</time></trkpt><trkpt lat="40.6893492" lon="-3.9205398"><ele>952.4</ele><time>2026-04-10T09:59:10.002Z</time></trkpt><trkpt lat="40.6893416" lon="-3.9206723"><ele>953.8</ele><time>2026-04-10T09:59:11.002Z</time></trkpt><trkpt lat="40.6893307" lon="-3.9208125"><ele>955.1999999999999</ele><time>2026-04-10T09:59:12.002Z</time></trkpt><trkpt lat="40.6893234" lon="-3.9209546"><ele>956.5999999999999</ele><time>2026-04-10T09:59:13.002Z</time></trkpt><trkpt lat="40.6893234" lon="-3.9210991"><ele>958.0</ele><time>2026-04-10T09:59:14.002Z</time></trkpt><trkpt lat="40.6893223" lon="-3.9212409"><ele>958.5999999999999</ele><time>2026-04-10T09:59:15.002Z</time></trkpt><trkpt lat="40.6893132" lon="-3.9213747"><ele>959.1999999999999</ele><time>2026-04-10T09:59:16.002Z</time></trkpt><trkpt lat="40.6892864" lon="-3.9214966"><ele>959.8</ele><time>2026-04-10T09:59:17.001Z</time></trkpt><trkpt lat="40.6892535" lon="-3.9216074"><ele>960.4</ele><time>2026-04-10T09:59:18.002Z</time></trkpt><trkpt lat="40.689212" lon="-3.9217165"><ele>961.0</ele><time>2026-04-10T09:59:19.002Z</time></trkpt><trkpt lat="40.6891557" lon="-3.9218249"><ele>961.1999999999999</ele><time>2026-04-10T09:59:20.002Z</time></trkpt><trkpt lat="40.6890971" lon="-3.9219385"><ele>961.3999999999999</ele><time>2026-04-10T09:59:21.001Z</time></trkpt><trkpt lat="40.6890415" lon="-3.9220591"><ele>961.6</ele><time>2026-04-10T09:59:22.002Z</time></trkpt><trkpt lat="40.6889895" lon="-3.9221921"><ele>961.8</ele><time>2026-04-10T09:59:23.002Z</time></trkpt><trkpt lat="40.6889546" lon="-3.9223377"><ele>962.0</ele><time>2026-04-10T09:59:24.002Z</time></trkpt><trkpt lat="40.6889179" lon="-3.9224822"><ele>961.75</ele><time>2026-04-10T09:59:25.002Z</time></trkpt><trkpt lat="40.6888813" lon="-3.922627"><ele>961.5</ele><time>2026-04-10T09:59:26.002Z</time></trkpt><trkpt lat="40.6888449" lon="-3.9227778"><ele>961.25</ele><time>2026-04-10T09:59:27.002Z</time></trkpt><trkpt lat="40.6888013" lon="-3.922936"><ele>961.0</ele><time>2026-04-10T09:59:28.002Z</time></trkpt><trkpt lat="40.6887641" lon="-3.9231026"><ele>961.0</ele><time>2026-04-10T09:59:29.002Z</time></trkpt><trkpt lat="40.6887354" lon="-3.9232633"><ele>961.0</ele><time>2026-04-10T09:59:30.002Z</time></trkpt><trkpt lat="40.6887085" lon="-3.9234247"><ele>961.0</ele><time>2026-04-10T09:59:31.002Z</time></trkpt><trkpt lat="40.6886818" lon="-3.9235866"><ele>961.0</ele><time>2026-04-10T09:59:32.002Z</time></trkpt><trkpt lat="40.6886547" lon="-3.9237508"><ele>960.25</ele><time>2026-04-10T09:59:33.002Z</time></trkpt><trkpt lat="40.6886195" lon="-3.9239082"><ele>959.5</ele><time>2026-04-10T09:59:34.002Z</time></trkpt><trkpt lat="40.688589" lon="-3.9240806"><ele>958.75</ele><time>2026-04-10T09:59:35.002Z</time></trkpt><trkpt lat="40.6885594" lon="-3.9242549"><ele>958.0</ele><time>2026-04-10T09:59:36.002Z</time></trkpt><trkpt lat="40.688533" lon="-3.9244314"><ele>959.75</ele><time>2026-04-10T09:59:37.002Z</time></trkpt><trkpt lat="40.6885106" lon="-3.9246046"><ele>961.5</ele><time>2026-04-10T09:59:38.002Z</time></trkpt><trkpt lat="40.6884951" lon="-3.9247728"><ele>963.25</ele><time>2026-04-10T09:59:39.002Z</time></trkpt><trkpt lat="40.688479" lon="-3.92493"><ele>965.0</ele><time>2026-04-10T09:59:40.002Z</time></trkpt><trkpt lat="40.6884619" lon="-3.9250789"><ele>965.25</ele><time>2026-04-10T09:59:41.002Z</time></trkpt><trkpt lat="40.6884368" lon="-3.9252333"><ele>965.5</ele><time>2026-04-10T09:59:42.001Z</time></trkpt><trkpt lat="40.6884014" lon="-3.9253877"><ele>965.75</ele><time>2026-04-10T09:59:43.002Z</time></trkpt><trkpt lat="40.6883611" lon="-3.9255292"><ele>966.0</ele><time>2026-04-10T09:59:44.002Z</time></trkpt><trkpt lat="40.6883239" lon="-3.9256535"><ele>966.0</ele><time>2026-04-10T09:59:45.002Z</time></trkpt><trkpt lat="40.6882937" lon="-3.9257687"><ele>966.0</ele><time>2026-04-10T09:59:46.002Z</time></trkpt><trkpt lat="40.6882703" lon="-3.925874"><ele>966.0</ele><time>2026-04-10T09:59:47.002Z</time></trkpt><trkpt lat="40.6882697" lon="-3.9259701"><ele>966.0</ele><time>2026-04-10T09:59:48.002Z</time></trkpt><trkpt lat="40.6882988" lon="-3.9260558"><ele>966.0</ele><time>2026-04-10T09:59:49.002Z</time></trkpt><trkpt lat="40.688343" lon="-3.926136"><ele>966.0</ele><time>2026-04-10T09:59:50.002Z</time></trkpt><trkpt lat="40.6883861" lon="-3.9262189"><ele>966.8333333333334</ele><time>2026-04-10T09:59:51.002Z</time></trkpt><trkpt lat="40.6884281" lon="-3.9263098"><ele>967.6666666666667</ele><time>2026-04-10T09:59:52.002Z</time></trkpt><trkpt lat="40.6884487" lon="-3.926411"><ele>968.5</ele><time>2026-04-10T09:59:53.002Z</time></trkpt><trkpt lat="40.6884592" lon="-3.9265017"><ele>969.3333333333334</ele><time>2026-04-10T09:59:54.002Z</time></trkpt><trkpt lat="40.6884634" lon="-3.9266041"><ele>970.1666666666667</ele><time>2026-04-10T09:59:55.002Z</time></trkpt><trkpt lat="40.6884716" lon="-3.926718"><ele>971.0</ele><time>2026-04-10T09:59:56.002Z</time></trkpt><trkpt lat="40.6884825" lon="-3.9268345"><ele>971.0</ele><time>2026-04-10T09:59:57.002Z</time></trkpt><trkpt lat="40.6884901" lon="-3.9269579"><ele>970.9999999999999</ele><time>2026-04-10T09:59:58.002Z</time></trkpt><trkpt lat="40.6884908" lon="-3.9270848"><ele>970.9999999999999</ele><time>2026-04-10T09:59:59.002Z</time></trkpt><trkpt lat="40.6884781" lon="-3.9272089"><ele>971.0</ele><time>2026-04-10T10:00:00.002Z</time></trkpt><trkpt lat="40.6884485" lon="-3.9273375"><ele>971.0</ele><time>2026-04-10T10:00:01.002Z</time></trkpt><trkpt lat="40.688406" lon="-3.9274566"><ele>970.8333333333334</ele><time>2026-04-10T10:00:02.002Z</time></trkpt><trkpt lat="40.68837" lon="-3.9275703"><ele>970.6666666666667</ele><time>2026-04-10T10:00:03.002Z</time></trkpt><trkpt lat="40.6883584" lon="-3.9276844"><ele>970.5</ele><time>2026-04-10T10:00:04.002Z</time></trkpt><trkpt lat="40.6883834" lon="-3.9277897"><ele>970.3333333333333</ele><time>2026-04-10T10:00:05.002Z</time></trkpt><trkpt lat="40.6884272" lon="-3.9278736"><ele>970.1666666666666</ele><time>2026-04-10T10:00:06.002Z</time></trkpt><trkpt lat="40.6884824" lon="-3.9279587"><ele>970.0</ele><time>2026-04-10T10:00:07.002Z</time></trkpt><trkpt lat="40.6885405" lon="-3.9280393"><ele>969.8333333333333</ele><time>2026-04-10T10:00:08.002Z</time></trkpt><trkpt lat="40.6885988" lon="-3.9281381"><ele>969.6666666666666</ele><time>2026-04-10T10:00:09.001Z</time></trkpt><trkpt lat="40.6886518" lon="-3.9282376"><ele>969.5</ele><time>2026-04-10T10:00:10.002Z</time></trkpt><trkpt lat="40.6887027" lon="-3.9283302"><ele>969.3333333333333</ele><time>2026-04-10T10:00:11.001Z</time></trkpt><trkpt lat="40.6887619" lon="-3.928407"><ele>969.1666666666666</ele><time>2026-04-10T10:00:12.002Z</time></trkpt><trkpt lat="40.6888272" lon="-3.9284664"><ele>969.0</ele><time>2026-04-10T10:00:13.002Z</time></trkpt><trkpt lat="40.6888947" lon="-3.9285232"><ele>968.0</ele><time>2026-04-10T10:00:14.002Z</time></trkpt><trkpt lat="40.6889712" lon="-3.9285895"><ele>967.0</ele><time>2026-04-10T10:00:15.001Z</time></trkpt><trkpt lat="40.6890446" lon="-3.9286445"><ele>966.0</ele><time>2026-04-10T10:00:16.002Z</time></trkpt><trkpt lat="40.6891128" lon="-3.9286826"><ele>965.0</ele><time>2026-04-10T10:00:17.002Z</time></trkpt><trkpt lat="40.6891808" lon="-3.9287183"><ele>964.0</ele><time>2026-04-10T10:00:18.002Z</time></trkpt><trkpt lat="40.689246" lon="-3.9287467"><ele>963.0</ele><time>2026-04-10T10:00:19.002Z</time></trkpt><trkpt lat="40.6893169" lon="-3.9287697"><ele>963.0</ele><time>2026-04-10T10:00:20.002Z</time></trkpt><trkpt lat="40.6893915" lon="-3.9287911"><ele>963.0</ele><time>2026-04-10T10:00:21.002Z</time></trkpt><trkpt lat="40.6894669" lon="-3.928829"><ele>963.0</ele><time>2026-04-10T10:00:22.001Z</time></trkpt><trkpt lat="40.6895374" lon="-3.9288927"><ele>963.0</ele><time>2026-04-10T10:00:23.002Z</time></trkpt><trkpt lat="40.6896108" lon="-3.9289682"><ele>963.0</ele><time>2026-04-10T10:00:24.002Z</time></trkpt><trkpt lat="40.6896898" lon="-3.9290401"><ele>963.0</ele><time>2026-04-10T10:00:25.002Z</time></trkpt><trkpt lat="40.689769" lon="-3.9291057"><ele>962.4</ele><time>2026-04-10T10:00:26.002Z</time></trkpt><trkpt lat="40.6898462" lon="-3.9291713"><ele>961.8</ele><time>2026-04-10T10:00:27.001Z</time></trkpt><trkpt lat="40.6899194" lon="-3.9292391"><ele>961.2</ele><time>2026-04-10T10:00:28.002Z</time></trkpt><trkpt lat="40.6899982" lon="-3.929306"><ele>960.6</ele><time>2026-04-10T10:00:29.002Z</time></trkpt><trkpt lat="40.6900699" lon="-3.9293733"><ele>960.0</ele><time>2026-04-10T10:00:30.002Z</time></trkpt><trkpt lat="40.6901478" lon="-3.9294403"><ele>959.3333333333334</ele><time>2026-04-10T10:00:31.002Z</time></trkpt><trkpt lat="40.690225" lon="-3.9295134"><ele>958.6666666666667</ele><time>2026-04-10T10:00:32.002Z</time></trkpt><trkpt lat="40.6902988" lon="-3.9295903"><ele>958.0</ele><time>2026-04-10T10:00:33.002Z</time></trkpt><trkpt lat="40.6903732" lon="-3.9296617"><ele>957.3333333333334</ele><time>2026-04-10T10:00:34.002Z</time></trkpt><trkpt lat="40.6904358" lon="-3.9297354"><ele>956.6666666666667</ele><time>2026-04-10T10:00:35.002Z</time></trkpt><trkpt lat="40.6904902" lon="-3.9298134"><ele>956.0</ele><time>2026-04-10T10:00:36.002Z</time></trkpt><trkpt lat="40.690541" lon="-3.9298904"><ele>954.5000000000001</ele><time>2026-04-10T10:00:37.002Z</time></trkpt><trkpt lat="40.6905995" lon="-3.92996"><ele>953.0</ele><time>2026-04-10T10:00:38.002Z</time></trkpt><trkpt lat="40.6906562" lon="-3.9300146"><ele>951.5</ele><time>2026-04-10T10:00:39.002Z</time></trkpt><trkpt lat="40.6907272" lon="-3.9300517"><ele>950.0</ele><time>2026-04-10T10:00:40.002Z</time></trkpt><trkpt lat="40.6908101" lon="-3.9300809"><ele>948.5000000000001</ele><time>2026-04-10T10:00:41.002Z</time></trkpt><trkpt lat="40.6908944" lon="-3.9301058"><ele>947.0</ele><time>2026-04-10T10:00:42.002Z</time></trkpt><trkpt lat="40.6909805" lon="-3.9301287"><ele>946.1666666666667</ele><time>2026-04-10T10:00:43.002Z</time></trkpt><trkpt lat="40.6910511" lon="-3.9301583"><ele>945.3333333333334</ele><time>2026-04-10T10:00:44.002Z</time></trkpt><trkpt lat="40.691119" lon="-3.9301746"><ele>944.5</ele><time>2026-04-10T10:00:45.002Z</time></trkpt><trkpt lat="40.6911862" lon="-3.9301793"><ele>943.6666666666667</ele><time>2026-04-10T10:00:46.002Z</time></trkpt><trkpt lat="40.691252" lon="-3.9301807"><ele>942.8333333333334</ele><time>2026-04-10T10:00:47.002Z</time></trkpt><trkpt lat="40.6913617" lon="-3.9301903"><ele>942.0</ele><time>2026-04-10T10:00:49.002Z</time></trkpt><trkpt lat="40.6914413" lon="-3.930224"><ele>940.8333333333334</ele><time>2026-04-10T10:00:52.002Z</time></trkpt><trkpt lat="40.6914931" lon="-3.9302756"><ele>939.6666666666667</ele><time>2026-04-10T10:00:54.002Z</time></trkpt><trkpt lat="40.691551" lon="-3.9303094"><ele>938.5</ele><time>2026-04-10T10:00:56.002Z</time></trkpt><trkpt lat="40.6916368" lon="-3.9303391"><ele>937.3333333333334</ele><time>2026-04-10T10:00:58.002Z</time></trkpt><trkpt lat="40.691751" lon="-3.9303822"><ele>936.1666666666667</ele><time>2026-04-10T10:01:00.001Z</time></trkpt><trkpt lat="40.6918153" lon="-3.9303985"><ele>935.0</ele><time>2026-04-10T10:01:01.002Z</time></trkpt><trkpt lat="40.6918779" lon="-3.9304204"><ele>935.2</ele><time>2026-04-10T10:01:02.002Z</time></trkpt><trkpt lat="40.6919859" lon="-3.9305305"><ele>935.4</ele><time>2026-04-10T10:01:04.002Z</time></trkpt><trkpt lat="40.6920313" lon="-3.93063"><ele>935.5999999999999</ele><time>2026-04-10T10:01:05.001Z</time></trkpt><trkpt lat="40.6920798" lon="-3.9307444"><ele>935.8</ele><time>2026-04-10T10:01:06.002Z</time></trkpt><trkpt lat="40.6921228" lon="-3.9308583"><ele>936.0</ele><time>2026-04-10T10:01:07.002Z</time></trkpt><trkpt lat="40.6921665" lon="-3.9309825"><ele>936.1999999999999</ele><time>2026-04-10T10:01:08.001Z</time></trkpt><trkpt lat="40.6922201" lon="-3.9311037"><ele>936.3999999999999</ele><time>2026-04-10T10:01:09.002Z</time></trkpt><trkpt lat="40.6922609" lon="-3.9312191"><ele>936.6</ele><time>2026-04-10T10:01:10.001Z</time></trkpt><trkpt lat="40.6922987" lon="-3.931334"><ele>936.8</ele><time>2026-04-10T10:01:11.002Z</time></trkpt><trkpt lat="40.6923387" lon="-3.9314435"><ele>937.0</ele><time>2026-04-10T10:01:12.002Z</time></trkpt><trkpt lat="40.6923805" lon="-3.9315484"><ele>936.9999999999999</ele><time>2026-04-10T10:01:13.002Z</time></trkpt><trkpt lat="40.692432" lon="-3.9316468"><ele>937.0</ele><time>2026-04-10T10:01:14.002Z</time></trkpt><trkpt lat="40.692482" lon="-3.9317225"><ele>937.0</ele><time>2026-04-10T10:01:15.001Z</time></trkpt><trkpt lat="40.6925282" lon="-3.9317823"><ele>937.0</ele><time>2026-04-10T10:01:16.002Z</time></trkpt><trkpt lat="40.6926143" lon="-3.9318734"><ele>936.9999999999999</ele><time>2026-04-10T10:01:18.002Z</time></trkpt><trkpt lat="40.6926902" lon="-3.9319459"><ele>937.0</ele><time>2026-04-10T10:01:20.002Z</time></trkpt><trkpt lat="40.6927758" lon="-3.9320346"><ele>937.8333333333333</ele><time>2026-04-10T10:01:22.002Z</time></trkpt><trkpt lat="40.6928464" lon="-3.9321592"><ele>938.6666666666666</ele><time>2026-04-10T10:01:24.002Z</time></trkpt><trkpt lat="40.6928907" lon="-3.9322229"><ele>939.5</ele><time>2026-04-10T10:01:25.002Z</time></trkpt><trkpt lat="40.6929446" lon="-3.9322825"><ele>940.3333333333333</ele><time>2026-04-10T10:01:26.002Z</time></trkpt><trkpt lat="40.6929883" lon="-3.9323488"><ele>941.1666666666666</ele><time>2026-04-10T10:01:27.002Z</time></trkpt><trkpt lat="40.6930247" lon="-3.9324331"><ele>942.0</ele><time>2026-04-10T10:01:28.002Z</time></trkpt><trkpt lat="40.6930561" lon="-3.9325197"><ele>942.1666666666666</ele><time>2026-04-10T10:01:29.002Z</time></trkpt><trkpt lat="40.6930872" lon="-3.9326145"><ele>942.3333333333333</ele><time>2026-04-10T10:01:30.002Z</time></trkpt><trkpt lat="40.6931135" lon="-3.9327082"><ele>942.5</ele><time>2026-04-10T10:01:31.001Z</time></trkpt><trkpt lat="40.6931572" lon="-3.9327994"><ele>942.6666666666666</ele><time>2026-04-10T10:01:32.002Z</time></trkpt><trkpt lat="40.6932143" lon="-3.9328786"><ele>942.8333333333333</ele><time>2026-04-10T10:01:33.002Z</time></trkpt><trkpt lat="40.6932881" lon="-3.9329406"><ele>943.0</ele><time>2026-04-10T10:01:34.002Z</time></trkpt><trkpt lat="40.6933603" lon="-3.9330078"><ele>943.0</ele><time>2026-04-10T10:01:35.002Z</time></trkpt><trkpt lat="40.6934292" lon="-3.9330774"><ele>943.0</ele><time>2026-04-10T10:01:36.002Z</time></trkpt><trkpt lat="40.6935007" lon="-3.9331331"><ele>943.0</ele><time>2026-04-10T10:01:37.002Z</time></trkpt><trkpt lat="40.6935775" lon="-3.9331818"><ele>943.0</ele><time>2026-04-10T10:01:38.002Z</time></trkpt><trkpt lat="40.6936695" lon="-3.9332242"><ele>943.0</ele><time>2026-04-10T10:01:39.002Z</time></trkpt><trkpt lat="40.6937665" lon="-3.9332676"><ele>943.0</ele><time>2026-04-10T10:01:40.002Z</time></trkpt><trkpt lat="40.6938571" lon="-3.9332972"><ele>943.0</ele><time>2026-04-10T10:01:41.002Z</time></trkpt><trkpt lat="40.6939378" lon="-3.9333283"><ele>943.0</ele><time>2026-04-10T10:01:42.002Z</time></trkpt><trkpt lat="40.6940083" lon="-3.9333508"><ele>943.0</ele><time>2026-04-10T10:01:43.002Z</time></trkpt><trkpt lat="40.6941216" lon="-3.9333145"><ele>943.0</ele><time>2026-04-10T10:01:45.002Z</time></trkpt><trkpt lat="40.6941925" lon="-3.9331786"><ele>942.9999999999999</ele><time>2026-04-10T10:01:47.002Z</time></trkpt><trkpt lat="40.694232" lon="-3.9330934"><ele>943.0</ele><time>2026-04-10T10:01:48.002Z</time></trkpt><trkpt lat="40.6942911" lon="-3.933018"><ele>943.0</ele><time>2026-04-10T10:01:49.002Z</time></trkpt><trkpt lat="40.6943535" lon="-3.9329506"><ele>943.0</ele><time>2026-04-10T10:01:50.002Z</time></trkpt><trkpt lat="40.6944013" lon="-3.9328775"><ele>942.9999999999999</ele><time>2026-04-10T10:01:51.002Z</time></trkpt><trkpt lat="40.6944385" lon="-3.9327963"><ele>943.0</ele><time>2026-04-10T10:01:52.002Z</time></trkpt><trkpt lat="40.694483" lon="-3.9327055"><ele>943.1666666666666</ele><time>2026-04-10T10:01:53.001Z</time></trkpt><trkpt lat="40.6945377" lon="-3.9326181"><ele>943.3333333333333</ele><time>2026-04-10T10:01:54.002Z</time></trkpt><trkpt lat="40.6945728" lon="-3.9325246"><ele>943.5</ele><time>2026-04-10T10:01:55.002Z</time></trkpt><trkpt lat="40.6945836" lon="-3.9324318"><ele>943.6666666666667</ele><time>2026-04-10T10:01:56.002Z</time></trkpt><trkpt lat="40.6945992" lon="-3.9323402"><ele>943.8333333333334</ele><time>2026-04-10T10:01:57.002Z</time></trkpt><trkpt lat="40.694632" lon="-3.9322577"><ele>944.0</ele><time>2026-04-10T10:01:58.002Z</time></trkpt><trkpt lat="40.694669" lon="-3.9321707"><ele>943.6666666666667</ele><time>2026-04-10T10:01:59.002Z</time></trkpt><trkpt lat="40.6947081" lon="-3.9320822"><ele>943.3333333333334</ele><time>2026-04-10T10:02:00.002Z</time></trkpt><trkpt lat="40.6947459" lon="-3.931994"><ele>943.0</ele><time>2026-04-10T10:02:01.002Z</time></trkpt><trkpt lat="40.6948002" lon="-3.9319222"><ele>942.6666666666667</ele><time>2026-04-10T10:02:02.002Z</time></trkpt><trkpt lat="40.6948713" lon="-3.9318644"><ele>942.3333333333334</ele><time>2026-04-10T10:02:03.002Z</time></trkpt><trkpt lat="40.6949595" lon="-3.9318089"><ele>942.0</ele><time>2026-04-10T10:02:04.001Z</time></trkpt><trkpt lat="40.6950482" lon="-3.9317597"><ele>942.0</ele><time>2026-04-10T10:02:05.002Z</time></trkpt><trkpt lat="40.6951461" lon="-3.9317436"><ele>942.0</ele><time>2026-04-10T10:02:06.001Z</time></trkpt><trkpt lat="40.6952443" lon="-3.9317515"><ele>942.0</ele><time>2026-04-10T10:02:07.002Z</time></trkpt><trkpt lat="40.6953575" lon="-3.9317657"><ele>942.0</ele><time>2026-04-10T10:02:08.002Z</time></trkpt><trkpt lat="40.6954697" lon="-3.9317796"><ele>942.0</ele><time>2026-04-10T10:02:09.002Z</time></trkpt><trkpt lat="40.6955907" lon="-3.9317789"><ele>942.2</ele><time>2026-04-10T10:02:10.002Z</time></trkpt><trkpt lat="40.6957098" lon="-3.9317667"><ele>942.4000000000001</ele><time>2026-04-10T10:02:11.002Z</time></trkpt><trkpt lat="40.6958192" lon="-3.931744"><ele>942.5999999999999</ele><time>2026-04-10T10:02:12.001Z</time></trkpt><trkpt lat="40.6959246" lon="-3.9317206"><ele>942.8</ele><time>2026-04-10T10:02:13.002Z</time></trkpt><trkpt lat="40.6960276" lon="-3.9317123"><ele>943.0</ele><time>2026-04-10T10:02:14.002Z</time></trkpt><trkpt lat="40.6961276" lon="-3.9316921"><ele>943.5999999999999</ele><time>2026-04-10T10:02:15.002Z</time></trkpt><trkpt lat="40.6962227" lon="-3.931666"><ele>944.1999999999999</ele><time>2026-04-10T10:02:16.002Z</time></trkpt><trkpt lat="40.696313" lon="-3.9316336"><ele>944.8</ele><time>2026-04-10T10:02:17.002Z</time></trkpt><trkpt lat="40.6964039" lon="-3.9316142"><ele>945.4</ele><time>2026-04-10T10:02:18.002Z</time></trkpt><trkpt lat="40.6964999" lon="-3.9316179"><ele>946.0</ele><time>2026-04-10T10:02:19.002Z</time></trkpt><trkpt lat="40.6965912" lon="-3.9316502"><ele>946.1999999999999</ele><time>2026-04-10T10:02:20.002Z</time></trkpt><trkpt lat="40.6966829" lon="-3.9317302"><ele>946.3999999999999</ele><time>2026-04-10T10:02:21.002Z</time></trkpt><trkpt lat="40.6967752" lon="-3.9318077"><ele>946.6</ele><time>2026-04-10T10:02:22.002Z</time></trkpt><trkpt lat="40.6968667" lon="-3.931878"><ele>946.8</ele><time>2026-04-10T10:02:23.002Z</time></trkpt><trkpt lat="40.696954" lon="-3.9319364"><ele>947.0</ele><time>2026-04-10T10:02:24.002Z</time></trkpt><trkpt lat="40.6970252" lon="-3.9319946"><ele>947.2857142857142</ele><time>2026-04-10T10:02:25.002Z</time></trkpt><trkpt lat="40.6970951" lon="-3.9320432"><ele>947.5714285714284</ele><time>2026-04-10T10:02:26.002Z</time></trkpt><trkpt lat="40.6971695" lon="-3.9320771"><ele>947.8571428571429</ele><time>2026-04-10T10:02:27.002Z</time></trkpt><trkpt lat="40.6972459" lon="-3.9320988"><ele>948.1428571428571</ele><time>2026-04-10T10:02:28.001Z</time></trkpt><trkpt lat="40.6973201" lon="-3.932106"><ele>948.4285714285714</ele><time>2026-04-10T10:02:29.002Z</time></trkpt><trkpt lat="40.6973861" lon="-3.9321172"><ele>948.7142857142858</ele><time>2026-04-10T10:02:30.002Z</time></trkpt><trkpt lat="40.6974436" lon="-3.9321523"><ele>949.0000000000001</ele><time>2026-04-10T10:02:31.002Z</time></trkpt><trkpt lat="40.6974823" lon="-3.9322606"><ele>949.0</ele><time>2026-04-10T10:02:33.002Z</time></trkpt><trkpt lat="40.6974639" lon="-3.9323406"><ele>949.0</ele><time>2026-04-10T10:02:35.002Z</time></trkpt><trkpt lat="40.6975019" lon="-3.9322603"><ele>949.0</ele><time>2026-04-10T10:04:13.002Z</time></trkpt><trkpt lat="40.6975669" lon="-3.9322822"><ele>949.0</ele><time>2026-04-10T10:04:54.002Z</time></trkpt></trkseg><trkseg><trkpt lat="40.6975315" lon="-3.9323155"><ele>949.0</ele><time>2026-04-10T10:45:05.052Z</time></trkpt><trkpt lat="40.697464" lon="-3.9324472"><ele>949.0000000000001</ele><time>2026-04-10T10:45:55.057Z</time></trkpt><trkpt lat="40.6974348" lon="-3.9325573"><ele>949.0000000000001</ele><time>2026-04-10T10:45:58.059Z</time></trkpt><trkpt lat="40.6974202" lon="-3.9326632"><ele>949.0</ele><time>2026-04-10T10:46:00.081Z</time></trkpt><trkpt lat="40.6974365" lon="-3.9327779"><ele>949.0</ele><time>2026-04-10T10:46:02Z</time></trkpt><trkpt lat="40.6974856" lon="-3.9328565"><ele>949.0</ele><time>2026-04-10T10:46:04.015Z</time></trkpt><trkpt lat="40.6975884" lon="-3.9330001"><ele>949.0000000000001</ele><time>2026-04-10T10:46:06.999Z</time></trkpt><trkpt lat="40.6976415" lon="-3.9330926"><ele>949.0000000000001</ele><time>2026-04-10T10:46:08Z</time></trkpt><trkpt lat="40.6976925" lon="-3.9331762"><ele>949.0</ele><time>2026-04-10T10:46:09Z</time></trkpt><trkpt lat="40.6977311" lon="-3.9332685"><ele>949.0</ele><time>2026-04-10T10:46:10Z</time></trkpt><trkpt lat="40.697772" lon="-3.9333692"><ele>949.6</ele><time>2026-04-10T10:46:11Z</time></trkpt><trkpt lat="40.6978105" lon="-3.9334597"><ele>950.2</ele><time>2026-04-10T10:46:12Z</time></trkpt><trkpt lat="40.6978768" lon="-3.9335531"><ele>950.8000000000001</ele><time>2026-04-10T10:46:14Z</time></trkpt><trkpt lat="40.6979475" lon="-3.9336236"><ele>951.4000000000001</ele><time>2026-04-10T10:46:16Z</time></trkpt><trkpt lat="40.6980422" lon="-3.9335761"><ele>952.0</ele><time>2026-04-10T10:46:19Z</time></trkpt><trkpt lat="40.6981194" lon="-3.9334555"><ele>951.4000000000001</ele><time>2026-04-10T10:46:21Z</time></trkpt><trkpt lat="40.6981976" lon="-3.9333172"><ele>950.8000000000001</ele><time>2026-04-10T10:46:23Z</time></trkpt><trkpt lat="40.6982287" lon="-3.9332343"><ele>950.2</ele><time>2026-04-10T10:46:23.999Z</time></trkpt><trkpt lat="40.6982456" lon="-3.9331516"><ele>949.6</ele><time>2026-04-10T10:46:25Z</time></trkpt><trkpt lat="40.6982869" lon="-3.9330251"><ele>949.0</ele><time>2026-04-10T10:46:27Z</time></trkpt><trkpt lat="40.6983415" lon="-3.9329035"><ele>949.0000000000001</ele><time>2026-04-10T10:46:29Z</time></trkpt><trkpt lat="40.6983806" lon="-3.9328279"><ele>949.0</ele><time>2026-04-10T10:46:30Z</time></trkpt><trkpt lat="40.6984113" lon="-3.932743"><ele>949.0000000000001</ele><time>2026-04-10T10:46:31Z</time></trkpt><trkpt lat="40.6984484" lon="-3.9326558"><ele>949.0000000000001</ele><time>2026-04-10T10:46:32Z</time></trkpt><trkpt lat="40.6984759" lon="-3.9325707"><ele>949.0</ele><time>2026-04-10T10:46:32.999Z</time></trkpt><trkpt lat="40.6984994" lon="-3.9324925"><ele>949.0000000000001</ele><time>2026-04-10T10:46:34Z</time></trkpt><trkpt lat="40.6985222" lon="-3.9324043"><ele>949.0000000000001</ele><time>2026-04-10T10:46:35Z</time></trkpt><trkpt lat="40.6985478" lon="-3.9323114"><ele>948.857142857143</ele><time>2026-04-10T10:46:36Z</time></trkpt><trkpt lat="40.6985744" lon="-3.9322176"><ele>948.7142857142858</ele><time>2026-04-10T10:46:37Z</time></trkpt><trkpt lat="40.6985992" lon="-3.9321267"><ele>948.5714285714286</ele><time>2026-04-10T10:46:38Z</time></trkpt><trkpt lat="40.6986281" lon="-3.9320427"><ele>948.4285714285714</ele><time>2026-04-10T10:46:39Z</time></trkpt><trkpt lat="40.6986664" lon="-3.931962"><ele>948.2857142857142</ele><time>2026-04-10T10:46:40Z</time></trkpt><trkpt lat="40.6987165" lon="-3.9318947"><ele>948.142857142857</ele><time>2026-04-10T10:46:41Z</time></trkpt><trkpt lat="40.6987714" lon="-3.9318347"><ele>947.9999999999999</ele><time>2026-04-10T10:46:42Z</time></trkpt><trkpt lat="40.6988265" lon="-3.9317812"><ele>947.8571428571427</ele><time>2026-04-10T10:46:43Z</time></trkpt><trkpt lat="40.6988873" lon="-3.9317352"><ele>947.7142857142857</ele><time>2026-04-10T10:46:44Z</time></trkpt><trkpt lat="40.6989526" lon="-3.9316832"><ele>947.5714285714284</ele><time>2026-04-10T10:46:45Z</time></trkpt><trkpt lat="40.6990154" lon="-3.9316135"><ele>947.4285714285713</ele><time>2026-04-10T10:46:46Z</time></trkpt><trkpt lat="40.6990709" lon="-3.9315416"><ele>947.2857142857142</ele><time>2026-04-10T10:46:47Z</time></trkpt><trkpt lat="40.6991274" lon="-3.9314811"><ele>947.1428571428571</ele><time>2026-04-10T10:46:48Z</time></trkpt><trkpt lat="40.6991781" lon="-3.9314239"><ele>947.0</ele><time>2026-04-10T10:46:49Z</time></trkpt><trkpt lat="40.6992201" lon="-3.9313575"><ele>946.4000000000001</ele><time>2026-04-10T10:46:49.999Z</time></trkpt><trkpt lat="40.6992604" lon="-3.9312111"><ele>945.8000000000001</ele><time>2026-04-10T10:46:52Z</time></trkpt><trkpt lat="40.6993272" lon="-3.9310641"><ele>945.2</ele><time>2026-04-10T10:46:54Z</time></trkpt><trkpt lat="40.6993864" lon="-3.9310071"><ele>944.6</ele><time>2026-04-10T10:46:55Z</time></trkpt><trkpt lat="40.699461" lon="-3.930962"><ele>944.0</ele><time>2026-04-10T10:46:56Z</time></trkpt><trkpt lat="40.699559" lon="-3.9309259"><ele>943.0</ele><time>2026-04-10T10:46:57Z</time></trkpt><trkpt lat="40.6996722" lon="-3.9308811"><ele>942.0</ele><time>2026-04-10T10:46:58Z</time></trkpt><trkpt lat="40.6997641" lon="-3.9308113"><ele>941.0</ele><time>2026-04-10T10:46:59Z</time></trkpt><trkpt lat="40.6998551" lon="-3.9307193"><ele>940.0</ele><time>2026-04-10T10:47:00Z</time></trkpt><trkpt lat="40.699924" lon="-3.9305999"><ele>940.0</ele><time>2026-04-10T10:47:01Z</time></trkpt><trkpt lat="40.7000009" lon="-3.9304708"><ele>940.0</ele><time>2026-04-10T10:47:02Z</time></trkpt><trkpt lat="40.7000724" lon="-3.9303352"><ele>940.0</ele><time>2026-04-10T10:47:03Z</time></trkpt><trkpt lat="40.7001466" lon="-3.9301924"><ele>940.0</ele><time>2026-04-10T10:47:04Z</time></trkpt><trkpt lat="40.7002319" lon="-3.9300432"><ele>940.0</ele><time>2026-04-10T10:47:05Z</time></trkpt><trkpt lat="40.7003107" lon="-3.9298932"><ele>940.0</ele><time>2026-04-10T10:47:06Z</time></trkpt><trkpt lat="40.7003852" lon="-3.929749"><ele>940.0</ele><time>2026-04-10T10:47:07Z</time></trkpt><trkpt lat="40.7004618" lon="-3.929608"><ele>940.0</ele><time>2026-04-10T10:47:08Z</time></trkpt><trkpt lat="40.7005402" lon="-3.9294661"><ele>940.0</ele><time>2026-04-10T10:47:09Z</time></trkpt><trkpt lat="40.7006156" lon="-3.9293258"><ele>940.0</ele><time>2026-04-10T10:47:10Z</time></trkpt><trkpt lat="40.7006894" lon="-3.9291893"><ele>940.0</ele><time>2026-04-10T10:47:10.999Z</time></trkpt><trkpt lat="40.7007616" lon="-3.9290488"><ele>940.0</ele><time>2026-04-10T10:47:12Z</time></trkpt><trkpt lat="40.7008447" lon="-3.9289095"><ele>939.25</ele><time>2026-04-10T10:47:13Z</time></trkpt><trkpt lat="40.7009208" lon="-3.9287683"><ele>938.5</ele><time>2026-04-10T10:47:14Z</time></trkpt><trkpt lat="40.7009967" lon="-3.9286205"><ele>937.75</ele><time>2026-04-10T10:47:15Z</time></trkpt><trkpt lat="40.7010748" lon="-3.9284746"><ele>937.0</ele><time>2026-04-10T10:47:16Z</time></trkpt><trkpt lat="40.7011494" lon="-3.9283209"><ele>937.0</ele><time>2026-04-10T10:47:16.999Z</time></trkpt><trkpt lat="40.701232" lon="-3.9281654"><ele>937.0</ele><time>2026-04-10T10:47:18Z</time></trkpt><trkpt lat="40.7013021" lon="-3.9279977"><ele>937.0</ele><time>2026-04-10T10:47:19Z</time></trkpt><trkpt lat="40.7013656" lon="-3.9278162"><ele>937.0</ele><time>2026-04-10T10:47:20Z</time></trkpt><trkpt lat="40.7014082" lon="-3.9276217"><ele>936.3333333333333</ele><time>2026-04-10T10:47:21Z</time></trkpt><trkpt lat="40.7014476" lon="-3.9274192"><ele>935.6666666666667</ele><time>2026-04-10T10:47:22Z</time></trkpt><trkpt lat="40.7014755" lon="-3.9272184"><ele>935.0</ele><time>2026-04-10T10:47:23Z</time></trkpt><trkpt lat="40.7015034" lon="-3.9270202"><ele>935.0</ele><time>2026-04-10T10:47:24Z</time></trkpt><trkpt lat="40.7015248" lon="-3.9268102"><ele>935.0</ele><time>2026-04-10T10:47:25Z</time></trkpt><trkpt lat="40.7015448" lon="-3.9266006"><ele>935.0</ele><time>2026-04-10T10:47:26Z</time></trkpt><trkpt lat="40.7015725" lon="-3.9263894"><ele>934.0</ele><time>2026-04-10T10:47:27Z</time></trkpt><trkpt lat="40.7016121" lon="-3.9261707"><ele>933.0</ele><time>2026-04-10T10:47:28Z</time></trkpt><trkpt lat="40.7016639" lon="-3.9259487"><ele>932.0</ele><time>2026-04-10T10:47:28.999Z</time></trkpt><trkpt lat="40.7017242" lon="-3.9257338"><ele>932.6666666666667</ele><time>2026-04-10T10:47:29.999Z</time></trkpt><trkpt lat="40.7017869" lon="-3.925517"><ele>933.3333333333333</ele><time>2026-04-10T10:47:31Z</time></trkpt><trkpt lat="40.7018549" lon="-3.9253062"><ele>934.0</ele><time>2026-04-10T10:47:32Z</time></trkpt><trkpt lat="40.7019244" lon="-3.9250953"><ele>932.6666666666666</ele><time>2026-04-10T10:47:33Z</time></trkpt><trkpt lat="40.7019918" lon="-3.9248868"><ele>931.3333333333333</ele><time>2026-04-10T10:47:34Z</time></trkpt><trkpt lat="40.7020584" lon="-3.9246761"><ele>930.0</ele><time>2026-04-10T10:47:35Z</time></trkpt><trkpt lat="40.7021288" lon="-3.9244645"><ele>930.0</ele><time>2026-04-10T10:47:36Z</time></trkpt><trkpt lat="40.7021989" lon="-3.9242534"><ele>930.0</ele><time>2026-04-10T10:47:36.999Z</time></trkpt><trkpt lat="40.7022681" lon="-3.9240439"><ele>930.0</ele><time>2026-04-10T10:47:38Z</time></trkpt><trkpt lat="40.7023385" lon="-3.9238292"><ele>930.0</ele><time>2026-04-10T10:47:39Z</time></trkpt><trkpt lat="40.7024157" lon="-3.9236075"><ele>930.0</ele><time>2026-04-10T10:47:40Z</time></trkpt><trkpt lat="40.7024923" lon="-3.9233877"><ele>930.0</ele><time>2026-04-10T10:47:41Z</time></trkpt><trkpt lat="40.70256" lon="-3.9231789"><ele>929.3333333333333</ele><time>2026-04-10T10:47:42Z</time></trkpt><trkpt lat="40.7026259" lon="-3.9229862"><ele>928.6666666666666</ele><time>2026-04-10T10:47:43Z</time></trkpt><trkpt lat="40.702692" lon="-3.922792"><ele>928.0</ele><time>2026-04-10T10:47:44Z</time></trkpt><trkpt lat="40.7027661" lon="-3.9226013"><ele>928.0</ele><time>2026-04-10T10:47:45Z</time></trkpt><trkpt lat="40.7028406" lon="-3.9224043"><ele>928.0</ele><time>2026-04-10T10:47:46Z</time></trkpt><trkpt lat="40.7029232" lon="-3.9222108"><ele>928.0</ele><time>2026-04-10T10:47:47Z</time></trkpt><trkpt lat="40.7030188" lon="-3.9220128"><ele>928.0</ele><time>2026-04-10T10:47:48Z</time></trkpt><trkpt lat="40.7031299" lon="-3.9218245"><ele>928.0</ele><time>2026-04-10T10:47:49Z</time></trkpt><trkpt lat="40.7032501" lon="-3.921645"><ele>928.0</ele><time>2026-04-10T10:47:50Z</time></trkpt><trkpt lat="40.7033833" lon="-3.9214742"><ele>927.0</ele><time>2026-04-10T10:47:51Z</time></trkpt><trkpt lat="40.7035292" lon="-3.921319"><ele>926.0</ele><time>2026-04-10T10:47:52Z</time></trkpt><trkpt lat="40.7036715" lon="-3.921175"><ele>925.0</ele><time>2026-04-10T10:47:53Z</time></trkpt><trkpt lat="40.703806" lon="-3.9210331"><ele>924.0</ele><time>2026-04-10T10:47:54Z</time></trkpt><trkpt lat="40.7039463" lon="-3.920895"><ele>923.0</ele><time>2026-04-10T10:47:55Z</time></trkpt><trkpt lat="40.7040858" lon="-3.9207583"><ele>922.0</ele><time>2026-04-10T10:47:56Z</time></trkpt><trkpt lat="40.7042252" lon="-3.9206164"><ele>922.0</ele><time>2026-04-10T10:47:57Z</time></trkpt><trkpt lat="40.7043659" lon="-3.9204682"><ele>922.0</ele><time>2026-04-10T10:47:58Z</time></trkpt><trkpt lat="40.7045102" lon="-3.9203192"><ele>922.0</ele><time>2026-04-10T10:47:59Z</time></trkpt><trkpt lat="40.7046541" lon="-3.9201643"><ele>921.6666666666666</ele><time>2026-04-10T10:48:00Z</time></trkpt><trkpt lat="40.7047961" lon="-3.9200061"><ele>921.3333333333333</ele><time>2026-04-10T10:48:01Z</time></trkpt><trkpt lat="40.7049375" lon="-3.9198434"><ele>921.0</ele><time>2026-04-10T10:48:02Z</time></trkpt><trkpt lat="40.7050657" lon="-3.9196697"><ele>921.0</ele><time>2026-04-10T10:48:03Z</time></trkpt><trkpt lat="40.7051777" lon="-3.919493"><ele>921.0</ele><time>2026-04-10T10:48:04Z</time></trkpt><trkpt lat="40.7052768" lon="-3.9193096"><ele>921.0</ele><time>2026-04-10T10:48:05Z</time></trkpt><trkpt lat="40.7053679" lon="-3.9191193"><ele>920.6666666666667</ele><time>2026-04-10T10:48:06Z</time></trkpt><trkpt lat="40.705461" lon="-3.9189225"><ele>920.3333333333334</ele><time>2026-04-10T10:48:06.999Z</time></trkpt><trkpt lat="40.7055485" lon="-3.9187261"><ele>920.0</ele><time>2026-04-10T10:48:08Z</time></trkpt><trkpt lat="40.7056376" lon="-3.918536"><ele>919.3333333333334</ele><time>2026-04-10T10:48:08.999Z</time></trkpt><trkpt lat="40.7057276" lon="-3.9183371"><ele>918.6666666666667</ele><time>2026-04-10T10:48:10Z</time></trkpt><trkpt lat="40.705823" lon="-3.9181422"><ele>918.0</ele><time>2026-04-10T10:48:10.999Z</time></trkpt><trkpt lat="40.7059143" lon="-3.9179365"><ele>918.0</ele><time>2026-04-10T10:48:12Z</time></trkpt><trkpt lat="40.7060049" lon="-3.9177405"><ele>918.0</ele><time>2026-04-10T10:48:13Z</time></trkpt><trkpt lat="40.7060979" lon="-3.917545"><ele>918.0</ele><time>2026-04-10T10:48:14Z</time></trkpt><trkpt lat="40.7061898" lon="-3.9173512"><ele>918.0</ele><time>2026-04-10T10:48:15Z</time></trkpt><trkpt lat="40.7062806" lon="-3.9171561"><ele>918.0</ele><time>2026-04-10T10:48:16Z</time></trkpt><trkpt lat="40.7063718" lon="-3.9169632"><ele>918.0</ele><time>2026-04-10T10:48:17Z</time></trkpt><trkpt lat="40.7064627" lon="-3.9167774"><ele>918.0</ele><time>2026-04-10T10:48:18Z</time></trkpt><trkpt lat="40.706549" lon="-3.9165933"><ele>918.0</ele><time>2026-04-10T10:48:19Z</time></trkpt><trkpt lat="40.7066379" lon="-3.9164094"><ele>918.0</ele><time>2026-04-10T10:48:20Z</time></trkpt><trkpt lat="40.7067248" lon="-3.9162293"><ele>918.0</ele><time>2026-04-10T10:48:21Z</time></trkpt><trkpt lat="40.7068115" lon="-3.9160445"><ele>918.0</ele><time>2026-04-10T10:48:22Z</time></trkpt><trkpt lat="40.7068982" lon="-3.9158566"><ele>918.0</ele><time>2026-04-10T10:48:23Z</time></trkpt><trkpt lat="40.7069793" lon="-3.9156642"><ele>917.3333333333333</ele><time>2026-04-10T10:48:24Z</time></trkpt><trkpt lat="40.7070692" lon="-3.9154674"><ele>916.6666666666666</ele><time>2026-04-10T10:48:25Z</time></trkpt><trkpt lat="40.7071612" lon="-3.915271"><ele>916.0</ele><time>2026-04-10T10:48:26Z</time></trkpt><trkpt lat="40.7072527" lon="-3.9150747"><ele>916.0</ele><time>2026-04-10T10:48:27Z</time></trkpt><trkpt lat="40.7073498" lon="-3.91488"><ele>916.0</ele><time>2026-04-10T10:48:28Z</time></trkpt><trkpt lat="40.70744" lon="-3.9146883"><ele>916.0</ele><time>2026-04-10T10:48:29Z</time></trkpt><trkpt lat="40.7075341" lon="-3.9144933"><ele>916.0</ele><time>2026-04-10T10:48:30Z</time></trkpt><trkpt lat="40.7076377" lon="-3.9143081"><ele>916.0</ele><time>2026-04-10T10:48:31Z</time></trkpt><trkpt lat="40.7077488" lon="-3.9141245"><ele>916.0</ele><time>2026-04-10T10:48:32Z</time></trkpt><trkpt lat="40.7078669" lon="-3.9139427"><ele>915.3333333333333</ele><time>2026-04-10T10:48:33Z</time></trkpt><trkpt lat="40.7079891" lon="-3.9137649"><ele>914.6666666666667</ele><time>2026-04-10T10:48:34Z</time></trkpt><trkpt lat="40.7081062" lon="-3.9135853"><ele>914.0</ele><time>2026-04-10T10:48:35Z</time></trkpt><trkpt lat="40.7082301" lon="-3.9134072"><ele>914.3333333333334</ele><time>2026-04-10T10:48:36Z</time></trkpt><trkpt lat="40.7083565" lon="-3.9132264"><ele>914.6666666666667</ele><time>2026-04-10T10:48:36.999Z</time></trkpt><trkpt lat="40.7084825" lon="-3.9130444"><ele>915.0</ele><time>2026-04-10T10:48:38Z</time></trkpt><trkpt lat="40.7086086" lon="-3.9128655"><ele>915.0</ele><time>2026-04-10T10:48:39Z</time></trkpt><trkpt lat="40.7087353" lon="-3.9126806"><ele>915.0</ele><time>2026-04-10T10:48:40Z</time></trkpt><trkpt lat="40.7088609" lon="-3.9124964"><ele>915.0</ele><time>2026-04-10T10:48:41Z</time></trkpt><trkpt lat="40.7089862" lon="-3.9123142"><ele>915.0</ele><time>2026-04-10T10:48:42Z</time></trkpt><trkpt lat="40.7091087" lon="-3.9121312"><ele>915.0</ele><time>2026-04-10T10:48:43Z</time></trkpt><trkpt lat="40.7092301" lon="-3.9119535"><ele>915.0</ele><time>2026-04-10T10:48:44Z</time></trkpt><trkpt lat="40.7093558" lon="-3.9117729"><ele>915.3333333333333</ele><time>2026-04-10T10:48:45Z</time></trkpt><trkpt lat="40.7094777" lon="-3.9115913"><ele>915.6666666666666</ele><time>2026-04-10T10:48:46Z</time></trkpt><trkpt lat="40.7096012" lon="-3.9114069"><ele>916.0</ele><time>2026-04-10T10:48:47Z</time></trkpt><trkpt lat="40.7097251" lon="-3.9112264"><ele>916.0</ele><time>2026-04-10T10:48:47.999Z</time></trkpt><trkpt lat="40.7098465" lon="-3.9110468"><ele>916.0</ele><time>2026-04-10T10:48:49Z</time></trkpt><trkpt lat="40.7099658" lon="-3.9108684"><ele>916.0</ele><time>2026-04-10T10:48:50Z</time></trkpt><trkpt lat="40.710086" lon="-3.9106892"><ele>916.0</ele><time>2026-04-10T10:48:51Z</time></trkpt><trkpt lat="40.7102071" lon="-3.9105156"><ele>916.0</ele><time>2026-04-10T10:48:52Z</time></trkpt><trkpt lat="40.7103338" lon="-3.9103487"><ele>916.0</ele><time>2026-04-10T10:48:53Z</time></trkpt><trkpt lat="40.7104635" lon="-3.910187"><ele>915.0</ele><time>2026-04-10T10:48:54Z</time></trkpt><trkpt lat="40.7106029" lon="-3.9100341"><ele>914.0</ele><time>2026-04-10T10:48:55Z</time></trkpt><trkpt lat="40.7107478" lon="-3.9098895"><ele>913.0</ele><time>2026-04-10T10:48:56Z</time></trkpt><trkpt lat="40.7108967" lon="-3.909738"><ele>913.0</ele><time>2026-04-10T10:48:57Z</time></trkpt><trkpt lat="40.7110471" lon="-3.9095843"><ele>913.0</ele><time>2026-04-10T10:48:58Z</time></trkpt><trkpt lat="40.711196" lon="-3.9094285"><ele>913.0</ele><time>2026-04-10T10:48:59Z</time></trkpt><trkpt lat="40.7113465" lon="-3.9092731"><ele>913.6666666666666</ele><time>2026-04-10T10:49:00Z</time></trkpt><trkpt lat="40.7114941" lon="-3.9091154"><ele>914.3333333333333</ele><time>2026-04-10T10:49:01Z</time></trkpt><trkpt lat="40.7116411" lon="-3.9089533"><ele>915.0</ele><time>2026-04-10T10:49:02Z</time></trkpt><trkpt lat="40.7117861" lon="-3.9087887"><ele>916.3333333333333</ele><time>2026-04-10T10:49:03Z</time></trkpt><trkpt lat="40.7119271" lon="-3.9086163"><ele>917.6666666666666</ele><time>2026-04-10T10:49:04Z</time></trkpt><trkpt lat="40.7120572" lon="-3.9084387"><ele>919.0</ele><time>2026-04-10T10:49:05Z</time></trkpt><trkpt lat="40.7121769" lon="-3.9082463"><ele>919.0</ele><time>2026-04-10T10:49:05.999Z</time></trkpt><trkpt lat="40.7122854" lon="-3.9080554"><ele>919.0</ele><time>2026-04-10T10:49:07Z</time></trkpt><trkpt lat="40.7123909" lon="-3.9078672"><ele>919.0</ele><time>2026-04-10T10:49:08Z</time></trkpt><trkpt lat="40.7124929" lon="-3.9076753"><ele>918.3333333333333</ele><time>2026-04-10T10:49:09Z</time></trkpt><trkpt lat="40.7125948" lon="-3.9074811"><ele>917.6666666666667</ele><time>2026-04-10T10:49:10Z</time></trkpt><trkpt lat="40.7126995" lon="-3.9072867"><ele>917.0</ele><time>2026-04-10T10:49:11Z</time></trkpt><trkpt lat="40.7128064" lon="-3.9070932"><ele>917.0</ele><time>2026-04-10T10:49:12Z</time></trkpt><trkpt lat="40.7129144" lon="-3.9069058"><ele>917.0</ele><time>2026-04-10T10:49:13Z</time></trkpt><trkpt lat="40.7130262" lon="-3.9067228"><ele>917.0</ele><time>2026-04-10T10:49:13.999Z</time></trkpt><trkpt lat="40.713137" lon="-3.9065384"><ele>915.3333333333334</ele><time>2026-04-10T10:49:15Z</time></trkpt><trkpt lat="40.7132507" lon="-3.9063512"><ele>913.6666666666667</ele><time>2026-04-10T10:49:16Z</time></trkpt><trkpt lat="40.7133615" lon="-3.9061581"><ele>912.0</ele><time>2026-04-10T10:49:17Z</time></trkpt><trkpt lat="40.7134694" lon="-3.9059618"><ele>911.3333333333333</ele><time>2026-04-10T10:49:18Z</time></trkpt><trkpt lat="40.7135687" lon="-3.9057643"><ele>910.6666666666666</ele><time>2026-04-10T10:49:19Z</time></trkpt><trkpt lat="40.7136586" lon="-3.9055644"><ele>910.0</ele><time>2026-04-10T10:49:20Z</time></trkpt><trkpt lat="40.7137361" lon="-3.9053588"><ele>910.0</ele><time>2026-04-10T10:49:21Z</time></trkpt><trkpt lat="40.7138031" lon="-3.9051424"><ele>910.0</ele><time>2026-04-10T10:49:22Z</time></trkpt><trkpt lat="40.7138622" lon="-3.9049177"><ele>910.0</ele><time>2026-04-10T10:49:23Z</time></trkpt><trkpt lat="40.7139094" lon="-3.9046939"><ele>910.0</ele><time>2026-04-10T10:49:24Z</time></trkpt><trkpt lat="40.7139519" lon="-3.9044799"><ele>910.0</ele><time>2026-04-10T10:49:25Z</time></trkpt><trkpt lat="40.7139902" lon="-3.9042716"><ele>910.0</ele><time>2026-04-10T10:49:26Z</time></trkpt><trkpt lat="40.7140304" lon="-3.9040618"><ele>909.3333333333333</ele><time>2026-04-10T10:49:27Z</time></trkpt><trkpt lat="40.7140634" lon="-3.9038513"><ele>908.6666666666667</ele><time>2026-04-10T10:49:28Z</time></trkpt><trkpt lat="40.7141018" lon="-3.9036412"><ele>908.0</ele><time>2026-04-10T10:49:29Z</time></trkpt><trkpt lat="40.7141408" lon="-3.9034235"><ele>907.6666666666667</ele><time>2026-04-10T10:49:30Z</time></trkpt><trkpt lat="40.7141808" lon="-3.9032096"><ele>907.3333333333333</ele><time>2026-04-10T10:49:31Z</time></trkpt><trkpt lat="40.7142198" lon="-3.9030007"><ele>907.0</ele><time>2026-04-10T10:49:32Z</time></trkpt><trkpt lat="40.7142579" lon="-3.9027957"><ele>907.0</ele><time>2026-04-10T10:49:33Z</time></trkpt><trkpt lat="40.7142905" lon="-3.9025951"><ele>907.0</ele><time>2026-04-10T10:49:33.999Z</time></trkpt><trkpt lat="40.714328" lon="-3.9023899"><ele>907.0</ele><time>2026-04-10T10:49:34.999Z</time></trkpt><trkpt lat="40.714366" lon="-3.9021862"><ele>907.0</ele><time>2026-04-10T10:49:36Z</time></trkpt><trkpt lat="40.7144021" lon="-3.9019816"><ele>907.0</ele><time>2026-04-10T10:49:37Z</time></trkpt><trkpt lat="40.7144388" lon="-3.9017788"><ele>907.0</ele><time>2026-04-10T10:49:38Z</time></trkpt><trkpt lat="40.714477" lon="-3.9015784"><ele>907.5</ele><time>2026-04-10T10:49:39Z</time></trkpt><trkpt lat="40.7145128" lon="-3.9013816"><ele>908.0</ele><time>2026-04-10T10:49:40Z</time></trkpt><trkpt lat="40.7145442" lon="-3.9011998"><ele>908.5</ele><time>2026-04-10T10:49:41Z</time></trkpt><trkpt lat="40.7145749" lon="-3.901027"><ele>909.0</ele><time>2026-04-10T10:49:42Z</time></trkpt><trkpt lat="40.7146034" lon="-3.9008642"><ele>909.0</ele><time>2026-04-10T10:49:43Z</time></trkpt><trkpt lat="40.7146285" lon="-3.9007148"><ele>909.0000000000001</ele><time>2026-04-10T10:49:44Z</time></trkpt><trkpt lat="40.7146531" lon="-3.900571"><ele>909.0000000000001</ele><time>2026-04-10T10:49:45Z</time></trkpt><trkpt lat="40.7146777" lon="-3.9004336"><ele>909.0</ele><time>2026-04-10T10:49:46Z</time></trkpt><trkpt lat="40.7147023" lon="-3.9002997"><ele>909.0</ele><time>2026-04-10T10:49:46.999Z</time></trkpt><trkpt lat="40.714722" lon="-3.9001643"><ele>909.0</ele><time>2026-04-10T10:49:48Z</time></trkpt><trkpt lat="40.7147471" lon="-3.9000212"><ele>909.0</ele><time>2026-04-10T10:49:49Z</time></trkpt><trkpt lat="40.7147713" lon="-3.8998715"><ele>909.0</ele><time>2026-04-10T10:49:50Z</time></trkpt><trkpt lat="40.7148004" lon="-3.8997159"><ele>909.0</ele><time>2026-04-10T10:49:50.999Z</time></trkpt><trkpt lat="40.7148372" lon="-3.8995514"><ele>909.0</ele><time>2026-04-10T10:49:52Z</time></trkpt><trkpt lat="40.7148762" lon="-3.899377"><ele>909.0</ele><time>2026-04-10T10:49:53Z</time></trkpt><trkpt lat="40.7149095" lon="-3.8991925"><ele>909.0</ele><time>2026-04-10T10:49:54Z</time></trkpt><trkpt lat="40.7149439" lon="-3.8989988"><ele>909.0</ele><time>2026-04-10T10:49:55Z</time></trkpt><trkpt lat="40.7149774" lon="-3.8987984"><ele>909.0</ele><time>2026-04-10T10:49:55.999Z</time></trkpt><trkpt lat="40.7150103" lon="-3.8985994"><ele>909.0</ele><time>2026-04-10T10:49:57Z</time></trkpt><trkpt lat="40.7150462" lon="-3.8983993"><ele>909.0</ele><time>2026-04-10T10:49:58Z</time></trkpt><trkpt lat="40.7150767" lon="-3.8981934"><ele>908.6666666666667</ele><time>2026-04-10T10:49:59Z</time></trkpt><trkpt lat="40.7151017" lon="-3.8979815"><ele>908.3333333333334</ele><time>2026-04-10T10:50:00Z</time></trkpt><trkpt lat="40.7151203" lon="-3.8977716"><ele>908.0</ele><time>2026-04-10T10:50:01Z</time></trkpt><trkpt lat="40.7151348" lon="-3.897556"><ele>907.0</ele><time>2026-04-10T10:50:01.999Z</time></trkpt><trkpt lat="40.7151458" lon="-3.8973414"><ele>906.0</ele><time>2026-04-10T10:50:03Z</time></trkpt><trkpt lat="40.7151579" lon="-3.8971263"><ele>905.0</ele><time>2026-04-10T10:50:04Z</time></trkpt><trkpt lat="40.7151734" lon="-3.8969057"><ele>904.6666666666667</ele><time>2026-04-10T10:50:05Z</time></trkpt><trkpt lat="40.7151914" lon="-3.8966843"><ele>904.3333333333333</ele><time>2026-04-10T10:50:06Z</time></trkpt><trkpt lat="40.7152022" lon="-3.8964654"><ele>904.0</ele><time>2026-04-10T10:50:07Z</time></trkpt><trkpt lat="40.7152076" lon="-3.8962533"><ele>904.0</ele><time>2026-04-10T10:50:08Z</time></trkpt><trkpt lat="40.7152103" lon="-3.8960346"><ele>904.0</ele><time>2026-04-10T10:50:09Z</time></trkpt><trkpt lat="40.7152155" lon="-3.8958105"><ele>904.0</ele><time>2026-04-10T10:50:10Z</time></trkpt><trkpt lat="40.7152248" lon="-3.8955875"><ele>906.0</ele><time>2026-04-10T10:50:11Z</time></trkpt><trkpt lat="40.7152385" lon="-3.8953551"><ele>908.0</ele><time>2026-04-10T10:50:11.999Z</time></trkpt><trkpt lat="40.7152552" lon="-3.8951259"><ele>910.0</ele><time>2026-04-10T10:50:13Z</time></trkpt><trkpt lat="40.7152677" lon="-3.8949011"><ele>910.0</ele><time>2026-04-10T10:50:14Z</time></trkpt><trkpt lat="40.715279" lon="-3.8946726"><ele>910.0</ele><time>2026-04-10T10:50:15Z</time></trkpt><trkpt lat="40.7152883" lon="-3.8944453"><ele>910.0</ele><time>2026-04-10T10:50:16Z</time></trkpt><trkpt lat="40.715297" lon="-3.8942178"><ele>909.0</ele><time>2026-04-10T10:50:17Z</time></trkpt><trkpt lat="40.7153089" lon="-3.89399"><ele>908.0</ele><time>2026-04-10T10:50:17.999Z</time></trkpt><trkpt lat="40.7153217" lon="-3.8937642"><ele>907.0</ele><time>2026-04-10T10:50:19Z</time></trkpt><trkpt lat="40.7153346" lon="-3.8935452"><ele>909.0</ele><time>2026-04-10T10:50:20Z</time></trkpt><trkpt lat="40.7153438" lon="-3.8933297"><ele>911.0</ele><time>2026-04-10T10:50:21Z</time></trkpt><trkpt lat="40.7153537" lon="-3.8931101"><ele>913.0</ele><time>2026-04-10T10:50:21.999Z</time></trkpt><trkpt lat="40.7153677" lon="-3.8928893"><ele>913.0</ele><time>2026-04-10T10:50:23Z</time></trkpt><trkpt lat="40.7153911" lon="-3.8926642"><ele>913.0</ele><time>2026-04-10T10:50:24Z</time></trkpt><trkpt lat="40.7154223" lon="-3.892435"><ele>913.0</ele><time>2026-04-10T10:50:25Z</time></trkpt><trkpt lat="40.715463" lon="-3.8922066"><ele>913.0</ele><time>2026-04-10T10:50:25.999Z</time></trkpt><trkpt lat="40.7155147" lon="-3.8919811"><ele>913.0</ele><time>2026-04-10T10:50:27Z</time></trkpt><trkpt lat="40.7155772" lon="-3.8917603"><ele>913.0</ele><time>2026-04-10T10:50:28Z</time></trkpt><trkpt lat="40.7156478" lon="-3.8915509"><ele>911.0</ele><time>2026-04-10T10:50:29Z</time></trkpt><trkpt lat="40.7157227" lon="-3.8913503"><ele>909.0</ele><time>2026-04-10T10:50:29.999Z</time></trkpt><trkpt lat="40.7157947" lon="-3.8911561"><ele>907.0</ele><time>2026-04-10T10:50:31Z</time></trkpt><trkpt lat="40.7158698" lon="-3.8909582"><ele>906.0</ele><time>2026-04-10T10:50:32Z</time></trkpt><trkpt lat="40.7159478" lon="-3.8907644"><ele>905.0</ele><time>2026-04-10T10:50:33Z</time></trkpt><trkpt lat="40.7160251" lon="-3.8905674"><ele>904.0</ele><time>2026-04-10T10:50:34Z</time></trkpt><trkpt lat="40.7161048" lon="-3.8903759"><ele>906.3333333333333</ele><time>2026-04-10T10:50:35Z</time></trkpt><trkpt lat="40.7161862" lon="-3.8901791"><ele>908.6666666666667</ele><time>2026-04-10T10:50:36Z</time></trkpt><trkpt lat="40.7162651" lon="-3.8899787"><ele>911.0</ele><time>2026-04-10T10:50:37Z</time></trkpt><trkpt lat="40.7163466" lon="-3.8897815"><ele>911.0</ele><time>2026-04-10T10:50:37.999Z</time></trkpt><trkpt lat="40.7164294" lon="-3.8895789"><ele>911.0</ele><time>2026-04-10T10:50:39Z</time></trkpt><trkpt lat="40.7165122" lon="-3.8893759"><ele>911.0</ele><time>2026-04-10T10:50:40Z</time></trkpt><trkpt lat="40.7165971" lon="-3.8891665"><ele>910.0</ele><time>2026-04-10T10:50:41Z</time></trkpt><trkpt lat="40.7166801" lon="-3.888954"><ele>909.0</ele><time>2026-04-10T10:50:42Z</time></trkpt><trkpt lat="40.7167723" lon="-3.8887418"><ele>908.0</ele><time>2026-04-10T10:50:43Z</time></trkpt><trkpt lat="40.7168651" lon="-3.8885324"><ele>909.3333333333334</ele><time>2026-04-10T10:50:44Z</time></trkpt><trkpt lat="40.7169509" lon="-3.8883194"><ele>910.6666666666667</ele><time>2026-04-10T10:50:44.999Z</time></trkpt><trkpt lat="40.7170365" lon="-3.8881062"><ele>912.0</ele><time>2026-04-10T10:50:45.999Z</time></trkpt><trkpt lat="40.7171284" lon="-3.8878937"><ele>912.0</ele><time>2026-04-10T10:50:46.999Z</time></trkpt><trkpt lat="40.7172357" lon="-3.8876787"><ele>912.0</ele><time>2026-04-10T10:50:48Z</time></trkpt><trkpt lat="40.7173455" lon="-3.8874661"><ele>912.0</ele><time>2026-04-10T10:50:49Z</time></trkpt><trkpt lat="40.7174461" lon="-3.8872549"><ele>911.0</ele><time>2026-04-10T10:50:50Z</time></trkpt><trkpt lat="40.7175431" lon="-3.887054"><ele>910.0</ele><time>2026-04-10T10:50:51Z</time></trkpt><trkpt lat="40.7176399" lon="-3.8868619"><ele>909.0</ele><time>2026-04-10T10:50:52Z</time></trkpt><trkpt lat="40.7177324" lon="-3.886677"><ele>909.0</ele><time>2026-04-10T10:50:53Z</time></trkpt><trkpt lat="40.7178229" lon="-3.886494"><ele>909.0</ele><time>2026-04-10T10:50:54Z</time></trkpt><trkpt lat="40.7179147" lon="-3.8863144"><ele>909.0</ele><time>2026-04-10T10:50:55Z</time></trkpt><trkpt lat="40.7179982" lon="-3.8861397"><ele>909.0</ele><time>2026-04-10T10:50:56Z</time></trkpt><trkpt lat="40.7180773" lon="-3.885959"><ele>909.0</ele><time>2026-04-10T10:50:57Z</time></trkpt><trkpt lat="40.7181626" lon="-3.8857773"><ele>909.0</ele><time>2026-04-10T10:50:58Z</time></trkpt><trkpt lat="40.7182519" lon="-3.8855977"><ele>907.6666666666667</ele><time>2026-04-10T10:50:58.999Z</time></trkpt><trkpt lat="40.7183464" lon="-3.8854134"><ele>906.3333333333334</ele><time>2026-04-10T10:51:00Z</time></trkpt><trkpt lat="40.7184387" lon="-3.8852334"><ele>905.0</ele><time>2026-04-10T10:51:00.999Z</time></trkpt><trkpt lat="40.7185338" lon="-3.8850436"><ele>904.6666666666667</ele><time>2026-04-10T10:51:01.999Z</time></trkpt><trkpt lat="40.7186303" lon="-3.8848415"><ele>904.3333333333333</ele><time>2026-04-10T10:51:03Z</time></trkpt><trkpt lat="40.7187262" lon="-3.8846394"><ele>904.0</ele><time>2026-04-10T10:51:04Z</time></trkpt><trkpt lat="40.7188258" lon="-3.8844327"><ele>904.3333333333333</ele><time>2026-04-10T10:51:05Z</time></trkpt><trkpt lat="40.7189294" lon="-3.8842279"><ele>904.6666666666667</ele><time>2026-04-10T10:51:06Z</time></trkpt><trkpt lat="40.7190326" lon="-3.8840268"><ele>905.0</ele><time>2026-04-10T10:51:07Z</time></trkpt><trkpt lat="40.7191341" lon="-3.8838262"><ele>905.0</ele><time>2026-04-10T10:51:07.999Z</time></trkpt><trkpt lat="40.7192303" lon="-3.8836239"><ele>905.0</ele><time>2026-04-10T10:51:09Z</time></trkpt><trkpt lat="40.719325" lon="-3.883415"><ele>905.0</ele><time>2026-04-10T10:51:10Z</time></trkpt><trkpt lat="40.7194211" lon="-3.8832058"><ele>906.3333333333334</ele><time>2026-04-10T10:51:11Z</time></trkpt><trkpt lat="40.7195221" lon="-3.8829939"><ele>907.6666666666667</ele><time>2026-04-10T10:51:12Z</time></trkpt><trkpt lat="40.7196226" lon="-3.8827825"><ele>909.0</ele><time>2026-04-10T10:51:13Z</time></trkpt><trkpt lat="40.7197256" lon="-3.882571"><ele>909.0</ele><time>2026-04-10T10:51:14Z</time></trkpt><trkpt lat="40.7198301" lon="-3.88236"><ele>909.0</ele><time>2026-04-10T10:51:15Z</time></trkpt><trkpt lat="40.7199352" lon="-3.8821471"><ele>909.0</ele><time>2026-04-10T10:51:16Z</time></trkpt><trkpt lat="40.7200365" lon="-3.8819383"><ele>909.3333333333333</ele><time>2026-04-10T10:51:17Z</time></trkpt><trkpt lat="40.7201367" lon="-3.8817307"><ele>909.6666666666666</ele><time>2026-04-10T10:51:18Z</time></trkpt><trkpt lat="40.72024" lon="-3.8815183"><ele>910.0</ele><time>2026-04-10T10:51:19Z</time></trkpt><trkpt lat="40.720343" lon="-3.8813082"><ele>910.0</ele><time>2026-04-10T10:51:20Z</time></trkpt><trkpt lat="40.720449" lon="-3.8810968"><ele>910.0</ele><time>2026-04-10T10:51:21Z</time></trkpt><trkpt lat="40.7205516" lon="-3.8808963"><ele>910.0</ele><time>2026-04-10T10:51:22Z</time></trkpt><trkpt lat="40.7206565" lon="-3.8806965"><ele>909.6666666666666</ele><time>2026-04-10T10:51:22.999Z</time></trkpt><trkpt lat="40.7207577" lon="-3.880498"><ele>909.3333333333333</ele><time>2026-04-10T10:51:24Z</time></trkpt><trkpt lat="40.7208639" lon="-3.8803009"><ele>909.0</ele><time>2026-04-10T10:51:25Z</time></trkpt><trkpt lat="40.7209762" lon="-3.8801126"><ele>907.0</ele><time>2026-04-10T10:51:26Z</time></trkpt><trkpt lat="40.7211018" lon="-3.8799313"><ele>905.0</ele><time>2026-04-10T10:51:27Z</time></trkpt><trkpt lat="40.7212333" lon="-3.8797718"><ele>903.0</ele><time>2026-04-10T10:51:28Z</time></trkpt><trkpt lat="40.7213799" lon="-3.8796238"><ele>903.0</ele><time>2026-04-10T10:51:29Z</time></trkpt><trkpt lat="40.7215325" lon="-3.879486"><ele>903.0</ele><time>2026-04-10T10:51:29.999Z</time></trkpt><trkpt lat="40.7216878" lon="-3.8793506"><ele>903.0</ele><time>2026-04-10T10:51:31Z</time></trkpt><trkpt lat="40.7218412" lon="-3.8792122"><ele>902.6666666666667</ele><time>2026-04-10T10:51:32Z</time></trkpt><trkpt lat="40.7220008" lon="-3.8790756"><ele>902.3333333333334</ele><time>2026-04-10T10:51:33Z</time></trkpt><trkpt lat="40.722166" lon="-3.8789405"><ele>902.0</ele><time>2026-04-10T10:51:33.999Z</time></trkpt><trkpt lat="40.7223319" lon="-3.8788015"><ele>902.0</ele><time>2026-04-10T10:51:34.999Z</time></trkpt><trkpt lat="40.7224942" lon="-3.8786606"><ele>902.0</ele><time>2026-04-10T10:51:36Z</time></trkpt><trkpt lat="40.7226583" lon="-3.8785221"><ele>902.0</ele><time>2026-04-10T10:51:37Z</time></trkpt><trkpt lat="40.7228196" lon="-3.8783864"><ele>902.3333333333334</ele><time>2026-04-10T10:51:38Z</time></trkpt><trkpt lat="40.7229721" lon="-3.8782489"><ele>902.6666666666667</ele><time>2026-04-10T10:51:39Z</time></trkpt><trkpt lat="40.7231153" lon="-3.8781065"><ele>903.0</ele><time>2026-04-10T10:51:39.999Z</time></trkpt><trkpt lat="40.7232578" lon="-3.8779542"><ele>903.0</ele><time>2026-04-10T10:51:41Z</time></trkpt><trkpt lat="40.7233908" lon="-3.8777878"><ele>903.0</ele><time>2026-04-10T10:51:42Z</time></trkpt><trkpt lat="40.7235164" lon="-3.8776041"><ele>903.0</ele><time>2026-04-10T10:51:43Z</time></trkpt><trkpt lat="40.7236251" lon="-3.8774133"><ele>905.3333333333333</ele><time>2026-04-10T10:51:44Z</time></trkpt><trkpt lat="40.7237164" lon="-3.8772154"><ele>907.6666666666666</ele><time>2026-04-10T10:51:44.999Z</time></trkpt><trkpt lat="40.7237953" lon="-3.8770066"><ele>910.0</ele><time>2026-04-10T10:51:46Z</time></trkpt><trkpt lat="40.7238632" lon="-3.8768031"><ele>910.0</ele><time>2026-04-10T10:51:47Z</time></trkpt><trkpt lat="40.7239224" lon="-3.8766104"><ele>910.0</ele><time>2026-04-10T10:51:48Z</time></trkpt><trkpt lat="40.7239633" lon="-3.8764175"><ele>910.0</ele><time>2026-04-10T10:51:49Z</time></trkpt><trkpt lat="40.7239851" lon="-3.8762252"><ele>910.0</ele><time>2026-04-10T10:51:50Z</time></trkpt><trkpt lat="40.7239946" lon="-3.8760208"><ele>910.0</ele><time>2026-04-10T10:51:51Z</time></trkpt><trkpt lat="40.7240003" lon="-3.8758158"><ele>910.0</ele><time>2026-04-10T10:51:52Z</time></trkpt><trkpt lat="40.7240132" lon="-3.875609"><ele>909.6666666666666</ele><time>2026-04-10T10:51:53Z</time></trkpt><trkpt lat="40.7240143" lon="-3.8753965"><ele>909.3333333333333</ele><time>2026-04-10T10:51:54Z</time></trkpt><trkpt lat="40.7239984" lon="-3.875189"><ele>909.0</ele><time>2026-04-10T10:51:55Z</time></trkpt><trkpt lat="40.7239887" lon="-3.8749688"><ele>910.0</ele><time>2026-04-10T10:51:55.999Z</time></trkpt><trkpt lat="40.7239881" lon="-3.8747455"><ele>911.0</ele><time>2026-04-10T10:51:57Z</time></trkpt><trkpt lat="40.7239936" lon="-3.8745192"><ele>912.0</ele><time>2026-04-10T10:51:58Z</time></trkpt><trkpt lat="40.7239918" lon="-3.8742845"><ele>913.0</ele><time>2026-04-10T10:51:59Z</time></trkpt><trkpt lat="40.723984" lon="-3.874049"><ele>914.0</ele><time>2026-04-10T10:52:00Z</time></trkpt><trkpt lat="40.7239815" lon="-3.8738097"><ele>915.0</ele><time>2026-04-10T10:52:00.999Z</time></trkpt><trkpt lat="40.7239821" lon="-3.8735728"><ele>915.6666666666667</ele><time>2026-04-10T10:52:02Z</time></trkpt><trkpt lat="40.7239836" lon="-3.8733383"><ele>916.3333333333334</ele><time>2026-04-10T10:52:03Z</time></trkpt><trkpt lat="40.7239838" lon="-3.8731057"><ele>917.0</ele><time>2026-04-10T10:52:04Z</time></trkpt><trkpt lat="40.7239879" lon="-3.8728755"><ele>917.0</ele><time>2026-04-10T10:52:05Z</time></trkpt><trkpt lat="40.7239956" lon="-3.8726482"><ele>917.0</ele><time>2026-04-10T10:52:06Z</time></trkpt><trkpt lat="40.7240203" lon="-3.8724243"><ele>917.0</ele><time>2026-04-10T10:52:07Z</time></trkpt><trkpt lat="40.7240659" lon="-3.8721953"><ele>917.0</ele><time>2026-04-10T10:52:08Z</time></trkpt><trkpt lat="40.7241223" lon="-3.871967"><ele>917.0</ele><time>2026-04-10T10:52:09Z</time></trkpt><trkpt lat="40.7241896" lon="-3.8717354"><ele>917.0</ele><time>2026-04-10T10:52:10Z</time></trkpt><trkpt lat="40.7242667" lon="-3.8715078"><ele>916.6666666666667</ele><time>2026-04-10T10:52:11Z</time></trkpt><trkpt lat="40.7243495" lon="-3.8712762"><ele>916.3333333333333</ele><time>2026-04-10T10:52:12Z</time></trkpt><trkpt lat="40.7244364" lon="-3.8710519"><ele>916.0</ele><time>2026-04-10T10:52:13Z</time></trkpt><trkpt lat="40.7245216" lon="-3.8708247"><ele>916.0</ele><time>2026-04-10T10:52:14Z</time></trkpt><trkpt lat="40.7246067" lon="-3.8706015"><ele>916.0</ele><time>2026-04-10T10:52:15Z</time></trkpt><trkpt lat="40.7246842" lon="-3.8703855"><ele>916.0</ele><time>2026-04-10T10:52:16Z</time></trkpt><trkpt lat="40.7247584" lon="-3.8701726"><ele>915.6666666666666</ele><time>2026-04-10T10:52:17Z</time></trkpt><trkpt lat="40.724825" lon="-3.8699702"><ele>915.3333333333333</ele><time>2026-04-10T10:52:18Z</time></trkpt><trkpt lat="40.7248864" lon="-3.8697714"><ele>915.0</ele><time>2026-04-10T10:52:18.999Z</time></trkpt><trkpt lat="40.7249389" lon="-3.8695856"><ele>915.0</ele><time>2026-04-10T10:52:20Z</time></trkpt><trkpt lat="40.7249825" lon="-3.8694152"><ele>915.0</ele><time>2026-04-10T10:52:21Z</time></trkpt><trkpt lat="40.7250143" lon="-3.8692386"><ele>915.0</ele><time>2026-04-10T10:52:22Z</time></trkpt><trkpt lat="40.7250333" lon="-3.8690717"><ele>915.0</ele><time>2026-04-10T10:52:22.999Z</time></trkpt><trkpt lat="40.7250412" lon="-3.8689134"><ele>914.2</ele><time>2026-04-10T10:52:23.999Z</time></trkpt><trkpt lat="40.7250375" lon="-3.8687704"><ele>913.4</ele><time>2026-04-10T10:52:25Z</time></trkpt><trkpt lat="40.7250101" lon="-3.8686335"><ele>912.5999999999999</ele><time>2026-04-10T10:52:26Z</time></trkpt><trkpt lat="40.7249612" lon="-3.8685085"><ele>911.8</ele><time>2026-04-10T10:52:27Z</time></trkpt><trkpt lat="40.7249056" lon="-3.8683905"><ele>911.0</ele><time>2026-04-10T10:52:28Z</time></trkpt><trkpt lat="40.7248905" lon="-3.868256"><ele>910.4</ele><time>2026-04-10T10:52:28.999Z</time></trkpt><trkpt lat="40.7249063" lon="-3.8681312"><ele>909.8</ele><time>2026-04-10T10:52:30Z</time></trkpt><trkpt lat="40.7249568" lon="-3.8680211"><ele>909.1999999999999</ele><time>2026-04-10T10:52:30.999Z</time></trkpt><trkpt lat="40.7250125" lon="-3.8679159"><ele>908.5999999999999</ele><time>2026-04-10T10:52:32Z</time></trkpt><trkpt lat="40.7250534" lon="-3.8677924"><ele>908.0</ele><time>2026-04-10T10:52:33Z</time></trkpt><trkpt lat="40.7250756" lon="-3.867647"><ele>907.25</ele><time>2026-04-10T10:52:34Z</time></trkpt><trkpt lat="40.7250898" lon="-3.8674885"><ele>906.5</ele><time>2026-04-10T10:52:35Z</time></trkpt><trkpt lat="40.7251027" lon="-3.8673274"><ele>905.75</ele><time>2026-04-10T10:52:36Z</time></trkpt><trkpt lat="40.7251145" lon="-3.8671505"><ele>905.0</ele><time>2026-04-10T10:52:37Z</time></trkpt><trkpt lat="40.72512" lon="-3.8669572"><ele>904.3333333333334</ele><time>2026-04-10T10:52:38Z</time></trkpt><trkpt lat="40.7251247" lon="-3.8667574"><ele>903.6666666666667</ele><time>2026-04-10T10:52:38.999Z</time></trkpt><trkpt lat="40.7251267" lon="-3.8665433"><ele>903.0</ele><time>2026-04-10T10:52:39.999Z</time></trkpt><trkpt lat="40.725127" lon="-3.8663219"><ele>903.0</ele><time>2026-04-10T10:52:41Z</time></trkpt><trkpt lat="40.7251266" lon="-3.8661057"><ele>903.0</ele><time>2026-04-10T10:52:42Z</time></trkpt><trkpt lat="40.7251285" lon="-3.8658912"><ele>903.0</ele><time>2026-04-10T10:52:43Z</time></trkpt><trkpt lat="40.7251294" lon="-3.8656727"><ele>902.6666666666667</ele><time>2026-04-10T10:52:44Z</time></trkpt><trkpt lat="40.7251272" lon="-3.8654535"><ele>902.3333333333334</ele><time>2026-04-10T10:52:45Z</time></trkpt><trkpt lat="40.7251261" lon="-3.8652293"><ele>902.0</ele><time>2026-04-10T10:52:46Z</time></trkpt><trkpt lat="40.7251259" lon="-3.8650058"><ele>902.0</ele><time>2026-04-10T10:52:47Z</time></trkpt><trkpt lat="40.7251269" lon="-3.8647762"><ele>902.0</ele><time>2026-04-10T10:52:48Z</time></trkpt><trkpt lat="40.7251288" lon="-3.8645423"><ele>902.0</ele><time>2026-04-10T10:52:49Z</time></trkpt><trkpt lat="40.7251255" lon="-3.8643084"><ele>901.6666666666667</ele><time>2026-04-10T10:52:50Z</time></trkpt><trkpt lat="40.7251299" lon="-3.8640735"><ele>901.3333333333333</ele><time>2026-04-10T10:52:50.999Z</time></trkpt><trkpt lat="40.7251342" lon="-3.8638338"><ele>901.0</ele><time>2026-04-10T10:52:52Z</time></trkpt><trkpt lat="40.7251528" lon="-3.8635955"><ele>901.0</ele><time>2026-04-10T10:52:53Z</time></trkpt><trkpt lat="40.7251788" lon="-3.863371"><ele>901.0</ele><time>2026-04-10T10:52:54Z</time></trkpt><trkpt lat="40.7252219" lon="-3.8631564"><ele>901.0</ele><time>2026-04-10T10:52:55Z</time></trkpt><trkpt lat="40.725272" lon="-3.8629428"><ele>901.3333333333333</ele><time>2026-04-10T10:52:56Z</time></trkpt><trkpt lat="40.7253298" lon="-3.8627395"><ele>901.6666666666667</ele><time>2026-04-10T10:52:57Z</time></trkpt><trkpt lat="40.7253945" lon="-3.8625384"><ele>902.0</ele><time>2026-04-10T10:52:58Z</time></trkpt><trkpt lat="40.7254713" lon="-3.862348"><ele>902.0</ele><time>2026-04-10T10:52:59Z</time></trkpt><trkpt lat="40.7255512" lon="-3.8621661"><ele>902.0</ele><time>2026-04-10T10:53:00Z</time></trkpt><trkpt lat="40.7256459" lon="-3.8619911"><ele>902.0</ele><time>2026-04-10T10:53:01Z</time></trkpt><trkpt lat="40.7257555" lon="-3.8618264"><ele>902.3333333333334</ele><time>2026-04-10T10:53:02Z</time></trkpt><trkpt lat="40.7258688" lon="-3.8616618"><ele>902.6666666666667</ele><time>2026-04-10T10:53:03Z</time></trkpt><trkpt lat="40.7259861" lon="-3.8615073"><ele>903.0</ele><time>2026-04-10T10:53:04Z</time></trkpt><trkpt lat="40.7261039" lon="-3.8613557"><ele>906.0</ele><time>2026-04-10T10:53:05Z</time></trkpt><trkpt lat="40.7262293" lon="-3.861213"><ele>909.0</ele><time>2026-04-10T10:53:06Z</time></trkpt><trkpt lat="40.7263596" lon="-3.8611004"><ele>912.0</ele><time>2026-04-10T10:53:07Z</time></trkpt><trkpt lat="40.7264821" lon="-3.8610029"><ele>911.75</ele><time>2026-04-10T10:53:08Z</time></trkpt><trkpt lat="40.7266015" lon="-3.8609208"><ele>911.5</ele><time>2026-04-10T10:53:09Z</time></trkpt><trkpt lat="40.7267109" lon="-3.8608396"><ele>911.25</ele><time>2026-04-10T10:53:09.999Z</time></trkpt><trkpt lat="40.726809" lon="-3.86076"><ele>911.0</ele><time>2026-04-10T10:53:11Z</time></trkpt><trkpt lat="40.7268987" lon="-3.8606794"><ele>911.0</ele><time>2026-04-10T10:53:12Z</time></trkpt><trkpt lat="40.726986" lon="-3.8605942"><ele>910.9999999999999</ele><time>2026-04-10T10:53:13Z</time></trkpt><trkpt lat="40.7270722" lon="-3.8605061"><ele>910.9999999999999</ele><time>2026-04-10T10:53:14Z</time></trkpt><trkpt lat="40.7271506" lon="-3.8604124"><ele>911.0</ele><time>2026-04-10T10:53:15Z</time></trkpt><trkpt lat="40.7272277" lon="-3.8603241"><ele>911.0</ele><time>2026-04-10T10:53:16Z</time></trkpt><trkpt lat="40.7272944" lon="-3.8602545"><ele>911.0000000000001</ele><time>2026-04-10T10:53:17Z</time></trkpt><trkpt lat="40.7273465" lon="-3.8601921"><ele>911.0</ele><time>2026-04-10T10:53:18Z</time></trkpt><trkpt lat="40.7273899" lon="-3.8601316"><ele>911.0</ele><time>2026-04-10T10:53:19Z</time></trkpt><trkpt lat="40.727452" lon="-3.8600346"><ele>911.0</ele><time>2026-04-10T10:53:21Z</time></trkpt><trkpt lat="40.7274971" lon="-3.8599417"><ele>911.0000000000001</ele><time>2026-04-10T10:53:23Z</time></trkpt><trkpt lat="40.7275461" lon="-3.8598664"><ele>911.0</ele><time>2026-04-10T10:53:26Z</time></trkpt><trkpt lat="40.7275972" lon="-3.8598091"><ele>910.6666666666667</ele><time>2026-04-10T10:53:43Z</time></trkpt><trkpt lat="40.7276804" lon="-3.859702"><ele>910.3333333333334</ele><time>2026-04-10T10:53:45Z</time></trkpt><trkpt lat="40.7277302" lon="-3.8596321"><ele>910.0</ele><time>2026-04-10T10:53:46Z</time></trkpt><trkpt lat="40.7277818" lon="-3.8595619"><ele>909.6666666666667</ele><time>2026-04-10T10:53:47Z</time></trkpt><trkpt lat="40.7278351" lon="-3.8594755"><ele>909.3333333333334</ele><time>2026-04-10T10:53:48Z</time></trkpt><trkpt lat="40.7279028" lon="-3.8593788"><ele>909.0</ele><time>2026-04-10T10:53:49Z</time></trkpt><trkpt lat="40.7279705" lon="-3.8592712"><ele>907.5</ele><time>2026-04-10T10:53:50Z</time></trkpt><trkpt lat="40.7280372" lon="-3.8591654"><ele>906.0</ele><time>2026-04-10T10:53:51Z</time></trkpt><trkpt lat="40.7281071" lon="-3.8590551"><ele>904.5</ele><time>2026-04-10T10:53:52Z</time></trkpt><trkpt lat="40.7281806" lon="-3.8589347"><ele>903.0</ele><time>2026-04-10T10:53:53Z</time></trkpt><trkpt lat="40.728248" lon="-3.8588022"><ele>903.0</ele><time>2026-04-10T10:53:53.999Z</time></trkpt><trkpt lat="40.7282984" lon="-3.8586636"><ele>903.0</ele><time>2026-04-10T10:53:54.999Z</time></trkpt><trkpt lat="40.7283478" lon="-3.858515"><ele>903.0</ele><time>2026-04-10T10:53:56Z</time></trkpt><trkpt lat="40.7283964" lon="-3.8583517"><ele>903.0</ele><time>2026-04-10T10:53:57Z</time></trkpt><trkpt lat="40.7284432" lon="-3.8581675"><ele>902.6666666666667</ele><time>2026-04-10T10:53:58Z</time></trkpt><trkpt lat="40.72848" lon="-3.8579739"><ele>902.3333333333334</ele><time>2026-04-10T10:53:58.999Z</time></trkpt><trkpt lat="40.7285266" lon="-3.857772"><ele>902.0</ele><time>2026-04-10T10:54:00Z</time></trkpt><trkpt lat="40.7285751" lon="-3.8575699"><ele>903.3333333333334</ele><time>2026-04-10T10:54:01Z</time></trkpt><trkpt lat="40.7286209" lon="-3.8573746"><ele>904.6666666666667</ele><time>2026-04-10T10:54:02Z</time></trkpt><trkpt lat="40.7286681" lon="-3.8571808"><ele>906.0</ele><time>2026-04-10T10:54:03Z</time></trkpt><trkpt lat="40.7287101" lon="-3.8569875"><ele>906.0</ele><time>2026-04-10T10:54:03.999Z</time></trkpt><trkpt lat="40.7287571" lon="-3.8567873"><ele>906.0</ele><time>2026-04-10T10:54:05Z</time></trkpt><trkpt lat="40.7288014" lon="-3.8565756"><ele>906.0</ele><time>2026-04-10T10:54:06Z</time></trkpt><trkpt lat="40.72885" lon="-3.8563615"><ele>906.6666666666667</ele><time>2026-04-10T10:54:06.999Z</time></trkpt><trkpt lat="40.7289017" lon="-3.8561453"><ele>907.3333333333334</ele><time>2026-04-10T10:54:08Z</time></trkpt><trkpt lat="40.7289629" lon="-3.8559288"><ele>908.0</ele><time>2026-04-10T10:54:09Z</time></trkpt><trkpt lat="40.7290343" lon="-3.855713"><ele>906.3333333333334</ele><time>2026-04-10T10:54:09.999Z</time></trkpt><trkpt lat="40.7291199" lon="-3.8555004"><ele>904.6666666666667</ele><time>2026-04-10T10:54:11Z</time></trkpt><trkpt lat="40.7292167" lon="-3.8552963"><ele>903.0</ele><time>2026-04-10T10:54:12Z</time></trkpt><trkpt lat="40.7293201" lon="-3.8551061"><ele>905.6666666666667</ele><time>2026-04-10T10:54:13Z</time></trkpt><trkpt lat="40.729435" lon="-3.8549165"><ele>908.3333333333334</ele><time>2026-04-10T10:54:13.999Z</time></trkpt><trkpt lat="40.7295588" lon="-3.8547317"><ele>911.0</ele><time>2026-04-10T10:54:15Z</time></trkpt><trkpt lat="40.7296817" lon="-3.8545525"><ele>911.0</ele><time>2026-04-10T10:54:16Z</time></trkpt><trkpt lat="40.7298075" lon="-3.8543802"><ele>911.0</ele><time>2026-04-10T10:54:17Z</time></trkpt><trkpt lat="40.7299351" lon="-3.8542096"><ele>911.0</ele><time>2026-04-10T10:54:18Z</time></trkpt><trkpt lat="40.7300556" lon="-3.8540386"><ele>911.0</ele><time>2026-04-10T10:54:19Z</time></trkpt><trkpt lat="40.7301784" lon="-3.8538708"><ele>911.0</ele><time>2026-04-10T10:54:20Z</time></trkpt><trkpt lat="40.7303001" lon="-3.8537032"><ele>911.0</ele><time>2026-04-10T10:54:21Z</time></trkpt><trkpt lat="40.7304242" lon="-3.8535358"><ele>908.3333333333334</ele><time>2026-04-10T10:54:22Z</time></trkpt><trkpt lat="40.7305494" lon="-3.8533704"><ele>905.6666666666667</ele><time>2026-04-10T10:54:23Z</time></trkpt><trkpt lat="40.7306725" lon="-3.8532026"><ele>903.0</ele><time>2026-04-10T10:54:24Z</time></trkpt><trkpt lat="40.7307938" lon="-3.8530294"><ele>903.0</ele><time>2026-04-10T10:54:25Z</time></trkpt><trkpt lat="40.7309157" lon="-3.8528544"><ele>903.0</ele><time>2026-04-10T10:54:26Z</time></trkpt><trkpt lat="40.73104" lon="-3.8526854"><ele>903.0</ele><time>2026-04-10T10:54:27Z</time></trkpt><trkpt lat="40.7311678" lon="-3.8525181"><ele>904.6666666666667</ele><time>2026-04-10T10:54:28Z</time></trkpt><trkpt lat="40.7312965" lon="-3.8523452"><ele>906.3333333333334</ele><time>2026-04-10T10:54:29Z</time></trkpt><trkpt lat="40.7314238" lon="-3.8521758"><ele>908.0</ele><time>2026-04-10T10:54:30Z</time></trkpt><trkpt lat="40.7315566" lon="-3.8520044"><ele>908.0</ele><time>2026-04-10T10:54:31Z</time></trkpt><trkpt lat="40.7316804" lon="-3.8518261"><ele>908.0</ele><time>2026-04-10T10:54:32Z</time></trkpt><trkpt lat="40.731809" lon="-3.8516484"><ele>908.0</ele><time>2026-04-10T10:54:33Z</time></trkpt><trkpt lat="40.7319406" lon="-3.8514683"><ele>908.3333333333334</ele><time>2026-04-10T10:54:34Z</time></trkpt><trkpt lat="40.7320733" lon="-3.8512892"><ele>908.6666666666667</ele><time>2026-04-10T10:54:34.999Z</time></trkpt><trkpt lat="40.7322014" lon="-3.8511113"><ele>909.0</ele><time>2026-04-10T10:54:36Z</time></trkpt><trkpt lat="40.7323263" lon="-3.8509334"><ele>906.6666666666667</ele><time>2026-04-10T10:54:37Z</time></trkpt><trkpt lat="40.7324461" lon="-3.8507622"><ele>904.3333333333334</ele><time>2026-04-10T10:54:38Z</time></trkpt><trkpt lat="40.7325622" lon="-3.8505962"><ele>902.0</ele><time>2026-04-10T10:54:39Z</time></trkpt><trkpt lat="40.7326818" lon="-3.8504323"><ele>903.6666666666667</ele><time>2026-04-10T10:54:40Z</time></trkpt><trkpt lat="40.732808" lon="-3.850279"><ele>905.3333333333333</ele><time>2026-04-10T10:54:40.999Z</time></trkpt><trkpt lat="40.7329493" lon="-3.8501508"><ele>907.0</ele><time>2026-04-10T10:54:42Z</time></trkpt><trkpt lat="40.7330975" lon="-3.8500318"><ele>907.0</ele><time>2026-04-10T10:54:43Z</time></trkpt><trkpt lat="40.7332446" lon="-3.8499264"><ele>907.0</ele><time>2026-04-10T10:54:44Z</time></trkpt><trkpt lat="40.733384" lon="-3.84983"><ele>907.0</ele><time>2026-04-10T10:54:45Z</time></trkpt><trkpt lat="40.7335181" lon="-3.8497344"><ele>908.25</ele><time>2026-04-10T10:54:46Z</time></trkpt><trkpt lat="40.7336503" lon="-3.8496379"><ele>909.5</ele><time>2026-04-10T10:54:47Z</time></trkpt><trkpt lat="40.7337696" lon="-3.8495267"><ele>910.75</ele><time>2026-04-10T10:54:48Z</time></trkpt><trkpt lat="40.7338802" lon="-3.8494034"><ele>912.0</ele><time>2026-04-10T10:54:48.999Z</time></trkpt><trkpt lat="40.733989" lon="-3.8492736"><ele>908.75</ele><time>2026-04-10T10:54:50Z</time></trkpt><trkpt lat="40.7340864" lon="-3.8491324"><ele>905.5</ele><time>2026-04-10T10:54:50.999Z</time></trkpt><trkpt lat="40.7341718" lon="-3.8489899"><ele>902.25</ele><time>2026-04-10T10:54:52Z</time></trkpt><trkpt lat="40.7342564" lon="-3.848868"><ele>899.0</ele><time>2026-04-10T10:54:53Z</time></trkpt><trkpt lat="40.7343551" lon="-3.8487843"><ele>900.0</ele><time>2026-04-10T10:54:54Z</time></trkpt><trkpt lat="40.7344665" lon="-3.8487491"><ele>901.0</ele><time>2026-04-10T10:54:55Z</time></trkpt><trkpt lat="40.7345934" lon="-3.8487368"><ele>902.0</ele><time>2026-04-10T10:54:56Z</time></trkpt><trkpt lat="40.7347203" lon="-3.8487"><ele>903.0</ele><time>2026-04-10T10:54:56.999Z</time></trkpt><trkpt lat="40.734857" lon="-3.8486415"><ele>903.0</ele><time>2026-04-10T10:54:58Z</time></trkpt><trkpt lat="40.7350059" lon="-3.8485637"><ele>903.0</ele><time>2026-04-10T10:54:59Z</time></trkpt><trkpt lat="40.7351467" lon="-3.8484562"><ele>903.0</ele><time>2026-04-10T10:55:00Z</time></trkpt><trkpt lat="40.7352814" lon="-3.848342"><ele>905.6666666666667</ele><time>2026-04-10T10:55:01Z</time></trkpt><trkpt lat="40.7354055" lon="-3.8482121"><ele>908.3333333333334</ele><time>2026-04-10T10:55:02Z</time></trkpt><trkpt lat="40.7355192" lon="-3.8480633"><ele>911.0</ele><time>2026-04-10T10:55:02.999Z</time></trkpt><trkpt lat="40.73563" lon="-3.8479027"><ele>911.0</ele><time>2026-04-10T10:55:04Z</time></trkpt><trkpt lat="40.7357322" lon="-3.8477212"><ele>911.0</ele><time>2026-04-10T10:55:05Z</time></trkpt><trkpt lat="40.7358305" lon="-3.8475303"><ele>911.0</ele><time>2026-04-10T10:55:06Z</time></trkpt><trkpt lat="40.7359346" lon="-3.8473353"><ele>911.3333333333334</ele><time>2026-04-10T10:55:07Z</time></trkpt><trkpt lat="40.736047" lon="-3.8471382"><ele>911.6666666666667</ele><time>2026-04-10T10:55:08Z</time></trkpt><trkpt lat="40.7361611" lon="-3.8469354"><ele>912.0</ele><time>2026-04-10T10:55:09Z</time></trkpt><trkpt lat="40.7362765" lon="-3.8467279"><ele>909.0</ele><time>2026-04-10T10:55:10Z</time></trkpt><trkpt lat="40.7363899" lon="-3.8465161"><ele>906.0</ele><time>2026-04-10T10:55:11Z</time></trkpt><trkpt lat="40.7365058" lon="-3.846311"><ele>903.0</ele><time>2026-04-10T10:55:12Z</time></trkpt><trkpt lat="40.73662" lon="-3.8461114"><ele>903.6666666666667</ele><time>2026-04-10T10:55:12.999Z</time></trkpt><trkpt lat="40.7367333" lon="-3.8459142"><ele>904.3333333333334</ele><time>2026-04-10T10:55:14Z</time></trkpt><trkpt lat="40.7368418" lon="-3.8457143"><ele>905.0</ele><time>2026-04-10T10:55:15Z</time></trkpt><trkpt lat="40.7369493" lon="-3.8455116"><ele>905.0</ele><time>2026-04-10T10:55:16Z</time></trkpt><trkpt lat="40.7370561" lon="-3.8453138"><ele>905.0</ele><time>2026-04-10T10:55:17Z</time></trkpt><trkpt lat="40.7371631" lon="-3.8451162"><ele>905.0</ele><time>2026-04-10T10:55:18Z</time></trkpt><trkpt lat="40.7372778" lon="-3.8449279"><ele>903.3333333333334</ele><time>2026-04-10T10:55:19Z</time></trkpt><trkpt lat="40.7373944" lon="-3.8447517"><ele>901.6666666666667</ele><time>2026-04-10T10:55:20Z</time></trkpt><trkpt lat="40.7375243" lon="-3.8445859"><ele>900.0</ele><time>2026-04-10T10:55:21Z</time></trkpt><trkpt lat="40.7376646" lon="-3.8444321"><ele>900.0</ele><time>2026-04-10T10:55:21.999Z</time></trkpt><trkpt lat="40.7378126" lon="-3.844296"><ele>900.0</ele><time>2026-04-10T10:55:23Z</time></trkpt><trkpt lat="40.7379631" lon="-3.8441668"><ele>900.0</ele><time>2026-04-10T10:55:24Z</time></trkpt><trkpt lat="40.7381092" lon="-3.8440456"><ele>900.0</ele><time>2026-04-10T10:55:25Z</time></trkpt><trkpt lat="40.7382508" lon="-3.8439329"><ele>900.0</ele><time>2026-04-10T10:55:26Z</time></trkpt><trkpt lat="40.7383945" lon="-3.8438279"><ele>900.0</ele><time>2026-04-10T10:55:27Z</time></trkpt><trkpt lat="40.7385351" lon="-3.8437252"><ele>900.3333333333333</ele><time>2026-04-10T10:55:27.999Z</time></trkpt><trkpt lat="40.7386802" lon="-3.8436163"><ele>900.6666666666666</ele><time>2026-04-10T10:55:29Z</time></trkpt><trkpt lat="40.7388225" lon="-3.8435008"><ele>901.0</ele><time>2026-04-10T10:55:30Z</time></trkpt><trkpt lat="40.7389673" lon="-3.8433826"><ele>900.0</ele><time>2026-04-10T10:55:31Z</time></trkpt><trkpt lat="40.7391133" lon="-3.8432571"><ele>899.0</ele><time>2026-04-10T10:55:32Z</time></trkpt><trkpt lat="40.7392573" lon="-3.8431262"><ele>898.0</ele><time>2026-04-10T10:55:33Z</time></trkpt><trkpt lat="40.7394042" lon="-3.8429881"><ele>899.6666666666666</ele><time>2026-04-10T10:55:33.999Z</time></trkpt><trkpt lat="40.7395424" lon="-3.8428392"><ele>901.3333333333333</ele><time>2026-04-10T10:55:34.999Z</time></trkpt><trkpt lat="40.7396748" lon="-3.8426748"><ele>903.0</ele><time>2026-04-10T10:55:35.999Z</time></trkpt><trkpt lat="40.7397987" lon="-3.8424998"><ele>903.0</ele><time>2026-04-10T10:55:37Z</time></trkpt><trkpt lat="40.7399078" lon="-3.8423132"><ele>903.0</ele><time>2026-04-10T10:55:38Z</time></trkpt><trkpt lat="40.7400082" lon="-3.8421089"><ele>903.0</ele><time>2026-04-10T10:55:39Z</time></trkpt><trkpt lat="40.7400977" lon="-3.8418933"><ele>902.6666666666667</ele><time>2026-04-10T10:55:40Z</time></trkpt><trkpt lat="40.7401871" lon="-3.8416861"><ele>902.3333333333334</ele><time>2026-04-10T10:55:41Z</time></trkpt><trkpt lat="40.7402785" lon="-3.8414779"><ele>902.0</ele><time>2026-04-10T10:55:42Z</time></trkpt><trkpt lat="40.7403713" lon="-3.8412689"><ele>902.3333333333334</ele><time>2026-04-10T10:55:42.999Z</time></trkpt><trkpt lat="40.7404582" lon="-3.8410581"><ele>902.6666666666667</ele><time>2026-04-10T10:55:43.999Z</time></trkpt><trkpt lat="40.7405441" lon="-3.8408449"><ele>903.0</ele><time>2026-04-10T10:55:45Z</time></trkpt><trkpt lat="40.7406351" lon="-3.840634"><ele>903.0</ele><time>2026-04-10T10:55:46Z</time></trkpt><trkpt lat="40.7407267" lon="-3.840424"><ele>903.0</ele><time>2026-04-10T10:55:47Z</time></trkpt><trkpt lat="40.7408131" lon="-3.8402115"><ele>903.0</ele><time>2026-04-10T10:55:48Z</time></trkpt><trkpt lat="40.740897" lon="-3.8400054"><ele>902.6666666666667</ele><time>2026-04-10T10:55:49Z</time></trkpt><trkpt lat="40.7409802" lon="-3.8398209"><ele>902.3333333333334</ele><time>2026-04-10T10:55:50Z</time></trkpt><trkpt lat="40.7410522" lon="-3.8396419"><ele>902.0</ele><time>2026-04-10T10:55:51Z</time></trkpt><trkpt lat="40.7411219" lon="-3.8394809"><ele>902.0</ele><time>2026-04-10T10:55:52Z</time></trkpt><trkpt lat="40.7411823" lon="-3.8393361"><ele>902.0</ele><time>2026-04-10T10:55:53Z</time></trkpt><trkpt lat="40.7412439" lon="-3.839191"><ele>902.0</ele><time>2026-04-10T10:55:54Z</time></trkpt><trkpt lat="40.7413057" lon="-3.8390472"><ele>902.0</ele><time>2026-04-10T10:55:55Z</time></trkpt><trkpt lat="40.7413707" lon="-3.8389002"><ele>902.0</ele><time>2026-04-10T10:55:56Z</time></trkpt><trkpt lat="40.7414367" lon="-3.8387507"><ele>902.0</ele><time>2026-04-10T10:55:56.999Z</time></trkpt><trkpt lat="40.7415015" lon="-3.8385981"><ele>902.0</ele><time>2026-04-10T10:55:58Z</time></trkpt><trkpt lat="40.7415643" lon="-3.838435"><ele>902.0</ele><time>2026-04-10T10:55:59Z</time></trkpt><trkpt lat="40.741623" lon="-3.8382617"><ele>901.3333333333334</ele><time>2026-04-10T10:56:00Z</time></trkpt><trkpt lat="40.7416825" lon="-3.8380725"><ele>900.6666666666667</ele><time>2026-04-10T10:56:01Z</time></trkpt><trkpt lat="40.741731" lon="-3.8378732"><ele>900.0</ele><time>2026-04-10T10:56:02Z</time></trkpt><trkpt lat="40.7417693" lon="-3.8376601"><ele>899.0</ele><time>2026-04-10T10:56:03Z</time></trkpt><trkpt lat="40.7417939" lon="-3.8374317"><ele>898.0</ele><time>2026-04-10T10:56:03.999Z</time></trkpt><trkpt lat="40.7418035" lon="-3.8371958"><ele>897.0</ele><time>2026-04-10T10:56:05Z</time></trkpt><trkpt lat="40.7417978" lon="-3.8369496"><ele>897.0</ele><time>2026-04-10T10:56:06Z</time></trkpt><trkpt lat="40.7417811" lon="-3.8366972"><ele>897.0</ele><time>2026-04-10T10:56:07Z</time></trkpt><trkpt lat="40.7417538" lon="-3.8364383"><ele>897.0</ele><time>2026-04-10T10:56:08Z</time></trkpt><trkpt lat="40.7417134" lon="-3.8361852"><ele>898.0</ele><time>2026-04-10T10:56:09Z</time></trkpt><trkpt lat="40.7416702" lon="-3.8359406"><ele>899.0</ele><time>2026-04-10T10:56:10Z</time></trkpt><trkpt lat="40.7416274" lon="-3.8356935"><ele>900.0</ele><time>2026-04-10T10:56:10.999Z</time></trkpt><trkpt lat="40.7415816" lon="-3.8354427"><ele>900.0</ele><time>2026-04-10T10:56:12Z</time></trkpt><trkpt lat="40.7415345" lon="-3.8351949"><ele>900.0</ele><time>2026-04-10T10:56:13Z</time></trkpt><trkpt lat="40.741487" lon="-3.8349587"><ele>900.0</ele><time>2026-04-10T10:56:14Z</time></trkpt><trkpt lat="40.7414414" lon="-3.8347173"><ele>901.0</ele><time>2026-04-10T10:56:15Z</time></trkpt><trkpt lat="40.7413972" lon="-3.8344789"><ele>902.0</ele><time>2026-04-10T10:56:16Z</time></trkpt><trkpt lat="40.7413575" lon="-3.8342413"><ele>903.0</ele><time>2026-04-10T10:56:17Z</time></trkpt><trkpt lat="40.7413246" lon="-3.834016"><ele>903.0</ele><time>2026-04-10T10:56:18Z</time></trkpt><trkpt lat="40.7413084" lon="-3.83379"><ele>903.0</ele><time>2026-04-10T10:56:19Z</time></trkpt><trkpt lat="40.7413051" lon="-3.8335704"><ele>903.0</ele><time>2026-04-10T10:56:20Z</time></trkpt><trkpt lat="40.7413077" lon="-3.8333602"><ele>903.0</ele><time>2026-04-10T10:56:20.999Z</time></trkpt><trkpt lat="40.7413164" lon="-3.8331568"><ele>903.0</ele><time>2026-04-10T10:56:21.999Z</time></trkpt><trkpt lat="40.7413326" lon="-3.8329713"><ele>903.0</ele><time>2026-04-10T10:56:23Z</time></trkpt><trkpt lat="40.7413515" lon="-3.8327861"><ele>903.0</ele><time>2026-04-10T10:56:24Z</time></trkpt><trkpt lat="40.7413801" lon="-3.8326092"><ele>902.25</ele><time>2026-04-10T10:56:25Z</time></trkpt><trkpt lat="40.7414078" lon="-3.8324428"><ele>901.5</ele><time>2026-04-10T10:56:26Z</time></trkpt><trkpt lat="40.74144" lon="-3.8322744"><ele>900.75</ele><time>2026-04-10T10:56:27Z</time></trkpt><trkpt lat="40.7414705" lon="-3.8320989"><ele>900.0</ele><time>2026-04-10T10:56:28Z</time></trkpt><trkpt lat="40.7415023" lon="-3.8319139"><ele>899.3333333333333</ele><time>2026-04-10T10:56:29Z</time></trkpt><trkpt lat="40.7415425" lon="-3.8317209"><ele>898.6666666666666</ele><time>2026-04-10T10:56:30Z</time></trkpt><trkpt lat="40.7415866" lon="-3.8315099"><ele>898.0</ele><time>2026-04-10T10:56:31Z</time></trkpt><trkpt lat="40.7416256" lon="-3.8312888"><ele>898.0</ele><time>2026-04-10T10:56:31.999Z</time></trkpt><trkpt lat="40.7416689" lon="-3.8310571"><ele>898.0</ele><time>2026-04-10T10:56:33Z</time></trkpt><trkpt lat="40.7417184" lon="-3.8308198"><ele>898.0</ele><time>2026-04-10T10:56:34Z</time></trkpt><trkpt lat="40.7417722" lon="-3.8305871"><ele>898.0</ele><time>2026-04-10T10:56:35Z</time></trkpt><trkpt lat="40.7418222" lon="-3.8303505"><ele>898.0</ele><time>2026-04-10T10:56:36Z</time></trkpt><trkpt lat="40.7418618" lon="-3.830113"><ele>898.0</ele><time>2026-04-10T10:56:37Z</time></trkpt><trkpt lat="40.7418952" lon="-3.8298599"><ele>898.0</ele><time>2026-04-10T10:56:38Z</time></trkpt><trkpt lat="40.741918" lon="-3.8296004"><ele>898.0</ele><time>2026-04-10T10:56:39Z</time></trkpt><trkpt lat="40.7419259" lon="-3.8293331"><ele>898.0</ele><time>2026-04-10T10:56:40Z</time></trkpt><trkpt lat="40.7419245" lon="-3.8290638"><ele>897.6666666666666</ele><time>2026-04-10T10:56:41Z</time></trkpt><trkpt lat="40.741914" lon="-3.828785"><ele>897.3333333333333</ele><time>2026-04-10T10:56:42Z</time></trkpt><trkpt lat="40.7418883" lon="-3.8285064"><ele>897.0</ele><time>2026-04-10T10:56:43Z</time></trkpt><trkpt lat="40.7418403" lon="-3.8282296"><ele>897.0</ele><time>2026-04-10T10:56:44Z</time></trkpt><trkpt lat="40.7417844" lon="-3.8279552"><ele>897.0</ele><time>2026-04-10T10:56:45Z</time></trkpt><trkpt lat="40.7417199" lon="-3.8276791"><ele>897.0</ele><time>2026-04-10T10:56:46Z</time></trkpt><trkpt lat="40.7416447" lon="-3.8274198"><ele>897.0</ele><time>2026-04-10T10:56:47Z</time></trkpt><trkpt lat="40.7415552" lon="-3.8271724"><ele>897.0</ele><time>2026-04-10T10:56:48Z</time></trkpt><trkpt lat="40.7414537" lon="-3.826927"><ele>897.0</ele><time>2026-04-10T10:56:48.999Z</time></trkpt><trkpt lat="40.7413484" lon="-3.8266965"><ele>896.6666666666667</ele><time>2026-04-10T10:56:50Z</time></trkpt><trkpt lat="40.7412291" lon="-3.8264758"><ele>896.3333333333334</ele><time>2026-04-10T10:56:51Z</time></trkpt><trkpt lat="40.7411019" lon="-3.8262657"><ele>896.0</ele><time>2026-04-10T10:56:52Z</time></trkpt><trkpt lat="40.7409596" lon="-3.8260674"><ele>896.3333333333334</ele><time>2026-04-10T10:56:53Z</time></trkpt><trkpt lat="40.7408132" lon="-3.8258857"><ele>896.6666666666667</ele><time>2026-04-10T10:56:54Z</time></trkpt><trkpt lat="40.7406649" lon="-3.8257106"><ele>897.0</ele><time>2026-04-10T10:56:55Z</time></trkpt><trkpt lat="40.7405262" lon="-3.8255513"><ele>897.0</ele><time>2026-04-10T10:56:56Z</time></trkpt><trkpt lat="40.7403958" lon="-3.825407"><ele>897.0</ele><time>2026-04-10T10:56:57Z</time></trkpt><trkpt lat="40.7402721" lon="-3.82527"><ele>897.0</ele><time>2026-04-10T10:56:58Z</time></trkpt><trkpt lat="40.7401517" lon="-3.8251391"><ele>897.0</ele><time>2026-04-10T10:56:59Z</time></trkpt><trkpt lat="40.7400275" lon="-3.8249966"><ele>897.0</ele><time>2026-04-10T10:57:00Z</time></trkpt><trkpt lat="40.7398962" lon="-3.8248487"><ele>897.0</ele><time>2026-04-10T10:57:01Z</time></trkpt><trkpt lat="40.739757" lon="-3.8247068"><ele>897.0</ele><time>2026-04-10T10:57:02Z</time></trkpt><trkpt lat="40.7396145" lon="-3.824568"><ele>897.0</ele><time>2026-04-10T10:57:03Z</time></trkpt><trkpt lat="40.7394702" lon="-3.8244143"><ele>897.0</ele><time>2026-04-10T10:57:04Z</time></trkpt><trkpt lat="40.7393249" lon="-3.8242505"><ele>896.6666666666667</ele><time>2026-04-10T10:57:05Z</time></trkpt><trkpt lat="40.7391811" lon="-3.8240854"><ele>896.3333333333334</ele><time>2026-04-10T10:57:06Z</time></trkpt><trkpt lat="40.7390381" lon="-3.8239171"><ele>896.0</ele><time>2026-04-10T10:57:07Z</time></trkpt><trkpt lat="40.7389037" lon="-3.8237409"><ele>896.0</ele><time>2026-04-10T10:57:07.999Z</time></trkpt><trkpt lat="40.738779" lon="-3.8235579"><ele>896.0</ele><time>2026-04-10T10:57:09Z</time></trkpt><trkpt lat="40.738658" lon="-3.823372"><ele>896.0</ele><time>2026-04-10T10:57:09.999Z</time></trkpt><trkpt lat="40.738541" lon="-3.8231784"><ele>895.6666666666667</ele><time>2026-04-10T10:57:11Z</time></trkpt><trkpt lat="40.7384316" lon="-3.8229721"><ele>895.3333333333333</ele><time>2026-04-10T10:57:12Z</time></trkpt><trkpt lat="40.7383303" lon="-3.8227556"><ele>895.0</ele><time>2026-04-10T10:57:13Z</time></trkpt><trkpt lat="40.7382408" lon="-3.8225416"><ele>895.0</ele><time>2026-04-10T10:57:14Z</time></trkpt><trkpt lat="40.7381583" lon="-3.822316"><ele>895.0</ele><time>2026-04-10T10:57:15Z</time></trkpt><trkpt lat="40.7380825" lon="-3.8220916"><ele>895.0</ele><time>2026-04-10T10:57:15.999Z</time></trkpt><trkpt lat="40.7380226" lon="-3.8218505"><ele>894.6666666666666</ele><time>2026-04-10T10:57:16.999Z</time></trkpt><trkpt lat="40.7379683" lon="-3.8216155"><ele>894.3333333333333</ele><time>2026-04-10T10:57:18Z</time></trkpt><trkpt lat="40.7379198" lon="-3.8213729"><ele>894.0</ele><time>2026-04-10T10:57:19Z</time></trkpt><trkpt lat="40.7378873" lon="-3.8211258"><ele>894.6666666666667</ele><time>2026-04-10T10:57:20Z</time></trkpt><trkpt lat="40.7378668" lon="-3.8208849"><ele>895.3333333333334</ele><time>2026-04-10T10:57:21Z</time></trkpt><trkpt lat="40.7378541" lon="-3.8206423"><ele>896.0</ele><time>2026-04-10T10:57:22Z</time></trkpt><trkpt lat="40.7378434" lon="-3.8203977"><ele>896.6666666666667</ele><time>2026-04-10T10:57:23Z</time></trkpt><trkpt lat="40.7378384" lon="-3.8201487"><ele>897.3333333333333</ele><time>2026-04-10T10:57:24Z</time></trkpt><trkpt lat="40.7378417" lon="-3.8198973"><ele>898.0</ele><time>2026-04-10T10:57:25Z</time></trkpt><trkpt lat="40.7378594" lon="-3.8196423"><ele>898.0</ele><time>2026-04-10T10:57:25.999Z</time></trkpt><trkpt lat="40.7378885" lon="-3.8193845"><ele>898.0</ele><time>2026-04-10T10:57:27Z</time></trkpt><trkpt lat="40.7379289" lon="-3.8191317"><ele>898.0</ele><time>2026-04-10T10:57:28Z</time></trkpt><trkpt lat="40.7379769" lon="-3.8188734"><ele>897.6666666666666</ele><time>2026-04-10T10:57:28.999Z</time></trkpt><trkpt lat="40.7380332" lon="-3.8186209"><ele>897.3333333333333</ele><time>2026-04-10T10:57:30Z</time></trkpt><trkpt lat="40.7381026" lon="-3.8183695"><ele>897.0</ele><time>2026-04-10T10:57:31Z</time></trkpt><trkpt lat="40.7381772" lon="-3.818125"><ele>897.0</ele><time>2026-04-10T10:57:32Z</time></trkpt><trkpt lat="40.7382586" lon="-3.8178943"><ele>897.0</ele><time>2026-04-10T10:57:33Z</time></trkpt><trkpt lat="40.7383442" lon="-3.8176723"><ele>897.0</ele><time>2026-04-10T10:57:34Z</time></trkpt><trkpt lat="40.7384267" lon="-3.8174474"><ele>897.0</ele><time>2026-04-10T10:57:35Z</time></trkpt><trkpt lat="40.7385053" lon="-3.8172286"><ele>897.0</ele><time>2026-04-10T10:57:35.999Z</time></trkpt><trkpt lat="40.7385892" lon="-3.8170095"><ele>897.0</ele><time>2026-04-10T10:57:36.999Z</time></trkpt><trkpt lat="40.7386676" lon="-3.8168011"><ele>897.0</ele><time>2026-04-10T10:57:38Z</time></trkpt><trkpt lat="40.7387449" lon="-3.8165994"><ele>897.0</ele><time>2026-04-10T10:57:39Z</time></trkpt><trkpt lat="40.7388214" lon="-3.8163982"><ele>897.0</ele><time>2026-04-10T10:57:40Z</time></trkpt><trkpt lat="40.7388946" lon="-3.8161988"><ele>897.0</ele><time>2026-04-10T10:57:41Z</time></trkpt><trkpt lat="40.738969" lon="-3.8160035"><ele>897.0</ele><time>2026-04-10T10:57:41.999Z</time></trkpt><trkpt lat="40.7390358" lon="-3.8158177"><ele>897.0</ele><time>2026-04-10T10:57:43Z</time></trkpt><trkpt lat="40.7390985" lon="-3.8156466"><ele>897.0</ele><time>2026-04-10T10:57:44Z</time></trkpt><trkpt lat="40.7391537" lon="-3.8154842"><ele>897.0</ele><time>2026-04-10T10:57:45Z</time></trkpt><trkpt lat="40.7392055" lon="-3.8153316"><ele>897.0</ele><time>2026-04-10T10:57:46Z</time></trkpt><trkpt lat="40.7392511" lon="-3.8151904"><ele>897.0</ele><time>2026-04-10T10:57:47Z</time></trkpt><trkpt lat="40.7392931" lon="-3.8150589"><ele>897.1666666666666</ele><time>2026-04-10T10:57:48Z</time></trkpt><trkpt lat="40.7393182" lon="-3.8149366"><ele>897.3333333333333</ele><time>2026-04-10T10:57:49Z</time></trkpt><trkpt lat="40.7393278" lon="-3.8148154"><ele>897.5</ele><time>2026-04-10T10:57:50Z</time></trkpt><trkpt lat="40.7393224" lon="-3.8146994"><ele>897.6666666666666</ele><time>2026-04-10T10:57:51Z</time></trkpt><trkpt lat="40.7393162" lon="-3.8145844"><ele>897.8333333333333</ele><time>2026-04-10T10:57:52Z</time></trkpt><trkpt lat="40.7393402" lon="-3.8144778"><ele>898.0</ele><time>2026-04-10T10:57:53Z</time></trkpt><trkpt lat="40.7393919" lon="-3.8143725"><ele>897.8</ele><time>2026-04-10T10:57:54Z</time></trkpt><trkpt lat="40.7394632" lon="-3.8142928"><ele>897.5999999999999</ele><time>2026-04-10T10:57:54.999Z</time></trkpt><trkpt lat="40.7395381" lon="-3.8142295"><ele>897.4000000000001</ele><time>2026-04-10T10:57:56Z</time></trkpt><trkpt lat="40.7396125" lon="-3.814152"><ele>897.2</ele><time>2026-04-10T10:57:57Z</time></trkpt><trkpt lat="40.7396783" lon="-3.8140468"><ele>897.0</ele><time>2026-04-10T10:57:58Z</time></trkpt><trkpt lat="40.7397372" lon="-3.8139266"><ele>897.0</ele><time>2026-04-10T10:57:59Z</time></trkpt><trkpt lat="40.7397913" lon="-3.8137893"><ele>897.0</ele><time>2026-04-10T10:58:00Z</time></trkpt><trkpt lat="40.739845" lon="-3.8136452"><ele>897.0</ele><time>2026-04-10T10:58:01Z</time></trkpt><trkpt lat="40.7399028" lon="-3.8134947"><ele>897.0</ele><time>2026-04-10T10:58:02Z</time></trkpt><trkpt lat="40.7399625" lon="-3.8133381"><ele>897.25</ele><time>2026-04-10T10:58:03Z</time></trkpt><trkpt lat="40.7400218" lon="-3.8131806"><ele>897.5</ele><time>2026-04-10T10:58:04Z</time></trkpt><trkpt lat="40.7400809" lon="-3.8130326"><ele>897.75</ele><time>2026-04-10T10:58:05Z</time></trkpt><trkpt lat="40.7401419" lon="-3.8128837"><ele>898.0</ele><time>2026-04-10T10:58:06Z</time></trkpt><trkpt lat="40.7402065" lon="-3.8127285"><ele>898.75</ele><time>2026-04-10T10:58:07Z</time></trkpt><trkpt lat="40.7402817" lon="-3.8125762"><ele>899.5</ele><time>2026-04-10T10:58:08Z</time></trkpt><trkpt lat="40.7403549" lon="-3.8124217"><ele>900.25</ele><time>2026-04-10T10:58:09Z</time></trkpt><trkpt lat="40.7404373" lon="-3.8122626"><ele>901.0</ele><time>2026-04-10T10:58:10Z</time></trkpt><trkpt lat="40.7405154" lon="-3.8120971"><ele>901.0</ele><time>2026-04-10T10:58:11Z</time></trkpt><trkpt lat="40.7405989" lon="-3.8119319"><ele>901.0</ele><time>2026-04-10T10:58:11.999Z</time></trkpt><trkpt lat="40.7406831" lon="-3.8117641"><ele>901.0</ele><time>2026-04-10T10:58:13Z</time></trkpt><trkpt lat="40.7407686" lon="-3.8115962"><ele>901.6666666666666</ele><time>2026-04-10T10:58:14Z</time></trkpt><trkpt lat="40.7408583" lon="-3.8114263"><ele>902.3333333333333</ele><time>2026-04-10T10:58:15Z</time></trkpt><trkpt lat="40.740945" lon="-3.8112569"><ele>903.0</ele><time>2026-04-10T10:58:16Z</time></trkpt><trkpt lat="40.741033" lon="-3.8110857"><ele>904.3333333333333</ele><time>2026-04-10T10:58:17Z</time></trkpt><trkpt lat="40.7411219" lon="-3.8109176"><ele>905.6666666666666</ele><time>2026-04-10T10:58:18Z</time></trkpt><trkpt lat="40.7412103" lon="-3.8107548"><ele>907.0</ele><time>2026-04-10T10:58:19Z</time></trkpt><trkpt lat="40.7412967" lon="-3.810592"><ele>907.0</ele><time>2026-04-10T10:58:20Z</time></trkpt><trkpt lat="40.7413819" lon="-3.8104205"><ele>907.0</ele><time>2026-04-10T10:58:21Z</time></trkpt><trkpt lat="40.7414706" lon="-3.8102504"><ele>907.0</ele><time>2026-04-10T10:58:22Z</time></trkpt><trkpt lat="40.7415619" lon="-3.8100813"><ele>907.0</ele><time>2026-04-10T10:58:23Z</time></trkpt><trkpt lat="40.7416515" lon="-3.8099104"><ele>907.0</ele><time>2026-04-10T10:58:24Z</time></trkpt><trkpt lat="40.7417431" lon="-3.8097369"><ele>907.0</ele><time>2026-04-10T10:58:25Z</time></trkpt><trkpt lat="40.7418333" lon="-3.8095631"><ele>907.0</ele><time>2026-04-10T10:58:26Z</time></trkpt><trkpt lat="40.7419241" lon="-3.8093882"><ele>907.0</ele><time>2026-04-10T10:58:27Z</time></trkpt><trkpt lat="40.7420183" lon="-3.8092082"><ele>907.0</ele><time>2026-04-10T10:58:28Z</time></trkpt><trkpt lat="40.7421094" lon="-3.8090244"><ele>907.0</ele><time>2026-04-10T10:58:29Z</time></trkpt><trkpt lat="40.7422041" lon="-3.8088402"><ele>907.0</ele><time>2026-04-10T10:58:30Z</time></trkpt><trkpt lat="40.7422982" lon="-3.8086591"><ele>907.0</ele><time>2026-04-10T10:58:31Z</time></trkpt><trkpt lat="40.7423939" lon="-3.8084816"><ele>906.3333333333333</ele><time>2026-04-10T10:58:32Z</time></trkpt><trkpt lat="40.742484" lon="-3.8083062"><ele>905.6666666666667</ele><time>2026-04-10T10:58:33Z</time></trkpt><trkpt lat="40.7425763" lon="-3.808134"><ele>905.0</ele><time>2026-04-10T10:58:34Z</time></trkpt><trkpt lat="40.7426726" lon="-3.8079647"><ele>905.0</ele><time>2026-04-10T10:58:35Z</time></trkpt><trkpt lat="40.7427644" lon="-3.8077952"><ele>905.0</ele><time>2026-04-10T10:58:36Z</time></trkpt><trkpt lat="40.7428495" lon="-3.8076262"><ele>905.0</ele><time>2026-04-10T10:58:37Z</time></trkpt><trkpt lat="40.7429337" lon="-3.8074553"><ele>905.3333333333334</ele><time>2026-04-10T10:58:38Z</time></trkpt><trkpt lat="40.743019" lon="-3.8072841"><ele>905.6666666666667</ele><time>2026-04-10T10:58:39Z</time></trkpt><trkpt lat="40.7431053" lon="-3.807107"><ele>906.0</ele><time>2026-04-10T10:58:40Z</time></trkpt><trkpt lat="40.7431931" lon="-3.8069323"><ele>906.3333333333333</ele><time>2026-04-10T10:58:41Z</time></trkpt><trkpt lat="40.7432835" lon="-3.8067582"><ele>906.6666666666666</ele><time>2026-04-10T10:58:42Z</time></trkpt><trkpt lat="40.7433754" lon="-3.8065832"><ele>907.0</ele><time>2026-04-10T10:58:43Z</time></trkpt><trkpt lat="40.7434681" lon="-3.8064122"><ele>907.6666666666666</ele><time>2026-04-10T10:58:44Z</time></trkpt><trkpt lat="40.7435587" lon="-3.806241"><ele>908.3333333333333</ele><time>2026-04-10T10:58:45Z</time></trkpt><trkpt lat="40.7436542" lon="-3.8060676"><ele>909.0</ele><time>2026-04-10T10:58:46Z</time></trkpt><trkpt lat="40.7437505" lon="-3.805889"><ele>909.0</ele><time>2026-04-10T10:58:47Z</time></trkpt><trkpt lat="40.7438442" lon="-3.8057106"><ele>909.0</ele><time>2026-04-10T10:58:48Z</time></trkpt><trkpt lat="40.7439336" lon="-3.8055364"><ele>909.0</ele><time>2026-04-10T10:58:48.999Z</time></trkpt><trkpt lat="40.7440222" lon="-3.8053651"><ele>909.0</ele><time>2026-04-10T10:58:50Z</time></trkpt><trkpt lat="40.7441105" lon="-3.8051942"><ele>909.0</ele><time>2026-04-10T10:58:51Z</time></trkpt><trkpt lat="40.7441958" lon="-3.8050251"><ele>909.0</ele><time>2026-04-10T10:58:52Z</time></trkpt><trkpt lat="40.7442867" lon="-3.8048586"><ele>909.0</ele><time>2026-04-10T10:58:53Z</time></trkpt><trkpt lat="40.7443767" lon="-3.8046882"><ele>909.0</ele><time>2026-04-10T10:58:54Z</time></trkpt><trkpt lat="40.7444689" lon="-3.8045139"><ele>909.0</ele><time>2026-04-10T10:58:55Z</time></trkpt><trkpt lat="40.7445595" lon="-3.8043464"><ele>908.3333333333333</ele><time>2026-04-10T10:58:56Z</time></trkpt><trkpt lat="40.7446525" lon="-3.8041789"><ele>907.6666666666666</ele><time>2026-04-10T10:58:57Z</time></trkpt><trkpt lat="40.7447391" lon="-3.8040039"><ele>907.0</ele><time>2026-04-10T10:58:58Z</time></trkpt><trkpt lat="40.7448193" lon="-3.8038268"><ele>907.0</ele><time>2026-04-10T10:58:59Z</time></trkpt><trkpt lat="40.7449008" lon="-3.8036506"><ele>907.0</ele><time>2026-04-10T10:59:00Z</time></trkpt><trkpt lat="40.7449861" lon="-3.8034764"><ele>907.0</ele><time>2026-04-10T10:59:01Z</time></trkpt><trkpt lat="40.7450688" lon="-3.8033143"><ele>907.6</ele><time>2026-04-10T10:59:02Z</time></trkpt><trkpt lat="40.7451405" lon="-3.8031747"><ele>908.2</ele><time>2026-04-10T10:59:03Z</time></trkpt><trkpt lat="40.7452055" lon="-3.8030526"><ele>908.8</ele><time>2026-04-10T10:59:04Z</time></trkpt><trkpt lat="40.7452638" lon="-3.8029468"><ele>909.4</ele><time>2026-04-10T10:59:05Z</time></trkpt><trkpt lat="40.7453183" lon="-3.8028499"><ele>910.0</ele><time>2026-04-10T10:59:06Z</time></trkpt><trkpt lat="40.7453638" lon="-3.8027623"><ele>910.3333333333333</ele><time>2026-04-10T10:59:07Z</time></trkpt><trkpt lat="40.7454066" lon="-3.8026828"><ele>910.6666666666666</ele><time>2026-04-10T10:59:08Z</time></trkpt><trkpt lat="40.7454473" lon="-3.8026111"><ele>911.0</ele><time>2026-04-10T10:59:09Z</time></trkpt><trkpt lat="40.7455247" lon="-3.802477"><ele>911.3333333333333</ele><time>2026-04-10T10:59:11Z</time></trkpt><trkpt lat="40.7455612" lon="-3.8024047"><ele>911.6666666666666</ele><time>2026-04-10T10:59:12Z</time></trkpt><trkpt lat="40.7456019" lon="-3.8023266"><ele>912.0</ele><time>2026-04-10T10:59:13Z</time></trkpt><trkpt lat="40.7456442" lon="-3.8022437"><ele>912.0</ele><time>2026-04-10T10:59:14Z</time></trkpt><trkpt lat="40.7456898" lon="-3.8021536"><ele>912.0</ele><time>2026-04-10T10:59:15Z</time></trkpt><trkpt lat="40.7457422" lon="-3.8020624"><ele>912.0</ele><time>2026-04-10T10:59:16Z</time></trkpt><trkpt lat="40.7457949" lon="-3.8019616"><ele>912.0</ele><time>2026-04-10T10:59:17Z</time></trkpt><trkpt lat="40.7458482" lon="-3.8018537"><ele>912.0</ele><time>2026-04-10T10:59:18Z</time></trkpt><trkpt lat="40.7459002" lon="-3.8017405"><ele>911.75</ele><time>2026-04-10T10:59:19Z</time></trkpt><trkpt lat="40.7459598" lon="-3.801623"><ele>911.5</ele><time>2026-04-10T10:59:20Z</time></trkpt><trkpt lat="40.7460237" lon="-3.8014965"><ele>911.25</ele><time>2026-04-10T10:59:21Z</time></trkpt><trkpt lat="40.7460901" lon="-3.8013752"><ele>911.0</ele><time>2026-04-10T10:59:22Z</time></trkpt><trkpt lat="40.7461579" lon="-3.8012525"><ele>911.75</ele><time>2026-04-10T10:59:23Z</time></trkpt><trkpt lat="40.7462288" lon="-3.8011179"><ele>912.5</ele><time>2026-04-10T10:59:24Z</time></trkpt><trkpt lat="40.7462959" lon="-3.8009744"><ele>913.25</ele><time>2026-04-10T10:59:25Z</time></trkpt><trkpt lat="40.7463694" lon="-3.8008224"><ele>914.0</ele><time>2026-04-10T10:59:26Z</time></trkpt><trkpt lat="40.7464481" lon="-3.8006733"><ele>914.0</ele><time>2026-04-10T10:59:27Z</time></trkpt><trkpt lat="40.7465255" lon="-3.8005247"><ele>914.0</ele><time>2026-04-10T10:59:27.999Z</time></trkpt><trkpt lat="40.7466009" lon="-3.8003787"><ele>914.0</ele><time>2026-04-10T10:59:29Z</time></trkpt><trkpt lat="40.7466726" lon="-3.8002438"><ele>914.0</ele><time>2026-04-10T10:59:30Z</time></trkpt><trkpt lat="40.7467465" lon="-3.8001099"><ele>914.0</ele><time>2026-04-10T10:59:31Z</time></trkpt><trkpt lat="40.7468158" lon="-3.799982"><ele>914.0000000000001</ele><time>2026-04-10T10:59:32Z</time></trkpt><trkpt lat="40.7468832" lon="-3.7998665"><ele>914.0000000000001</ele><time>2026-04-10T10:59:33Z</time></trkpt><trkpt lat="40.7469452" lon="-3.7997523"><ele>914.0</ele><time>2026-04-10T10:59:34Z</time></trkpt><trkpt lat="40.7470054" lon="-3.7996394"><ele>914.0</ele><time>2026-04-10T10:59:35Z</time></trkpt><trkpt lat="40.7470657" lon="-3.799518"><ele>914.0</ele><time>2026-04-10T10:59:36Z</time></trkpt><trkpt lat="40.7471269" lon="-3.7993907"><ele>914.0</ele><time>2026-04-10T10:59:37Z</time></trkpt><trkpt lat="40.7471932" lon="-3.7992618"><ele>914.0</ele><time>2026-04-10T10:59:38Z</time></trkpt><trkpt lat="40.7472645" lon="-3.7991322"><ele>914.0</ele><time>2026-04-10T10:59:39Z</time></trkpt><trkpt lat="40.7473375" lon="-3.799001"><ele>914.0</ele><time>2026-04-10T10:59:40Z</time></trkpt><trkpt lat="40.7474091" lon="-3.7988607"><ele>914.0</ele><time>2026-04-10T10:59:41Z</time></trkpt><trkpt lat="40.74748" lon="-3.7987206"><ele>914.0</ele><time>2026-04-10T10:59:42Z</time></trkpt><trkpt lat="40.7475536" lon="-3.7985754"><ele>914.0</ele><time>2026-04-10T10:59:43Z</time></trkpt><trkpt lat="40.7476286" lon="-3.7984339"><ele>913.75</ele><time>2026-04-10T10:59:44Z</time></trkpt><trkpt lat="40.7477031" lon="-3.7982917"><ele>913.5</ele><time>2026-04-10T10:59:45Z</time></trkpt><trkpt lat="40.7477829" lon="-3.7981473"><ele>913.25</ele><time>2026-04-10T10:59:46Z</time></trkpt><trkpt lat="40.7478639" lon="-3.7979946"><ele>913.0</ele><time>2026-04-10T10:59:47Z</time></trkpt><trkpt lat="40.7479444" lon="-3.797841"><ele>913.25</ele><time>2026-04-10T10:59:48Z</time></trkpt><trkpt lat="40.7480252" lon="-3.7976843"><ele>913.5</ele><time>2026-04-10T10:59:49Z</time></trkpt><trkpt lat="40.7481094" lon="-3.7975211"><ele>913.75</ele><time>2026-04-10T10:59:50Z</time></trkpt><trkpt lat="40.7481938" lon="-3.7973499"><ele>914.0</ele><time>2026-04-10T10:59:51Z</time></trkpt><trkpt lat="40.7482747" lon="-3.7971858"><ele>914.0</ele><time>2026-04-10T10:59:52Z</time></trkpt><trkpt lat="40.7483585" lon="-3.7970239"><ele>914.0</ele><time>2026-04-10T10:59:53Z</time></trkpt><trkpt lat="40.7484434" lon="-3.7968699"><ele>914.0</ele><time>2026-04-10T10:59:54Z</time></trkpt><trkpt lat="40.7485219" lon="-3.79672"><ele>914.0</ele><time>2026-04-10T10:59:55Z</time></trkpt><trkpt lat="40.7485962" lon="-3.7965732"><ele>915.0</ele><time>2026-04-10T10:59:56Z</time></trkpt><trkpt lat="40.74867" lon="-3.7964364"><ele>916.0</ele><time>2026-04-10T10:59:57Z</time></trkpt><trkpt lat="40.7487399" lon="-3.7963099"><ele>917.0</ele><time>2026-04-10T10:59:58Z</time></trkpt><trkpt lat="40.7488024" lon="-3.7961935"><ele>918.0</ele><time>2026-04-10T10:59:59Z</time></trkpt><trkpt lat="40.7488588" lon="-3.7960805"><ele>917.5999999999999</ele><time>2026-04-10T11:00:00Z</time></trkpt><trkpt lat="40.7489154" lon="-3.7959728"><ele>917.1999999999999</ele><time>2026-04-10T11:00:01Z</time></trkpt><trkpt lat="40.7489699" lon="-3.7958652"><ele>916.8</ele><time>2026-04-10T11:00:02Z</time></trkpt><trkpt lat="40.7490313" lon="-3.7957543"><ele>916.4</ele><time>2026-04-10T11:00:02.999Z</time></trkpt><trkpt lat="40.7490936" lon="-3.7956426"><ele>916.0</ele><time>2026-04-10T11:00:04Z</time></trkpt><trkpt lat="40.74915" lon="-3.7955387"><ele>916.0</ele><time>2026-04-10T11:00:05Z</time></trkpt><trkpt lat="40.7492057" lon="-3.7954335"><ele>915.9999999999999</ele><time>2026-04-10T11:00:06Z</time></trkpt><trkpt lat="40.7492591" lon="-3.7953184"><ele>915.9999999999999</ele><time>2026-04-10T11:00:07Z</time></trkpt><trkpt lat="40.7493174" lon="-3.7952003"><ele>916.0</ele><time>2026-04-10T11:00:08Z</time></trkpt><trkpt lat="40.7493847" lon="-3.7950785"><ele>916.0</ele><time>2026-04-10T11:00:09Z</time></trkpt><trkpt lat="40.7494465" lon="-3.794955"><ele>917.1999999999999</ele><time>2026-04-10T11:00:09.999Z</time></trkpt><trkpt lat="40.7495087" lon="-3.7948263"><ele>918.3999999999999</ele><time>2026-04-10T11:00:11Z</time></trkpt><trkpt lat="40.7495676" lon="-3.7946992"><ele>919.6</ele><time>2026-04-10T11:00:12Z</time></trkpt><trkpt lat="40.7496209" lon="-3.7945852"><ele>920.8</ele><time>2026-04-10T11:00:13Z</time></trkpt><trkpt lat="40.7496703" lon="-3.7944743"><ele>922.0</ele><time>2026-04-10T11:00:14Z</time></trkpt><trkpt lat="40.7497177" lon="-3.7943679"><ele>921.8</ele><time>2026-04-10T11:00:15Z</time></trkpt><trkpt lat="40.7497674" lon="-3.7942579"><ele>921.6</ele><time>2026-04-10T11:00:16Z</time></trkpt><trkpt lat="40.7498096" lon="-3.7941508"><ele>921.3999999999999</ele><time>2026-04-10T11:00:17Z</time></trkpt><trkpt lat="40.7498552" lon="-3.7940443"><ele>921.1999999999999</ele><time>2026-04-10T11:00:18Z</time></trkpt><trkpt lat="40.749899" lon="-3.7939427"><ele>921.0</ele><time>2026-04-10T11:00:19Z</time></trkpt><trkpt lat="40.7499402" lon="-3.7938387"><ele>921.0</ele><time>2026-04-10T11:00:20Z</time></trkpt><trkpt lat="40.7499879" lon="-3.7937275"><ele>920.9999999999999</ele><time>2026-04-10T11:00:21Z</time></trkpt><trkpt lat="40.7500375" lon="-3.7936087"><ele>920.9999999999999</ele><time>2026-04-10T11:00:22Z</time></trkpt><trkpt lat="40.7500881" lon="-3.7934865"><ele>921.0</ele><time>2026-04-10T11:00:23Z</time></trkpt><trkpt lat="40.7501394" lon="-3.7933594"><ele>921.0</ele><time>2026-04-10T11:00:24Z</time></trkpt><trkpt lat="40.7501907" lon="-3.7932313"><ele>920.4</ele><time>2026-04-10T11:00:25Z</time></trkpt><trkpt lat="40.7502431" lon="-3.7931032"><ele>919.8</ele><time>2026-04-10T11:00:26Z</time></trkpt><trkpt lat="40.7502901" lon="-3.7929783"><ele>919.1999999999999</ele><time>2026-04-10T11:00:27Z</time></trkpt><trkpt lat="40.7503404" lon="-3.7928594"><ele>918.5999999999999</ele><time>2026-04-10T11:00:27.999Z</time></trkpt><trkpt lat="40.7503872" lon="-3.7927394"><ele>918.0</ele><time>2026-04-10T11:00:29Z</time></trkpt><trkpt lat="40.750434" lon="-3.7926171"><ele>918.0</ele><time>2026-04-10T11:00:30Z</time></trkpt><trkpt lat="40.7504814" lon="-3.7924989"><ele>918.0</ele><time>2026-04-10T11:00:31Z</time></trkpt><trkpt lat="40.7505278" lon="-3.7923787"><ele>918.0</ele><time>2026-04-10T11:00:31.999Z</time></trkpt><trkpt lat="40.7505683" lon="-3.7922592"><ele>918.0</ele><time>2026-04-10T11:00:33Z</time></trkpt><trkpt lat="40.7506105" lon="-3.7921348"><ele>918.0</ele><time>2026-04-10T11:00:34Z</time></trkpt><trkpt lat="40.7506466" lon="-3.7920031"><ele>918.0</ele><time>2026-04-10T11:00:35Z</time></trkpt><trkpt lat="40.7506752" lon="-3.7918668"><ele>918.0</ele><time>2026-04-10T11:00:36Z</time></trkpt><trkpt lat="40.7507025" lon="-3.7917204"><ele>918.0</ele><time>2026-04-10T11:00:37Z</time></trkpt><trkpt lat="40.7507258" lon="-3.7915846"><ele>918.0</ele><time>2026-04-10T11:00:37.999Z</time></trkpt><trkpt lat="40.7507493" lon="-3.7914401"><ele>918.0</ele><time>2026-04-10T11:00:39Z</time></trkpt><trkpt lat="40.750767" lon="-3.7913081"><ele>918.0</ele><time>2026-04-10T11:00:40Z</time></trkpt><trkpt lat="40.7507812" lon="-3.7911859"><ele>918.0</ele><time>2026-04-10T11:00:41Z</time></trkpt><trkpt lat="40.7507922" lon="-3.7910643"><ele>918.0</ele><time>2026-04-10T11:00:42Z</time></trkpt><trkpt lat="40.750804" lon="-3.7909445"><ele>918.0</ele><time>2026-04-10T11:00:43Z</time></trkpt><trkpt lat="40.7508178" lon="-3.790818"><ele>918.0</ele><time>2026-04-10T11:00:43.999Z</time></trkpt><trkpt lat="40.7508324" lon="-3.7906881"><ele>918.0</ele><time>2026-04-10T11:00:45Z</time></trkpt><trkpt lat="40.750845" lon="-3.7905642"><ele>918.0</ele><time>2026-04-10T11:00:46Z</time></trkpt><trkpt lat="40.750861" lon="-3.790441"><ele>918.0</ele><time>2026-04-10T11:00:47Z</time></trkpt><trkpt lat="40.7508742" lon="-3.790321"><ele>918.0</ele><time>2026-04-10T11:00:48Z</time></trkpt><trkpt lat="40.7508892" lon="-3.7901996"><ele>918.0</ele><time>2026-04-10T11:00:49Z</time></trkpt><trkpt lat="40.7509023" lon="-3.7900784"><ele>918.1666666666666</ele><time>2026-04-10T11:00:50Z</time></trkpt><trkpt lat="40.7509153" lon="-3.7899587"><ele>918.3333333333333</ele><time>2026-04-10T11:00:50.999Z</time></trkpt><trkpt lat="40.7509293" lon="-3.7898454"><ele>918.5</ele><time>2026-04-10T11:00:52Z</time></trkpt><trkpt lat="40.7509389" lon="-3.7897434"><ele>918.6666666666666</ele><time>2026-04-10T11:00:53Z</time></trkpt><trkpt lat="40.7509507" lon="-3.7896476"><ele>918.8333333333333</ele><time>2026-04-10T11:00:54Z</time></trkpt><trkpt lat="40.7509611" lon="-3.7895574"><ele>919.0</ele><time>2026-04-10T11:00:55Z</time></trkpt><trkpt lat="40.7509731" lon="-3.789463"><ele>919.0</ele><time>2026-04-10T11:00:56Z</time></trkpt><trkpt lat="40.7509817" lon="-3.7893728"><ele>919.0000000000001</ele><time>2026-04-10T11:00:57Z</time></trkpt><trkpt lat="40.751" lon="-3.7892092"><ele>919.0000000000001</ele><time>2026-04-10T11:00:59Z</time></trkpt><trkpt lat="40.7510164" lon="-3.7890615"><ele>919.0</ele><time>2026-04-10T11:01:01Z</time></trkpt><trkpt lat="40.7510369" lon="-3.7889076"><ele>919.0</ele><time>2026-04-10T11:01:02.999Z</time></trkpt><trkpt lat="40.7510496" lon="-3.78882"><ele>919.1666666666666</ele><time>2026-04-10T11:01:03.999Z</time></trkpt><trkpt lat="40.7510643" lon="-3.7887351"><ele>919.3333333333333</ele><time>2026-04-10T11:01:04.999Z</time></trkpt><trkpt lat="40.7510932" lon="-3.7886495"><ele>919.5</ele><time>2026-04-10T11:01:06Z</time></trkpt><trkpt lat="40.751143" lon="-3.7885641"><ele>919.6666666666667</ele><time>2026-04-10T11:01:07Z</time></trkpt><trkpt lat="40.7511969" lon="-3.7884756"><ele>919.8333333333334</ele><time>2026-04-10T11:01:07.999Z</time></trkpt><trkpt lat="40.7512461" lon="-3.788396"><ele>920.0</ele><time>2026-04-10T11:01:09Z</time></trkpt><trkpt lat="40.7512908" lon="-3.788315"><ele>919.6666666666667</ele><time>2026-04-10T11:01:10Z</time></trkpt><trkpt lat="40.7513439" lon="-3.7882281"><ele>919.3333333333334</ele><time>2026-04-10T11:01:11Z</time></trkpt><trkpt lat="40.7513944" lon="-3.7881382"><ele>919.0</ele><time>2026-04-10T11:01:12Z</time></trkpt><trkpt lat="40.7514453" lon="-3.7880527"><ele>918.6666666666667</ele><time>2026-04-10T11:01:12.999Z</time></trkpt><trkpt lat="40.7514936" lon="-3.7879742"><ele>918.3333333333334</ele><time>2026-04-10T11:01:13.999Z</time></trkpt><trkpt lat="40.7515431" lon="-3.7878955"><ele>918.0</ele><time>2026-04-10T11:01:15Z</time></trkpt><trkpt lat="40.7515921" lon="-3.7878177"><ele>918.0</ele><time>2026-04-10T11:01:15.999Z</time></trkpt><trkpt lat="40.7516376" lon="-3.7877386"><ele>918.0</ele><time>2026-04-10T11:01:17Z</time></trkpt><trkpt lat="40.751683" lon="-3.7876619"><ele>918.0</ele><time>2026-04-10T11:01:18Z</time></trkpt><trkpt lat="40.7517276" lon="-3.7875794"><ele>918.0</ele><time>2026-04-10T11:01:19Z</time></trkpt><trkpt lat="40.7517766" lon="-3.7874952"><ele>918.0</ele><time>2026-04-10T11:01:20Z</time></trkpt><trkpt lat="40.7518284" lon="-3.7874084"><ele>918.0</ele><time>2026-04-10T11:01:20.999Z</time></trkpt><trkpt lat="40.751884" lon="-3.787321"><ele>918.1666666666666</ele><time>2026-04-10T11:01:21.999Z</time></trkpt><trkpt lat="40.7519405" lon="-3.7872286"><ele>918.3333333333333</ele><time>2026-04-10T11:01:23Z</time></trkpt><trkpt lat="40.7519955" lon="-3.7871403"><ele>918.5</ele><time>2026-04-10T11:01:23.999Z</time></trkpt><trkpt lat="40.752049" lon="-3.7870646"><ele>918.6666666666666</ele><time>2026-04-10T11:01:25Z</time></trkpt><trkpt lat="40.7521003" lon="-3.7869828"><ele>918.8333333333333</ele><time>2026-04-10T11:01:26Z</time></trkpt><trkpt lat="40.7521481" lon="-3.7868951"><ele>919.0</ele><time>2026-04-10T11:01:27Z</time></trkpt><trkpt lat="40.7522" lon="-3.7868039"><ele>918.9999999999999</ele><time>2026-04-10T11:01:28Z</time></trkpt><trkpt lat="40.7522529" lon="-3.7867116"><ele>919.0</ele><time>2026-04-10T11:01:29Z</time></trkpt><trkpt lat="40.7523037" lon="-3.7866252"><ele>919.0</ele><time>2026-04-10T11:01:30Z</time></trkpt><trkpt lat="40.7523501" lon="-3.7865408"><ele>919.0</ele><time>2026-04-10T11:01:31Z</time></trkpt><trkpt lat="40.7524005" lon="-3.7864576"><ele>918.9999999999999</ele><time>2026-04-10T11:01:32Z</time></trkpt><trkpt lat="40.7524489" lon="-3.7863789"><ele>919.0</ele><time>2026-04-10T11:01:33Z</time></trkpt><trkpt lat="40.7524951" lon="-3.7863014"><ele>918.9999999999999</ele><time>2026-04-10T11:01:33.999Z</time></trkpt><trkpt lat="40.7525357" lon="-3.786232"><ele>919.0</ele><time>2026-04-10T11:01:35Z</time></trkpt><trkpt lat="40.7525715" lon="-3.7861607"><ele>919.0</ele><time>2026-04-10T11:01:36Z</time></trkpt><trkpt lat="40.7525548" lon="-3.7860208"><ele>919.0</ele><time>2026-04-10T11:01:38Z</time></trkpt><trkpt lat="40.7524978" lon="-3.785966"><ele>918.9999999999999</ele><time>2026-04-10T11:01:39Z</time></trkpt><trkpt lat="40.7524314" lon="-3.7858996"><ele>919.0</ele><time>2026-04-10T11:01:40Z</time></trkpt><trkpt lat="40.7523804" lon="-3.7858405"><ele>918.8000000000001</ele><time>2026-04-10T11:01:41Z</time></trkpt><trkpt lat="40.7523369" lon="-3.785775"><ele>918.6000000000001</ele><time>2026-04-10T11:01:42Z</time></trkpt><trkpt lat="40.7522532" lon="-3.7856623"><ele>918.4</ele><time>2026-04-10T11:01:44Z</time></trkpt><trkpt lat="40.7521788" lon="-3.7855522"><ele>918.2</ele><time>2026-04-10T11:01:46Z</time></trkpt><trkpt lat="40.7521886" lon="-3.7854159"><ele>918.0</ele><time>2026-04-10T11:01:48Z</time></trkpt><trkpt lat="40.752224" lon="-3.7853438"><ele>918.0</ele><time>2026-04-10T11:01:48.999Z</time></trkpt><trkpt lat="40.7522698" lon="-3.7852738"><ele>918.0</ele><time>2026-04-10T11:01:50Z</time></trkpt><trkpt lat="40.7523168" lon="-3.7852027"><ele>918.0</ele><time>2026-04-10T11:01:51Z</time></trkpt><trkpt lat="40.7523611" lon="-3.7851396"><ele>918.0</ele><time>2026-04-10T11:01:52Z</time></trkpt><trkpt lat="40.7524067" lon="-3.7850702"><ele>918.0</ele><time>2026-04-10T11:01:53Z</time></trkpt><trkpt lat="40.7524493" lon="-3.7849986"><ele>918.0</ele><time>2026-04-10T11:01:54Z</time></trkpt><trkpt lat="40.7524895" lon="-3.7849322"><ele>918.0</ele><time>2026-04-10T11:01:55Z</time></trkpt><trkpt lat="40.7525617" lon="-3.7847964"><ele>918.0</ele><time>2026-04-10T11:01:57Z</time></trkpt><trkpt lat="40.752601" lon="-3.7847289"><ele>918.0</ele><time>2026-04-10T11:01:58Z</time></trkpt><trkpt lat="40.7526381" lon="-3.7846587"><ele>918.0</ele><time>2026-04-10T11:01:59Z</time></trkpt><trkpt lat="40.752679" lon="-3.7845927"><ele>918.0</ele><time>2026-04-10T11:02:00Z</time></trkpt><trkpt lat="40.7527204" lon="-3.7845261"><ele>918.0</ele><time>2026-04-10T11:02:01Z</time></trkpt><trkpt lat="40.752773" lon="-3.7843946"><ele>918.0</ele><time>2026-04-10T11:02:03Z</time></trkpt><trkpt lat="40.7527688" lon="-3.7842886"><ele>921.0</ele><time>2026-04-10T11:02:05Z</time></trkpt><trkpt lat="40.7527616" lon="-3.7841884"><ele>921.0</ele><time>2026-04-10T11:02:08Z</time></trkpt><trkpt lat="40.7528265" lon="-3.7841758"><ele>921.0</ele><time>2026-04-10T11:02:12Z</time></trkpt><trkpt lat="40.7528891" lon="-3.7842239"><ele>921.0</ele><time>2026-04-10T11:02:43Z</time></trkpt></trkseg></trk></gpx>